﻿<?xml version="1.0" encoding="utf-8"?><gpx creator="Garmin Desktop App" version="1.1" xsi:schemaLocation="http://www.topografix.com/GPX/1/1 http://www.topografix.com/GPX/1/1/gpx.xsd http://www.garmin.com/xmlschemas/WaypointExtension/v1 http://www8.garmin.com/xmlschemas/WaypointExtensionv1.xsd http://www.garmin.com/xmlschemas/TrackPointExtension/v1 http://www.garmin.com/xmlschemas/TrackPointExtensionv1.xsd http://www.garmin.com/xmlschemas/GpxExtensions/v3 http://www8.garmin.com/xmlschemas/GpxExtensionsv3.xsd http://www.garmin.com/xmlschemas/ActivityExtension/v1 http://www8.garmin.com/xmlschemas/ActivityExtensionv1.xsd http://www.garmin.com/xmlschemas/AdventuresExtensions/v1 http://www8.garmin.com/xmlschemas/AdventuresExtensionv1.xsd http://www.garmin.com/xmlschemas/PressureExtension/v1 http://www.garmin.com/xmlschemas/PressureExtensionv1.xsd http://www.garmin.com/xmlschemas/TripExtensions/v1 http://www.garmin.com/xmlschemas/TripExtensionsv1.xsd http://www.garmin.com/xmlschemas/TripMetaDataExtensions/v1 http://www.garmin.com/xmlschemas/TripMetaDataExtensionsv1.xsd http://www.garmin.com/xmlschemas/ViaPointTransportationModeExtensions/v1 http://www.garmin.com/xmlschemas/ViaPointTransportationModeExtensionsv1.xsd http://www.garmin.com/xmlschemas/CreationTimeExtension/v1 http://www.garmin.com/xmlschemas/CreationTimeExtensionsv1.xsd http://www.garmin.com/xmlschemas/AccelerationExtension/v1 http://www.garmin.com/xmlschemas/AccelerationExtensionv1.xsd http://www.garmin.com/xmlschemas/PowerExtension/v1 http://www.garmin.com/xmlschemas/PowerExtensionv1.xsd http://www.garmin.com/xmlschemas/VideoExtension/v1 http://www.garmin.com/xmlschemas/VideoExtensionv1.xsd" xmlns="http://www.topografix.com/GPX/1/1" xmlns:xsi="http://www.w3.org/2001/XMLSchema-instance" xmlns:wptx1="http://www.garmin.com/xmlschemas/WaypointExtension/v1" xmlns:gpxtrx="http://www.garmin.com/xmlschemas/GpxExtensions/v3" xmlns:gpxtpx="http://www.garmin.com/xmlschemas/TrackPointExtension/v1" xmlns:gpxx="http://www.garmin.com/xmlschemas/GpxExtensions/v3" xmlns:trp="http://www.garmin.com/xmlschemas/TripExtensions/v1" xmlns:adv="http://www.garmin.com/xmlschemas/AdventuresExtensions/v1" xmlns:prs="http://www.garmin.com/xmlschemas/PressureExtension/v1" xmlns:tmd="http://www.garmin.com/xmlschemas/TripMetaDataExtensions/v1" xmlns:vptm="http://www.garmin.com/xmlschemas/ViaPointTransportationModeExtensions/v1" xmlns:ctx="http://www.garmin.com/xmlschemas/CreationTimeExtension/v1" xmlns:gpxacc="http://www.garmin.com/xmlschemas/AccelerationExtension/v1" xmlns:gpxpx="http://www.garmin.com/xmlschemas/PowerExtension/v1" xmlns:vidx1="http://www.garmin.com/xmlschemas/VideoExtension/v1">

  <metadata>
    <link href="http://www.garmin.com">
      <text>Garmin International</text>
    </link>
    <time>2018-07-10T20:34:07Z</time>
    <bounds maxlat="50.068473983556032" maxlon="8.599011981859803" minlat="48.638562960550189" minlon="2.330536041408777" />
  </metadata>

  <trk>
    <name>Track vom: 2018-07-10 07:49</name>
    <extensions>
      <gpxx:TrackExtension>
        <gpxx:DisplayColor>DarkGray</gpxx:DisplayColor>
      </gpxx:TrackExtension>
    </extensions>
    <trkseg>
      <trkpt lat="48.810654999688268" lon="2.332576029002667">
        <ele>85.209999999999994</ele>
        <time>2018-07-10T05:49:38Z</time>
      </trkpt>
      <trkpt lat="48.810660028830171" lon="2.332576029002667">
        <ele>84.730000000000004</ele>
        <time>2018-07-10T05:50:23Z</time>
      </trkpt>
      <trkpt lat="48.810660028830171" lon="2.332576029002667">
        <ele>84.730000000000004</ele>
        <time>2018-07-10T05:50:38Z</time>
      </trkpt>
      <trkpt lat="48.810668997466564" lon="2.332469997927547">
        <ele>84.25</ele>
        <time>2018-07-10T05:50:40Z</time>
      </trkpt>
      <trkpt lat="48.810668997466564" lon="2.332469997927547">
        <ele>83.769999999999996</ele>
        <time>2018-07-10T05:50:41Z</time>
      </trkpt>
      <trkpt lat="48.810687018558383" lon="2.332808962091804">
        <ele>82.329999999999998</ele>
        <time>2018-07-10T05:50:45Z</time>
      </trkpt>
      <trkpt lat="48.810756001621485" lon="2.332919016480446">
        <ele>82.329999999999998</ele>
        <time>2018-07-10T05:51:00Z</time>
      </trkpt>
      <trkpt lat="48.810756001621485" lon="2.332919016480446">
        <ele>82.329999999999998</ele>
        <time>2018-07-10T05:51:03Z</time>
      </trkpt>
      <trkpt lat="48.810778968036175" lon="2.333052037283778">
        <ele>81.849999999999994</ele>
        <time>2018-07-10T05:51:05Z</time>
      </trkpt>
      <trkpt lat="48.810694981366396" lon="2.332843998447061">
        <ele>81.370000000000005</ele>
        <time>2018-07-10T05:51:06Z</time>
      </trkpt>
      <trkpt lat="48.810691041871905" lon="2.332779038697481">
        <ele>80.890000000000001</ele>
        <time>2018-07-10T05:51:07Z</time>
      </trkpt>
      <trkpt lat="48.810686012730002" lon="2.332707960158587">
        <ele>80.409999999999997</ele>
        <time>2018-07-10T05:51:08Z</time>
      </trkpt>
      <trkpt lat="48.810668997466564" lon="2.332469997927547">
        <ele>79.450000000000003</ele>
        <time>2018-07-10T05:51:11Z</time>
      </trkpt>
      <trkpt lat="48.810615018010139" lon="2.33185401186347">
        <ele>80.890000000000001</ele>
        <time>2018-07-10T05:51:21Z</time>
      </trkpt>
      <trkpt lat="48.810603031888604" lon="2.331713028252125">
        <ele>81.849999999999994</ele>
        <time>2018-07-10T05:51:23Z</time>
      </trkpt>
      <trkpt lat="48.81059599108994" lon="2.331637004390359">
        <ele>81.849999999999994</ele>
        <time>2018-07-10T05:51:24Z</time>
      </trkpt>
      <trkpt lat="48.810580987483263" lon="2.331464001908898">
        <ele>82.329999999999998</ele>
        <time>2018-07-10T05:51:26Z</time>
      </trkpt>
      <trkpt lat="48.810536982491612" lon="2.330954968929291">
        <ele>81.849999999999994</ele>
        <time>2018-07-10T05:51:34Z</time>
      </trkpt>
      <trkpt lat="48.81053002551198" lon="2.330880034714937">
        <ele>81.849999999999994</ele>
        <time>2018-07-10T05:51:35Z</time>
      </trkpt>
      <trkpt lat="48.810523990541697" lon="2.330804010853171">
        <ele>81.849999999999994</ele>
        <time>2018-07-10T05:51:36Z</time>
      </trkpt>
      <trkpt lat="48.810518039390445" lon="2.33073896728456">
        <ele>81.849999999999994</ele>
        <time>2018-07-10T05:51:37Z</time>
      </trkpt>
      <trkpt lat="48.810513010248542" lon="2.330683981999755">
        <ele>82.329999999999998</ele>
        <time>2018-07-10T05:51:38Z</time>
      </trkpt>
      <trkpt lat="48.8105099927634" lon="2.330645006150007">
        <ele>82.329999999999998</ele>
        <time>2018-07-10T05:51:39Z</time>
      </trkpt>
      <trkpt lat="48.810589034110308" lon="2.330536041408777">
        <ele>82.329999999999998</ele>
        <time>2018-07-10T05:51:40Z</time>
      </trkpt>
      <trkpt lat="48.810602026060224" lon="2.330541992560029">
        <ele>82.329999999999998</ele>
        <time>2018-07-10T05:51:41Z</time>
      </trkpt>
      <trkpt lat="48.810619963333011" lon="2.330549033358693">
        <ele>82.329999999999998</ele>
        <time>2018-07-10T05:51:42Z</time>
      </trkpt>
      <trkpt lat="48.810637984424829" lon="2.330556996166706">
        <ele>82.329999999999998</ele>
        <time>2018-07-10T05:51:43Z</time>
      </trkpt>
      <trkpt lat="48.810662040486932" lon="2.33056697063148">
        <ele>82.329999999999998</ele>
        <time>2018-07-10T05:51:44Z</time>
      </trkpt>
      <trkpt lat="48.810696993023157" lon="2.330582980066538">
        <ele>82.329999999999998</ele>
        <time>2018-07-10T05:51:45Z</time>
      </trkpt>
      <trkpt lat="48.810739992186427" lon="2.330601001158357">
        <ele>82.329999999999998</ele>
        <time>2018-07-10T05:51:46Z</time>
      </trkpt>
      <trkpt lat="48.810836970806122" lon="2.330642994493246">
        <ele>82.810000000000002</ele>
        <time>2018-07-10T05:51:48Z</time>
      </trkpt>
      <trkpt lat="48.810883993282914" lon="2.330663027241826">
        <ele>82.810000000000002</ele>
        <time>2018-07-10T05:51:49Z</time>
      </trkpt>
      <trkpt lat="48.810926992446184" lon="2.330680964514613">
        <ele>82.810000000000002</ele>
        <time>2018-07-10T05:51:50Z</time>
      </trkpt>
      <trkpt lat="48.810970997437835" lon="2.330700997263193">
        <ele>82.810000000000002</ele>
        <time>2018-07-10T05:51:51Z</time>
      </trkpt>
      <trkpt lat="48.811021959409118" lon="2.330722035840154">
        <ele>82.329999999999998</ele>
        <time>2018-07-10T05:51:52Z</time>
      </trkpt>
      <trkpt lat="48.811067976057529" lon="2.330741984769702">
        <ele>82.329999999999998</ele>
        <time>2018-07-10T05:51:53Z</time>
      </trkpt>
      <trkpt lat="48.811112986877561" lon="2.330762017518282">
        <ele>82.329999999999998</ele>
        <time>2018-07-10T05:51:54Z</time>
      </trkpt>
      <trkpt lat="48.811164032667875" lon="2.330783978104591">
        <ele>82.329999999999998</ele>
        <time>2018-07-10T05:51:55Z</time>
      </trkpt>
      <trkpt lat="48.811219017952681" lon="2.330808034166694">
        <ele>82.329999999999998</ele>
        <time>2018-07-10T05:51:56Z</time>
      </trkpt>
      <trkpt lat="48.811275009065866" lon="2.330832006409764">
        <ele>82.810000000000002</ele>
        <time>2018-07-10T05:51:57Z</time>
      </trkpt>
      <trkpt lat="48.811322031542659" lon="2.330852039158344">
        <ele>83.290000000000006</ele>
        <time>2018-07-10T05:51:58Z</time>
      </trkpt>
      <trkpt lat="48.811407024040818" lon="2.33088799752295">
        <ele>83.769999999999996</ele>
        <time>2018-07-10T05:52:00Z</time>
      </trkpt>
      <trkpt lat="48.811450023204088" lon="2.33090702444315">
        <ele>83.769999999999996</ele>
        <time>2018-07-10T05:52:01Z</time>
      </trkpt>
      <trkpt lat="48.811540966853499" lon="2.330946000292897">
        <ele>84.25</ele>
        <time>2018-07-10T05:52:03Z</time>
      </trkpt>
      <trkpt lat="48.811740959063172" lon="2.331033004447818">
        <ele>84.25</ele>
        <time>2018-07-10T05:52:07Z</time>
      </trkpt>
      <trkpt lat="48.811782030388713" lon="2.331057982519269">
        <ele>84.25</ele>
        <time>2018-07-10T05:52:08Z</time>
      </trkpt>
      <trkpt lat="48.81182000041008" lon="2.331082038581371">
        <ele>84.25</ele>
        <time>2018-07-10T05:52:09Z</time>
      </trkpt>
      <trkpt lat="48.811858976259828" lon="2.331106010824442">
        <ele>84.730000000000004</ele>
        <time>2018-07-10T05:52:10Z</time>
      </trkpt>
      <trkpt lat="48.811900969594717" lon="2.331131994724274">
        <ele>84.730000000000004</ele>
        <time>2018-07-10T05:52:11Z</time>
      </trkpt>
      <trkpt lat="48.811942040920258" lon="2.331157978624106">
        <ele>84.25</ele>
        <time>2018-07-10T05:52:12Z</time>
      </trkpt>
      <trkpt lat="48.812212022021413" lon="2.331342967227101">
        <ele>83.290000000000006</ele>
        <time>2018-07-10T05:52:21Z</time>
      </trkpt>
      <trkpt lat="48.812581999227405" lon="2.331625018268824">
        <ele>80.890000000000001</ele>
        <time>2018-07-10T05:52:30Z</time>
      </trkpt>
      <trkpt lat="48.812623992562294" lon="2.331655025482178">
        <ele>80.890000000000001</ele>
        <time>2018-07-10T05:52:31Z</time>
      </trkpt>
      <trkpt lat="48.812667997553945" lon="2.331686038523912">
        <ele>80.409999999999997</ele>
        <time>2018-07-10T05:52:32Z</time>
      </trkpt>
      <trkpt lat="48.812995981425047" lon="2.331924000754952">
        <ele>79.450000000000003</ele>
        <time>2018-07-10T05:52:40Z</time>
      </trkpt>
      <trkpt lat="48.813028000295162" lon="2.331946967169642">
        <ele>79.450000000000003</ele>
        <time>2018-07-10T05:52:41Z</time>
      </trkpt>
      <trkpt lat="48.81306697614491" lon="2.331974962726235">
        <ele>79.450000000000003</ele>
        <time>2018-07-10T05:52:42Z</time>
      </trkpt>
      <trkpt lat="48.813500991091132" lon="2.332190964370966">
        <ele>81.849999999999994</ele>
        <time>2018-07-10T05:52:50Z</time>
      </trkpt>
      <trkpt lat="48.814059980213642" lon="2.332454994320869">
        <ele>83.769999999999996</ele>
        <time>2018-07-10T05:53:00Z</time>
      </trkpt>
      <trkpt lat="48.814723994582891" lon="2.332770992070437">
        <ele>82.329999999999998</ele>
        <time>2018-07-10T05:53:12Z</time>
      </trkpt>
      <trkpt lat="48.814818039536476" lon="2.332818014547229">
        <ele>83.290000000000006</ele>
        <time>2018-07-10T05:53:15Z</time>
      </trkpt>
      <trkpt lat="48.814863972365856" lon="2.332839975133538">
        <ele>83.769999999999996</ele>
        <time>2018-07-10T05:53:16Z</time>
      </trkpt>
      <trkpt lat="48.814906971529126" lon="2.332862019538879">
        <ele>83.290000000000006</ele>
        <time>2018-07-10T05:53:17Z</time>
      </trkpt>
      <trkpt lat="48.814951982349157" lon="2.332884985953569">
        <ele>83.290000000000006</ele>
        <time>2018-07-10T05:53:18Z</time>
      </trkpt>
      <trkpt lat="48.814997998997569" lon="2.332908036187291">
        <ele>83.290000000000006</ele>
        <time>2018-07-10T05:53:19Z</time>
      </trkpt>
      <trkpt lat="48.815101012587547" lon="2.332958998158574">
        <ele>83.290000000000006</ele>
        <time>2018-07-10T05:53:21Z</time>
      </trkpt>
      <trkpt lat="48.81521500647068" lon="2.333015995100141">
        <ele>82.810000000000002</ele>
        <time>2018-07-10T05:53:23Z</time>
      </trkpt>
      <trkpt lat="48.815454980358481" lon="2.333128983154893">
        <ele>82.329999999999998</ele>
        <time>2018-07-10T05:53:27Z</time>
      </trkpt>
      <trkpt lat="48.815728984773159" lon="2.33325001783669">
        <ele>81.849999999999994</ele>
        <time>2018-07-10T05:53:33Z</time>
      </trkpt>
      <trkpt lat="48.815762009471655" lon="2.333265021443367">
        <ele>82.329999999999998</ele>
        <time>2018-07-10T05:53:35Z</time>
      </trkpt>
      <trkpt lat="48.815780030563474" lon="2.333271978422999">
        <ele>82.810000000000002</ele>
        <time>2018-07-10T05:53:36Z</time>
      </trkpt>
      <trkpt lat="48.815942974761128" lon="2.333341967314482">
        <ele>82.810000000000002</ele>
        <time>2018-07-10T05:53:47Z</time>
      </trkpt>
      <trkpt lat="48.816118994727731" lon="2.333416985347867">
        <ele>82.810000000000002</ele>
        <time>2018-07-10T05:53:57Z</time>
      </trkpt>
      <trkpt lat="48.816118994727731" lon="2.333416985347867">
        <ele>82.810000000000002</ele>
        <time>2018-07-10T05:54:38Z</time>
      </trkpt>
      <trkpt lat="48.816161993891001" lon="2.333436012268066">
        <ele>82.810000000000002</ele>
        <time>2018-07-10T05:54:42Z</time>
      </trkpt>
      <trkpt lat="48.816169034689665" lon="2.333439029753208">
        <ele>82.810000000000002</ele>
        <time>2018-07-10T05:54:43Z</time>
      </trkpt>
      <trkpt lat="48.816213961690664" lon="2.333458978682756">
        <ele>82.810000000000002</ele>
        <time>2018-07-10T05:54:44Z</time>
      </trkpt>
      <trkpt lat="48.816571030765772" lon="2.333618989214301">
        <ele>82.329999999999998</ele>
        <time>2018-07-10T05:54:50Z</time>
      </trkpt>
      <trkpt lat="48.816625010222197" lon="2.333643967285752">
        <ele>82.810000000000002</ele>
        <time>2018-07-10T05:54:51Z</time>
      </trkpt>
      <trkpt lat="48.816661974415183" lon="2.33365997672081">
        <ele>82.810000000000002</ele>
        <time>2018-07-10T05:54:52Z</time>
      </trkpt>
      <trkpt lat="48.816774040460587" lon="2.333824010565877">
        <ele>83.290000000000006</ele>
        <time>2018-07-10T05:54:53Z</time>
      </trkpt>
      <trkpt lat="48.816766999661922" lon="2.333897016942501">
        <ele>83.290000000000006</ele>
        <time>2018-07-10T05:54:54Z</time>
      </trkpt>
      <trkpt lat="48.816741015762091" lon="2.334379982203245">
        <ele>82.329999999999998</ele>
        <time>2018-07-10T05:55:03Z</time>
      </trkpt>
      <trkpt lat="48.81673900410533" lon="2.334406971931458">
        <ele>81.849999999999994</ele>
        <time>2018-07-10T05:55:13Z</time>
      </trkpt>
      <trkpt lat="48.816710002720356" lon="2.334782984107733">
        <ele>80.409999999999997</ele>
        <time>2018-07-10T05:55:27Z</time>
      </trkpt>
      <trkpt lat="48.816702961921692" lon="2.334874011576176">
        <ele>80.409999999999997</ele>
        <time>2018-07-10T05:55:28Z</time>
      </trkpt>
      <trkpt lat="48.816694999113679" lon="2.33496998436749">
        <ele>79.930000000000007</ele>
        <time>2018-07-10T05:55:29Z</time>
      </trkpt>
      <trkpt lat="48.816684018820524" lon="2.335067968815565">
        <ele>79.450000000000003</ele>
        <time>2018-07-10T05:55:30Z</time>
      </trkpt>
      <trkpt lat="48.816674966365099" lon="2.335172994062305">
        <ele>79.450000000000003</ele>
        <time>2018-07-10T05:55:31Z</time>
      </trkpt>
      <trkpt lat="48.816669015213847" lon="2.33529101125896">
        <ele>78.969999999999999</ele>
        <time>2018-07-10T05:55:32Z</time>
      </trkpt>
      <trkpt lat="48.81659097969532" lon="2.336570005863905">
        <ele>75.599999999999994</ele>
        <time>2018-07-10T05:55:41Z</time>
      </trkpt>
      <trkpt lat="48.816588968038559" lon="2.336835963651538">
        <ele>75.120000000000005</ele>
        <time>2018-07-10T05:55:43Z</time>
      </trkpt>
      <trkpt lat="48.816529959440231" lon="2.337927035987377">
        <ele>73.680000000000007</ele>
        <time>2018-07-10T05:55:50Z</time>
      </trkpt>
      <trkpt lat="48.816527025774121" lon="2.338177990168333">
        <ele>73.200000000000003</ele>
        <time>2018-07-10T05:55:52Z</time>
      </trkpt>
      <trkpt lat="48.816517973318696" lon="2.338270023465157">
        <ele>73.200000000000003</ele>
        <time>2018-07-10T05:55:53Z</time>
      </trkpt>
      <trkpt lat="48.816472962498665" lon="2.338843010365963">
        <ele>72.239999999999995</ele>
        <time>2018-07-10T05:55:58Z</time>
      </trkpt>
      <trkpt lat="48.816412026062608" lon="2.340047992765904">
        <ele>68.390000000000001</ele>
        <time>2018-07-10T05:56:08Z</time>
      </trkpt>
      <trkpt lat="48.816367015242577" lon="2.340746037662029">
        <ele>67.909999999999997</ele>
        <time>2018-07-10T05:56:13Z</time>
      </trkpt>
      <trkpt lat="48.816324016079307" lon="2.341705011203885">
        <ele>67.430000000000007</ele>
        <time>2018-07-10T05:56:20Z</time>
      </trkpt>
      <trkpt lat="48.816302977502346" lon="2.34182202257216">
        <ele>67.430000000000007</ele>
        <time>2018-07-10T05:56:21Z</time>
      </trkpt>
      <trkpt lat="48.816282022744417" lon="2.341934004798532">
        <ele>66.950000000000003</ele>
        <time>2018-07-10T05:56:22Z</time>
      </trkpt>
      <trkpt lat="48.816166017204523" lon="2.342566000297666">
        <ele>65.989999999999995</ele>
        <time>2018-07-10T05:56:27Z</time>
      </trkpt>
      <trkpt lat="48.816141039133072" lon="2.34270203858614">
        <ele>65.510000000000005</ele>
        <time>2018-07-10T05:56:28Z</time>
      </trkpt>
      <trkpt lat="48.81611798889935" lon="2.342828018590808">
        <ele>65.510000000000005</ele>
        <time>2018-07-10T05:56:29Z</time>
      </trkpt>
      <trkpt lat="48.816098961979151" lon="2.342932960018516">
        <ele>65.030000000000001</ele>
        <time>2018-07-10T05:56:30Z</time>
      </trkpt>
      <trkpt lat="48.816072978079319" lon="2.343016024678946">
        <ele>65.030000000000001</ele>
        <time>2018-07-10T05:56:31Z</time>
      </trkpt>
      <trkpt lat="48.816050011664629" lon="2.343082996085286">
        <ele>64.549999999999997</ele>
        <time>2018-07-10T05:56:32Z</time>
      </trkpt>
      <trkpt lat="48.816032996401191" lon="2.343134041875601">
        <ele>64.069999999999993</ele>
        <time>2018-07-10T05:56:33Z</time>
      </trkpt>
      <trkpt lat="48.816021010279655" lon="2.343171006068587">
        <ele>64.069999999999993</ele>
        <time>2018-07-10T05:56:34Z</time>
      </trkpt>
      <trkpt lat="48.816021010279655" lon="2.343171006068587">
        <ele>63.100000000000001</ele>
        <time>2018-07-10T05:56:49Z</time>
      </trkpt>
      <trkpt lat="48.81588002666831" lon="2.343639973551035">
        <ele>64.549999999999997</ele>
        <time>2018-07-10T05:57:00Z</time>
      </trkpt>
      <trkpt lat="48.815868040546775" lon="2.343902997672558">
        <ele>64.549999999999997</ele>
        <time>2018-07-10T05:57:03Z</time>
      </trkpt>
      <trkpt lat="48.815863011404872" lon="2.343996036797762">
        <ele>64.069999999999993</ele>
        <time>2018-07-10T05:57:04Z</time>
      </trkpt>
      <trkpt lat="48.815860999748111" lon="2.34403601847589">
        <ele>64.069999999999993</ele>
        <time>2018-07-10T05:57:05Z</time>
      </trkpt>
      <trkpt lat="48.815818000584841" lon="2.344253025949001">
        <ele>64.069999999999993</ele>
        <time>2018-07-10T05:57:06Z</time>
      </trkpt>
      <trkpt lat="48.815788999199867" lon="2.344268029555678">
        <ele>63.579999999999998</ele>
        <time>2018-07-10T05:57:07Z</time>
      </trkpt>
      <trkpt lat="48.815769972279668" lon="2.344279009848833">
        <ele>63.579999999999998</ele>
        <time>2018-07-10T05:57:08Z</time>
      </trkpt>
      <trkpt lat="48.815755974501371" lon="2.344286972656846">
        <ele>63.579999999999998</ele>
        <time>2018-07-10T05:57:09Z</time>
      </trkpt>
      <trkpt lat="48.8156249653548" lon="2.344357967376709">
        <ele>63.100000000000001</ele>
        <time>2018-07-10T05:57:12Z</time>
      </trkpt>
      <trkpt lat="48.815584983676672" lon="2.344418987631798">
        <ele>63.100000000000001</ele>
        <time>2018-07-10T05:57:14Z</time>
      </trkpt>
      <trkpt lat="48.81553896702826" lon="2.34448897652328">
        <ele>63.100000000000001</ele>
        <time>2018-07-10T05:57:15Z</time>
      </trkpt>
      <trkpt lat="48.815291030332446" lon="2.345233038067818">
        <ele>63.100000000000001</ele>
        <time>2018-07-10T05:57:25Z</time>
      </trkpt>
      <trkpt lat="48.815238978713751" lon="2.345388019457459">
        <ele>63.100000000000001</ele>
        <time>2018-07-10T05:57:27Z</time>
      </trkpt>
      <trkpt lat="48.815133031457663" lon="2.345663029700518">
        <ele>62.619999999999997</ele>
        <time>2018-07-10T05:57:30Z</time>
      </trkpt>
      <trkpt lat="48.815061030909419" lon="2.345713991671801">
        <ele>62.619999999999997</ele>
        <time>2018-07-10T05:57:31Z</time>
      </trkpt>
      <trkpt lat="48.814971009269357" lon="2.345740981400013">
        <ele>62.140000000000001</ele>
        <time>2018-07-10T05:57:32Z</time>
      </trkpt>
      <trkpt lat="48.814573036506772" lon="2.345545012503862">
        <ele>60.219999999999999</ele>
        <time>2018-07-10T05:57:38Z</time>
      </trkpt>
      <trkpt lat="48.81448402069509" lon="2.345488015562296">
        <ele>59.259999999999998</ele>
        <time>2018-07-10T05:57:40Z</time>
      </trkpt>
      <trkpt lat="48.814431969076395" lon="2.345455996692181">
        <ele>58.780000000000001</ele>
        <time>2018-07-10T05:57:41Z</time>
      </trkpt>
      <trkpt lat="48.814380001276731" lon="2.345421966165304">
        <ele>57.82</ele>
        <time>2018-07-10T05:57:42Z</time>
      </trkpt>
      <trkpt lat="48.814331972971559" lon="2.345418026670814">
        <ele>57.340000000000003</ele>
        <time>2018-07-10T05:57:43Z</time>
      </trkpt>
      <trkpt lat="48.814280005171895" lon="2.345435963943601">
        <ele>56.369999999999997</ele>
        <time>2018-07-10T05:57:44Z</time>
      </trkpt>
      <trkpt lat="48.814166011288762" lon="2.345474017783999">
        <ele>55.890000000000001</ele>
        <time>2018-07-10T05:57:45Z</time>
      </trkpt>
      <trkpt lat="48.814155030995607" lon="2.34549698419869">
        <ele>55.890000000000001</ele>
        <time>2018-07-10T05:57:46Z</time>
      </trkpt>
      <trkpt lat="48.814114965498447" lon="2.345576025545597">
        <ele>55.409999999999997</ele>
        <time>2018-07-10T05:57:47Z</time>
      </trkpt>
      <trkpt lat="48.814109014347196" lon="2.345685996115208">
        <ele>54.93</ele>
        <time>2018-07-10T05:57:48Z</time>
      </trkpt>
      <trkpt lat="48.814117982983589" lon="2.345780041068792">
        <ele>54.450000000000003</ele>
        <time>2018-07-10T05:57:49Z</time>
      </trkpt>
      <trkpt lat="48.814130974933505" lon="2.345858998596668">
        <ele>53.969999999999999</ele>
        <time>2018-07-10T05:57:50Z</time>
      </trkpt>
      <trkpt lat="48.81416299380362" lon="2.34594801440835">
        <ele>53.009999999999998</ele>
        <time>2018-07-10T05:57:51Z</time>
      </trkpt>
      <trkpt lat="48.814443033188581" lon="2.346585039049387">
        <ele>50.609999999999999</ele>
        <time>2018-07-10T05:57:58Z</time>
      </trkpt>
      <trkpt lat="48.814508998766541" lon="2.346717976033688">
        <ele>50.609999999999999</ele>
        <time>2018-07-10T05:57:59Z</time>
      </trkpt>
      <trkpt lat="48.814814016222954" lon="2.347359023988247">
        <ele>49.649999999999999</ele>
        <time>2018-07-10T05:58:08Z</time>
      </trkpt>
      <trkpt lat="48.814840000122786" lon="2.347419960424304">
        <ele>49.159999999999997</ele>
        <time>2018-07-10T05:58:09Z</time>
      </trkpt>
      <trkpt lat="48.815032029524446" lon="2.347879037261009">
        <ele>47.719999999999999</ele>
        <time>2018-07-10T05:58:16Z</time>
      </trkpt>
      <trkpt lat="48.815088020637631" lon="2.3480090405792">
        <ele>47.719999999999999</ele>
        <time>2018-07-10T05:58:18Z</time>
      </trkpt>
      <trkpt lat="48.815120961517096" lon="2.348083974793553">
        <ele>47.240000000000002</ele>
        <time>2018-07-10T05:58:19Z</time>
      </trkpt>
      <trkpt lat="48.815157003700733" lon="2.348166033625603">
        <ele>46.759999999999998</ele>
        <time>2018-07-10T05:58:20Z</time>
      </trkpt>
      <trkpt lat="48.815238978713751" lon="2.348478008061647">
        <ele>43.399999999999999</ele>
        <time>2018-07-10T05:58:26Z</time>
      </trkpt>
      <trkpt lat="48.815189022570848" lon="2.348570041358471">
        <ele>41.469999999999999</ele>
        <time>2018-07-10T05:58:38Z</time>
      </trkpt>
      <trkpt lat="48.815155997872353" lon="2.348629971966147">
        <ele>40.990000000000002</ele>
        <time>2018-07-10T05:58:39Z</time>
      </trkpt>
      <trkpt lat="48.814823990687728" lon="2.349087037146092">
        <ele>38.590000000000003</ele>
        <time>2018-07-10T05:58:45Z</time>
      </trkpt>
      <trkpt lat="48.814144972711802" lon="2.349919024854899">
        <ele>37.149999999999999</ele>
        <time>2018-07-10T05:58:56Z</time>
      </trkpt>
      <trkpt lat="48.814084958285093" lon="2.349995970726013">
        <ele>37.630000000000003</ele>
        <time>2018-07-10T05:58:57Z</time>
      </trkpt>
      <trkpt lat="48.813739959150553" lon="2.350439038127661">
        <ele>39.07</ele>
        <time>2018-07-10T05:59:04Z</time>
      </trkpt>
      <trkpt lat="48.813696037977934" lon="2.350496035069227">
        <ele>39.07</ele>
        <time>2018-07-10T05:59:05Z</time>
      </trkpt>
      <trkpt lat="48.813011990860105" lon="2.351385019719601">
        <ele>44.359999999999999</ele>
        <time>2018-07-10T05:59:17Z</time>
      </trkpt>
      <trkpt lat="48.812683001160622" lon="2.351791961118579">
        <ele>47.240000000000002</ele>
        <time>2018-07-10T05:59:22Z</time>
      </trkpt>
      <trkpt lat="48.812624998390675" lon="2.351863961666822">
        <ele>47.240000000000002</ele>
        <time>2018-07-10T05:59:23Z</time>
      </trkpt>
      <trkpt lat="48.81255098618567" lon="2.35200896859169">
        <ele>46.759999999999998</ele>
        <time>2018-07-10T05:59:25Z</time>
      </trkpt>
      <trkpt lat="48.812491977587342" lon="2.352125979959965">
        <ele>46.759999999999998</ele>
        <time>2018-07-10T05:59:27Z</time>
      </trkpt>
      <trkpt lat="48.812458030879498" lon="2.352312980219722">
        <ele>47.240000000000002</ele>
        <time>2018-07-10T05:59:29Z</time>
      </trkpt>
      <trkpt lat="48.812444033101201" lon="2.352390009909868">
        <ele>47.240000000000002</ele>
        <time>2018-07-10T05:59:30Z</time>
      </trkpt>
      <trkpt lat="48.812431041151285" lon="2.352464022114873">
        <ele>47.719999999999999</ele>
        <time>2018-07-10T05:59:31Z</time>
      </trkpt>
      <trkpt lat="48.812417965382338" lon="2.352537028491497">
        <ele>47.719999999999999</ele>
        <time>2018-07-10T05:59:32Z</time>
      </trkpt>
      <trkpt lat="48.812406985089183" lon="2.352597964927554">
        <ele>48.200000000000003</ele>
        <time>2018-07-10T05:59:33Z</time>
      </trkpt>
      <trkpt lat="48.812322998419404" lon="2.353327022865415">
        <ele>51.090000000000003</ele>
        <time>2018-07-10T05:59:42Z</time>
      </trkpt>
      <trkpt lat="48.812220990657806" lon="2.354754041880369">
        <ele>53.969999999999999</ele>
        <time>2018-07-10T05:59:51Z</time>
      </trkpt>
      <trkpt lat="48.812168017029762" lon="2.35580999404192">
        <ele>56.859999999999999</ele>
        <time>2018-07-10T05:59:57Z</time>
      </trkpt>
      <trkpt lat="48.812162987887859" lon="2.355968998745084">
        <ele>57.82</ele>
        <time>2018-07-10T05:59:58Z</time>
      </trkpt>
      <trkpt lat="48.812158964574337" lon="2.35611098818481">
        <ele>58.780000000000001</ele>
        <time>2018-07-10T05:59:59Z</time>
      </trkpt>
      <trkpt lat="48.812148990109563" lon="2.356652962043881">
        <ele>62.619999999999997</ele>
        <time>2018-07-10T06:00:03Z</time>
      </trkpt>
      <trkpt lat="48.812148990109563" lon="2.356652962043881">
        <ele>63.100000000000001</ele>
        <time>2018-07-10T06:00:04Z</time>
      </trkpt>
      <trkpt lat="48.812148990109563" lon="2.357169035822153">
        <ele>67.430000000000007</ele>
        <time>2018-07-10T06:00:11Z</time>
      </trkpt>
      <trkpt lat="48.812148990109563" lon="2.357275988906622">
        <ele>67.430000000000007</ele>
        <time>2018-07-10T06:00:12Z</time>
      </trkpt>
      <trkpt lat="48.812148990109563" lon="2.357904966920614">
        <ele>68.390000000000001</ele>
        <time>2018-07-10T06:00:18Z</time>
      </trkpt>
      <trkpt lat="48.812148990109563" lon="2.358090961351991">
        <ele>68.390000000000001</ele>
        <time>2018-07-10T06:00:19Z</time>
      </trkpt>
      <trkpt lat="48.812153013423085" lon="2.358121974393725">
        <ele>68.870000000000005</ele>
        <time>2018-07-10T06:00:20Z</time>
      </trkpt>
      <trkpt lat="48.812159970402718" lon="2.358186012133956">
        <ele>68.870000000000005</ele>
        <time>2018-07-10T06:00:21Z</time>
      </trkpt>
      <trkpt lat="48.8121850322932" lon="2.358415005728602">
        <ele>69.349999999999994</ele>
        <time>2018-07-10T06:00:23Z</time>
      </trkpt>
      <trkpt lat="48.812205987051129" lon="2.358533022925258">
        <ele>68.870000000000005</ele>
        <time>2018-07-10T06:00:24Z</time>
      </trkpt>
      <trkpt lat="48.812237000092864" lon="2.358649028465152">
        <ele>68.870000000000005</ele>
        <time>2018-07-10T06:00:25Z</time>
      </trkpt>
      <trkpt lat="48.812377983704209" lon="2.359189996495843">
        <ele>69.349999999999994</ele>
        <time>2018-07-10T06:00:30Z</time>
      </trkpt>
      <trkpt lat="48.812402961775661" lon="2.359286975115538">
        <ele>69.349999999999994</ele>
        <time>2018-07-10T06:00:31Z</time>
      </trkpt>
      <trkpt lat="48.812454007565975" lon="2.35948302783072">
        <ele>69.349999999999994</ele>
        <time>2018-07-10T06:00:33Z</time>
      </trkpt>
      <trkpt lat="48.812477979809046" lon="2.359579000622034">
        <ele>68.870000000000005</ele>
        <time>2018-07-10T06:00:34Z</time>
      </trkpt>
      <trkpt lat="48.812527013942599" lon="2.359778992831707">
        <ele>68.870000000000005</ele>
        <time>2018-07-10T06:00:36Z</time>
      </trkpt>
      <trkpt lat="48.812670009210706" lon="2.360363965854049">
        <ele>68.390000000000001</ele>
        <time>2018-07-10T06:00:42Z</time>
      </trkpt>
      <trkpt lat="48.812690963968635" lon="2.36045197583735">
        <ele>68.390000000000001</ele>
        <time>2018-07-10T06:00:43Z</time>
      </trkpt>
      <trkpt lat="48.812709990888834" lon="2.360532023012638">
        <ele>68.390000000000001</ele>
        <time>2018-07-10T06:00:44Z</time>
      </trkpt>
      <trkpt lat="48.81274402141571" lon="2.360668983310461">
        <ele>68.390000000000001</ele>
        <time>2018-07-10T06:00:46Z</time>
      </trkpt>
      <trkpt lat="48.812760030850768" lon="2.360734026879072">
        <ele>68.390000000000001</ele>
        <time>2018-07-10T06:00:47Z</time>
      </trkpt>
      <trkpt lat="48.812778973951936" lon="2.360810972750187">
        <ele>68.390000000000001</ele>
        <time>2018-07-10T06:00:48Z</time>
      </trkpt>
      <trkpt lat="48.812856003642082" lon="2.361127976328135">
        <ele>68.870000000000005</ele>
        <time>2018-07-10T06:00:52Z</time>
      </trkpt>
      <trkpt lat="48.812871007248759" lon="2.361190002411604">
        <ele>68.870000000000005</ele>
        <time>2018-07-10T06:00:53Z</time>
      </trkpt>
      <trkpt lat="48.812885005027056" lon="2.36124699935317">
        <ele>68.870000000000005</ele>
        <time>2018-07-10T06:00:54Z</time>
      </trkpt>
      <trkpt lat="48.812900008633733" lon="2.361305002123117">
        <ele>68.870000000000005</ele>
        <time>2018-07-10T06:00:55Z</time>
      </trkpt>
      <trkpt lat="48.812909983098507" lon="2.361349007114768">
        <ele>67.909999999999997</ele>
        <time>2018-07-10T06:00:56Z</time>
      </trkpt>
      <trkpt lat="48.812746033072472" lon="2.361433999612927">
        <ele>67.430000000000007</ele>
        <time>2018-07-10T06:00:57Z</time>
      </trkpt>
      <trkpt lat="48.812686018645763" lon="2.361447997391224">
        <ele>66.950000000000003</ele>
        <time>2018-07-10T06:00:58Z</time>
      </trkpt>
      <trkpt lat="48.812534976750612" lon="2.36148102208972">
        <ele>66.950000000000003</ele>
        <time>2018-07-10T06:00:59Z</time>
      </trkpt>
      <trkpt lat="48.812455013394356" lon="2.361508011817932">
        <ele>66.469999999999999</ele>
        <time>2018-07-10T06:01:01Z</time>
      </trkpt>
      <trkpt lat="48.812398016452789" lon="2.361527038738132">
        <ele>66.469999999999999</ele>
        <time>2018-07-10T06:01:02Z</time>
      </trkpt>
      <trkpt lat="48.812307994812727" lon="2.361555034294725">
        <ele>66.950000000000003</ele>
        <time>2018-07-10T06:01:04Z</time>
      </trkpt>
      <trkpt lat="48.812166005373001" lon="2.361594010144472">
        <ele>67.430000000000007</ele>
        <time>2018-07-10T06:01:07Z</time>
      </trkpt>
      <trkpt lat="48.811410963535309" lon="2.361824009567499">
        <ele>67.430000000000007</ele>
        <time>2018-07-10T06:01:16Z</time>
      </trkpt>
      <trkpt lat="48.811311973258853" lon="2.361854016780853">
        <ele>66.950000000000003</ele>
        <time>2018-07-10T06:01:17Z</time>
      </trkpt>
      <trkpt lat="48.810564978048205" lon="2.362074963748455">
        <ele>64.549999999999997</ele>
        <time>2018-07-10T06:01:26Z</time>
      </trkpt>
      <trkpt lat="48.810156024992466" lon="2.362193986773491">
        <ele>64.069999999999993</ele>
        <time>2018-07-10T06:01:32Z</time>
      </trkpt>
      <trkpt lat="48.810017975047231" lon="2.362233968451619">
        <ele>63.579999999999998</ele>
        <time>2018-07-10T06:01:39Z</time>
      </trkpt>
      <trkpt lat="48.810017975047231" lon="2.362233968451619">
        <ele>63.579999999999998</ele>
        <time>2018-07-10T06:02:10Z</time>
      </trkpt>
      <trkpt lat="48.80993097089231" lon="2.362262969836593">
        <ele>64.069999999999993</ele>
        <time>2018-07-10T06:02:34Z</time>
      </trkpt>
      <trkpt lat="48.809718992561102" lon="2.36217001453042">
        <ele>64.549999999999997</ele>
        <time>2018-07-10T06:02:36Z</time>
      </trkpt>
      <trkpt lat="48.809665013104677" lon="2.362154005095363">
        <ele>64.549999999999997</ele>
        <time>2018-07-10T06:02:37Z</time>
      </trkpt>
      <trkpt lat="48.809625031426549" lon="2.362186023965478">
        <ele>65.030000000000001</ele>
        <time>2018-07-10T06:02:38Z</time>
      </trkpt>
      <trkpt lat="48.809609021991491" lon="2.36223497428">
        <ele>65.030000000000001</ele>
        <time>2018-07-10T06:02:39Z</time>
      </trkpt>
      <trkpt lat="48.809592006728053" lon="2.362287025898695">
        <ele>65.510000000000005</ele>
        <time>2018-07-10T06:02:43Z</time>
      </trkpt>
      <trkpt lat="48.809592006728053" lon="2.362287025898695">
        <ele>65.989999999999995</ele>
        <time>2018-07-10T06:02:58Z</time>
      </trkpt>
      <trkpt lat="48.809574991464615" lon="2.362337987869978">
        <ele>65.989999999999995</ele>
        <time>2018-07-10T06:03:06Z</time>
      </trkpt>
      <trkpt lat="48.809598963707685" lon="2.362458016723394">
        <ele>65.510000000000005</ele>
        <time>2018-07-10T06:03:07Z</time>
      </trkpt>
      <trkpt lat="48.809653026983142" lon="2.362519958987832">
        <ele>65.030000000000001</ele>
        <time>2018-07-10T06:03:08Z</time>
      </trkpt>
      <trkpt lat="48.809682028368115" lon="2.362553989514709">
        <ele>63.579999999999998</ele>
        <time>2018-07-10T06:03:11Z</time>
      </trkpt>
      <trkpt lat="48.809682028368115" lon="2.362553989514709">
        <ele>63.100000000000001</ele>
        <time>2018-07-10T06:03:12Z</time>
      </trkpt>
      <trkpt lat="48.809682028368115" lon="2.362553989514709">
        <ele>62.619999999999997</ele>
        <time>2018-07-10T06:03:13Z</time>
      </trkpt>
      <trkpt lat="48.810085030272603" lon="2.362852972000837">
        <ele>61.659999999999997</ele>
        <time>2018-07-10T06:03:14Z</time>
      </trkpt>
      <trkpt lat="48.810158958658576" lon="2.3629429936409">
        <ele>61.18</ele>
        <time>2018-07-10T06:03:15Z</time>
      </trkpt>
      <trkpt lat="48.810233976691961" lon="2.363032009452581">
        <ele>60.700000000000003</ele>
        <time>2018-07-10T06:03:16Z</time>
      </trkpt>
      <trkpt lat="48.810838982462883" lon="2.363811023533344">
        <ele>57.82</ele>
        <time>2018-07-10T06:03:24Z</time>
      </trkpt>
      <trkpt lat="48.810905031859875" lon="2.363899033516645">
        <ele>58.299999999999997</ele>
        <time>2018-07-10T06:03:25Z</time>
      </trkpt>
      <trkpt lat="48.810974014922976" lon="2.363989977166057">
        <ele>58.299999999999997</ele>
        <time>2018-07-10T06:03:26Z</time>
      </trkpt>
      <trkpt lat="48.811050038784742" lon="2.364087961614132">
        <ele>58.299999999999997</ele>
        <time>2018-07-10T06:03:27Z</time>
      </trkpt>
      <trkpt lat="48.811140982434154" lon="2.364205978810787">
        <ele>58.299999999999997</ele>
        <time>2018-07-10T06:03:28Z</time>
      </trkpt>
      <trkpt lat="48.811207031831145" lon="2.364286025986075">
        <ele>58.299999999999997</ele>
        <time>2018-07-10T06:03:29Z</time>
      </trkpt>
      <trkpt lat="48.811443988233805" lon="2.364659020677209">
        <ele>58.780000000000001</ele>
        <time>2018-07-10T06:03:32Z</time>
      </trkpt>
      <trkpt lat="48.811510037630796" lon="2.364803021773696">
        <ele>58.299999999999997</ele>
        <time>2018-07-10T06:03:33Z</time>
      </trkpt>
      <trkpt lat="48.812104985117912" lon="2.366716023534536">
        <ele>56.859999999999999</ele>
        <time>2018-07-10T06:03:44Z</time>
      </trkpt>
      <trkpt lat="48.812204981222749" lon="2.367076026275754">
        <ele>56.859999999999999</ele>
        <time>2018-07-10T06:03:46Z</time>
      </trkpt>
      <trkpt lat="48.812255021184683" lon="2.367252968251705">
        <ele>56.859999999999999</ele>
        <time>2018-07-10T06:03:47Z</time>
      </trkpt>
      <trkpt lat="48.812628015875816" lon="2.368587031960487">
        <ele>56.859999999999999</ele>
        <time>2018-07-10T06:03:56Z</time>
      </trkpt>
      <trkpt lat="48.812653999775648" lon="2.368683004751802">
        <ele>56.859999999999999</ele>
        <time>2018-07-10T06:03:57Z</time>
      </trkpt>
      <trkpt lat="48.81267998367548" lon="2.368776965886354">
        <ele>56.369999999999997</ele>
        <time>2018-07-10T06:03:58Z</time>
      </trkpt>
      <trkpt lat="48.812935966998339" lon="2.369693024083972">
        <ele>56.859999999999999</ele>
        <time>2018-07-10T06:04:10Z</time>
      </trkpt>
      <trkpt lat="48.812957005575299" lon="2.369761001318693">
        <ele>56.859999999999999</ele>
        <time>2018-07-10T06:04:12Z</time>
      </trkpt>
      <trkpt lat="48.812983995303512" lon="2.369916988536716">
        <ele>56.859999999999999</ele>
        <time>2018-07-10T06:04:13Z</time>
      </trkpt>
      <trkpt lat="48.813029006123543" lon="2.370213959366083">
        <ele>56.859999999999999</ele>
        <time>2018-07-10T06:04:21Z</time>
      </trkpt>
      <trkpt lat="48.813049960881472" lon="2.370343040674925">
        <ele>57.340000000000003</ele>
        <time>2018-07-10T06:04:23Z</time>
      </trkpt>
      <trkpt lat="48.813049960881472" lon="2.370343040674925">
        <ele>57.82</ele>
        <time>2018-07-10T06:04:24Z</time>
      </trkpt>
      <trkpt lat="48.813058007508516" lon="2.370384028181434">
        <ele>57.82</ele>
        <time>2018-07-10T06:04:27Z</time>
      </trkpt>
      <trkpt lat="48.813072005286813" lon="2.370450999587774">
        <ele>57.82</ele>
        <time>2018-07-10T06:04:28Z</time>
      </trkpt>
      <trkpt lat="48.813072005286813" lon="2.370450999587774">
        <ele>57.82</ele>
        <time>2018-07-10T06:04:29Z</time>
      </trkpt>
      <trkpt lat="48.813106035813689" lon="2.370688961818814">
        <ele>57.82</ele>
        <time>2018-07-10T06:04:30Z</time>
      </trkpt>
      <trkpt lat="48.813072005286813" lon="2.370450999587774">
        <ele>57.82</ele>
        <time>2018-07-10T06:04:31Z</time>
      </trkpt>
      <trkpt lat="48.813135959208012" lon="2.370901023969054">
        <ele>56.859999999999999</ele>
        <time>2018-07-10T06:04:32Z</time>
      </trkpt>
      <trkpt lat="48.81317401304841" lon="2.370985010638833">
        <ele>55.890000000000001</ele>
        <time>2018-07-10T06:04:33Z</time>
      </trkpt>
      <trkpt lat="48.813223969191313" lon="2.371093975380063">
        <ele>55.409999999999997</ele>
        <time>2018-07-10T06:04:34Z</time>
      </trkpt>
      <trkpt lat="48.813271997496486" lon="2.371211992576718">
        <ele>54.93</ele>
        <time>2018-07-10T06:04:35Z</time>
      </trkpt>
      <trkpt lat="48.813859988003969" lon="2.372533986344934">
        <ele>55.409999999999997</ele>
        <time>2018-07-10T06:04:46Z</time>
      </trkpt>
      <trkpt lat="48.814324010163546" lon="2.37353503704071">
        <ele>56.859999999999999</ele>
        <time>2018-07-10T06:04:55Z</time>
      </trkpt>
      <trkpt lat="48.814381007105112" lon="2.373657999560237">
        <ele>56.859999999999999</ele>
        <time>2018-07-10T06:04:56Z</time>
      </trkpt>
      <trkpt lat="48.814890962094069" lon="2.374798022210598">
        <ele>59.259999999999998</ele>
        <time>2018-07-10T06:05:06Z</time>
      </trkpt>
      <trkpt lat="48.815126996487379" lon="2.375294985249639">
        <ele>63.100000000000001</ele>
        <time>2018-07-10T06:05:13Z</time>
      </trkpt>
      <trkpt lat="48.815165972337127" lon="2.375376960262656">
        <ele>64.549999999999997</ele>
        <time>2018-07-10T06:05:21Z</time>
      </trkpt>
      <trkpt lat="48.815165972337127" lon="2.375376960262656">
        <ele>65.510000000000005</ele>
        <time>2018-07-10T06:06:09Z</time>
      </trkpt>
      <trkpt lat="48.815245013684034" lon="2.375544011592865">
        <ele>66.469999999999999</ele>
        <time>2018-07-10T06:06:52Z</time>
      </trkpt>
      <trkpt lat="48.815552964806557" lon="2.376187993213534">
        <ele>65.030000000000001</ele>
        <time>2018-07-10T06:06:59Z</time>
      </trkpt>
      <trkpt lat="48.815606022253633" lon="2.376297041773796">
        <ele>64.549999999999997</ele>
        <time>2018-07-10T06:07:00Z</time>
      </trkpt>
      <trkpt lat="48.815970970317721" lon="2.377042025327683">
        <ele>61.659999999999997</ele>
        <time>2018-07-10T06:07:09Z</time>
      </trkpt>
      <trkpt lat="48.815985973924398" lon="2.377073038369417">
        <ele>61.18</ele>
        <time>2018-07-10T06:07:16Z</time>
      </trkpt>
      <trkpt lat="48.815992008894682" lon="2.377085024490953">
        <ele>61.18</ele>
        <time>2018-07-10T06:07:20Z</time>
      </trkpt>
      <trkpt lat="48.816012041643262" lon="2.3771240003407">
        <ele>61.18</ele>
        <time>2018-07-10T06:07:21Z</time>
      </trkpt>
      <trkpt lat="48.816040037199855" lon="2.377098016440868">
        <ele>60.700000000000003</ele>
        <time>2018-07-10T06:07:22Z</time>
      </trkpt>
      <trkpt lat="48.81609401665628" lon="2.377046970650554">
        <ele>60.219999999999999</ele>
        <time>2018-07-10T06:07:23Z</time>
      </trkpt>
      <trkpt lat="48.816151013597846" lon="2.37699500285089">
        <ele>59.740000000000002</ele>
        <time>2018-07-10T06:07:24Z</time>
      </trkpt>
      <trkpt lat="48.81626601330936" lon="2.37688796594739">
        <ele>59.740000000000002</ele>
        <time>2018-07-10T06:07:26Z</time>
      </trkpt>
      <trkpt lat="48.816876970231533" lon="2.376322019845247">
        <ele>56.369999999999997</ele>
        <time>2018-07-10T06:07:35Z</time>
      </trkpt>
      <trkpt lat="48.817324982956052" lon="2.375897979363799">
        <ele>58.299999999999997</ele>
        <time>2018-07-10T06:07:44Z</time>
      </trkpt>
      <trkpt lat="48.817380974069238" lon="2.375846011564136">
        <ele>58.780000000000001</ele>
        <time>2018-07-10T06:07:48Z</time>
      </trkpt>
      <trkpt lat="48.817392038181424" lon="2.375836037099361">
        <ele>59.259999999999998</ele>
        <time>2018-07-10T06:07:49Z</time>
      </trkpt>
      <trkpt lat="48.817455992102623" lon="2.375776022672653">
        <ele>59.740000000000002</ele>
        <time>2018-07-10T06:08:02Z</time>
      </trkpt>
      <trkpt lat="48.81751399487257" lon="2.375722965225577">
        <ele>60.219999999999999</ele>
        <time>2018-07-10T06:08:11Z</time>
      </trkpt>
      <trkpt lat="48.817723039537668" lon="2.375579969957471">
        <ele>57.82</ele>
        <time>2018-07-10T06:08:25Z</time>
      </trkpt>
      <trkpt lat="48.817745000123978" lon="2.37564099021256">
        <ele>57.340000000000003</ele>
        <time>2018-07-10T06:08:26Z</time>
      </trkpt>
      <trkpt lat="48.817772995680571" lon="2.375718019902706">
        <ele>57.340000000000003</ele>
        <time>2018-07-10T06:08:27Z</time>
      </trkpt>
      <trkpt lat="48.818053035065532" lon="2.37660801038146">
        <ele>52.049999999999997</ele>
        <time>2018-07-10T06:08:36Z</time>
      </trkpt>
      <trkpt lat="48.818077007308602" lon="2.376685962080956">
        <ele>51.57</ele>
        <time>2018-07-10T06:08:37Z</time>
      </trkpt>
      <trkpt lat="48.818086981773376" lon="2.376767015084624">
        <ele>50.609999999999999</ele>
        <time>2018-07-10T06:08:38Z</time>
      </trkpt>
      <trkpt lat="48.818074995651841" lon="2.376827029511333">
        <ele>50.130000000000003</ele>
        <time>2018-07-10T06:08:39Z</time>
      </trkpt>
      <trkpt lat="48.818016992881894" lon="2.376904981210828">
        <ele>49.159999999999997</ele>
        <time>2018-07-10T06:08:40Z</time>
      </trkpt>
      <trkpt lat="48.817947003990412" lon="2.376982010900974">
        <ele>48.68</ele>
        <time>2018-07-10T06:08:41Z</time>
      </trkpt>
      <trkpt lat="48.817870980128646" lon="2.377065997570753">
        <ele>47.719999999999999</ele>
        <time>2018-07-10T06:08:42Z</time>
      </trkpt>
      <trkpt lat="48.817612985149026" lon="2.377301026135683">
        <ele>46.759999999999998</ele>
        <time>2018-07-10T06:08:45Z</time>
      </trkpt>
      <trkpt lat="48.817453980445862" lon="2.37744502723217">
        <ele>46.280000000000001</ele>
        <time>2018-07-10T06:08:47Z</time>
      </trkpt>
      <trkpt lat="48.817098001018167" lon="2.377775022760034">
        <ele>43.880000000000003</ele>
        <time>2018-07-10T06:08:52Z</time>
      </trkpt>
      <trkpt lat="48.816918041557074" lon="2.377954982221127">
        <ele>42.920000000000002</ele>
        <time>2018-07-10T06:08:55Z</time>
      </trkpt>
      <trkpt lat="48.816860960796475" lon="2.378011979162693">
        <ele>42.439999999999998</ele>
        <time>2018-07-10T06:08:56Z</time>
      </trkpt>
      <trkpt lat="48.81680597551167" lon="2.378066964447498">
        <ele>41.950000000000003</ele>
        <time>2018-07-10T06:08:57Z</time>
      </trkpt>
      <trkpt lat="48.81680496968329" lon="2.378067970275879">
        <ele>41.469999999999999</ele>
        <time>2018-07-10T06:08:58Z</time>
      </trkpt>
      <trkpt lat="48.816766999661922" lon="2.378183975815773">
        <ele>40.990000000000002</ele>
        <time>2018-07-10T06:08:59Z</time>
      </trkpt>
      <trkpt lat="48.816741015762091" lon="2.37826100550592">
        <ele>40.509999999999998</ele>
        <time>2018-07-10T06:09:00Z</time>
      </trkpt>
      <trkpt lat="48.816756019368768" lon="2.378332000225782">
        <ele>40.030000000000001</ele>
        <time>2018-07-10T06:09:01Z</time>
      </trkpt>
      <trkpt lat="48.816778985783458" lon="2.378442976623774">
        <ele>39.07</ele>
        <time>2018-07-10T06:09:02Z</time>
      </trkpt>
      <trkpt lat="48.816837994381785" lon="2.378727961331606">
        <ele>36.189999999999998</ele>
        <time>2018-07-10T06:09:05Z</time>
      </trkpt>
      <trkpt lat="48.816851992160082" lon="2.378802979364991">
        <ele>35.710000000000001</ele>
        <time>2018-07-10T06:09:06Z</time>
      </trkpt>
      <trkpt lat="48.816863978281617" lon="2.378869028761983">
        <ele>35.229999999999997</ele>
        <time>2018-07-10T06:09:07Z</time>
      </trkpt>
      <trkpt lat="48.816902032122016" lon="2.379053011536598">
        <ele>33.780000000000001</ele>
        <time>2018-07-10T06:09:16Z</time>
      </trkpt>
      <trkpt lat="48.817048966884613" lon="2.379653993993998">
        <ele>33.299999999999997</ele>
        <time>2018-07-10T06:09:23Z</time>
      </trkpt>
      <trkpt lat="48.817432019859552" lon="2.380989985540509">
        <ele>28.98</ele>
        <time>2018-07-10T06:09:37Z</time>
      </trkpt>
      <trkpt lat="48.817459009587765" lon="2.381088975816965">
        <ele>28.5</ele>
        <time>2018-07-10T06:09:38Z</time>
      </trkpt>
      <trkpt lat="48.817484993487597" lon="2.381181009113789">
        <ele>28.5</ele>
        <time>2018-07-10T06:09:39Z</time>
      </trkpt>
      <trkpt lat="48.81751399487257" lon="2.381282011047006">
        <ele>28.02</ele>
        <time>2018-07-10T06:09:45Z</time>
      </trkpt>
      <trkpt lat="48.817559005692601" lon="2.381445039063692">
        <ele>28.5</ele>
        <time>2018-07-10T06:09:54Z</time>
      </trkpt>
      <trkpt lat="48.817578032612801" lon="2.381511004641652">
        <ele>28.98</ele>
        <time>2018-07-10T06:09:55Z</time>
      </trkpt>
      <trkpt lat="48.817593036219478" lon="2.381563978269696">
        <ele>28.98</ele>
        <time>2018-07-10T06:09:56Z</time>
      </trkpt>
      <trkpt lat="48.8174709957093" lon="2.381650982424617">
        <ele>28.98</ele>
        <time>2018-07-10T06:09:57Z</time>
      </trkpt>
      <trkpt lat="48.8174709957093" lon="2.381650982424617">
        <ele>28.5</ele>
        <time>2018-07-10T06:09:58Z</time>
      </trkpt>
      <trkpt lat="48.817421039566398" lon="2.381689958274365">
        <ele>28.5</ele>
        <time>2018-07-10T06:09:59Z</time>
      </trkpt>
      <trkpt lat="48.817357001826167" lon="2.381739998236299">
        <ele>28.02</ele>
        <time>2018-07-10T06:10:00Z</time>
      </trkpt>
      <trkpt lat="48.816659962758422" lon="2.382260011509061">
        <ele>25.609999999999999</ele>
        <time>2018-07-10T06:10:08Z</time>
      </trkpt>
      <trkpt lat="48.816165011376143" lon="2.382684973999858">
        <ele>25.609999999999999</ele>
        <time>2018-07-10T06:10:14Z</time>
      </trkpt>
      <trkpt lat="48.815802996978164" lon="2.382999965921044">
        <ele>25.609999999999999</ele>
        <time>2018-07-10T06:10:19Z</time>
      </trkpt>
      <trkpt lat="48.815655978396535" lon="2.383130975067616">
        <ele>26.09</ele>
        <time>2018-07-10T06:10:21Z</time>
      </trkpt>
      <trkpt lat="48.815037980675697" lon="2.383695999160409">
        <ele>27.530000000000001</ele>
        <time>2018-07-10T06:10:29Z</time>
      </trkpt>
      <trkpt lat="48.814962962642312" lon="2.38376297056675">
        <ele>28.02</ele>
        <time>2018-07-10T06:10:30Z</time>
      </trkpt>
      <trkpt lat="48.814816027879715" lon="2.38389196805656">
        <ele>28.98</ele>
        <time>2018-07-10T06:10:32Z</time>
      </trkpt>
      <trkpt lat="48.814745033159852" lon="2.38395600579679">
        <ele>29.460000000000001</ele>
        <time>2018-07-10T06:10:33Z</time>
      </trkpt>
      <trkpt lat="48.814358962699771" lon="2.384312991052866">
        <ele>29.940000000000001</ele>
        <time>2018-07-10T06:10:39Z</time>
      </trkpt>
      <trkpt lat="48.814298026263714" lon="2.384358001872897">
        <ele>29.940000000000001</ele>
        <time>2018-07-10T06:10:40Z</time>
      </trkpt>
      <trkpt lat="48.81371196359396" lon="2.38485898822546">
        <ele>30.899999999999999</ele>
        <time>2018-07-10T06:10:51Z</time>
      </trkpt>
      <trkpt lat="48.813137970864773" lon="2.385526020079851">
        <ele>31.859999999999999</ele>
        <time>2018-07-10T06:11:01Z</time>
      </trkpt>
      <trkpt lat="48.81295901723206" lon="2.385741015896201">
        <ele>32.340000000000003</ele>
        <time>2018-07-10T06:11:04Z</time>
      </trkpt>
      <trkpt lat="48.812747960910201" lon="2.385969003662467">
        <ele>33.780000000000001</ele>
        <time>2018-07-10T06:11:09Z</time>
      </trkpt>
      <trkpt lat="48.812672020867467" lon="2.386052990332246">
        <ele>35.710000000000001</ele>
        <time>2018-07-10T06:11:17Z</time>
      </trkpt>
      <trkpt lat="48.812488960102201" lon="2.38625499419868">
        <ele>38.109999999999999</ele>
        <time>2018-07-10T06:11:25Z</time>
      </trkpt>
      <trkpt lat="48.812242029234767" lon="2.386133959516883">
        <ele>39.07</ele>
        <time>2018-07-10T06:11:32Z</time>
      </trkpt>
      <trkpt lat="48.812042037025094" lon="2.385706985369325">
        <ele>38.590000000000003</ele>
        <time>2018-07-10T06:11:37Z</time>
      </trkpt>
      <trkpt lat="48.812042037025094" lon="2.385706985369325">
        <ele>38.109999999999999</ele>
        <time>2018-07-10T06:11:39Z</time>
      </trkpt>
      <trkpt lat="48.811898035928607" lon="2.38539501093328">
        <ele>36.189999999999998</ele>
        <time>2018-07-10T06:11:50Z</time>
      </trkpt>
      <trkpt lat="48.811765015125275" lon="2.385095022618771">
        <ele>35.710000000000001</ele>
        <time>2018-07-10T06:12:04Z</time>
      </trkpt>
      <trkpt lat="48.811706006526947" lon="2.384934006258845">
        <ele>35.229999999999997</ele>
        <time>2018-07-10T06:12:06Z</time>
      </trkpt>
      <trkpt lat="48.811698965728283" lon="2.384912967681885">
        <ele>35.229999999999997</ele>
        <time>2018-07-10T06:12:07Z</time>
      </trkpt>
      <trkpt lat="48.811698965728283" lon="2.384912967681885">
        <ele>35.229999999999997</ele>
        <time>2018-07-10T06:12:08Z</time>
      </trkpt>
      <trkpt lat="48.811512971296906" lon="2.384473001584411">
        <ele>34.740000000000002</ele>
        <time>2018-07-10T06:12:18Z</time>
      </trkpt>
      <trkpt lat="48.811504002660513" lon="2.38445196300745">
        <ele>34.740000000000002</ele>
        <time>2018-07-10T06:12:19Z</time>
      </trkpt>
      <trkpt lat="48.811497967690229" lon="2.384437965229154">
        <ele>35.229999999999997</ele>
        <time>2018-07-10T06:12:20Z</time>
      </trkpt>
      <trkpt lat="48.811488999053836" lon="2.384414998814464">
        <ele>34.740000000000002</ele>
        <time>2018-07-10T06:12:21Z</time>
      </trkpt>
      <trkpt lat="48.811470977962017" lon="2.384371999651194">
        <ele>34.740000000000002</ele>
        <time>2018-07-10T06:12:22Z</time>
      </trkpt>
      <trkpt lat="48.811447005718946" lon="2.384312991052866">
        <ele>34.259999999999998</ele>
        <time>2018-07-10T06:12:23Z</time>
      </trkpt>
      <trkpt lat="48.811108963564038" lon="2.383688958361745">
        <ele>35.229999999999997</ele>
        <time>2018-07-10T06:12:33Z</time>
      </trkpt>
      <trkpt lat="48.811070993542671" lon="2.383533976972103">
        <ele>36.670000000000002</ele>
        <time>2018-07-10T06:12:36Z</time>
      </trkpt>
      <trkpt lat="48.811053978279233" lon="2.383556021377444">
        <ele>37.149999999999999</ele>
        <time>2018-07-10T06:12:37Z</time>
      </trkpt>
      <trkpt lat="48.811188004910946" lon="2.383801024407148">
        <ele>35.229999999999997</ele>
        <time>2018-07-10T06:12:47Z</time>
      </trkpt>
      <trkpt lat="48.81119797937572" lon="2.384039992466569">
        <ele>34.740000000000002</ele>
        <time>2018-07-10T06:13:15Z</time>
      </trkpt>
      <trkpt lat="48.811124972999096" lon="2.384125990793109">
        <ele>34.740000000000002</ele>
        <time>2018-07-10T06:13:17Z</time>
      </trkpt>
      <trkpt lat="48.811078034341335" lon="2.384188016876578">
        <ele>34.259999999999998</ele>
        <time>2018-07-10T06:13:18Z</time>
      </trkpt>
      <trkpt lat="48.810628009960055" lon="2.38475002348423">
        <ele>32.82</ele>
        <time>2018-07-10T06:13:28Z</time>
      </trkpt>
      <trkpt lat="48.810312012210488" lon="2.385152019560337">
        <ele>32.340000000000003</ele>
        <time>2018-07-10T06:13:29Z</time>
      </trkpt>
      <trkpt lat="48.80990800447762" lon="2.385659962892532">
        <ele>33.299999999999997</ele>
        <time>2018-07-10T06:13:34Z</time>
      </trkpt>
      <trkpt lat="48.809829968959093" lon="2.385760964825749">
        <ele>33.780000000000001</ele>
        <time>2018-07-10T06:13:35Z</time>
      </trkpt>
      <trkpt lat="48.809752017259598" lon="2.385860960930586">
        <ele>34.259999999999998</ele>
        <time>2018-07-10T06:13:36Z</time>
      </trkpt>
      <trkpt lat="48.809678005054593" lon="2.385956011712551">
        <ele>34.259999999999998</ele>
        <time>2018-07-10T06:13:37Z</time>
      </trkpt>
      <trkpt lat="48.809602987021208" lon="2.386052990332246">
        <ele>34.740000000000002</ele>
        <time>2018-07-10T06:13:38Z</time>
      </trkpt>
      <trkpt lat="48.809487987309694" lon="2.386200008913875">
        <ele>35.229999999999997</ele>
        <time>2018-07-10T06:13:39Z</time>
      </trkpt>
      <trkpt lat="48.809468038380146" lon="2.386229010298848">
        <ele>35.229999999999997</ele>
        <time>2018-07-10T06:13:40Z</time>
      </trkpt>
      <trkpt lat="48.809361001476645" lon="2.386378962546587">
        <ele>35.710000000000001</ele>
        <time>2018-07-10T06:13:46Z</time>
      </trkpt>
      <trkpt lat="48.809361001476645" lon="2.386378962546587">
        <ele>35.710000000000001</ele>
        <time>2018-07-10T06:14:18Z</time>
      </trkpt>
      <trkpt lat="48.809273997321725" lon="2.386501003056765">
        <ele>36.189999999999998</ele>
        <time>2018-07-10T06:14:27Z</time>
      </trkpt>
      <trkpt lat="48.808976020663977" lon="2.38687701523304">
        <ele>37.149999999999999</ele>
        <time>2018-07-10T06:14:34Z</time>
      </trkpt>
      <trkpt lat="48.808413008227944" lon="2.387787960469723">
        <ele>36.670000000000002</ele>
        <time>2018-07-10T06:14:43Z</time>
      </trkpt>
      <trkpt lat="48.808237994089723" lon="2.388090966269374">
        <ele>36.189999999999998</ele>
        <time>2018-07-10T06:14:46Z</time>
      </trkpt>
      <trkpt lat="48.808031966909766" lon="2.388452980667353">
        <ele>36.189999999999998</ele>
        <time>2018-07-10T06:14:50Z</time>
      </trkpt>
      <trkpt lat="48.807985028252006" lon="2.388537973165512">
        <ele>36.189999999999998</ele>
        <time>2018-07-10T06:14:51Z</time>
      </trkpt>
      <trkpt lat="48.807856030762196" lon="2.388836033642292">
        <ele>38.109999999999999</ele>
        <time>2018-07-10T06:14:55Z</time>
      </trkpt>
      <trkpt lat="48.807829041033983" lon="2.388922031968832">
        <ele>38.590000000000003</ele>
        <time>2018-07-10T06:14:56Z</time>
      </trkpt>
      <trkpt lat="48.807804984971881" lon="2.389006018638611">
        <ele>39.549999999999997</ele>
        <time>2018-07-10T06:14:57Z</time>
      </trkpt>
      <trkpt lat="48.807771960273385" lon="2.389130992814899">
        <ele>40.509999999999998</ele>
        <time>2018-07-10T06:14:58Z</time>
      </trkpt>
      <trkpt lat="48.807739019393921" lon="2.389257978647947">
        <ele>40.990000000000002</ele>
        <time>2018-07-10T06:14:59Z</time>
      </trkpt>
      <trkpt lat="48.807500973343849" lon="2.390213012695313">
        <ele>40.990000000000002</ele>
        <time>2018-07-10T06:15:07Z</time>
      </trkpt>
      <trkpt lat="48.807344986125827" lon="2.390779964625835">
        <ele>38.590000000000003</ele>
        <time>2018-07-10T06:15:12Z</time>
      </trkpt>
      <trkpt lat="48.807315984740853" lon="2.390885995700955">
        <ele>38.109999999999999</ele>
        <time>2018-07-10T06:15:13Z</time>
      </trkpt>
      <trkpt lat="48.807151028886437" lon="2.391495024785399">
        <ele>36.670000000000002</ele>
        <time>2018-07-10T06:15:20Z</time>
      </trkpt>
      <trkpt lat="48.807150023058057" lon="2.391500975936651">
        <ele>38.109999999999999</ele>
        <time>2018-07-10T06:15:21Z</time>
      </trkpt>
      <trkpt lat="48.807195033878088" lon="2.391612958163023">
        <ele>38.109999999999999</ele>
        <time>2018-07-10T06:15:22Z</time>
      </trkpt>
      <trkpt lat="48.807210959494114" lon="2.391654029488564">
        <ele>37.630000000000003</ele>
        <time>2018-07-10T06:15:23Z</time>
      </trkpt>
      <trkpt lat="48.807227974757552" lon="2.391697028651834">
        <ele>37.630000000000003</ele>
        <time>2018-07-10T06:15:24Z</time>
      </trkpt>
      <trkpt lat="48.807235015556216" lon="2.391714965924621">
        <ele>37.149999999999999</ele>
        <time>2018-07-10T06:15:25Z</time>
      </trkpt>
      <trkpt lat="48.80717902444303" lon="2.391771040856838">
        <ele>37.149999999999999</ele>
        <time>2018-07-10T06:15:26Z</time>
      </trkpt>
      <trkpt lat="48.807149017229676" lon="2.391801970079541">
        <ele>36.670000000000002</ele>
        <time>2018-07-10T06:15:27Z</time>
      </trkpt>
      <trkpt lat="48.807112975046039" lon="2.391838012263179">
        <ele>36.670000000000002</ele>
        <time>2018-07-10T06:15:28Z</time>
      </trkpt>
      <trkpt lat="48.807082967832685" lon="2.391867013648152">
        <ele>36.189999999999998</ele>
        <time>2018-07-10T06:15:29Z</time>
      </trkpt>
      <trkpt lat="48.807062013074756" lon="2.391887968406081">
        <ele>36.189999999999998</ele>
        <time>2018-07-10T06:15:30Z</time>
      </trkpt>
      <trkpt lat="48.807034017518163" lon="2.391915963962674">
        <ele>35.710000000000001</ele>
        <time>2018-07-10T06:15:31Z</time>
      </trkpt>
      <trkpt lat="48.806998981162906" lon="2.391951000317931">
        <ele>35.710000000000001</ele>
        <time>2018-07-10T06:15:32Z</time>
      </trkpt>
      <trkpt lat="48.806948019191623" lon="2.392015960067511">
        <ele>35.710000000000001</ele>
        <time>2018-07-10T06:15:33Z</time>
      </trkpt>
      <trkpt lat="48.806892028078437" lon="2.392087038606405">
        <ele>35.229999999999997</ele>
        <time>2018-07-10T06:15:34Z</time>
      </trkpt>
      <trkpt lat="48.806779962033033" lon="2.392229028046131">
        <ele>35.229999999999997</ele>
        <time>2018-07-10T06:15:36Z</time>
      </trkpt>
      <trkpt lat="48.806150984019041" lon="2.392968982458115">
        <ele>32.340000000000003</ele>
        <time>2018-07-10T06:15:45Z</time>
      </trkpt>
      <trkpt lat="48.805379010736942" lon="2.393899960443378">
        <ele>29.940000000000001</ele>
        <time>2018-07-10T06:15:55Z</time>
      </trkpt>
      <trkpt lat="48.805217994377017" lon="2.39409701898694">
        <ele>29.460000000000001</ele>
        <time>2018-07-10T06:15:57Z</time>
      </trkpt>
      <trkpt lat="48.80505102686584" lon="2.394293993711472">
        <ele>29.460000000000001</ele>
        <time>2018-07-10T06:15:59Z</time>
      </trkpt>
      <trkpt lat="48.8049650285393" lon="2.394396001473069">
        <ele>29.940000000000001</ele>
        <time>2018-07-10T06:16:00Z</time>
      </trkpt>
      <trkpt lat="48.804878024384379" lon="2.394498009234667">
        <ele>30.420000000000002</ele>
        <time>2018-07-10T06:16:01Z</time>
      </trkpt>
      <trkpt lat="48.803960960358381" lon="2.395581034943461">
        <ele>35.710000000000001</ele>
        <time>2018-07-10T06:16:11Z</time>
      </trkpt>
      <trkpt lat="48.803083039820194" lon="2.396646039560437">
        <ele>36.670000000000002</ele>
        <time>2018-07-10T06:16:21Z</time>
      </trkpt>
      <trkpt lat="48.802842982113361" lon="2.396938987076283">
        <ele>38.590000000000003</ele>
        <time>2018-07-10T06:16:25Z</time>
      </trkpt>
      <trkpt lat="48.802791014313698" lon="2.397003024816513">
        <ele>39.07</ele>
        <time>2018-07-10T06:16:26Z</time>
      </trkpt>
      <trkpt lat="48.802738962695003" lon="2.397066978737712">
        <ele>39.07</ele>
        <time>2018-07-10T06:16:27Z</time>
      </trkpt>
      <trkpt lat="48.802691018208861" lon="2.397124981507659">
        <ele>39.549999999999997</ele>
        <time>2018-07-10T06:16:28Z</time>
      </trkpt>
      <trkpt lat="48.802655981853604" lon="2.39716898649931">
        <ele>40.030000000000001</ele>
        <time>2018-07-10T06:16:29Z</time>
      </trkpt>
      <trkpt lat="48.80262597464025" lon="2.397205028682947">
        <ele>40.030000000000001</ele>
        <time>2018-07-10T06:16:30Z</time>
      </trkpt>
      <trkpt lat="48.802595967426896" lon="2.397241992875934">
        <ele>40.509999999999998</ele>
        <time>2018-07-10T06:16:31Z</time>
      </trkpt>
      <trkpt lat="48.802470993250608" lon="2.397395968437195">
        <ele>41.469999999999999</ele>
        <time>2018-07-10T06:16:35Z</time>
      </trkpt>
      <trkpt lat="48.802439980208874" lon="2.397435028105974">
        <ele>41.950000000000003</ele>
        <time>2018-07-10T06:16:36Z</time>
      </trkpt>
      <trkpt lat="48.8022780418396" lon="2.397615993395448">
        <ele>42.439999999999998</ele>
        <time>2018-07-10T06:16:42Z</time>
      </trkpt>
      <trkpt lat="48.802254991605878" lon="2.397639965638518">
        <ele>42.920000000000002</ele>
        <time>2018-07-10T06:16:43Z</time>
      </trkpt>
      <trkpt lat="48.802234036847949" lon="2.397661004215479">
        <ele>42.920000000000002</ele>
        <time>2018-07-10T06:16:44Z</time>
      </trkpt>
      <trkpt lat="48.80221500992775" lon="2.397679025307298">
        <ele>42.920000000000002</ele>
        <time>2018-07-10T06:16:45Z</time>
      </trkpt>
      <trkpt lat="48.802197994664311" lon="2.397696962580085">
        <ele>42.439999999999998</ele>
        <time>2018-07-10T06:16:46Z</time>
      </trkpt>
      <trkpt lat="48.802171004936099" lon="2.397723030298948">
        <ele>42.439999999999998</ele>
        <time>2018-07-10T06:16:47Z</time>
      </trkpt>
      <trkpt lat="48.802148038521409" lon="2.397753037512302">
        <ele>41.950000000000003</ele>
        <time>2018-07-10T06:16:48Z</time>
      </trkpt>
      <trkpt lat="48.801831034943461" lon="2.398169031366706">
        <ele>42.920000000000002</ele>
        <time>2018-07-10T06:16:58Z</time>
      </trkpt>
      <trkpt lat="48.801794992759824" lon="2.398217981681228">
        <ele>42.920000000000002</ele>
        <time>2018-07-10T06:16:59Z</time>
      </trkpt>
      <trkpt lat="48.801761968061328" lon="2.398261986672878">
        <ele>42.920000000000002</ele>
        <time>2018-07-10T06:17:00Z</time>
      </trkpt>
      <trkpt lat="48.801729027181864" lon="2.398305991664529">
        <ele>42.920000000000002</ele>
        <time>2018-07-10T06:17:01Z</time>
      </trkpt>
      <trkpt lat="48.801675969734788" lon="2.398360976949334">
        <ele>42.439999999999998</ele>
        <time>2018-07-10T06:17:02Z</time>
      </trkpt>
      <trkpt lat="48.801634982228279" lon="2.398387966677547">
        <ele>42.439999999999998</ele>
        <time>2018-07-10T06:17:03Z</time>
      </trkpt>
      <trkpt lat="48.801607992500067" lon="2.398420991376042">
        <ele>42.439999999999998</ele>
        <time>2018-07-10T06:17:04Z</time>
      </trkpt>
      <trkpt lat="48.801569016650319" lon="2.398467008024454">
        <ele>42.439999999999998</ele>
        <time>2018-07-10T06:17:05Z</time>
      </trkpt>
      <trkpt lat="48.80122602917254" lon="2.398680998012424">
        <ele>40.509999999999998</ele>
        <time>2018-07-10T06:17:13Z</time>
      </trkpt>
      <trkpt lat="48.800954036414623" lon="2.398742018267512">
        <ele>39.549999999999997</ele>
        <time>2018-07-10T06:17:21Z</time>
      </trkpt>
      <trkpt lat="48.800851022824645" lon="2.398765990510583">
        <ele>38.590000000000003</ele>
        <time>2018-07-10T06:17:23Z</time>
      </trkpt>
      <trkpt lat="48.800549022853374" lon="2.398835979402065">
        <ele>36.670000000000002</ele>
        <time>2018-07-10T06:17:31Z</time>
      </trkpt>
      <trkpt lat="48.800306031480432" lon="2.398892976343632">
        <ele>34.259999999999998</ele>
        <time>2018-07-10T06:17:36Z</time>
      </trkpt>
      <trkpt lat="48.800234030932188" lon="2.398912003263831">
        <ele>34.259999999999998</ele>
        <time>2018-07-10T06:17:37Z</time>
      </trkpt>
      <trkpt lat="48.799880985170603" lon="2.399019962176681">
        <ele>33.299999999999997</ele>
        <time>2018-07-10T06:17:42Z</time>
      </trkpt>
      <trkpt lat="48.799272961914539" lon="2.399164969101548">
        <ele>30.420000000000002</ele>
        <time>2018-07-10T06:17:50Z</time>
      </trkpt>
      <trkpt lat="48.799114963039756" lon="2.399198999628425">
        <ele>30.420000000000002</ele>
        <time>2018-07-10T06:17:52Z</time>
      </trkpt>
      <trkpt lat="48.79903600551188" lon="2.399217020720244">
        <ele>30.420000000000002</ele>
        <time>2018-07-10T06:17:53Z</time>
      </trkpt>
      <trkpt lat="48.798518003895879" lon="2.399338977411389">
        <ele>30.420000000000002</ele>
        <time>2018-07-10T06:18:01Z</time>
      </trkpt>
      <trkpt lat="48.798221033066511" lon="2.399412989616394">
        <ele>29.460000000000001</ele>
        <time>2018-07-10T06:18:10Z</time>
      </trkpt>
      <trkpt lat="48.798221033066511" lon="2.399412989616394">
        <ele>29.460000000000001</ele>
        <time>2018-07-10T06:18:29Z</time>
      </trkpt>
      <trkpt lat="48.798202006146312" lon="2.399418018758297">
        <ele>29.460000000000001</ele>
        <time>2018-07-10T06:18:49Z</time>
      </trkpt>
      <trkpt lat="48.798170993104577" lon="2.39942598156631">
        <ele>29.460000000000001</ele>
        <time>2018-07-10T06:18:50Z</time>
      </trkpt>
      <trkpt lat="48.798136040568352" lon="2.399435034021735">
        <ele>29.460000000000001</ele>
        <time>2018-07-10T06:18:51Z</time>
      </trkpt>
      <trkpt lat="48.797980975359678" lon="2.399461017921567">
        <ele>29.940000000000001</ele>
        <time>2018-07-10T06:18:56Z</time>
      </trkpt>
      <trkpt lat="48.797952979803085" lon="2.399461017921567">
        <ele>29.940000000000001</ele>
        <time>2018-07-10T06:18:57Z</time>
      </trkpt>
      <trkpt lat="48.797902017831802" lon="2.399461017921567">
        <ele>30.899999999999999</ele>
        <time>2018-07-10T06:18:58Z</time>
      </trkpt>
      <trkpt lat="48.797851977869868" lon="2.399461017921567">
        <ele>31.379999999999999</ele>
        <time>2018-07-10T06:18:59Z</time>
      </trkpt>
      <trkpt lat="48.797797998413444" lon="2.399461017921567">
        <ele>31.859999999999999</ele>
        <time>2018-07-10T06:19:00Z</time>
      </trkpt>
      <trkpt lat="48.797793975099921" lon="2.399461017921567">
        <ele>31.859999999999999</ele>
        <time>2018-07-10T06:19:01Z</time>
      </trkpt>
      <trkpt lat="48.797698002308607" lon="2.399411983788014">
        <ele>31.859999999999999</ele>
        <time>2018-07-10T06:19:02Z</time>
      </trkpt>
      <trkpt lat="48.797676041722298" lon="2.39944601431489">
        <ele>32.340000000000003</ele>
        <time>2018-07-10T06:19:03Z</time>
      </trkpt>
      <trkpt lat="48.797664977610111" lon="2.399461017921567">
        <ele>32.82</ele>
        <time>2018-07-10T06:19:04Z</time>
      </trkpt>
      <trkpt lat="48.797392984852195" lon="2.399600995704532">
        <ele>32.82</ele>
        <time>2018-07-10T06:19:13Z</time>
      </trkpt>
      <trkpt lat="48.79697397351265" lon="2.399744996801019">
        <ele>31.859999999999999</ele>
        <time>2018-07-10T06:19:21Z</time>
      </trkpt>
      <trkpt lat="48.796918988227844" lon="2.399756982922554">
        <ele>31.859999999999999</ele>
        <time>2018-07-10T06:19:22Z</time>
      </trkpt>
      <trkpt lat="48.796787979081273" lon="2.399783972650766">
        <ele>30.899999999999999</ele>
        <time>2018-07-10T06:19:25Z</time>
      </trkpt>
      <trkpt lat="48.796487990766764" lon="2.399844992905855">
        <ele>29.940000000000001</ele>
        <time>2018-07-10T06:19:30Z</time>
      </trkpt>
      <trkpt lat="48.796439040452242" lon="2.399854967370629">
        <ele>29.940000000000001</ele>
        <time>2018-07-10T06:19:31Z</time>
      </trkpt>
      <trkpt lat="48.796399980783463" lon="2.399863013997674">
        <ele>29.940000000000001</ele>
        <time>2018-07-10T06:19:32Z</time>
      </trkpt>
      <trkpt lat="48.796143997460604" lon="2.399928979575634">
        <ele>28.98</ele>
        <time>2018-07-10T06:19:39Z</time>
      </trkpt>
      <trkpt lat="48.795910980552435" lon="2.399996034801006">
        <ele>29.460000000000001</ele>
        <time>2018-07-10T06:19:43Z</time>
      </trkpt>
      <trkpt lat="48.795848032459617" lon="2.400011960417032">
        <ele>29.460000000000001</ele>
        <time>2018-07-10T06:19:44Z</time>
      </trkpt>
      <trkpt lat="48.795786006376147" lon="2.400026964023709">
        <ele>29.460000000000001</ele>
        <time>2018-07-10T06:19:45Z</time>
      </trkpt>
      <trkpt lat="48.795724986121058" lon="2.400042973458767">
        <ele>29.460000000000001</ele>
        <time>2018-07-10T06:19:46Z</time>
      </trkpt>
      <trkpt lat="48.795659020543098" lon="2.400058982893825">
        <ele>29.460000000000001</ele>
        <time>2018-07-10T06:19:47Z</time>
      </trkpt>
      <trkpt lat="48.795291977003217" lon="2.4001569673419">
        <ele>28.5</ele>
        <time>2018-07-10T06:19:53Z</time>
      </trkpt>
      <trkpt lat="48.795230034738779" lon="2.400174988433719">
        <ele>28.5</ele>
        <time>2018-07-10T06:19:54Z</time>
      </trkpt>
      <trkpt lat="48.794914958998561" lon="2.4002830311656">
        <ele>27.530000000000001</ele>
        <time>2018-07-10T06:20:00Z</time>
      </trkpt>
      <trkpt lat="48.794869026169181" lon="2.400298034772277">
        <ele>27.530000000000001</ele>
        <time>2018-07-10T06:20:01Z</time>
      </trkpt>
      <trkpt lat="48.794822003692389" lon="2.400312032550573">
        <ele>27.050000000000001</ele>
        <time>2018-07-10T06:20:02Z</time>
      </trkpt>
      <trkpt lat="48.794770035892725" lon="2.400327958166599">
        <ele>27.050000000000001</ele>
        <time>2018-07-10T06:20:03Z</time>
      </trkpt>
      <trkpt lat="48.794716978445649" lon="2.400344973430038">
        <ele>27.050000000000001</ele>
        <time>2018-07-10T06:20:04Z</time>
      </trkpt>
      <trkpt lat="48.794584963470697" lon="2.400399958714843">
        <ele>28.5</ele>
        <time>2018-07-10T06:20:12Z</time>
      </trkpt>
      <trkpt lat="48.79456702619791" lon="2.400409011170268">
        <ele>29.460000000000001</ele>
        <time>2018-07-10T06:20:54Z</time>
      </trkpt>
      <trkpt lat="48.794547999277711" lon="2.400418985635042">
        <ele>29.940000000000001</ele>
        <time>2018-07-10T06:20:55Z</time>
      </trkpt>
      <trkpt lat="48.794307019561529" lon="2.400539014488459">
        <ele>29.940000000000001</ele>
        <time>2018-07-10T06:21:05Z</time>
      </trkpt>
      <trkpt lat="48.794270977377892" lon="2.400557035580277">
        <ele>29.940000000000001</ele>
        <time>2018-07-10T06:21:12Z</time>
      </trkpt>
      <trkpt lat="48.794205011799932" lon="2.400590982288122">
        <ele>29.940000000000001</ele>
        <time>2018-07-10T06:21:14Z</time>
      </trkpt>
      <trkpt lat="48.794164024293423" lon="2.400611015036702">
        <ele>29.940000000000001</ele>
        <time>2018-07-10T06:21:15Z</time>
      </trkpt>
      <trkpt lat="48.794119013473392" lon="2.400716040283442">
        <ele>29.940000000000001</ele>
        <time>2018-07-10T06:21:16Z</time>
      </trkpt>
      <trkpt lat="48.794134017080069" lon="2.40077999420464">
        <ele>29.940000000000001</ele>
        <time>2018-07-10T06:21:17Z</time>
      </trkpt>
      <trkpt lat="48.794148014858365" lon="2.4008459597826">
        <ele>29.940000000000001</ele>
        <time>2018-07-10T06:21:18Z</time>
      </trkpt>
      <trkpt lat="48.794161006808281" lon="2.400906980037689">
        <ele>29.940000000000001</ele>
        <time>2018-07-10T06:21:19Z</time>
      </trkpt>
      <trkpt lat="48.794173998758197" lon="2.400965988636017">
        <ele>29.940000000000001</ele>
        <time>2018-07-10T06:21:20Z</time>
      </trkpt>
      <trkpt lat="48.794187996536493" lon="2.401031032204628">
        <ele>29.940000000000001</ele>
        <time>2018-07-10T06:21:21Z</time>
      </trkpt>
      <trkpt lat="48.79420300014317" lon="2.401098003610969">
        <ele>30.420000000000002</ele>
        <time>2018-07-10T06:21:22Z</time>
      </trkpt>
      <trkpt lat="48.794216997921467" lon="2.401163969188929">
        <ele>30.420000000000002</ele>
        <time>2018-07-10T06:21:23Z</time>
      </trkpt>
      <trkpt lat="48.794230995699763" lon="2.401225995272398">
        <ele>30.420000000000002</ele>
        <time>2018-07-10T06:21:24Z</time>
      </trkpt>
      <trkpt lat="48.79424599930644" lon="2.401292966678739">
        <ele>29.940000000000001</ele>
        <time>2018-07-10T06:21:25Z</time>
      </trkpt>
      <trkpt lat="48.794262008741498" lon="2.401365973055363">
        <ele>30.420000000000002</ele>
        <time>2018-07-10T06:21:26Z</time>
      </trkpt>
      <trkpt lat="48.794279024004936" lon="2.40144400857389">
        <ele>30.420000000000002</ele>
        <time>2018-07-10T06:21:27Z</time>
      </trkpt>
      <trkpt lat="48.794299978762865" lon="2.401539981365204">
        <ele>30.899999999999999</ele>
        <time>2018-07-10T06:21:28Z</time>
      </trkpt>
      <trkpt lat="48.794326968491077" lon="2.401656992733479">
        <ele>30.899999999999999</ele>
        <time>2018-07-10T06:21:29Z</time>
      </trkpt>
      <trkpt lat="48.794356975704432" lon="2.401781966909766">
        <ele>31.379999999999999</ele>
        <time>2018-07-10T06:21:30Z</time>
      </trkpt>
      <trkpt lat="48.794390000402927" lon="2.401911970227957">
        <ele>31.379999999999999</ele>
        <time>2018-07-10T06:21:31Z</time>
      </trkpt>
      <trkpt lat="48.794742040336132" lon="2.403358016163111">
        <ele>32.340000000000003</ele>
        <time>2018-07-10T06:21:40Z</time>
      </trkpt>
      <trkpt lat="48.795207990333438" lon="2.405240004882217">
        <ele>37.630000000000003</ele>
        <time>2018-07-10T06:21:51Z</time>
      </trkpt>
      <trkpt lat="48.795504039153457" lon="2.406790992245078">
        <ele>37.630000000000003</ele>
        <time>2018-07-10T06:22:01Z</time>
      </trkpt>
      <trkpt lat="48.795648040249944" lon="2.408773982897401">
        <ele>34.259999999999998</ele>
        <time>2018-07-10T06:22:13Z</time>
      </trkpt>
      <trkpt lat="48.795805033296347" lon="2.410450028255582">
        <ele>31.859999999999999</ele>
        <time>2018-07-10T06:22:24Z</time>
      </trkpt>
      <trkpt lat="48.795818025246263" lon="2.410593023523688">
        <ele>31.859999999999999</ele>
        <time>2018-07-10T06:22:25Z</time>
      </trkpt>
      <trkpt lat="48.795832023024559" lon="2.410735012963414">
        <ele>31.859999999999999</ele>
        <time>2018-07-10T06:22:26Z</time>
      </trkpt>
      <trkpt lat="48.79585700109601" lon="2.411163998767734">
        <ele>31.379999999999999</ele>
        <time>2018-07-10T06:22:29Z</time>
      </trkpt>
      <trkpt lat="48.795918021351099" lon="2.411888027563691">
        <ele>31.379999999999999</ele>
        <time>2018-07-10T06:22:34Z</time>
      </trkpt>
      <trkpt lat="48.795930007472634" lon="2.412032028660178">
        <ele>31.379999999999999</ele>
        <time>2018-07-10T06:22:35Z</time>
      </trkpt>
      <trkpt lat="48.795867981389165" lon="2.413602964952588">
        <ele>32.82</ele>
        <time>2018-07-10T06:22:45Z</time>
      </trkpt>
      <trkpt lat="48.795863036066294" lon="2.413770016282797">
        <ele>32.82</ele>
        <time>2018-07-10T06:22:46Z</time>
      </trkpt>
      <trkpt lat="48.795863036066294" lon="2.413923991844058">
        <ele>32.340000000000003</ele>
        <time>2018-07-10T06:22:47Z</time>
      </trkpt>
      <trkpt lat="48.795880973339081" lon="2.414073022082448">
        <ele>31.859999999999999</ele>
        <time>2018-07-10T06:22:48Z</time>
      </trkpt>
      <trkpt lat="48.7958989944309" lon="2.414211994037032">
        <ele>31.379999999999999</ele>
        <time>2018-07-10T06:22:49Z</time>
      </trkpt>
      <trkpt lat="48.795988010242581" lon="2.415285967290402">
        <ele>31.859999999999999</ele>
        <time>2018-07-10T06:22:59Z</time>
      </trkpt>
      <trkpt lat="48.795993961393833" lon="2.415470033884049">
        <ele>31.859999999999999</ele>
        <time>2018-07-10T06:23:07Z</time>
      </trkpt>
      <trkpt lat="48.795993961393833" lon="2.415480008348823">
        <ele>31.859999999999999</ele>
        <time>2018-07-10T06:23:10Z</time>
      </trkpt>
      <trkpt lat="48.795994967222214" lon="2.415514960885048">
        <ele>31.859999999999999</ele>
        <time>2018-07-10T06:23:11Z</time>
      </trkpt>
      <trkpt lat="48.795995973050594" lon="2.415571035817266">
        <ele>32.340000000000003</ele>
        <time>2018-07-10T06:23:12Z</time>
      </trkpt>
      <trkpt lat="48.795996978878975" lon="2.41564697586">
        <ele>32.340000000000003</ele>
        <time>2018-07-10T06:23:13Z</time>
      </trkpt>
      <trkpt lat="48.795998990535736" lon="2.41573398001492">
        <ele>32.340000000000003</ele>
        <time>2018-07-10T06:23:14Z</time>
      </trkpt>
      <trkpt lat="48.796004019677639" lon="2.416022988036275">
        <ele>32.340000000000003</ele>
        <time>2018-07-10T06:23:17Z</time>
      </trkpt>
      <trkpt lat="48.7960060313344" lon="2.416129019111395">
        <ele>32.82</ele>
        <time>2018-07-10T06:23:18Z</time>
      </trkpt>
      <trkpt lat="48.796009970828891" lon="2.416352983564138">
        <ele>33.780000000000001</ele>
        <time>2018-07-10T06:23:20Z</time>
      </trkpt>
      <trkpt lat="48.796010976657271" lon="2.416449962183833">
        <ele>33.780000000000001</ele>
        <time>2018-07-10T06:23:21Z</time>
      </trkpt>
      <trkpt lat="48.796010976657271" lon="2.416558004915714">
        <ele>34.259999999999998</ele>
        <time>2018-07-10T06:23:22Z</time>
      </trkpt>
      <trkpt lat="48.795999996364117" lon="2.416653977707028">
        <ele>34.740000000000002</ele>
        <time>2018-07-10T06:23:23Z</time>
      </trkpt>
      <trkpt lat="48.795992033556104" lon="2.416735030710697">
        <ele>34.740000000000002</ele>
        <time>2018-07-10T06:23:24Z</time>
      </trkpt>
      <trkpt lat="48.796011982485652" lon="2.4167849868536">
        <ele>35.229999999999997</ele>
        <time>2018-07-10T06:23:25Z</time>
      </trkpt>
      <trkpt lat="48.796034026890993" lon="2.416841983795166">
        <ele>35.229999999999997</ele>
        <time>2018-07-10T06:23:26Z</time>
      </trkpt>
      <trkpt lat="48.796080965548754" lon="2.416869979351759">
        <ele>35.229999999999997</ele>
        <time>2018-07-10T06:23:27Z</time>
      </trkpt>
      <trkpt lat="48.79613796249032" lon="2.416904009878635">
        <ele>35.229999999999997</ele>
        <time>2018-07-10T06:23:28Z</time>
      </trkpt>
      <trkpt lat="48.796218009665608" lon="2.416950026527047">
        <ele>35.229999999999997</ele>
        <time>2018-07-10T06:23:29Z</time>
      </trkpt>
      <trkpt lat="48.79626402631402" lon="2.417010962963104">
        <ele>35.229999999999997</ele>
        <time>2018-07-10T06:23:30Z</time>
      </trkpt>
      <trkpt lat="48.796348012983799" lon="2.417121017351747">
        <ele>35.229999999999997</ele>
        <time>2018-07-10T06:23:32Z</time>
      </trkpt>
      <trkpt lat="48.796391012147069" lon="2.417176002636552">
        <ele>35.229999999999997</ele>
        <time>2018-07-10T06:23:33Z</time>
      </trkpt>
      <trkpt lat="48.796474998816848" lon="2.417292008176446">
        <ele>35.710000000000001</ele>
        <time>2018-07-10T06:23:35Z</time>
      </trkpt>
      <trkpt lat="48.796771969646215" lon="2.417841022834182">
        <ele>36.189999999999998</ele>
        <time>2018-07-10T06:23:43Z</time>
      </trkpt>
      <trkpt lat="48.797191986814141" lon="2.418582988902926">
        <ele>37.149999999999999</ele>
        <time>2018-07-10T06:23:53Z</time>
      </trkpt>
      <trkpt lat="48.797430032864213" lon="2.418989008292556">
        <ele>37.149999999999999</ele>
        <time>2018-07-10T06:23:58Z</time>
      </trkpt>
      <trkpt lat="48.797469008713961" lon="2.419055979698896">
        <ele>37.630000000000003</ele>
        <time>2018-07-10T06:23:59Z</time>
      </trkpt>
      <trkpt lat="48.797623990103602" lon="2.419316992163658">
        <ele>39.07</ele>
        <time>2018-07-10T06:24:07Z</time>
      </trkpt>
      <trkpt lat="48.797765979543328" lon="2.41955797187984">
        <ele>39.07</ele>
        <time>2018-07-10T06:24:22Z</time>
      </trkpt>
      <trkpt lat="48.797878967598081" lon="2.419748995453119">
        <ele>39.07</ele>
        <time>2018-07-10T06:24:25Z</time>
      </trkpt>
      <trkpt lat="48.79791802726686" lon="2.419814961031079">
        <ele>38.590000000000003</ele>
        <time>2018-07-10T06:24:26Z</time>
      </trkpt>
      <trkpt lat="48.797958008944988" lon="2.419883022084832">
        <ele>38.590000000000003</ele>
        <time>2018-07-10T06:24:27Z</time>
      </trkpt>
      <trkpt lat="48.798127993941307" lon="2.420242018997669">
        <ele>36.670000000000002</ele>
        <time>2018-07-10T06:24:32Z</time>
      </trkpt>
      <trkpt lat="48.798152972012758" lon="2.420297004282475">
        <ele>36.189999999999998</ele>
        <time>2018-07-10T06:24:33Z</time>
      </trkpt>
      <trkpt lat="48.798175016418099" lon="2.420345032587647">
        <ele>35.710000000000001</ele>
        <time>2018-07-10T06:24:34Z</time>
      </trkpt>
      <trkpt lat="48.798161018639803" lon="2.42043798789382">
        <ele>35.710000000000001</ele>
        <time>2018-07-10T06:24:35Z</time>
      </trkpt>
      <trkpt lat="48.798123970627785" lon="2.420469000935555">
        <ele>35.229999999999997</ele>
        <time>2018-07-10T06:24:36Z</time>
      </trkpt>
      <trkpt lat="48.798079965636134" lon="2.420505965128541">
        <ele>34.740000000000002</ele>
        <time>2018-07-10T06:24:37Z</time>
      </trkpt>
      <trkpt lat="48.798035038635135" lon="2.42054401896894">
        <ele>34.740000000000002</ele>
        <time>2018-07-10T06:24:38Z</time>
      </trkpt>
      <trkpt lat="48.797852983698249" lon="2.420697994530201">
        <ele>33.299999999999997</ele>
        <time>2018-07-10T06:24:41Z</time>
      </trkpt>
      <trkpt lat="48.797787018120289" lon="2.420752979815006">
        <ele>32.82</ele>
        <time>2018-07-10T06:24:42Z</time>
      </trkpt>
      <trkpt lat="48.797406982630491" lon="2.421073000878096">
        <ele>30.420000000000002</ele>
        <time>2018-07-10T06:24:49Z</time>
      </trkpt>
      <trkpt lat="48.797362977638841" lon="2.421109965071082">
        <ele>29.940000000000001</ele>
        <time>2018-07-10T06:24:50Z</time>
      </trkpt>
      <trkpt lat="48.79731603898108" lon="2.421149024739862">
        <ele>29.460000000000001</ele>
        <time>2018-07-10T06:24:51Z</time>
      </trkpt>
      <trkpt lat="48.797209002077579" lon="2.421237034723163">
        <ele>28.02</ele>
        <time>2018-07-10T06:24:56Z</time>
      </trkpt>
      <trkpt lat="48.797181006520987" lon="2.421260001137853">
        <ele>28.5</ele>
        <time>2018-07-10T06:24:57Z</time>
      </trkpt>
      <trkpt lat="48.797159967944026" lon="2.421277016401291">
        <ele>28.5</ele>
        <time>2018-07-10T06:24:58Z</time>
      </trkpt>
      <trkpt lat="48.797140019014478" lon="2.421294031664729">
        <ele>28.5</ele>
        <time>2018-07-10T06:25:11Z</time>
      </trkpt>
      <trkpt lat="48.797001969069242" lon="2.421253966167569">
        <ele>32.340000000000003</ele>
        <time>2018-07-10T06:30:45Z</time>
      </trkpt>
      <trkpt lat="48.796969028189778" lon="2.421218007802963">
        <ele>38.109999999999999</ele>
        <time>2018-07-10T06:31:05Z</time>
      </trkpt>
      <trkpt lat="48.796969028189778" lon="2.421269975602627">
        <ele>36.189999999999998</ele>
        <time>2018-07-10T06:31:25Z</time>
      </trkpt>
      <trkpt lat="48.796996017917991" lon="2.421412970870733">
        <ele>35.710000000000001</ele>
        <time>2018-07-10T06:31:27Z</time>
      </trkpt>
      <trkpt lat="48.796969028189778" lon="2.421435015276074">
        <ele>35.710000000000001</ele>
        <time>2018-07-10T06:31:28Z</time>
      </trkpt>
      <trkpt lat="48.79693198017776" lon="2.421466028317809">
        <ele>35.229999999999997</ele>
        <time>2018-07-10T06:31:29Z</time>
      </trkpt>
      <trkpt lat="48.796898033469915" lon="2.421494023874402">
        <ele>35.229999999999997</ele>
        <time>2018-07-10T06:31:30Z</time>
      </trkpt>
      <trkpt lat="48.796893004328012" lon="2.421497963368893">
        <ele>35.229999999999997</ele>
        <time>2018-07-10T06:31:31Z</time>
      </trkpt>
      <trkpt lat="48.796862997114658" lon="2.421542974188924">
        <ele>35.229999999999997</ele>
        <time>2018-07-10T06:31:32Z</time>
      </trkpt>
      <trkpt lat="48.796843970194459" lon="2.421570969745517">
        <ele>34.740000000000002</ele>
        <time>2018-07-10T06:31:33Z</time>
      </trkpt>
      <trkpt lat="48.796808011829853" lon="2.421625033020973">
        <ele>33.780000000000001</ele>
        <time>2018-07-10T06:31:35Z</time>
      </trkpt>
      <trkpt lat="48.796807006001472" lon="2.421626960858703">
        <ele>33.780000000000001</ele>
        <time>2018-07-10T06:31:36Z</time>
      </trkpt>
      <trkpt lat="48.796807006001472" lon="2.421626960858703">
        <ele>33.299999999999997</ele>
        <time>2018-07-10T06:31:37Z</time>
      </trkpt>
      <trkpt lat="48.796814968809485" lon="2.421659985557199">
        <ele>32.82</ele>
        <time>2018-07-10T06:31:38Z</time>
      </trkpt>
      <trkpt lat="48.796807006001472" lon="2.421626960858703">
        <ele>32.82</ele>
        <time>2018-07-10T06:31:39Z</time>
      </trkpt>
      <trkpt lat="48.796913959085941" lon="2.421649005264044">
        <ele>32.340000000000003</ele>
        <time>2018-07-10T06:31:40Z</time>
      </trkpt>
      <trkpt lat="48.79697497934103" lon="2.421602988615632">
        <ele>32.340000000000003</ele>
        <time>2018-07-10T06:31:41Z</time>
      </trkpt>
      <trkpt lat="48.797043962404132" lon="2.421551020815969">
        <ele>32.340000000000003</ele>
        <time>2018-07-10T06:31:42Z</time>
      </trkpt>
      <trkpt lat="48.797821970656514" lon="2.420936962589622">
        <ele>34.259999999999998</ele>
        <time>2018-07-10T06:31:51Z</time>
      </trkpt>
      <trkpt lat="48.798049036413431" lon="2.420749040320516">
        <ele>34.740000000000002</ele>
        <time>2018-07-10T06:31:57Z</time>
      </trkpt>
      <trkpt lat="48.798049036413431" lon="2.420749040320516">
        <ele>34.740000000000002</ele>
        <time>2018-07-10T06:32:19Z</time>
      </trkpt>
      <trkpt lat="48.798141991719604" lon="2.420731019228697">
        <ele>33.780000000000001</ele>
        <time>2018-07-10T06:32:29Z</time>
      </trkpt>
      <trkpt lat="48.798179039731622" lon="2.420723978430033">
        <ele>33.780000000000001</ele>
        <time>2018-07-10T06:32:30Z</time>
      </trkpt>
      <trkpt lat="48.798304013907909" lon="2.420838978141546">
        <ele>34.259999999999998</ele>
        <time>2018-07-10T06:32:31Z</time>
      </trkpt>
      <trkpt lat="48.798318011686206" lon="2.420933023095131">
        <ele>33.780000000000001</ele>
        <time>2018-07-10T06:32:32Z</time>
      </trkpt>
      <trkpt lat="48.798334021121264" lon="2.421037964522839">
        <ele>33.780000000000001</ele>
        <time>2018-07-10T06:32:33Z</time>
      </trkpt>
      <trkpt lat="48.79834801889956" lon="2.421133015304804">
        <ele>33.299999999999997</ele>
        <time>2018-07-10T06:32:34Z</time>
      </trkpt>
      <trkpt lat="48.798549016937613" lon="2.422239007428289">
        <ele>29.940000000000001</ele>
        <time>2018-07-10T06:32:44Z</time>
      </trkpt>
      <trkpt lat="48.798586986958981" lon="2.422417039051652">
        <ele>29.460000000000001</ele>
        <time>2018-07-10T06:32:46Z</time>
      </trkpt>
      <trkpt lat="48.798599978908896" lon="2.422469006851316">
        <ele>28.98</ele>
        <time>2018-07-10T06:32:47Z</time>
      </trkpt>
      <trkpt lat="48.798609031364322" lon="2.422503959387541">
        <ele>28.98</ele>
        <time>2018-07-10T06:32:48Z</time>
      </trkpt>
      <trkpt lat="48.798613976687193" lon="2.422527009621263">
        <ele>28.5</ele>
        <time>2018-07-10T06:32:49Z</time>
      </trkpt>
      <trkpt lat="48.798613976687193" lon="2.422527009621263">
        <ele>28.02</ele>
        <time>2018-07-10T06:33:02Z</time>
      </trkpt>
      <trkpt lat="48.798682037740946" lon="2.422853987663984">
        <ele>28.02</ele>
        <time>2018-07-10T06:33:12Z</time>
      </trkpt>
      <trkpt lat="48.798730988055468" lon="2.423107959330082">
        <ele>27.530000000000001</ele>
        <time>2018-07-10T06:33:15Z</time>
      </trkpt>
      <trkpt lat="48.798750014975667" lon="2.423204015940428">
        <ele>27.530000000000001</ele>
        <time>2018-07-10T06:33:16Z</time>
      </trkpt>
      <trkpt lat="48.798769041895866" lon="2.423304012045264">
        <ele>27.530000000000001</ele>
        <time>2018-07-10T06:33:17Z</time>
      </trkpt>
      <trkpt lat="48.798987977206707" lon="2.424120996147394">
        <ele>28.5</ele>
        <time>2018-07-10T06:33:24Z</time>
      </trkpt>
      <trkpt lat="48.799022007733583" lon="2.424242030829191">
        <ele>28.98</ele>
        <time>2018-07-10T06:33:25Z</time>
      </trkpt>
      <trkpt lat="48.799059977754951" lon="2.424373961985111">
        <ele>28.98</ele>
        <time>2018-07-10T06:33:26Z</time>
      </trkpt>
      <trkpt lat="48.799181012436748" lon="2.424693983048201">
        <ele>29.460000000000001</ele>
        <time>2018-07-10T06:33:29Z</time>
      </trkpt>
      <trkpt lat="48.799392990767956" lon="2.42525196634233">
        <ele>29.460000000000001</ele>
        <time>2018-07-10T06:33:34Z</time>
      </trkpt>
      <trkpt lat="48.799433978274465" lon="2.425359003245831">
        <ele>28.98</ele>
        <time>2018-07-10T06:33:35Z</time>
      </trkpt>
      <trkpt lat="48.799474965780973" lon="2.425465034320951">
        <ele>28.98</ele>
        <time>2018-07-10T06:33:36Z</time>
      </trkpt>
      <trkpt lat="48.799585020169616" lon="2.425750019028783">
        <ele>28.98</ele>
        <time>2018-07-10T06:33:42Z</time>
      </trkpt>
      <trkpt lat="48.799668001011014" lon="2.425964009016752">
        <ele>31.379999999999999</ele>
        <time>2018-07-10T06:33:50Z</time>
      </trkpt>
      <trkpt lat="48.799708988517523" lon="2.426069034263492">
        <ele>31.859999999999999</ele>
        <time>2018-07-10T06:33:57Z</time>
      </trkpt>
      <trkpt lat="48.799783000722528" lon="2.426417972892523">
        <ele>32.82</ele>
        <time>2018-07-10T06:34:01Z</time>
      </trkpt>
      <trkpt lat="48.799858018755913" lon="2.426872020587325">
        <ele>34.259999999999998</ele>
        <time>2018-07-10T06:34:05Z</time>
      </trkpt>
      <trkpt lat="48.800047030672431" lon="2.427997039631009">
        <ele>38.590000000000003</ele>
        <time>2018-07-10T06:34:14Z</time>
      </trkpt>
      <trkpt lat="48.800065973773599" lon="2.428135005757213">
        <ele>38.109999999999999</ele>
        <time>2018-07-10T06:34:15Z</time>
      </trkpt>
      <trkpt lat="48.800365040078759" lon="2.429421963170171">
        <ele>32.340000000000003</ele>
        <time>2018-07-10T06:34:25Z</time>
      </trkpt>
      <trkpt lat="48.800394963473082" lon="2.429541992023587">
        <ele>32.340000000000003</ele>
        <time>2018-07-10T06:34:26Z</time>
      </trkpt>
      <trkpt lat="48.800421031191945" lon="2.429643999785185">
        <ele>31.859999999999999</ele>
        <time>2018-07-10T06:34:27Z</time>
      </trkpt>
      <trkpt lat="48.800441985949874" lon="2.429731003940105">
        <ele>31.379999999999999</ele>
        <time>2018-07-10T06:34:28Z</time>
      </trkpt>
      <trkpt lat="48.800461012870073" lon="2.42980501614511">
        <ele>30.899999999999999</ele>
        <time>2018-07-10T06:34:29Z</time>
      </trkpt>
      <trkpt lat="48.800474004819989" lon="2.429856983944774">
        <ele>30.899999999999999</ele>
        <time>2018-07-10T06:34:30Z</time>
      </trkpt>
      <trkpt lat="48.800480961799622" lon="2.429885985329747">
        <ele>30.420000000000002</ele>
        <time>2018-07-10T06:34:31Z</time>
      </trkpt>
      <trkpt lat="48.800489008426666" lon="2.429920015856624">
        <ele>28.98</ele>
        <time>2018-07-10T06:34:43Z</time>
      </trkpt>
      <trkpt lat="48.800502000376582" lon="2.429970977827907">
        <ele>28.5</ele>
        <time>2018-07-10T06:34:44Z</time>
      </trkpt>
      <trkpt lat="48.800608031451702" lon="2.430392000824213">
        <ele>28.02</ele>
        <time>2018-07-10T06:34:50Z</time>
      </trkpt>
      <trkpt lat="48.800646001473069" lon="2.430545976385474">
        <ele>27.050000000000001</ele>
        <time>2018-07-10T06:34:52Z</time>
      </trkpt>
      <trkpt lat="48.800759995356202" lon="2.430906984955072">
        <ele>26.09</ele>
        <time>2018-07-10T06:34:57Z</time>
      </trkpt>
      <trkpt lat="48.800786985084414" lon="2.43096498772502">
        <ele>25.609999999999999</ele>
        <time>2018-07-10T06:34:58Z</time>
      </trkpt>
      <trkpt lat="48.800871977582574" lon="2.431146036833525">
        <ele>25.129999999999999</ele>
        <time>2018-07-10T06:35:02Z</time>
      </trkpt>
      <trkpt lat="48.80088203586638" lon="2.431165985763073">
        <ele>25.129999999999999</ele>
        <time>2018-07-10T06:35:03Z</time>
      </trkpt>
      <trkpt lat="48.80088203586638" lon="2.431165985763073">
        <ele>25.609999999999999</ele>
        <time>2018-07-10T06:35:14Z</time>
      </trkpt>
      <trkpt lat="48.800883963704109" lon="2.431171014904976">
        <ele>25.609999999999999</ele>
        <time>2018-07-10T06:35:49Z</time>
      </trkpt>
      <trkpt lat="48.801080016419291" lon="2.431506961584091">
        <ele>26.57</ele>
        <time>2018-07-10T06:35:56Z</time>
      </trkpt>
      <trkpt lat="48.801111029461026" lon="2.431557001546025">
        <ele>26.57</ele>
        <time>2018-07-10T06:35:57Z</time>
      </trkpt>
      <trkpt lat="48.801127960905433" lon="2.431655991822481">
        <ele>26.57</ele>
        <time>2018-07-10T06:35:58Z</time>
      </trkpt>
      <trkpt lat="48.801108011975884" lon="2.431724974885583">
        <ele>26.57</ele>
        <time>2018-07-10T06:35:59Z</time>
      </trkpt>
      <trkpt lat="48.801087979227304" lon="2.431802004575729">
        <ele>26.57</ele>
        <time>2018-07-10T06:36:00Z</time>
      </trkpt>
      <trkpt lat="48.801084961742163" lon="2.431895965710282">
        <ele>27.050000000000001</ele>
        <time>2018-07-10T06:36:01Z</time>
      </trkpt>
      <trkpt lat="48.80109803751111" lon="2.431986993178725">
        <ele>27.530000000000001</ele>
        <time>2018-07-10T06:36:02Z</time>
      </trkpt>
      <trkpt lat="48.801108011975884" lon="2.432080032303929">
        <ele>28.02</ele>
        <time>2018-07-10T06:36:03Z</time>
      </trkpt>
      <trkpt lat="48.801157968118787" lon="2.432546988129616">
        <ele>28.98</ele>
        <time>2018-07-10T06:36:08Z</time>
      </trkpt>
      <trkpt lat="48.801169032230973" lon="2.432647990062833">
        <ele>28.98</ele>
        <time>2018-07-10T06:36:09Z</time>
      </trkpt>
      <trkpt lat="48.80120599642396" lon="2.432957030832768">
        <ele>29.940000000000001</ele>
        <time>2018-07-10T06:36:12Z</time>
      </trkpt>
      <trkpt lat="48.801180012524128" lon="2.433139001950622">
        <ele>30.899999999999999</ele>
        <time>2018-07-10T06:36:14Z</time>
      </trkpt>
      <trkpt lat="48.801167020574212" lon="2.433231035247445">
        <ele>30.899999999999999</ele>
        <time>2018-07-10T06:36:15Z</time>
      </trkpt>
      <trkpt lat="48.801153022795916" lon="2.433323990553618">
        <ele>31.379999999999999</ele>
        <time>2018-07-10T06:36:16Z</time>
      </trkpt>
      <trkpt lat="48.801069958135486" lon="2.433701008558273">
        <ele>32.340000000000003</ele>
        <time>2018-07-10T06:36:20Z</time>
      </trkpt>
      <trkpt lat="48.801021007820964" lon="2.433906029909849">
        <ele>32.82</ele>
        <time>2018-07-10T06:36:22Z</time>
      </trkpt>
      <trkpt lat="48.800997035577893" lon="2.434004014357925">
        <ele>32.82</ele>
        <time>2018-07-10T06:36:23Z</time>
      </trkpt>
      <trkpt lat="48.800837025046349" lon="2.434443980455399">
        <ele>33.780000000000001</ele>
        <time>2018-07-10T06:36:29Z</time>
      </trkpt>
      <trkpt lat="48.800814980641007" lon="2.434505000710487">
        <ele>33.780000000000001</ele>
        <time>2018-07-10T06:36:30Z</time>
      </trkpt>
      <trkpt lat="48.80079997703433" lon="2.434544982388616">
        <ele>33.780000000000001</ele>
        <time>2018-07-10T06:36:31Z</time>
      </trkpt>
      <trkpt lat="48.800762007012963" lon="2.434646990150213">
        <ele>32.82</ele>
        <time>2018-07-10T06:36:40Z</time>
      </trkpt>
      <trkpt lat="48.800762007012963" lon="2.434646990150213">
        <ele>32.82</ele>
        <time>2018-07-10T06:37:14Z</time>
      </trkpt>
      <trkpt lat="48.800741974264383" lon="2.434700969606638">
        <ele>31.859999999999999</ele>
        <time>2018-07-10T06:37:15Z</time>
      </trkpt>
      <trkpt lat="48.800727976486087" lon="2.434738017618656">
        <ele>31.379999999999999</ele>
        <time>2018-07-10T06:37:16Z</time>
      </trkpt>
      <trkpt lat="48.800711967051029" lon="2.434781016781926">
        <ele>30.899999999999999</ele>
        <time>2018-07-10T06:37:17Z</time>
      </trkpt>
      <trkpt lat="48.800698975101113" lon="2.434851005673409">
        <ele>30.899999999999999</ele>
        <time>2018-07-10T06:37:18Z</time>
      </trkpt>
      <trkpt lat="48.800678020343184" lon="2.434957958757877">
        <ele>31.379999999999999</ele>
        <time>2018-07-10T06:37:19Z</time>
      </trkpt>
      <trkpt lat="48.800654970109463" lon="2.435079999268055">
        <ele>30.899999999999999</ele>
        <time>2018-07-10T06:37:20Z</time>
      </trkpt>
      <trkpt lat="48.800633009523153" lon="2.43519801646471">
        <ele>32.340000000000003</ele>
        <time>2018-07-10T06:37:21Z</time>
      </trkpt>
      <trkpt lat="48.800611970946193" lon="2.43530597537756">
        <ele>32.82</ele>
        <time>2018-07-10T06:37:22Z</time>
      </trkpt>
      <trkpt lat="48.800595039501786" lon="2.435394991189241">
        <ele>33.299999999999997</ele>
        <time>2018-07-10T06:37:23Z</time>
      </trkpt>
      <trkpt lat="48.800569977611303" lon="2.435526000335813">
        <ele>33.780000000000001</ele>
        <time>2018-07-10T06:37:25Z</time>
      </trkpt>
      <trkpt lat="48.800465036183596" lon="2.435902012512088">
        <ele>35.229999999999997</ele>
        <time>2018-07-10T06:37:29Z</time>
      </trkpt>
      <trkpt lat="48.80021802149713" lon="2.436624029651284">
        <ele>39.549999999999997</ele>
        <time>2018-07-10T06:37:37Z</time>
      </trkpt>
      <trkpt lat="48.800201006233692" lon="2.436674991622567">
        <ele>39.549999999999997</ele>
        <time>2018-07-10T06:37:38Z</time>
      </trkpt>
      <trkpt lat="48.800189020112157" lon="2.436709022149444">
        <ele>40.030000000000001</ele>
        <time>2018-07-10T06:37:39Z</time>
      </trkpt>
      <trkpt lat="48.800189020112157" lon="2.436709022149444">
        <ele>40.030000000000001</ele>
        <time>2018-07-10T06:37:50Z</time>
      </trkpt>
      <trkpt lat="48.800106039270759" lon="2.436954025179148">
        <ele>40.990000000000002</ele>
        <time>2018-07-10T06:37:58Z</time>
      </trkpt>
      <trkpt lat="48.79991996102035" lon="2.437532963231206">
        <ele>42.439999999999998</ele>
        <time>2018-07-10T06:38:04Z</time>
      </trkpt>
      <trkpt lat="48.799743019044399" lon="2.438264032825828">
        <ele>42.920000000000002</ele>
        <time>2018-07-10T06:38:11Z</time>
      </trkpt>
      <trkpt lat="48.799737989902496" lon="2.438350031152368">
        <ele>43.399999999999999</ele>
        <time>2018-07-10T06:38:12Z</time>
      </trkpt>
      <trkpt lat="48.799733966588974" lon="2.438436029478908">
        <ele>43.399999999999999</ele>
        <time>2018-07-10T06:38:13Z</time>
      </trkpt>
      <trkpt lat="48.799726003780961" lon="2.438599979504943">
        <ele>43.399999999999999</ele>
        <time>2018-07-10T06:38:15Z</time>
      </trkpt>
      <trkpt lat="48.799721980467439" lon="2.438671980053186">
        <ele>43.399999999999999</ele>
        <time>2018-07-10T06:38:16Z</time>
      </trkpt>
      <trkpt lat="48.799707982689142" lon="2.438941961154342">
        <ele>43.399999999999999</ele>
        <time>2018-07-10T06:38:19Z</time>
      </trkpt>
      <trkpt lat="48.799686022102833" lon="2.439370024949312">
        <ele>43.880000000000003</ele>
        <time>2018-07-10T06:38:23Z</time>
      </trkpt>
      <trkpt lat="48.79968199878931" lon="2.439488964155316">
        <ele>43.880000000000003</ele>
        <time>2018-07-10T06:38:24Z</time>
      </trkpt>
      <trkpt lat="48.799674035981297" lon="2.440371997654438">
        <ele>43.880000000000003</ele>
        <time>2018-07-10T06:38:31Z</time>
      </trkpt>
      <trkpt lat="48.799672024324536" lon="2.440518010407686">
        <ele>43.880000000000003</ele>
        <time>2018-07-10T06:38:32Z</time>
      </trkpt>
      <trkpt lat="48.799670012667775" lon="2.440665028989315">
        <ele>43.880000000000003</ele>
        <time>2018-07-10T06:38:33Z</time>
      </trkpt>
      <trkpt lat="48.79966096021235" lon="2.441415963694453">
        <ele>45.32</ele>
        <time>2018-07-10T06:38:39Z</time>
      </trkpt>
      <trkpt lat="48.799664983525872" lon="2.441856013610959">
        <ele>44.840000000000003</ele>
        <time>2018-07-10T06:38:43Z</time>
      </trkpt>
      <trkpt lat="48.799671018496156" lon="2.441956009715796">
        <ele>44.840000000000003</ele>
        <time>2018-07-10T06:38:44Z</time>
      </trkpt>
      <trkpt lat="48.799676969647408" lon="2.442058017477393">
        <ele>44.840000000000003</ele>
        <time>2018-07-10T06:38:45Z</time>
      </trkpt>
      <trkpt lat="48.799685016274452" lon="2.442162958905101">
        <ele>44.840000000000003</ele>
        <time>2018-07-10T06:38:46Z</time>
      </trkpt>
      <trkpt lat="48.799695996567607" lon="2.442262033000588">
        <ele>44.840000000000003</ele>
        <time>2018-07-10T06:38:47Z</time>
      </trkpt>
      <trkpt lat="48.799704965204" lon="2.442354988306761">
        <ele>44.840000000000003</ele>
        <time>2018-07-10T06:38:48Z</time>
      </trkpt>
      <trkpt lat="48.799707982689142" lon="2.442424977198243">
        <ele>44.359999999999999</ele>
        <time>2018-07-10T06:38:49Z</time>
      </trkpt>
      <trkpt lat="48.799711000174284" lon="2.442473005503416">
        <ele>44.359999999999999</ele>
        <time>2018-07-10T06:38:50Z</time>
      </trkpt>
      <trkpt lat="48.799712006002665" lon="2.442506030201912">
        <ele>44.359999999999999</ele>
        <time>2018-07-10T06:38:51Z</time>
      </trkpt>
      <trkpt lat="48.799714017659426" lon="2.442535031586886">
        <ele>44.359999999999999</ele>
        <time>2018-07-10T06:38:52Z</time>
      </trkpt>
      <trkpt lat="48.79972499795258" lon="2.442819010466337">
        <ele>43.880000000000003</ele>
        <time>2018-07-10T06:39:01Z</time>
      </trkpt>
      <trkpt lat="48.799730027094483" lon="2.442904002964497">
        <ele>44.840000000000003</ele>
        <time>2018-07-10T06:39:16Z</time>
      </trkpt>
      <trkpt lat="48.799749976024032" lon="2.443807991221547">
        <ele>44.840000000000003</ele>
        <time>2018-07-10T06:39:23Z</time>
      </trkpt>
      <trkpt lat="48.79974695853889" lon="2.445113975554705">
        <ele>45.32</ele>
        <time>2018-07-10T06:39:32Z</time>
      </trkpt>
      <trkpt lat="48.79974695853889" lon="2.44527499191463">
        <ele>45.32</ele>
        <time>2018-07-10T06:39:33Z</time>
      </trkpt>
      <trkpt lat="48.799687027931213" lon="2.44742201641202">
        <ele>46.280000000000001</ele>
        <time>2018-07-10T06:39:46Z</time>
      </trkpt>
      <trkpt lat="48.799512013792992" lon="2.449167966842651">
        <ele>44.840000000000003</ele>
        <time>2018-07-10T06:39:56Z</time>
      </trkpt>
      <trkpt lat="48.79944303072989" lon="2.449886966496706">
        <ele>44.359999999999999</ele>
        <time>2018-07-10T06:40:00Z</time>
      </trkpt>
      <trkpt lat="48.799397014081478" lon="2.450593980029225">
        <ele>46.759999999999998</ele>
        <time>2018-07-10T06:40:04Z</time>
      </trkpt>
      <trkpt lat="48.79938100464642" lon="2.450765976682305">
        <ele>47.719999999999999</ele>
        <time>2018-07-10T06:40:05Z</time>
      </trkpt>
      <trkpt lat="48.799302969127893" lon="2.451594024896622">
        <ele>49.649999999999999</ele>
        <time>2018-07-10T06:40:12Z</time>
      </trkpt>
      <trkpt lat="48.7992940004915" lon="2.451691003516316">
        <ele>49.649999999999999</ele>
        <time>2018-07-10T06:40:15Z</time>
      </trkpt>
      <trkpt lat="48.799280002713203" lon="2.451846990734339">
        <ele>50.130000000000003</ele>
        <time>2018-07-10T06:40:24Z</time>
      </trkpt>
      <trkpt lat="48.799161985516548" lon="2.452675960958004">
        <ele>50.130000000000003</ele>
        <time>2018-07-10T06:40:31Z</time>
      </trkpt>
      <trkpt lat="48.799133989959955" lon="2.452820967882872">
        <ele>49.649999999999999</ele>
        <time>2018-07-10T06:40:33Z</time>
      </trkpt>
      <trkpt lat="48.799100965261459" lon="2.453043004497886">
        <ele>47.240000000000002</ele>
        <time>2018-07-10T06:40:41Z</time>
      </trkpt>
      <trkpt lat="48.799100965261459" lon="2.453043004497886">
        <ele>47.240000000000002</ele>
        <time>2018-07-10T06:40:45Z</time>
      </trkpt>
      <trkpt lat="48.799093002453446" lon="2.45309597812593">
        <ele>47.240000000000002</ele>
        <time>2018-07-10T06:40:46Z</time>
      </trkpt>
      <trkpt lat="48.799039022997022" lon="2.453469978645444">
        <ele>46.280000000000001</ele>
        <time>2018-07-10T06:40:51Z</time>
      </trkpt>
      <trkpt lat="48.799021001905203" lon="2.453621020540595">
        <ele>46.280000000000001</ele>
        <time>2018-07-10T06:40:53Z</time>
      </trkpt>
      <trkpt lat="48.799010021612048" lon="2.453713975846767">
        <ele>45.799999999999997</ele>
        <time>2018-07-10T06:40:54Z</time>
      </trkpt>
      <trkpt lat="48.79897003993392" lon="2.453881027176976">
        <ele>45.799999999999997</ele>
        <time>2018-07-10T06:40:55Z</time>
      </trkpt>
      <trkpt lat="48.798806006088853" lon="2.454166011884809">
        <ele>46.280000000000001</ele>
        <time>2018-07-10T06:40:58Z</time>
      </trkpt>
      <trkpt lat="48.798694023862481" lon="2.454361980780959">
        <ele>46.280000000000001</ele>
        <time>2018-07-10T06:41:00Z</time>
      </trkpt>
      <trkpt lat="48.798637026920915" lon="2.454466000199318">
        <ele>46.280000000000001</ele>
        <time>2018-07-10T06:41:01Z</time>
      </trkpt>
      <trkpt lat="48.79834801889956" lon="2.455011997371912">
        <ele>45.799999999999997</ele>
        <time>2018-07-10T06:41:06Z</time>
      </trkpt>
      <trkpt lat="48.797749970108271" lon="2.4561039917171">
        <ele>45.32</ele>
        <time>2018-07-10T06:41:14Z</time>
      </trkpt>
      <trkpt lat="48.797578979283571" lon="2.456328961998224">
        <ele>45.799999999999997</ele>
        <time>2018-07-10T06:41:16Z</time>
      </trkpt>
      <trkpt lat="48.797499015927315" lon="2.456427030265331">
        <ele>45.799999999999997</ele>
        <time>2018-07-10T06:41:17Z</time>
      </trkpt>
      <trkpt lat="48.797427015379071" lon="2.456515040248632">
        <ele>45.799999999999997</ele>
        <time>2018-07-10T06:41:18Z</time>
      </trkpt>
      <trkpt lat="48.796910019591451" lon="2.457085009664297">
        <ele>47.240000000000002</ele>
        <time>2018-07-10T06:41:26Z</time>
      </trkpt>
      <trkpt lat="48.796830978244543" lon="2.457181988283992">
        <ele>48.200000000000003</ele>
        <time>2018-07-10T06:41:33Z</time>
      </trkpt>
      <trkpt lat="48.796653030440211" lon="2.457401007413864">
        <ele>48.68</ele>
        <time>2018-07-10T06:41:43Z</time>
      </trkpt>
      <trkpt lat="48.796440968289971" lon="2.457663025707007">
        <ele>49.159999999999997</ele>
        <time>2018-07-10T06:41:47Z</time>
      </trkpt>
      <trkpt lat="48.796366034075618" lon="2.457753969356418">
        <ele>49.649999999999999</ele>
        <time>2018-07-10T06:41:48Z</time>
      </trkpt>
      <trkpt lat="48.795529017224908" lon="2.458742028102279">
        <ele>49.159999999999997</ele>
        <time>2018-07-10T06:41:58Z</time>
      </trkpt>
      <trkpt lat="48.794984025880694" lon="2.459461027756333">
        <ele>50.609999999999999</ele>
        <time>2018-07-10T06:42:05Z</time>
      </trkpt>
      <trkpt lat="48.794623017311096" lon="2.45990501716733">
        <ele>51.090000000000003</ele>
        <time>2018-07-10T06:42:09Z</time>
      </trkpt>
      <trkpt lat="48.794380025938153" lon="2.460188996046782">
        <ele>52.530000000000001</ele>
        <time>2018-07-10T06:42:12Z</time>
      </trkpt>
      <trkpt lat="48.79424499347806" lon="2.460324028506875">
        <ele>53.969999999999999</ele>
        <time>2018-07-10T06:42:14Z</time>
      </trkpt>
      <trkpt lat="48.794078025966883" lon="2.460498958826065">
        <ele>56.369999999999997</ele>
        <time>2018-07-10T06:42:17Z</time>
      </trkpt>
      <trkpt lat="48.794041983783245" lon="2.460538018494844">
        <ele>56.859999999999999</ele>
        <time>2018-07-10T06:42:18Z</time>
      </trkpt>
      <trkpt lat="48.794013988226652" lon="2.460568025708199">
        <ele>57.340000000000003</ele>
        <time>2018-07-10T06:42:19Z</time>
      </trkpt>
      <trkpt lat="48.793989010155201" lon="2.460595015436411">
        <ele>57.82</ele>
        <time>2018-07-10T06:42:20Z</time>
      </trkpt>
      <trkpt lat="48.793965959921479" lon="2.460619993507862">
        <ele>58.299999999999997</ele>
        <time>2018-07-10T06:42:21Z</time>
      </trkpt>
      <trkpt lat="48.7936229724437" lon="2.460944037884474">
        <ele>60.700000000000003</ele>
        <time>2018-07-10T06:42:27Z</time>
      </trkpt>
      <trkpt lat="48.792663998901844" lon="2.461574021726847">
        <ele>58.780000000000001</ele>
        <time>2018-07-10T06:42:36Z</time>
      </trkpt>
      <trkpt lat="48.792222021147609" lon="2.461767978966236">
        <ele>58.780000000000001</ele>
        <time>2018-07-10T06:42:40Z</time>
      </trkpt>
      <trkpt lat="48.791963020339608" lon="2.461887001991272">
        <ele>59.259999999999998</ele>
        <time>2018-07-10T06:42:43Z</time>
      </trkpt>
      <trkpt lat="48.791926978155971" lon="2.46190301142633">
        <ele>59.259999999999998</ele>
        <time>2018-07-10T06:42:44Z</time>
      </trkpt>
      <trkpt lat="48.791908035054803" lon="2.461910974234343">
        <ele>59.740000000000002</ele>
        <time>2018-07-10T06:42:45Z</time>
      </trkpt>
      <trkpt lat="48.791893031448126" lon="2.461918015033007">
        <ele>59.740000000000002</ele>
        <time>2018-07-10T06:42:46Z</time>
      </trkpt>
      <trkpt lat="48.791878027841449" lon="2.461924972012639">
        <ele>60.219999999999999</ele>
        <time>2018-07-10T06:42:47Z</time>
      </trkpt>
      <trkpt lat="48.791865035891533" lon="2.461931006982923">
        <ele>60.219999999999999</ele>
        <time>2018-07-10T06:42:48Z</time>
      </trkpt>
      <trkpt lat="48.791865035891533" lon="2.461931006982923">
        <ele>60.700000000000003</ele>
        <time>2018-07-10T06:43:03Z</time>
      </trkpt>
      <trkpt lat="48.791856989264488" lon="2.461934024468064">
        <ele>60.700000000000003</ele>
        <time>2018-07-10T06:43:28Z</time>
      </trkpt>
      <trkpt lat="48.791824970394373" lon="2.461949028074741">
        <ele>60.700000000000003</ele>
        <time>2018-07-10T06:43:29Z</time>
      </trkpt>
      <trkpt lat="48.791779959574342" lon="2.46196897700429">
        <ele>60.700000000000003</ele>
        <time>2018-07-10T06:43:30Z</time>
      </trkpt>
      <trkpt lat="48.791271010413766" lon="2.462317999452353">
        <ele>61.659999999999997</ele>
        <time>2018-07-10T06:43:37Z</time>
      </trkpt>
      <trkpt lat="48.790853004902601" lon="2.462768023833633">
        <ele>63.100000000000001</ele>
        <time>2018-07-10T06:43:45Z</time>
      </trkpt>
      <trkpt lat="48.79078796133399" lon="2.462836001068354">
        <ele>63.579999999999998</ele>
        <time>2018-07-10T06:43:46Z</time>
      </trkpt>
      <trkpt lat="48.79072199575603" lon="2.462901966646314">
        <ele>63.579999999999998</ele>
        <time>2018-07-10T06:43:47Z</time>
      </trkpt>
      <trkpt lat="48.790664998814464" lon="2.462974973022938">
        <ele>64.069999999999993</ele>
        <time>2018-07-10T06:43:48Z</time>
      </trkpt>
      <trkpt lat="48.790022023022175" lon="2.464077025651932">
        <ele>64.069999999999993</ele>
        <time>2018-07-10T06:43:57Z</time>
      </trkpt>
      <trkpt lat="48.789397990331054" lon="2.465413017198443">
        <ele>62.140000000000001</ele>
        <time>2018-07-10T06:44:06Z</time>
      </trkpt>
      <trkpt lat="48.789310986176133" lon="2.465545032173395">
        <ele>62.140000000000001</ele>
        <time>2018-07-10T06:44:07Z</time>
      </trkpt>
      <trkpt lat="48.789242003113031" lon="2.465691966935992">
        <ele>61.659999999999997</ele>
        <time>2018-07-10T06:44:08Z</time>
      </trkpt>
      <trkpt lat="48.78917402587831" lon="2.465837979689241">
        <ele>61.659999999999997</ele>
        <time>2018-07-10T06:44:09Z</time>
      </trkpt>
      <trkpt lat="48.789106970652938" lon="2.465981980785728">
        <ele>61.18</ele>
        <time>2018-07-10T06:44:10Z</time>
      </trkpt>
      <trkpt lat="48.788977973163128" lon="2.466263025999069">
        <ele>60.700000000000003</ele>
        <time>2018-07-10T06:44:12Z</time>
      </trkpt>
      <trkpt lat="48.78891502507031" lon="2.466405015438795">
        <ele>60.700000000000003</ele>
        <time>2018-07-10T06:44:13Z</time>
      </trkpt>
      <trkpt lat="48.788845958188176" lon="2.466558991000056">
        <ele>60.700000000000003</ele>
        <time>2018-07-10T06:44:14Z</time>
      </trkpt>
      <trkpt lat="48.788558961823583" lon="2.467024018988013">
        <ele>60.700000000000003</ele>
        <time>2018-07-10T06:44:18Z</time>
      </trkpt>
      <trkpt lat="48.788475980982184" lon="2.467130972072482">
        <ele>61.18</ele>
        <time>2018-07-10T06:44:19Z</time>
      </trkpt>
      <trkpt lat="48.787937024608254" lon="2.467746958136559">
        <ele>63.100000000000001</ele>
        <time>2018-07-10T06:44:25Z</time>
      </trkpt>
      <trkpt lat="48.787844991311431" lon="2.467838991433382">
        <ele>63.100000000000001</ele>
        <time>2018-07-10T06:44:26Z</time>
      </trkpt>
      <trkpt lat="48.787567969411612" lon="2.468117019161582">
        <ele>64.069999999999993</ele>
        <time>2018-07-10T06:44:29Z</time>
      </trkpt>
      <trkpt lat="48.787479037418962" lon="2.468207040801644">
        <ele>64.069999999999993</ele>
        <time>2018-07-10T06:44:30Z</time>
      </trkpt>
      <trkpt lat="48.787389015778899" lon="2.468298990279436">
        <ele>63.579999999999998</ele>
        <time>2018-07-10T06:44:31Z</time>
      </trkpt>
      <trkpt lat="48.78730402328074" lon="2.468387000262737">
        <ele>63.579999999999998</ele>
        <time>2018-07-10T06:44:32Z</time>
      </trkpt>
      <trkpt lat="48.787214001640677" lon="2.468479033559561">
        <ele>63.100000000000001</ele>
        <time>2018-07-10T06:44:33Z</time>
      </trkpt>
      <trkpt lat="48.787121968343854" lon="2.468574000522494">
        <ele>62.619999999999997</ele>
        <time>2018-07-10T06:44:34Z</time>
      </trkpt>
      <trkpt lat="48.786033997312188" lon="2.469667000696063">
        <ele>57.340000000000003</ele>
        <time>2018-07-10T06:44:46Z</time>
      </trkpt>
      <trkpt lat="48.785125985741615" lon="2.470624968409538">
        <ele>53.969999999999999</ele>
        <time>2018-07-10T06:44:55Z</time>
      </trkpt>
      <trkpt lat="48.784592980518937" lon="2.471198961138725">
        <ele>53.009999999999998</ele>
        <time>2018-07-10T06:45:02Z</time>
      </trkpt>
      <trkpt lat="48.784445039927959" lon="2.471346985548735">
        <ele>53.490000000000002</ele>
        <time>2018-07-10T06:45:06Z</time>
      </trkpt>
      <trkpt lat="48.783954028040171" lon="2.471837997436523">
        <ele>53.969999999999999</ele>
        <time>2018-07-10T06:45:12Z</time>
      </trkpt>
      <trkpt lat="48.783169984817505" lon="2.472630003467202">
        <ele>54.450000000000003</ele>
        <time>2018-07-10T06:45:19Z</time>
      </trkpt>
      <trkpt lat="48.782730018720031" lon="2.473080027848482">
        <ele>54.93</ele>
        <time>2018-07-10T06:45:24Z</time>
      </trkpt>
      <trkpt lat="48.7826850079" lon="2.473125038668513">
        <ele>54.93</ele>
        <time>2018-07-10T06:45:25Z</time>
      </trkpt>
      <trkpt lat="48.78264301456511" lon="2.473168037831783">
        <ele>54.93</ele>
        <time>2018-07-10T06:45:26Z</time>
      </trkpt>
      <trkpt lat="48.78259900957346" lon="2.473212964832783">
        <ele>54.93</ele>
        <time>2018-07-10T06:45:27Z</time>
      </trkpt>
      <trkpt lat="48.782548969611526" lon="2.473263004794717">
        <ele>54.450000000000003</ele>
        <time>2018-07-10T06:45:28Z</time>
      </trkpt>
      <trkpt lat="48.782491972669959" lon="2.473323019221425">
        <ele>53.969999999999999</ele>
        <time>2018-07-10T06:45:29Z</time>
      </trkpt>
      <trkpt lat="48.782431036233902" lon="2.473385967314243">
        <ele>53.969999999999999</ele>
        <time>2018-07-10T06:45:30Z</time>
      </trkpt>
      <trkpt lat="48.782362975180149" lon="2.473456040024757">
        <ele>54.450000000000003</ele>
        <time>2018-07-10T06:45:31Z</time>
      </trkpt>
      <trkpt lat="48.782287035137415" lon="2.473533991724253">
        <ele>54.450000000000003</ele>
        <time>2018-07-10T06:45:32Z</time>
      </trkpt>
      <trkpt lat="48.781956033781171" lon="2.473875973373652">
        <ele>55.890000000000001</ele>
        <time>2018-07-10T06:45:36Z</time>
      </trkpt>
      <trkpt lat="48.7818059977144" lon="2.474032966420054">
        <ele>56.369999999999997</ele>
        <time>2018-07-10T06:45:38Z</time>
      </trkpt>
      <trkpt lat="48.781730979681015" lon="2.474113013595343">
        <ele>56.369999999999997</ele>
        <time>2018-07-10T06:45:39Z</time>
      </trkpt>
      <trkpt lat="48.780855992808938" lon="2.475021025165916">
        <ele>56.369999999999997</ele>
        <time>2018-07-10T06:45:49Z</time>
      </trkpt>
      <trkpt lat="48.780240006744862" lon="2.475709011778235">
        <ele>54.450000000000003</ele>
        <time>2018-07-10T06:45:57Z</time>
      </trkpt>
      <trkpt lat="48.780199019238353" lon="2.475765002891421">
        <ele>54.450000000000003</ele>
        <time>2018-07-10T06:45:58Z</time>
      </trkpt>
      <trkpt lat="48.780027022585273" lon="2.475915038958192">
        <ele>54.450000000000003</ele>
        <time>2018-07-10T06:45:59Z</time>
      </trkpt>
      <trkpt lat="48.779094032943249" lon="2.476825984194875">
        <ele>56.369999999999997</ele>
        <time>2018-07-10T06:46:09Z</time>
      </trkpt>
      <trkpt lat="48.777733985334635" lon="2.478229030966759">
        <ele>56.859999999999999</ele>
        <time>2018-07-10T06:46:23Z</time>
      </trkpt>
      <trkpt lat="48.777051027864218" lon="2.478929003700614">
        <ele>56.369999999999997</ele>
        <time>2018-07-10T06:46:30Z</time>
      </trkpt>
      <trkpt lat="48.776757996529341" lon="2.479226980358362">
        <ele>55.890000000000001</ele>
        <time>2018-07-10T06:46:33Z</time>
      </trkpt>
      <trkpt lat="48.775849984958768" lon="2.480177991092205">
        <ele>56.859999999999999</ele>
        <time>2018-07-10T06:46:42Z</time>
      </trkpt>
      <trkpt lat="48.774686995893717" lon="2.481321031227708">
        <ele>55.890000000000001</ele>
        <time>2018-07-10T06:46:53Z</time>
      </trkpt>
      <trkpt lat="48.773978976532817" lon="2.482041036710143">
        <ele>53.969999999999999</ele>
        <time>2018-07-10T06:47:00Z</time>
      </trkpt>
      <trkpt lat="48.772896034643054" lon="2.48317401856184">
        <ele>50.130000000000003</ele>
        <time>2018-07-10T06:47:11Z</time>
      </trkpt>
      <trkpt lat="48.771905964240432" lon="2.48418596573174">
        <ele>46.759999999999998</ele>
        <time>2018-07-10T06:47:21Z</time>
      </trkpt>
      <trkpt lat="48.771200962364674" lon="2.484917035326362">
        <ele>45.32</ele>
        <time>2018-07-10T06:47:30Z</time>
      </trkpt>
      <trkpt lat="48.770405016839504" lon="2.485729996114969">
        <ele>43.399999999999999</ele>
        <time>2018-07-10T06:47:42Z</time>
      </trkpt>
      <trkpt lat="48.769677970558405" lon="2.486370960250497">
        <ele>46.280000000000001</ele>
        <time>2018-07-10T06:47:53Z</time>
      </trkpt>
      <trkpt lat="48.769371025264263" lon="2.48667798936367">
        <ele>46.759999999999998</ele>
        <time>2018-07-10T06:47:58Z</time>
      </trkpt>
      <trkpt lat="48.769312016665936" lon="2.486735992133617">
        <ele>46.759999999999998</ele>
        <time>2018-07-10T06:47:59Z</time>
      </trkpt>
      <trkpt lat="48.769253008067608" lon="2.486792989075184">
        <ele>46.759999999999998</ele>
        <time>2018-07-10T06:48:00Z</time>
      </trkpt>
      <trkpt lat="48.769191987812519" lon="2.48684998601675">
        <ele>46.759999999999998</ele>
        <time>2018-07-10T06:48:01Z</time>
      </trkpt>
      <trkpt lat="48.76913096755743" lon="2.486908994615078">
        <ele>47.240000000000002</ele>
        <time>2018-07-10T06:48:02Z</time>
      </trkpt>
      <trkpt lat="48.768831985071301" lon="2.487195990979672">
        <ele>45.799999999999997</ele>
        <time>2018-07-10T06:48:10Z</time>
      </trkpt>
      <trkpt lat="48.768824022263288" lon="2.487204037606716">
        <ele>45.799999999999997</ele>
        <time>2018-07-10T06:48:12Z</time>
      </trkpt>
      <trkpt lat="48.768804995343089" lon="2.487222980707884">
        <ele>45.799999999999997</ele>
        <time>2018-07-10T06:48:13Z</time>
      </trkpt>
      <trkpt lat="48.768597962334752" lon="2.487336974591017">
        <ele>45.799999999999997</ele>
        <time>2018-07-10T06:48:18Z</time>
      </trkpt>
      <trkpt lat="48.76852797344327" lon="2.487352984026074">
        <ele>45.799999999999997</ele>
        <time>2018-07-10T06:48:19Z</time>
      </trkpt>
      <trkpt lat="48.768439963459969" lon="2.487373016774654">
        <ele>45.32</ele>
        <time>2018-07-10T06:48:20Z</time>
      </trkpt>
      <trkpt lat="48.768322030082345" lon="2.487339992076159">
        <ele>44.840000000000003</ele>
        <time>2018-07-10T06:48:22Z</time>
      </trkpt>
      <trkpt lat="48.768246006220579" lon="2.487345021218061">
        <ele>44.840000000000003</ele>
        <time>2018-07-10T06:48:23Z</time>
      </trkpt>
      <trkpt lat="48.768171994015574" lon="2.487368993461132">
        <ele>44.840000000000003</ele>
        <time>2018-07-10T06:48:24Z</time>
      </trkpt>
      <trkpt lat="48.768117008730769" lon="2.487434959039092">
        <ele>44.840000000000003</ele>
        <time>2018-07-10T06:48:25Z</time>
      </trkpt>
      <trkpt lat="48.768066968768835" lon="2.487505031749606">
        <ele>44.840000000000003</ele>
        <time>2018-07-10T06:48:26Z</time>
      </trkpt>
      <trkpt lat="48.768053976818919" lon="2.487523974850774">
        <ele>44.840000000000003</ele>
        <time>2018-07-10T06:48:27Z</time>
      </trkpt>
      <trkpt lat="48.768020030111074" lon="2.487655989825726">
        <ele>44.840000000000003</ele>
        <time>2018-07-10T06:48:28Z</time>
      </trkpt>
      <trkpt lat="48.768010977655649" lon="2.487694965675473">
        <ele>44.359999999999999</ele>
        <time>2018-07-10T06:48:29Z</time>
      </trkpt>
      <trkpt lat="48.768010977655649" lon="2.487823041155934">
        <ele>44.359999999999999</ele>
        <time>2018-07-10T06:48:30Z</time>
      </trkpt>
      <trkpt lat="48.767923973500729" lon="2.488079024478793">
        <ele>43.880000000000003</ele>
        <time>2018-07-10T06:48:32Z</time>
      </trkpt>
      <trkpt lat="48.767853984609246" lon="2.488185977563262">
        <ele>43.880000000000003</ele>
        <time>2018-07-10T06:48:33Z</time>
      </trkpt>
      <trkpt lat="48.767781984061003" lon="2.488275999203324">
        <ele>43.880000000000003</ele>
        <time>2018-07-10T06:48:34Z</time>
      </trkpt>
      <trkpt lat="48.767701014876366" lon="2.488371971994638">
        <ele>43.880000000000003</ele>
        <time>2018-07-10T06:48:35Z</time>
      </trkpt>
      <trkpt lat="48.767616022378206" lon="2.488465011119843">
        <ele>43.880000000000003</ele>
        <time>2018-07-10T06:48:36Z</time>
      </trkpt>
      <trkpt lat="48.766604997217655" lon="2.489548958837986">
        <ele>42.439999999999998</ele>
        <time>2018-07-10T06:48:48Z</time>
      </trkpt>
      <trkpt lat="48.766352031379938" lon="2.489821035414934">
        <ele>41.950000000000003</ele>
        <time>2018-07-10T06:48:55Z</time>
      </trkpt>
      <trkpt lat="48.766331998631358" lon="2.489840984344482">
        <ele>41.950000000000003</ele>
        <time>2018-07-10T06:48:56Z</time>
      </trkpt>
      <trkpt lat="48.766306014731526" lon="2.489869985729456">
        <ele>41.950000000000003</ele>
        <time>2018-07-10T06:48:57Z</time>
      </trkpt>
      <trkpt lat="48.766229990869761" lon="2.489883983507752">
        <ele>42.439999999999998</ele>
        <time>2018-07-10T06:48:58Z</time>
      </trkpt>
      <trkpt lat="48.766181040555239" lon="2.48989999294281">
        <ele>42.439999999999998</ele>
        <time>2018-07-10T06:48:59Z</time>
      </trkpt>
      <trkpt lat="48.766135023906827" lon="2.489976016804576">
        <ele>42.920000000000002</ele>
        <time>2018-07-10T06:49:00Z</time>
      </trkpt>
      <trkpt lat="48.766088001430035" lon="2.490072995424271">
        <ele>42.920000000000002</ele>
        <time>2018-07-10T06:49:01Z</time>
      </trkpt>
      <trkpt lat="48.766028992831707" lon="2.490152958780527">
        <ele>42.920000000000002</ele>
        <time>2018-07-10T06:49:02Z</time>
      </trkpt>
      <trkpt lat="48.765965960919857" lon="2.490238035097718">
        <ele>42.920000000000002</ele>
        <time>2018-07-10T06:49:03Z</time>
      </trkpt>
      <trkpt lat="48.765729004517198" lon="2.490569958463311">
        <ele>42.920000000000002</ele>
        <time>2018-07-10T06:49:08Z</time>
      </trkpt>
      <trkpt lat="48.765696985647082" lon="2.490618992596865">
        <ele>42.920000000000002</ele>
        <time>2018-07-10T06:49:09Z</time>
      </trkpt>
      <trkpt lat="48.765610987320542" lon="2.490747990086675">
        <ele>42.439999999999998</ele>
        <time>2018-07-10T06:49:17Z</time>
      </trkpt>
      <trkpt lat="48.765437984839082" lon="2.491006990894675">
        <ele>42.439999999999998</ele>
        <time>2018-07-10T06:49:29Z</time>
      </trkpt>
      <trkpt lat="48.764695012941957" lon="2.492037964984775">
        <ele>43.399999999999999</ele>
        <time>2018-07-10T06:49:39Z</time>
      </trkpt>
      <trkpt lat="48.764166031032801" lon="2.492871964350343">
        <ele>46.280000000000001</ele>
        <time>2018-07-10T06:49:46Z</time>
      </trkpt>
      <trkpt lat="48.763631014153361" lon="2.493593981489539">
        <ele>45.799999999999997</ele>
        <time>2018-07-10T06:49:53Z</time>
      </trkpt>
      <trkpt lat="48.763530012220144" lon="2.493733037263155">
        <ele>45.799999999999997</ele>
        <time>2018-07-10T06:49:54Z</time>
      </trkpt>
      <trkpt lat="48.762602973729372" lon="2.49499099329114">
        <ele>44.840000000000003</ele>
        <time>2018-07-10T06:50:02Z</time>
      </trkpt>
      <trkpt lat="48.762330980971456" lon="2.495327023789287">
        <ele>44.840000000000003</ele>
        <time>2018-07-10T06:50:04Z</time>
      </trkpt>
      <trkpt lat="48.760543037205935" lon="2.497762972488999">
        <ele>41.950000000000003</ele>
        <time>2018-07-10T06:50:18Z</time>
      </trkpt>
      <trkpt lat="48.759282985702157" lon="2.500531012192369">
        <ele>44.359999999999999</ele>
        <time>2018-07-10T06:50:31Z</time>
      </trkpt>
      <trkpt lat="48.758722990751266" lon="2.50165100209415">
        <ele>43.880000000000003</ele>
        <time>2018-07-10T06:50:36Z</time>
      </trkpt>
      <trkpt lat="48.757564024999738" lon="2.50336904078722">
        <ele>45.32</ele>
        <time>2018-07-10T06:50:45Z</time>
      </trkpt>
      <trkpt lat="48.7564089987427" lon="2.504751970991492">
        <ele>47.719999999999999</ele>
        <time>2018-07-10T06:50:54Z</time>
      </trkpt>
      <trkpt lat="48.756075985729694" lon="2.505086995661259">
        <ele>49.649999999999999</ele>
        <time>2018-07-10T06:50:57Z</time>
      </trkpt>
      <trkpt lat="48.7559599801898" lon="2.505137035623193">
        <ele>50.609999999999999</ele>
        <time>2018-07-10T06:50:58Z</time>
      </trkpt>
      <trkpt lat="48.755854032933712" lon="2.505181962624192">
        <ele>51.090000000000003</ele>
        <time>2018-07-10T06:50:59Z</time>
      </trkpt>
      <trkpt lat="48.75576501712203" lon="2.505205012857914">
        <ele>52.049999999999997</ele>
        <time>2018-07-10T06:51:00Z</time>
      </trkpt>
      <trkpt lat="48.755694022402167" lon="2.505205012857914">
        <ele>52.530000000000001</ele>
        <time>2018-07-10T06:51:01Z</time>
      </trkpt>
      <trkpt lat="48.755639959126711" lon="2.505205012857914">
        <ele>52.530000000000001</ele>
        <time>2018-07-10T06:51:02Z</time>
      </trkpt>
      <trkpt lat="48.755473997443914" lon="2.505205012857914">
        <ele>53.490000000000002</ele>
        <time>2018-07-10T06:51:08Z</time>
      </trkpt>
      <trkpt lat="48.755458993837237" lon="2.505205012857914">
        <ele>53.490000000000002</ele>
        <time>2018-07-10T06:51:09Z</time>
      </trkpt>
      <trkpt lat="48.755458993837237" lon="2.505205012857914">
        <ele>53.490000000000002</ele>
        <time>2018-07-10T06:51:10Z</time>
      </trkpt>
      <trkpt lat="48.755458993837237" lon="2.505205012857914">
        <ele>53.969999999999999</ele>
        <time>2018-07-10T06:51:29Z</time>
      </trkpt>
      <trkpt lat="48.755196975544095" lon="2.505205012857914">
        <ele>55.409999999999997</ele>
        <time>2018-07-10T06:51:51Z</time>
      </trkpt>
      <trkpt lat="48.755041994154453" lon="2.505205012857914">
        <ele>55.890000000000001</ele>
        <time>2018-07-10T06:51:53Z</time>
      </trkpt>
      <trkpt lat="48.754961024969816" lon="2.505209036171436">
        <ele>55.890000000000001</ele>
        <time>2018-07-10T06:51:54Z</time>
      </trkpt>
      <trkpt lat="48.754886006936431" lon="2.505291011184454">
        <ele>56.369999999999997</ele>
        <time>2018-07-10T06:51:55Z</time>
      </trkpt>
      <trkpt lat="48.754807971417904" lon="2.505376003682613">
        <ele>56.369999999999997</ele>
        <time>2018-07-10T06:51:56Z</time>
      </trkpt>
      <trkpt lat="48.75473203137517" lon="2.505466025322676">
        <ele>56.369999999999997</ele>
        <time>2018-07-10T06:51:57Z</time>
      </trkpt>
      <trkpt lat="48.754657013341784" lon="2.505570966750383">
        <ele>56.859999999999999</ele>
        <time>2018-07-10T06:51:58Z</time>
      </trkpt>
      <trkpt lat="48.754275972023606" lon="2.506063990294933">
        <ele>56.859999999999999</ele>
        <time>2018-07-10T06:52:03Z</time>
      </trkpt>
      <trkpt lat="48.754200031980872" lon="2.506140014156699">
        <ele>57.340000000000003</ele>
        <time>2018-07-10T06:52:04Z</time>
      </trkpt>
      <trkpt lat="48.753663003444672" lon="2.506604958325625">
        <ele>59.259999999999998</ele>
        <time>2018-07-10T06:52:11Z</time>
      </trkpt>
      <trkpt lat="48.753600977361202" lon="2.506616022437811">
        <ele>59.259999999999998</ele>
        <time>2018-07-10T06:52:12Z</time>
      </trkpt>
      <trkpt lat="48.753529982641339" lon="2.506618034094572">
        <ele>59.740000000000002</ele>
        <time>2018-07-10T06:52:13Z</time>
      </trkpt>
      <trkpt lat="48.753456976264715" lon="2.506613004952669">
        <ele>59.740000000000002</ele>
        <time>2018-07-10T06:52:14Z</time>
      </trkpt>
      <trkpt lat="48.75335999764502" lon="2.506606969982386">
        <ele>60.219999999999999</ele>
        <time>2018-07-10T06:52:15Z</time>
      </trkpt>
      <trkpt lat="48.753243992105126" lon="2.506600013002753">
        <ele>60.219999999999999</ele>
        <time>2018-07-10T06:52:16Z</time>
      </trkpt>
      <trkpt lat="48.75312203541398" lon="2.506604958325625">
        <ele>59.740000000000002</ele>
        <time>2018-07-10T06:52:17Z</time>
      </trkpt>
      <trkpt lat="48.752995971590281" lon="2.506610993295908">
        <ele>59.259999999999998</ele>
        <time>2018-07-10T06:52:18Z</time>
      </trkpt>
      <trkpt lat="48.752862028777599" lon="2.506618034094572">
        <ele>58.780000000000001</ele>
        <time>2018-07-10T06:52:19Z</time>
      </trkpt>
      <trkpt lat="48.752153003588319" lon="2.506676958873868">
        <ele>58.780000000000001</ele>
        <time>2018-07-10T06:52:26Z</time>
      </trkpt>
      <trkpt lat="48.751959968358278" lon="2.506738984957337">
        <ele>59.740000000000002</ele>
        <time>2018-07-10T06:52:32Z</time>
      </trkpt>
      <trkpt lat="48.751959968358278" lon="2.506738984957337">
        <ele>60.219999999999999</ele>
        <time>2018-07-10T06:52:46Z</time>
      </trkpt>
      <trkpt lat="48.751688981428742" lon="2.506826994940639">
        <ele>61.659999999999997</ele>
        <time>2018-07-10T06:53:03Z</time>
      </trkpt>
      <trkpt lat="48.750938968732953" lon="2.507327981293201">
        <ele>64.069999999999993</ele>
        <time>2018-07-10T06:53:10Z</time>
      </trkpt>
      <trkpt lat="48.750012014061213" lon="2.507972968742251">
        <ele>64.549999999999997</ele>
        <time>2018-07-10T06:53:19Z</time>
      </trkpt>
      <trkpt lat="48.749827025458217" lon="2.508113030344248">
        <ele>65.989999999999995</ele>
        <time>2018-07-10T06:53:22Z</time>
      </trkpt>
      <trkpt lat="48.749602977186441" lon="2.508281003683806">
        <ele>67.909999999999997</ele>
        <time>2018-07-10T06:53:27Z</time>
      </trkpt>
      <trkpt lat="48.749541034922004" lon="2.508324002847076">
        <ele>68.390000000000001</ele>
        <time>2018-07-10T06:53:28Z</time>
      </trkpt>
      <trkpt lat="48.749467022716999" lon="2.508374964818358">
        <ele>68.870000000000005</ele>
        <time>2018-07-10T06:53:29Z</time>
      </trkpt>
      <trkpt lat="48.748781969770789" lon="2.508851978927851">
        <ele>72.719999999999999</ele>
        <time>2018-07-10T06:53:37Z</time>
      </trkpt>
      <trkpt lat="48.747861972078681" lon="2.509503001347184">
        <ele>76.560000000000002</ele>
        <time>2018-07-10T06:53:46Z</time>
      </trkpt>
      <trkpt lat="48.746580965816975" lon="2.510409001260996">
        <ele>82.810000000000002</ele>
        <time>2018-07-10T06:53:56Z</time>
      </trkpt>
      <trkpt lat="48.746174024417996" lon="2.510700020939112">
        <ele>85.689999999999998</ele>
        <time>2018-07-10T06:54:00Z</time>
      </trkpt>
      <trkpt lat="48.745339019224048" lon="2.511292034760118">
        <ele>87.620000000000005</ele>
        <time>2018-07-10T06:54:09Z</time>
      </trkpt>
      <trkpt lat="48.745261989533901" lon="2.511345008388162">
        <ele>86.659999999999997</ele>
        <time>2018-07-10T06:54:10Z</time>
      </trkpt>
      <trkpt lat="48.745209015905857" lon="2.511382978409529">
        <ele>85.689999999999998</ele>
        <time>2018-07-10T06:54:11Z</time>
      </trkpt>
      <trkpt lat="48.745075995102525" lon="2.511475011706352">
        <ele>81.370000000000005</ele>
        <time>2018-07-10T06:54:18Z</time>
      </trkpt>
      <trkpt lat="48.745058979839087" lon="2.511485991999507">
        <ele>81.370000000000005</ele>
        <time>2018-07-10T06:54:51Z</time>
      </trkpt>
      <trkpt lat="48.744794027879834" lon="2.511684978380799">
        <ele>80.409999999999997</ele>
        <time>2018-07-10T06:54:57Z</time>
      </trkpt>
      <trkpt lat="48.744043009355664" lon="2.512311022728682">
        <ele>79.930000000000007</ele>
        <time>2018-07-10T06:55:04Z</time>
      </trkpt>
      <trkpt lat="48.743243040516973" lon="2.512985011562705">
        <ele>80.890000000000001</ele>
        <time>2018-07-10T06:55:11Z</time>
      </trkpt>
      <trkpt lat="48.743133991956711" lon="2.513076039031148">
        <ele>80.890000000000001</ele>
        <time>2018-07-10T06:55:12Z</time>
      </trkpt>
      <trkpt lat="48.743025027215481" lon="2.513166982680559">
        <ele>80.890000000000001</ele>
        <time>2018-07-10T06:55:13Z</time>
      </trkpt>
      <trkpt lat="48.742061024531722" lon="2.513969969004393">
        <ele>83.769999999999996</ele>
        <time>2018-07-10T06:55:21Z</time>
      </trkpt>
      <trkpt lat="48.74107195995748" lon="2.514805980026722">
        <ele>85.209999999999994</ele>
        <time>2018-07-10T06:55:29Z</time>
      </trkpt>
      <trkpt lat="48.740236032754183" lon="2.515512993559241">
        <ele>87.140000000000001</ele>
        <time>2018-07-10T06:55:36Z</time>
      </trkpt>
      <trkpt lat="48.739005988463759" lon="2.516527036204934">
        <ele>86.180000000000007</ele>
        <time>2018-07-10T06:55:45Z</time>
      </trkpt>
      <trkpt lat="48.737851968035102" lon="2.517352988943458">
        <ele>85.689999999999998</ele>
        <time>2018-07-10T06:55:53Z</time>
      </trkpt>
      <trkpt lat="48.737715007737279" lon="2.517470000311732">
        <ele>85.689999999999998</ele>
        <time>2018-07-10T06:55:54Z</time>
      </trkpt>
      <trkpt lat="48.737297002226114" lon="2.517826985567808">
        <ele>85.689999999999998</ele>
        <time>2018-07-10T06:55:57Z</time>
      </trkpt>
      <trkpt lat="48.735918011516333" lon="2.518851002678275">
        <ele>85.209999999999994</ele>
        <time>2018-07-10T06:56:07Z</time>
      </trkpt>
      <trkpt lat="48.734935987740755" lon="2.519664969295263">
        <ele>85.689999999999998</ele>
        <time>2018-07-10T06:56:16Z</time>
      </trkpt>
      <trkpt lat="48.734665000811219" lon="2.519899997860193">
        <ele>86.180000000000007</ele>
        <time>2018-07-10T06:56:22Z</time>
      </trkpt>
      <trkpt lat="48.734628036618233" lon="2.519931010901928">
        <ele>86.180000000000007</ele>
        <time>2018-07-10T06:56:23Z</time>
      </trkpt>
      <trkpt lat="48.734587971121073" lon="2.519965963438153">
        <ele>86.180000000000007</ele>
        <time>2018-07-10T06:56:24Z</time>
      </trkpt>
      <trkpt lat="48.734548995271325" lon="2.51999999396503">
        <ele>86.180000000000007</ele>
        <time>2018-07-10T06:56:25Z</time>
      </trkpt>
      <trkpt lat="48.734513958916068" lon="2.52006696537137">
        <ele>86.659999999999997</ele>
        <time>2018-07-10T06:56:26Z</time>
      </trkpt>
      <trkpt lat="48.734499961137772" lon="2.520100995898247">
        <ele>86.659999999999997</ele>
        <time>2018-07-10T06:56:27Z</time>
      </trkpt>
      <trkpt lat="48.734489986672997" lon="2.520123962312937">
        <ele>86.659999999999997</ele>
        <time>2018-07-10T06:56:28Z</time>
      </trkpt>
      <trkpt lat="48.734489986672997" lon="2.520123962312937">
        <ele>86.659999999999997</ele>
        <time>2018-07-10T06:56:37Z</time>
      </trkpt>
      <trkpt lat="48.734469031915069" lon="2.520176013931632">
        <ele>87.140000000000001</ele>
        <time>2018-07-10T06:56:38Z</time>
      </trkpt>
      <trkpt lat="48.734142975881696" lon="2.520607011392713">
        <ele>88.099999999999994</ele>
        <time>2018-07-10T06:56:43Z</time>
      </trkpt>
      <trkpt lat="48.734049014747143" lon="2.520697033032775">
        <ele>88.579999999999998</ele>
        <time>2018-07-10T06:56:44Z</time>
      </trkpt>
      <trkpt lat="48.732931036502123" lon="2.52171702682972">
        <ele>91.459999999999994</ele>
        <time>2018-07-10T06:56:54Z</time>
      </trkpt>
      <trkpt lat="48.731926968321204" lon="2.522763004526496">
        <ele>92.420000000000002</ele>
        <time>2018-07-10T06:57:02Z</time>
      </trkpt>
      <trkpt lat="48.73163796029985" lon="2.523213028907776">
        <ele>92.420000000000002</ele>
        <time>2018-07-10T06:57:07Z</time>
      </trkpt>
      <trkpt lat="48.731606025248766" lon="2.523270025849342">
        <ele>92.420000000000002</ele>
        <time>2018-07-10T06:57:10Z</time>
      </trkpt>
      <trkpt lat="48.731554979458451" lon="2.523359041661024">
        <ele>92.900000000000006</ele>
        <time>2018-07-10T06:57:23Z</time>
      </trkpt>
      <trkpt lat="48.731209980323911" lon="2.52393102273345">
        <ele>93.870000000000005</ele>
        <time>2018-07-10T06:57:30Z</time>
      </trkpt>
      <trkpt lat="48.730602962896228" lon="2.525041038170457">
        <ele>95.790000000000006</ele>
        <time>2018-07-10T06:57:38Z</time>
      </trkpt>
      <trkpt lat="48.729580035433173" lon="2.526899976655841">
        <ele>96.75</ele>
        <time>2018-07-10T06:57:51Z</time>
      </trkpt>
      <trkpt lat="48.728484017774463" lon="2.528881961479783">
        <ele>94.829999999999998</ele>
        <time>2018-07-10T06:58:05Z</time>
      </trkpt>
      <trkpt lat="48.727867025882006" lon="2.529992982745171">
        <ele>94.349999999999994</ele>
        <time>2018-07-10T06:58:14Z</time>
      </trkpt>
      <trkpt lat="48.727823020890355" lon="2.53009800799191">
        <ele>93.870000000000005</ele>
        <time>2018-07-10T06:58:15Z</time>
      </trkpt>
      <trkpt lat="48.727467963472009" lon="2.531179022043943">
        <ele>93.870000000000005</ele>
        <time>2018-07-10T06:58:25Z</time>
      </trkpt>
      <trkpt lat="48.727441979572177" lon="2.531331991776824">
        <ele>93.870000000000005</ele>
        <time>2018-07-10T06:58:26Z</time>
      </trkpt>
      <trkpt lat="48.727294960990548" lon="2.532495986670256">
        <ele>91.939999999999998</ele>
        <time>2018-07-10T06:58:32Z</time>
      </trkpt>
      <trkpt lat="48.727285992354155" lon="2.532711988314986">
        <ele>91.939999999999998</ele>
        <time>2018-07-10T06:58:33Z</time>
      </trkpt>
      <trkpt lat="48.72734198346734" lon="2.534892037510872">
        <ele>88.099999999999994</ele>
        <time>2018-07-10T06:58:44Z</time>
      </trkpt>
      <trkpt lat="48.727390011772513" lon="2.536967983469367">
        <ele>83.290000000000006</ele>
        <time>2018-07-10T06:58:55Z</time>
      </trkpt>
      <trkpt lat="48.727414989843965" lon="2.538482006639242">
        <ele>77.040000000000006</ele>
        <time>2018-07-10T06:59:04Z</time>
      </trkpt>
      <trkpt lat="48.727420018985868" lon="2.538586026057601">
        <ele>76.560000000000002</ele>
        <time>2018-07-10T06:59:05Z</time>
      </trkpt>
      <trkpt lat="48.727429993450642" lon="2.538808984681964">
        <ele>75.120000000000005</ele>
        <time>2018-07-10T06:59:08Z</time>
      </trkpt>
      <trkpt lat="48.727432005107403" lon="2.53886497579515">
        <ele>74.640000000000001</ele>
        <time>2018-07-10T06:59:09Z</time>
      </trkpt>
      <trkpt lat="48.727434016764164" lon="2.53890797495842">
        <ele>74.159999999999997</ele>
        <time>2018-07-10T06:59:10Z</time>
      </trkpt>
      <trkpt lat="48.727436028420925" lon="2.538943011313677">
        <ele>73.680000000000007</ele>
        <time>2018-07-10T06:59:11Z</time>
      </trkpt>
      <trkpt lat="48.727437034249306" lon="2.538977041840553">
        <ele>73.200000000000003</ele>
        <time>2018-07-10T06:59:12Z</time>
      </trkpt>
      <trkpt lat="48.727437034249306" lon="2.538977041840553">
        <ele>72.719999999999999</ele>
        <time>2018-07-10T06:59:22Z</time>
      </trkpt>
      <trkpt lat="48.727438040077686" lon="2.538995984941721">
        <ele>72.719999999999999</ele>
        <time>2018-07-10T06:59:32Z</time>
      </trkpt>
      <trkpt lat="48.727439967915416" lon="2.539045019075275">
        <ele>71.760000000000005</ele>
        <time>2018-07-10T06:59:33Z</time>
      </trkpt>
      <trkpt lat="48.727455977350473" lon="2.539498982951045">
        <ele>69.829999999999998</ele>
        <time>2018-07-10T06:59:37Z</time>
      </trkpt>
      <trkpt lat="48.727455977350473" lon="2.539651030674577">
        <ele>68.870000000000005</ele>
        <time>2018-07-10T06:59:38Z</time>
      </trkpt>
      <trkpt lat="48.727516997605562" lon="2.541218027472496">
        <ele>65.989999999999995</ele>
        <time>2018-07-10T06:59:46Z</time>
      </trkpt>
      <trkpt lat="48.727606013417244" lon="2.543126000091434">
        <ele>64.069999999999993</ele>
        <time>2018-07-10T06:59:55Z</time>
      </trkpt>
      <trkpt lat="48.727638032287359" lon="2.54500899463892">
        <ele>65.030000000000001</ele>
        <time>2018-07-10T07:00:03Z</time>
      </trkpt>
      <trkpt lat="48.727687988430262" lon="2.547467993572354">
        <ele>68.870000000000005</ele>
        <time>2018-07-10T07:00:12Z</time>
      </trkpt>
      <trkpt lat="48.727762000635266" lon="2.549926992505789">
        <ele>73.680000000000007</ele>
        <time>2018-07-10T07:00:21Z</time>
      </trkpt>
      <trkpt lat="48.727717995643616" lon="2.55128301680088">
        <ele>75.120000000000005</ele>
        <time>2018-07-10T07:00:26Z</time>
      </trkpt>
      <trkpt lat="48.72753300704062" lon="2.552254982292652">
        <ele>76.079999999999998</ele>
        <time>2018-07-10T07:00:30Z</time>
      </trkpt>
      <trkpt lat="48.727487996220589" lon="2.55248699337244">
        <ele>77.040000000000006</ele>
        <time>2018-07-10T07:00:31Z</time>
      </trkpt>
      <trkpt lat="48.727136040106416" lon="2.55334597080946">
        <ele>78.969999999999999</ele>
        <time>2018-07-10T07:00:35Z</time>
      </trkpt>
      <trkpt lat="48.727022968232632" lon="2.553565995767713">
        <ele>79.450000000000003</ele>
        <time>2018-07-10T07:00:36Z</time>
      </trkpt>
      <trkpt lat="48.726907968521118" lon="2.553789038211107">
        <ele>79.930000000000007</ele>
        <time>2018-07-10T07:00:37Z</time>
      </trkpt>
      <trkpt lat="48.725366033613682" lon="2.556600999087095">
        <ele>88.579999999999998</ele>
        <time>2018-07-10T07:00:50Z</time>
      </trkpt>
      <trkpt lat="48.723586974665523" lon="2.559767011553049">
        <ele>94.349999999999994</ele>
        <time>2018-07-10T07:01:04Z</time>
      </trkpt>
      <trkpt lat="48.721876982599497" lon="2.56281903013587">
        <ele>94.349999999999994</ele>
        <time>2018-07-10T07:01:18Z</time>
      </trkpt>
      <trkpt lat="48.72106896713376" lon="2.564239008352161">
        <ele>95.310000000000002</ele>
        <time>2018-07-10T07:01:27Z</time>
      </trkpt>
      <trkpt lat="48.720274027436972" lon="2.565671978518367">
        <ele>95.790000000000006</ele>
        <time>2018-07-10T07:01:39Z</time>
      </trkpt>
      <trkpt lat="48.720091972500086" lon="2.565989987924695">
        <ele>97.230000000000004</ele>
        <time>2018-07-10T07:01:45Z</time>
      </trkpt>
      <trkpt lat="48.720058025792241" lon="2.566048996523023">
        <ele>97.230000000000004</ele>
        <time>2018-07-10T07:01:56Z</time>
      </trkpt>
      <trkpt lat="48.719916958361864" lon="2.566295005381107">
        <ele>98.189999999999998</ele>
        <time>2018-07-10T07:02:11Z</time>
      </trkpt>
      <trkpt lat="48.719427036121488" lon="2.56715901196003">
        <ele>98.670000000000002</ele>
        <time>2018-07-10T07:02:19Z</time>
      </trkpt>
      <trkpt lat="48.718673000112176" lon="2.568516964092851">
        <ele>98.189999999999998</ele>
        <time>2018-07-10T07:02:29Z</time>
      </trkpt>
      <trkpt lat="48.718515001237392" lon="2.568797003477812">
        <ele>98.189999999999998</ele>
        <time>2018-07-10T07:02:31Z</time>
      </trkpt>
      <trkpt lat="48.718429002910852" lon="2.568933041766286">
        <ele>98.189999999999998</ele>
        <time>2018-07-10T07:02:32Z</time>
      </trkpt>
      <trkpt lat="48.718265974894166" lon="2.569245016202331">
        <ele>97.709999999999994</ele>
        <time>2018-07-10T07:02:34Z</time>
      </trkpt>
      <trkpt lat="48.717656023800373" lon="2.570309014990926">
        <ele>97.709999999999994</ele>
        <time>2018-07-10T07:02:42Z</time>
      </trkpt>
      <trkpt lat="48.717579999938607" lon="2.570444969460368">
        <ele>97.709999999999994</ele>
        <time>2018-07-10T07:02:43Z</time>
      </trkpt>
      <trkpt lat="48.717358969151974" lon="2.570845959708095">
        <ele>97.709999999999994</ele>
        <time>2018-07-10T07:02:46Z</time>
      </trkpt>
      <trkpt lat="48.717287974432111" lon="2.570974035188556">
        <ele>98.189999999999998</ele>
        <time>2018-07-10T07:02:47Z</time>
      </trkpt>
      <trkpt lat="48.71713500469923" lon="2.571250973269343">
        <ele>97.709999999999994</ele>
        <time>2018-07-10T07:02:49Z</time>
      </trkpt>
      <trkpt lat="48.716494962573051" lon="2.572357971221209">
        <ele>96.75</ele>
        <time>2018-07-10T07:02:58Z</time>
      </trkpt>
      <trkpt lat="48.715746961534023" lon="2.573697986081243">
        <ele>95.310000000000002</ele>
        <time>2018-07-10T07:03:09Z</time>
      </trkpt>
      <trkpt lat="48.715698011219501" lon="2.573780966922641">
        <ele>95.310000000000002</ele>
        <time>2018-07-10T07:03:10Z</time>
      </trkpt>
      <trkpt lat="48.71565300039947" lon="2.573857996612787">
        <ele>94.829999999999998</ele>
        <time>2018-07-10T07:03:11Z</time>
      </trkpt>
      <trkpt lat="48.715612012892962" lon="2.57392798550427">
        <ele>94.829999999999998</ele>
        <time>2018-07-10T07:03:12Z</time>
      </trkpt>
      <trkpt lat="48.715574964880943" lon="2.57399101741612">
        <ele>94.349999999999994</ele>
        <time>2018-07-10T07:03:13Z</time>
      </trkpt>
      <trkpt lat="48.715538000687957" lon="2.574052959680557">
        <ele>94.349999999999994</ele>
        <time>2018-07-10T07:03:14Z</time>
      </trkpt>
      <trkpt lat="48.71537497267127" lon="2.574040973559022">
        <ele>94.349999999999994</ele>
        <time>2018-07-10T07:03:15Z</time>
      </trkpt>
      <trkpt lat="48.715358041226864" lon="2.574042985215783">
        <ele>93.870000000000005</ele>
        <time>2018-07-10T07:03:16Z</time>
      </trkpt>
      <trkpt lat="48.715225020423532" lon="2.574062012135983">
        <ele>93.870000000000005</ele>
        <time>2018-07-10T07:03:17Z</time>
      </trkpt>
      <trkpt lat="48.715191995725036" lon="2.574111968278885">
        <ele>94.349999999999994</ele>
        <time>2018-07-10T07:03:18Z</time>
      </trkpt>
      <trkpt lat="48.715170035138726" lon="2.574269967153668">
        <ele>94.349999999999994</ele>
        <time>2018-07-10T07:03:19Z</time>
      </trkpt>
      <trkpt lat="48.715160982683301" lon="2.574375998228788">
        <ele>94.829999999999998</ele>
        <time>2018-07-10T07:03:20Z</time>
      </trkpt>
      <trkpt lat="48.715197024866939" lon="2.574467025697231">
        <ele>94.829999999999998</ele>
        <time>2018-07-10T07:03:21Z</time>
      </trkpt>
      <trkpt lat="48.715240024030209" lon="2.574588982388377">
        <ele>95.310000000000002</ele>
        <time>2018-07-10T07:03:22Z</time>
      </trkpt>
      <trkpt lat="48.715209010988474" lon="2.574647990986705">
        <ele>95.310000000000002</ele>
        <time>2018-07-10T07:03:23Z</time>
      </trkpt>
      <trkpt lat="48.715171040967107" lon="2.57472200319171">
        <ele>95.310000000000002</ele>
        <time>2018-07-10T07:03:24Z</time>
      </trkpt>
      <trkpt lat="48.715123012661934" lon="2.574812024831772">
        <ele>95.790000000000006</ele>
        <time>2018-07-10T07:03:25Z</time>
      </trkpt>
      <trkpt lat="48.715067021548748" lon="2.574919983744621">
        <ele>95.790000000000006</ele>
        <time>2018-07-10T07:03:26Z</time>
      </trkpt>
      <trkpt lat="48.714999966323376" lon="2.57504596374929">
        <ele>95.790000000000006</ele>
        <time>2018-07-10T07:03:27Z</time>
      </trkpt>
      <trkpt lat="48.714292030781507" lon="2.57629101164639">
        <ele>96.75</ele>
        <time>2018-07-10T07:03:34Z</time>
      </trkpt>
      <trkpt lat="48.713365998119116" lon="2.577891033142805">
        <ele>97.230000000000004</ele>
        <time>2018-07-10T07:03:43Z</time>
      </trkpt>
      <trkpt lat="48.712087003514171" lon="2.580164959654212">
        <ele>95.790000000000006</ele>
        <time>2018-07-10T07:03:56Z</time>
      </trkpt>
      <trkpt lat="48.711796989664435" lon="2.580698970705271">
        <ele>96.269999999999996</ele>
        <time>2018-07-10T07:04:01Z</time>
      </trkpt>
      <trkpt lat="48.711731024086475" lon="2.58082302287221">
        <ele>96.269999999999996</ele>
        <time>2018-07-10T07:04:09Z</time>
      </trkpt>
      <trkpt lat="48.711731024086475" lon="2.58082302287221">
        <ele>96.269999999999996</ele>
        <time>2018-07-10T07:04:40Z</time>
      </trkpt>
      <trkpt lat="48.711542012169957" lon="2.581171039491892">
        <ele>98.189999999999998</ele>
        <time>2018-07-10T07:04:54Z</time>
      </trkpt>
      <trkpt lat="48.711431035771966" lon="2.581372037529945">
        <ele>98.189999999999998</ele>
        <time>2018-07-10T07:04:56Z</time>
      </trkpt>
      <trkpt lat="48.710928959771991" lon="2.582278959453106">
        <ele>98.189999999999998</ele>
        <time>2018-07-10T07:05:01Z</time>
      </trkpt>
      <trkpt lat="48.709578970447183" lon="2.584709040820599">
        <ele>97.709999999999994</ele>
        <time>2018-07-10T07:05:13Z</time>
      </trkpt>
      <trkpt lat="48.70920698158443" lon="2.585339024662972">
        <ele>97.709999999999994</ele>
        <time>2018-07-10T07:05:17Z</time>
      </trkpt>
      <trkpt lat="48.708911016583443" lon="2.585472967475653">
        <ele>98.189999999999998</ele>
        <time>2018-07-10T07:05:19Z</time>
      </trkpt>
      <trkpt lat="48.708869023248553" lon="2.58561403490603">
        <ele>98.189999999999998</ele>
        <time>2018-07-10T07:05:20Z</time>
      </trkpt>
      <trkpt lat="48.708852007985115" lon="2.585671031847596">
        <ele>98.189999999999998</ele>
        <time>2018-07-10T07:05:21Z</time>
      </trkpt>
      <trkpt lat="48.708853013813496" lon="2.586019970476627">
        <ele>98.189999999999998</ele>
        <time>2018-07-10T07:05:22Z</time>
      </trkpt>
      <trkpt lat="48.70875796303153" lon="2.586187021806836">
        <ele>98.189999999999998</ele>
        <time>2018-07-10T07:05:23Z</time>
      </trkpt>
      <trkpt lat="48.7086489982903" lon="2.586373016238213">
        <ele>98.189999999999998</ele>
        <time>2018-07-10T07:05:24Z</time>
      </trkpt>
      <trkpt lat="48.707451978698373" lon="2.588439993560314">
        <ele>98.189999999999998</ele>
        <time>2018-07-10T07:05:34Z</time>
      </trkpt>
      <trkpt lat="48.705650037154555" lon="2.591646993532777">
        <ele>97.709999999999994</ele>
        <time>2018-07-10T07:05:48Z</time>
      </trkpt>
      <trkpt lat="48.704371964558959" lon="2.593942964449525">
        <ele>96.75</ele>
        <time>2018-07-10T07:05:59Z</time>
      </trkpt>
      <trkpt lat="48.703945996239781" lon="2.594496002420783">
        <ele>96.269999999999996</ele>
        <time>2018-07-10T07:06:04Z</time>
      </trkpt>
      <trkpt lat="48.703873995691538" lon="2.59457596577704">
        <ele>96.269999999999996</ele>
        <time>2018-07-10T07:06:05Z</time>
      </trkpt>
      <trkpt lat="48.703753966838121" lon="2.59466003626585">
        <ele>96.269999999999996</ele>
        <time>2018-07-10T07:06:07Z</time>
      </trkpt>
      <trkpt lat="48.703656988218427" lon="2.594736982136965">
        <ele>96.269999999999996</ele>
        <time>2018-07-10T07:06:08Z</time>
      </trkpt>
      <trkpt lat="48.703627986833453" lon="2.594862040132284">
        <ele>96.75</ele>
        <time>2018-07-10T07:06:09Z</time>
      </trkpt>
      <trkpt lat="48.703596973791718" lon="2.594995982944965">
        <ele>96.75</ele>
        <time>2018-07-10T07:06:10Z</time>
      </trkpt>
      <trkpt lat="48.703554980456829" lon="2.595130009576678">
        <ele>96.75</ele>
        <time>2018-07-10T07:06:11Z</time>
      </trkpt>
      <trkpt lat="48.703504018485546" lon="2.595285996794701">
        <ele>96.75</ele>
        <time>2018-07-10T07:06:12Z</time>
      </trkpt>
      <trkpt lat="48.703450039029121" lon="2.595455981791019">
        <ele>96.75</ele>
        <time>2018-07-10T07:06:13Z</time>
      </trkpt>
      <trkpt lat="48.703379966318607" lon="2.595669971778989">
        <ele>96.269999999999996</ele>
        <time>2018-07-10T07:06:14Z</time>
      </trkpt>
      <trkpt lat="48.703314000740647" lon="2.595794023945928">
        <ele>96.269999999999996</ele>
        <time>2018-07-10T07:06:15Z</time>
      </trkpt>
      <trkpt lat="48.70323596522212" lon="2.595940036699176">
        <ele>96.269999999999996</ele>
        <time>2018-07-10T07:06:16Z</time>
      </trkpt>
      <trkpt lat="48.703162036836147" lon="2.596084959805012">
        <ele>96.269999999999996</ele>
        <time>2018-07-10T07:06:17Z</time>
      </trkpt>
      <trkpt lat="48.703076960518956" lon="2.59622803889215">
        <ele>96.269999999999996</ele>
        <time>2018-07-10T07:06:18Z</time>
      </trkpt>
      <trkpt lat="48.702615033835173" lon="2.597037982195616">
        <ele>97.230000000000004</ele>
        <time>2018-07-10T07:06:25Z</time>
      </trkpt>
      <trkpt lat="48.702478995546699" lon="2.597021972760558">
        <ele>97.230000000000004</ele>
        <time>2018-07-10T07:06:26Z</time>
      </trkpt>
      <trkpt lat="48.702426021918654" lon="2.597043011337519">
        <ele>96.75</ele>
        <time>2018-07-10T07:06:27Z</time>
      </trkpt>
      <trkpt lat="48.702338011935353" lon="2.597139989957213">
        <ele>96.75</ele>
        <time>2018-07-10T07:06:28Z</time>
      </trkpt>
      <trkpt lat="48.702295012772083" lon="2.597237974405289">
        <ele>96.269999999999996</ele>
        <time>2018-07-10T07:06:29Z</time>
      </trkpt>
      <trkpt lat="48.702285960316658" lon="2.597430003806949">
        <ele>96.269999999999996</ele>
        <time>2018-07-10T07:06:30Z</time>
      </trkpt>
      <trkpt lat="48.702261988073587" lon="2.597523964941502">
        <ele>96.75</ele>
        <time>2018-07-10T07:06:31Z</time>
      </trkpt>
      <trkpt lat="48.702221000567079" lon="2.597686992958188">
        <ele>96.269999999999996</ele>
        <time>2018-07-10T07:06:32Z</time>
      </trkpt>
      <trkpt lat="48.702147994190454" lon="2.59779998101294">
        <ele>96.269999999999996</ele>
        <time>2018-07-10T07:06:33Z</time>
      </trkpt>
      <trkpt lat="48.702066019177437" lon="2.59792797267437">
        <ele>96.269999999999996</ele>
        <time>2018-07-10T07:06:34Z</time>
      </trkpt>
      <trkpt lat="48.70132396928966" lon="2.599288020282984">
        <ele>95.790000000000006</ele>
        <time>2018-07-10T07:06:44Z</time>
      </trkpt>
      <trkpt lat="48.700584014877677" lon="2.600725013762713">
        <ele>95.310000000000002</ele>
        <time>2018-07-10T07:06:55Z</time>
      </trkpt>
      <trkpt lat="48.700145976617932" lon="2.601516013965011">
        <ele>94.829999999999998</ele>
        <time>2018-07-10T07:07:04Z</time>
      </trkpt>
      <trkpt lat="48.70003298856318" lon="2.601528000086546">
        <ele>94.829999999999998</ele>
        <time>2018-07-10T07:07:06Z</time>
      </trkpt>
      <trkpt lat="48.700018990784883" lon="2.601581979542971">
        <ele>94.829999999999998</ele>
        <time>2018-07-10T07:07:07Z</time>
      </trkpt>
      <trkpt lat="48.699999041855335" lon="2.60166403837502">
        <ele>94.829999999999998</ele>
        <time>2018-07-10T07:07:08Z</time>
      </trkpt>
      <trkpt lat="48.699953025206923" lon="2.601774008944631">
        <ele>95.310000000000002</ele>
        <time>2018-07-10T07:07:09Z</time>
      </trkpt>
      <trkpt lat="48.699897034093738" lon="2.601885991171002">
        <ele>95.790000000000006</ele>
        <time>2018-07-10T07:07:10Z</time>
      </trkpt>
      <trkpt lat="48.699835008010268" lon="2.60200995951891">
        <ele>95.790000000000006</ele>
        <time>2018-07-10T07:07:11Z</time>
      </trkpt>
      <trkpt lat="48.699120031669736" lon="2.603292977437377">
        <ele>94.829999999999998</ele>
        <time>2018-07-10T07:07:20Z</time>
      </trkpt>
      <trkpt lat="48.698598006740212" lon="2.604195959866047">
        <ele>92.420000000000002</ele>
        <time>2018-07-10T07:07:28Z</time>
      </trkpt>
      <trkpt lat="48.69839902035892" lon="2.604550011456013">
        <ele>92.420000000000002</ele>
        <time>2018-07-10T07:07:32Z</time>
      </trkpt>
      <trkpt lat="48.698346968740225" lon="2.604641038924456">
        <ele>92.420000000000002</ele>
        <time>2018-07-10T07:07:33Z</time>
      </trkpt>
      <trkpt lat="48.698301035910845" lon="2.604723013937473">
        <ele>91.939999999999998</ele>
        <time>2018-07-10T07:07:34Z</time>
      </trkpt>
      <trkpt lat="48.698168015107512" lon="2.604960976168513">
        <ele>90.980000000000004</ele>
        <time>2018-07-10T07:07:37Z</time>
      </trkpt>
      <trkpt lat="48.698128033429384" lon="2.605031970888376">
        <ele>90.5</ele>
        <time>2018-07-10T07:07:38Z</time>
      </trkpt>
      <trkpt lat="48.698020996525884" lon="2.605225006118417">
        <ele>89.540000000000006</ele>
        <time>2018-07-10T07:07:41Z</time>
      </trkpt>
      <trkpt lat="48.697993000969291" lon="2.60527697391808">
        <ele>89.540000000000006</ele>
        <time>2018-07-10T07:07:42Z</time>
      </trkpt>
      <trkpt lat="48.697957964614034" lon="2.605342017486692">
        <ele>89.060000000000002</ele>
        <time>2018-07-10T07:07:43Z</time>
      </trkpt>
      <trkpt lat="48.697568038478494" lon="2.606030004099011">
        <ele>88.099999999999994</ele>
        <time>2018-07-10T07:07:51Z</time>
      </trkpt>
      <trkpt lat="48.697507018223405" lon="2.606121031567454">
        <ele>88.099999999999994</ele>
        <time>2018-07-10T07:07:52Z</time>
      </trkpt>
      <trkpt lat="48.696900000795722" lon="2.6069700345397">
        <ele>89.060000000000002</ele>
        <time>2018-07-10T07:08:03Z</time>
      </trkpt>
      <trkpt lat="48.696792963892221" lon="2.607106994837523">
        <ele>88.579999999999998</ele>
        <time>2018-07-10T07:08:06Z</time>
      </trkpt>
      <trkpt lat="48.69670101441443" lon="2.607223000377417">
        <ele>88.579999999999998</ele>
        <time>2018-07-10T07:08:08Z</time>
      </trkpt>
      <trkpt lat="48.696623984724283" lon="2.607345962896943">
        <ele>89.060000000000002</ele>
        <time>2018-07-10T07:08:10Z</time>
      </trkpt>
      <trkpt lat="48.696575034409761" lon="2.607417041435838">
        <ele>89.060000000000002</ele>
        <time>2018-07-10T07:08:11Z</time>
      </trkpt>
      <trkpt lat="48.696515019983053" lon="2.607490969821811">
        <ele>89.060000000000002</ele>
        <time>2018-07-10T07:08:12Z</time>
      </trkpt>
      <trkpt lat="48.695933986455202" lon="2.608222961425781">
        <ele>92.420000000000002</ele>
        <time>2018-07-10T07:08:21Z</time>
      </trkpt>
      <trkpt lat="48.695849999785423" lon="2.608378026634455">
        <ele>93.390000000000001</ele>
        <time>2018-07-10T07:08:22Z</time>
      </trkpt>
      <trkpt lat="48.695471975952387" lon="2.608841964974999">
        <ele>93.870000000000005</ele>
        <time>2018-07-10T07:08:28Z</time>
      </trkpt>
      <trkpt lat="48.695060005411506" lon="2.609349992126226">
        <ele>91.939999999999998</ele>
        <time>2018-07-10T07:08:35Z</time>
      </trkpt>
      <trkpt lat="48.694998985156417" lon="2.609424004331231">
        <ele>91.459999999999994</ele>
        <time>2018-07-10T07:08:36Z</time>
      </trkpt>
      <trkpt lat="48.694441001862288" lon="2.610107967630029">
        <ele>89.060000000000002</ele>
        <time>2018-07-10T07:08:45Z</time>
      </trkpt>
      <trkpt lat="48.694391967728734" lon="2.610166976228356">
        <ele>89.060000000000002</ele>
        <time>2018-07-10T07:08:46Z</time>
      </trkpt>
      <trkpt lat="48.694303035736084" lon="2.610154990106821">
        <ele>89.060000000000002</ele>
        <time>2018-07-10T07:08:47Z</time>
      </trkpt>
      <trkpt lat="48.694260958582163" lon="2.610219027847052">
        <ele>89.060000000000002</ele>
        <time>2018-07-10T07:08:48Z</time>
      </trkpt>
      <trkpt lat="48.694260958582163" lon="2.610219027847052">
        <ele>89.060000000000002</ele>
        <time>2018-07-10T07:08:49Z</time>
      </trkpt>
      <trkpt lat="48.69418703019619" lon="2.610399993136525">
        <ele>89.060000000000002</ele>
        <time>2018-07-10T07:08:50Z</time>
      </trkpt>
      <trkpt lat="48.694129027426243" lon="2.61047400534153">
        <ele>89.060000000000002</ele>
        <time>2018-07-10T07:08:51Z</time>
      </trkpt>
      <trkpt lat="48.694068007171154" lon="2.610552962869406">
        <ele>88.579999999999998</ele>
        <time>2018-07-10T07:08:52Z</time>
      </trkpt>
      <trkpt lat="48.694007992744446" lon="2.610630998387933">
        <ele>88.099999999999994</ele>
        <time>2018-07-10T07:08:53Z</time>
      </trkpt>
      <trkpt lat="48.69395200163126" lon="2.610702998936176">
        <ele>87.620000000000005</ele>
        <time>2018-07-10T07:08:54Z</time>
      </trkpt>
      <trkpt lat="48.693610019981861" lon="2.611131984740496">
        <ele>85.689999999999998</ele>
        <time>2018-07-10T07:09:00Z</time>
      </trkpt>
      <trkpt lat="48.692830000072718" lon="2.611847966909409">
        <ele>82.810000000000002</ele>
        <time>2018-07-10T07:09:12Z</time>
      </trkpt>
      <trkpt lat="48.692716006189585" lon="2.61195701546967">
        <ele>82.810000000000002</ele>
        <time>2018-07-10T07:09:14Z</time>
      </trkpt>
      <trkpt lat="48.69195300154388" lon="2.612676015123725">
        <ele>83.769999999999996</ele>
        <time>2018-07-10T07:09:26Z</time>
      </trkpt>
      <trkpt lat="48.691714033484459" lon="2.612887993454933">
        <ele>84.730000000000004</ele>
        <time>2018-07-10T07:09:30Z</time>
      </trkpt>
      <trkpt lat="48.691654019057751" lon="2.612939961254597">
        <ele>85.689999999999998</ele>
        <time>2018-07-10T07:09:31Z</time>
      </trkpt>
      <trkpt lat="48.691595010459423" lon="2.612991007044911">
        <ele>86.659999999999997</ele>
        <time>2018-07-10T07:09:32Z</time>
      </trkpt>
      <trkpt lat="48.691538013517857" lon="2.613041969016194">
        <ele>87.140000000000001</ele>
        <time>2018-07-10T07:09:33Z</time>
      </trkpt>
      <trkpt lat="48.691482022404671" lon="2.613092008978128">
        <ele>87.140000000000001</ele>
        <time>2018-07-10T07:09:34Z</time>
      </trkpt>
      <trkpt lat="48.691010037437081" lon="2.613518983125687">
        <ele>89.540000000000006</ele>
        <time>2018-07-10T07:09:43Z</time>
      </trkpt>
      <trkpt lat="48.690905012190342" lon="2.613617973402143">
        <ele>90.019999999999996</ele>
        <time>2018-07-10T07:09:45Z</time>
      </trkpt>
      <trkpt lat="48.690852038562298" lon="2.613677987828851">
        <ele>90.5</ele>
        <time>2018-07-10T07:09:46Z</time>
      </trkpt>
      <trkpt lat="48.690612986683846" lon="2.613960960879922">
        <ele>91.939999999999998</ele>
        <time>2018-07-10T07:09:50Z</time>
      </trkpt>
      <trkpt lat="48.690502010285854" lon="2.614120971411467">
        <ele>92.900000000000006</ele>
        <time>2018-07-10T07:09:52Z</time>
      </trkpt>
      <trkpt lat="48.690449958667159" lon="2.614215016365051">
        <ele>92.900000000000006</ele>
        <time>2018-07-10T07:09:53Z</time>
      </trkpt>
      <trkpt lat="48.689641021192074" lon="2.615533992648125">
        <ele>91.459999999999994</ele>
        <time>2018-07-10T07:10:08Z</time>
      </trkpt>
      <trkpt lat="48.688939036801457" lon="2.616616012528539">
        <ele>90.5</ele>
        <time>2018-07-10T07:10:20Z</time>
      </trkpt>
      <trkpt lat="48.688874999061227" lon="2.616720031946898">
        <ele>90.980000000000004</ele>
        <time>2018-07-10T07:10:21Z</time>
      </trkpt>
      <trkpt lat="48.688567969948053" lon="2.617216994985938">
        <ele>92.420000000000002</ele>
        <time>2018-07-10T07:10:27Z</time>
      </trkpt>
      <trkpt lat="48.687861040234566" lon="2.618285017088056">
        <ele>94.349999999999994</ele>
        <time>2018-07-10T07:10:39Z</time>
      </trkpt>
      <trkpt lat="48.687802031636238" lon="2.618372021242976">
        <ele>94.349999999999994</ele>
        <time>2018-07-10T07:10:40Z</time>
      </trkpt>
      <trkpt lat="48.687746962532401" lon="2.618455002084374">
        <ele>94.349999999999994</ele>
        <time>2018-07-10T07:10:41Z</time>
      </trkpt>
      <trkpt lat="48.687691977247596" lon="2.618542006239295">
        <ele>94.349999999999994</ele>
        <time>2018-07-10T07:10:42Z</time>
      </trkpt>
      <trkpt lat="48.687211023643613" lon="2.619558982551098">
        <ele>96.269999999999996</ele>
        <time>2018-07-10T07:10:51Z</time>
      </trkpt>
      <trkpt lat="48.687166012823582" lon="2.619718993082643">
        <ele>96.75</ele>
        <time>2018-07-10T07:10:52Z</time>
      </trkpt>
      <trkpt lat="48.687061993405223" lon="2.620081007480621">
        <ele>97.709999999999994</ele>
        <time>2018-07-10T07:10:54Z</time>
      </trkpt>
      <trkpt lat="48.686567964032292" lon="2.622234988957644">
        <ele>99.629999999999995</ele>
        <time>2018-07-10T07:11:03Z</time>
      </trkpt>
      <trkpt lat="48.686206033453345" lon="2.623815983533859">
        <ele>99.629999999999995</ele>
        <time>2018-07-10T07:11:10Z</time>
      </trkpt>
      <trkpt lat="48.685721978545189" lon="2.626071972772479">
        <ele>100.11</ele>
        <time>2018-07-10T07:11:22Z</time>
      </trkpt>
      <trkpt lat="48.685272037982941" lon="2.628033002838492">
        <ele>99.629999999999995</ele>
        <time>2018-07-10T07:11:31Z</time>
      </trkpt>
      <trkpt lat="48.684698967263103" lon="2.630680007860065">
        <ele>99.629999999999995</ele>
        <time>2018-07-10T07:11:41Z</time>
      </trkpt>
      <trkpt lat="48.684024978429079" lon="2.633776031434536">
        <ele>99.150000000000006</ele>
        <time>2018-07-10T07:11:52Z</time>
      </trkpt>
      <trkpt lat="48.683742005378008" lon="2.635073969140649">
        <ele>98.670000000000002</ele>
        <time>2018-07-10T07:11:58Z</time>
      </trkpt>
      <trkpt lat="48.683624994009733" lon="2.635170025750995">
        <ele>98.670000000000002</ele>
        <time>2018-07-10T07:11:59Z</time>
      </trkpt>
      <trkpt lat="48.683489039540291" lon="2.635195003822446">
        <ele>98.189999999999998</ele>
        <time>2018-07-10T07:12:00Z</time>
      </trkpt>
      <trkpt lat="48.683434976264834" lon="2.635276978835464">
        <ele>98.189999999999998</ele>
        <time>2018-07-10T07:12:01Z</time>
      </trkpt>
      <trkpt lat="48.683390971273184" lon="2.635443024337292">
        <ele>98.670000000000002</ele>
        <time>2018-07-10T07:12:02Z</time>
      </trkpt>
      <trkpt lat="48.68338200263679" lon="2.635538997128606">
        <ele>98.670000000000002</ele>
        <time>2018-07-10T07:12:03Z</time>
      </trkpt>
      <trkpt lat="48.683418966829777" lon="2.63569800183177">
        <ele>98.670000000000002</ele>
        <time>2018-07-10T07:12:04Z</time>
      </trkpt>
      <trkpt lat="48.68344796821475" lon="2.635819958522916">
        <ele>98.189999999999998</ele>
        <time>2018-07-10T07:12:05Z</time>
      </trkpt>
      <trkpt lat="48.683464983478189" lon="2.635964965447784">
        <ele>98.189999999999998</ele>
        <time>2018-07-10T07:12:06Z</time>
      </trkpt>
      <trkpt lat="48.683459032326937" lon="2.636103015393019">
        <ele>97.709999999999994</ele>
        <time>2018-07-10T07:12:07Z</time>
      </trkpt>
      <trkpt lat="48.683452997356653" lon="2.636260008439422">
        <ele>97.709999999999994</ele>
        <time>2018-07-10T07:12:08Z</time>
      </trkpt>
      <trkpt lat="48.683441011235118" lon="2.636438040062785">
        <ele>97.230000000000004</ele>
        <time>2018-07-10T07:12:09Z</time>
      </trkpt>
      <trkpt lat="48.683399017900229" lon="2.63662101700902">
        <ele>97.230000000000004</ele>
        <time>2018-07-10T07:12:10Z</time>
      </trkpt>
      <trkpt lat="48.682967014610767" lon="2.638494959101081">
        <ele>96.75</ele>
        <time>2018-07-10T07:12:19Z</time>
      </trkpt>
      <trkpt lat="48.682193029671907" lon="2.641980992630124">
        <ele>89.060000000000002</ele>
        <time>2018-07-10T07:12:35Z</time>
      </trkpt>
      <trkpt lat="48.681729007512331" lon="2.64399298466742">
        <ele>81.849999999999994</ele>
        <time>2018-07-10T07:12:45Z</time>
      </trkpt>
      <trkpt lat="48.681311002001166" lon="2.645832980051637">
        <ele>76.079999999999998</ele>
        <time>2018-07-10T07:12:54Z</time>
      </trkpt>
      <trkpt lat="48.680918980389833" lon="2.647598963230848">
        <ele>73.680000000000007</ele>
        <time>2018-07-10T07:13:01Z</time>
      </trkpt>
      <trkpt lat="48.680336019024253" lon="2.650233982130885">
        <ele>76.079999999999998</ele>
        <time>2018-07-10T07:13:11Z</time>
      </trkpt>
      <trkpt lat="48.679979033768177" lon="2.651843978092074">
        <ele>80.409999999999997</ele>
        <time>2018-07-10T07:13:17Z</time>
      </trkpt>
      <trkpt lat="48.679664963856339" lon="2.65323000960052">
        <ele>85.209999999999994</ele>
        <time>2018-07-10T07:13:22Z</time>
      </trkpt>
      <trkpt lat="48.67960000410676" lon="2.65350803732872">
        <ele>86.180000000000007</ele>
        <time>2018-07-10T07:13:23Z</time>
      </trkpt>
      <trkpt lat="48.678911011666059" lon="2.656412031501532">
        <ele>92.900000000000006</ele>
        <time>2018-07-10T07:13:34Z</time>
      </trkpt>
      <trkpt lat="48.67850499227643" lon="2.658293014392257">
        <ele>94.349999999999994</ele>
        <time>2018-07-10T07:13:44Z</time>
      </trkpt>
      <trkpt lat="48.677784986793995" lon="2.661547036841512">
        <ele>99.629999999999995</ele>
        <time>2018-07-10T07:14:00Z</time>
      </trkpt>
      <trkpt lat="48.676921986043453" lon="2.665449986234307">
        <ele>103</ele>
        <time>2018-07-10T07:14:18Z</time>
      </trkpt>
      <trkpt lat="48.676289990544319" lon="2.668461017310619">
        <ele>102.04000000000001</ele>
        <time>2018-07-10T07:14:29Z</time>
      </trkpt>
      <trkpt lat="48.675742987543344" lon="2.670949017629027">
        <ele>102.04000000000001</ele>
        <time>2018-07-10T07:14:38Z</time>
      </trkpt>
      <trkpt lat="48.675300003960729" lon="2.672961009666324">
        <ele>103</ele>
        <time>2018-07-10T07:14:44Z</time>
      </trkpt>
      <trkpt lat="48.674693992361426" lon="2.675675991922617">
        <ele>102.04000000000001</ele>
        <time>2018-07-10T07:14:54Z</time>
      </trkpt>
      <trkpt lat="48.674018997699022" lon="2.678756006062031">
        <ele>98.670000000000002</ele>
        <time>2018-07-10T07:15:07Z</time>
      </trkpt>
      <trkpt lat="48.673437964171171" lon="2.681183991953731">
        <ele>95.790000000000006</ele>
        <time>2018-07-10T07:15:18Z</time>
      </trkpt>
      <trkpt lat="48.673221962526441" lon="2.681874996051192">
        <ele>94.829999999999998</ele>
        <time>2018-07-10T07:15:22Z</time>
      </trkpt>
      <trkpt lat="48.673162031918764" lon="2.681983038783073">
        <ele>94.829999999999998</ele>
        <time>2018-07-10T07:15:23Z</time>
      </trkpt>
      <trkpt lat="48.673069998621941" lon="2.682017991319299">
        <ele>94.829999999999998</ele>
        <time>2018-07-10T07:15:24Z</time>
      </trkpt>
      <trkpt lat="48.672968996688724" lon="2.682073982432485">
        <ele>94.829999999999998</ele>
        <time>2018-07-10T07:15:25Z</time>
      </trkpt>
      <trkpt lat="48.672884004190564" lon="2.682198034599423">
        <ele>94.829999999999998</ele>
        <time>2018-07-10T07:15:26Z</time>
      </trkpt>
      <trkpt lat="48.672846034169197" lon="2.682272968813777">
        <ele>95.310000000000002</ele>
        <time>2018-07-10T07:15:27Z</time>
      </trkpt>
      <trkpt lat="48.672820972278714" lon="2.682500034570694">
        <ele>95.310000000000002</ele>
        <time>2018-07-10T07:15:28Z</time>
      </trkpt>
      <trkpt lat="48.672815021127462" lon="2.682688962668181">
        <ele>95.310000000000002</ele>
        <time>2018-07-10T07:15:29Z</time>
      </trkpt>
      <trkpt lat="48.672871012240648" lon="2.682822989299893">
        <ele>95.310000000000002</ele>
        <time>2018-07-10T07:15:30Z</time>
      </trkpt>
      <trkpt lat="48.672918034717441" lon="2.682970007881522">
        <ele>94.829999999999998</ele>
        <time>2018-07-10T07:15:31Z</time>
      </trkpt>
      <trkpt lat="48.672944018617272" lon="2.683136975392699">
        <ele>94.829999999999998</ele>
        <time>2018-07-10T07:15:32Z</time>
      </trkpt>
      <trkpt lat="48.672934966161847" lon="2.68328801728785">
        <ele>94.349999999999994</ele>
        <time>2018-07-10T07:15:33Z</time>
      </trkpt>
      <trkpt lat="48.672901019454002" lon="2.683463031426072">
        <ele>94.349999999999994</ele>
        <time>2018-07-10T07:15:34Z</time>
      </trkpt>
      <trkpt lat="48.672863971441984" lon="2.68365103751421">
        <ele>94.349999999999994</ele>
        <time>2018-07-10T07:15:35Z</time>
      </trkpt>
      <trkpt lat="48.672823989763856" lon="2.683853041380644">
        <ele>93.870000000000005</ele>
        <time>2018-07-10T07:15:36Z</time>
      </trkpt>
      <trkpt lat="48.672410007566214" lon="2.685977015644312">
        <ele>94.349999999999994</ele>
        <time>2018-07-10T07:15:45Z</time>
      </trkpt>
      <trkpt lat="48.671785974875093" lon="2.688873969018459">
        <ele>92.420000000000002</ele>
        <time>2018-07-10T07:15:57Z</time>
      </trkpt>
      <trkpt lat="48.671378027647734" lon="2.69076400436461">
        <ele>91.939999999999998</ele>
        <time>2018-07-10T07:16:06Z</time>
      </trkpt>
      <trkpt lat="48.6711760237813" lon="2.691634967923164">
        <ele>91.459999999999994</ele>
        <time>2018-07-10T07:16:13Z</time>
      </trkpt>
      <trkpt lat="48.671159008517861" lon="2.691705040633678">
        <ele>91.459999999999994</ele>
        <time>2018-07-10T07:16:14Z</time>
      </trkpt>
      <trkpt lat="48.671098994091153" lon="2.691944008693099">
        <ele>91.459999999999994</ele>
        <time>2018-07-10T07:16:23Z</time>
      </trkpt>
      <trkpt lat="48.671051971614361" lon="2.692136960104108">
        <ele>91.459999999999994</ele>
        <time>2018-07-10T07:16:41Z</time>
      </trkpt>
      <trkpt lat="48.670958010479808" lon="2.692529987543821">
        <ele>91.459999999999994</ele>
        <time>2018-07-10T07:16:51Z</time>
      </trkpt>
      <trkpt lat="48.670851979404688" lon="2.69295402802527">
        <ele>91.459999999999994</ele>
        <time>2018-07-10T07:16:55Z</time>
      </trkpt>
      <trkpt lat="48.670828007161617" lon="2.693047989159823">
        <ele>91.459999999999994</ele>
        <time>2018-07-10T07:16:56Z</time>
      </trkpt>
      <trkpt lat="48.670805962756276" lon="2.693137004971504">
        <ele>91.459999999999994</ele>
        <time>2018-07-10T07:16:57Z</time>
      </trkpt>
      <trkpt lat="48.670763969421387" lon="2.693302966654301">
        <ele>91.939999999999998</ele>
        <time>2018-07-10T07:16:59Z</time>
      </trkpt>
      <trkpt lat="48.670698003843427" lon="2.693570014089346">
        <ele>91.459999999999994</ele>
        <time>2018-07-10T07:17:06Z</time>
      </trkpt>
      <trkpt lat="48.670692974701524" lon="2.693590968847275">
        <ele>91.459999999999994</ele>
        <time>2018-07-10T07:17:07Z</time>
      </trkpt>
      <trkpt lat="48.670692974701524" lon="2.693590968847275">
        <ele>91.459999999999994</ele>
        <time>2018-07-10T07:17:08Z</time>
      </trkpt>
      <trkpt lat="48.670692974701524" lon="2.693590968847275">
        <ele>90.980000000000004</ele>
        <time>2018-07-10T07:17:28Z</time>
      </trkpt>
      <trkpt lat="48.670687023550272" lon="2.693618964403868">
        <ele>90.980000000000004</ele>
        <time>2018-07-10T07:17:44Z</time>
      </trkpt>
      <trkpt lat="48.670568000525236" lon="2.694162027910352">
        <ele>91.939999999999998</ele>
        <time>2018-07-10T07:17:50Z</time>
      </trkpt>
      <trkpt lat="48.670457024127245" lon="2.694665025919676">
        <ele>91.939999999999998</ele>
        <time>2018-07-10T07:17:55Z</time>
      </trkpt>
      <trkpt lat="48.670326014980674" lon="2.695138016715646">
        <ele>91.939999999999998</ele>
        <time>2018-07-10T07:17:59Z</time>
      </trkpt>
      <trkpt lat="48.669945979490876" lon="2.696146024391055">
        <ele>93.390000000000001</ele>
        <time>2018-07-10T07:18:08Z</time>
      </trkpt>
      <trkpt lat="48.669322030618787" lon="2.69766298122704">
        <ele>91.939999999999998</ele>
        <time>2018-07-10T07:18:19Z</time>
      </trkpt>
      <trkpt lat="48.668699003756046" lon="2.699413038790226">
        <ele>89.540000000000006</ele>
        <time>2018-07-10T07:18:30Z</time>
      </trkpt>
      <trkpt lat="48.668113024905324" lon="2.701070979237557">
        <ele>90.019999999999996</ele>
        <time>2018-07-10T07:18:39Z</time>
      </trkpt>
      <trkpt lat="48.666913993656635" lon="2.704352997243404">
        <ele>93.390000000000001</ele>
        <time>2018-07-10T07:18:54Z</time>
      </trkpt>
      <trkpt lat="48.666053004562855" lon="2.706772014498711">
        <ele>100.11</ele>
        <time>2018-07-10T07:19:04Z</time>
      </trkpt>
      <trkpt lat="48.665182963013649" lon="2.709246017038822">
        <ele>103.95999999999999</ele>
        <time>2018-07-10T07:19:13Z</time>
      </trkpt>
      <trkpt lat="48.665100988000631" lon="2.709482973441482">
        <ele>103.95999999999999</ele>
        <time>2018-07-10T07:19:14Z</time>
      </trkpt>
      <trkpt lat="48.665037034079432" lon="2.709761001169682">
        <ele>103.95999999999999</ele>
        <time>2018-07-10T07:19:15Z</time>
      </trkpt>
      <trkpt lat="48.664598995819688" lon="2.712011961266398">
        <ele>103</ele>
        <time>2018-07-10T07:19:22Z</time>
      </trkpt>
      <trkpt lat="48.663725014775991" lon="2.716537015512586">
        <ele>101.08</ele>
        <time>2018-07-10T07:19:37Z</time>
      </trkpt>
      <trkpt lat="48.662641989067197" lon="2.722248025238514">
        <ele>102.52</ele>
        <time>2018-07-10T07:19:56Z</time>
      </trkpt>
      <trkpt lat="48.662061039358377" lon="2.72529099136591">
        <ele>102.52</ele>
        <time>2018-07-10T07:20:07Z</time>
      </trkpt>
      <trkpt lat="48.661256041377783" lon="2.729489989578724">
        <ele>101.56</ele>
        <time>2018-07-10T07:20:21Z</time>
      </trkpt>
      <trkpt lat="48.660234035924077" lon="2.734777964651585">
        <ele>101.56</ele>
        <time>2018-07-10T07:20:39Z</time>
      </trkpt>
      <trkpt lat="48.659409005194902" lon="2.739033037796617">
        <ele>103.48</ele>
        <time>2018-07-10T07:20:53Z</time>
      </trkpt>
      <trkpt lat="48.658874994143844" lon="2.741777021437883">
        <ele>103.95999999999999</ele>
        <time>2018-07-10T07:21:03Z</time>
      </trkpt>
      <trkpt lat="48.658626973628998" lon="2.743087029084563">
        <ele>103.48</ele>
        <time>2018-07-10T07:21:10Z</time>
      </trkpt>
      <trkpt lat="48.65824400447309" lon="2.74512198753655">
        <ele>101.56</ele>
        <time>2018-07-10T07:21:17Z</time>
      </trkpt>
      <trkpt lat="48.657638998702168" lon="2.748188003897667">
        <ele>100.11</ele>
        <time>2018-07-10T07:21:28Z</time>
      </trkpt>
      <trkpt lat="48.657399024814367" lon="2.749494994059205">
        <ele>98.189999999999998</ele>
        <time>2018-07-10T07:21:34Z</time>
      </trkpt>
      <trkpt lat="48.65695402957499" lon="2.751850979402661">
        <ele>95.310000000000002</ele>
        <time>2018-07-10T07:21:47Z</time>
      </trkpt>
      <trkpt lat="48.656432004645467" lon="2.754432018846273">
        <ele>93.870000000000005</ele>
        <time>2018-07-10T07:21:59Z</time>
      </trkpt>
      <trkpt lat="48.655862035229802" lon="2.756464965641499">
        <ele>92.900000000000006</ele>
        <time>2018-07-10T07:22:09Z</time>
      </trkpt>
      <trkpt lat="48.654890991747379" lon="2.759222025051713">
        <ele>91.939999999999998</ele>
        <time>2018-07-10T07:22:22Z</time>
      </trkpt>
      <trkpt lat="48.653570003807545" lon="2.761910017579794">
        <ele>89.540000000000006</ele>
        <time>2018-07-10T07:22:33Z</time>
      </trkpt>
      <trkpt lat="48.652007030323148" lon="2.765062032267451">
        <ele>88.579999999999998</ele>
        <time>2018-07-10T07:22:45Z</time>
      </trkpt>
      <trkpt lat="48.650848986580968" lon="2.767454981803894">
        <ele>85.689999999999998</ele>
        <time>2018-07-10T07:22:54Z</time>
      </trkpt>
      <trkpt lat="48.648036019876599" lon="2.773134978488088">
        <ele>73.680000000000007</ele>
        <time>2018-07-10T07:23:16Z</time>
      </trkpt>
      <trkpt lat="48.646367015317082" lon="2.776537025347352">
        <ele>85.209999999999994</ele>
        <time>2018-07-10T07:23:30Z</time>
      </trkpt>
      <trkpt lat="48.644484020769596" lon="2.780323969200254">
        <ele>94.829999999999998</ele>
        <time>2018-07-10T07:23:48Z</time>
      </trkpt>
      <trkpt lat="48.64290595985949" lon="2.783508002758026">
        <ele>96.269999999999996</ele>
        <time>2018-07-10T07:24:03Z</time>
      </trkpt>
      <trkpt lat="48.641541972756386" lon="2.786261960864067">
        <ele>96.269999999999996</ele>
        <time>2018-07-10T07:24:16Z</time>
      </trkpt>
      <trkpt lat="48.640520973131061" lon="2.788365986198187">
        <ele>91.939999999999998</ele>
        <time>2018-07-10T07:24:26Z</time>
      </trkpt>
      <trkpt lat="48.640443021431565" lon="2.788530020043254">
        <ele>90.980000000000004</ele>
        <time>2018-07-10T07:24:27Z</time>
      </trkpt>
      <trkpt lat="48.640373032540083" lon="2.788665974512696">
        <ele>90.019999999999996</ele>
        <time>2018-07-10T07:24:28Z</time>
      </trkpt>
      <trkpt lat="48.639986040070653" lon="2.789412969723344">
        <ele>86.180000000000007</ele>
        <time>2018-07-10T07:24:34Z</time>
      </trkpt>
      <trkpt lat="48.639922002330422" lon="2.789542973041534">
        <ele>85.689999999999998</ele>
        <time>2018-07-10T07:24:35Z</time>
      </trkpt>
      <trkpt lat="48.63892799243331" lon="2.791556976735592">
        <ele>83.290000000000006</ele>
        <time>2018-07-10T07:24:50Z</time>
      </trkpt>
      <trkpt lat="48.638647031039" lon="2.792117977514863">
        <ele>81.849999999999994</ele>
        <time>2018-07-10T07:24:55Z</time>
      </trkpt>
      <trkpt lat="48.638608977198601" lon="2.792207999154925">
        <ele>81.370000000000005</ele>
        <time>2018-07-10T07:24:56Z</time>
      </trkpt>
      <trkpt lat="48.638573018833995" lon="2.792289974167943">
        <ele>81.370000000000005</ele>
        <time>2018-07-10T07:24:57Z</time>
      </trkpt>
      <trkpt lat="48.638562960550189" lon="2.792382007464767">
        <ele>81.370000000000005</ele>
        <time>2018-07-10T07:24:58Z</time>
      </trkpt>
      <trkpt lat="48.638575030490756" lon="2.792477980256081">
        <ele>81.370000000000005</ele>
        <time>2018-07-10T07:24:59Z</time>
      </trkpt>
      <trkpt lat="48.638619035482407" lon="2.792565990239382">
        <ele>81.370000000000005</ele>
        <time>2018-07-10T07:25:00Z</time>
      </trkpt>
      <trkpt lat="48.63866999745369" lon="2.79264603741467">
        <ele>81.849999999999994</ele>
        <time>2018-07-10T07:25:01Z</time>
      </trkpt>
      <trkpt lat="48.63873302936554" lon="2.792741004377604">
        <ele>81.849999999999994</ele>
        <time>2018-07-10T07:25:02Z</time>
      </trkpt>
      <trkpt lat="48.638821039348841" lon="2.792809987440705">
        <ele>82.329999999999998</ele>
        <time>2018-07-10T07:25:03Z</time>
      </trkpt>
      <trkpt lat="48.638918017968535" lon="2.792885005474091">
        <ele>82.329999999999998</ele>
        <time>2018-07-10T07:25:04Z</time>
      </trkpt>
      <trkpt lat="48.639966007322073" lon="2.793701989576221">
        <ele>83.769999999999996</ele>
        <time>2018-07-10T07:25:12Z</time>
      </trkpt>
      <trkpt lat="48.641082979738712" lon="2.794664986431599">
        <ele>82.329999999999998</ele>
        <time>2018-07-10T07:25:18Z</time>
      </trkpt>
      <trkpt lat="48.642221996560693" lon="2.795726973563433">
        <ele>86.180000000000007</ele>
        <time>2018-07-10T07:25:25Z</time>
      </trkpt>
      <trkpt lat="48.644417971372604" lon="2.79778397642076">
        <ele>95.310000000000002</ele>
        <time>2018-07-10T07:25:38Z</time>
      </trkpt>
      <trkpt lat="48.646812010556459" lon="2.799984980374575">
        <ele>98.189999999999998</ele>
        <time>2018-07-10T07:25:52Z</time>
      </trkpt>
      <trkpt lat="48.649767972528934" lon="2.802523020654917">
        <ele>101.56</ele>
        <time>2018-07-10T07:26:09Z</time>
      </trkpt>
      <trkpt lat="48.652460994198918" lon="2.804539036005735">
        <ele>105.40000000000001</ele>
        <time>2018-07-10T07:26:24Z</time>
      </trkpt>
      <trkpt lat="48.655014960095286" lon="2.806212985888124">
        <ele>101.56</ele>
        <time>2018-07-10T07:26:38Z</time>
      </trkpt>
      <trkpt lat="48.657688032835722" lon="2.807693984359503">
        <ele>83.290000000000006</ele>
        <time>2018-07-10T07:26:52Z</time>
      </trkpt>
      <trkpt lat="48.660321040078998" lon="2.808952024206519">
        <ele>78</ele>
        <time>2018-07-10T07:27:06Z</time>
      </trkpt>
      <trkpt lat="48.662997968494892" lon="2.809998001903296">
        <ele>87.140000000000001</ele>
        <time>2018-07-10T07:27:20Z</time>
      </trkpt>
      <trkpt lat="48.665553024038672" lon="2.810771986842156">
        <ele>99.150000000000006</ele>
        <time>2018-07-10T07:27:33Z</time>
      </trkpt>
      <trkpt lat="48.668909976258874" lon="2.8116400167346">
        <ele>106.84</ele>
        <time>2018-07-10T07:27:50Z</time>
      </trkpt>
      <trkpt lat="48.672849973663688" lon="2.81260896474123">
        <ele>106.36</ele>
        <time>2018-07-10T07:28:10Z</time>
      </trkpt>
      <trkpt lat="48.676207009702921" lon="2.813456039875746">
        <ele>104.92</ele>
        <time>2018-07-10T07:28:27Z</time>
      </trkpt>
      <trkpt lat="48.680147007107735" lon="2.814442003145814">
        <ele>103.48</ele>
        <time>2018-07-10T07:28:47Z</time>
      </trkpt>
      <trkpt lat="48.683313019573689" lon="2.815221017226577">
        <ele>103.48</ele>
        <time>2018-07-10T07:29:03Z</time>
      </trkpt>
      <trkpt lat="48.685450991615653" lon="2.81591797247529">
        <ele>106.84</ele>
        <time>2018-07-10T07:29:14Z</time>
      </trkpt>
      <trkpt lat="48.68832497857511" lon="2.817163020372391">
        <ele>109.73</ele>
        <time>2018-07-10T07:29:29Z</time>
      </trkpt>
      <trkpt lat="48.691303990781307" lon="2.818853985518217">
        <ele>112.13</ele>
        <time>2018-07-10T07:29:45Z</time>
      </trkpt>
      <trkpt lat="48.693357976153493" lon="2.820382006466389">
        <ele>113.56999999999999</ele>
        <time>2018-07-10T07:29:57Z</time>
      </trkpt>
      <trkpt lat="48.693617982789874" lon="2.820587027817965">
        <ele>114.05</ele>
        <time>2018-07-10T07:30:00Z</time>
      </trkpt>
      <trkpt lat="48.69367397390306" lon="2.820631032809615">
        <ele>114.05</ele>
        <time>2018-07-10T07:30:01Z</time>
      </trkpt>
      <trkpt lat="48.693702975288033" lon="2.820717031136155">
        <ele>114.05</ele>
        <time>2018-07-10T07:30:02Z</time>
      </trkpt>
      <trkpt lat="48.693702975288033" lon="2.820850973948836">
        <ele>114.53</ele>
        <time>2018-07-10T07:30:04Z</time>
      </trkpt>
      <trkpt lat="48.693702975288033" lon="2.820913000032306">
        <ele>114.53</ele>
        <time>2018-07-10T07:30:05Z</time>
      </trkpt>
      <trkpt lat="48.693702975288033" lon="2.82096597366035">
        <ele>114.53</ele>
        <time>2018-07-10T07:30:06Z</time>
      </trkpt>
      <trkpt lat="48.693702975288033" lon="2.821039985865355">
        <ele>115.01000000000001</ele>
        <time>2018-07-10T07:30:09Z</time>
      </trkpt>
      <trkpt lat="48.693702975288033" lon="2.821039985865355">
        <ele>115.01000000000001</ele>
        <time>2018-07-10T07:30:10Z</time>
      </trkpt>
      <trkpt lat="48.693638015538454" lon="2.821147022768855">
        <ele>115.01000000000001</ele>
        <time>2018-07-10T07:30:11Z</time>
      </trkpt>
      <trkpt lat="48.693722002208233" lon="2.82111600972712">
        <ele>115.01000000000001</ele>
        <time>2018-07-10T07:30:12Z</time>
      </trkpt>
      <trkpt lat="48.693743962794542" lon="2.821107963100076">
        <ele>115.01000000000001</ele>
        <time>2018-07-10T07:30:13Z</time>
      </trkpt>
      <trkpt lat="48.693786961957812" lon="2.82109203748405">
        <ele>115.01000000000001</ele>
        <time>2018-07-10T07:30:14Z</time>
      </trkpt>
      <trkpt lat="48.693839013576508" lon="2.821057001128793">
        <ele>115.01000000000001</ele>
        <time>2018-07-10T07:30:15Z</time>
      </trkpt>
      <trkpt lat="48.693889975547791" lon="2.821010984480381">
        <ele>114.53</ele>
        <time>2018-07-10T07:30:16Z</time>
      </trkpt>
      <trkpt lat="48.693958036601543" lon="2.820949964225292">
        <ele>114.05</ele>
        <time>2018-07-10T07:30:22Z</time>
      </trkpt>
      <trkpt lat="48.694043029099703" lon="2.820864971727133">
        <ele>114.05</ele>
        <time>2018-07-10T07:30:25Z</time>
      </trkpt>
      <trkpt lat="48.694150988012552" lon="2.820735974237323">
        <ele>113.09</ele>
        <time>2018-07-10T07:30:27Z</time>
      </trkpt>
      <trkpt lat="48.694225000217557" lon="2.820655005052686">
        <ele>113.09</ele>
        <time>2018-07-10T07:30:28Z</time>
      </trkpt>
      <trkpt lat="48.694308986887336" lon="2.820561965927482">
        <ele>112.61</ele>
        <time>2018-07-10T07:30:29Z</time>
      </trkpt>
      <trkpt lat="48.694760017096996" lon="2.820181008428335">
        <ele>112.13</ele>
        <time>2018-07-10T07:30:33Z</time>
      </trkpt>
      <trkpt lat="48.694892032071948" lon="2.820075983181596">
        <ele>111.65000000000001</ele>
        <time>2018-07-10T07:30:34Z</time>
      </trkpt>
      <trkpt lat="48.695169975981116" lon="2.819842966273427">
        <ele>111.17</ele>
        <time>2018-07-10T07:30:36Z</time>
      </trkpt>
      <trkpt lat="48.695319006219506" lon="2.819716986268759">
        <ele>110.69</ele>
        <time>2018-07-10T07:30:37Z</time>
      </trkpt>
      <trkpt lat="48.696640999987721" lon="2.818600013852119">
        <ele>109.25</ele>
        <time>2018-07-10T07:30:45Z</time>
      </trkpt>
      <trkpt lat="48.697419008240104" lon="2.817929964512587">
        <ele>108.29000000000001</ele>
        <time>2018-07-10T07:30:50Z</time>
      </trkpt>
      <trkpt lat="48.697806000709534" lon="2.817471977323294">
        <ele>107.31999999999999</ele>
        <time>2018-07-10T07:30:53Z</time>
      </trkpt>
      <trkpt lat="48.698820965364575" lon="2.815482029691339">
        <ele>105.88</ele>
        <time>2018-07-10T07:31:02Z</time>
      </trkpt>
      <trkpt lat="48.698920961469412" lon="2.815282037481666">
        <ele>106.36</ele>
        <time>2018-07-10T07:31:03Z</time>
      </trkpt>
      <trkpt lat="48.69902104139328" lon="2.81509998254478">
        <ele>106.36</ele>
        <time>2018-07-10T07:31:04Z</time>
      </trkpt>
      <trkpt lat="48.699234025552869" lon="2.814782978966832">
        <ele>107.31999999999999</ele>
        <time>2018-07-10T07:31:06Z</time>
      </trkpt>
      <trkpt lat="48.699371991679072" lon="2.814667979255319">
        <ele>107.31999999999999</ele>
        <time>2018-07-10T07:31:07Z</time>
      </trkpt>
      <trkpt lat="48.700943011790514" lon="2.813365012407303">
        <ele>107.81</ele>
        <time>2018-07-10T07:31:17Z</time>
      </trkpt>
      <trkpt lat="48.702693991363049" lon="2.811905974522233">
        <ele>109.25</ele>
        <time>2018-07-10T07:31:29Z</time>
      </trkpt>
      <trkpt lat="48.703898973762989" lon="2.810901990160346">
        <ele>111.65000000000001</ele>
        <time>2018-07-10T07:31:40Z</time>
      </trkpt>
      <trkpt lat="48.704484030604362" lon="2.81043604016304">
        <ele>110.69</ele>
        <time>2018-07-10T07:31:49Z</time>
      </trkpt>
      <trkpt lat="48.705178974196315" lon="2.809962965548039">
        <ele>109.73</ele>
        <time>2018-07-10T07:32:00Z</time>
      </trkpt>
      <trkpt lat="48.705441998317838" lon="2.809783006086946">
        <ele>109.73</ele>
        <time>2018-07-10T07:32:05Z</time>
      </trkpt>
      <trkpt lat="48.705482985824347" lon="2.809756016358733">
        <ele>109.73</ele>
        <time>2018-07-10T07:32:06Z</time>
      </trkpt>
      <trkpt lat="48.705518022179604" lon="2.809731960296631">
        <ele>109.25</ele>
        <time>2018-07-10T07:32:07Z</time>
      </trkpt>
      <trkpt lat="48.705548029392958" lon="2.809711005538702">
        <ele>109.25</ele>
        <time>2018-07-10T07:32:08Z</time>
      </trkpt>
      <trkpt lat="48.705567978322506" lon="2.809698013588786">
        <ele>108.77</ele>
        <time>2018-07-10T07:32:09Z</time>
      </trkpt>
      <trkpt lat="48.705596979707479" lon="2.809677980840206">
        <ele>108.29000000000001</ele>
        <time>2018-07-10T07:32:17Z</time>
      </trkpt>
      <trkpt lat="48.705612989142537" lon="2.80966398306191">
        <ele>108.29000000000001</ele>
        <time>2018-07-10T07:32:18Z</time>
      </trkpt>
      <trkpt lat="48.705633021891117" lon="2.809608997777104">
        <ele>108.29000000000001</ele>
        <time>2018-07-10T07:32:19Z</time>
      </trkpt>
      <trkpt lat="48.705659005790949" lon="2.8095349855721">
        <ele>107.81</ele>
        <time>2018-07-10T07:32:20Z</time>
      </trkpt>
      <trkpt lat="48.705689013004303" lon="2.809452004730701">
        <ele>107.81</ele>
        <time>2018-07-10T07:32:21Z</time>
      </trkpt>
      <trkpt lat="48.705717008560896" lon="2.809372963383794">
        <ele>108.29000000000001</ele>
        <time>2018-07-10T07:32:22Z</time>
      </trkpt>
      <trkpt lat="48.705777022987604" lon="2.809343039989471">
        <ele>107.81</ele>
        <time>2018-07-10T07:32:23Z</time>
      </trkpt>
      <trkpt lat="48.705845000222325" lon="2.809313032776117">
        <ele>107.81</ele>
        <time>2018-07-10T07:32:24Z</time>
      </trkpt>
      <trkpt lat="48.705920018255711" lon="2.809281013906002">
        <ele>107.81</ele>
        <time>2018-07-10T07:32:25Z</time>
      </trkpt>
      <trkpt lat="48.706019008532166" lon="2.809238014742732">
        <ele>107.81</ele>
        <time>2018-07-10T07:32:26Z</time>
      </trkpt>
      <trkpt lat="48.706074999645352" lon="2.809219993650913">
        <ele>107.81</ele>
        <time>2018-07-10T07:32:27Z</time>
      </trkpt>
      <trkpt lat="48.706410024315119" lon="2.809108011424542">
        <ele>108.77</ele>
        <time>2018-07-10T07:32:31Z</time>
      </trkpt>
      <trkpt lat="48.707107985392213" lon="2.808842975646257">
        <ele>110.20999999999999</ele>
        <time>2018-07-10T07:32:39Z</time>
      </trkpt>
      <trkpt lat="48.707732018083334" lon="2.808467969298363">
        <ele>110.69</ele>
        <time>2018-07-10T07:32:46Z</time>
      </trkpt>
      <trkpt lat="48.707823967561126" lon="2.808412984013557">
        <ele>110.69</ele>
        <time>2018-07-10T07:32:47Z</time>
      </trkpt>
      <trkpt lat="48.70849896222353" lon="2.808232018724084">
        <ele>111.65000000000001</ele>
        <time>2018-07-10T07:32:56Z</time>
      </trkpt>
      <trkpt lat="48.708509020507336" lon="2.808230007067323">
        <ele>111.65000000000001</ele>
        <time>2018-07-10T07:32:57Z</time>
      </trkpt>
      <trkpt lat="48.708579009398818" lon="2.808136967942119">
        <ele>112.13</ele>
        <time>2018-07-10T07:32:58Z</time>
      </trkpt>
      <trkpt lat="48.708629971370101" lon="2.808068990707398">
        <ele>112.13</ele>
        <time>2018-07-10T07:32:59Z</time>
      </trkpt>
      <trkpt lat="48.708685962483287" lon="2.807995984330773">
        <ele>112.61</ele>
        <time>2018-07-10T07:33:00Z</time>
      </trkpt>
      <trkpt lat="48.708742037415504" lon="2.807921972125769">
        <ele>113.09</ele>
        <time>2018-07-10T07:33:01Z</time>
      </trkpt>
      <trkpt lat="48.708799034357071" lon="2.807847037911415">
        <ele>113.56999999999999</ele>
        <time>2018-07-10T07:33:02Z</time>
      </trkpt>
      <trkpt lat="48.708973964676261" lon="2.807616032660008">
        <ele>113.56999999999999</ele>
        <time>2018-07-10T07:33:05Z</time>
      </trkpt>
      <trkpt lat="48.70903599075973" lon="2.807563981041312">
        <ele>113.56999999999999</ele>
        <time>2018-07-10T07:33:06Z</time>
      </trkpt>
      <trkpt lat="48.70909902267158" lon="2.807516036555171">
        <ele>113.56999999999999</ele>
        <time>2018-07-10T07:33:07Z</time>
      </trkpt>
      <trkpt lat="48.709174040704966" lon="2.807457027956843">
        <ele>113.56999999999999</ele>
        <time>2018-07-10T07:33:08Z</time>
      </trkpt>
      <trkpt lat="48.709233971312642" lon="2.807434983551502">
        <ele>114.05</ele>
        <time>2018-07-10T07:33:09Z</time>
      </trkpt>
      <trkpt lat="48.709304966032505" lon="2.807408999651671">
        <ele>114.05</ele>
        <time>2018-07-10T07:33:10Z</time>
      </trkpt>
      <trkpt lat="48.709375960752368" lon="2.807383015751839">
        <ele>114.53</ele>
        <time>2018-07-10T07:33:11Z</time>
      </trkpt>
      <trkpt lat="48.709451984614134" lon="2.807355020195246">
        <ele>115.01000000000001</ele>
        <time>2018-07-10T07:33:12Z</time>
      </trkpt>
      <trkpt lat="48.709524990990758" lon="2.807328030467033">
        <ele>115.01000000000001</ele>
        <time>2018-07-10T07:33:13Z</time>
      </trkpt>
      <trkpt lat="48.70959397405386" lon="2.80730196274817">
        <ele>115.5</ele>
        <time>2018-07-10T07:33:14Z</time>
      </trkpt>
      <trkpt lat="48.710269974544644" lon="2.807068023830652">
        <ele>118.86</ele>
        <time>2018-07-10T07:33:24Z</time>
      </trkpt>
      <trkpt lat="48.710332000628114" lon="2.807050002738833">
        <ele>118.86</ele>
        <time>2018-07-10T07:33:25Z</time>
      </trkpt>
      <trkpt lat="48.710415987297893" lon="2.807095013558865">
        <ele>119.34</ele>
        <time>2018-07-10T07:33:26Z</time>
      </trkpt>
      <trkpt lat="48.710480025038123" lon="2.807128960266709">
        <ele>119.34</ele>
        <time>2018-07-10T07:33:27Z</time>
      </trkpt>
      <trkpt lat="48.710539033636451" lon="2.807160979136825">
        <ele>119.34</ele>
        <time>2018-07-10T07:33:28Z</time>
      </trkpt>
      <trkpt lat="48.710782025009394" lon="2.807347979396582">
        <ele>119.81999999999999</ele>
        <time>2018-07-10T07:33:32Z</time>
      </trkpt>
      <trkpt lat="48.711368003860116" lon="2.808218020945787">
        <ele>117.90000000000001</ele>
        <time>2018-07-10T07:33:44Z</time>
      </trkpt>
      <trkpt lat="48.711449978873134" lon="2.808379037305713">
        <ele>117.90000000000001</ele>
        <time>2018-07-10T07:33:46Z</time>
      </trkpt>
      <trkpt lat="48.711480991914868" lon="2.808454977348447">
        <ele>117.42</ele>
        <time>2018-07-10T07:33:47Z</time>
      </trkpt>
      <trkpt lat="48.711508987471461" lon="2.808522032573819">
        <ele>117.42</ele>
        <time>2018-07-10T07:33:48Z</time>
      </trkpt>
      <trkpt lat="48.71150303632021" lon="2.808621022850275">
        <ele>117.42</ele>
        <time>2018-07-10T07:33:49Z</time>
      </trkpt>
      <trkpt lat="48.711490966379642" lon="2.808723030611873">
        <ele>117.42</ele>
        <time>2018-07-10T07:33:50Z</time>
      </trkpt>
      <trkpt lat="48.711480991914868" lon="2.80876200646162">
        <ele>117.90000000000001</ele>
        <time>2018-07-10T07:33:51Z</time>
      </trkpt>
      <trkpt lat="48.711283011361957" lon="2.809510007500649">
        <ele>119.81999999999999</ele>
        <time>2018-07-10T07:34:00Z</time>
      </trkpt>
      <trkpt lat="48.711208999156952" lon="2.80979298055172">
        <ele>119.34</ele>
        <time>2018-07-10T07:34:09Z</time>
      </trkpt>
      <trkpt lat="48.711208999156952" lon="2.80979298055172">
        <ele>119.34</ele>
        <time>2018-07-10T07:34:44Z</time>
      </trkpt>
      <trkpt lat="48.711208999156952" lon="2.80979298055172">
        <ele>119.34</ele>
        <time>2018-07-10T07:35:42Z</time>
      </trkpt>
      <trkpt lat="48.711208999156952" lon="2.80979298055172">
        <ele>119.34</ele>
        <time>2018-07-10T07:36:43Z</time>
      </trkpt>
      <trkpt lat="48.711208999156952" lon="2.80979298055172">
        <ele>120.3</ele>
        <time>2018-07-10T07:37:52Z</time>
      </trkpt>
      <trkpt lat="48.711208999156952" lon="2.80979298055172">
        <ele>120.3</ele>
        <time>2018-07-10T07:39:06Z</time>
      </trkpt>
      <trkpt lat="48.711169017478824" lon="2.809947039932013">
        <ele>120.3</ele>
        <time>2018-07-10T07:39:21Z</time>
      </trkpt>
      <trkpt lat="48.711172034963965" lon="2.8099649772048">
        <ele>120.3</ele>
        <time>2018-07-10T07:39:22Z</time>
      </trkpt>
      <trkpt lat="48.711187960579991" lon="2.810058016330004">
        <ele>120.78</ele>
        <time>2018-07-10T07:39:23Z</time>
      </trkpt>
      <trkpt lat="48.711212016642094" lon="2.810204029083252">
        <ele>120.3</ele>
        <time>2018-07-10T07:39:24Z</time>
      </trkpt>
      <trkpt lat="48.711260966956615" lon="2.810261026024818">
        <ele>119.81999999999999</ele>
        <time>2018-07-10T07:39:25Z</time>
      </trkpt>
      <trkpt lat="48.711332967504859" lon="2.810345012694597">
        <ele>119.81999999999999</ele>
        <time>2018-07-10T07:39:26Z</time>
      </trkpt>
      <trkpt lat="48.711422989144921" lon="2.810396980494261">
        <ele>119.81999999999999</ele>
        <time>2018-07-10T07:39:27Z</time>
      </trkpt>
      <trkpt lat="48.711524996906519" lon="2.810450037941337">
        <ele>119.34</ele>
        <time>2018-07-10T07:39:28Z</time>
      </trkpt>
      <trkpt lat="48.711636979132891" lon="2.810508040711284">
        <ele>119.34</ele>
        <time>2018-07-10T07:39:29Z</time>
      </trkpt>
      <trkpt lat="48.711752984672785" lon="2.810568977147341">
        <ele>118.86</ele>
        <time>2018-07-10T07:39:30Z</time>
      </trkpt>
      <trkpt lat="48.713165000081062" lon="2.81118898652494">
        <ele>114.53</ele>
        <time>2018-07-10T07:39:40Z</time>
      </trkpt>
      <trkpt lat="48.714883960783482" lon="2.811926007270813">
        <ele>113.56999999999999</ele>
        <time>2018-07-10T07:39:52Z</time>
      </trkpt>
      <trkpt lat="48.715134998783469" lon="2.812032038345933">
        <ele>113.09</ele>
        <time>2018-07-10T07:39:54Z</time>
      </trkpt>
      <trkpt lat="48.715257039293647" lon="2.812085011973977">
        <ele>113.56999999999999</ele>
        <time>2018-07-10T07:39:55Z</time>
      </trkpt>
      <trkpt lat="48.716068994253874" lon="2.812377037480474">
        <ele>113.56999999999999</ele>
        <time>2018-07-10T07:40:02Z</time>
      </trkpt>
      <trkpt lat="48.717175992205739" lon="2.812560014426708">
        <ele>112.13</ele>
        <time>2018-07-10T07:40:11Z</time>
      </trkpt>
      <trkpt lat="48.718624971807003" lon="2.81273796223104">
        <ele>113.56999999999999</ele>
        <time>2018-07-10T07:40:21Z</time>
      </trkpt>
      <trkpt lat="48.719637002795935" lon="2.812861008569598">
        <ele>114.05</ele>
        <time>2018-07-10T07:40:27Z</time>
      </trkpt>
      <trkpt lat="48.721099980175495" lon="2.81333701685071">
        <ele>114.53</ele>
        <time>2018-07-10T07:40:36Z</time>
      </trkpt>
      <trkpt lat="48.721373984590173" lon="2.813435001298785">
        <ele>114.53</ele>
        <time>2018-07-10T07:40:38Z</time>
      </trkpt>
      <trkpt lat="48.722413005307317" lon="2.813809001818299">
        <ele>114.53</ele>
        <time>2018-07-10T07:40:47Z</time>
      </trkpt>
      <trkpt lat="48.722524987533689" lon="2.813800033181906">
        <ele>114.53</ele>
        <time>2018-07-10T07:40:48Z</time>
      </trkpt>
      <trkpt lat="48.722629006952047" lon="2.813790980726481">
        <ele>114.53</ele>
        <time>2018-07-10T07:40:49Z</time>
      </trkpt>
      <trkpt lat="48.722733026370406" lon="2.813759967684746">
        <ele>114.53</ele>
        <time>2018-07-10T07:40:50Z</time>
      </trkpt>
      <trkpt lat="48.722850037738681" lon="2.813709005713463">
        <ele>115.01000000000001</ele>
        <time>2018-07-10T07:40:51Z</time>
      </trkpt>
      <trkpt lat="48.723980002105236" lon="2.81316502019763">
        <ele>116.94</ele>
        <time>2018-07-10T07:40:59Z</time>
      </trkpt>
      <trkpt lat="48.725692005828023" lon="2.812967039644718">
        <ele>116.94</ele>
        <time>2018-07-10T07:41:09Z</time>
      </trkpt>
      <trkpt lat="48.726700013503432" lon="2.813200978562236">
        <ele>120.3</ele>
        <time>2018-07-10T07:41:16Z</time>
      </trkpt>
      <trkpt lat="48.726891037076712" lon="2.813271973282099">
        <ele>120.78</ele>
        <time>2018-07-10T07:41:18Z</time>
      </trkpt>
      <trkpt lat="48.726971000432968" lon="2.813301980495453">
        <ele>121.26000000000001</ele>
        <time>2018-07-10T07:41:19Z</time>
      </trkpt>
      <trkpt lat="48.727064039558172" lon="2.813581014052033">
        <ele>122.22</ele>
        <time>2018-07-10T07:41:21Z</time>
      </trkpt>
      <trkpt lat="48.727153977379203" lon="2.813632981851697">
        <ele>122.70999999999999</ele>
        <time>2018-07-10T07:41:22Z</time>
      </trkpt>
      <trkpt lat="48.727231007069349" lon="2.81361797824502">
        <ele>123.19</ele>
        <time>2018-07-10T07:41:23Z</time>
      </trkpt>
      <trkpt lat="48.727240981534123" lon="2.813615966588259">
        <ele>123.67</ele>
        <time>2018-07-10T07:41:24Z</time>
      </trkpt>
      <trkpt lat="48.727423036471009" lon="2.813570033758879">
        <ele>123.67</ele>
        <time>2018-07-10T07:41:25Z</time>
      </trkpt>
      <trkpt lat="48.72753300704062" lon="2.813628036528826">
        <ele>123.67</ele>
        <time>2018-07-10T07:41:26Z</time>
      </trkpt>
      <trkpt lat="48.727654041722417" lon="2.813690984621644">
        <ele>123.67</ele>
        <time>2018-07-10T07:41:27Z</time>
      </trkpt>
      <trkpt lat="48.727783039212227" lon="2.813758039847016">
        <ele>124.15000000000001</ele>
        <time>2018-07-10T07:41:28Z</time>
      </trkpt>
      <trkpt lat="48.728119991719723" lon="2.813985021784902">
        <ele>125.59</ele>
        <time>2018-07-10T07:41:31Z</time>
      </trkpt>
      <trkpt lat="48.72819802723825" lon="2.814070014283061">
        <ele>126.06999999999999</ele>
        <time>2018-07-10T07:41:32Z</time>
      </trkpt>
      <trkpt lat="48.728260975331068" lon="2.814146038144827">
        <ele>126.55</ele>
        <time>2018-07-10T07:41:33Z</time>
      </trkpt>
      <trkpt lat="48.728271033614874" lon="2.814345024526119">
        <ele>127.03</ele>
        <time>2018-07-10T07:41:34Z</time>
      </trkpt>
      <trkpt lat="48.728271033614874" lon="2.814404033124447">
        <ele>127.03</ele>
        <time>2018-07-10T07:41:35Z</time>
      </trkpt>
      <trkpt lat="48.728290982544422" lon="2.81456395983696">
        <ele>127.03</ele>
        <time>2018-07-10T07:41:36Z</time>
      </trkpt>
      <trkpt lat="48.728345967829227" lon="2.814632020890713">
        <ele>127.03</ele>
        <time>2018-07-10T07:41:37Z</time>
      </trkpt>
      <trkpt lat="48.728440012782812" lon="2.814662028104067">
        <ele>127.03</ele>
        <time>2018-07-10T07:41:38Z</time>
      </trkpt>
      <trkpt lat="48.72852198779583" lon="2.814609976485372">
        <ele>127.51000000000001</ele>
        <time>2018-07-10T07:41:39Z</time>
      </trkpt>
      <trkpt lat="48.728572027757764" lon="2.814560020342469">
        <ele>127.51000000000001</ele>
        <time>2018-07-10T07:41:40Z</time>
      </trkpt>
      <trkpt lat="48.7286720238626" lon="2.814453989267349">
        <ele>127.51000000000001</ele>
        <time>2018-07-10T07:41:41Z</time>
      </trkpt>
      <trkpt lat="48.728752993047237" lon="2.81447796151042">
        <ele>127.51000000000001</ele>
        <time>2018-07-10T07:41:42Z</time>
      </trkpt>
      <trkpt lat="48.728851983323693" lon="2.814506962895393">
        <ele>127.51000000000001</ele>
        <time>2018-07-10T07:41:43Z</time>
      </trkpt>
      <trkpt lat="48.728965977206826" lon="2.814545016735792">
        <ele>127.03</ele>
        <time>2018-07-10T07:41:44Z</time>
      </trkpt>
      <trkpt lat="48.72908097691834" lon="2.814631015062332">
        <ele>127.03</ele>
        <time>2018-07-10T07:41:45Z</time>
      </trkpt>
      <trkpt lat="48.729206034913659" lon="2.814724976196885">
        <ele>127.03</ele>
        <time>2018-07-10T07:41:46Z</time>
      </trkpt>
      <trkpt lat="48.730573039501905" lon="2.815763996914029">
        <ele>124.63</ele>
        <time>2018-07-10T07:41:55Z</time>
      </trkpt>
      <trkpt lat="48.731905007734895" lon="2.816406972706318">
        <ele>119.81999999999999</ele>
        <time>2018-07-10T07:42:02Z</time>
      </trkpt>
      <trkpt lat="48.735305964946747" lon="2.817455967888236">
        <ele>117.90000000000001</ele>
        <time>2018-07-10T07:42:19Z</time>
      </trkpt>
      <trkpt lat="48.735495982691646" lon="2.817424032837153">
        <ele>117.90000000000001</ele>
        <time>2018-07-10T07:42:20Z</time>
      </trkpt>
      <trkpt lat="48.735684994608164" lon="2.817390002310276">
        <ele>117.90000000000001</ele>
        <time>2018-07-10T07:42:21Z</time>
      </trkpt>
      <trkpt lat="48.738150028511882" lon="2.816921034827828">
        <ele>118.38</ele>
        <time>2018-07-10T07:42:33Z</time>
      </trkpt>
      <trkpt lat="48.740797033533454" lon="2.816488025709987">
        <ele>118.86</ele>
        <time>2018-07-10T07:42:46Z</time>
      </trkpt>
      <trkpt lat="48.742331005632877" lon="2.8164769615978">
        <ele>119.34</ele>
        <time>2018-07-10T07:42:55Z</time>
      </trkpt>
      <trkpt lat="48.742971969768405" lon="2.816472016274929">
        <ele>119.34</ele>
        <time>2018-07-10T07:43:01Z</time>
      </trkpt>
      <trkpt lat="48.743048999458551" lon="2.816471010446549">
        <ele>119.34</ele>
        <time>2018-07-10T07:43:02Z</time>
      </trkpt>
      <trkpt lat="48.743114965036511" lon="2.816471010446549">
        <ele>118.86</ele>
        <time>2018-07-10T07:43:03Z</time>
      </trkpt>
      <trkpt lat="48.743165004998446" lon="2.816471010446549">
        <ele>118.86</ele>
        <time>2018-07-10T07:43:04Z</time>
      </trkpt>
      <trkpt lat="48.743193000555038" lon="2.816470004618168">
        <ele>118.86</ele>
        <time>2018-07-10T07:43:05Z</time>
      </trkpt>
      <trkpt lat="48.743246980011463" lon="2.816644012928009">
        <ele>118.86</ele>
        <time>2018-07-10T07:43:06Z</time>
      </trkpt>
      <trkpt lat="48.743241028860211" lon="2.81666798517108">
        <ele>119.34</ele>
        <time>2018-07-10T07:43:07Z</time>
      </trkpt>
      <trkpt lat="48.743229964748025" lon="2.816709978505969">
        <ele>119.34</ele>
        <time>2018-07-10T07:43:08Z</time>
      </trkpt>
      <trkpt lat="48.743212027475238" lon="2.816781979054213">
        <ele>119.34</ele>
        <time>2018-07-10T07:43:09Z</time>
      </trkpt>
      <trkpt lat="48.743185037747025" lon="2.816887004300952">
        <ele>119.34</ele>
        <time>2018-07-10T07:43:10Z</time>
      </trkpt>
      <trkpt lat="48.743154024705291" lon="2.817008960992098">
        <ele>119.34</ele>
        <time>2018-07-10T07:43:11Z</time>
      </trkpt>
      <trkpt lat="48.742778012529016" lon="2.818074971437454">
        <ele>119.81999999999999</ele>
        <time>2018-07-10T07:43:17Z</time>
      </trkpt>
      <trkpt lat="48.7424869928509" lon="2.818754995241761">
        <ele>119.81999999999999</ele>
        <time>2018-07-10T07:43:20Z</time>
      </trkpt>
      <trkpt lat="48.74242203310132" lon="2.819018019363284">
        <ele>119.81999999999999</ele>
        <time>2018-07-10T07:43:21Z</time>
      </trkpt>
      <trkpt lat="48.742375010624528" lon="2.819296969100833">
        <ele>119.81999999999999</ele>
        <time>2018-07-10T07:43:22Z</time>
      </trkpt>
      <trkpt lat="48.742325976490974" lon="2.819584971293807">
        <ele>119.81999999999999</ele>
        <time>2018-07-10T07:43:23Z</time>
      </trkpt>
      <trkpt lat="48.742329999804497" lon="2.819893006235361">
        <ele>120.3</ele>
        <time>2018-07-10T07:43:24Z</time>
      </trkpt>
      <trkpt lat="48.742334023118019" lon="2.820211015641689">
        <ele>120.3</ele>
        <time>2018-07-10T07:43:25Z</time>
      </trkpt>
      <trkpt lat="48.742369981482625" lon="2.823766032233834">
        <ele>121.26000000000001</ele>
        <time>2018-07-10T07:43:35Z</time>
      </trkpt>
      <trkpt lat="48.742412980645895" lon="2.8279709815979">
        <ele>122.22</ele>
        <time>2018-07-10T07:43:47Z</time>
      </trkpt>
      <trkpt lat="48.742442987859249" lon="2.830278016626835">
        <ele>122.22</ele>
        <time>2018-07-10T07:43:55Z</time>
      </trkpt>
      <trkpt lat="48.742499984800816" lon="2.830788977444172">
        <ele>121.73999999999999</ele>
        <time>2018-07-10T07:43:57Z</time>
      </trkpt>
      <trkpt lat="48.742562010884285" lon="2.831043032929301">
        <ele>121.73999999999999</ele>
        <time>2018-07-10T07:43:58Z</time>
      </trkpt>
      <trkpt lat="48.743445966392756" lon="2.833785004913807">
        <ele>120.78</ele>
        <time>2018-07-10T07:44:08Z</time>
      </trkpt>
      <trkpt lat="48.744855970144272" lon="2.838116018101573">
        <ele>122.22</ele>
        <time>2018-07-10T07:44:23Z</time>
      </trkpt>
      <trkpt lat="48.745413031429052" lon="2.840940970927477">
        <ele>122.22</ele>
        <time>2018-07-10T07:44:32Z</time>
      </trkpt>
      <trkpt lat="48.746610973030329" lon="2.847443986684084">
        <ele>120.78</ele>
        <time>2018-07-10T07:44:52Z</time>
      </trkpt>
      <trkpt lat="48.747441032901406" lon="2.852016985416412">
        <ele>121.26000000000001</ele>
        <time>2018-07-10T07:45:06Z</time>
      </trkpt>
      <trkpt lat="48.748144023120403" lon="2.855078978464007">
        <ele>122.70999999999999</ele>
        <time>2018-07-10T07:45:16Z</time>
      </trkpt>
      <trkpt lat="48.748722961172462" lon="2.85748802125454">
        <ele>126.55</ele>
        <time>2018-07-10T07:45:25Z</time>
      </trkpt>
      <trkpt lat="48.749416982755065" lon="2.860339963808656">
        <ele>124.63</ele>
        <time>2018-07-10T07:45:37Z</time>
      </trkpt>
      <trkpt lat="48.749821996316314" lon="2.862004023045301">
        <ele>120.3</ele>
        <time>2018-07-10T07:45:45Z</time>
      </trkpt>
      <trkpt lat="48.750429013743997" lon="2.863865979015827">
        <ele>120.3</ele>
        <time>2018-07-10T07:45:55Z</time>
      </trkpt>
      <trkpt lat="48.750925976783037" lon="2.865317976102233">
        <ele>120.78</ele>
        <time>2018-07-10T07:46:04Z</time>
      </trkpt>
      <trkpt lat="48.751020021736622" lon="2.865691976621747">
        <ele>119.81999999999999</ele>
        <time>2018-07-10T07:46:10Z</time>
      </trkpt>
      <trkpt lat="48.751066038385034" lon="2.865688037127256">
        <ele>119.34</ele>
        <time>2018-07-10T07:46:11Z</time>
      </trkpt>
      <trkpt lat="48.751305006444454" lon="2.865666998550296">
        <ele>118.86</ele>
        <time>2018-07-10T07:46:14Z</time>
      </trkpt>
      <trkpt lat="48.75230697914958" lon="2.865579994395375">
        <ele>118.86</ele>
        <time>2018-07-10T07:46:22Z</time>
      </trkpt>
      <trkpt lat="48.753553032875061" lon="2.865441022440791">
        <ele>118.86</ele>
        <time>2018-07-10T07:46:33Z</time>
      </trkpt>
      <trkpt lat="48.754709986969829" lon="2.865323005244136">
        <ele>118.86</ele>
        <time>2018-07-10T07:46:44Z</time>
      </trkpt>
      <trkpt lat="48.755625039339066" lon="2.865240024402738">
        <ele>119.81999999999999</ele>
        <time>2018-07-10T07:46:51Z</time>
      </trkpt>
      <trkpt lat="48.755767028778791" lon="2.865227032452822">
        <ele>119.81999999999999</ele>
        <time>2018-07-10T07:46:52Z</time>
      </trkpt>
      <trkpt lat="48.757210979238153" lon="2.865070961415768">
        <ele>119.81999999999999</ele>
        <time>2018-07-10T07:47:02Z</time>
      </trkpt>
      <trkpt lat="48.759021973237395" lon="2.864911034703255">
        <ele>122.70999999999999</ele>
        <time>2018-07-10T07:47:15Z</time>
      </trkpt>
      <trkpt lat="48.760500960052013" lon="2.864770973101258">
        <ele>124.15000000000001</ele>
        <time>2018-07-10T07:47:24Z</time>
      </trkpt>
      <trkpt lat="48.762954007834196" lon="2.864504009485245">
        <ele>124.63</ele>
        <time>2018-07-10T07:47:36Z</time>
      </trkpt>
      <trkpt lat="48.766718991100788" lon="2.864118022844195">
        <ele>125.11</ele>
        <time>2018-07-10T07:47:54Z</time>
      </trkpt>
      <trkpt lat="48.769731028005481" lon="2.863798001781106">
        <ele>125.11</ele>
        <time>2018-07-10T07:48:09Z</time>
      </trkpt>
      <trkpt lat="48.770255986601114" lon="2.86372197791934">
        <ele>125.59</ele>
        <time>2018-07-10T07:48:14Z</time>
      </trkpt>
      <trkpt lat="48.770392024889588" lon="2.863644026219845">
        <ele>125.11</ele>
        <time>2018-07-10T07:48:16Z</time>
      </trkpt>
      <trkpt lat="48.770431000739336" lon="2.863622987642884">
        <ele>125.11</ele>
        <time>2018-07-10T07:48:17Z</time>
      </trkpt>
      <trkpt lat="48.770476011559367" lon="2.863598009571433">
        <ele>124.63</ele>
        <time>2018-07-10T07:48:25Z</time>
      </trkpt>
      <trkpt lat="48.770510964095592" lon="2.863577976822853">
        <ele>124.63</ele>
        <time>2018-07-10T07:48:26Z</time>
      </trkpt>
      <trkpt lat="48.770573996007442" lon="2.863550987094641">
        <ele>124.63</ele>
        <time>2018-07-10T07:48:27Z</time>
      </trkpt>
      <trkpt lat="48.77065496519208" lon="2.863574959337711">
        <ele>124.63</ele>
        <time>2018-07-10T07:48:28Z</time>
      </trkpt>
      <trkpt lat="48.771337000653148" lon="2.863780986517668">
        <ele>124.63</ele>
        <time>2018-07-10T07:48:33Z</time>
      </trkpt>
      <trkpt lat="48.772970968857408" lon="2.864267975091934">
        <ele>122.70999999999999</ele>
        <time>2018-07-10T07:48:41Z</time>
      </trkpt>
      <trkpt lat="48.77437099814415" lon="2.86458196118474">
        <ele>125.59</ele>
        <time>2018-07-10T07:48:48Z</time>
      </trkpt>
      <trkpt lat="48.775989040732384" lon="2.865022011101246">
        <ele>131.36000000000001</ele>
        <time>2018-07-10T07:48:57Z</time>
      </trkpt>
      <trkpt lat="48.777281027287245" lon="2.865370027720928">
        <ele>134.24000000000001</ele>
        <time>2018-07-10T07:49:04Z</time>
      </trkpt>
      <trkpt lat="48.779539028182626" lon="2.865970004349947">
        <ele>137.13</ele>
        <time>2018-07-10T07:49:15Z</time>
      </trkpt>
      <trkpt lat="48.78169996663928" lon="2.866543997079134">
        <ele>140.49000000000001</ele>
        <time>2018-07-10T07:49:26Z</time>
      </trkpt>
      <trkpt lat="48.783766021952033" lon="2.86709301173687">
        <ele>139.53</ele>
        <time>2018-07-10T07:49:37Z</time>
      </trkpt>
      <trkpt lat="48.785575004294515" lon="2.867572959512472">
        <ele>140.00999999999999</ele>
        <time>2018-07-10T07:49:47Z</time>
      </trkpt>
      <trkpt lat="48.787379963323474" lon="2.868052991107106">
        <ele>140.00999999999999</ele>
        <time>2018-07-10T07:49:57Z</time>
      </trkpt>
      <trkpt lat="48.789565963670611" lon="2.868634024634957">
        <ele>140.49000000000001</ele>
        <time>2018-07-10T07:50:09Z</time>
      </trkpt>
      <trkpt lat="48.790429970249534" lon="2.868866035714746">
        <ele>140.49000000000001</ele>
        <time>2018-07-10T07:50:15Z</time>
      </trkpt>
      <trkpt lat="48.790558967739344" lon="2.868900988250971">
        <ele>140.97</ele>
        <time>2018-07-10T07:50:16Z</time>
      </trkpt>
      <trkpt lat="48.791270004585385" lon="2.86909100599587">
        <ele>140.97</ele>
        <time>2018-07-10T07:50:23Z</time>
      </trkpt>
      <trkpt lat="48.791330019012094" lon="2.86911103874445">
        <ele>140.49000000000001</ele>
        <time>2018-07-10T07:50:24Z</time>
      </trkpt>
      <trkpt lat="48.791385004296899" lon="2.869128976017237">
        <ele>140.49000000000001</ele>
        <time>2018-07-10T07:50:25Z</time>
      </trkpt>
      <trkpt lat="48.791458010673523" lon="2.869202988222241">
        <ele>140.00999999999999</ele>
        <time>2018-07-10T07:50:26Z</time>
      </trkpt>
      <trkpt lat="48.791479971259832" lon="2.869281023740768">
        <ele>140.00999999999999</ele>
        <time>2018-07-10T07:50:27Z</time>
      </trkpt>
      <trkpt lat="48.791449964046478" lon="2.86941597238183">
        <ele>140.00999999999999</ele>
        <time>2018-07-10T07:50:28Z</time>
      </trkpt>
      <trkpt lat="48.791420962661505" lon="2.869512028992176">
        <ele>140.00999999999999</ele>
        <time>2018-07-10T07:50:29Z</time>
      </trkpt>
      <trkpt lat="48.79138701595366" lon="2.869626022875309">
        <ele>140.00999999999999</ele>
        <time>2018-07-10T07:50:30Z</time>
      </trkpt>
      <trkpt lat="48.791335970163345" lon="2.869767006486654">
        <ele>139.53</ele>
        <time>2018-07-10T07:50:31Z</time>
      </trkpt>
      <trkpt lat="48.790820986032486" lon="2.870760010555387">
        <ele>136.63999999999999</ele>
        <time>2018-07-10T07:50:37Z</time>
      </trkpt>
      <trkpt lat="48.789889002218843" lon="2.872537979856134">
        <ele>133.28</ele>
        <time>2018-07-10T07:50:45Z</time>
      </trkpt>
      <trkpt lat="48.78853096626699" lon="2.875146009027958">
        <ele>129.43000000000001</ele>
        <time>2018-07-10T07:50:56Z</time>
      </trkpt>
      <trkpt lat="48.787065977230668" lon="2.877954030409455">
        <ele>127.03</ele>
        <time>2018-07-10T07:51:08Z</time>
      </trkpt>
      <trkpt lat="48.785466961562634" lon="2.881003031507134">
        <ele>123.67</ele>
        <time>2018-07-10T07:51:21Z</time>
      </trkpt>
      <trkpt lat="48.783629983663559" lon="2.884504990652204">
        <ele>123.67</ele>
        <time>2018-07-10T07:51:36Z</time>
      </trkpt>
      <trkpt lat="48.782647959887981" lon="2.886377004906535">
        <ele>123.19</ele>
        <time>2018-07-10T07:51:44Z</time>
      </trkpt>
      <trkpt lat="48.782144039869308" lon="2.887337990105152">
        <ele>123.19</ele>
        <time>2018-07-10T07:51:49Z</time>
      </trkpt>
      <trkpt lat="48.781469967216253" lon="2.888623019680381">
        <ele>122.70999999999999</ele>
        <time>2018-07-10T07:51:58Z</time>
      </trkpt>
      <trkpt lat="48.780744010582566" lon="2.890007039532065">
        <ele>122.70999999999999</ele>
        <time>2018-07-10T07:52:07Z</time>
      </trkpt>
      <trkpt lat="48.779972959309816" lon="2.891476973891258">
        <ele>122.70999999999999</ele>
        <time>2018-07-10T07:52:14Z</time>
      </trkpt>
      <trkpt lat="48.778981966897845" lon="2.893367009237409">
        <ele>122.70999999999999</ele>
        <time>2018-07-10T07:52:22Z</time>
      </trkpt>
      <trkpt lat="48.777634995058179" lon="2.895936984568834">
        <ele>122.22</ele>
        <time>2018-07-10T07:52:33Z</time>
      </trkpt>
      <trkpt lat="48.77630403265357" lon="2.898525986820459">
        <ele>122.70999999999999</ele>
        <time>2018-07-10T07:52:44Z</time>
      </trkpt>
      <trkpt lat="48.774700993672013" lon="2.901558978483081">
        <ele>124.15000000000001</ele>
        <time>2018-07-10T07:52:57Z</time>
      </trkpt>
      <trkpt lat="48.77323399297893" lon="2.904377980157733">
        <ele>124.15000000000001</ele>
        <time>2018-07-10T07:53:09Z</time>
      </trkpt>
      <trkpt lat="48.772215005010366" lon="2.906324006617069">
        <ele>122.70999999999999</ele>
        <time>2018-07-10T07:53:17Z</time>
      </trkpt>
      <trkpt lat="48.771196017041802" lon="2.908271038904786">
        <ele>122.22</ele>
        <time>2018-07-10T07:53:24Z</time>
      </trkpt>
      <trkpt lat="48.769818032160401" lon="2.91090396232903">
        <ele>122.22</ele>
        <time>2018-07-10T07:53:35Z</time>
      </trkpt>
      <trkpt lat="48.76820501871407" lon="2.913983976468444">
        <ele>123.19</ele>
        <time>2018-07-10T07:53:48Z</time>
      </trkpt>
      <trkpt lat="48.766812030225992" lon="2.916611032560468">
        <ele>122.70999999999999</ele>
        <time>2018-07-10T07:53:59Z</time>
      </trkpt>
      <trkpt lat="48.765558013692498" lon="2.919008005410433">
        <ele>122.22</ele>
        <time>2018-07-10T07:54:09Z</time>
      </trkpt>
      <trkpt lat="48.764428971335292" lon="2.921168021857739">
        <ele>121.26000000000001</ele>
        <time>2018-07-10T07:54:18Z</time>
      </trkpt>
      <trkpt lat="48.763422975316644" lon="2.923092003911734">
        <ele>121.26000000000001</ele>
        <time>2018-07-10T07:54:26Z</time>
      </trkpt>
      <trkpt lat="48.76191096380353" lon="2.925983006134629">
        <ele>121.26000000000001</ele>
        <time>2018-07-10T07:54:38Z</time>
      </trkpt>
      <trkpt lat="48.760656025260687" lon="2.928381990641356">
        <ele>120.78</ele>
        <time>2018-07-10T07:54:48Z</time>
      </trkpt>
      <trkpt lat="48.759531006217003" lon="2.930532032623887">
        <ele>121.26000000000001</ele>
        <time>2018-07-10T07:54:57Z</time>
      </trkpt>
      <trkpt lat="48.758400036022067" lon="2.932694982737303">
        <ele>122.22</ele>
        <time>2018-07-10T07:55:06Z</time>
      </trkpt>
      <trkpt lat="48.75713998451829" lon="2.935104025527835">
        <ele>119.81999999999999</ele>
        <time>2018-07-10T07:55:16Z</time>
      </trkpt>
      <trkpt lat="48.755643982440233" lon="2.937968960031867">
        <ele>117.90000000000001</ele>
        <time>2018-07-10T07:55:28Z</time>
      </trkpt>
      <trkpt lat="48.753890991210937" lon="2.941338988021016">
        <ele>116.45999999999999</ele>
        <time>2018-07-10T07:55:42Z</time>
      </trkpt>
      <trkpt lat="48.752384008839726" lon="2.944238958880305">
        <ele>115.98</ele>
        <time>2018-07-10T07:55:54Z</time>
      </trkpt>
      <trkpt lat="48.750877026468515" lon="2.947103977203369">
        <ele>117.90000000000001</ele>
        <time>2018-07-10T07:56:06Z</time>
      </trkpt>
      <trkpt lat="48.749876981601119" lon="2.949024019762874">
        <ele>118.38</ele>
        <time>2018-07-10T07:56:14Z</time>
      </trkpt>
      <trkpt lat="48.747629960998893" lon="2.953341035172343">
        <ele>117.90000000000001</ele>
        <time>2018-07-10T07:56:32Z</time>
      </trkpt>
      <trkpt lat="48.745625009760261" lon="2.957194028422236">
        <ele>115.98</ele>
        <time>2018-07-10T07:56:48Z</time>
      </trkpt>
      <trkpt lat="48.744000010192394" lon="2.96031603589654">
        <ele>115.5</ele>
        <time>2018-07-10T07:57:01Z</time>
      </trkpt>
      <trkpt lat="48.742239978164434" lon="2.963650021702051">
        <ele>117.42</ele>
        <time>2018-07-10T07:57:15Z</time>
      </trkpt>
      <trkpt lat="48.740222034975886" lon="2.967483988031745">
        <ele>118.86</ele>
        <time>2018-07-10T07:57:31Z</time>
      </trkpt>
      <trkpt lat="48.737979959696531" lon="2.971845008432865">
        <ele>120.3</ele>
        <time>2018-07-10T07:57:49Z</time>
      </trkpt>
      <trkpt lat="48.73659904114902" lon="2.974865008145571">
        <ele>120.3</ele>
        <time>2018-07-10T07:58:01Z</time>
      </trkpt>
      <trkpt lat="48.735750038176775" lon="2.97795700840652">
        <ele>122.22</ele>
        <time>2018-07-10T07:58:12Z</time>
      </trkpt>
      <trkpt lat="48.735284004360437" lon="2.980807023122907">
        <ele>121.26000000000001</ele>
        <time>2018-07-10T07:58:22Z</time>
      </trkpt>
      <trkpt lat="48.735184008255601" lon="2.981872027739883">
        <ele>120.78</ele>
        <time>2018-07-10T07:58:28Z</time>
      </trkpt>
      <trkpt lat="48.735165987163782" lon="2.982285004109144">
        <ele>120.78</ele>
        <time>2018-07-10T07:58:35Z</time>
      </trkpt>
      <trkpt lat="48.735164981335402" lon="2.982314005494118">
        <ele>120.78</ele>
        <time>2018-07-10T07:58:46Z</time>
      </trkpt>
      <trkpt lat="48.735146960243583" lon="2.982755983248353">
        <ele>120.3</ele>
        <time>2018-07-10T07:58:54Z</time>
      </trkpt>
      <trkpt lat="48.73514000326395" lon="2.982933009043336">
        <ele>119.81999999999999</ele>
        <time>2018-07-10T07:59:03Z</time>
      </trkpt>
      <trkpt lat="48.735137991607189" lon="2.983002997934818">
        <ele>119.81999999999999</ele>
        <time>2018-07-10T07:59:27Z</time>
      </trkpt>
      <trkpt lat="48.735126005485654" lon="2.983485963195562">
        <ele>115.01000000000001</ele>
        <time>2018-07-10T07:59:43Z</time>
      </trkpt>
      <trkpt lat="48.735122988000512" lon="2.983634993433952">
        <ele>113.56999999999999</ele>
        <time>2018-07-10T07:59:57Z</time>
      </trkpt>
      <trkpt lat="48.735120976343751" lon="2.983704982325435">
        <ele>113.09</ele>
        <time>2018-07-10T08:00:05Z</time>
      </trkpt>
      <trkpt lat="48.735120976343751" lon="2.983733983710408">
        <ele>113.09</ele>
        <time>2018-07-10T08:00:06Z</time>
      </trkpt>
      <trkpt lat="48.73503003269434" lon="2.984269000589848">
        <ele>115.01000000000001</ele>
        <time>2018-07-10T08:00:20Z</time>
      </trkpt>
      <trkpt lat="48.734937999397516" lon="2.984638977795839">
        <ele>115.98</ele>
        <time>2018-07-10T08:00:29Z</time>
      </trkpt>
      <trkpt lat="48.734922995790839" lon="2.984697986394167">
        <ele>115.98</ele>
        <time>2018-07-10T08:00:30Z</time>
      </trkpt>
      <trkpt lat="48.734922995790839" lon="2.984697986394167">
        <ele>116.45999999999999</ele>
        <time>2018-07-10T08:00:31Z</time>
      </trkpt>
      <trkpt lat="48.734922995790839" lon="2.984697986394167">
        <ele>116.45999999999999</ele>
        <time>2018-07-10T08:00:32Z</time>
      </trkpt>
      <trkpt lat="48.734922995790839" lon="2.984697986394167">
        <ele>116.45999999999999</ele>
        <time>2018-07-10T08:00:33Z</time>
      </trkpt>
      <trkpt lat="48.734830962494016" lon="2.984735034406185">
        <ele>116.45999999999999</ele>
        <time>2018-07-10T08:00:35Z</time>
      </trkpt>
      <trkpt lat="48.734815958887339" lon="2.984740985557437">
        <ele>116.45999999999999</ele>
        <time>2018-07-10T08:00:36Z</time>
      </trkpt>
      <trkpt lat="48.734741024672985" lon="2.984847016632557">
        <ele>116.45999999999999</ele>
        <time>2018-07-10T08:00:37Z</time>
      </trkpt>
      <trkpt lat="48.734690984711051" lon="2.9849190171808">
        <ele>115.98</ele>
        <time>2018-07-10T08:00:38Z</time>
      </trkpt>
      <trkpt lat="48.734661983326077" lon="2.984993029385805">
        <ele>115.98</ele>
        <time>2018-07-10T08:00:39Z</time>
      </trkpt>
      <trkpt lat="48.734651003032923" lon="2.985104005783796">
        <ele>115.98</ele>
        <time>2018-07-10T08:00:40Z</time>
      </trkpt>
      <trkpt lat="48.734643962234259" lon="2.985169971361756">
        <ele>115.98</ele>
        <time>2018-07-10T08:00:41Z</time>
      </trkpt>
      <trkpt lat="48.734670029953122" lon="2.985266027972102">
        <ele>115.98</ele>
        <time>2018-07-10T08:00:42Z</time>
      </trkpt>
      <trkpt lat="48.734687967225909" lon="2.985332999378443">
        <ele>115.98</ele>
        <time>2018-07-10T08:00:43Z</time>
      </trkpt>
      <trkpt lat="48.734702970832586" lon="2.985386978834868">
        <ele>115.5</ele>
        <time>2018-07-10T08:00:44Z</time>
      </trkpt>
      <trkpt lat="48.734707999974489" lon="2.985406005755067">
        <ele>115.5</ele>
        <time>2018-07-10T08:00:45Z</time>
      </trkpt>
      <trkpt lat="48.734715040773153" lon="2.985525028780103">
        <ele>115.5</ele>
        <time>2018-07-10T08:00:46Z</time>
      </trkpt>
      <trkpt lat="48.734719986096025" lon="2.985610021278262">
        <ele>115.01000000000001</ele>
        <time>2018-07-10T08:00:47Z</time>
      </trkpt>
      <trkpt lat="48.734726021066308" lon="2.985719991847873">
        <ele>115.01000000000001</ele>
        <time>2018-07-10T08:00:48Z</time>
      </trkpt>
      <trkpt lat="48.73473297804594" lon="2.985845971852541">
        <ele>115.01000000000001</ele>
        <time>2018-07-10T08:00:49Z</time>
      </trkpt>
      <trkpt lat="48.734741024672985" lon="2.985990978777409">
        <ele>115.01000000000001</ele>
        <time>2018-07-10T08:00:50Z</time>
      </trkpt>
      <trkpt lat="48.734749993309379" lon="2.986150989308953">
        <ele>114.53</ele>
        <time>2018-07-10T08:00:51Z</time>
      </trkpt>
      <trkpt lat="48.734614960849285" lon="2.987701976671815">
        <ele>114.05</ele>
        <time>2018-07-10T08:00:58Z</time>
      </trkpt>
      <trkpt lat="48.734314972534776" lon="2.990030972287059">
        <ele>115.01000000000001</ele>
        <time>2018-07-10T08:01:06Z</time>
      </trkpt>
      <trkpt lat="48.733847010880709" lon="2.993721021339297">
        <ele>115.5</ele>
        <time>2018-07-10T08:01:18Z</time>
      </trkpt>
      <trkpt lat="48.733309982344508" lon="2.997920019552112">
        <ele>115.98</ele>
        <time>2018-07-10T08:01:32Z</time>
      </trkpt>
      <trkpt lat="48.732888037338853" lon="3.00122600980103">
        <ele>115.5</ele>
        <time>2018-07-10T08:01:43Z</time>
      </trkpt>
      <trkpt lat="48.732221005484462" lon="3.006336037069559">
        <ele>116.94</ele>
        <time>2018-07-10T08:02:00Z</time>
      </trkpt>
      <trkpt lat="48.731690011918545" lon="3.010552972555161">
        <ele>115.98</ele>
        <time>2018-07-10T08:02:14Z</time>
      </trkpt>
      <trkpt lat="48.731262031942606" lon="3.013871032744646">
        <ele>113.09</ele>
        <time>2018-07-10T08:02:25Z</time>
      </trkpt>
      <trkpt lat="48.730760961771011" lon="3.017132012173533">
        <ele>109.25</ele>
        <time>2018-07-10T08:02:36Z</time>
      </trkpt>
      <trkpt lat="48.730084039270878" lon="3.019003020599484">
        <ele>108.29000000000001</ele>
        <time>2018-07-10T08:02:43Z</time>
      </trkpt>
      <trkpt lat="48.728978969156742" lon="3.020812002941966">
        <ele>105.40000000000001</ele>
        <time>2018-07-10T08:02:51Z</time>
      </trkpt>
      <trkpt lat="48.727804999798536" lon="3.022670019418001">
        <ele>100.11</ele>
        <time>2018-07-10T08:02:59Z</time>
      </trkpt>
      <trkpt lat="48.725410038605332" lon="3.026404995471239">
        <ele>94.829999999999998</ele>
        <time>2018-07-10T08:03:16Z</time>
      </trkpt>
      <trkpt lat="48.723458983004093" lon="3.029446033760905">
        <ele>94.349999999999994</ele>
        <time>2018-07-10T08:03:30Z</time>
      </trkpt>
      <trkpt lat="48.722191974520683" lon="3.031429024413228">
        <ele>101.56</ele>
        <time>2018-07-10T08:03:40Z</time>
      </trkpt>
      <trkpt lat="48.721383037045598" lon="3.032698966562748">
        <ele>105.40000000000001</ele>
        <time>2018-07-10T08:03:47Z</time>
      </trkpt>
      <trkpt lat="48.720459016039968" lon="3.034137971699238">
        <ele>113.09</ele>
        <time>2018-07-10T08:03:59Z</time>
      </trkpt>
      <trkpt lat="48.719491995871067" lon="3.035651994869113">
        <ele>114.53</ele>
        <time>2018-07-10T08:04:10Z</time>
      </trkpt>
      <trkpt lat="48.718455992639065" lon="3.037281017750502">
        <ele>114.53</ele>
        <time>2018-07-10T08:04:20Z</time>
      </trkpt>
      <trkpt lat="48.717260984703898" lon="3.039169041439891">
        <ele>112.13</ele>
        <time>2018-07-10T08:04:30Z</time>
      </trkpt>
      <trkpt lat="48.715713014826179" lon="3.041572971269488">
        <ele>113.56999999999999</ele>
        <time>2018-07-10T08:04:40Z</time>
      </trkpt>
      <trkpt lat="48.713446967303753" lon="3.045139973983169">
        <ele>117.42</ele>
        <time>2018-07-10T08:04:56Z</time>
      </trkpt>
      <trkpt lat="48.71075201779604" lon="3.049334026873112">
        <ele>123.19</ele>
        <time>2018-07-10T08:05:15Z</time>
      </trkpt>
      <trkpt lat="48.708770032972097" lon="3.052418986335397">
        <ele>126.06999999999999</ele>
        <time>2018-07-10T08:05:29Z</time>
      </trkpt>
      <trkpt lat="48.707755990326405" lon="3.053996041417122">
        <ele>128.47</ele>
        <time>2018-07-10T08:05:35Z</time>
      </trkpt>
      <trkpt lat="48.706044992431998" lon="3.0566790048033">
        <ele>130.88</ele>
        <time>2018-07-10T08:05:46Z</time>
      </trkpt>
      <trkpt lat="48.703314000740647" lon="3.06099602021277">
        <ele>121.73999999999999</ele>
        <time>2018-07-10T08:06:05Z</time>
      </trkpt>
      <trkpt lat="48.700592983514071" lon="3.065290991216898">
        <ele>107.81</ele>
        <time>2018-07-10T08:06:24Z</time>
      </trkpt>
      <trkpt lat="48.698170026764274" lon="3.069110959768295">
        <ele>107.31999999999999</ele>
        <time>2018-07-10T08:06:41Z</time>
      </trkpt>
      <trkpt lat="48.695898028090596" lon="3.072695983573794">
        <ele>115.5</ele>
        <time>2018-07-10T08:06:57Z</time>
      </trkpt>
      <trkpt lat="48.694294989109039" lon="3.075536023825407">
        <ele>115.5</ele>
        <time>2018-07-10T08:07:09Z</time>
      </trkpt>
      <trkpt lat="48.693835996091366" lon="3.077597972005606">
        <ele>112.61</ele>
        <time>2018-07-10T08:07:17Z</time>
      </trkpt>
      <trkpt lat="48.693120013922453" lon="3.081182995811105">
        <ele>113.56999999999999</ele>
        <time>2018-07-10T08:07:31Z</time>
      </trkpt>
      <trkpt lat="48.692401014268398" lon="3.084769025444984">
        <ele>113.09</ele>
        <time>2018-07-10T08:07:45Z</time>
      </trkpt>
      <trkpt lat="48.69167597964406" lon="3.087233975529671">
        <ele>114.05</ele>
        <time>2018-07-10T08:07:55Z</time>
      </trkpt>
      <trkpt lat="48.690508967265487" lon="3.090018024668098">
        <ele>113.09</ele>
        <time>2018-07-10T08:08:06Z</time>
      </trkpt>
      <trkpt lat="48.688921015709639" lon="3.093431973829866">
        <ele>111.65000000000001</ele>
        <time>2018-07-10T08:08:20Z</time>
      </trkpt>
      <trkpt lat="48.688068995252252" lon="3.096101023256779">
        <ele>111.65000000000001</ele>
        <time>2018-07-10T08:08:30Z</time>
      </trkpt>
      <trkpt lat="48.687315965071321" lon="3.099464010447264">
        <ele>112.13</ele>
        <time>2018-07-10T08:08:42Z</time>
      </trkpt>
      <trkpt lat="48.687098035588861" lon="3.102235989645124">
        <ele>114.05</ele>
        <time>2018-07-10T08:08:52Z</time>
      </trkpt>
      <trkpt lat="48.687037015333772" lon="3.103042999282479">
        <ele>115.98</ele>
        <time>2018-07-10T08:08:57Z</time>
      </trkpt>
      <trkpt lat="48.687030980363488" lon="3.103134026750922">
        <ele>115.98</ele>
        <time>2018-07-10T08:08:58Z</time>
      </trkpt>
      <trkpt lat="48.686898965388536" lon="3.103166967630386">
        <ele>115.98</ele>
        <time>2018-07-10T08:08:59Z</time>
      </trkpt>
      <trkpt lat="48.686829982325435" lon="3.103224970400333">
        <ele>116.45999999999999</ele>
        <time>2018-07-10T08:09:00Z</time>
      </trkpt>
      <trkpt lat="48.686740966513753" lon="3.103356985375285">
        <ele>116.45999999999999</ele>
        <time>2018-07-10T08:09:01Z</time>
      </trkpt>
      <trkpt lat="48.686708025634289" lon="3.103444995358586">
        <ele>116.45999999999999</ele>
        <time>2018-07-10T08:09:02Z</time>
      </trkpt>
      <trkpt lat="48.686627978459001" lon="3.103679018095136">
        <ele>116.45999999999999</ele>
        <time>2018-07-10T08:09:03Z</time>
      </trkpt>
      <trkpt lat="48.686512978747487" lon="3.103708019480109">
        <ele>116.94</ele>
        <time>2018-07-10T08:09:04Z</time>
      </trkpt>
      <trkpt lat="48.686394961550832" lon="3.103749006986618">
        <ele>116.94</ele>
        <time>2018-07-10T08:09:05Z</time>
      </trkpt>
      <trkpt lat="48.686268981546164" lon="3.103809021413326">
        <ele>116.94</ele>
        <time>2018-07-10T08:09:06Z</time>
      </trkpt>
      <trkpt lat="48.685160977765918" lon="3.104324005544186">
        <ele>118.38</ele>
        <time>2018-07-10T08:09:13Z</time>
      </trkpt>
      <trkpt lat="48.683665981516242" lon="3.10502297244966">
        <ele>116.94</ele>
        <time>2018-07-10T08:09:23Z</time>
      </trkpt>
      <trkpt lat="48.683349983766675" lon="3.105138977989554">
        <ele>116.94</ele>
        <time>2018-07-10T08:09:26Z</time>
      </trkpt>
      <trkpt lat="48.683276977390051" lon="3.105165967717767">
        <ele>117.42</ele>
        <time>2018-07-10T08:09:27Z</time>
      </trkpt>
      <trkpt lat="48.683173963800073" lon="3.10508499853313">
        <ele>117.42</ele>
        <time>2018-07-10T08:09:28Z</time>
      </trkpt>
      <trkpt lat="48.683055024594069" lon="3.104919036850333">
        <ele>117.42</ele>
        <time>2018-07-10T08:09:30Z</time>
      </trkpt>
      <trkpt lat="48.6829739715904" lon="3.104897998273373">
        <ele>117.42</ele>
        <time>2018-07-10T08:09:31Z</time>
      </trkpt>
      <trkpt lat="48.68286601267755" lon="3.104919958859682">
        <ele>117.90000000000001</ele>
        <time>2018-07-10T08:09:32Z</time>
      </trkpt>
      <trkpt lat="48.682794012129307" lon="3.104980979114771">
        <ele>117.90000000000001</ele>
        <time>2018-07-10T08:09:33Z</time>
      </trkpt>
      <trkpt lat="48.682727962732315" lon="3.105090027675033">
        <ele>118.38</ele>
        <time>2018-07-10T08:09:34Z</time>
      </trkpt>
      <trkpt lat="48.682687981054187" lon="3.105190023779869">
        <ele>118.38</ele>
        <time>2018-07-10T08:09:35Z</time>
      </trkpt>
      <trkpt lat="48.68269301019609" lon="3.105351040139794">
        <ele>118.38</ele>
        <time>2018-07-10T08:09:36Z</time>
      </trkpt>
      <trkpt lat="48.68271597661078" lon="3.105505015701056">
        <ele>118.38</ele>
        <time>2018-07-10T08:09:37Z</time>
      </trkpt>
      <trkpt lat="48.68271597661078" lon="3.105634013190866">
        <ele>118.38</ele>
        <time>2018-07-10T08:09:38Z</time>
      </trkpt>
      <trkpt lat="48.682652022689581" lon="3.105782959610224">
        <ele>117.90000000000001</ele>
        <time>2018-07-10T08:09:39Z</time>
      </trkpt>
      <trkpt lat="48.682583961635828" lon="3.105929978191853">
        <ele>117.90000000000001</ele>
        <time>2018-07-10T08:09:40Z</time>
      </trkpt>
      <trkpt lat="48.681841995567083" lon="3.10753301717341">
        <ele>118.86</ele>
        <time>2018-07-10T08:09:48Z</time>
      </trkpt>
      <trkpt lat="48.680526958778501" lon="3.109394973143935">
        <ele>121.26000000000001</ele>
        <time>2018-07-10T08:09:57Z</time>
      </trkpt>
      <trkpt lat="48.677755985409021" lon="3.113158028572798">
        <ele>125.59</ele>
        <time>2018-07-10T08:10:16Z</time>
      </trkpt>
      <trkpt lat="48.67525901645422" lon="3.116521015763283">
        <ele>132.80000000000001</ele>
        <time>2018-07-10T08:10:33Z</time>
      </trkpt>
      <trkpt lat="48.673655977472663" lon="3.119154023006558">
        <ele>132.31999999999999</ele>
        <time>2018-07-10T08:10:45Z</time>
      </trkpt>
      <trkpt lat="48.672376982867718" lon="3.122517010197043">
        <ele>127.51000000000001</ele>
        <time>2018-07-10T08:10:58Z</time>
      </trkpt>
      <trkpt lat="48.671154985204339" lon="3.125893995165825">
        <ele>126.55</ele>
        <time>2018-07-10T08:11:11Z</time>
      </trkpt>
      <trkpt lat="48.669816982001066" lon="3.129631988704205">
        <ele>128.94999999999999</ele>
        <time>2018-07-10T08:11:26Z</time>
      </trkpt>
      <trkpt lat="48.669228991493583" lon="3.131333012133837">
        <ele>128.94999999999999</ele>
        <time>2018-07-10T08:11:36Z</time>
      </trkpt>
      <trkpt lat="48.669188003987074" lon="3.131456980481744">
        <ele>128.94999999999999</ele>
        <time>2018-07-10T08:11:37Z</time>
      </trkpt>
      <trkpt lat="48.66905297152698" lon="3.131553959101439">
        <ele>128.47</ele>
        <time>2018-07-10T08:11:38Z</time>
      </trkpt>
      <trkpt lat="48.668940989300609" lon="3.131553959101439">
        <ele>128.47</ele>
        <time>2018-07-10T08:11:39Z</time>
      </trkpt>
      <trkpt lat="48.66890100762248" lon="3.131652027368546">
        <ele>127.98999999999999</ele>
        <time>2018-07-10T08:11:40Z</time>
      </trkpt>
      <trkpt lat="48.668862031772733" lon="3.131752023473382">
        <ele>127.98999999999999</ele>
        <time>2018-07-10T08:11:41Z</time>
      </trkpt>
      <trkpt lat="48.668871000409126" lon="3.131898958235979">
        <ele>128.47</ele>
        <time>2018-07-10T08:11:42Z</time>
      </trkpt>
      <trkpt lat="48.668909976258874" lon="3.132009012624621">
        <ele>127.98999999999999</ele>
        <time>2018-07-10T08:11:43Z</time>
      </trkpt>
      <trkpt lat="48.668982982635498" lon="3.132077995687723">
        <ele>128.47</ele>
        <time>2018-07-10T08:11:44Z</time>
      </trkpt>
      <trkpt lat="48.669048026204109" lon="3.132090987637639">
        <ele>128.47</ele>
        <time>2018-07-10T08:11:45Z</time>
      </trkpt>
      <trkpt lat="48.66915799677372" lon="3.13204899430275">
        <ele>128.47</ele>
        <time>2018-07-10T08:11:46Z</time>
      </trkpt>
      <trkpt lat="48.669251035898924" lon="3.132101967930794">
        <ele>128.47</ele>
        <time>2018-07-10T08:11:47Z</time>
      </trkpt>
      <trkpt lat="48.669355977326632" lon="3.132161982357502">
        <ele>128.47</ele>
        <time>2018-07-10T08:11:48Z</time>
      </trkpt>
      <trkpt lat="48.670375971123576" lon="3.132934961467981">
        <ele>127.98999999999999</ele>
        <time>2018-07-10T08:11:55Z</time>
      </trkpt>
      <trkpt lat="48.672248991206288" lon="3.134406991302967">
        <ele>127.51000000000001</ele>
        <time>2018-07-10T08:12:05Z</time>
      </trkpt>
      <trkpt lat="48.67508701980114" lon="3.136602966114879">
        <ele>137.13</ele>
        <time>2018-07-10T08:12:20Z</time>
      </trkpt>
      <trkpt lat="48.678096039220691" lon="3.138948976993561">
        <ele>136.16</ele>
        <time>2018-07-10T08:12:36Z</time>
      </trkpt>
      <trkpt lat="48.680989975109696" lon="3.141217036172748">
        <ele>128.94999999999999</ele>
        <time>2018-07-10T08:12:51Z</time>
      </trkpt>
      <trkpt lat="48.683489039540291" lon="3.143174964934588">
        <ele>125.11</ele>
        <time>2018-07-10T08:13:05Z</time>
      </trkpt>
      <trkpt lat="48.687218986451626" lon="3.146105026826263">
        <ele>126.06999999999999</ele>
        <time>2018-07-10T08:13:26Z</time>
      </trkpt>
      <trkpt lat="48.688867958262563" lon="3.147400030866265">
        <ele>132.80000000000001</ele>
        <time>2018-07-10T08:13:36Z</time>
      </trkpt>
      <trkpt lat="48.689226033166051" lon="3.147680992260575">
        <ele>134.24000000000001</ele>
        <time>2018-07-10T08:13:39Z</time>
      </trkpt>
      <trkpt lat="48.689324017614126" lon="3.147758021950722">
        <ele>134.72</ele>
        <time>2018-07-10T08:13:40Z</time>
      </trkpt>
      <trkpt lat="48.689420996233821" lon="3.147834967821837">
        <ele>135.19999999999999</ele>
        <time>2018-07-10T08:13:41Z</time>
      </trkpt>
      <trkpt lat="48.689516969025135" lon="3.147909985855222">
        <ele>135.68000000000001</ele>
        <time>2018-07-10T08:13:42Z</time>
      </trkpt>
      <trkpt lat="48.6896120198071" lon="3.147983998060226">
        <ele>136.63999999999999</ele>
        <time>2018-07-10T08:13:43Z</time>
      </trkpt>
      <trkpt lat="48.69023596867919" lon="3.148572994396091">
        <ele>141.93000000000001</ele>
        <time>2018-07-10T08:13:51Z</time>
      </trkpt>
      <trkpt lat="48.690371001139283" lon="3.148684976622462">
        <ele>143.37</ele>
        <time>2018-07-10T08:13:54Z</time>
      </trkpt>
      <trkpt lat="48.690459011122584" lon="3.148740967735648">
        <ele>143.84999999999999</ele>
        <time>2018-07-10T08:13:56Z</time>
      </trkpt>
      <trkpt lat="48.69053503498435" lon="3.148863008245826">
        <ele>143.84999999999999</ele>
        <time>2018-07-10T08:13:57Z</time>
      </trkpt>
      <trkpt lat="48.690542997792363" lon="3.148951018229127">
        <ele>144.34</ele>
        <time>2018-07-10T08:13:58Z</time>
      </trkpt>
      <trkpt lat="48.690553978085518" lon="3.149063000455499">
        <ele>144.81999999999999</ele>
        <time>2018-07-10T08:13:59Z</time>
      </trkpt>
      <trkpt lat="48.690566970035434" lon="3.149200966581702">
        <ele>145.30000000000001</ele>
        <time>2018-07-10T08:14:00Z</time>
      </trkpt>
      <trkpt lat="48.690581973642111" lon="3.149360977113247">
        <ele>145.30000000000001</ele>
        <time>2018-07-10T08:14:01Z</time>
      </trkpt>
      <trkpt lat="48.690737960860133" lon="3.150976002216339">
        <ele>145.30000000000001</ele>
        <time>2018-07-10T08:14:08Z</time>
      </trkpt>
      <trkpt lat="48.69101095944643" lon="3.153887959197164">
        <ele>143.37</ele>
        <time>2018-07-10T08:14:17Z</time>
      </trkpt>
      <trkpt lat="48.691273983567953" lon="3.156683994457126">
        <ele>140.49000000000001</ele>
        <time>2018-07-10T08:14:26Z</time>
      </trkpt>
      <trkpt lat="48.691807994619012" lon="3.162230970337987">
        <ele>138.56999999999999</ele>
        <time>2018-07-10T08:14:45Z</time>
      </trkpt>
      <trkpt lat="48.692160034552217" lon="3.166056973859668">
        <ele>147.22</ele>
        <time>2018-07-10T08:14:58Z</time>
      </trkpt>
      <trkpt lat="48.692559013143182" lon="3.17046501673758">
        <ele>154.91</ele>
        <time>2018-07-10T08:15:13Z</time>
      </trkpt>
      <trkpt lat="48.692606035619974" lon="3.173473030328751">
        <ele>154.91</ele>
        <time>2018-07-10T08:15:23Z</time>
      </trkpt>
      <trkpt lat="48.692589020356536" lon="3.179383026435971">
        <ele>153.94999999999999</ele>
        <time>2018-07-10T08:15:43Z</time>
      </trkpt>
      <trkpt lat="48.692587008699775" lon="3.184740990400314">
        <ele>160.19999999999999</ele>
        <time>2018-07-10T08:16:01Z</time>
      </trkpt>
      <trkpt lat="48.692586002871394" lon="3.189516998827457">
        <ele>159.72</ele>
        <time>2018-07-10T08:16:17Z</time>
      </trkpt>
      <trkpt lat="48.69257896207273" lon="3.194276997819543">
        <ele>157.78999999999999</ele>
        <time>2018-07-10T08:16:33Z</time>
      </trkpt>
      <trkpt lat="48.692573010921478" lon="3.198130996897817">
        <ele>159.24000000000001</ele>
        <time>2018-07-10T08:16:45Z</time>
      </trkpt>
      <trkpt lat="48.692559013143182" lon="3.204116011038423">
        <ele>163.56</ele>
        <time>2018-07-10T08:17:01Z</time>
      </trkpt>
      <trkpt lat="48.692544009536505" lon="3.207890968769789">
        <ele>163.56</ele>
        <time>2018-07-10T08:17:12Z</time>
      </trkpt>
      <trkpt lat="48.692544009536505" lon="3.213238958269358">
        <ele>159.72</ele>
        <time>2018-07-10T08:17:30Z</time>
      </trkpt>
      <trkpt lat="48.692522970959544" lon="3.216901011765003">
        <ele>159.72</ele>
        <time>2018-07-10T08:17:43Z</time>
      </trkpt>
      <trkpt lat="48.692638976499438" lon="3.219825960695744">
        <ele>163.56</ele>
        <time>2018-07-10T08:17:54Z</time>
      </trkpt>
      <trkpt lat="48.693156978115439" lon="3.221843987703323">
        <ele>162.12</ele>
        <time>2018-07-10T08:18:01Z</time>
      </trkpt>
      <trkpt lat="48.694292977452278" lon="3.225891022011638">
        <ele>158.75</ele>
        <time>2018-07-10T08:18:13Z</time>
      </trkpt>
      <trkpt lat="48.69509001262486" lon="3.22879702784121">
        <ele>153.47</ele>
        <time>2018-07-10T08:18:23Z</time>
      </trkpt>
      <trkpt lat="48.696219976991415" lon="3.232838027179241">
        <ele>147.69999999999999</ele>
        <time>2018-07-10T08:18:38Z</time>
      </trkpt>
      <trkpt lat="48.696780977770686" lon="3.234886983409524">
        <ele>140.49000000000001</ele>
        <time>2018-07-10T08:18:47Z</time>
      </trkpt>
      <trkpt lat="48.697348013520241" lon="3.236910961568356">
        <ele>138.56999999999999</ele>
        <time>2018-07-10T08:18:58Z</time>
      </trkpt>
      <trkpt lat="48.698068019002676" lon="3.239479009062052">
        <ele>142.88999999999999</ele>
        <time>2018-07-10T08:19:13Z</time>
      </trkpt>
      <trkpt lat="48.698766985908151" lon="3.241954017430544">
        <ele>144.81999999999999</ele>
        <time>2018-07-10T08:19:27Z</time>
      </trkpt>
      <trkpt lat="48.699540970847011" lon="3.244679979979992">
        <ele>143.84999999999999</ele>
        <time>2018-07-10T08:19:42Z</time>
      </trkpt>
      <trkpt lat="48.700173972174525" lon="3.246977040544152">
        <ele>146.25999999999999</ele>
        <time>2018-07-10T08:19:55Z</time>
      </trkpt>
      <trkpt lat="48.700948962941766" lon="3.249398991465569">
        <ele>140.00999999999999</ele>
        <time>2018-07-10T08:20:07Z</time>
      </trkpt>
      <trkpt lat="48.701488003134727" lon="3.251639977097511">
        <ele>135.19999999999999</ele>
        <time>2018-07-10T08:20:17Z</time>
      </trkpt>
      <trkpt lat="48.701481968164444" lon="3.2521309889853">
        <ele>135.19999999999999</ele>
        <time>2018-07-10T08:20:19Z</time>
      </trkpt>
      <trkpt lat="48.70119396597147" lon="3.254541037604213">
        <ele>139.53</ele>
        <time>2018-07-10T08:20:28Z</time>
      </trkpt>
      <trkpt lat="48.70080697350204" lon="3.25713599100709">
        <ele>148.18000000000001</ele>
        <time>2018-07-10T08:20:36Z</time>
      </trkpt>
      <trkpt lat="48.700181012973189" lon="3.261355021968484">
        <ele>152.03</ele>
        <time>2018-07-10T08:20:50Z</time>
      </trkpt>
      <trkpt lat="48.699703998863697" lon="3.26461398974061">
        <ele>142.41</ele>
        <time>2018-07-10T08:21:02Z</time>
      </trkpt>
      <trkpt lat="48.699144003912807" lon="3.268436975777149">
        <ele>136.63999999999999</ele>
        <time>2018-07-10T08:21:17Z</time>
      </trkpt>
      <trkpt lat="48.698690962046385" lon="3.271539034321904">
        <ele>134.72</ele>
        <time>2018-07-10T08:21:28Z</time>
      </trkpt>
      <trkpt lat="48.697855034843087" lon="3.277081986889243">
        <ele>139.53</ele>
        <time>2018-07-10T08:21:47Z</time>
      </trkpt>
      <trkpt lat="48.697223039343953" lon="3.281773002818227">
        <ele>149.13999999999999</ele>
        <time>2018-07-10T08:22:03Z</time>
      </trkpt>
      <trkpt lat="48.697136035189033" lon="3.285040017217398">
        <ele>149.13999999999999</ele>
        <time>2018-07-10T08:22:14Z</time>
      </trkpt>
      <trkpt lat="48.697148021310568" lon="3.286299984902144">
        <ele>147.22</ele>
        <time>2018-07-10T08:22:20Z</time>
      </trkpt>
      <trkpt lat="48.697156989946961" lon="3.288326980546117">
        <ele>140.97</ele>
        <time>2018-07-10T08:22:34Z</time>
      </trkpt>
      <trkpt lat="48.697156989946961" lon="3.290811041370034">
        <ele>140.49000000000001</ele>
        <time>2018-07-10T08:22:50Z</time>
      </trkpt>
      <trkpt lat="48.697062022984028" lon="3.292996035888791">
        <ele>139.53</ele>
        <time>2018-07-10T08:23:03Z</time>
      </trkpt>
      <trkpt lat="48.696841998025775" lon="3.294752966612577">
        <ele>140.97</ele>
        <time>2018-07-10T08:23:10Z</time>
      </trkpt>
      <trkpt lat="48.69642399251461" lon="3.297714963555336">
        <ele>141.93000000000001</ele>
        <time>2018-07-10T08:23:20Z</time>
      </trkpt>
      <trkpt lat="48.695986038073897" lon="3.30081501044333">
        <ele>145.78</ele>
        <time>2018-07-10T08:23:31Z</time>
      </trkpt>
      <trkpt lat="48.695595022290945" lon="3.30358698964119">
        <ele>145.30000000000001</ele>
        <time>2018-07-10T08:23:41Z</time>
      </trkpt>
      <trkpt lat="48.695212975144386" lon="3.306250004097819">
        <ele>142.88999999999999</ele>
        <time>2018-07-10T08:23:50Z</time>
      </trkpt>
      <trkpt lat="48.694784995168447" lon="3.309351978823543">
        <ele>141.93000000000001</ele>
        <time>2018-07-10T08:24:00Z</time>
      </trkpt>
      <trkpt lat="48.694312004372478" lon="3.312740027904511">
        <ele>146.25999999999999</ele>
        <time>2018-07-10T08:24:12Z</time>
      </trkpt>
      <trkpt lat="48.6938860360533" lon="3.315788023173809">
        <ele>148.18000000000001</ele>
        <time>2018-07-10T08:24:24Z</time>
      </trkpt>
      <trkpt lat="48.693456966429949" lon="3.318811962381005">
        <ele>145.30000000000001</ele>
        <time>2018-07-10T08:24:35Z</time>
      </trkpt>
      <trkpt lat="48.693255968391895" lon="3.320229006931186">
        <ele>147.22</ele>
        <time>2018-07-10T08:24:42Z</time>
      </trkpt>
      <trkpt lat="48.693225961178541" lon="3.320440985262394">
        <ele>148.18000000000001</ele>
        <time>2018-07-10T08:24:44Z</time>
      </trkpt>
      <trkpt lat="48.693216992542148" lon="3.320505023002625">
        <ele>148.18000000000001</ele>
        <time>2018-07-10T08:24:45Z</time>
      </trkpt>
      <trkpt lat="48.693211041390896" lon="3.320545004680753">
        <ele>148.66</ele>
        <time>2018-07-10T08:24:46Z</time>
      </trkpt>
      <trkpt lat="48.693207018077374" lon="3.320573000237346">
        <ele>148.66</ele>
        <time>2018-07-10T08:24:47Z</time>
      </trkpt>
      <trkpt lat="48.693204000592232" lon="3.320595966652036">
        <ele>148.66</ele>
        <time>2018-07-10T08:24:48Z</time>
      </trkpt>
      <trkpt lat="48.693199977278709" lon="3.320620022714138">
        <ele>149.13999999999999</ele>
        <time>2018-07-10T08:24:49Z</time>
      </trkpt>
      <trkpt lat="48.693199977278709" lon="3.320620022714138">
        <ele>148.66</ele>
        <time>2018-07-10T08:24:50Z</time>
      </trkpt>
      <trkpt lat="48.693196037784219" lon="3.320648018270731">
        <ele>148.66</ele>
        <time>2018-07-10T08:24:59Z</time>
      </trkpt>
      <trkpt lat="48.693191008642316" lon="3.320681964978576">
        <ele>148.66</ele>
        <time>2018-07-10T08:25:00Z</time>
      </trkpt>
      <trkpt lat="48.693182040005922" lon="3.320744996890426">
        <ele>148.18000000000001</ele>
        <time>2018-07-10T08:25:01Z</time>
      </trkpt>
      <trkpt lat="48.693097969517112" lon="3.321343967691064">
        <ele>146.74000000000001</ele>
        <time>2018-07-10T08:25:08Z</time>
      </trkpt>
      <trkpt lat="48.693070979788899" lon="3.321531973779202">
        <ele>145.78</ele>
        <time>2018-07-10T08:25:17Z</time>
      </trkpt>
      <trkpt lat="48.693020017817616" lon="3.321887031197548">
        <ele>144.81999999999999</ele>
        <time>2018-07-10T08:25:26Z</time>
      </trkpt>
      <trkpt lat="48.69300602003932" lon="3.321988033130765">
        <ele>143.84999999999999</ele>
        <time>2018-07-10T08:25:36Z</time>
      </trkpt>
      <trkpt lat="48.69300602003932" lon="3.321988033130765">
        <ele>143.84999999999999</ele>
        <time>2018-07-10T08:26:05Z</time>
      </trkpt>
      <trkpt lat="48.69300602003932" lon="3.321988033130765">
        <ele>142.88999999999999</ele>
        <time>2018-07-10T08:26:59Z</time>
      </trkpt>
      <trkpt lat="48.69300602003932" lon="3.321988033130765">
        <ele>142.88999999999999</ele>
        <time>2018-07-10T08:27:52Z</time>
      </trkpt>
      <trkpt lat="48.692993028089404" lon="3.322083000093699">
        <ele>142.88999999999999</ele>
        <time>2018-07-10T08:28:32Z</time>
      </trkpt>
      <trkpt lat="48.692978024482727" lon="3.322187019512057">
        <ele>142.88999999999999</ele>
        <time>2018-07-10T08:28:33Z</time>
      </trkpt>
      <trkpt lat="48.692811978980899" lon="3.323359983041883">
        <ele>142.41</ele>
        <time>2018-07-10T08:28:39Z</time>
      </trkpt>
      <trkpt lat="48.692775014787912" lon="3.323616972193122">
        <ele>142.41</ele>
        <time>2018-07-10T08:28:40Z</time>
      </trkpt>
      <trkpt lat="48.692394979298115" lon="3.326301025226712">
        <ele>147.22</ele>
        <time>2018-07-10T08:28:49Z</time>
      </trkpt>
      <trkpt lat="48.691746974363923" lon="3.330963961780071">
        <ele>155.38999999999999</ele>
        <time>2018-07-10T08:29:03Z</time>
      </trkpt>
      <trkpt lat="48.691028980538249" lon="3.336270041763783">
        <ele>161.63999999999999</ele>
        <time>2018-07-10T08:29:18Z</time>
      </trkpt>
      <trkpt lat="48.690907023847103" lon="3.338996004313231">
        <ele>164.52000000000001</ele>
        <time>2018-07-10T08:29:26Z</time>
      </trkpt>
      <trkpt lat="48.691001990810037" lon="3.343186033889651">
        <ele>161.16</ele>
        <time>2018-07-10T08:29:38Z</time>
      </trkpt>
      <trkpt lat="48.691168958321214" lon="3.349182028323412">
        <ele>157.31</ele>
        <time>2018-07-10T08:29:55Z</time>
      </trkpt>
      <trkpt lat="48.691311031579971" lon="3.354482995346189">
        <ele>153.47</ele>
        <time>2018-07-10T08:30:09Z</time>
      </trkpt>
      <trkpt lat="48.691483028233051" lon="3.360933037474752">
        <ele>151.53999999999999</ele>
        <time>2018-07-10T08:30:26Z</time>
      </trkpt>
      <trkpt lat="48.691664999350905" lon="3.367710979655385">
        <ele>151.06</ele>
        <time>2018-07-10T08:30:44Z</time>
      </trkpt>
      <trkpt lat="48.691849987953901" lon="3.374581960961223">
        <ele>147.22</ele>
        <time>2018-07-10T08:31:02Z</time>
      </trkpt>
      <trkpt lat="48.692021984606981" lon="3.38121498003602">
        <ele>149.13999999999999</ele>
        <time>2018-07-10T08:31:20Z</time>
      </trkpt>
      <trkpt lat="48.692200016230345" lon="3.38817598298192">
        <ele>150.58000000000001</ele>
        <time>2018-07-10T08:31:39Z</time>
      </trkpt>
      <trkpt lat="48.692262964323163" lon="3.390239020809531">
        <ele>151.53999999999999</ele>
        <time>2018-07-10T08:31:46Z</time>
      </trkpt>
      <trkpt lat="48.692372012883425" lon="3.394327964633703">
        <ele>151.06</ele>
        <time>2018-07-10T08:32:02Z</time>
      </trkpt>
      <trkpt lat="48.692424986511469" lon="3.396282037720084">
        <ele>152.50999999999999</ele>
        <time>2018-07-10T08:32:11Z</time>
      </trkpt>
      <trkpt lat="48.692428003996611" lon="3.396410029381514">
        <ele>152.99000000000001</ele>
        <time>2018-07-10T08:32:12Z</time>
      </trkpt>
      <trkpt lat="48.692430015653372" lon="3.396499967202544">
        <ele>152.99000000000001</ele>
        <time>2018-07-10T08:32:13Z</time>
      </trkpt>
      <trkpt lat="48.692432027310133" lon="3.396570039913058">
        <ele>152.99000000000001</ele>
        <time>2018-07-10T08:32:14Z</time>
      </trkpt>
      <trkpt lat="48.692433033138514" lon="3.396624019369483">
        <ele>152.99000000000001</ele>
        <time>2018-07-10T08:32:15Z</time>
      </trkpt>
      <trkpt lat="48.692569993436337" lon="3.396731978282332">
        <ele>152.99000000000001</ele>
        <time>2018-07-10T08:32:16Z</time>
      </trkpt>
      <trkpt lat="48.692631013691425" lon="3.396714041009545">
        <ele>152.99000000000001</ele>
        <time>2018-07-10T08:32:17Z</time>
      </trkpt>
      <trkpt lat="48.692695973441005" lon="3.396695014089346">
        <ele>152.99000000000001</ele>
        <time>2018-07-10T08:32:18Z</time>
      </trkpt>
      <trkpt lat="48.692761017009616" lon="3.396676992997527">
        <ele>152.99000000000001</ele>
        <time>2018-07-10T08:32:19Z</time>
      </trkpt>
      <trkpt lat="48.693527961149812" lon="3.396493010222912">
        <ele>154.91</ele>
        <time>2018-07-10T08:32:30Z</time>
      </trkpt>
      <trkpt lat="48.693588981404901" lon="3.396440036594868">
        <ele>155.38999999999999</ele>
        <time>2018-07-10T08:32:31Z</time>
      </trkpt>
      <trkpt lat="48.693655030801892" lon="3.39638002216816">
        <ele>156.34999999999999</ele>
        <time>2018-07-10T08:32:32Z</time>
      </trkpt>
      <trkpt lat="48.693719990551472" lon="3.396322019398212">
        <ele>156.83000000000001</ele>
        <time>2018-07-10T08:32:33Z</time>
      </trkpt>
      <trkpt lat="48.693770030513406" lon="3.396259993314743">
        <ele>157.31</ele>
        <time>2018-07-10T08:32:34Z</time>
      </trkpt>
      <trkpt lat="48.693817974999547" lon="3.396181035786867">
        <ele>157.78999999999999</ele>
        <time>2018-07-10T08:32:35Z</time>
      </trkpt>
      <trkpt lat="48.693867009133101" lon="3.396100988611579">
        <ele>158.27000000000001</ele>
        <time>2018-07-10T08:32:36Z</time>
      </trkpt>
      <trkpt lat="48.693916965276003" lon="3.396021025255323">
        <ele>158.27000000000001</ele>
        <time>2018-07-10T08:32:37Z</time>
      </trkpt>
      <trkpt lat="48.693999024108052" lon="3.395999986678362">
        <ele>158.75</ele>
        <time>2018-07-10T08:32:38Z</time>
      </trkpt>
      <trkpt lat="48.694068007171154" lon="3.395981965586543">
        <ele>159.24000000000001</ele>
        <time>2018-07-10T08:32:39Z</time>
      </trkpt>
      <trkpt lat="48.69414403103292" lon="3.396009961143136">
        <ele>159.72</ele>
        <time>2018-07-10T08:32:40Z</time>
      </trkpt>
      <trkpt lat="48.694215025752783" lon="3.396052038297057">
        <ele>159.72</ele>
        <time>2018-07-10T08:32:41Z</time>
      </trkpt>
      <trkpt lat="48.695013988763094" lon="3.396722003817558">
        <ele>166.44999999999999</ele>
        <time>2018-07-10T08:32:51Z</time>
      </trkpt>
      <trkpt lat="48.695769030600786" lon="3.397340001538396">
        <ele>168.37</ele>
        <time>2018-07-10T08:32:59Z</time>
      </trkpt>
      <trkpt lat="48.695876989513636" lon="3.397358022630215">
        <ele>167.88999999999999</ele>
        <time>2018-07-10T08:33:00Z</time>
      </trkpt>
      <trkpt lat="48.695986960083246" lon="3.397366991266608">
        <ele>167.41</ele>
        <time>2018-07-10T08:33:01Z</time>
      </trkpt>
      <trkpt lat="48.696189969778061" lon="3.397424994036555">
        <ele>165.96000000000001</ele>
        <time>2018-07-10T08:33:03Z</time>
      </trkpt>
      <trkpt lat="48.696292983368039" lon="3.397461036220193">
        <ele>165.47999999999999</ele>
        <time>2018-07-10T08:33:04Z</time>
      </trkpt>
      <trkpt lat="48.696399014443159" lon="3.397529013454914">
        <ele>165</ele>
        <time>2018-07-10T08:33:05Z</time>
      </trkpt>
      <trkpt lat="48.696608981117606" lon="3.397712996229529">
        <ele>164.03999999999999</ele>
        <time>2018-07-10T08:33:07Z</time>
      </trkpt>
      <trkpt lat="48.696722975000739" lon="3.397793965414167">
        <ele>164.03999999999999</ele>
        <time>2018-07-10T08:33:08Z</time>
      </trkpt>
      <trkpt lat="48.696846021339297" lon="3.397844005376101">
        <ele>163.56</ele>
        <time>2018-07-10T08:33:09Z</time>
      </trkpt>
      <trkpt lat="48.697880012914538" lon="3.39808096177876">
        <ele>160.68000000000001</ele>
        <time>2018-07-10T08:33:18Z</time>
      </trkpt>
      <trkpt lat="48.697983026504517" lon="3.398045003414154">
        <ele>160.19999999999999</ele>
        <time>2018-07-10T08:33:19Z</time>
      </trkpt>
      <trkpt lat="48.698081010952592" lon="3.398010972887278">
        <ele>160.19999999999999</ele>
        <time>2018-07-10T08:33:20Z</time>
      </trkpt>
      <trkpt lat="48.698173966258764" lon="3.397978032007814">
        <ele>160.19999999999999</ele>
        <time>2018-07-10T08:33:21Z</time>
      </trkpt>
      <trkpt lat="48.698263987898827" lon="3.397931009531021">
        <ele>160.19999999999999</ele>
        <time>2018-07-10T08:33:22Z</time>
      </trkpt>
      <trkpt lat="48.69833498261869" lon="3.397813998162746">
        <ele>160.19999999999999</ele>
        <time>2018-07-10T08:33:23Z</time>
      </trkpt>
      <trkpt lat="48.698412012308836" lon="3.397687012329698">
        <ele>160.19999999999999</ele>
        <time>2018-07-10T08:33:24Z</time>
      </trkpt>
      <trkpt lat="48.698492981493473" lon="3.397552985697985">
        <ele>160.19999999999999</ele>
        <time>2018-07-10T08:33:25Z</time>
      </trkpt>
      <trkpt lat="48.699261015281081" lon="3.396432995796204">
        <ele>157.31</ele>
        <time>2018-07-10T08:33:33Z</time>
      </trkpt>
      <trkpt lat="48.699342990294099" lon="3.396292012184858">
        <ele>156.83000000000001</ele>
        <time>2018-07-10T08:33:34Z</time>
      </trkpt>
      <trkpt lat="48.699396969750524" lon="3.396138958632946">
        <ele>156.34999999999999</ele>
        <time>2018-07-10T08:33:35Z</time>
      </trkpt>
      <trkpt lat="48.699417002499104" lon="3.395939972251654">
        <ele>156.34999999999999</ele>
        <time>2018-07-10T08:33:36Z</time>
      </trkpt>
      <trkpt lat="48.699438041076064" lon="3.395739980041981">
        <ele>156.34999999999999</ele>
        <time>2018-07-10T08:33:37Z</time>
      </trkpt>
      <trkpt lat="48.699458995833993" lon="3.395539987832308">
        <ele>156.34999999999999</ele>
        <time>2018-07-10T08:33:38Z</time>
      </trkpt>
      <trkpt lat="48.699479028582573" lon="3.39535097591579">
        <ele>156.34999999999999</ele>
        <time>2018-07-10T08:33:39Z</time>
      </trkpt>
      <trkpt lat="48.699495960026979" lon="3.395183002576232">
        <ele>156.34999999999999</ele>
        <time>2018-07-10T08:33:40Z</time>
      </trkpt>
      <trkpt lat="48.6995829641819" lon="3.395074037835002">
        <ele>155.87</ele>
        <time>2018-07-10T08:33:41Z</time>
      </trkpt>
      <trkpt lat="48.699659993872046" lon="3.394977981224656">
        <ele>154.91</ele>
        <time>2018-07-10T08:33:42Z</time>
      </trkpt>
      <trkpt lat="48.699757978320122" lon="3.394953003153205">
        <ele>154.91</ele>
        <time>2018-07-10T08:33:43Z</time>
      </trkpt>
      <trkpt lat="48.699870966374874" lon="3.394932970404625">
        <ele>154.43000000000001</ele>
        <time>2018-07-10T08:33:44Z</time>
      </trkpt>
      <trkpt lat="48.699992001056671" lon="3.394911009818316">
        <ele>154.43000000000001</ele>
        <time>2018-07-10T08:33:45Z</time>
      </trkpt>
      <trkpt lat="48.7014099676162" lon="3.394442964345217">
        <ele>153.94999999999999</ele>
        <time>2018-07-10T08:33:56Z</time>
      </trkpt>
      <trkpt lat="48.703258009627461" lon="3.393320040777326">
        <ele>157.31</ele>
        <time>2018-07-10T08:34:09Z</time>
      </trkpt>
      <trkpt lat="48.703688001260161" lon="3.39296598918736">
        <ele>159.24000000000001</ele>
        <time>2018-07-10T08:34:12Z</time>
      </trkpt>
      <trkpt lat="48.703822027891874" lon="3.392801033332944">
        <ele>159.24000000000001</ele>
        <time>2018-07-10T08:34:13Z</time>
      </trkpt>
      <trkpt lat="48.703947002068162" lon="3.392615960910916">
        <ele>160.19999999999999</ele>
        <time>2018-07-10T08:34:14Z</time>
      </trkpt>
      <trkpt lat="48.704570028930902" lon="3.391658999025822">
        <ele>162.12</ele>
        <time>2018-07-10T08:34:19Z</time>
      </trkpt>
      <trkpt lat="48.704721992835402" lon="3.391512986272574">
        <ele>162.59999999999999</ele>
        <time>2018-07-10T08:34:20Z</time>
      </trkpt>
      <trkpt lat="48.704874040558934" lon="3.391366973519325">
        <ele>162.59999999999999</ele>
        <time>2018-07-10T08:34:21Z</time>
      </trkpt>
      <trkpt lat="48.706901958212256" lon="3.389931991696358">
        <ele>166.93000000000001</ele>
        <time>2018-07-10T08:34:33Z</time>
      </trkpt>
      <trkpt lat="48.707422977313399" lon="3.389648012816906">
        <ele>168.37</ele>
        <time>2018-07-10T08:34:36Z</time>
      </trkpt>
      <trkpt lat="48.70759698562324" lon="3.389600990340114">
        <ele>168.84999999999999</ele>
        <time>2018-07-10T08:34:37Z</time>
      </trkpt>
      <trkpt lat="48.707774011418223" lon="3.389583975076675">
        <ele>169.33000000000001</ele>
        <time>2018-07-10T08:34:38Z</time>
      </trkpt>
      <trkpt lat="48.708683028817177" lon="3.389428993687034">
        <ele>168.84999999999999</ele>
        <time>2018-07-10T08:34:43Z</time>
      </trkpt>
      <trkpt lat="48.708860976621509" lon="3.389326985925436">
        <ele>168.37</ele>
        <time>2018-07-10T08:34:44Z</time>
      </trkpt>
      <trkpt lat="48.709025010466576" lon="3.389188013970852">
        <ele>168.37</ele>
        <time>2018-07-10T08:34:45Z</time>
      </trkpt>
      <trkpt lat="48.710741037502885" lon="3.387984959408641">
        <ele>166.93000000000001</ele>
        <time>2018-07-10T08:34:55Z</time>
      </trkpt>
      <trkpt lat="48.712738025933504" lon="3.386572021991015">
        <ele>168.37</ele>
        <time>2018-07-10T08:35:07Z</time>
      </trkpt>
      <trkpt lat="48.714694026857615" lon="3.385214991867542">
        <ele>164.52000000000001</ele>
        <time>2018-07-10T08:35:18Z</time>
      </trkpt>
      <trkpt lat="48.716015014797449" lon="3.38435098528862">
        <ele>168.37</ele>
        <time>2018-07-10T08:35:26Z</time>
      </trkpt>
      <trkpt lat="48.717227037996054" lon="3.383165029808879">
        <ele>172.69</ele>
        <time>2018-07-10T08:35:34Z</time>
      </trkpt>
      <trkpt lat="48.718228004872799" lon="3.381901038810611">
        <ele>180.87</ele>
        <time>2018-07-10T08:35:42Z</time>
      </trkpt>
      <trkpt lat="48.718336969614029" lon="3.381824009120464">
        <ele>181.34999999999999</ele>
        <time>2018-07-10T08:35:43Z</time>
      </trkpt>
      <trkpt lat="48.718456998467445" lon="3.381738010793924">
        <ele>181.83000000000001</ele>
        <time>2018-07-10T08:35:44Z</time>
      </trkpt>
      <trkpt lat="48.718591025099158" lon="3.381679002195597">
        <ele>182.31</ele>
        <time>2018-07-10T08:35:45Z</time>
      </trkpt>
      <trkpt lat="48.718731002882123" lon="3.381662992760539">
        <ele>182.78999999999999</ele>
        <time>2018-07-10T08:35:46Z</time>
      </trkpt>
      <trkpt lat="48.718876009806991" lon="3.381645977497101">
        <ele>183.27000000000001</ele>
        <time>2018-07-10T08:35:47Z</time>
      </trkpt>
      <trkpt lat="48.719644965603948" lon="3.381615970283747">
        <ele>186.63</ele>
        <time>2018-07-10T08:35:52Z</time>
      </trkpt>
      <trkpt lat="48.721129987388849" lon="3.381626028567553">
        <ele>190.96000000000001</ele>
        <time>2018-07-10T08:36:01Z</time>
      </trkpt>
      <trkpt lat="48.7227419950068" lon="3.382085021585226">
        <ele>191.91999999999999</ele>
        <time>2018-07-10T08:36:10Z</time>
      </trkpt>
      <trkpt lat="48.723914036527276" lon="3.382376963272691">
        <ele>193.36000000000001</ele>
        <time>2018-07-10T08:36:17Z</time>
      </trkpt>
      <trkpt lat="48.724069017916918" lon="3.382344022393227">
        <ele>193.84</ele>
        <time>2018-07-10T08:36:18Z</time>
      </trkpt>
      <trkpt lat="48.724222993478179" lon="3.382312003523111">
        <ele>194.31999999999999</ele>
        <time>2018-07-10T08:36:19Z</time>
      </trkpt>
      <trkpt lat="48.72437696903944" lon="3.382263975217938">
        <ele>194.31999999999999</ele>
        <time>2018-07-10T08:36:20Z</time>
      </trkpt>
      <trkpt lat="48.724530022591352" lon="3.382151992991567">
        <ele>194.31999999999999</ele>
        <time>2018-07-10T08:36:21Z</time>
      </trkpt>
      <trkpt lat="48.724689027294517" lon="3.382035987451673">
        <ele>194.31999999999999</ele>
        <time>2018-07-10T08:36:22Z</time>
      </trkpt>
      <trkpt lat="48.726607980206609" lon="3.380314009264112">
        <ele>192.88</ele>
        <time>2018-07-10T08:36:34Z</time>
      </trkpt>
      <trkpt lat="48.72704098932445" lon="3.379913019016385">
        <ele>190.96000000000001</ele>
        <time>2018-07-10T08:36:37Z</time>
      </trkpt>
      <trkpt lat="48.727192031219602" lon="3.379802964627743">
        <ele>190.47999999999999</ele>
        <time>2018-07-10T08:36:38Z</time>
      </trkpt>
      <trkpt lat="48.727364027872682" lon="3.379758959636092">
        <ele>190</ele>
        <time>2018-07-10T08:36:39Z</time>
      </trkpt>
      <trkpt lat="48.727544993162155" lon="3.379715960472822">
        <ele>189.03999999999999</ele>
        <time>2018-07-10T08:36:40Z</time>
      </trkpt>
      <trkpt lat="48.727743979543447" lon="3.379712020978332">
        <ele>188.08000000000001</ele>
        <time>2018-07-10T08:36:41Z</time>
      </trkpt>
      <trkpt lat="48.727954030036926" lon="3.379712020978332">
        <ele>187.11000000000001</ele>
        <time>2018-07-10T08:36:42Z</time>
      </trkpt>
      <trkpt lat="48.729391023516655" lon="3.379699029028416">
        <ele>181.34999999999999</ele>
        <time>2018-07-10T08:36:49Z</time>
      </trkpt>
      <trkpt lat="48.7296839710325" lon="3.379671033471823">
        <ele>180.38</ele>
        <time>2018-07-10T08:36:51Z</time>
      </trkpt>
      <trkpt lat="48.729805005714297" lon="3.379611019045115">
        <ele>180.38</ele>
        <time>2018-07-10T08:36:52Z</time>
      </trkpt>
      <trkpt lat="48.72991799376905" lon="3.37953801266849">
        <ele>179.90000000000001</ele>
        <time>2018-07-10T08:36:53Z</time>
      </trkpt>
      <trkpt lat="48.729998962953687" lon="3.379421001300216">
        <ele>179.90000000000001</ele>
        <time>2018-07-10T08:36:54Z</time>
      </trkpt>
      <trkpt lat="48.730076998472214" lon="3.379307007417083">
        <ele>179.41999999999999</ele>
        <time>2018-07-10T08:36:55Z</time>
      </trkpt>
      <trkpt lat="48.730151010677218" lon="3.379185972735286">
        <ele>178.94</ele>
        <time>2018-07-10T08:36:56Z</time>
      </trkpt>
      <trkpt lat="48.730213036760688" lon="3.379036020487547">
        <ele>178.94</ele>
        <time>2018-07-10T08:36:57Z</time>
      </trkpt>
      <trkpt lat="48.730932958424091" lon="3.377313036471605">
        <ele>177.97999999999999</ele>
        <time>2018-07-10T08:37:07Z</time>
      </trkpt>
      <trkpt lat="48.731004036962986" lon="3.377190995961428">
        <ele>177.97999999999999</ele>
        <time>2018-07-10T08:37:08Z</time>
      </trkpt>
      <trkpt lat="48.731061033904552" lon="3.377094017341733">
        <ele>177.97999999999999</ele>
        <time>2018-07-10T08:37:09Z</time>
      </trkpt>
      <trkpt lat="48.731152983382344" lon="3.377069039270282">
        <ele>177.97999999999999</ele>
        <time>2018-07-10T08:37:10Z</time>
      </trkpt>
      <trkpt lat="48.731231018900871" lon="3.377048000693321">
        <ele>178.46000000000001</ele>
        <time>2018-07-10T08:37:11Z</time>
      </trkpt>
      <trkpt lat="48.731303019449115" lon="3.377032997086644">
        <ele>178.46000000000001</ele>
        <time>2018-07-10T08:37:12Z</time>
      </trkpt>
      <trkpt lat="48.731393041089177" lon="3.377072978764772">
        <ele>178.46000000000001</ele>
        <time>2018-07-10T08:37:13Z</time>
      </trkpt>
      <trkpt lat="48.731495970860124" lon="3.377118995413184">
        <ele>178.94</ele>
        <time>2018-07-10T08:37:14Z</time>
      </trkpt>
      <trkpt lat="48.732623001560569" lon="3.377624005079269">
        <ele>178.94</ele>
        <time>2018-07-10T08:37:22Z</time>
      </trkpt>
      <trkpt lat="48.734791986644268" lon="3.378610974177718">
        <ele>177.02000000000001</ele>
        <time>2018-07-10T08:37:36Z</time>
      </trkpt>
      <trkpt lat="48.735004970803857" lon="3.378646010532975">
        <ele>177.02000000000001</ele>
        <time>2018-07-10T08:37:39Z</time>
      </trkpt>
      <trkpt lat="48.735084012150764" lon="3.378757992759347">
        <ele>177.02000000000001</ele>
        <time>2018-07-10T08:37:40Z</time>
      </trkpt>
      <trkpt lat="48.735105972737074" lon="3.378839967772365">
        <ele>177.02000000000001</ele>
        <time>2018-07-10T08:37:41Z</time>
      </trkpt>
      <trkpt lat="48.735136985778809" lon="3.378950022161007">
        <ele>177.02000000000001</ele>
        <time>2018-07-10T08:37:42Z</time>
      </trkpt>
      <trkpt lat="48.735174033790827" lon="3.37908698245883">
        <ele>177.02000000000001</ele>
        <time>2018-07-10T08:37:43Z</time>
      </trkpt>
      <trkpt lat="48.735859002918005" lon="3.38039799593389">
        <ele>175.58000000000001</ele>
        <time>2018-07-10T08:37:52Z</time>
      </trkpt>
      <trkpt lat="48.736124038696289" lon="3.38125697337091">
        <ele>175.09999999999999</ele>
        <time>2018-07-10T08:37:58Z</time>
      </trkpt>
      <trkpt lat="48.736379016190767" lon="3.382283002138138">
        <ele>175.58000000000001</ele>
        <time>2018-07-10T08:38:08Z</time>
      </trkpt>
      <trkpt lat="48.736733989790082" lon="3.383713960647583">
        <ele>174.13999999999999</ele>
        <time>2018-07-10T08:38:15Z</time>
      </trkpt>
      <trkpt lat="48.737400015816092" lon="3.386394996196032">
        <ele>167.88999999999999</ele>
        <time>2018-07-10T08:38:25Z</time>
      </trkpt>
      <trkpt lat="48.737645018845797" lon="3.387380037456751">
        <ele>166.44999999999999</ele>
        <time>2018-07-10T08:38:31Z</time>
      </trkpt>
      <trkpt lat="48.737666979432106" lon="3.387469975277782">
        <ele>165.96000000000001</ele>
        <time>2018-07-10T08:38:32Z</time>
      </trkpt>
      <trkpt lat="48.737772004678845" lon="3.387555973604322">
        <ele>165.96000000000001</ele>
        <time>2018-07-10T08:38:33Z</time>
      </trkpt>
      <trkpt lat="48.737852973863482" lon="3.387545999139547">
        <ele>165.96000000000001</ele>
        <time>2018-07-10T08:38:34Z</time>
      </trkpt>
      <trkpt lat="48.737950036302209" lon="3.387534013018012">
        <ele>165.47999999999999</ele>
        <time>2018-07-10T08:38:35Z</time>
      </trkpt>
      <trkpt lat="48.738063024356961" lon="3.387520015239716">
        <ele>165.47999999999999</ele>
        <time>2018-07-10T08:38:36Z</time>
      </trkpt>
      <trkpt lat="48.739190977066755" lon="3.387380037456751">
        <ele>168.84999999999999</ele>
        <time>2018-07-10T08:38:43Z</time>
      </trkpt>
      <trkpt lat="48.740496039390564" lon="3.387285992503166">
        <ele>174.62</ele>
        <time>2018-07-10T08:38:51Z</time>
      </trkpt>
      <trkpt lat="48.741586022078991" lon="3.387927962467074">
        <ele>171.25</ele>
        <time>2018-07-10T08:38:58Z</time>
      </trkpt>
      <trkpt lat="48.743047993630171" lon="3.389513986185193">
        <ele>160.19999999999999</ele>
        <time>2018-07-10T08:39:08Z</time>
      </trkpt>
      <trkpt lat="48.743828013539314" lon="3.390030981972814">
        <ele>155.38999999999999</ele>
        <time>2018-07-10T08:39:13Z</time>
      </trkpt>
      <trkpt lat="48.74401199631393" lon="3.390055038034916">
        <ele>153.94999999999999</ele>
        <time>2018-07-10T08:39:14Z</time>
      </trkpt>
      <trkpt lat="48.744197990745306" lon="3.390055038034916">
        <ele>152.50999999999999</ele>
        <time>2018-07-10T08:39:15Z</time>
      </trkpt>
      <trkpt lat="48.744385996833444" lon="3.390055038034916">
        <ele>151.53999999999999</ele>
        <time>2018-07-10T08:39:16Z</time>
      </trkpt>
      <trkpt lat="48.7445920240134" lon="3.389997035264969">
        <ele>150.58000000000001</ele>
        <time>2018-07-10T08:39:17Z</time>
      </trkpt>
      <trkpt lat="48.744798973202705" lon="3.389938026666641">
        <ele>149.13999999999999</ele>
        <time>2018-07-10T08:39:18Z</time>
      </trkpt>
      <trkpt lat="48.748011002317071" lon="3.389020040631294">
        <ele>147.22</ele>
        <time>2018-07-10T08:39:33Z</time>
      </trkpt>
      <trkpt lat="48.749891985207796" lon="3.388477982953191">
        <ele>156.34999999999999</ele>
        <time>2018-07-10T08:39:43Z</time>
      </trkpt>
      <trkpt lat="48.750805025920272" lon="3.388214958831668">
        <ele>159.72</ele>
        <time>2018-07-10T08:39:51Z</time>
      </trkpt>
      <trkpt lat="48.750992026180029" lon="3.388171959668398">
        <ele>160.68000000000001</ele>
        <time>2018-07-10T08:39:53Z</time>
      </trkpt>
      <trkpt lat="48.751071989536285" lon="3.3881960157305">
        <ele>161.16</ele>
        <time>2018-07-10T08:39:54Z</time>
      </trkpt>
      <trkpt lat="48.751152036711574" lon="3.388219987973571">
        <ele>161.63999999999999</ele>
        <time>2018-07-10T08:39:55Z</time>
      </trkpt>
      <trkpt lat="48.751238035038114" lon="3.388245971873403">
        <ele>162.12</ele>
        <time>2018-07-10T08:39:56Z</time>
      </trkpt>
      <trkpt lat="48.751325961202383" lon="3.388272039592266">
        <ele>162.12</ele>
        <time>2018-07-10T08:39:57Z</time>
      </trkpt>
      <trkpt lat="48.751425035297871" lon="3.388314032927156">
        <ele>162.12</ele>
        <time>2018-07-10T08:39:58Z</time>
      </trkpt>
      <trkpt lat="48.751508016139269" lon="3.388382010161877">
        <ele>162.12</ele>
        <time>2018-07-10T08:39:59Z</time>
      </trkpt>
      <trkpt lat="48.751594014465809" lon="3.38845300488174">
        <ele>162.12</ele>
        <time>2018-07-10T08:40:00Z</time>
      </trkpt>
      <trkpt lat="48.751976983621716" lon="3.388760033994913">
        <ele>161.16</ele>
        <time>2018-07-10T08:40:04Z</time>
      </trkpt>
      <trkpt lat="48.752090977504849" lon="3.388834968209267">
        <ele>161.16</ele>
        <time>2018-07-10T08:40:05Z</time>
      </trkpt>
      <trkpt lat="48.752222992479801" lon="3.388857012614608">
        <ele>160.68000000000001</ele>
        <time>2018-07-10T08:40:06Z</time>
      </trkpt>
      <trkpt lat="48.752372022718191" lon="3.38886103592813">
        <ele>160.68000000000001</ele>
        <time>2018-07-10T08:40:07Z</time>
      </trkpt>
      <trkpt lat="48.752529015764594" lon="3.388815019279718">
        <ele>160.19999999999999</ele>
        <time>2018-07-10T08:40:08Z</time>
      </trkpt>
      <trkpt lat="48.75269397161901" lon="3.388766990974546">
        <ele>159.72</ele>
        <time>2018-07-10T08:40:09Z</time>
      </trkpt>
      <trkpt lat="48.754716021940112" lon="3.38817598298192">
        <ele>161.16</ele>
        <time>2018-07-10T08:40:20Z</time>
      </trkpt>
      <trkpt lat="48.757365038618445" lon="3.38740099221468">
        <ele>170.77000000000001</ele>
        <time>2018-07-10T08:40:34Z</time>
      </trkpt>
      <trkpt lat="48.759512985125184" lon="3.386986004188657">
        <ele>179.90000000000001</ele>
        <time>2018-07-10T08:40:45Z</time>
      </trkpt>
      <trkpt lat="48.761662021279335" lon="3.386643016710877">
        <ele>175.09999999999999</ele>
        <time>2018-07-10T08:40:56Z</time>
      </trkpt>
      <trkpt lat="48.762885024771094" lon="3.386446963995695">
        <ele>171.72999999999999</ele>
        <time>2018-07-10T08:41:03Z</time>
      </trkpt>
      <trkpt lat="48.763181995600462" lon="3.386399019509554">
        <ele>172.69</ele>
        <time>2018-07-10T08:41:08Z</time>
      </trkpt>
      <trkpt lat="48.763245027512312" lon="3.386507984250784">
        <ele>173.16999999999999</ele>
        <time>2018-07-10T08:41:10Z</time>
      </trkpt>
      <trkpt lat="48.763232035562396" lon="3.386580990627408">
        <ele>173.16999999999999</ele>
        <time>2018-07-10T08:41:11Z</time>
      </trkpt>
      <trkpt lat="48.763210996985435" lon="3.386687021702528">
        <ele>173.16999999999999</ele>
        <time>2018-07-10T08:41:12Z</time>
      </trkpt>
      <trkpt lat="48.763185013085604" lon="3.386823982000351">
        <ele>173.16999999999999</ele>
        <time>2018-07-10T08:41:13Z</time>
      </trkpt>
      <trkpt lat="48.763154000043869" lon="3.386990027502179">
        <ele>173.66</ele>
        <time>2018-07-10T08:41:14Z</time>
      </trkpt>
      <trkpt lat="48.762875972315669" lon="3.388461973518133">
        <ele>175.58000000000001</ele>
        <time>2018-07-10T08:41:20Z</time>
      </trkpt>
      <trkpt lat="48.762344978749752" lon="3.391469987109304">
        <ele>178.46000000000001</ele>
        <time>2018-07-10T08:41:29Z</time>
      </trkpt>
      <trkpt lat="48.761799987405539" lon="3.394633987918496">
        <ele>188.56</ele>
        <time>2018-07-10T08:41:39Z</time>
      </trkpt>
      <trkpt lat="48.760974034667015" lon="3.399201035499573">
        <ele>187.11000000000001</ele>
        <time>2018-07-10T08:41:55Z</time>
      </trkpt>
      <trkpt lat="48.759909030050039" lon="3.404982034116983">
        <ele>178.46000000000001</ele>
        <time>2018-07-10T08:42:15Z</time>
      </trkpt>
      <trkpt lat="48.759070001542568" lon="3.409604988992214">
        <ele>180.87</ele>
        <time>2018-07-10T08:42:31Z</time>
      </trkpt>
      <trkpt lat="48.758245976641774" lon="3.413645988330245">
        <ele>187.11000000000001</ele>
        <time>2018-07-10T08:42:45Z</time>
      </trkpt>
      <trkpt lat="48.756822980940342" lon="3.418335998430848">
        <ele>178.46000000000001</ele>
        <time>2018-07-10T08:43:02Z</time>
      </trkpt>
      <trkpt lat="48.755845986306667" lon="3.421623967587948">
        <ele>177.97999999999999</ele>
        <time>2018-07-10T08:43:14Z</time>
      </trkpt>
      <trkpt lat="48.754350990056992" lon="3.426604997366667">
        <ele>178.94</ele>
        <time>2018-07-10T08:43:32Z</time>
      </trkpt>
      <trkpt lat="48.752861022949219" lon="3.431535987183452">
        <ele>185.66999999999999</ele>
        <time>2018-07-10T08:43:50Z</time>
      </trkpt>
      <trkpt lat="48.751362003386021" lon="3.436496984213591">
        <ele>187.59</ele>
        <time>2018-07-10T08:44:08Z</time>
      </trkpt>
      <trkpt lat="48.750497996807098" lon="3.439412964507937">
        <ele>189.03999999999999</ele>
        <time>2018-07-10T08:44:20Z</time>
      </trkpt>
      <trkpt lat="48.749710014089942" lon="3.441970031708479">
        <ele>191.91999999999999</ele>
        <time>2018-07-10T08:44:30Z</time>
      </trkpt>
      <trkpt lat="48.748286012560129" lon="3.446686025708914">
        <ele>188.08000000000001</ele>
        <time>2018-07-10T08:44:47Z</time>
      </trkpt>
      <trkpt lat="48.746893024072051" lon="3.451325995847583">
        <ele>190.96000000000001</ele>
        <time>2018-07-10T08:45:04Z</time>
      </trkpt>
      <trkpt lat="48.745741015300155" lon="3.45518896356225">
        <ele>196.72999999999999</ele>
        <time>2018-07-10T08:45:18Z</time>
      </trkpt>
      <trkpt lat="48.744236966595054" lon="3.460180973634124">
        <ele>196.72999999999999</ele>
        <time>2018-07-10T08:45:36Z</time>
      </trkpt>
      <trkpt lat="48.742664018645883" lon="3.465402983129025">
        <ele>183.27000000000001</ele>
        <time>2018-07-10T08:45:55Z</time>
      </trkpt>
      <trkpt lat="48.741675959900022" lon="3.46868097782135">
        <ele>184.71000000000001</ele>
        <time>2018-07-10T08:46:07Z</time>
      </trkpt>
      <trkpt lat="48.74034097418189" lon="3.473110981285572">
        <ele>179.90000000000001</ele>
        <time>2018-07-10T08:46:23Z</time>
      </trkpt>
      <trkpt lat="48.738523023203015" lon="3.479103958234191">
        <ele>193.36000000000001</ele>
        <time>2018-07-10T08:46:45Z</time>
      </trkpt>
      <trkpt lat="48.7373720202595" lon="3.482899032533169">
        <ele>190.47999999999999</ele>
        <time>2018-07-10T08:46:59Z</time>
      </trkpt>
      <trkpt lat="48.737219972535968" lon="3.483402030542493">
        <ele>188.56</ele>
        <time>2018-07-10T08:47:03Z</time>
      </trkpt>
      <trkpt lat="48.737203041091561" lon="3.483459027484059">
        <ele>188.56</ele>
        <time>2018-07-10T08:47:04Z</time>
      </trkpt>
      <trkpt lat="48.737247968092561" lon="3.48354896530509">
        <ele>188.08000000000001</ele>
        <time>2018-07-10T08:47:05Z</time>
      </trkpt>
      <trkpt lat="48.737285016104579" lon="3.483550976961851">
        <ele>188.08000000000001</ele>
        <time>2018-07-10T08:47:06Z</time>
      </trkpt>
      <trkpt lat="48.737337989732623" lon="3.483553994446993">
        <ele>187.59</ele>
        <time>2018-07-10T08:47:07Z</time>
      </trkpt>
      <trkpt lat="48.737405966967344" lon="3.483557011932135">
        <ele>187.59</ele>
        <time>2018-07-10T08:47:08Z</time>
      </trkpt>
      <trkpt lat="48.737492971122265" lon="3.483562041074038">
        <ele>187.59</ele>
        <time>2018-07-10T08:47:09Z</time>
      </trkpt>
      <trkpt lat="48.737993035465479" lon="3.483586013317108">
        <ele>189.03999999999999</ele>
        <time>2018-07-10T08:47:13Z</time>
      </trkpt>
      <trkpt lat="48.738928958773613" lon="3.483843002468348">
        <ele>187.59</ele>
        <time>2018-07-10T08:47:19Z</time>
      </trkpt>
      <trkpt lat="48.739077989012003" lon="3.483917014673352">
        <ele>187.11000000000001</ele>
        <time>2018-07-10T08:47:20Z</time>
      </trkpt>
      <trkpt lat="48.739217966794968" lon="3.484042994678021">
        <ele>186.63</ele>
        <time>2018-07-10T08:47:21Z</time>
      </trkpt>
      <trkpt lat="48.739355010911822" lon="3.484179032966495">
        <ele>186.15000000000001</ele>
        <time>2018-07-10T08:47:22Z</time>
      </trkpt>
      <trkpt lat="48.739485014230013" lon="3.484333008527756">
        <ele>186.15000000000001</ele>
        <time>2018-07-10T08:47:23Z</time>
      </trkpt>
      <trkpt lat="48.739596996456385" lon="3.484519002959132">
        <ele>185.66999999999999</ele>
        <time>2018-07-10T08:47:24Z</time>
      </trkpt>
      <trkpt lat="48.739708978682756" lon="3.48470700904727">
        <ele>185.66999999999999</ele>
        <time>2018-07-10T08:47:25Z</time>
      </trkpt>
      <trkpt lat="48.739799000322819" lon="3.484925022348762">
        <ele>185.19</ele>
        <time>2018-07-10T08:47:26Z</time>
      </trkpt>
      <trkpt lat="48.740506013855338" lon="3.486974984407425">
        <ele>183.75</ele>
        <time>2018-07-10T08:47:35Z</time>
      </trkpt>
      <trkpt lat="48.740649009123445" lon="3.48756498657167">
        <ele>182.78999999999999</ele>
        <time>2018-07-10T08:47:38Z</time>
      </trkpt>
      <trkpt lat="48.740731989964843" lon="3.487819964066148">
        <ele>182.31</ele>
        <time>2018-07-10T08:47:40Z</time>
      </trkpt>
      <trkpt lat="48.740801978856325" lon="3.487901017069817">
        <ele>181.83000000000001</ele>
        <time>2018-07-10T08:47:41Z</time>
      </trkpt>
      <trkpt lat="48.740885965526104" lon="3.487940998747945">
        <ele>182.31</ele>
        <time>2018-07-10T08:47:42Z</time>
      </trkpt>
      <trkpt lat="48.740991996601224" lon="3.487932030111551">
        <ele>182.31</ele>
        <time>2018-07-10T08:47:43Z</time>
      </trkpt>
      <trkpt lat="48.741110013797879" lon="3.487919960170984">
        <ele>182.31</ele>
        <time>2018-07-10T08:47:44Z</time>
      </trkpt>
      <trkpt lat="48.741239011287689" lon="3.487870004028082">
        <ele>182.78999999999999</ele>
        <time>2018-07-10T08:47:45Z</time>
      </trkpt>
      <trkpt lat="48.742136964574456" lon="3.487517964094877">
        <ele>182.31</ele>
        <time>2018-07-10T08:47:51Z</time>
      </trkpt>
      <trkpt lat="48.742285994812846" lon="3.487488040700555">
        <ele>181.83000000000001</ele>
        <time>2018-07-10T08:47:52Z</time>
      </trkpt>
      <trkpt lat="48.742437036707997" lon="3.487477982416749">
        <ele>181.34999999999999</ele>
        <time>2018-07-10T08:47:53Z</time>
      </trkpt>
      <trkpt lat="48.742590006440878" lon="3.487514024600387">
        <ele>180.87</ele>
        <time>2018-07-10T08:47:54Z</time>
      </trkpt>
      <trkpt lat="48.742737025022507" lon="3.487599017098546">
        <ele>180.38</ele>
        <time>2018-07-10T08:47:55Z</time>
      </trkpt>
      <trkpt lat="48.742891000583768" lon="3.487689038738608">
        <ele>180.38</ele>
        <time>2018-07-10T08:47:56Z</time>
      </trkpt>
      <trkpt lat="48.744378034025431" lon="3.488310975953937">
        <ele>178.46000000000001</ele>
        <time>2018-07-10T08:48:05Z</time>
      </trkpt>
      <trkpt lat="48.744720015674829" lon="3.488304018974304">
        <ele>178.46000000000001</ele>
        <time>2018-07-10T08:48:07Z</time>
      </trkpt>
      <trkpt lat="48.744880026206374" lon="3.488259008154273">
        <ele>178.94</ele>
        <time>2018-07-10T08:48:08Z</time>
      </trkpt>
      <trkpt lat="48.745030984282494" lon="3.488207962363958">
        <ele>178.94</ele>
        <time>2018-07-10T08:48:09Z</time>
      </trkpt>
      <trkpt lat="48.745165010914207" lon="3.488117018714547">
        <ele>179.41999999999999</ele>
        <time>2018-07-10T08:48:10Z</time>
      </trkpt>
      <trkpt lat="48.745288979262114" lon="3.488033032044768">
        <ele>179.41999999999999</ele>
        <time>2018-07-10T08:48:11Z</time>
      </trkpt>
      <trkpt lat="48.745888033881783" lon="3.487623995169997">
        <ele>180.87</ele>
        <time>2018-07-10T08:48:18Z</time>
      </trkpt>
      <trkpt lat="48.746561016887426" lon="3.487444035708904">
        <ele>178.46000000000001</ele>
        <time>2018-07-10T08:48:26Z</time>
      </trkpt>
      <trkpt lat="48.747506998479366" lon="3.487128037959337">
        <ele>171.25</ele>
        <time>2018-07-10T08:48:34Z</time>
      </trkpt>
      <trkpt lat="48.748406963422894" lon="3.486740039661527">
        <ele>169.33000000000001</ele>
        <time>2018-07-10T08:48:45Z</time>
      </trkpt>
      <trkpt lat="48.74867401085794" lon="3.48663903772831">
        <ele>170.28999999999999</ele>
        <time>2018-07-10T08:48:48Z</time>
      </trkpt>
      <trkpt lat="48.748768977820873" lon="3.486655969172716">
        <ele>170.77000000000001</ele>
        <time>2018-07-10T08:48:49Z</time>
      </trkpt>
      <trkpt lat="48.748866962268949" lon="3.486673990264535">
        <ele>170.77000000000001</ele>
        <time>2018-07-10T08:48:50Z</time>
      </trkpt>
      <trkpt lat="48.748963018879294" lon="3.48674900829792">
        <ele>171.25</ele>
        <time>2018-07-10T08:48:51Z</time>
      </trkpt>
      <trkpt lat="48.749053040519357" lon="3.486839029937983">
        <ele>171.25</ele>
        <time>2018-07-10T08:48:52Z</time>
      </trkpt>
      <trkpt lat="48.74914700165391" lon="3.486933996900916">
        <ele>171.72999999999999</ele>
        <time>2018-07-10T08:48:53Z</time>
      </trkpt>
      <trkpt lat="48.749226965010166" lon="3.487066011875868">
        <ele>172.21000000000001</ele>
        <time>2018-07-10T08:48:54Z</time>
      </trkpt>
      <trkpt lat="48.749303994700313" lon="3.487214036285877">
        <ele>172.21000000000001</ele>
        <time>2018-07-10T08:48:55Z</time>
      </trkpt>
      <trkpt lat="48.749388987198472" lon="3.487376980483532">
        <ele>172.69</ele>
        <time>2018-07-10T08:48:56Z</time>
      </trkpt>
      <trkpt lat="48.750405041500926" lon="3.489322001114488">
        <ele>172.69</ele>
        <time>2018-07-10T08:49:06Z</time>
      </trkpt>
      <trkpt lat="48.751637013629079" lon="3.491682009771466">
        <ele>172.69</ele>
        <time>2018-07-10T08:49:18Z</time>
      </trkpt>
      <trkpt lat="48.753163022920489" lon="3.494865959510207">
        <ele>166.93000000000001</ele>
        <time>2018-07-10T08:49:32Z</time>
      </trkpt>
      <trkpt lat="48.754001967608929" lon="3.496614005416632">
        <ele>165.47999999999999</ele>
        <time>2018-07-10T08:49:41Z</time>
      </trkpt>
      <trkpt lat="48.754624994471669" lon="3.497868021950126">
        <ele>163.56</ele>
        <time>2018-07-10T08:49:51Z</time>
      </trkpt>
      <trkpt lat="48.75499002635479" lon="3.498384011909366">
        <ele>161.63999999999999</ele>
        <time>2018-07-10T08:49:56Z</time>
      </trkpt>
      <trkpt lat="48.755756970494986" lon="3.499582037329674">
        <ele>158.27000000000001</ele>
        <time>2018-07-10T08:50:07Z</time>
      </trkpt>
      <trkpt lat="48.756093000993133" lon="3.500267006456852">
        <ele>156.34999999999999</ele>
        <time>2018-07-10T08:50:14Z</time>
      </trkpt>
      <trkpt lat="48.756103981286287" lon="3.500378988683224">
        <ele>156.34999999999999</ele>
        <time>2018-07-10T08:50:15Z</time>
      </trkpt>
      <trkpt lat="48.75610901042819" lon="3.500494994223118">
        <ele>155.87</ele>
        <time>2018-07-10T08:50:16Z</time>
      </trkpt>
      <trkpt lat="48.756117979064584" lon="3.500722981989384">
        <ele>154.91</ele>
        <time>2018-07-10T08:50:18Z</time>
      </trkpt>
      <trkpt lat="48.756122002378106" lon="3.500825995579362">
        <ele>154.43000000000001</ele>
        <time>2018-07-10T08:50:19Z</time>
      </trkpt>
      <trkpt lat="48.756184028461576" lon="3.500901013612747">
        <ele>153.94999999999999</ele>
        <time>2018-07-10T08:50:20Z</time>
      </trkpt>
      <trkpt lat="48.756249994039536" lon="3.500966979190707">
        <ele>153.47</ele>
        <time>2018-07-10T08:50:21Z</time>
      </trkpt>
      <trkpt lat="48.756330963224173" lon="3.500995980575681">
        <ele>153.47</ele>
        <time>2018-07-10T08:50:22Z</time>
      </trkpt>
      <trkpt lat="48.756421990692616" lon="3.501008972525597">
        <ele>152.99000000000001</ele>
        <time>2018-07-10T08:50:23Z</time>
      </trkpt>
      <trkpt lat="48.75651796348393" lon="3.501002015545964">
        <ele>152.50999999999999</ele>
        <time>2018-07-10T08:50:24Z</time>
      </trkpt>
      <trkpt lat="48.756621982902288" lon="3.50099396891892">
        <ele>151.53999999999999</ele>
        <time>2018-07-10T08:50:25Z</time>
      </trkpt>
      <trkpt lat="48.75673103146255" lon="3.500966979190707">
        <ele>151.06</ele>
        <time>2018-07-10T08:50:26Z</time>
      </trkpt>
      <trkpt lat="48.757135039195418" lon="3.500845022499561">
        <ele>149.13999999999999</ele>
        <time>2018-07-10T08:50:30Z</time>
      </trkpt>
      <trkpt lat="48.757215002551675" lon="3.500860026106238">
        <ele>148.18000000000001</ele>
        <time>2018-07-10T08:50:31Z</time>
      </trkpt>
      <trkpt lat="48.75729002058506" lon="3.500873018056154">
        <ele>147.22</ele>
        <time>2018-07-10T08:50:32Z</time>
      </trkpt>
      <trkpt lat="48.757346011698246" lon="3.500883998349309">
        <ele>146.74000000000001</ele>
        <time>2018-07-10T08:50:33Z</time>
      </trkpt>
      <trkpt lat="48.757394962012768" lon="3.500981982797384">
        <ele>146.25999999999999</ele>
        <time>2018-07-10T08:50:34Z</time>
      </trkpt>
      <trkpt lat="48.75744097866118" lon="3.501072004437447">
        <ele>145.30000000000001</ele>
        <time>2018-07-10T08:50:35Z</time>
      </trkpt>
      <trkpt lat="48.757492024451494" lon="3.501175018027425">
        <ele>144.81999999999999</ele>
        <time>2018-07-10T08:50:36Z</time>
      </trkpt>
      <trkpt lat="48.757549021393061" lon="3.501289011910558">
        <ele>144.34</ele>
        <time>2018-07-10T08:50:37Z</time>
      </trkpt>
      <trkpt lat="48.757668966427445" lon="3.501528985798359">
        <ele>142.88999999999999</ele>
        <time>2018-07-10T08:50:39Z</time>
      </trkpt>
      <trkpt lat="48.757723029702902" lon="3.501638034358621">
        <ele>142.41</ele>
        <time>2018-07-10T08:50:40Z</time>
      </trkpt>
      <trkpt lat="48.757777009159327" lon="3.50174498744309">
        <ele>142.41</ele>
        <time>2018-07-10T08:50:41Z</time>
      </trkpt>
      <trkpt lat="48.757845992222428" lon="3.5018739849329">
        <ele>141.93000000000001</ele>
        <time>2018-07-10T08:50:42Z</time>
      </trkpt>
      <trkpt lat="48.757932996377349" lon="3.50191698409617">
        <ele>142.41</ele>
        <time>2018-07-10T08:50:43Z</time>
      </trkpt>
      <trkpt lat="48.758029974997044" lon="3.501961994916201">
        <ele>141.93000000000001</ele>
        <time>2018-07-10T08:50:44Z</time>
      </trkpt>
      <trkpt lat="48.758124019950628" lon="3.501988984644413">
        <ele>141.93000000000001</ele>
        <time>2018-07-10T08:50:45Z</time>
      </trkpt>
      <trkpt lat="48.758214041590691" lon="3.502013962715864">
        <ele>141.93000000000001</ele>
        <time>2018-07-10T08:50:46Z</time>
      </trkpt>
      <trkpt lat="48.758403975516558" lon="3.502069031819701">
        <ele>141.93000000000001</ele>
        <time>2018-07-10T08:50:48Z</time>
      </trkpt>
      <trkpt lat="48.758492991328239" lon="3.502124017104507">
        <ele>141.44999999999999</ele>
        <time>2018-07-10T08:50:49Z</time>
      </trkpt>
      <trkpt lat="48.758577983826399" lon="3.502231976017356">
        <ele>141.44999999999999</ele>
        <time>2018-07-10T08:50:50Z</time>
      </trkpt>
      <trkpt lat="48.759408965706825" lon="3.503393959254026">
        <ele>140.49000000000001</ele>
        <time>2018-07-10T08:50:59Z</time>
      </trkpt>
      <trkpt lat="48.759662015363574" lon="3.503762008622289">
        <ele>141.44999999999999</ele>
        <time>2018-07-10T08:51:06Z</time>
      </trkpt>
      <trkpt lat="48.75969797372818" lon="3.50380701944232">
        <ele>141.44999999999999</ele>
        <time>2018-07-10T08:51:07Z</time>
      </trkpt>
      <trkpt lat="48.760136011987925" lon="3.504355028271675">
        <ele>141.44999999999999</ele>
        <time>2018-07-10T08:51:14Z</time>
      </trkpt>
      <trkpt lat="48.760783011093736" lon="3.505048966035247">
        <ele>140.00999999999999</ele>
        <time>2018-07-10T08:51:21Z</time>
      </trkpt>
      <trkpt lat="48.760873032733798" lon="3.505079979076982">
        <ele>140.00999999999999</ele>
        <time>2018-07-10T08:51:22Z</time>
      </trkpt>
      <trkpt lat="48.760969005525112" lon="3.505095988512039">
        <ele>140.00999999999999</ele>
        <time>2018-07-10T08:51:23Z</time>
      </trkpt>
      <trkpt lat="48.761065984144807" lon="3.505108980461955">
        <ele>140.00999999999999</ele>
        <time>2018-07-10T08:51:24Z</time>
      </trkpt>
      <trkpt lat="48.761170003563166" lon="3.505081990733743">
        <ele>140.00999999999999</ele>
        <time>2018-07-10T08:51:25Z</time>
      </trkpt>
      <trkpt lat="48.761280979961157" lon="3.505052989348769">
        <ele>139.53</ele>
        <time>2018-07-10T08:51:26Z</time>
      </trkpt>
      <trkpt lat="48.761634025722742" lon="3.504961961880326">
        <ele>139.05000000000001</ele>
        <time>2018-07-10T08:51:29Z</time>
      </trkpt>
      <trkpt lat="48.761753970757127" lon="3.50494896993041">
        <ele>139.05000000000001</ele>
        <time>2018-07-10T08:51:30Z</time>
      </trkpt>
      <trkpt lat="48.761870982125401" lon="3.504986017942429">
        <ele>139.05000000000001</ele>
        <time>2018-07-10T08:51:31Z</time>
      </trkpt>
      <trkpt lat="48.761987993493676" lon="3.505021976307035">
        <ele>138.56999999999999</ele>
        <time>2018-07-10T08:51:32Z</time>
      </trkpt>
      <trkpt lat="48.762130988761783" lon="3.505067992955446">
        <ele>138.56999999999999</ele>
        <time>2018-07-10T08:51:33Z</time>
      </trkpt>
      <trkpt lat="48.762226039543748" lon="3.505122978240252">
        <ele>138.09</ele>
        <time>2018-07-10T08:51:34Z</time>
      </trkpt>
      <trkpt lat="48.762429971247911" lon="3.505239989608526">
        <ele>138.09</ele>
        <time>2018-07-10T08:51:36Z</time>
      </trkpt>
      <trkpt lat="48.762546982616186" lon="3.505316013470292">
        <ele>137.61000000000001</ele>
        <time>2018-07-10T08:51:37Z</time>
      </trkpt>
      <trkpt lat="48.762623006477952" lon="3.505438975989819">
        <ele>137.61000000000001</ele>
        <time>2018-07-10T08:51:38Z</time>
      </trkpt>
      <trkpt lat="48.762702969834208" lon="3.505565961822867">
        <ele>137.13</ele>
        <time>2018-07-10T08:51:39Z</time>
      </trkpt>
      <trkpt lat="48.762776982039213" lon="3.505752962082624">
        <ele>137.13</ele>
        <time>2018-07-10T08:51:40Z</time>
      </trkpt>
      <trkpt lat="48.762801960110664" lon="3.50606401450932">
        <ele>137.13</ele>
        <time>2018-07-10T08:51:42Z</time>
      </trkpt>
      <trkpt lat="48.762804977595806" lon="3.50619301199913">
        <ele>137.13</ele>
        <time>2018-07-10T08:51:43Z</time>
      </trkpt>
      <trkpt lat="48.762807995080948" lon="3.50632200948894">
        <ele>137.13</ele>
        <time>2018-07-10T08:51:44Z</time>
      </trkpt>
      <trkpt lat="48.76281101256609" lon="3.506447989493609">
        <ele>137.13</ele>
        <time>2018-07-10T08:51:45Z</time>
      </trkpt>
      <trkpt lat="48.762814030051231" lon="3.506567012518644">
        <ele>136.63999999999999</ele>
        <time>2018-07-10T08:51:46Z</time>
      </trkpt>
      <trkpt lat="48.762816041707993" lon="3.506671031937003">
        <ele>136.63999999999999</ele>
        <time>2018-07-10T08:51:47Z</time>
      </trkpt>
      <trkpt lat="48.762817969545722" lon="3.506742026656866">
        <ele>136.63999999999999</ele>
        <time>2018-07-10T08:51:48Z</time>
      </trkpt>
      <trkpt lat="48.762853005900979" lon="3.50685996003449">
        <ele>136.63999999999999</ele>
        <time>2018-07-10T08:51:49Z</time>
      </trkpt>
      <trkpt lat="48.762888964265585" lon="3.506979988887906">
        <ele>136.63999999999999</ele>
        <time>2018-07-10T08:51:50Z</time>
      </trkpt>
      <trkpt lat="48.762928023934364" lon="3.507112003862858">
        <ele>136.63999999999999</ele>
        <time>2018-07-10T08:51:51Z</time>
      </trkpt>
      <trkpt lat="48.762971023097634" lon="3.507256004959345">
        <ele>136.63999999999999</ele>
        <time>2018-07-10T08:51:52Z</time>
      </trkpt>
      <trkpt lat="48.763001030310988" lon="3.507415009662509">
        <ele>136.63999999999999</ele>
        <time>2018-07-10T08:51:53Z</time>
      </trkpt>
      <trkpt lat="48.763023996725678" lon="3.507599998265505">
        <ele>137.13</ele>
        <time>2018-07-10T08:51:54Z</time>
      </trkpt>
      <trkpt lat="48.763032965362072" lon="3.507805019617081">
        <ele>137.61000000000001</ele>
        <time>2018-07-10T08:51:55Z</time>
      </trkpt>
      <trkpt lat="48.763032965362072" lon="3.508032001554966">
        <ele>138.56999999999999</ele>
        <time>2018-07-10T08:51:56Z</time>
      </trkpt>
      <trkpt lat="48.762982003390789" lon="3.51055596023798">
        <ele>152.99000000000001</ele>
        <time>2018-07-10T08:52:06Z</time>
      </trkpt>
      <trkpt lat="48.762947972863913" lon="3.512003012001514">
        <ele>158.75</ele>
        <time>2018-07-10T08:52:12Z</time>
      </trkpt>
      <trkpt lat="48.762910002842546" lon="3.51220996119082">
        <ele>159.72</ele>
        <time>2018-07-10T08:52:13Z</time>
      </trkpt>
      <trkpt lat="48.762867003679276" lon="3.512400984764099">
        <ele>160.68000000000001</ele>
        <time>2018-07-10T08:52:14Z</time>
      </trkpt>
      <trkpt lat="48.762804977595806" lon="3.512555966153741">
        <ele>161.63999999999999</ele>
        <time>2018-07-10T08:52:15Z</time>
      </trkpt>
      <trkpt lat="48.762752003967762" lon="3.512688986957073">
        <ele>162.12</ele>
        <time>2018-07-10T08:52:16Z</time>
      </trkpt>
      <trkpt lat="48.762710010632873" lon="3.512795018032193">
        <ele>162.59999999999999</ele>
        <time>2018-07-10T08:52:17Z</time>
      </trkpt>
      <trkpt lat="48.762677991762757" lon="3.512873975560069">
        <ele>163.08000000000001</ele>
        <time>2018-07-10T08:52:18Z</time>
      </trkpt>
      <trkpt lat="48.762567015364766" lon="3.513040021061897">
        <ele>164.52000000000001</ele>
        <time>2018-07-10T08:52:21Z</time>
      </trkpt>
      <trkpt lat="48.762589981779456" lon="3.513078996911645">
        <ele>165</ele>
        <time>2018-07-10T08:52:22Z</time>
      </trkpt>
      <trkpt lat="48.762625018134713" lon="3.513142028823495">
        <ele>165.47999999999999</ele>
        <time>2018-07-10T08:52:23Z</time>
      </trkpt>
      <trkpt lat="48.762675980105996" lon="3.513230960816145">
        <ele>165.96000000000001</ele>
        <time>2018-07-10T08:52:24Z</time>
      </trkpt>
      <trkpt lat="48.762739012017846" lon="3.513341015204787">
        <ele>166.44999999999999</ele>
        <time>2018-07-10T08:52:25Z</time>
      </trkpt>
      <trkpt lat="48.763301018625498" lon="3.514323960989714">
        <ele>166.93000000000001</ele>
        <time>2018-07-10T08:52:31Z</time>
      </trkpt>
      <trkpt lat="48.764478005468845" lon="3.516384987160564">
        <ele>166.93000000000001</ele>
        <time>2018-07-10T08:52:40Z</time>
      </trkpt>
      <trkpt lat="48.765102038159966" lon="3.517320994287729">
        <ele>166.93000000000001</ele>
        <time>2018-07-10T08:52:44Z</time>
      </trkpt>
      <trkpt lat="48.765295995399356" lon="3.517475975677371">
        <ele>165.96000000000001</ele>
        <time>2018-07-10T08:52:45Z</time>
      </trkpt>
      <trkpt lat="48.76549799926579" lon="3.517616037279367">
        <ele>165.96000000000001</ele>
        <time>2018-07-10T08:52:46Z</time>
      </trkpt>
      <trkpt lat="48.765698997303843" lon="3.517757020890713">
        <ele>165.47999999999999</ele>
        <time>2018-07-10T08:52:47Z</time>
      </trkpt>
      <trkpt lat="48.765904018655419" lon="3.517873026430607">
        <ele>165</ele>
        <time>2018-07-10T08:52:48Z</time>
      </trkpt>
      <trkpt lat="48.768243994563818" lon="3.518983041867614">
        <ele>158.27000000000001</ele>
        <time>2018-07-10T08:53:00Z</time>
      </trkpt>
      <trkpt lat="48.770686984062195" lon="3.520110994577408">
        <ele>165.47999999999999</ele>
        <time>2018-07-10T08:53:13Z</time>
      </trkpt>
      <trkpt lat="48.7735550198704" lon="3.521441034972668">
        <ele>171.25</ele>
        <time>2018-07-10T08:53:28Z</time>
      </trkpt>
      <trkpt lat="48.776972992345691" lon="3.523024963214994">
        <ele>183.27000000000001</ele>
        <time>2018-07-10T08:53:46Z</time>
      </trkpt>
      <trkpt lat="48.780228020623326" lon="3.524527000263333">
        <ele>195.28</ele>
        <time>2018-07-10T08:54:03Z</time>
      </trkpt>
      <trkpt lat="48.780423989519477" lon="3.524618027731776">
        <ele>195.77000000000001</ele>
        <time>2018-07-10T08:54:04Z</time>
      </trkpt>
      <trkpt lat="48.782359035685658" lon="3.525517992675304">
        <ele>196.72999999999999</ele>
        <time>2018-07-10T08:54:14Z</time>
      </trkpt>
      <trkpt lat="48.785395966842771" lon="3.526962026953697">
        <ele>196.25</ele>
        <time>2018-07-10T08:54:30Z</time>
      </trkpt>
      <trkpt lat="48.788628028705716" lon="3.52845199406147">
        <ele>201.05000000000001</ele>
        <time>2018-07-10T08:54:47Z</time>
      </trkpt>
      <trkpt lat="48.789413999766111" lon="3.528719041496515">
        <ele>199.61000000000001</ele>
        <time>2018-07-10T08:54:51Z</time>
      </trkpt>
      <trkpt lat="48.791418028995395" lon="3.528750976547599">
        <ele>191.44</ele>
        <time>2018-07-10T08:55:01Z</time>
      </trkpt>
      <trkpt lat="48.794042989611626" lon="3.528722980991006">
        <ele>190.47999999999999</ele>
        <time>2018-07-10T08:55:15Z</time>
      </trkpt>
      <trkpt lat="48.794751008972526" lon="3.528715018182993">
        <ele>194.80000000000001</ele>
        <time>2018-07-10T08:55:22Z</time>
      </trkpt>
      <trkpt lat="48.795794975012541" lon="3.528834041208029">
        <ele>199.13</ele>
        <time>2018-07-10T08:55:32Z</time>
      </trkpt>
      <trkpt lat="48.796292021870613" lon="3.528906963765621">
        <ele>199.61000000000001</ele>
        <time>2018-07-10T08:55:39Z</time>
      </trkpt>
      <trkpt lat="48.796729976311326" lon="3.528995979577303">
        <ele>199.13</ele>
        <time>2018-07-10T08:55:43Z</time>
      </trkpt>
      <trkpt lat="48.797723986208439" lon="3.52944097481668">
        <ele>191.91999999999999</ele>
        <time>2018-07-10T08:55:50Z</time>
      </trkpt>
      <trkpt lat="48.799544032663107" lon="3.530417969450355">
        <ele>179.90000000000001</ele>
        <time>2018-07-10T08:56:00Z</time>
      </trkpt>
      <trkpt lat="48.802154995501041" lon="3.531956970691681">
        <ele>166.93000000000001</ele>
        <time>2018-07-10T08:56:14Z</time>
      </trkpt>
      <trkpt lat="48.8037199806422" lon="3.533150972798467">
        <ele>159.72</ele>
        <time>2018-07-10T08:56:23Z</time>
      </trkpt>
      <trkpt lat="48.803844032809138" lon="3.53330897167325">
        <ele>159.72</ele>
        <time>2018-07-10T08:56:24Z</time>
      </trkpt>
      <trkpt lat="48.803948974236846" lon="3.533481974154711">
        <ele>159.72</ele>
        <time>2018-07-10T08:56:25Z</time>
      </trkpt>
      <trkpt lat="48.804033966735005" lon="3.533677021041513">
        <ele>160.19999999999999</ele>
        <time>2018-07-10T08:56:26Z</time>
      </trkpt>
      <trkpt lat="48.804090963676572" lon="3.533905008807778">
        <ele>161.16</ele>
        <time>2018-07-10T08:56:27Z</time>
      </trkpt>
      <trkpt lat="48.804135974496603" lon="3.534143976867199">
        <ele>161.63999999999999</ele>
        <time>2018-07-10T08:56:28Z</time>
      </trkpt>
      <trkpt lat="48.804179979488254" lon="3.534383028745651">
        <ele>162.59999999999999</ele>
        <time>2018-07-10T08:56:29Z</time>
      </trkpt>
      <trkpt lat="48.80483603104949" lon="3.537315018475056">
        <ele>177.02000000000001</ele>
        <time>2018-07-10T08:56:41Z</time>
      </trkpt>
      <trkpt lat="48.804928986355662" lon="3.537545017898083">
        <ele>177.5</ele>
        <time>2018-07-10T08:56:42Z</time>
      </trkpt>
      <trkpt lat="48.805047003552318" lon="3.537741992622614">
        <ele>178.46000000000001</ele>
        <time>2018-07-10T08:56:43Z</time>
      </trkpt>
      <trkpt lat="48.805181030184031" lon="3.53790401481092">
        <ele>179.41999999999999</ele>
        <time>2018-07-10T08:56:44Z</time>
      </trkpt>
      <trkpt lat="48.805321007966995" lon="3.538043992593885">
        <ele>179.90000000000001</ele>
        <time>2018-07-10T08:56:45Z</time>
      </trkpt>
      <trkpt lat="48.805478001013398" lon="3.53814197704196">
        <ele>180.87</ele>
        <time>2018-07-10T08:56:46Z</time>
      </trkpt>
      <trkpt lat="48.805637005716562" lon="3.538216995075345">
        <ele>181.83000000000001</ele>
        <time>2018-07-10T08:56:47Z</time>
      </trkpt>
      <trkpt lat="48.808203041553497" lon="3.539321981370449">
        <ele>189.52000000000001</ele>
        <time>2018-07-10T08:57:02Z</time>
      </trkpt>
      <trkpt lat="48.810485014691949" lon="3.540286989882588">
        <ele>192.88</ele>
        <time>2018-07-10T08:57:14Z</time>
      </trkpt>
      <trkpt lat="48.813931988552213" lon="3.541771005839109">
        <ele>203.94</ele>
        <time>2018-07-10T08:57:32Z</time>
      </trkpt>
      <trkpt lat="48.817193973809481" lon="3.543174974620342">
        <ele>201.53</ele>
        <time>2018-07-10T08:57:49Z</time>
      </trkpt>
      <trkpt lat="48.820056980475783" lon="3.544419016689062">
        <ele>211.15000000000001</ele>
        <time>2018-07-10T08:58:04Z</time>
      </trkpt>
      <trkpt lat="48.821415016427636" lon="3.545011030510068">
        <ele>214.50999999999999</ele>
        <time>2018-07-10T08:58:11Z</time>
      </trkpt>
      <trkpt lat="48.823179993778467" lon="3.545766994357109">
        <ele>214.99000000000001</ele>
        <time>2018-07-10T08:58:20Z</time>
      </trkpt>
      <trkpt lat="48.824902977794409" lon="3.546504015102983">
        <ele>210.19</ele>
        <time>2018-07-10T08:58:29Z</time>
      </trkpt>
      <trkpt lat="48.826999962329865" lon="3.547400962561369">
        <ele>211.15000000000001</ele>
        <time>2018-07-10T08:58:40Z</time>
      </trkpt>
      <trkpt lat="48.828629991039634" lon="3.548094984143972">
        <ele>215.47</ele>
        <time>2018-07-10T08:58:49Z</time>
      </trkpt>
      <trkpt lat="48.831595005467534" lon="3.549356963485479">
        <ele>216.91</ele>
        <time>2018-07-10T08:59:06Z</time>
      </trkpt>
      <trkpt lat="48.833979992195964" lon="3.550381986424327">
        <ele>216.91</ele>
        <time>2018-07-10T08:59:18Z</time>
      </trkpt>
      <trkpt lat="48.835985027253628" lon="3.551229983568192">
        <ele>215.47</ele>
        <time>2018-07-10T08:59:28Z</time>
      </trkpt>
      <trkpt lat="48.838474033400416" lon="3.552295994013548">
        <ele>206.81999999999999</ele>
        <time>2018-07-10T08:59:41Z</time>
      </trkpt>
      <trkpt lat="48.840411007404327" lon="3.553479015827179">
        <ele>196.72999999999999</ele>
        <time>2018-07-10T08:59:53Z</time>
      </trkpt>
      <trkpt lat="48.841367969289422" lon="3.554964037612081">
        <ele>192.40000000000001</ele>
        <time>2018-07-10T09:00:01Z</time>
      </trkpt>
      <trkpt lat="48.841880019754171" lon="3.55618997476995">
        <ele>192.40000000000001</ele>
        <time>2018-07-10T09:00:08Z</time>
      </trkpt>
      <trkpt lat="48.842448983341455" lon="3.557729981839657">
        <ele>188.08000000000001</ele>
        <time>2018-07-10T09:00:19Z</time>
      </trkpt>
      <trkpt lat="48.842551996931434" lon="3.558068023994565">
        <ele>188.56</ele>
        <time>2018-07-10T09:00:22Z</time>
      </trkpt>
      <trkpt lat="48.842539004981518" lon="3.558154022321105">
        <ele>188.56</ele>
        <time>2018-07-10T09:00:23Z</time>
      </trkpt>
      <trkpt lat="48.842519978061318" lon="3.558291988447309">
        <ele>188.08000000000001</ele>
        <time>2018-07-10T09:00:25Z</time>
      </trkpt>
      <trkpt lat="48.842513021081686" lon="3.55833699926734">
        <ele>188.08000000000001</ele>
        <time>2018-07-10T09:00:26Z</time>
      </trkpt>
      <trkpt lat="48.842508997768164" lon="3.558364994823933">
        <ele>188.08000000000001</ele>
        <time>2018-07-10T09:00:27Z</time>
      </trkpt>
      <trkpt lat="48.842598013579845" lon="3.558459039777517">
        <ele>187.59</ele>
        <time>2018-07-10T09:00:34Z</time>
      </trkpt>
      <trkpt lat="48.842657022178173" lon="3.558438001200557">
        <ele>187.59</ele>
        <time>2018-07-10T09:00:35Z</time>
      </trkpt>
      <trkpt lat="48.84273698553443" lon="3.558408999815583">
        <ele>187.11000000000001</ele>
        <time>2018-07-10T09:00:36Z</time>
      </trkpt>
      <trkpt lat="48.843538966029882" lon="3.55820800177753">
        <ele>185.19</ele>
        <time>2018-07-10T09:00:42Z</time>
      </trkpt>
      <trkpt lat="48.845314001664519" lon="3.557786978781223">
        <ele>180.38</ele>
        <time>2018-07-10T09:00:51Z</time>
      </trkpt>
      <trkpt lat="48.847204959020019" lon="3.557314993813634">
        <ele>176.53999999999999</ele>
        <time>2018-07-10T09:01:00Z</time>
      </trkpt>
      <trkpt lat="48.848701966926455" lon="3.556289970874786">
        <ele>171.25</ele>
        <time>2018-07-10T09:01:08Z</time>
      </trkpt>
      <trkpt lat="48.849170012399554" lon="3.555750008672476">
        <ele>167.41</ele>
        <time>2018-07-10T09:01:11Z</time>
      </trkpt>
      <trkpt lat="48.850168967619538" lon="3.553784033283591">
        <ele>157.31</ele>
        <time>2018-07-10T09:01:19Z</time>
      </trkpt>
      <trkpt lat="48.850510027259588" lon="3.553015999495983">
        <ele>153.47</ele>
        <time>2018-07-10T09:01:22Z</time>
      </trkpt>
      <trkpt lat="48.850660985335708" lon="3.552812989801168">
        <ele>152.50999999999999</ele>
        <time>2018-07-10T09:01:23Z</time>
      </trkpt>
      <trkpt lat="48.850974971428514" lon="3.552398001775146">
        <ele>150.58000000000001</ele>
        <time>2018-07-10T09:01:25Z</time>
      </trkpt>
      <trkpt lat="48.851326005533338" lon="3.552083009853959">
        <ele>148.66</ele>
        <time>2018-07-10T09:01:27Z</time>
      </trkpt>
      <trkpt lat="48.851505964994431" lon="3.551967004314065">
        <ele>148.18000000000001</ele>
        <time>2018-07-10T09:01:28Z</time>
      </trkpt>
      <trkpt lat="48.851695982739329" lon="3.551885029301047">
        <ele>147.22</ele>
        <time>2018-07-10T09:01:29Z</time>
      </trkpt>
      <trkpt lat="48.85188901796937" lon="3.551802970468998">
        <ele>146.25999999999999</ele>
        <time>2018-07-10T09:01:30Z</time>
      </trkpt>
      <trkpt lat="48.852091021835804" lon="3.551778998225927">
        <ele>145.78</ele>
        <time>2018-07-10T09:01:31Z</time>
      </trkpt>
      <trkpt lat="48.852295959368348" lon="3.551755025982857">
        <ele>145.30000000000001</ele>
        <time>2018-07-10T09:01:32Z</time>
      </trkpt>
      <trkpt lat="48.852501986548305" lon="3.551730969920754">
        <ele>144.81999999999999</ele>
        <time>2018-07-10T09:01:33Z</time>
      </trkpt>
      <trkpt lat="48.852701978757977" lon="3.551684031262994">
        <ele>144.34</ele>
        <time>2018-07-10T09:01:34Z</time>
      </trkpt>
      <trkpt lat="48.85371501557529" lon="3.551325034350157">
        <ele>140.49000000000001</ele>
        <time>2018-07-10T09:01:39Z</time>
      </trkpt>
      <trkpt lat="48.853921964764595" lon="3.55131296440959">
        <ele>140.00999999999999</ele>
        <time>2018-07-10T09:01:40Z</time>
      </trkpt>
      <trkpt lat="48.854133021086454" lon="3.551348000764847">
        <ele>139.05000000000001</ele>
        <time>2018-07-10T09:01:41Z</time>
      </trkpt>
      <trkpt lat="48.854332007467747" lon="3.551403991878033">
        <ele>138.09</ele>
        <time>2018-07-10T09:01:42Z</time>
      </trkpt>
      <trkpt lat="48.854525964707136" lon="3.551508011296392">
        <ele>137.61000000000001</ele>
        <time>2018-07-10T09:01:43Z</time>
      </trkpt>
      <trkpt lat="48.854715982452035" lon="3.551644971594214">
        <ele>137.13</ele>
        <time>2018-07-10T09:01:44Z</time>
      </trkpt>
      <trkpt lat="48.854893008247018" lon="3.551815040409565">
        <ele>136.63999999999999</ele>
        <time>2018-07-10T09:01:45Z</time>
      </trkpt>
      <trkpt lat="48.855071039870381" lon="3.551986031234264">
        <ele>135.68000000000001</ele>
        <time>2018-07-10T09:01:46Z</time>
      </trkpt>
      <trkpt lat="48.856595037505031" lon="3.553538024425507">
        <ele>128.94999999999999</ele>
        <time>2018-07-10T09:01:55Z</time>
      </trkpt>
      <trkpt lat="48.856760999187827" lon="3.553713960573077">
        <ele>128.47</ele>
        <time>2018-07-10T09:01:56Z</time>
      </trkpt>
      <trkpt lat="48.858327995985746" lon="3.555078031495214">
        <ele>128.94999999999999</ele>
        <time>2018-07-10T09:02:05Z</time>
      </trkpt>
      <trkpt lat="48.859408004209399" lon="3.555811028927565">
        <ele>134.72</ele>
        <time>2018-07-10T09:02:11Z</time>
      </trkpt>
      <trkpt lat="48.859554016962647" lon="3.555979002267122">
        <ele>135.19999999999999</ele>
        <time>2018-07-10T09:02:12Z</time>
      </trkpt>
      <trkpt lat="48.859687959775329" lon="3.556163990870118">
        <ele>136.16</ele>
        <time>2018-07-10T09:02:13Z</time>
      </trkpt>
      <trkpt lat="48.859806982800364" lon="3.556383009999991">
        <ele>136.63999999999999</ele>
        <time>2018-07-10T09:02:14Z</time>
      </trkpt>
      <trkpt lat="48.859907984733582" lon="3.556630024686456">
        <ele>137.61000000000001</ele>
        <time>2018-07-10T09:02:15Z</time>
      </trkpt>
      <trkpt lat="48.860008986666799" lon="3.556877039372921">
        <ele>138.56999999999999</ele>
        <time>2018-07-10T09:02:16Z</time>
      </trkpt>
      <trkpt lat="48.860230017453432" lon="3.557329997420311">
        <ele>140.49000000000001</ele>
        <time>2018-07-10T09:02:18Z</time>
      </trkpt>
      <trkpt lat="48.860362032428384" lon="3.557528983801603">
        <ele>141.44999999999999</ele>
        <time>2018-07-10T09:02:19Z</time>
      </trkpt>
      <trkpt lat="48.860516007989645" lon="3.557682959362865">
        <ele>142.41</ele>
        <time>2018-07-10T09:02:20Z</time>
      </trkpt>
      <trkpt lat="48.860667971894145" lon="3.55782201513648">
        <ele>143.37</ele>
        <time>2018-07-10T09:02:21Z</time>
      </trkpt>
      <trkpt lat="48.860838040709496" lon="3.557896027341485">
        <ele>143.84999999999999</ele>
        <time>2018-07-10T09:02:22Z</time>
      </trkpt>
      <trkpt lat="48.861007019877434" lon="3.557959981262684">
        <ele>144.34</ele>
        <time>2018-07-10T09:02:23Z</time>
      </trkpt>
      <trkpt lat="48.861189996823668" lon="3.557946989312768">
        <ele>145.30000000000001</ele>
        <time>2018-07-10T09:02:24Z</time>
      </trkpt>
      <trkpt lat="48.861379008740187" lon="3.557933997362852">
        <ele>145.78</ele>
        <time>2018-07-10T09:02:25Z</time>
      </trkpt>
      <trkpt lat="48.861573971807957" lon="3.557919999584556">
        <ele>146.74000000000001</ele>
        <time>2018-07-10T09:02:26Z</time>
      </trkpt>
      <trkpt lat="48.863050024956465" lon="3.558042962104082">
        <ele>153.47</ele>
        <time>2018-07-10T09:02:33Z</time>
      </trkpt>
      <trkpt lat="48.864471009001136" lon="3.55831797234714">
        <ele>161.16</ele>
        <time>2018-07-10T09:02:40Z</time>
      </trkpt>
      <trkpt lat="48.864639988169074" lon="3.558292994275689">
        <ele>162.12</ele>
        <time>2018-07-10T09:02:41Z</time>
      </trkpt>
      <trkpt lat="48.864808967337012" lon="3.55823096819222">
        <ele>163.08000000000001</ele>
        <time>2018-07-10T09:02:42Z</time>
      </trkpt>
      <trkpt lat="48.864981969818473" lon="3.558168020099402">
        <ele>164.03999999999999</ele>
        <time>2018-07-10T09:02:43Z</time>
      </trkpt>
      <trkpt lat="48.865150026977062" lon="3.55805603787303">
        <ele>164.52000000000001</ele>
        <time>2018-07-10T09:02:44Z</time>
      </trkpt>
      <trkpt lat="48.865322023630142" lon="3.557926034554839">
        <ele>165.47999999999999</ele>
        <time>2018-07-10T09:02:45Z</time>
      </trkpt>
      <trkpt lat="48.867286993190646" lon="3.556435983628035">
        <ele>175.09999999999999</ele>
        <time>2018-07-10T09:02:55Z</time>
      </trkpt>
      <trkpt lat="48.869009977206588" lon="3.555105021223426">
        <ele>184.71000000000001</ele>
        <time>2018-07-10T09:03:04Z</time>
      </trkpt>
      <trkpt lat="48.869151966646314" lon="3.554955990985036">
        <ele>185.19</ele>
        <time>2018-07-10T09:03:05Z</time>
      </trkpt>
      <trkpt lat="48.869614982977509" lon="3.554471014067531">
        <ele>188.56</ele>
        <time>2018-07-10T09:03:09Z</time>
      </trkpt>
      <trkpt lat="48.869705004617572" lon="3.554375963285565">
        <ele>189.03999999999999</ele>
        <time>2018-07-10T09:03:10Z</time>
      </trkpt>
      <trkpt lat="48.869783962145448" lon="3.554292982444167">
        <ele>189.52000000000001</ele>
        <time>2018-07-10T09:03:11Z</time>
      </trkpt>
      <trkpt lat="48.870575968176126" lon="3.553574988618493">
        <ele>195.77000000000001</ele>
        <time>2018-07-10T09:03:21Z</time>
      </trkpt>
      <trkpt lat="48.87081703171134" lon="3.553430987522006">
        <ele>198.65000000000001</ele>
        <time>2018-07-10T09:03:25Z</time>
      </trkpt>
      <trkpt lat="48.870868999511003" lon="3.553411038592458">
        <ele>199.13</ele>
        <time>2018-07-10T09:03:26Z</time>
      </trkpt>
      <trkpt lat="48.870915016159415" lon="3.5533950291574">
        <ele>200.09</ele>
        <time>2018-07-10T09:03:27Z</time>
      </trkpt>
      <trkpt lat="48.871004031971097" lon="3.55341698974371">
        <ele>200.56999999999999</ele>
        <time>2018-07-10T09:03:28Z</time>
      </trkpt>
      <trkpt lat="48.871049964800477" lon="3.553540958091617">
        <ele>201.05000000000001</ele>
        <time>2018-07-10T09:03:29Z</time>
      </trkpt>
      <trkpt lat="48.871049964800477" lon="3.553540958091617">
        <ele>201.53</ele>
        <time>2018-07-10T09:03:30Z</time>
      </trkpt>
      <trkpt lat="48.871072009205818" lon="3.553557973355055">
        <ele>201.53</ele>
        <time>2018-07-10T09:03:31Z</time>
      </trkpt>
      <trkpt lat="48.871106039732695" lon="3.553584963083267">
        <ele>202.00999999999999</ele>
        <time>2018-07-10T09:03:32Z</time>
      </trkpt>
      <trkpt lat="48.871130011975765" lon="3.553604995831847">
        <ele>202.49000000000001</ele>
        <time>2018-07-10T09:03:33Z</time>
      </trkpt>
      <trkpt lat="48.87120402418077" lon="3.553646989166737">
        <ele>204.41999999999999</ele>
        <time>2018-07-10T09:03:40Z</time>
      </trkpt>
      <trkpt lat="48.871294967830181" lon="3.554135989397764">
        <ele>204.90000000000001</ele>
        <time>2018-07-10T09:03:46Z</time>
      </trkpt>
      <trkpt lat="48.871503006666899" lon="3.555427975952625">
        <ele>205.86000000000001</ele>
        <time>2018-07-10T09:03:55Z</time>
      </trkpt>
      <trkpt lat="48.871586993336678" lon="3.555963998660445">
        <ele>206.34</ele>
        <time>2018-07-10T09:04:00Z</time>
      </trkpt>
      <trkpt lat="48.871598979458213" lon="3.556040022522211">
        <ele>206.81999999999999</ele>
        <time>2018-07-10T09:04:01Z</time>
      </trkpt>
      <trkpt lat="48.871608031913638" lon="3.556099031120539">
        <ele>206.81999999999999</ele>
        <time>2018-07-10T09:04:02Z</time>
      </trkpt>
      <trkpt lat="48.87161398306489" lon="3.556137001141906">
        <ele>206.81999999999999</ele>
        <time>2018-07-10T09:04:03Z</time>
      </trkpt>
      <trkpt lat="48.871617000550032" lon="3.556155022233725">
        <ele>206.34</ele>
        <time>2018-07-10T09:04:04Z</time>
      </trkpt>
      <trkpt lat="48.871414996683598" lon="3.556502033025026">
        <ele>206.34</ele>
        <time>2018-07-10T09:04:06Z</time>
      </trkpt>
      <trkpt lat="48.871414996683598" lon="3.556502033025026">
        <ele>206.34</ele>
        <time>2018-07-10T09:04:07Z</time>
      </trkpt>
      <trkpt lat="48.871317012235522" lon="3.556538997218013">
        <ele>206.34</ele>
        <time>2018-07-10T09:04:10Z</time>
      </trkpt>
      <trkpt lat="48.871279964223504" lon="3.556552994996309">
        <ele>206.34</ele>
        <time>2018-07-10T09:04:11Z</time>
      </trkpt>
      <trkpt lat="48.87124702334404" lon="3.556565986946225">
        <ele>206.34</ele>
        <time>2018-07-10T09:04:12Z</time>
      </trkpt>
      <trkpt lat="48.871221961453557" lon="3.55657503940165">
        <ele>206.34</ele>
        <time>2018-07-10T09:04:13Z</time>
      </trkpt>
      <trkpt lat="48.871202012524009" lon="3.556583002209663">
        <ele>206.34</ele>
        <time>2018-07-10T09:04:14Z</time>
      </trkpt>
      <trkpt lat="48.871188014745712" lon="3.556588031351566">
        <ele>206.34</ele>
        <time>2018-07-10T09:04:15Z</time>
      </trkpt>
      <trkpt lat="48.871193965896964" lon="3.556550983339548">
        <ele>206.34</ele>
        <time>2018-07-10T09:04:17Z</time>
      </trkpt>
      <trkpt lat="48.871285999193788" lon="3.556645028293133">
        <ele>205.86000000000001</ele>
        <time>2018-07-10T09:04:24Z</time>
      </trkpt>
      <trkpt lat="48.871370991691947" lon="3.556656008586288">
        <ele>204.90000000000001</ele>
        <time>2018-07-10T09:04:38Z</time>
      </trkpt>
      <trkpt lat="48.87139898724854" lon="3.556657014414668">
        <ele>203.46000000000001</ele>
        <time>2018-07-10T09:04:55Z</time>
      </trkpt>
      <trkpt lat="48.871604008600116" lon="3.556578978896141">
        <ele>201.05000000000001</ele>
        <time>2018-07-10T09:18:56Z</time>
      </trkpt>
      <trkpt lat="48.871461013332009" lon="3.556690039113164">
        <ele>198.16999999999999</ele>
        <time>2018-07-10T09:19:35Z</time>
      </trkpt>
      <trkpt lat="48.871465958654881" lon="3.556646034121513">
        <ele>199.13</ele>
        <time>2018-07-10T09:20:09Z</time>
      </trkpt>
      <trkpt lat="48.871385995298624" lon="3.556513013318181">
        <ele>200.09</ele>
        <time>2018-07-10T09:20:13Z</time>
      </trkpt>
      <trkpt lat="48.871332015842199" lon="3.55653396807611">
        <ele>199.61000000000001</ele>
        <time>2018-07-10T09:20:14Z</time>
      </trkpt>
      <trkpt lat="48.871265966445208" lon="3.556559029966593">
        <ele>199.61000000000001</ele>
        <time>2018-07-10T09:20:15Z</time>
      </trkpt>
      <trkpt lat="48.870934965088964" lon="3.55668400414288">
        <ele>199.13</ele>
        <time>2018-07-10T09:20:21Z</time>
      </trkpt>
      <trkpt lat="48.870898000895977" lon="3.556698001921177">
        <ele>199.13</ele>
        <time>2018-07-10T09:20:22Z</time>
      </trkpt>
      <trkpt lat="48.870865982025862" lon="3.556709988042712">
        <ele>199.61000000000001</ele>
        <time>2018-07-10T09:20:23Z</time>
      </trkpt>
      <trkpt lat="48.870780989527702" lon="3.556664977222681">
        <ele>199.61000000000001</ele>
        <time>2018-07-10T09:20:24Z</time>
      </trkpt>
      <trkpt lat="48.870771015062928" lon="3.556602029129863">
        <ele>199.61000000000001</ele>
        <time>2018-07-10T09:20:25Z</time>
      </trkpt>
      <trkpt lat="48.870758023113012" lon="3.556521981954575">
        <ele>200.09</ele>
        <time>2018-07-10T09:20:26Z</time>
      </trkpt>
      <trkpt lat="48.870743019506335" lon="3.556422991678119">
        <ele>200.09</ele>
        <time>2018-07-10T09:20:27Z</time>
      </trkpt>
      <trkpt lat="48.870577979832888" lon="3.555404003709555">
        <ele>200.56999999999999</ele>
        <time>2018-07-10T09:20:34Z</time>
      </trkpt>
      <trkpt lat="48.870534980669618" lon="3.555085994303227">
        <ele>200.56999999999999</ele>
        <time>2018-07-10T09:20:37Z</time>
      </trkpt>
      <trkpt lat="48.870525006204844" lon="3.555064033716917">
        <ele>200.56999999999999</ele>
        <time>2018-07-10T09:20:38Z</time>
      </trkpt>
      <trkpt lat="48.870497010648251" lon="3.55500896461308">
        <ele>201.05000000000001</ele>
        <time>2018-07-10T09:20:40Z</time>
      </trkpt>
      <trkpt lat="48.8704530056566" lon="3.554993038997054">
        <ele>201.05000000000001</ele>
        <time>2018-07-10T09:20:41Z</time>
      </trkpt>
      <trkpt lat="48.870418975129724" lon="3.555062022060156">
        <ele>201.05000000000001</ele>
        <time>2018-07-10T09:20:42Z</time>
      </trkpt>
      <trkpt lat="48.870374970138073" lon="3.555150032043457">
        <ele>201.05000000000001</ele>
        <time>2018-07-10T09:20:43Z</time>
      </trkpt>
      <trkpt lat="48.87032400816679" lon="3.555250028148294">
        <ele>200.56999999999999</ele>
        <time>2018-07-10T09:20:44Z</time>
      </trkpt>
      <trkpt lat="48.870269022881985" lon="3.555361004546285">
        <ele>200.56999999999999</ele>
        <time>2018-07-10T09:20:45Z</time>
      </trkpt>
      <trkpt lat="48.870148994028568" lon="3.555600978434086">
        <ele>201.05000000000001</ele>
        <time>2018-07-10T09:20:47Z</time>
      </trkpt>
      <trkpt lat="48.870027959346771" lon="3.55571698397398">
        <ele>200.56999999999999</ele>
        <time>2018-07-10T09:20:48Z</time>
      </trkpt>
      <trkpt lat="48.869926035404205" lon="3.555814968422055">
        <ele>200.56999999999999</ele>
        <time>2018-07-10T09:20:49Z</time>
      </trkpt>
      <trkpt lat="48.869039984419942" lon="3.556706970557571">
        <ele>198.16999999999999</ele>
        <time>2018-07-10T09:20:57Z</time>
      </trkpt>
      <trkpt lat="48.868109006434679" lon="3.558086967095733">
        <ele>196.25</ele>
        <time>2018-07-10T09:21:07Z</time>
      </trkpt>
      <trkpt lat="48.867884958162904" lon="3.55844696983695">
        <ele>195.28</ele>
        <time>2018-07-10T09:21:10Z</time>
      </trkpt>
      <trkpt lat="48.867808012291789" lon="3.558515030890703">
        <ele>194.31999999999999</ele>
        <time>2018-07-10T09:21:11Z</time>
      </trkpt>
      <trkpt lat="48.867727965116501" lon="3.558546965941787">
        <ele>194.31999999999999</ele>
        <time>2018-07-10T09:21:12Z</time>
      </trkpt>
      <trkpt lat="48.867646995931864" lon="3.558579990640283">
        <ele>193.84</ele>
        <time>2018-07-10T09:21:13Z</time>
      </trkpt>
      <trkpt lat="48.867563009262085" lon="3.558614021167159">
        <ele>193.36000000000001</ele>
        <time>2018-07-10T09:21:14Z</time>
      </trkpt>
      <trkpt lat="48.867484973743558" lon="3.558645034208894">
        <ele>192.88</ele>
        <time>2018-07-10T09:21:15Z</time>
      </trkpt>
      <trkpt lat="48.867424037307501" lon="3.558669006451964">
        <ele>192.40000000000001</ele>
        <time>2018-07-10T09:21:16Z</time>
      </trkpt>
      <trkpt lat="48.867365028709173" lon="3.558720974251628">
        <ele>191.44</ele>
        <time>2018-07-10T09:21:18Z</time>
      </trkpt>
      <trkpt lat="48.867365028709173" lon="3.558720974251628">
        <ele>189.03999999999999</ele>
        <time>2018-07-10T09:21:29Z</time>
      </trkpt>
      <trkpt lat="48.867441974580288" lon="3.55872399173677">
        <ele>188.56</ele>
        <time>2018-07-10T09:21:33Z</time>
      </trkpt>
      <trkpt lat="48.867450021207333" lon="3.558746036142111">
        <ele>188.08000000000001</ele>
        <time>2018-07-10T09:21:34Z</time>
      </trkpt>
      <trkpt lat="48.86761799454689" lon="3.559250961989164">
        <ele>187.11000000000001</ele>
        <time>2018-07-10T09:21:43Z</time>
      </trkpt>
      <trkpt lat="48.867691000923514" lon="3.55939001776278">
        <ele>187.59</ele>
        <time>2018-07-10T09:21:45Z</time>
      </trkpt>
      <trkpt lat="48.867887975648046" lon="3.559679025784135">
        <ele>188.56</ele>
        <time>2018-07-10T09:21:49Z</time>
      </trkpt>
      <trkpt lat="48.867933992296457" lon="3.559745997190476">
        <ele>188.56</ele>
        <time>2018-07-10T09:21:50Z</time>
      </trkpt>
      <trkpt lat="48.867984032258391" lon="3.559915982186794">
        <ele>189.03999999999999</ele>
        <time>2018-07-10T09:21:52Z</time>
      </trkpt>
      <trkpt lat="48.867997024208307" lon="3.559984965249896">
        <ele>189.52000000000001</ele>
        <time>2018-07-10T09:21:53Z</time>
      </trkpt>
      <trkpt lat="48.867997024208307" lon="3.560074986889958">
        <ele>189.52000000000001</ele>
        <time>2018-07-10T09:21:54Z</time>
      </trkpt>
      <trkpt lat="48.867980008944869" lon="3.560228040441871">
        <ele>190.47999999999999</ele>
        <time>2018-07-10T09:21:56Z</time>
      </trkpt>
      <trkpt lat="48.867971040308475" lon="3.560304986312985">
        <ele>190.96000000000001</ele>
        <time>2018-07-10T09:21:57Z</time>
      </trkpt>
      <trkpt lat="48.86796198785305" lon="3.560384027659893">
        <ele>190.96000000000001</ele>
        <time>2018-07-10T09:21:58Z</time>
      </trkpt>
      <trkpt lat="48.86798101477325" lon="3.561452971771359">
        <ele>194.31999999999999</ele>
        <time>2018-07-10T09:22:09Z</time>
      </trkpt>
      <trkpt lat="48.867952013388276" lon="3.561795959249139">
        <ele>194.80000000000001</ele>
        <time>2018-07-10T09:22:14Z</time>
      </trkpt>
      <trkpt lat="48.867936003953218" lon="3.561941972002387">
        <ele>194.80000000000001</ele>
        <time>2018-07-10T09:22:16Z</time>
      </trkpt>
      <trkpt lat="48.867914965376258" lon="3.562007015570998">
        <ele>194.80000000000001</ele>
        <time>2018-07-10T09:22:17Z</time>
      </trkpt>
      <trkpt lat="48.86789602227509" lon="3.562069963663817">
        <ele>194.80000000000001</ele>
        <time>2018-07-10T09:22:18Z</time>
      </trkpt>
      <trkpt lat="48.867878001183271" lon="3.562127966433764">
        <ele>194.80000000000001</ele>
        <time>2018-07-10T09:22:19Z</time>
      </trkpt>
      <trkpt lat="48.867859980091453" lon="3.562185969203711">
        <ele>194.80000000000001</ele>
        <time>2018-07-10T09:22:20Z</time>
      </trkpt>
      <trkpt lat="48.867842964828014" lon="3.562242966145277">
        <ele>194.31999999999999</ele>
        <time>2018-07-10T09:22:21Z</time>
      </trkpt>
      <trkpt lat="48.867825027555227" lon="3.562300968915224">
        <ele>194.31999999999999</ele>
        <time>2018-07-10T09:22:22Z</time>
      </trkpt>
      <trkpt lat="48.867770964279771" lon="3.562477994710207">
        <ele>194.31999999999999</ele>
        <time>2018-07-10T09:22:25Z</time>
      </trkpt>
      <trkpt lat="48.867734000086784" lon="3.562598023563623">
        <ele>194.80000000000001</ele>
        <time>2018-07-10T09:22:27Z</time>
      </trkpt>
      <trkpt lat="48.867695024237037" lon="3.562725009396672">
        <ele>195.28</ele>
        <time>2018-07-10T09:22:29Z</time>
      </trkpt>
      <trkpt lat="48.867682032287121" lon="3.562768008559942">
        <ele>195.28</ele>
        <time>2018-07-10T09:22:30Z</time>
      </trkpt>
      <trkpt lat="48.867629980668426" lon="3.562822993844748">
        <ele>195.28</ele>
        <time>2018-07-10T09:22:31Z</time>
      </trkpt>
      <trkpt lat="48.86755496263504" lon="3.562903041020036">
        <ele>195.77000000000001</ele>
        <time>2018-07-10T09:22:33Z</time>
      </trkpt>
      <trkpt lat="48.867436023429036" lon="3.563030026853085">
        <ele>195.77000000000001</ele>
        <time>2018-07-10T09:22:36Z</time>
      </trkpt>
      <trkpt lat="48.867248017340899" lon="3.563232030719519">
        <ele>195.28</ele>
        <time>2018-07-10T09:22:41Z</time>
      </trkpt>
      <trkpt lat="48.867217004299164" lon="3.563264971598983">
        <ele>195.28</ele>
        <time>2018-07-10T09:22:42Z</time>
      </trkpt>
      <trkpt lat="48.867184985429049" lon="3.563299002125859">
        <ele>195.77000000000001</ele>
        <time>2018-07-10T09:22:43Z</time>
      </trkpt>
      <trkpt lat="48.867159001529217" lon="3.563326997682452">
        <ele>195.77000000000001</ele>
        <time>2018-07-10T09:22:44Z</time>
      </trkpt>
      <trkpt lat="48.867139974609017" lon="3.563461024314165">
        <ele>195.28</ele>
        <time>2018-07-10T09:22:45Z</time>
      </trkpt>
      <trkpt lat="48.867160007357597" lon="3.563477033749223">
        <ele>195.28</ele>
        <time>2018-07-10T09:22:46Z</time>
      </trkpt>
      <trkpt lat="48.86718699708581" lon="3.563500000163913">
        <ele>195.77000000000001</ele>
        <time>2018-07-10T09:22:47Z</time>
      </trkpt>
      <trkpt lat="48.867222033441067" lon="3.563529001548886">
        <ele>195.77000000000001</ele>
        <time>2018-07-10T09:22:48Z</time>
      </trkpt>
      <trkpt lat="48.867260003462434" lon="3.563561020419002">
        <ele>195.77000000000001</ele>
        <time>2018-07-10T09:22:49Z</time>
      </trkpt>
      <trkpt lat="48.867304008454084" lon="3.563596978783608">
        <ele>195.77000000000001</ele>
        <time>2018-07-10T09:22:50Z</time>
      </trkpt>
      <trkpt lat="48.867350025102496" lon="3.563636038452387">
        <ele>195.77000000000001</ele>
        <time>2018-07-10T09:22:51Z</time>
      </trkpt>
      <trkpt lat="48.867449015378952" lon="3.563718013465405">
        <ele>196.25</ele>
        <time>2018-07-10T09:22:53Z</time>
      </trkpt>
      <trkpt lat="48.868221994489431" lon="3.564302986487746">
        <ele>200.09</ele>
        <time>2018-07-10T09:23:05Z</time>
      </trkpt>
      <trkpt lat="48.868781989440322" lon="3.564680004492402">
        <ele>204.41999999999999</ele>
        <time>2018-07-10T09:23:13Z</time>
      </trkpt>
      <trkpt lat="48.868908975273371" lon="3.564766002818942">
        <ele>205.86000000000001</ele>
        <time>2018-07-10T09:23:17Z</time>
      </trkpt>
      <trkpt lat="48.86942102573812" lon="3.5651929769665">
        <ele>207.78</ele>
        <time>2018-07-10T09:23:25Z</time>
      </trkpt>
      <trkpt lat="48.870584014803171" lon="3.566058995202184">
        <ele>210.19</ele>
        <time>2018-07-10T09:23:36Z</time>
      </trkpt>
      <trkpt lat="48.872530041262507" lon="3.567508980631828">
        <ele>213.55000000000001</ele>
        <time>2018-07-10T09:23:52Z</time>
      </trkpt>
      <trkpt lat="48.87346001341939" lon="3.568201996386051">
        <ele>216.91</ele>
        <time>2018-07-10T09:24:02Z</time>
      </trkpt>
      <trkpt lat="48.873536959290504" lon="3.568258993327618">
        <ele>218.36000000000001</ele>
        <time>2018-07-10T09:24:09Z</time>
      </trkpt>
      <trkpt lat="48.873540982604027" lon="3.568334011361003">
        <ele>218.36000000000001</ele>
        <time>2018-07-10T09:24:10Z</time>
      </trkpt>
      <trkpt lat="48.873544000089169" lon="3.568420009687543">
        <ele>218.84</ele>
        <time>2018-07-10T09:24:11Z</time>
      </trkpt>
      <trkpt lat="48.87354701757431" lon="3.568538026884198">
        <ele>218.36000000000001</ele>
        <time>2018-07-10T09:24:12Z</time>
      </trkpt>
      <trkpt lat="48.873551040887833" lon="3.568678004667163">
        <ele>218.36000000000001</ele>
        <time>2018-07-10T09:24:13Z</time>
      </trkpt>
      <trkpt lat="48.873554980382323" lon="3.568839021027088">
        <ele>218.36000000000001</ele>
        <time>2018-07-10T09:24:14Z</time>
      </trkpt>
      <trkpt lat="48.873588005080819" lon="3.570418003946543">
        <ele>217.40000000000001</ele>
        <time>2018-07-10T09:24:21Z</time>
      </trkpt>
      <trkpt lat="48.873618012294173" lon="3.573391987010837">
        <ele>217.88</ele>
        <time>2018-07-10T09:24:31Z</time>
      </trkpt>
      <trkpt lat="48.873671991750598" lon="3.578574014827609">
        <ele>222.68000000000001</ele>
        <time>2018-07-10T09:24:47Z</time>
      </trkpt>
      <trkpt lat="48.873862009495497" lon="3.582317959517241">
        <ele>226.05000000000001</ele>
        <time>2018-07-10T09:24:58Z</time>
      </trkpt>
      <trkpt lat="48.874352015554905" lon="3.586887018755078">
        <ele>220.28</ele>
        <time>2018-07-10T09:25:12Z</time>
      </trkpt>
      <trkpt lat="48.874845961108804" lon="3.591524977236986">
        <ele>216.43000000000001</ele>
        <time>2018-07-10T09:25:26Z</time>
      </trkpt>
      <trkpt lat="48.875301014631987" lon="3.595833024010062">
        <ele>218.36000000000001</ele>
        <time>2018-07-10T09:25:40Z</time>
      </trkpt>
      <trkpt lat="48.875944996252656" lon="3.600423038005829">
        <ele>224.61000000000001</ele>
        <time>2018-07-10T09:25:55Z</time>
      </trkpt>
      <trkpt lat="48.877090970054269" lon="3.603782001882792">
        <ele>218.36000000000001</ele>
        <time>2018-07-10T09:26:07Z</time>
      </trkpt>
      <trkpt lat="48.878803979605436" lon="3.608740987256169">
        <ele>217.40000000000001</ele>
        <time>2018-07-10T09:26:25Z</time>
      </trkpt>
      <trkpt lat="48.879689024761319" lon="3.611302999779582">
        <ele>218.84</ele>
        <time>2018-07-10T09:26:35Z</time>
      </trkpt>
      <trkpt lat="48.880195040255785" lon="3.61278098076582">
        <ele>219.31999999999999</ele>
        <time>2018-07-10T09:26:44Z</time>
      </trkpt>
      <trkpt lat="48.880902975797653" lon="3.614876959472895">
        <ele>221.72</ele>
        <time>2018-07-10T09:26:58Z</time>
      </trkpt>
      <trkpt lat="48.881392981857061" lon="3.61632602289319">
        <ele>225.56999999999999</ele>
        <time>2018-07-10T09:27:09Z</time>
      </trkpt>
      <trkpt lat="48.881427012383938" lon="3.616461977362633">
        <ele>225.56999999999999</ele>
        <time>2018-07-10T09:27:10Z</time>
      </trkpt>
      <trkpt lat="48.881692970171571" lon="3.61649801954627">
        <ele>225.56999999999999</ele>
        <time>2018-07-10T09:27:11Z</time>
      </trkpt>
      <trkpt lat="48.881815010681748" lon="3.61664897762239">
        <ele>225.09</ele>
        <time>2018-07-10T09:27:13Z</time>
      </trkpt>
      <trkpt lat="48.882825030013919" lon="3.617771985009313">
        <ele>225.09</ele>
        <time>2018-07-10T09:27:21Z</time>
      </trkpt>
      <trkpt lat="48.884652033448219" lon="3.619843991473317">
        <ele>225.09</ele>
        <time>2018-07-10T09:27:33Z</time>
      </trkpt>
      <trkpt lat="48.886534022167325" lon="3.622237024828792">
        <ele>218.36000000000001</ele>
        <time>2018-07-10T09:27:45Z</time>
      </trkpt>
      <trkpt lat="48.889591991901398" lon="3.626352958381176">
        <ele>217.40000000000001</ele>
        <time>2018-07-10T09:28:05Z</time>
      </trkpt>
      <trkpt lat="48.89221703633666" lon="3.629885008558631">
        <ele>212.59</ele>
        <time>2018-07-10T09:28:22Z</time>
      </trkpt>
      <trkpt lat="48.895472986623645" lon="3.634265977889299">
        <ele>214.99000000000001</ele>
        <time>2018-07-10T09:28:43Z</time>
      </trkpt>
      <trkpt lat="48.896839991211891" lon="3.636104967445135">
        <ele>215.94999999999999</ele>
        <time>2018-07-10T09:28:52Z</time>
      </trkpt>
      <trkpt lat="48.898798003792763" lon="3.638439998030663">
        <ele>219.80000000000001</ele>
        <time>2018-07-10T09:29:04Z</time>
      </trkpt>
      <trkpt lat="48.901612982153893" lon="3.641039980575442">
        <ele>214.99000000000001</ele>
        <time>2018-07-10T09:29:20Z</time>
      </trkpt>
      <trkpt lat="48.903881041333079" lon="3.643135037273169">
        <ele>214.50999999999999</ele>
        <time>2018-07-10T09:29:33Z</time>
      </trkpt>
      <trkpt lat="48.907194994390011" lon="3.646187977865338">
        <ele>223.16</ele>
        <time>2018-07-10T09:29:52Z</time>
      </trkpt>
      <trkpt lat="48.909119982272387" lon="3.647950021550059">
        <ele>221.24000000000001</ele>
        <time>2018-07-10T09:30:04Z</time>
      </trkpt>
      <trkpt lat="48.910398976877332" lon="3.649126002565026">
        <ele>212.59</ele>
        <time>2018-07-10T09:30:14Z</time>
      </trkpt>
      <trkpt lat="48.91157696954906" lon="3.650345988571644">
        <ele>205.38</ele>
        <time>2018-07-10T09:30:21Z</time>
      </trkpt>
      <trkpt lat="48.91269201412797" lon="3.652091016992927">
        <ele>202.49000000000001</ele>
        <time>2018-07-10T09:30:28Z</time>
      </trkpt>
      <trkpt lat="48.915275987237692" lon="3.65620301105082">
        <ele>212.11000000000001</ele>
        <time>2018-07-10T09:30:44Z</time>
      </trkpt>
      <trkpt lat="48.917238023132086" lon="3.659329963847995">
        <ele>219.80000000000001</ele>
        <time>2018-07-10T09:30:57Z</time>
      </trkpt>
      <trkpt lat="48.919710014015436" lon="3.663311032578349">
        <ele>225.56999999999999</ele>
        <time>2018-07-10T09:31:15Z</time>
      </trkpt>
      <trkpt lat="48.922064993530512" lon="3.666652981191874">
        <ele>224.61000000000001</ele>
        <time>2018-07-10T09:31:31Z</time>
      </trkpt>
      <trkpt lat="48.924776958301663" lon="3.670341018587351">
        <ele>220.75999999999999</ele>
        <time>2018-07-10T09:31:49Z</time>
      </trkpt>
      <trkpt lat="48.926698006689548" lon="3.672953993082047">
        <ele>221.72</ele>
        <time>2018-07-10T09:32:02Z</time>
      </trkpt>
      <trkpt lat="48.928520986810327" lon="3.675421960651875">
        <ele>223.63999999999999</ele>
        <time>2018-07-10T09:32:14Z</time>
      </trkpt>
      <trkpt lat="48.930914020165801" lon="3.678671037778258">
        <ele>217.88</ele>
        <time>2018-07-10T09:32:30Z</time>
      </trkpt>
      <trkpt lat="48.933589020743966" lon="3.682327978312969">
        <ele>223.16</ele>
        <time>2018-07-10T09:32:48Z</time>
      </trkpt>
      <trkpt lat="48.935847021639347" lon="3.685408998280764">
        <ele>213.06999999999999</ele>
        <time>2018-07-10T09:33:03Z</time>
      </trkpt>
      <trkpt lat="48.937983987852931" lon="3.688619015738368">
        <ele>208.25999999999999</ele>
        <time>2018-07-10T09:33:18Z</time>
      </trkpt>
      <trkpt lat="48.940649013966322" lon="3.693601973354816">
        <ele>206.81999999999999</ele>
        <time>2018-07-10T09:33:39Z</time>
      </trkpt>
      <trkpt lat="48.942103022709489" lon="3.696247972548008">
        <ele>200.09</ele>
        <time>2018-07-10T09:33:51Z</time>
      </trkpt>
      <trkpt lat="48.942232020199299" lon="3.696372024714947">
        <ele>199.61000000000001</ele>
        <time>2018-07-10T09:33:52Z</time>
      </trkpt>
      <trkpt lat="48.942371997982264" lon="3.696476966142654">
        <ele>198.65000000000001</ele>
        <time>2018-07-10T09:33:53Z</time>
      </trkpt>
      <trkpt lat="48.942524967715144" lon="3.696532035246491">
        <ele>198.16999999999999</ele>
        <time>2018-07-10T09:33:54Z</time>
      </trkpt>
      <trkpt lat="48.942683972418308" lon="3.696547038853169">
        <ele>197.21000000000001</ele>
        <time>2018-07-10T09:33:55Z</time>
      </trkpt>
      <trkpt lat="48.942842977121472" lon="3.696519965305924">
        <ele>196.25</ele>
        <time>2018-07-10T09:33:56Z</time>
      </trkpt>
      <trkpt lat="48.942998964339495" lon="3.696460034698248">
        <ele>195.28</ele>
        <time>2018-07-10T09:33:57Z</time>
      </trkpt>
      <trkpt lat="48.943155035376549" lon="3.696399014443159">
        <ele>194.31999999999999</ele>
        <time>2018-07-10T09:33:58Z</time>
      </trkpt>
      <trkpt lat="48.943598018959165" lon="3.696283008903265">
        <ele>191.44</ele>
        <time>2018-07-10T09:34:01Z</time>
      </trkpt>
      <trkpt lat="48.943886021152139" lon="3.6962949950248">
        <ele>190</ele>
        <time>2018-07-10T09:34:03Z</time>
      </trkpt>
      <trkpt lat="48.944464959204197" lon="3.696317039430141">
        <ele>187.11000000000001</ele>
        <time>2018-07-10T09:34:07Z</time>
      </trkpt>
      <trkpt lat="48.944608960300684" lon="3.696259036660194">
        <ele>186.15000000000001</ele>
        <time>2018-07-10T09:34:08Z</time>
      </trkpt>
      <trkpt lat="48.945056973025203" lon="3.69610296562314">
        <ele>183.27000000000001</ele>
        <time>2018-07-10T09:34:11Z</time>
      </trkpt>
      <trkpt lat="48.945375988259912" lon="3.696017973124981">
        <ele>180.87</ele>
        <time>2018-07-10T09:34:13Z</time>
      </trkpt>
      <trkpt lat="48.94554597325623" lon="3.695978997275233">
        <ele>179.41999999999999</ele>
        <time>2018-07-10T09:34:14Z</time>
      </trkpt>
      <trkpt lat="48.9457150362432" lon="3.696001041680574">
        <ele>178.46000000000001</ele>
        <time>2018-07-10T09:34:15Z</time>
      </trkpt>
      <trkpt lat="48.94631995819509" lon="3.69607899338007">
        <ele>173.66</ele>
        <time>2018-07-10T09:34:19Z</time>
      </trkpt>
      <trkpt lat="48.947409018874168" lon="3.696248978376389">
        <ele>165.47999999999999</ele>
        <time>2018-07-10T09:34:28Z</time>
      </trkpt>
      <trkpt lat="48.948259027674794" lon="3.696565981954336">
        <ele>161.63999999999999</ele>
        <time>2018-07-10T09:34:37Z</time>
      </trkpt>
      <trkpt lat="48.948563961312175" lon="3.696673018857837">
        <ele>161.16</ele>
        <time>2018-07-10T09:34:41Z</time>
      </trkpt>
      <trkpt lat="48.948633028194308" lon="3.696695985272527">
        <ele>160.68000000000001</ele>
        <time>2018-07-10T09:34:42Z</time>
      </trkpt>
      <trkpt lat="48.948907032608986" lon="3.696771003305912">
        <ele>159.24000000000001</ele>
        <time>2018-07-10T09:34:46Z</time>
      </trkpt>
      <trkpt lat="48.948984984308481" lon="3.696792041882873">
        <ele>158.75</ele>
        <time>2018-07-10T09:34:47Z</time>
      </trkpt>
      <trkpt lat="48.949039969593287" lon="3.696768991649151">
        <ele>158.27000000000001</ele>
        <time>2018-07-10T09:34:48Z</time>
      </trkpt>
      <trkpt lat="48.949113981798291" lon="3.696737978607416">
        <ele>157.78999999999999</ele>
        <time>2018-07-10T09:34:49Z</time>
      </trkpt>
      <trkpt lat="48.949192017316818" lon="3.696705037727952">
        <ele>157.78999999999999</ele>
        <time>2018-07-10T09:34:50Z</time>
      </trkpt>
      <trkpt lat="48.949264017865062" lon="3.696675030514598">
        <ele>157.31</ele>
        <time>2018-07-10T09:34:51Z</time>
      </trkpt>
      <trkpt lat="48.949335012584925" lon="3.696645023301244">
        <ele>156.83000000000001</ele>
        <time>2018-07-10T09:34:52Z</time>
      </trkpt>
      <trkpt lat="48.949392009526491" lon="3.696620967239142">
        <ele>156.83000000000001</ele>
        <time>2018-07-10T09:34:53Z</time>
      </trkpt>
      <trkpt lat="48.94949602894485" lon="3.696620967239142">
        <ele>156.83000000000001</ele>
        <time>2018-07-10T09:34:54Z</time>
      </trkpt>
      <trkpt lat="48.949583033099771" lon="3.696620967239142">
        <ele>156.34999999999999</ele>
        <time>2018-07-10T09:34:55Z</time>
      </trkpt>
      <trkpt lat="48.949669031426311" lon="3.696643011644483">
        <ele>155.87</ele>
        <time>2018-07-10T09:34:56Z</time>
      </trkpt>
      <trkpt lat="48.949757041409612" lon="3.696691961959004">
        <ele>155.38999999999999</ele>
        <time>2018-07-10T09:34:57Z</time>
      </trkpt>
      <trkpt lat="48.949843961745501" lon="3.696751976385713">
        <ele>155.87</ele>
        <time>2018-07-10T09:34:58Z</time>
      </trkpt>
      <trkpt lat="48.95031301304698" lon="3.697295961901546">
        <ele>153.94999999999999</ele>
        <time>2018-07-10T09:35:05Z</time>
      </trkpt>
      <trkpt lat="48.950369004160166" lon="3.697363017126918">
        <ele>153.94999999999999</ele>
        <time>2018-07-10T09:35:06Z</time>
      </trkpt>
      <trkpt lat="48.950456008315086" lon="3.697467036545277">
        <ele>153.47</ele>
        <time>2018-07-10T09:35:08Z</time>
      </trkpt>
      <trkpt lat="48.950476963073015" lon="3.69751900434494">
        <ele>152.99000000000001</ele>
        <time>2018-07-10T09:35:09Z</time>
      </trkpt>
      <trkpt lat="48.950490960851312" lon="3.697568960487843">
        <ele>152.99000000000001</ele>
        <time>2018-07-10T09:35:10Z</time>
      </trkpt>
      <trkpt lat="48.950502024963498" lon="3.697640961036086">
        <ele>152.99000000000001</ele>
        <time>2018-07-10T09:35:11Z</time>
      </trkpt>
      <trkpt lat="48.950476041063666" lon="3.69768999516964">
        <ele>152.99000000000001</ele>
        <time>2018-07-10T09:35:12Z</time>
      </trkpt>
      <trkpt lat="48.950444022193551" lon="3.697750009596348">
        <ele>152.99000000000001</ele>
        <time>2018-07-10T09:35:13Z</time>
      </trkpt>
      <trkpt lat="48.950410997495055" lon="3.697812035679817">
        <ele>152.50999999999999</ele>
        <time>2018-07-10T09:35:14Z</time>
      </trkpt>
      <trkpt lat="48.950377972796559" lon="3.697874983772636">
        <ele>152.50999999999999</ele>
        <time>2018-07-10T09:35:15Z</time>
      </trkpt>
      <trkpt lat="48.950250986963511" lon="3.698062989860773">
        <ele>151.53999999999999</ele>
        <time>2018-07-10T09:35:18Z</time>
      </trkpt>
      <trkpt lat="48.950107991695404" lon="3.698217971250415">
        <ele>150.09999999999999</ele>
        <time>2018-07-10T09:35:21Z</time>
      </trkpt>
      <trkpt lat="48.950049988925457" lon="3.698320984840393">
        <ele>149.13999999999999</ele>
        <time>2018-07-10T09:35:23Z</time>
      </trkpt>
      <trkpt lat="48.950040014460683" lon="3.698380999267101">
        <ele>148.66</ele>
        <time>2018-07-10T09:35:24Z</time>
      </trkpt>
      <trkpt lat="48.950035991147161" lon="3.698401032015681">
        <ele>147.22</ele>
        <time>2018-07-10T09:35:26Z</time>
      </trkpt>
      <trkpt lat="48.95009801723063" lon="3.698447970673442">
        <ele>146.74000000000001</ele>
        <time>2018-07-10T09:35:27Z</time>
      </trkpt>
      <trkpt lat="48.95020698197186" lon="3.698530029505491">
        <ele>145.78</ele>
        <time>2018-07-10T09:35:29Z</time>
      </trkpt>
      <trkpt lat="48.950265990570188" lon="3.698574034497142">
        <ele>145.30000000000001</ele>
        <time>2018-07-10T09:35:30Z</time>
      </trkpt>
      <trkpt lat="48.950606966391206" lon="3.698847033083439">
        <ele>141.93000000000001</ele>
        <time>2018-07-10T09:35:36Z</time>
      </trkpt>
      <trkpt lat="48.950651977211237" lon="3.698895983397961">
        <ele>140.97</ele>
        <time>2018-07-10T09:35:37Z</time>
      </trkpt>
      <trkpt lat="48.950735963881016" lon="3.698984999209642">
        <ele>140.00999999999999</ele>
        <time>2018-07-10T09:35:39Z</time>
      </trkpt>
      <trkpt lat="48.950921036303043" lon="3.699179040268064">
        <ele>137.61000000000001</ele>
        <time>2018-07-10T09:35:44Z</time>
      </trkpt>
      <trkpt lat="48.950954983010888" lon="3.699212986975908">
        <ele>137.61000000000001</ele>
        <time>2018-07-10T09:35:45Z</time>
      </trkpt>
      <trkpt lat="48.951223036274314" lon="3.699527978897095">
        <ele>138.09</ele>
        <time>2018-07-10T09:35:52Z</time>
      </trkpt>
      <trkpt lat="48.951729973778129" lon="3.700387962162495">
        <ele>138.56999999999999</ele>
        <time>2018-07-10T09:36:02Z</time>
      </trkpt>
      <trkpt lat="48.951961984857917" lon="3.700780989602208">
        <ele>138.56999999999999</ele>
        <time>2018-07-10T09:36:06Z</time>
      </trkpt>
      <trkpt lat="48.952021999284625" lon="3.700871011242271">
        <ele>138.09</ele>
        <time>2018-07-10T09:36:07Z</time>
      </trkpt>
      <trkpt lat="48.952416032552719" lon="3.701455984264612">
        <ele>136.16</ele>
        <time>2018-07-10T09:36:13Z</time>
      </trkpt>
      <trkpt lat="48.952481998130679" lon="3.701554974541068">
        <ele>135.68000000000001</ele>
        <time>2018-07-10T09:36:14Z</time>
      </trkpt>
      <trkpt lat="48.95254603587091" lon="3.701651031151414">
        <ele>135.68000000000001</ele>
        <time>2018-07-10T09:36:15Z</time>
      </trkpt>
      <trkpt lat="48.953220024704933" lon="3.702713018283248">
        <ele>135.19999999999999</ele>
        <time>2018-07-10T09:36:24Z</time>
      </trkpt>
      <trkpt lat="48.95377398468554" lon="3.70366302318871">
        <ele>136.16</ele>
        <time>2018-07-10T09:36:31Z</time>
      </trkpt>
      <trkpt lat="48.953833999112248" lon="3.703829990699887">
        <ele>136.63999999999999</ele>
        <time>2018-07-10T09:36:32Z</time>
      </trkpt>
      <trkpt lat="48.953844979405403" lon="3.703994024544954">
        <ele>137.13</ele>
        <time>2018-07-10T09:36:33Z</time>
      </trkpt>
      <trkpt lat="48.953855959698558" lon="3.704166021198034">
        <ele>137.61000000000001</ele>
        <time>2018-07-10T09:36:34Z</time>
      </trkpt>
      <trkpt lat="48.953868029639125" lon="3.704338017851114">
        <ele>138.09</ele>
        <time>2018-07-10T09:36:35Z</time>
      </trkpt>
      <trkpt lat="48.953900970518589" lon="3.705929992720485">
        <ele>141.44999999999999</ele>
        <time>2018-07-10T09:36:42Z</time>
      </trkpt>
      <trkpt lat="48.953956039622426" lon="3.708872040733695">
        <ele>147.69999999999999</ele>
        <time>2018-07-10T09:36:51Z</time>
      </trkpt>
      <trkpt lat="48.954016976058483" lon="3.712654039263725">
        <ele>153.94999999999999</ele>
        <time>2018-07-10T09:37:02Z</time>
      </trkpt>
      <trkpt lat="48.954066010192037" lon="3.715045982971788">
        <ele>159.24000000000001</ele>
        <time>2018-07-10T09:37:11Z</time>
      </trkpt>
      <trkpt lat="48.954108003526926" lon="3.717144979164004">
        <ele>160.68000000000001</ele>
        <time>2018-07-10T09:37:20Z</time>
      </trkpt>
      <trkpt lat="48.954170029610395" lon="3.719073990359902">
        <ele>161.16</ele>
        <time>2018-07-10T09:37:28Z</time>
      </trkpt>
      <trkpt lat="48.954494995996356" lon="3.721010964363813">
        <ele>161.63999999999999</ele>
        <time>2018-07-10T09:37:35Z</time>
      </trkpt>
      <trkpt lat="48.955420022830367" lon="3.725874982774258">
        <ele>174.13999999999999</ele>
        <time>2018-07-10T09:37:50Z</time>
      </trkpt>
      <trkpt lat="48.956304984167218" lon="3.730440018698573">
        <ele>186.15000000000001</ele>
        <time>2018-07-10T09:38:04Z</time>
      </trkpt>
      <trkpt lat="48.956738999113441" lon="3.732729032635689">
        <ele>190.96000000000001</ele>
        <time>2018-07-10T09:38:12Z</time>
      </trkpt>
      <trkpt lat="48.957281978800893" lon="3.7355069629848">
        <ele>201.05000000000001</ele>
        <time>2018-07-10T09:38:24Z</time>
      </trkpt>
      <trkpt lat="48.957627983763814" lon="3.737307982519269">
        <ele>205.38</ele>
        <time>2018-07-10T09:38:33Z</time>
      </trkpt>
      <trkpt lat="48.957710964605212" lon="3.737763036042452">
        <ele>206.81999999999999</ele>
        <time>2018-07-10T09:38:37Z</time>
      </trkpt>
      <trkpt lat="48.957723034545779" lon="3.73782497830689">
        <ele>206.34</ele>
        <time>2018-07-10T09:38:38Z</time>
      </trkpt>
      <trkpt lat="48.95781397819519" lon="3.737854985520244">
        <ele>206.81999999999999</ele>
        <time>2018-07-10T09:38:39Z</time>
      </trkpt>
      <trkpt lat="48.957822024822235" lon="3.73782497830689">
        <ele>206.81999999999999</ele>
        <time>2018-07-10T09:38:40Z</time>
      </trkpt>
      <trkpt lat="48.957838034257293" lon="3.737770998850465">
        <ele>207.30000000000001</ele>
        <time>2018-07-10T09:38:41Z</time>
      </trkpt>
      <trkpt lat="48.957861000671983" lon="3.737692041322589">
        <ele>207.30000000000001</ele>
        <time>2018-07-10T09:38:42Z</time>
      </trkpt>
      <trkpt lat="48.957892013713717" lon="3.737589027732611">
        <ele>206.81999999999999</ele>
        <time>2018-07-10T09:38:43Z</time>
      </trkpt>
      <trkpt lat="48.958276994526386" lon="3.736584959551692">
        <ele>208.25999999999999</ele>
        <time>2018-07-10T09:38:49Z</time>
      </trkpt>
      <trkpt lat="48.958764988929033" lon="3.735764035955071">
        <ele>210.19</ele>
        <time>2018-07-10T09:38:53Z</time>
      </trkpt>
      <trkpt lat="48.958924999460578" lon="3.735604025423527">
        <ele>211.15000000000001</ele>
        <time>2018-07-10T09:38:54Z</time>
      </trkpt>
      <trkpt lat="48.959090961143374" lon="3.735437979921699">
        <ele>211.63</ele>
        <time>2018-07-10T09:38:55Z</time>
      </trkpt>
      <trkpt lat="48.959277039393783" lon="3.735300013795495">
        <ele>212.59</ele>
        <time>2018-07-10T09:38:56Z</time>
      </trkpt>
      <trkpt lat="48.95946697331965" lon="3.735165987163782">
        <ele>213.06999999999999</ele>
        <time>2018-07-10T09:38:57Z</time>
      </trkpt>
      <trkpt lat="48.959670988842845" lon="3.735072026029229">
        <ele>214.03</ele>
        <time>2018-07-10T09:38:58Z</time>
      </trkpt>
      <trkpt lat="48.959872992709279" lon="3.734979992732406">
        <ele>214.99000000000001</ele>
        <time>2018-07-10T09:38:59Z</time>
      </trkpt>
      <trkpt lat="48.960091006010771" lon="3.73494797386229">
        <ele>215.94999999999999</ele>
        <time>2018-07-10T09:39:00Z</time>
      </trkpt>
      <trkpt lat="48.960310025140643" lon="3.734927019104362">
        <ele>216.91</ele>
        <time>2018-07-10T09:39:01Z</time>
      </trkpt>
      <trkpt lat="48.960532983765006" lon="3.734943028539419">
        <ele>217.88</ele>
        <time>2018-07-10T09:39:02Z</time>
      </trkpt>
      <trkpt lat="48.960756026208401" lon="3.734969012439251">
        <ele>218.84</ele>
        <time>2018-07-10T09:39:03Z</time>
      </trkpt>
      <trkpt lat="48.963533034548163" lon="3.735190965235233">
        <ele>223.63999999999999</ele>
        <time>2018-07-10T09:39:15Z</time>
      </trkpt>
      <trkpt lat="48.967638993635774" lon="3.73524502851069">
        <ele>215.94999999999999</ele>
        <time>2018-07-10T09:39:32Z</time>
      </trkpt>
      <trkpt lat="48.969655008986592" lon="3.735282998532057">
        <ele>216.43000000000001</ele>
        <time>2018-07-10T09:39:41Z</time>
      </trkpt>
      <trkpt lat="48.971374975517392" lon="3.735281992703676">
        <ele>217.40000000000001</ele>
        <time>2018-07-10T09:39:49Z</time>
      </trkpt>
      <trkpt lat="48.971549989655614" lon="3.7352479621768">
        <ele>217.40000000000001</ele>
        <time>2018-07-10T09:39:50Z</time>
      </trkpt>
      <trkpt lat="48.971715029329062" lon="3.73516003601253">
        <ele>217.40000000000001</ele>
        <time>2018-07-10T09:39:51Z</time>
      </trkpt>
      <trkpt lat="48.97188501432538" lon="3.735068002715707">
        <ele>216.91</ele>
        <time>2018-07-10T09:39:52Z</time>
      </trkpt>
      <trkpt lat="48.972047958523035" lon="3.734913021326065">
        <ele>217.40000000000001</ele>
        <time>2018-07-10T09:39:53Z</time>
      </trkpt>
      <trkpt lat="48.972216015681624" lon="3.73475301079452">
        <ele>217.40000000000001</ele>
        <time>2018-07-10T09:39:54Z</time>
      </trkpt>
      <trkpt lat="48.973751999437809" lon="3.733281986787915">
        <ele>220.75999999999999</ele>
        <time>2018-07-10T09:40:02Z</time>
      </trkpt>
      <trkpt lat="48.976223990321159" lon="3.730898005887866">
        <ele>226.05000000000001</ele>
        <time>2018-07-10T09:40:14Z</time>
      </trkpt>
      <trkpt lat="48.977852007374167" lon="3.729328997433186">
        <ele>225.56999999999999</ele>
        <time>2018-07-10T09:40:22Z</time>
      </trkpt>
      <trkpt lat="48.979492010548711" lon="3.72774800285697">
        <ele>227.49000000000001</ele>
        <time>2018-07-10T09:40:30Z</time>
      </trkpt>
      <trkpt lat="48.981538033112884" lon="3.725773980841041">
        <ele>227.00999999999999</ele>
        <time>2018-07-10T09:40:40Z</time>
      </trkpt>
      <trkpt lat="48.983927965164185" lon="3.723464012145996">
        <ele>234.22</ele>
        <time>2018-07-10T09:40:52Z</time>
      </trkpt>
      <trkpt lat="48.986123017966747" lon="3.721337020397186">
        <ele>241.43000000000001</ele>
        <time>2018-07-10T09:41:03Z</time>
      </trkpt>
      <trkpt lat="48.988076001405716" lon="3.719441033899784">
        <ele>247.68000000000001</ele>
        <time>2018-07-10T09:41:13Z</time>
      </trkpt>
      <trkpt lat="48.989837961271405" lon="3.717727018520236">
        <ele>255.84999999999999</ele>
        <time>2018-07-10T09:41:22Z</time>
      </trkpt>
      <trkpt lat="48.991128019988537" lon="3.71646897867322">
        <ele>264.5</ele>
        <time>2018-07-10T09:41:29Z</time>
      </trkpt>
      <trkpt lat="48.992861984297633" lon="3.714888989925385">
        <ele>270.75</ele>
        <time>2018-07-10T09:41:38Z</time>
      </trkpt>
      <trkpt lat="48.993064993992448" lon="3.714820006862283">
        <ele>271.23000000000002</ele>
        <time>2018-07-10T09:41:39Z</time>
      </trkpt>
      <trkpt lat="48.993279989808798" lon="3.714791005477309">
        <ele>271.23000000000002</ele>
        <time>2018-07-10T09:41:40Z</time>
      </trkpt>
      <trkpt lat="48.995228027924895" lon="3.714541979134083">
        <ele>272.67000000000002</ele>
        <time>2018-07-10T09:41:48Z</time>
      </trkpt>
      <trkpt lat="48.997448980808258" lon="3.714308040216565">
        <ele>273.14999999999998</ele>
        <time>2018-07-10T09:41:57Z</time>
      </trkpt>
      <trkpt lat="49.000178966671228" lon="3.714026995003223">
        <ele>272.67000000000002</ele>
        <time>2018-07-10T09:42:08Z</time>
      </trkpt>
      <trkpt lat="49.003160996362567" lon="3.713718038052321">
        <ele>269.79000000000002</ele>
        <time>2018-07-10T09:42:20Z</time>
      </trkpt>
      <trkpt lat="49.006061973050237" lon="3.713406985625625">
        <ele>255.37</ele>
        <time>2018-07-10T09:42:32Z</time>
      </trkpt>
      <trkpt lat="49.008414018899202" lon="3.713137004524469">
        <ele>247.68000000000001</ele>
        <time>2018-07-10T09:42:42Z</time>
      </trkpt>
      <trkpt lat="49.010577974840999" lon="3.712898036465049">
        <ele>246.72</ele>
        <time>2018-07-10T09:42:51Z</time>
      </trkpt>
      <trkpt lat="49.013593029230833" lon="3.712571980431676">
        <ele>234.69999999999999</ele>
        <time>2018-07-10T09:43:03Z</time>
      </trkpt>
      <trkpt lat="49.015403017401695" lon="3.712377017363906">
        <ele>228.93000000000001</ele>
        <time>2018-07-10T09:43:12Z</time>
      </trkpt>
      <trkpt lat="49.016141965985298" lon="3.712289007380605">
        <ele>225.09</ele>
        <time>2018-07-10T09:43:19Z</time>
      </trkpt>
      <trkpt lat="49.016988035291433" lon="3.712133020162582">
        <ele>220.28</ele>
        <time>2018-07-10T09:43:29Z</time>
      </trkpt>
      <trkpt lat="49.017358012497425" lon="3.711966974660754">
        <ele>217.40000000000001</ele>
        <time>2018-07-10T09:43:34Z</time>
      </trkpt>
      <trkpt lat="49.017429007217288" lon="3.711930010467768">
        <ele>216.91</ele>
        <time>2018-07-10T09:43:35Z</time>
      </trkpt>
      <trkpt lat="49.017607038840652" lon="3.711835965514183">
        <ele>214.99000000000001</ele>
        <time>2018-07-10T09:43:38Z</time>
      </trkpt>
      <trkpt lat="49.017726983875036" lon="3.711881982162595">
        <ele>214.50999999999999</ele>
        <time>2018-07-10T09:43:40Z</time>
      </trkpt>
      <trkpt lat="49.017753973603249" lon="3.711952976882458">
        <ele>213.55000000000001</ele>
        <time>2018-07-10T09:43:41Z</time>
      </trkpt>
      <trkpt lat="49.017789009958506" lon="3.71204299852252">
        <ele>213.06999999999999</ele>
        <time>2018-07-10T09:43:42Z</time>
      </trkpt>
      <trkpt lat="49.017824968323112" lon="3.712137965485454">
        <ele>212.59</ele>
        <time>2018-07-10T09:43:43Z</time>
      </trkpt>
      <trkpt lat="49.017864027991891" lon="3.712238967418671">
        <ele>212.59</ele>
        <time>2018-07-10T09:43:44Z</time>
      </trkpt>
      <trkpt lat="49.018064020201564" lon="3.712701983749867">
        <ele>210.19</ele>
        <time>2018-07-10T09:43:49Z</time>
      </trkpt>
      <trkpt lat="49.018485965207219" lon="3.713529026135802">
        <ele>208.74000000000001</ele>
        <time>2018-07-10T09:44:00Z</time>
      </trkpt>
      <trkpt lat="49.018608005717397" lon="3.713824991136789">
        <ele>207.78</ele>
        <time>2018-07-10T09:44:04Z</time>
      </trkpt>
      <trkpt lat="49.018623009324074" lon="3.713949965313077">
        <ele>207.30000000000001</ele>
        <time>2018-07-10T09:44:05Z</time>
      </trkpt>
      <trkpt lat="49.018603982403874" lon="3.714031018316746">
        <ele>207.30000000000001</ele>
        <time>2018-07-10T09:44:06Z</time>
      </trkpt>
      <trkpt lat="49.018469033762813" lon="3.714608028531075">
        <ele>209.22</ele>
        <time>2018-07-10T09:44:12Z</time>
      </trkpt>
      <trkpt lat="49.018452018499374" lon="3.714680029079318">
        <ele>209.69999999999999</ele>
        <time>2018-07-10T09:44:13Z</time>
      </trkpt>
      <trkpt lat="49.018438020721078" lon="3.714740965515375">
        <ele>210.19</ele>
        <time>2018-07-10T09:44:14Z</time>
      </trkpt>
      <trkpt lat="49.018479008227587" lon="3.714896030724049">
        <ele>210.66999999999999</ele>
        <time>2018-07-10T09:44:15Z</time>
      </trkpt>
      <trkpt lat="49.018517984077334" lon="3.714892007410526">
        <ele>210.66999999999999</ele>
        <time>2018-07-10T09:44:16Z</time>
      </trkpt>
      <trkpt lat="49.018565006554127" lon="3.714887984097004">
        <ele>210.66999999999999</ele>
        <time>2018-07-10T09:44:17Z</time>
      </trkpt>
      <trkpt lat="49.018619991838932" lon="3.714883038774133">
        <ele>210.66999999999999</ele>
        <time>2018-07-10T09:44:18Z</time>
      </trkpt>
      <trkpt lat="49.018681012094021" lon="3.71487800963223">
        <ele>210.66999999999999</ele>
        <time>2018-07-10T09:44:19Z</time>
      </trkpt>
      <trkpt lat="49.018951999023557" lon="3.714896030724049">
        <ele>209.69999999999999</ele>
        <time>2018-07-10T09:44:23Z</time>
      </trkpt>
      <trkpt lat="49.019013019278646" lon="3.714934000745416">
        <ele>209.22</ele>
        <time>2018-07-10T09:44:24Z</time>
      </trkpt>
      <trkpt lat="49.019150985404849" lon="3.715019999071956">
        <ele>208.74000000000001</ele>
        <time>2018-07-10T09:44:26Z</time>
      </trkpt>
      <trkpt lat="49.019523980095983" lon="3.715191995725036">
        <ele>207.78</ele>
        <time>2018-07-10T09:44:31Z</time>
      </trkpt>
      <trkpt lat="49.019604027271271" lon="3.715224014595151">
        <ele>207.78</ele>
        <time>2018-07-10T09:44:32Z</time>
      </trkpt>
      <trkpt lat="49.019848024472594" lon="3.715209010988474">
        <ele>208.25999999999999</ele>
        <time>2018-07-10T09:44:35Z</time>
      </trkpt>
      <trkpt lat="49.020019015297294" lon="3.715219991281629">
        <ele>208.74000000000001</ele>
        <time>2018-07-10T09:44:37Z</time>
      </trkpt>
      <trkpt lat="49.020286984741688" lon="3.715286962687969">
        <ele>211.15000000000001</ele>
        <time>2018-07-10T09:44:40Z</time>
      </trkpt>
      <trkpt lat="49.020381029695272" lon="3.715316969901323">
        <ele>212.11000000000001</ele>
        <time>2018-07-10T09:44:41Z</time>
      </trkpt>
      <trkpt lat="49.021416027098894" lon="3.715713014826179">
        <ele>217.40000000000001</ele>
        <time>2018-07-10T09:44:49Z</time>
      </trkpt>
      <trkpt lat="49.023185027763247" lon="3.716508960351348">
        <ele>225.56999999999999</ele>
        <time>2018-07-10T09:44:59Z</time>
      </trkpt>
      <trkpt lat="49.026346011087298" lon="3.718009991571307">
        <ele>228.93000000000001</ele>
        <time>2018-07-10T09:45:15Z</time>
      </trkpt>
      <trkpt lat="49.029348995536566" lon="3.719445979222655">
        <ele>232.30000000000001</ele>
        <time>2018-07-10T09:45:30Z</time>
      </trkpt>
      <trkpt lat="49.031337015330791" lon="3.720798986032605">
        <ele>231.33000000000001</ele>
        <time>2018-07-10T09:45:40Z</time>
      </trkpt>
      <trkpt lat="49.034271016716957" lon="3.723262008279562">
        <ele>221.24000000000001</ele>
        <time>2018-07-10T09:45:55Z</time>
      </trkpt>
      <trkpt lat="49.035618994385004" lon="3.725124970078468">
        <ele>211.63</ele>
        <time>2018-07-10T09:46:03Z</time>
      </trkpt>
      <trkpt lat="49.0376309864223" lon="3.727956041693687">
        <ele>190.96000000000001</ele>
        <time>2018-07-10T09:46:16Z</time>
      </trkpt>
      <trkpt lat="49.03883202932775" lon="3.729431005194783">
        <ele>179.90000000000001</ele>
        <time>2018-07-10T09:46:24Z</time>
      </trkpt>
      <trkpt lat="49.039487997069955" lon="3.729841969907284">
        <ele>174.62</ele>
        <time>2018-07-10T09:46:29Z</time>
      </trkpt>
      <trkpt lat="49.039849005639553" lon="3.729908019304276">
        <ele>170.28999999999999</ele>
        <time>2018-07-10T09:46:35Z</time>
      </trkpt>
      <trkpt lat="49.039875995367765" lon="3.729909025132656">
        <ele>168.37</ele>
        <time>2018-07-10T09:46:44Z</time>
      </trkpt>
      <trkpt lat="49.039875995367765" lon="3.729909025132656">
        <ele>167.41</ele>
        <time>2018-07-10T09:47:38Z</time>
      </trkpt>
      <trkpt lat="49.040083028376102" lon="3.729915982112289">
        <ele>166.44999999999999</ele>
        <time>2018-07-10T09:47:52Z</time>
      </trkpt>
      <trkpt lat="49.040945023298264" lon="3.729980019852519">
        <ele>163.08000000000001</ele>
        <time>2018-07-10T09:47:59Z</time>
      </trkpt>
      <trkpt lat="49.042561976239085" lon="3.730717040598393">
        <ele>153.47</ele>
        <time>2018-07-10T09:48:09Z</time>
      </trkpt>
      <trkpt lat="49.043822027742863" lon="3.731460012495518">
        <ele>143.84999999999999</ele>
        <time>2018-07-10T09:48:18Z</time>
      </trkpt>
      <trkpt lat="49.045231025665998" lon="3.732380010187626">
        <ele>135.19999999999999</ele>
        <time>2018-07-10T09:48:29Z</time>
      </trkpt>
      <trkpt lat="49.04605002142489" lon="3.732957020401955">
        <ele>129.91999999999999</ele>
        <time>2018-07-10T09:48:36Z</time>
      </trkpt>
      <trkpt lat="49.046134008094668" lon="3.733060033991933">
        <ele>128.94999999999999</ele>
        <time>2018-07-10T09:48:37Z</time>
      </trkpt>
      <trkpt lat="49.046297958120704" lon="3.733287015929818">
        <ele>126.55</ele>
        <time>2018-07-10T09:48:39Z</time>
      </trkpt>
      <trkpt lat="49.046959038823843" lon="3.734628036618233">
        <ele>119.81999999999999</ele>
        <time>2018-07-10T09:48:47Z</time>
      </trkpt>
      <trkpt lat="49.047889010980725" lon="3.736067963764072">
        <ele>112.13</ele>
        <time>2018-07-10T09:48:56Z</time>
      </trkpt>
      <trkpt lat="49.049246963113546" lon="3.737472016364336">
        <ele>103.95999999999999</ele>
        <time>2018-07-10T09:49:07Z</time>
      </trkpt>
      <trkpt lat="49.04976898804307" lon="3.738088002428412">
        <ele>103</ele>
        <time>2018-07-10T09:49:12Z</time>
      </trkpt>
      <trkpt lat="49.04987895861268" lon="3.738248012959957">
        <ele>102.52</ele>
        <time>2018-07-10T09:49:13Z</time>
      </trkpt>
      <trkpt lat="49.049939978867769" lon="3.738415986299515">
        <ele>103</ele>
        <time>2018-07-10T09:49:14Z</time>
      </trkpt>
      <trkpt lat="49.050009967759252" lon="3.738609021529555">
        <ele>103</ele>
        <time>2018-07-10T09:49:15Z</time>
      </trkpt>
      <trkpt lat="49.050072999671102" lon="3.738813037052751">
        <ele>103</ele>
        <time>2018-07-10T09:49:16Z</time>
      </trkpt>
      <trkpt lat="49.050125973299146" lon="3.739028032869101">
        <ele>103.48</ele>
        <time>2018-07-10T09:49:17Z</time>
      </trkpt>
      <trkpt lat="49.050745982676744" lon="3.741493988782167">
        <ele>103.95999999999999</ele>
        <time>2018-07-10T09:49:29Z</time>
      </trkpt>
      <trkpt lat="49.05116599984467" lon="3.743199035525322">
        <ele>105.88</ele>
        <time>2018-07-10T09:49:40Z</time>
      </trkpt>
      <trkpt lat="49.051234982907772" lon="3.743467004969716">
        <ele>105.88</ele>
        <time>2018-07-10T09:49:42Z</time>
      </trkpt>
      <trkpt lat="49.051280999556184" lon="3.743589967489243">
        <ele>105.88</ele>
        <time>2018-07-10T09:49:43Z</time>
      </trkpt>
      <trkpt lat="49.05133799649775" lon="3.743742015212774">
        <ele>105.88</ele>
        <time>2018-07-10T09:49:44Z</time>
      </trkpt>
      <trkpt lat="49.051390970125794" lon="3.74381996691227">
        <ele>105.88</ele>
        <time>2018-07-10T09:49:45Z</time>
      </trkpt>
      <trkpt lat="49.051460037007928" lon="3.743920968845487">
        <ele>106.36</ele>
        <time>2018-07-10T09:49:46Z</time>
      </trkpt>
      <trkpt lat="49.051777040585876" lon="3.744390020146966">
        <ele>105.88</ele>
        <time>2018-07-10T09:49:51Z</time>
      </trkpt>
      <trkpt lat="49.051842000335455" lon="3.744486998766661">
        <ele>105.40000000000001</ele>
        <time>2018-07-10T09:49:52Z</time>
      </trkpt>
      <trkpt lat="49.051906038075686" lon="3.744582971557975">
        <ele>105.40000000000001</ele>
        <time>2018-07-10T09:49:53Z</time>
      </trkpt>
      <trkpt lat="49.052136959508061" lon="3.744967030361295">
        <ele>104.92</ele>
        <time>2018-07-10T09:49:57Z</time>
      </trkpt>
      <trkpt lat="49.052181970328093" lon="3.745069960132241">
        <ele>104.92</ele>
        <time>2018-07-10T09:49:58Z</time>
      </trkpt>
      <trkpt lat="49.052697038277984" lon="3.746237978339195">
        <ele>101.56</ele>
        <time>2018-07-10T09:50:10Z</time>
      </trkpt>
      <trkpt lat="49.052740037441254" lon="3.746329005807638">
        <ele>101.56</ele>
        <time>2018-07-10T09:50:11Z</time>
      </trkpt>
      <trkpt lat="49.053028039634228" lon="3.746834015473723">
        <ele>101.08</ele>
        <time>2018-07-10T09:50:17Z</time>
      </trkpt>
      <trkpt lat="49.053130969405174" lon="3.747013974934816">
        <ele>101.08</ele>
        <time>2018-07-10T09:50:19Z</time>
      </trkpt>
      <trkpt lat="49.05318302102387" lon="3.747103996574879">
        <ele>101.08</ele>
        <time>2018-07-10T09:50:20Z</time>
      </trkpt>
      <trkpt lat="49.053933033719659" lon="3.748401012271643">
        <ele>101.08</ele>
        <time>2018-07-10T09:50:33Z</time>
      </trkpt>
      <trkpt lat="49.054673993960023" lon="3.749614963307977">
        <ele>99.629999999999995</ele>
        <time>2018-07-10T09:50:41Z</time>
      </trkpt>
      <trkpt lat="49.0558270085603" lon="3.751186989247799">
        <ele>95.310000000000002</ele>
        <time>2018-07-10T09:50:50Z</time>
      </trkpt>
      <trkpt lat="49.056704007089138" lon="3.752275966107845">
        <ele>92.420000000000002</ele>
        <time>2018-07-10T09:50:59Z</time>
      </trkpt>
      <trkpt lat="49.056937023997307" lon="3.7525649741292">
        <ele>91.459999999999994</ele>
        <time>2018-07-10T09:51:02Z</time>
      </trkpt>
      <trkpt lat="49.057021010667086" lon="3.752651978284121">
        <ele>90.980000000000004</ele>
        <time>2018-07-10T09:51:03Z</time>
      </trkpt>
      <trkpt lat="49.057113965973258" lon="3.752680979669094">
        <ele>90.980000000000004</ele>
        <time>2018-07-10T09:51:04Z</time>
      </trkpt>
      <trkpt lat="49.057213040068746" lon="3.752710986882448">
        <ele>90.980000000000004</ele>
        <time>2018-07-10T09:51:05Z</time>
      </trkpt>
      <trkpt lat="49.057317981496453" lon="3.752743005752564">
        <ele>90.980000000000004</ele>
        <time>2018-07-10T09:51:06Z</time>
      </trkpt>
      <trkpt lat="49.058269998058677" lon="3.752786004915834">
        <ele>89.540000000000006</ele>
        <time>2018-07-10T09:51:13Z</time>
      </trkpt>
      <trkpt lat="49.059154959395528" lon="3.752591963857412">
        <ele>88.579999999999998</ele>
        <time>2018-07-10T09:51:19Z</time>
      </trkpt>
      <trkpt lat="49.059269959107041" lon="3.752566985785961">
        <ele>88.579999999999998</ele>
        <time>2018-07-10T09:51:20Z</time>
      </trkpt>
      <trkpt lat="49.059380013495684" lon="3.752586012706161">
        <ele>89.060000000000002</ele>
        <time>2018-07-10T09:51:21Z</time>
      </trkpt>
      <trkpt lat="49.059861972928047" lon="3.752732025459409">
        <ele>90.980000000000004</ele>
        <time>2018-07-10T09:51:25Z</time>
      </trkpt>
      <trkpt lat="49.05999499373138" lon="3.752732025459409">
        <ele>91.459999999999994</ele>
        <time>2018-07-10T09:51:26Z</time>
      </trkpt>
      <trkpt lat="49.060134971514344" lon="3.752732025459409">
        <ele>91.459999999999994</ele>
        <time>2018-07-10T09:51:27Z</time>
      </trkpt>
      <trkpt lat="49.06027402728796" lon="3.752705035731196">
        <ele>91.459999999999994</ele>
        <time>2018-07-10T09:51:28Z</time>
      </trkpt>
      <trkpt lat="49.060411993414164" lon="3.752674022689462">
        <ele>91.939999999999998</ele>
        <time>2018-07-10T09:51:29Z</time>
      </trkpt>
      <trkpt lat="49.061683025211096" lon="3.752015037462115">
        <ele>91.939999999999998</ele>
        <time>2018-07-10T09:51:38Z</time>
      </trkpt>
      <trkpt lat="49.063052963465452" lon="3.750868979841471">
        <ele>89.060000000000002</ele>
        <time>2018-07-10T09:51:47Z</time>
      </trkpt>
      <trkpt lat="49.064323995262384" lon="3.750304961577058">
        <ele>85.689999999999998</ele>
        <time>2018-07-10T09:51:54Z</time>
      </trkpt>
      <trkpt lat="49.065702985972166" lon="3.749438021332026">
        <ele>83.769999999999996</ele>
        <time>2018-07-10T09:52:02Z</time>
      </trkpt>
      <trkpt lat="49.065854027867317" lon="3.749280022457242">
        <ele>83.290000000000006</ele>
        <time>2018-07-10T09:52:03Z</time>
      </trkpt>
      <trkpt lat="49.067225977778435" lon="3.74764496460557">
        <ele>79.450000000000003</ele>
        <time>2018-07-10T09:52:12Z</time>
      </trkpt>
      <trkpt lat="49.06794598326087" lon="3.746445011347532">
        <ele>80.890000000000001</ele>
        <time>2018-07-10T09:52:18Z</time>
      </trkpt>
      <trkpt lat="49.068022007122636" lon="3.746229009702802">
        <ele>81.370000000000005</ele>
        <time>2018-07-10T09:52:19Z</time>
      </trkpt>
      <trkpt lat="49.068096019327641" lon="3.746016025543213">
        <ele>81.849999999999994</ele>
        <time>2018-07-10T09:52:20Z</time>
      </trkpt>
      <trkpt lat="49.06813801266253" lon="3.745768005028367">
        <ele>82.810000000000002</ele>
        <time>2018-07-10T09:52:21Z</time>
      </trkpt>
      <trkpt lat="49.068175982683897" lon="3.745539011433721">
        <ele>83.769999999999996</ele>
        <time>2018-07-10T09:52:22Z</time>
      </trkpt>
      <trkpt lat="49.068180005997419" lon="3.745285961776972">
        <ele>84.25</ele>
        <time>2018-07-10T09:52:23Z</time>
      </trkpt>
      <trkpt lat="49.068176988512278" lon="3.745023021474481">
        <ele>84.730000000000004</ele>
        <time>2018-07-10T09:52:24Z</time>
      </trkpt>
      <trkpt lat="49.068174976855516" lon="3.744745999574661">
        <ele>85.209999999999994</ele>
        <time>2018-07-10T09:52:25Z</time>
      </trkpt>
      <trkpt lat="49.068192997947335" lon="3.743032990023494">
        <ele>87.140000000000001</ele>
        <time>2018-07-10T09:52:31Z</time>
      </trkpt>
      <trkpt lat="49.068225016817451" lon="3.742776000872254">
        <ele>87.140000000000001</ele>
        <time>2018-07-10T09:52:32Z</time>
      </trkpt>
      <trkpt lat="49.068295005708933" lon="3.742538038641214">
        <ele>86.659999999999997</ele>
        <time>2018-07-10T09:52:33Z</time>
      </trkpt>
      <trkpt lat="49.068386033177376" lon="3.742309967055917">
        <ele>86.659999999999997</ele>
        <time>2018-07-10T09:52:34Z</time>
      </trkpt>
      <trkpt lat="49.068503966554999" lon="3.742091031745076">
        <ele>86.659999999999997</ele>
        <time>2018-07-10T09:52:35Z</time>
      </trkpt>
      <trkpt lat="49.068627012893558" lon="3.741861032322049">
        <ele>86.659999999999997</ele>
        <time>2018-07-10T09:52:36Z</time>
      </trkpt>
      <trkpt lat="49.069366967305541" lon="3.739964962005615">
        <ele>89.540000000000006</ele>
        <time>2018-07-10T09:52:43Z</time>
      </trkpt>
      <trkpt lat="49.07013701274991" lon="3.737721964716911">
        <ele>91.939999999999998</ele>
        <time>2018-07-10T09:52:52Z</time>
      </trkpt>
      <trkpt lat="49.070301968604326" lon="3.737333966419101">
        <ele>90.980000000000004</ele>
        <time>2018-07-10T09:52:55Z</time>
      </trkpt>
      <trkpt lat="49.070348991081119" lon="3.737261965870857">
        <ele>90.5</ele>
        <time>2018-07-10T09:52:56Z</time>
      </trkpt>
      <trkpt lat="49.070411017164588" lon="3.737251991406083">
        <ele>90.019999999999996</ele>
        <time>2018-07-10T09:52:57Z</time>
      </trkpt>
      <trkpt lat="49.070483017712831" lon="3.737275041639805">
        <ele>89.540000000000006</ele>
        <time>2018-07-10T09:52:58Z</time>
      </trkpt>
      <trkpt lat="49.070571027696133" lon="3.737302031368017">
        <ele>88.579999999999998</ele>
        <time>2018-07-10T09:52:59Z</time>
      </trkpt>
      <trkpt lat="49.070571027696133" lon="3.737302031368017">
        <ele>87.620000000000005</ele>
        <time>2018-07-10T09:53:00Z</time>
      </trkpt>
      <trkpt lat="49.071516003459692" lon="3.737556003034115">
        <ele>80.409999999999997</ele>
        <time>2018-07-10T09:53:06Z</time>
      </trkpt>
      <trkpt lat="49.071660004556179" lon="3.737548040226102">
        <ele>79.450000000000003</ele>
        <time>2018-07-10T09:53:07Z</time>
      </trkpt>
      <trkpt lat="49.071809034794569" lon="3.737539993599057">
        <ele>78</ele>
        <time>2018-07-10T09:53:08Z</time>
      </trkpt>
      <trkpt lat="49.072754010558128" lon="3.737364979460836">
        <ele>74.640000000000001</ele>
        <time>2018-07-10T09:53:14Z</time>
      </trkpt>
      <trkpt lat="49.074082961305976" lon="3.736917972564697">
        <ele>70.790000000000006</ele>
        <time>2018-07-10T09:53:22Z</time>
      </trkpt>
      <trkpt lat="49.075260031968355" lon="3.736403994262219">
        <ele>69.829999999999998</ele>
        <time>2018-07-10T09:53:29Z</time>
      </trkpt>
      <trkpt lat="49.07544300891459" lon="3.736410029232502">
        <ele>69.829999999999998</ele>
        <time>2018-07-10T09:53:30Z</time>
      </trkpt>
      <trkpt lat="49.077265989035368" lon="3.736479012295604">
        <ele>69.349999999999994</ele>
        <time>2018-07-10T09:53:39Z</time>
      </trkpt>
      <trkpt lat="49.078916972503066" lon="3.736603986471891">
        <ele>69.349999999999994</ele>
        <time>2018-07-10T09:53:48Z</time>
      </trkpt>
      <trkpt lat="49.079464981332421" lon="3.736743964254856">
        <ele>69.349999999999994</ele>
        <time>2018-07-10T09:53:54Z</time>
      </trkpt>
      <trkpt lat="49.080393025651574" lon="3.7370749656111">
        <ele>69.829999999999998</ele>
        <time>2018-07-10T09:54:02Z</time>
      </trkpt>
      <trkpt lat="49.080501990392804" lon="3.737111007794738">
        <ele>70.310000000000002</ele>
        <time>2018-07-10T09:54:03Z</time>
      </trkpt>
      <trkpt lat="49.081126023083925" lon="3.737317034974694">
        <ele>71.760000000000005</ele>
        <time>2018-07-10T09:54:11Z</time>
      </trkpt>
      <trkpt lat="49.081815015524626" lon="3.73754401691258">
        <ele>71.760000000000005</ele>
        <time>2018-07-10T09:54:20Z</time>
      </trkpt>
      <trkpt lat="49.082329999655485" lon="3.737715007737279">
        <ele>72.239999999999995</ele>
        <time>2018-07-10T09:54:26Z</time>
      </trkpt>
      <trkpt lat="49.082400994375348" lon="3.737737974151969">
        <ele>72.719999999999999</ele>
        <time>2018-07-10T09:54:27Z</time>
      </trkpt>
      <trkpt lat="49.082451034337282" lon="3.737754989415407">
        <ele>72.719999999999999</ele>
        <time>2018-07-10T09:54:28Z</time>
      </trkpt>
      <trkpt lat="49.082593023777008" lon="3.737884992733598">
        <ele>72.719999999999999</ele>
        <time>2018-07-10T09:54:29Z</time>
      </trkpt>
      <trkpt lat="49.082584977149963" lon="3.737991023808718">
        <ele>72.719999999999999</ele>
        <time>2018-07-10T09:54:30Z</time>
      </trkpt>
      <trkpt lat="49.082575002685189" lon="3.738127984106541">
        <ele>72.719999999999999</ele>
        <time>2018-07-10T09:54:31Z</time>
      </trkpt>
      <trkpt lat="49.082563016563654" lon="3.738285982981324">
        <ele>72.239999999999995</ele>
        <time>2018-07-10T09:54:32Z</time>
      </trkpt>
      <trkpt lat="49.082550024613738" lon="3.738458985462785">
        <ele>72.239999999999995</ele>
        <time>2018-07-10T09:54:33Z</time>
      </trkpt>
      <trkpt lat="49.082408035174012" lon="3.740335023030639">
        <ele>71.760000000000005</ele>
        <time>2018-07-10T09:54:43Z</time>
      </trkpt>
      <trkpt lat="49.082228997722268" lon="3.74259696342051">
        <ele>73.680000000000007</ele>
        <time>2018-07-10T09:54:55Z</time>
      </trkpt>
      <trkpt lat="49.082047026604414" lon="3.744870973750949">
        <ele>82.329999999999998</ele>
        <time>2018-07-10T09:55:07Z</time>
      </trkpt>
      <trkpt lat="49.082034034654498" lon="3.745061997324228">
        <ele>82.810000000000002</ele>
        <time>2018-07-10T09:55:08Z</time>
      </trkpt>
      <trkpt lat="49.082021964713931" lon="3.745244974270463">
        <ele>83.290000000000006</ele>
        <time>2018-07-10T09:55:09Z</time>
      </trkpt>
      <trkpt lat="49.08188802190125" lon="3.747405996546149">
        <ele>84.25</ele>
        <time>2018-07-10T09:55:20Z</time>
      </trkpt>
      <trkpt lat="49.081795988604426" lon="3.748924965038896">
        <ele>82.329999999999998</ele>
        <time>2018-07-10T09:55:28Z</time>
      </trkpt>
      <trkpt lat="49.081786014139652" lon="3.749116994440556">
        <ele>82.329999999999998</ele>
        <time>2018-07-10T09:55:29Z</time>
      </trkpt>
      <trkpt lat="49.081775033846498" lon="3.749307012185454">
        <ele>82.329999999999998</ele>
        <time>2018-07-10T09:55:30Z</time>
      </trkpt>
      <trkpt lat="49.081764975562692" lon="3.74949200078845">
        <ele>81.849999999999994</ele>
        <time>2018-07-10T09:55:31Z</time>
      </trkpt>
      <trkpt lat="49.081756006926298" lon="3.749679001048207">
        <ele>81.370000000000005</ele>
        <time>2018-07-10T09:55:32Z</time>
      </trkpt>
      <trkpt lat="49.081747038289905" lon="3.749869018793106">
        <ele>80.890000000000001</ele>
        <time>2018-07-10T09:55:33Z</time>
      </trkpt>
      <trkpt lat="49.081684006378055" lon="3.751191012561321">
        <ele>79.930000000000007</ele>
        <time>2018-07-10T09:55:40Z</time>
      </trkpt>
      <trkpt lat="49.081661039963365" lon="3.751689987257123">
        <ele>80.890000000000001</ele>
        <time>2018-07-10T09:55:44Z</time>
      </trkpt>
      <trkpt lat="49.081669002771378" lon="3.751776991412044">
        <ele>80.890000000000001</ele>
        <time>2018-07-10T09:55:45Z</time>
      </trkpt>
      <trkpt lat="49.08171895891428" lon="3.751817978918552">
        <ele>80.890000000000001</ele>
        <time>2018-07-10T09:55:46Z</time>
      </trkpt>
      <trkpt lat="49.081792971119285" lon="3.751889979466796">
        <ele>80.890000000000001</ele>
        <time>2018-07-10T09:55:47Z</time>
      </trkpt>
      <trkpt lat="49.081792971119285" lon="3.751889979466796">
        <ele>80.890000000000001</ele>
        <time>2018-07-10T09:55:48Z</time>
      </trkpt>
      <trkpt lat="49.081896990537643" lon="3.752149986103177">
        <ele>80.409999999999997</ele>
        <time>2018-07-10T09:55:49Z</time>
      </trkpt>
      <trkpt lat="49.081957004964352" lon="3.752295998856425">
        <ele>79.450000000000003</ele>
        <time>2018-07-10T09:55:50Z</time>
      </trkpt>
      <trkpt lat="49.082351960241795" lon="3.753492012619972">
        <ele>75.120000000000005</ele>
        <time>2018-07-10T09:55:58Z</time>
      </trkpt>
      <trkpt lat="49.082397976890206" lon="3.753827037289739">
        <ele>74.159999999999997</ele>
        <time>2018-07-10T09:56:00Z</time>
      </trkpt>
      <trkpt lat="49.082450028508902" lon="3.754651984199882">
        <ele>72.239999999999995</ele>
        <time>2018-07-10T09:56:05Z</time>
      </trkpt>
      <trkpt lat="49.082460002973676" lon="3.754810988903046">
        <ele>72.239999999999995</ele>
        <time>2018-07-10T09:56:06Z</time>
      </trkpt>
      <trkpt lat="49.08246997743845" lon="3.754966976121068">
        <ele>71.760000000000005</ele>
        <time>2018-07-10T09:56:07Z</time>
      </trkpt>
      <trkpt lat="49.082611966878176" lon="3.757273005321622">
        <ele>70.310000000000002</ele>
        <time>2018-07-10T09:56:22Z</time>
      </trkpt>
      <trkpt lat="49.082658989354968" lon="3.757726969197393">
        <ele>70.790000000000006</ele>
        <time>2018-07-10T09:56:25Z</time>
      </trkpt>
      <trkpt lat="49.082672987133265" lon="3.757880022749305">
        <ele>71.269999999999996</ele>
        <time>2018-07-10T09:56:26Z</time>
      </trkpt>
      <trkpt lat="49.082690002396703" lon="3.758768001571298">
        <ele>73.200000000000003</ele>
        <time>2018-07-10T09:56:32Z</time>
      </trkpt>
      <trkpt lat="49.082667035982013" lon="3.758905967697501">
        <ele>73.200000000000003</ele>
        <time>2018-07-10T09:56:33Z</time>
      </trkpt>
      <trkpt lat="49.082538038492203" lon="3.759530000388622">
        <ele>74.159999999999997</ele>
        <time>2018-07-10T09:56:38Z</time>
      </trkpt>
      <trkpt lat="49.082543989643455" lon="3.759627984836698">
        <ele>74.159999999999997</ele>
        <time>2018-07-10T09:56:39Z</time>
      </trkpt>
      <trkpt lat="49.082550024613738" lon="3.759715994819999">
        <ele>74.159999999999997</ele>
        <time>2018-07-10T09:56:40Z</time>
      </trkpt>
      <trkpt lat="49.082567961886525" lon="3.759839963167906">
        <ele>74.640000000000001</ele>
        <time>2018-07-10T09:56:41Z</time>
      </trkpt>
      <trkpt lat="49.08262001350522" lon="3.759868964552879">
        <ele>74.640000000000001</ele>
        <time>2018-07-10T09:56:42Z</time>
      </trkpt>
      <trkpt lat="49.082682961598039" lon="3.759905006736517">
        <ele>74.640000000000001</ele>
        <time>2018-07-10T09:56:43Z</time>
      </trkpt>
      <trkpt lat="49.082750016823411" lon="3.759941970929503">
        <ele>75.120000000000005</ele>
        <time>2018-07-10T09:56:44Z</time>
      </trkpt>
      <trkpt lat="49.082818999886513" lon="3.759981030598283">
        <ele>75.120000000000005</ele>
        <time>2018-07-10T09:56:45Z</time>
      </trkpt>
      <trkpt lat="49.082901980727911" lon="3.760027969256043">
        <ele>75.599999999999994</ele>
        <time>2018-07-10T09:56:46Z</time>
      </trkpt>
      <trkpt lat="49.082970963791013" lon="3.76006199978292">
        <ele>76.079999999999998</ele>
        <time>2018-07-10T09:56:47Z</time>
      </trkpt>
      <trkpt lat="49.083738997578621" lon="3.760457038879395">
        <ele>74.640000000000001</ele>
        <time>2018-07-10T09:56:57Z</time>
      </trkpt>
      <trkpt lat="49.084778018295765" lon="3.76092198304832">
        <ele>71.760000000000005</ele>
        <time>2018-07-10T09:57:07Z</time>
      </trkpt>
      <trkpt lat="49.084921013563871" lon="3.760972023010254">
        <ele>71.269999999999996</ele>
        <time>2018-07-10T09:57:08Z</time>
      </trkpt>
      <trkpt lat="49.085071971639991" lon="3.760993983596563">
        <ele>70.790000000000006</ele>
        <time>2018-07-10T09:57:09Z</time>
      </trkpt>
      <trkpt lat="49.085233993828297" lon="3.760993983596563">
        <ele>69.829999999999998</ele>
        <time>2018-07-10T09:57:10Z</time>
      </trkpt>
      <trkpt lat="49.085918962955475" lon="3.760993983596563">
        <ele>68.390000000000001</ele>
        <time>2018-07-10T09:57:14Z</time>
      </trkpt>
      <trkpt lat="49.086090959608555" lon="3.761020973324776">
        <ele>67.909999999999997</ele>
        <time>2018-07-10T09:57:15Z</time>
      </trkpt>
      <trkpt lat="49.086255999282002" lon="3.761101020500064">
        <ele>68.390000000000001</ele>
        <time>2018-07-10T09:57:16Z</time>
      </trkpt>
      <trkpt lat="49.087028978392482" lon="3.761493964120746">
        <ele>66.469999999999999</ele>
        <time>2018-07-10T09:57:22Z</time>
      </trkpt>
      <trkpt lat="49.087807992473245" lon="3.761991010978818">
        <ele>65.510000000000005</ele>
        <time>2018-07-10T09:57:31Z</time>
      </trkpt>
      <trkpt lat="49.08882899209857" lon="3.762742029502988">
        <ele>66.950000000000003</ele>
        <time>2018-07-10T09:57:40Z</time>
      </trkpt>
      <trkpt lat="49.089984018355608" lon="3.763625985011458">
        <ele>70.310000000000002</ele>
        <time>2018-07-10T09:57:52Z</time>
      </trkpt>
      <trkpt lat="49.090411998331547" lon="3.763954974710941">
        <ele>72.719999999999999</ele>
        <time>2018-07-10T09:57:58Z</time>
      </trkpt>
      <trkpt lat="49.090472012758255" lon="3.763995040208101">
        <ele>73.200000000000003</ele>
        <time>2018-07-10T09:57:59Z</time>
      </trkpt>
      <trkpt lat="49.090793039649725" lon="3.764212969690561">
        <ele>76.560000000000002</ele>
        <time>2018-07-10T09:58:04Z</time>
      </trkpt>
      <trkpt lat="49.090850036591291" lon="3.76425102353096">
        <ele>77.519999999999996</ele>
        <time>2018-07-10T09:58:05Z</time>
      </trkpt>
      <trkpt lat="49.090898986905813" lon="3.764284970238805">
        <ele>78.480000000000004</ele>
        <time>2018-07-10T09:58:06Z</time>
      </trkpt>
      <trkpt lat="49.090942991897464" lon="3.764314977452159">
        <ele>78.969999999999999</ele>
        <time>2018-07-10T09:58:07Z</time>
      </trkpt>
      <trkpt lat="49.091012980788946" lon="3.764469958841801">
        <ele>79.930000000000007</ele>
        <time>2018-07-10T09:58:08Z</time>
      </trkpt>
      <trkpt lat="49.091012980788946" lon="3.764469958841801">
        <ele>80.409999999999997</ele>
        <time>2018-07-10T09:58:09Z</time>
      </trkpt>
      <trkpt lat="49.0910429880023" lon="3.764529973268509">
        <ele>80.890000000000001</ele>
        <time>2018-07-10T09:58:10Z</time>
      </trkpt>
      <trkpt lat="49.091141978278756" lon="3.764533996582031">
        <ele>81.849999999999994</ele>
        <time>2018-07-10T09:58:11Z</time>
      </trkpt>
      <trkpt lat="49.091840023174882" lon="3.765050992369652">
        <ele>84.730000000000004</ele>
        <time>2018-07-10T09:58:19Z</time>
      </trkpt>
      <trkpt lat="49.092930005863309" lon="3.765897983685136">
        <ele>88.099999999999994</ele>
        <time>2018-07-10T09:58:29Z</time>
      </trkpt>
      <trkpt lat="49.094240013509989" lon="3.766857041046023">
        <ele>90.5</ele>
        <time>2018-07-10T09:58:41Z</time>
      </trkpt>
      <trkpt lat="49.094703029841185" lon="3.767011016607285">
        <ele>90.019999999999996</ele>
        <time>2018-07-10T09:58:45Z</time>
      </trkpt>
      <trkpt lat="49.094822974875569" lon="3.767035994678736">
        <ele>90.019999999999996</ele>
        <time>2018-07-10T09:58:46Z</time>
      </trkpt>
      <trkpt lat="49.095000000670552" lon="3.767071031033993">
        <ele>90.019999999999996</ele>
        <time>2018-07-10T09:58:50Z</time>
      </trkpt>
      <trkpt lat="49.095058003440499" lon="3.767079999670386">
        <ele>90.019999999999996</ele>
        <time>2018-07-10T09:58:52Z</time>
      </trkpt>
      <trkpt lat="49.0955760050565" lon="3.767104977741838">
        <ele>90.5</ele>
        <time>2018-07-10T09:58:58Z</time>
      </trkpt>
      <trkpt lat="49.096924988552928" lon="3.767155017703772">
        <ele>91.459999999999994</ele>
        <time>2018-07-10T09:59:07Z</time>
      </trkpt>
      <trkpt lat="49.098284030333161" lon="3.767205979675055">
        <ele>93.390000000000001</ele>
        <time>2018-07-10T09:59:16Z</time>
      </trkpt>
      <trkpt lat="49.0984530095011" lon="3.767212014645338">
        <ele>94.349999999999994</ele>
        <time>2018-07-10T09:59:18Z</time>
      </trkpt>
      <trkpt lat="49.098506988957524" lon="3.767214026302099">
        <ele>94.829999999999998</ele>
        <time>2018-07-10T09:59:19Z</time>
      </trkpt>
      <trkpt lat="49.098575972020626" lon="3.767273034900427">
        <ele>95.310000000000002</ele>
        <time>2018-07-10T09:59:20Z</time>
      </trkpt>
      <trkpt lat="49.098587036132813" lon="3.767336988821626">
        <ele>95.310000000000002</ele>
        <time>2018-07-10T09:59:21Z</time>
      </trkpt>
      <trkpt lat="49.098601033911109" lon="3.767418963834643">
        <ele>95.790000000000006</ele>
        <time>2018-07-10T09:59:22Z</time>
      </trkpt>
      <trkpt lat="49.098618971183896" lon="3.767521977424622">
        <ele>95.790000000000006</ele>
        <time>2018-07-10T09:59:23Z</time>
      </trkpt>
      <trkpt lat="49.098641015589237" lon="3.767650974914432">
        <ele>95.790000000000006</ele>
        <time>2018-07-10T09:59:24Z</time>
      </trkpt>
      <trkpt lat="49.098664987832308" lon="3.767791958525777">
        <ele>94.829999999999998</ele>
        <time>2018-07-10T09:59:25Z</time>
      </trkpt>
      <trkpt lat="49.098823992535472" lon="3.768975986167789">
        <ele>89.540000000000006</ele>
        <time>2018-07-10T09:59:33Z</time>
      </trkpt>
      <trkpt lat="49.098791973665357" lon="3.769354010000825">
        <ele>86.180000000000007</ele>
        <time>2018-07-10T09:59:39Z</time>
      </trkpt>
      <trkpt lat="49.098789962008595" lon="3.769379993900657">
        <ele>85.689999999999998</ele>
        <time>2018-07-10T09:59:40Z</time>
      </trkpt>
      <trkpt lat="49.098788034170866" lon="3.769400026649237">
        <ele>85.689999999999998</ele>
        <time>2018-07-10T09:59:41Z</time>
      </trkpt>
      <trkpt lat="49.098786022514105" lon="3.76942902803421">
        <ele>84.25</ele>
        <time>2018-07-10T09:59:44Z</time>
      </trkpt>
      <trkpt lat="49.09881804138422" lon="3.769489964470267">
        <ele>84.25</ele>
        <time>2018-07-10T09:59:45Z</time>
      </trkpt>
      <trkpt lat="49.098857017233968" lon="3.769488036632538">
        <ele>83.769999999999996</ele>
        <time>2018-07-10T09:59:46Z</time>
      </trkpt>
      <trkpt lat="49.098914014175534" lon="3.769486024975777">
        <ele>83.290000000000006</ele>
        <time>2018-07-10T09:59:47Z</time>
      </trkpt>
      <trkpt lat="49.09898903220892" lon="3.769483007490635">
        <ele>82.810000000000002</ele>
        <time>2018-07-10T09:59:48Z</time>
      </trkpt>
      <trkpt lat="49.100032998248935" lon="3.769443025812507">
        <ele>79.450000000000003</ele>
        <time>2018-07-10T09:59:58Z</time>
      </trkpt>
      <trkpt lat="49.10109699703753" lon="3.769453000277281">
        <ele>77.519999999999996</ele>
        <time>2018-07-10T10:00:08Z</time>
      </trkpt>
      <trkpt lat="49.101187018677592" lon="3.76949398778379">
        <ele>77.519999999999996</ele>
        <time>2018-07-10T10:00:09Z</time>
      </trkpt>
      <trkpt lat="49.101259019225836" lon="3.769586021080613">
        <ele>77.040000000000006</ele>
        <time>2018-07-10T10:00:10Z</time>
      </trkpt>
      <trkpt lat="49.101312998682261" lon="3.769713006913662">
        <ele>77.040000000000006</ele>
        <time>2018-07-10T10:00:11Z</time>
      </trkpt>
      <trkpt lat="49.10139799118042" lon="3.770015006884933">
        <ele>77.040000000000006</ele>
        <time>2018-07-10T10:00:13Z</time>
      </trkpt>
      <trkpt lat="49.101433027535677" lon="3.77018298022449">
        <ele>77.040000000000006</ele>
        <time>2018-07-10T10:00:14Z</time>
      </trkpt>
      <trkpt lat="49.101610975340009" lon="3.7710390239954">
        <ele>78.480000000000004</ele>
        <time>2018-07-10T10:00:20Z</time>
      </trkpt>
      <trkpt lat="49.101603012531996" lon="3.77149298787117">
        <ele>80.890000000000001</ele>
        <time>2018-07-10T10:00:25Z</time>
      </trkpt>
      <trkpt lat="49.101605024188757" lon="3.771606981754303">
        <ele>80.890000000000001</ele>
        <time>2018-07-10T10:00:26Z</time>
      </trkpt>
      <trkpt lat="49.101645005866885" lon="3.771646963432431">
        <ele>81.370000000000005</ele>
        <time>2018-07-10T10:00:27Z</time>
      </trkpt>
      <trkpt lat="49.101700996980071" lon="3.771658027544618">
        <ele>81.849999999999994</ele>
        <time>2018-07-10T10:00:28Z</time>
      </trkpt>
      <trkpt lat="49.10174198448658" lon="3.771658027544618">
        <ele>81.849999999999994</ele>
        <time>2018-07-10T10:00:29Z</time>
      </trkpt>
      <trkpt lat="49.102355958893895" lon="3.771387962624431">
        <ele>84.730000000000004</ele>
        <time>2018-07-10T10:00:35Z</time>
      </trkpt>
      <trkpt lat="49.102761978283525" lon="3.771216971799731">
        <ele>87.140000000000001</ele>
        <time>2018-07-10T10:00:38Z</time>
      </trkpt>
      <trkpt lat="49.103496987372637" lon="3.770937016233802">
        <ele>91.459999999999994</ele>
        <time>2018-07-10T10:00:44Z</time>
      </trkpt>
      <trkpt lat="49.103798987343907" lon="3.770898962393403">
        <ele>92.900000000000006</ele>
        <time>2018-07-10T10:00:45Z</time>
      </trkpt>
      <trkpt lat="49.103943994268775" lon="3.770897034555674">
        <ele>93.870000000000005</ele>
        <time>2018-07-10T10:00:46Z</time>
      </trkpt>
      <trkpt lat="49.104078020900488" lon="3.770941961556673">
        <ele>94.829999999999998</ele>
        <time>2018-07-10T10:00:47Z</time>
      </trkpt>
      <trkpt lat="49.104230990633368" lon="3.770993007346988">
        <ele>96.269999999999996</ele>
        <time>2018-07-10T10:00:48Z</time>
      </trkpt>
      <trkpt lat="49.104344984516501" lon="3.771069031208754">
        <ele>97.230000000000004</ele>
        <time>2018-07-10T10:00:49Z</time>
      </trkpt>
      <trkpt lat="49.105663960799575" lon="3.772104028612375">
        <ele>107.31999999999999</ele>
        <time>2018-07-10T10:00:58Z</time>
      </trkpt>
      <trkpt lat="49.108111979439855" lon="3.774263961240649">
        <ele>116.45999999999999</ele>
        <time>2018-07-10T10:01:13Z</time>
      </trkpt>
      <trkpt lat="49.108932986855507" lon="3.77538101747632">
        <ele>115.98</ele>
        <time>2018-07-10T10:01:19Z</time>
      </trkpt>
      <trkpt lat="49.109378987923265" lon="3.776209987699986">
        <ele>113.56999999999999</ele>
        <time>2018-07-10T10:01:23Z</time>
      </trkpt>
      <trkpt lat="49.1095170378685" lon="3.776356000453234">
        <ele>113.09</ele>
        <time>2018-07-10T10:01:24Z</time>
      </trkpt>
      <trkpt lat="49.109660033136606" lon="3.776506958529353">
        <ele>112.61</ele>
        <time>2018-07-10T10:01:25Z</time>
      </trkpt>
      <trkpt lat="49.109975025057793" lon="3.776621958240867">
        <ele>112.13</ele>
        <time>2018-07-10T10:01:27Z</time>
      </trkpt>
      <trkpt lat="49.110149033367634" lon="3.776681972667575">
        <ele>112.13</ele>
        <time>2018-07-10T10:01:28Z</time>
      </trkpt>
      <trkpt lat="49.112264038994908" lon="3.777050022035837">
        <ele>114.53</ele>
        <time>2018-07-10T10:01:39Z</time>
      </trkpt>
      <trkpt lat="49.11491397768259" lon="3.777622003108263">
        <ele>107.81</ele>
        <time>2018-07-10T10:01:52Z</time>
      </trkpt>
      <trkpt lat="49.115424016490579" lon="3.778002038598061">
        <ele>106.36</ele>
        <time>2018-07-10T10:01:55Z</time>
      </trkpt>
      <trkpt lat="49.115580003708601" lon="3.778157019987702">
        <ele>105.88</ele>
        <time>2018-07-10T10:01:56Z</time>
      </trkpt>
      <trkpt lat="49.115713024511933" lon="3.778346031904221">
        <ele>104.92</ele>
        <time>2018-07-10T10:01:57Z</time>
      </trkpt>
      <trkpt lat="49.11583699285984" lon="3.778534960001707">
        <ele>104.44</ele>
        <time>2018-07-10T10:01:58Z</time>
      </trkpt>
      <trkpt lat="49.115960039198399" lon="3.778721038252115">
        <ele>103.48</ele>
        <time>2018-07-10T10:01:59Z</time>
      </trkpt>
      <trkpt lat="49.116205964237452" lon="3.779094032943249">
        <ele>101.56</ele>
        <time>2018-07-10T10:02:01Z</time>
      </trkpt>
      <trkpt lat="49.116337979212403" lon="3.779272986575961">
        <ele>101.08</ele>
        <time>2018-07-10T10:02:02Z</time>
      </trkpt>
      <trkpt lat="49.116497989743948" lon="3.779386980459094">
        <ele>100.59999999999999</ele>
        <time>2018-07-10T10:02:03Z</time>
      </trkpt>
      <trkpt lat="49.116656994447112" lon="3.779493011534214">
        <ele>99.629999999999995</ele>
        <time>2018-07-10T10:02:04Z</time>
      </trkpt>
      <trkpt lat="49.116819016635418" lon="3.779583033174276">
        <ele>99.150000000000006</ele>
        <time>2018-07-10T10:02:05Z</time>
      </trkpt>
      <trkpt lat="49.117142977192998" lon="3.779762992635369">
        <ele>97.709999999999994</ele>
        <time>2018-07-10T10:02:07Z</time>
      </trkpt>
      <trkpt lat="49.117308016866446" lon="3.779855025932193">
        <ele>96.75</ele>
        <time>2018-07-10T10:02:08Z</time>
      </trkpt>
      <trkpt lat="49.117460986599326" lon="3.779974970966578">
        <ele>96.269999999999996</ele>
        <time>2018-07-10T10:02:09Z</time>
      </trkpt>
      <trkpt lat="49.117600964382291" lon="3.780116038396955">
        <ele>95.310000000000002</ele>
        <time>2018-07-10T10:02:10Z</time>
      </trkpt>
      <trkpt lat="49.117709007114172" lon="3.780290968716145">
        <ele>94.349999999999994</ele>
        <time>2018-07-10T10:02:11Z</time>
      </trkpt>
      <trkpt lat="49.117809003219008" lon="3.780453996732831">
        <ele>93.390000000000001</ele>
        <time>2018-07-10T10:02:12Z</time>
      </trkpt>
      <trkpt lat="49.118022993206978" lon="3.780820034444332">
        <ele>91.939999999999998</ele>
        <time>2018-07-10T10:02:15Z</time>
      </trkpt>
      <trkpt lat="49.118073033168912" lon="3.780911983922124">
        <ele>91.459999999999994</ele>
        <time>2018-07-10T10:02:16Z</time>
      </trkpt>
      <trkpt lat="49.118187027052045" lon="3.780906032770872">
        <ele>91.459999999999994</ele>
        <time>2018-07-10T10:02:17Z</time>
      </trkpt>
      <trkpt lat="49.118257015943527" lon="3.780873008072376">
        <ele>90.980000000000004</ele>
        <time>2018-07-10T10:02:18Z</time>
      </trkpt>
      <trkpt lat="49.118337985128164" lon="3.780835960060358">
        <ele>90.980000000000004</ele>
        <time>2018-07-10T10:02:19Z</time>
      </trkpt>
      <trkpt lat="49.11843303591013" lon="3.780792038887739">
        <ele>90.980000000000004</ele>
        <time>2018-07-10T10:02:20Z</time>
      </trkpt>
      <trkpt lat="49.11923099309206" lon="3.780218968167901">
        <ele>90.019999999999996</ele>
        <time>2018-07-10T10:02:26Z</time>
      </trkpt>
      <trkpt lat="49.120956994593143" lon="3.778812987729907">
        <ele>93.870000000000005</ele>
        <time>2018-07-10T10:02:36Z</time>
      </trkpt>
      <trkpt lat="49.123283978551626" lon="3.776952037587762">
        <ele>104.44</ele>
        <time>2018-07-10T10:02:50Z</time>
      </trkpt>
      <trkpt lat="49.124073972925544" lon="3.77645499072969">
        <ele>104.92</ele>
        <time>2018-07-10T10:02:55Z</time>
      </trkpt>
      <trkpt lat="49.124218979850411" lon="3.776449961587787">
        <ele>105.40000000000001</ele>
        <time>2018-07-10T10:02:56Z</time>
      </trkpt>
      <trkpt lat="49.124496001750231" lon="3.776500001549721">
        <ele>105.40000000000001</ele>
        <time>2018-07-10T10:02:58Z</time>
      </trkpt>
      <trkpt lat="49.124628016725183" lon="3.776589017361403">
        <ele>105.88</ele>
        <time>2018-07-10T10:02:59Z</time>
      </trkpt>
      <trkpt lat="49.125763010233641" lon="3.777447994798422">
        <ele>109.73</ele>
        <time>2018-07-10T10:03:08Z</time>
      </trkpt>
      <trkpt lat="49.125837022438645" lon="3.777583027258515">
        <ele>110.20999999999999</ele>
        <time>2018-07-10T10:03:09Z</time>
      </trkpt>
      <trkpt lat="49.125912040472031" lon="3.777719987556338">
        <ele>111.17</ele>
        <time>2018-07-10T10:03:10Z</time>
      </trkpt>
      <trkpt lat="49.125989992171526" lon="3.777860971167684">
        <ele>111.65000000000001</ele>
        <time>2018-07-10T10:03:11Z</time>
      </trkpt>
      <trkpt lat="49.126057969406247" lon="3.778026010841131">
        <ele>112.61</ele>
        <time>2018-07-10T10:03:12Z</time>
      </trkpt>
      <trkpt lat="49.126686025410891" lon="3.779395027086139">
        <ele>118.86</ele>
        <time>2018-07-10T10:03:20Z</time>
      </trkpt>
      <trkpt lat="49.126775041222572" lon="3.779496029019356">
        <ele>119.81999999999999</ele>
        <time>2018-07-10T10:03:21Z</time>
      </trkpt>
      <trkpt lat="49.126864979043603" lon="3.779568029567599">
        <ele>120.3</ele>
        <time>2018-07-10T10:03:22Z</time>
      </trkpt>
      <trkpt lat="49.126975033432245" lon="3.779609017074108">
        <ele>120.3</ele>
        <time>2018-07-10T10:03:23Z</time>
      </trkpt>
      <trkpt lat="49.127095984295011" lon="3.779638018459082">
        <ele>120.3</ele>
        <time>2018-07-10T10:03:24Z</time>
      </trkpt>
      <trkpt lat="49.127226993441582" lon="3.779627960175276">
        <ele>120.3</ele>
        <time>2018-07-10T10:03:25Z</time>
      </trkpt>
      <trkpt lat="49.127369988709688" lon="3.779617985710502">
        <ele>120.3</ele>
        <time>2018-07-10T10:03:26Z</time>
      </trkpt>
      <trkpt lat="49.128777980804443" lon="3.77961496822536">
        <ele>123.19</ele>
        <time>2018-07-10T10:03:35Z</time>
      </trkpt>
      <trkpt lat="49.12894100882113" lon="3.779668025672436">
        <ele>123.67</ele>
        <time>2018-07-10T10:03:36Z</time>
      </trkpt>
      <trkpt lat="49.130385965108871" lon="3.780455002561212">
        <ele>122.70999999999999</ele>
        <time>2018-07-10T10:03:44Z</time>
      </trkpt>
      <trkpt lat="49.131214013323188" lon="3.780992031097412">
        <ele>127.03</ele>
        <time>2018-07-10T10:03:49Z</time>
      </trkpt>
      <trkpt lat="49.131339993327856" lon="3.781132008880377">
        <ele>127.51000000000001</ele>
        <time>2018-07-10T10:03:50Z</time>
      </trkpt>
      <trkpt lat="49.131450969725847" lon="3.781279027462006">
        <ele>127.51000000000001</ele>
        <time>2018-07-10T10:03:51Z</time>
      </trkpt>
      <trkpt lat="49.13156102411449" lon="3.781425962224603">
        <ele>127.51000000000001</ele>
        <time>2018-07-10T10:03:52Z</time>
      </trkpt>
      <trkpt lat="49.131650039926171" lon="3.781617991626263">
        <ele>127.51000000000001</ele>
        <time>2018-07-10T10:03:53Z</time>
      </trkpt>
      <trkpt lat="49.131731009110808" lon="3.781822007149458">
        <ele>127.03</ele>
        <time>2018-07-10T10:03:54Z</time>
      </trkpt>
      <trkpt lat="49.131814995780587" lon="3.782034991309047">
        <ele>126.55</ele>
        <time>2018-07-10T10:03:55Z</time>
      </trkpt>
      <trkpt lat="49.131901999935508" lon="3.7822550162673">
        <ele>126.55</ele>
        <time>2018-07-10T10:03:56Z</time>
      </trkpt>
      <trkpt lat="49.132511029019952" lon="3.784363986924291">
        <ele>126.06999999999999</ele>
        <time>2018-07-10T10:04:05Z</time>
      </trkpt>
      <trkpt lat="49.132557967677712" lon="3.78457797691226">
        <ele>126.06999999999999</ele>
        <time>2018-07-10T10:04:06Z</time>
      </trkpt>
      <trkpt lat="49.132624017074704" lon="3.784773023799062">
        <ele>126.06999999999999</ele>
        <time>2018-07-10T10:04:07Z</time>
      </trkpt>
      <trkpt lat="49.132704986259341" lon="3.78496203571558">
        <ele>126.06999999999999</ele>
        <time>2018-07-10T10:04:08Z</time>
      </trkpt>
      <trkpt lat="49.13282903842628" lon="3.785098996013403">
        <ele>126.06999999999999</ele>
        <time>2018-07-10T10:04:09Z</time>
      </trkpt>
      <trkpt lat="49.13295803591609" lon="3.785241991281509">
        <ele>126.55</ele>
        <time>2018-07-10T10:04:10Z</time>
      </trkpt>
      <trkpt lat="49.133091978728771" lon="3.785391021519899">
        <ele>126.55</ele>
        <time>2018-07-10T10:04:11Z</time>
      </trkpt>
      <trkpt lat="49.133252995088696" lon="3.785481965169311">
        <ele>127.03</ele>
        <time>2018-07-10T10:04:12Z</time>
      </trkpt>
      <trkpt lat="49.133421974256635" lon="3.785576010122895">
        <ele>127.51000000000001</ele>
        <time>2018-07-10T10:04:13Z</time>
      </trkpt>
      <trkpt lat="49.133597994223237" lon="3.785675000399351">
        <ele>127.98999999999999</ele>
        <time>2018-07-10T10:04:14Z</time>
      </trkpt>
      <trkpt lat="49.134890986606479" lon="3.786501958966255">
        <ele>136.63999999999999</ele>
        <time>2018-07-10T10:04:22Z</time>
      </trkpt>
      <trkpt lat="49.13633300922811" lon="3.78756201826036">
        <ele>132.31999999999999</ele>
        <time>2018-07-10T10:04:30Z</time>
      </trkpt>
      <trkpt lat="49.13854499347508" lon="3.788849981501699">
        <ele>130.88</ele>
        <time>2018-07-10T10:04:41Z</time>
      </trkpt>
      <trkpt lat="49.140906007960439" lon="3.790177004411817">
        <ele>136.63999999999999</ele>
        <time>2018-07-10T10:04:53Z</time>
      </trkpt>
      <trkpt lat="49.142755977809429" lon="3.791056014597416">
        <ele>141.44999999999999</ele>
        <time>2018-07-10T10:05:03Z</time>
      </trkpt>
      <trkpt lat="49.142908025532961" lon="3.791056014597416">
        <ele>141.93000000000001</ele>
        <time>2018-07-10T10:05:04Z</time>
      </trkpt>
      <trkpt lat="49.143045991659164" lon="3.791014021262527">
        <ele>142.88999999999999</ele>
        <time>2018-07-10T10:05:05Z</time>
      </trkpt>
      <trkpt lat="49.143499033525586" lon="3.790798019617796">
        <ele>145.78</ele>
        <time>2018-07-10T10:05:09Z</time>
      </trkpt>
      <trkpt lat="49.143612021580338" lon="3.790811011567712">
        <ele>146.74000000000001</ele>
        <time>2018-07-10T10:05:10Z</time>
      </trkpt>
      <trkpt lat="49.143718974664807" lon="3.790822997689247">
        <ele>147.22</ele>
        <time>2018-07-10T10:05:11Z</time>
      </trkpt>
      <trkpt lat="49.14382902905345" lon="3.790834983810782">
        <ele>148.18000000000001</ele>
        <time>2018-07-10T10:05:12Z</time>
      </trkpt>
      <trkpt lat="49.143940005451441" lon="3.790864991024137">
        <ele>149.13999999999999</ele>
        <time>2018-07-10T10:05:13Z</time>
      </trkpt>
      <trkpt lat="49.144050981849432" lon="3.790912013500929">
        <ele>149.62</ele>
        <time>2018-07-10T10:05:14Z</time>
      </trkpt>
      <trkpt lat="49.144161958247423" lon="3.790960041806102">
        <ele>150.58000000000001</ele>
        <time>2018-07-10T10:05:15Z</time>
      </trkpt>
      <trkpt lat="49.145105006173253" lon="3.791502015665174">
        <ele>153.47</ele>
        <time>2018-07-10T10:05:24Z</time>
      </trkpt>
      <trkpt lat="49.145200978964567" lon="3.791514001786709">
        <ele>152.99000000000001</ele>
        <time>2018-07-10T10:05:25Z</time>
      </trkpt>
      <trkpt lat="49.145289994776249" lon="3.791525987908244">
        <ele>152.99000000000001</ele>
        <time>2018-07-10T10:05:26Z</time>
      </trkpt>
      <trkpt lat="49.145458973944187" lon="3.791438983753324">
        <ele>152.50999999999999</ele>
        <time>2018-07-10T10:05:28Z</time>
      </trkpt>
      <trkpt lat="49.146408978849649" lon="3.790835989639163">
        <ele>149.13999999999999</ele>
        <time>2018-07-10T10:05:38Z</time>
      </trkpt>
      <trkpt lat="49.147388990968466" lon="3.790199970826507">
        <ele>150.09999999999999</ele>
        <time>2018-07-10T10:05:47Z</time>
      </trkpt>
      <trkpt lat="49.148466987535357" lon="3.789355996996164">
        <ele>151.06</ele>
        <time>2018-07-10T10:05:57Z</time>
      </trkpt>
      <trkpt lat="49.149672975763679" lon="3.788590980693698">
        <ele>157.31</ele>
        <time>2018-07-10T10:06:06Z</time>
      </trkpt>
      <trkpt lat="49.150806963443756" lon="3.788142967969179">
        <ele>168.37</ele>
        <time>2018-07-10T10:06:13Z</time>
      </trkpt>
      <trkpt lat="49.151168977841735" lon="3.788114972412586">
        <ele>171.72999999999999</ele>
        <time>2018-07-10T10:06:16Z</time>
      </trkpt>
      <trkpt lat="49.151288000866771" lon="3.788127964362502">
        <ele>172.69</ele>
        <time>2018-07-10T10:06:17Z</time>
      </trkpt>
      <trkpt lat="49.151410041376948" lon="3.788166018202901">
        <ele>173.66</ele>
        <time>2018-07-10T10:06:18Z</time>
      </trkpt>
      <trkpt lat="49.151525963097811" lon="3.788257967680693">
        <ele>174.62</ele>
        <time>2018-07-10T10:06:19Z</time>
      </trkpt>
      <trkpt lat="49.15165102109313" lon="3.7883560359478">
        <ele>176.06</ele>
        <time>2018-07-10T10:06:20Z</time>
      </trkpt>
      <trkpt lat="49.153152974322438" lon="3.789541991427541">
        <ele>190.96000000000001</ele>
        <time>2018-07-10T10:06:30Z</time>
      </trkpt>
      <trkpt lat="49.155474007129669" lon="3.791375029832125">
        <ele>218.36000000000001</ele>
        <time>2018-07-10T10:06:44Z</time>
      </trkpt>
      <trkpt lat="49.156566001474857" lon="3.792237024754286">
        <ele>228.93000000000001</ele>
        <time>2018-07-10T10:06:51Z</time>
      </trkpt>
      <trkpt lat="49.156702039763331" lon="3.792338026687503">
        <ele>230.37</ele>
        <time>2018-07-10T10:06:52Z</time>
      </trkpt>
      <trkpt lat="49.158034007996321" lon="3.793074963614345">
        <ele>239.99000000000001</ele>
        <time>2018-07-10T10:07:01Z</time>
      </trkpt>
      <trkpt lat="49.159333035349846" lon="3.793675024062395">
        <ele>244.78999999999999</ele>
        <time>2018-07-10T10:07:08Z</time>
      </trkpt>
      <trkpt lat="49.160399967804551" lon="3.794167041778565">
        <ele>246.72</ele>
        <time>2018-07-10T10:07:13Z</time>
      </trkpt>
      <trkpt lat="49.162477003410459" lon="3.79512500949204">
        <ele>238.53999999999999</ele>
        <time>2018-07-10T10:07:22Z</time>
      </trkpt>
      <trkpt lat="49.164473991841078" lon="3.796034026890993">
        <ele>227.49000000000001</ele>
        <time>2018-07-10T10:07:31Z</time>
      </trkpt>
      <trkpt lat="49.166972972452641" lon="3.797143958508968">
        <ele>206.34</ele>
        <time>2018-07-10T10:07:42Z</time>
      </trkpt>
      <trkpt lat="49.16954998858273" lon="3.79830501973629">
        <ele>194.80000000000001</ele>
        <time>2018-07-10T10:07:54Z</time>
      </trkpt>
      <trkpt lat="49.17206103913486" lon="3.799430038779974">
        <ele>175.09999999999999</ele>
        <time>2018-07-10T10:08:06Z</time>
      </trkpt>
      <trkpt lat="49.172765035182238" lon="3.79974503070116">
        <ele>169.33000000000001</ele>
        <time>2018-07-10T10:08:10Z</time>
      </trkpt>
      <trkpt lat="49.172924961894751" lon="3.799746036529541">
        <ele>168.37</ele>
        <time>2018-07-10T10:08:11Z</time>
      </trkpt>
      <trkpt lat="49.173082960769534" lon="3.799720974639058">
        <ele>167.88999999999999</ele>
        <time>2018-07-10T10:08:12Z</time>
      </trkpt>
      <trkpt lat="49.173252023756504" lon="3.799668001011014">
        <ele>167.88999999999999</ele>
        <time>2018-07-10T10:08:13Z</time>
      </trkpt>
      <trkpt lat="49.173439024016261" lon="3.799591977149248">
        <ele>167.88999999999999</ele>
        <time>2018-07-10T10:08:14Z</time>
      </trkpt>
      <trkpt lat="49.175058994442225" lon="3.798774993047118">
        <ele>171.25</ele>
        <time>2018-07-10T10:08:22Z</time>
      </trkpt>
      <trkpt lat="49.176372019574046" lon="3.798179961740971">
        <ele>168.84999999999999</ele>
        <time>2018-07-10T10:08:29Z</time>
      </trkpt>
      <trkpt lat="49.176575029268861" lon="3.798179961740971">
        <ele>168.37</ele>
        <time>2018-07-10T10:08:30Z</time>
      </trkpt>
      <trkpt lat="49.176759012043476" lon="3.798179961740971">
        <ele>167.41</ele>
        <time>2018-07-10T10:08:31Z</time>
      </trkpt>
      <trkpt lat="49.176926985383034" lon="3.798209968954325">
        <ele>166.93000000000001</ele>
        <time>2018-07-10T10:08:32Z</time>
      </trkpt>
      <trkpt lat="49.17708900757134" lon="3.798268977552652">
        <ele>166.44999999999999</ele>
        <time>2018-07-10T10:08:33Z</time>
      </trkpt>
      <trkpt lat="49.177971035242081" lon="3.798613976687193">
        <ele>163.08000000000001</ele>
        <time>2018-07-10T10:08:40Z</time>
      </trkpt>
      <trkpt lat="49.178264988586307" lon="3.798797959461808">
        <ele>161.63999999999999</ele>
        <time>2018-07-10T10:08:46Z</time>
      </trkpt>
      <trkpt lat="49.178339000791311" lon="3.7988640088588">
        <ele>161.63999999999999</ele>
        <time>2018-07-10T10:08:52Z</time>
      </trkpt>
      <trkpt lat="49.17842198163271" lon="3.798900973051786">
        <ele>161.63999999999999</ele>
        <time>2018-07-10T10:08:53Z</time>
      </trkpt>
      <trkpt lat="49.17848601937294" lon="3.798892004415393">
        <ele>161.63999999999999</ele>
        <time>2018-07-10T10:08:54Z</time>
      </trkpt>
      <trkpt lat="49.178632032126188" lon="3.798946989700198">
        <ele>161.16</ele>
        <time>2018-07-10T10:08:56Z</time>
      </trkpt>
      <trkpt lat="49.178697997704148" lon="3.798970961943269">
        <ele>161.16</ele>
        <time>2018-07-10T10:08:57Z</time>
      </trkpt>
      <trkpt lat="49.178824983537197" lon="3.799026031047106">
        <ele>160.68000000000001</ele>
        <time>2018-07-10T10:08:59Z</time>
      </trkpt>
      <trkpt lat="49.179371986538172" lon="3.799742013216019">
        <ele>154.91</ele>
        <time>2018-07-10T10:09:09Z</time>
      </trkpt>
      <trkpt lat="49.179884037002921" lon="3.801026036962867">
        <ele>147.22</ele>
        <time>2018-07-10T10:09:20Z</time>
      </trkpt>
      <trkpt lat="49.180204980075359" lon="3.802212998270989">
        <ele>143.84999999999999</ele>
        <time>2018-07-10T10:09:29Z</time>
      </trkpt>
      <trkpt lat="49.18024898506701" lon="3.802403016015887">
        <ele>142.88999999999999</ele>
        <time>2018-07-10T10:09:31Z</time>
      </trkpt>
      <trkpt lat="49.180275974795222" lon="3.802454983815551">
        <ele>142.88999999999999</ele>
        <time>2018-07-10T10:09:32Z</time>
      </trkpt>
      <trkpt lat="49.180316040292382" lon="3.802508963271976">
        <ele>142.88999999999999</ele>
        <time>2018-07-10T10:09:33Z</time>
      </trkpt>
      <trkpt lat="49.18035602197051" lon="3.802525978535414">
        <ele>142.88999999999999</ele>
        <time>2018-07-10T10:09:34Z</time>
      </trkpt>
      <trkpt lat="49.180417964234948" lon="3.802547017112374">
        <ele>142.41</ele>
        <time>2018-07-10T10:09:35Z</time>
      </trkpt>
      <trkpt lat="49.180493988096714" lon="3.802571995183826">
        <ele>142.41</ele>
        <time>2018-07-10T10:09:36Z</time>
      </trkpt>
      <trkpt lat="49.180572023615241" lon="3.802555985748768">
        <ele>141.93000000000001</ele>
        <time>2018-07-10T10:09:37Z</time>
      </trkpt>
      <trkpt lat="49.180663973093033" lon="3.802521033212543">
        <ele>140.97</ele>
        <time>2018-07-10T10:09:38Z</time>
      </trkpt>
      <trkpt lat="49.180819960311055" lon="3.802442997694016">
        <ele>140.00999999999999</ele>
        <time>2018-07-10T10:09:40Z</time>
      </trkpt>
      <trkpt lat="49.180886009708047" lon="3.802377032116056">
        <ele>140.00999999999999</ele>
        <time>2018-07-10T10:09:41Z</time>
      </trkpt>
      <trkpt lat="49.180951975286007" lon="3.802311988547444">
        <ele>139.53</ele>
        <time>2018-07-10T10:09:42Z</time>
      </trkpt>
      <trkpt lat="49.181449022144079" lon="3.801817959174514">
        <ele>140.49000000000001</ele>
        <time>2018-07-10T10:09:52Z</time>
      </trkpt>
      <trkpt lat="49.181564021855593" lon="3.80174201913178">
        <ele>141.44999999999999</ele>
        <time>2018-07-10T10:09:55Z</time>
      </trkpt>
      <trkpt lat="49.181599980220199" lon="3.801762973889709">
        <ele>140.97</ele>
        <time>2018-07-10T10:09:56Z</time>
      </trkpt>
      <trkpt lat="49.181641973555088" lon="3.801788035780191">
        <ele>140.97</ele>
        <time>2018-07-10T10:09:57Z</time>
      </trkpt>
      <trkpt lat="49.181681033223867" lon="3.801817959174514">
        <ele>140.97</ele>
        <time>2018-07-10T10:09:58Z</time>
      </trkpt>
      <trkpt lat="49.181713974103332" lon="3.801860958337784">
        <ele>140.97</ele>
        <time>2018-07-10T10:09:59Z</time>
      </trkpt>
      <trkpt lat="49.181887982413173" lon="3.802089029923081">
        <ele>142.41</ele>
        <time>2018-07-10T10:10:08Z</time>
      </trkpt>
      <trkpt lat="49.181970963254571" lon="3.80223797634244">
        <ele>143.84999999999999</ele>
        <time>2018-07-10T10:10:11Z</time>
      </trkpt>
      <trkpt lat="49.181992001831532" lon="3.802312994375825">
        <ele>144.34</ele>
        <time>2018-07-10T10:10:12Z</time>
      </trkpt>
      <trkpt lat="49.182017985731363" lon="3.802398992702365">
        <ele>144.81999999999999</ele>
        <time>2018-07-10T10:10:13Z</time>
      </trkpt>
      <trkpt lat="49.182057967409492" lon="3.80253603681922">
        <ele>144.81999999999999</ele>
        <time>2018-07-10T10:10:14Z</time>
      </trkpt>
      <trkpt lat="49.182057967409492" lon="3.80253603681922">
        <ele>145.30000000000001</ele>
        <time>2018-07-10T10:10:15Z</time>
      </trkpt>
      <trkpt lat="49.182261982932687" lon="3.802910037338734">
        <ele>147.69999999999999</ele>
        <time>2018-07-10T10:10:19Z</time>
      </trkpt>
      <trkpt lat="49.182407995685935" lon="3.803155962377787">
        <ele>149.13999999999999</ele>
        <time>2018-07-10T10:10:22Z</time>
      </trkpt>
      <trkpt lat="49.182444037869573" lon="3.803254030644894">
        <ele>149.62</ele>
        <time>2018-07-10T10:10:23Z</time>
      </trkpt>
      <trkpt lat="49.182473961263895" lon="3.803361989557743">
        <ele>150.09999999999999</ele>
        <time>2018-07-10T10:10:24Z</time>
      </trkpt>
      <trkpt lat="49.182534981518984" lon="3.803595006465912">
        <ele>151.06</ele>
        <time>2018-07-10T10:10:26Z</time>
      </trkpt>
      <trkpt lat="49.182553002610803" lon="3.803730960935354">
        <ele>151.06</ele>
        <time>2018-07-10T10:10:27Z</time>
      </trkpt>
      <trkpt lat="49.182579992339015" lon="3.804509975016117">
        <ele>151.53999999999999</ele>
        <time>2018-07-10T10:10:32Z</time>
      </trkpt>
      <trkpt lat="49.182586027309299" lon="3.804679038003087">
        <ele>151.53999999999999</ele>
        <time>2018-07-10T10:10:33Z</time>
      </trkpt>
      <trkpt lat="49.182716030627489" lon="3.807001998648047">
        <ele>150.58000000000001</ele>
        <time>2018-07-10T10:10:45Z</time>
      </trkpt>
      <trkpt lat="49.182867994531989" lon="3.809385979548097">
        <ele>141.93000000000001</ele>
        <time>2018-07-10T10:10:55Z</time>
      </trkpt>
      <trkpt lat="49.183045020326972" lon="3.811955032870174">
        <ele>136.63999999999999</ele>
        <time>2018-07-10T10:11:03Z</time>
      </trkpt>
      <trkpt lat="49.18329999782145" lon="3.815909028053284">
        <ele>129.91999999999999</ele>
        <time>2018-07-10T10:11:14Z</time>
      </trkpt>
      <trkpt lat="49.183515999466181" lon="3.819272015243769">
        <ele>123.19</ele>
        <time>2018-07-10T10:11:24Z</time>
      </trkpt>
      <trkpt lat="49.183711968362331" lon="3.822027985006571">
        <ele>119.81999999999999</ele>
        <time>2018-07-10T10:11:34Z</time>
      </trkpt>
      <trkpt lat="49.183575008064508" lon="3.824138967320323">
        <ele>119.34</ele>
        <time>2018-07-10T10:11:42Z</time>
      </trkpt>
      <trkpt lat="49.183222968131304" lon="3.82733004167676">
        <ele>119.81999999999999</ele>
        <time>2018-07-10T10:11:52Z</time>
      </trkpt>
      <trkpt lat="49.182927003130317" lon="3.82997402921319">
        <ele>125.59</ele>
        <time>2018-07-10T10:12:00Z</time>
      </trkpt>
      <trkpt lat="49.182722987607121" lon="3.832018040120602">
        <ele>136.16</ele>
        <time>2018-07-10T10:12:08Z</time>
      </trkpt>
      <trkpt lat="49.182749977335334" lon="3.832258014008403">
        <ele>137.13</ele>
        <time>2018-07-10T10:12:09Z</time>
      </trkpt>
      <trkpt lat="49.182775961235166" lon="3.832496982067823">
        <ele>138.09</ele>
        <time>2018-07-10T10:12:10Z</time>
      </trkpt>
      <trkpt lat="49.182818038389087" lon="3.832728993147612">
        <ele>139.05000000000001</ele>
        <time>2018-07-10T10:12:11Z</time>
      </trkpt>
      <trkpt lat="49.182873023673892" lon="3.832959998399019">
        <ele>140.00999999999999</ele>
        <time>2018-07-10T10:12:12Z</time>
      </trkpt>
      <trkpt lat="49.182962961494923" lon="3.833163008093834">
        <ele>140.97</ele>
        <time>2018-07-10T10:12:13Z</time>
      </trkpt>
      <trkpt lat="49.183057006448507" lon="3.8333719689399">
        <ele>141.93000000000001</ele>
        <time>2018-07-10T10:12:14Z</time>
      </trkpt>
      <trkpt lat="49.183154990896583" lon="3.833587970584631">
        <ele>143.37</ele>
        <time>2018-07-10T10:12:15Z</time>
      </trkpt>
      <trkpt lat="49.183297986164689" lon="3.833744041621685">
        <ele>144.81999999999999</ele>
        <time>2018-07-10T10:12:16Z</time>
      </trkpt>
      <trkpt lat="49.183446010574698" lon="3.833904974162579">
        <ele>145.78</ele>
        <time>2018-07-10T10:12:17Z</time>
      </trkpt>
      <trkpt lat="49.184920974075794" lon="3.835643967613578">
        <ele>155.87</ele>
        <time>2018-07-10T10:12:26Z</time>
      </trkpt>
      <trkpt lat="49.185581970959902" lon="3.837355971336365">
        <ele>164.03999999999999</ele>
        <time>2018-07-10T10:12:32Z</time>
      </trkpt>
      <trkpt lat="49.185870978981256" lon="3.838132973760366">
        <ele>167.88999999999999</ele>
        <time>2018-07-10T10:12:35Z</time>
      </trkpt>
      <trkpt lat="49.185966029763222" lon="3.838347969576716">
        <ele>168.84999999999999</ele>
        <time>2018-07-10T10:12:36Z</time>
      </trkpt>
      <trkpt lat="49.186097038909793" lon="3.83850303478539">
        <ele>170.28999999999999</ele>
        <time>2018-07-10T10:12:37Z</time>
      </trkpt>
      <trkpt lat="49.186236010864377" lon="3.838643012568355">
        <ele>171.25</ele>
        <time>2018-07-10T10:12:38Z</time>
      </trkpt>
      <trkpt lat="49.186382023617625" lon="3.838759018108249">
        <ele>172.69</ele>
        <time>2018-07-10T10:12:39Z</time>
      </trkpt>
      <trkpt lat="49.186543039977551" lon="3.838832024484873">
        <ele>173.66</ele>
        <time>2018-07-10T10:12:40Z</time>
      </trkpt>
      <trkpt lat="49.186705984175205" lon="3.838896984234452">
        <ele>174.62</ele>
        <time>2018-07-10T10:12:41Z</time>
      </trkpt>
      <trkpt lat="49.187309984117746" lon="3.839165959507227">
        <ele>177.97999999999999</ele>
        <time>2018-07-10T10:12:45Z</time>
      </trkpt>
      <trkpt lat="49.18744501657784" lon="3.83927701972425">
        <ele>178.94</ele>
        <time>2018-07-10T10:12:46Z</time>
      </trkpt>
      <trkpt lat="49.187579965218902" lon="3.839387996122241">
        <ele>179.90000000000001</ele>
        <time>2018-07-10T10:12:47Z</time>
      </trkpt>
      <trkpt lat="49.18768398463726" lon="3.839550018310547">
        <ele>180.38</ele>
        <time>2018-07-10T10:12:48Z</time>
      </trkpt>
      <trkpt lat="49.187786998227239" lon="3.839721009135246">
        <ele>181.34999999999999</ele>
        <time>2018-07-10T10:12:49Z</time>
      </trkpt>
      <trkpt lat="49.187880959361792" lon="3.839878002181649">
        <ele>182.31</ele>
        <time>2018-07-10T10:12:50Z</time>
      </trkpt>
      <trkpt lat="49.187944997102022" lon="3.840044969692826">
        <ele>182.78999999999999</ele>
        <time>2018-07-10T10:12:51Z</time>
      </trkpt>
      <trkpt lat="49.187989002093673" lon="3.840207997709513">
        <ele>183.27000000000001</ele>
        <time>2018-07-10T10:12:52Z</time>
      </trkpt>
      <trkpt lat="49.188032001256943" lon="3.840364990755916">
        <ele>184.22999999999999</ele>
        <time>2018-07-10T10:12:53Z</time>
      </trkpt>
      <trkpt lat="49.188185976818204" lon="3.841289011761546">
        <ele>187.11000000000001</ele>
        <time>2018-07-10T10:12:59Z</time>
      </trkpt>
      <trkpt lat="49.188185976818204" lon="3.841450028121471">
        <ele>187.11000000000001</ele>
        <time>2018-07-10T10:13:00Z</time>
      </trkpt>
      <trkpt lat="49.188154963776469" lon="3.841623030602932">
        <ele>186.63</ele>
        <time>2018-07-10T10:13:01Z</time>
      </trkpt>
      <trkpt lat="49.188097966834903" lon="3.841794021427631">
        <ele>186.15000000000001</ele>
        <time>2018-07-10T10:13:02Z</time>
      </trkpt>
      <trkpt lat="49.188044993206859" lon="3.841953026130796">
        <ele>185.19</ele>
        <time>2018-07-10T10:13:03Z</time>
      </trkpt>
      <trkpt lat="49.187946002930403" lon="3.842095015570521">
        <ele>184.71000000000001</ele>
        <time>2018-07-10T10:13:04Z</time>
      </trkpt>
      <trkpt lat="49.187856987118721" lon="3.842224013060331">
        <ele>183.75</ele>
        <time>2018-07-10T10:13:05Z</time>
      </trkpt>
      <trkpt lat="49.187737964093685" lon="3.84232702665031">
        <ele>183.27000000000001</ele>
        <time>2018-07-10T10:13:06Z</time>
      </trkpt>
      <trkpt lat="49.187607960775495" lon="3.84243699721992">
        <ele>182.31</ele>
        <time>2018-07-10T10:13:07Z</time>
      </trkpt>
      <trkpt lat="49.18746898882091" lon="3.842555014416575">
        <ele>181.34999999999999</ele>
        <time>2018-07-10T10:13:08Z</time>
      </trkpt>
      <trkpt lat="49.186093015596271" lon="3.843572996556759">
        <ele>173.16999999999999</ele>
        <time>2018-07-10T10:13:16Z</time>
      </trkpt>
      <trkpt lat="49.185285000130534" lon="3.844264000654221">
        <ele>168.37</ele>
        <time>2018-07-10T10:13:21Z</time>
      </trkpt>
      <trkpt lat="49.185152985155582" lon="3.844464998692274">
        <ele>167.41</ele>
        <time>2018-07-10T10:13:22Z</time>
      </trkpt>
      <trkpt lat="49.185022981837392" lon="3.844684017822146">
        <ele>166.44999999999999</ele>
        <time>2018-07-10T10:13:23Z</time>
      </trkpt>
      <trkpt lat="49.184892978519201" lon="3.844902031123638">
        <ele>165.47999999999999</ele>
        <time>2018-07-10T10:13:24Z</time>
      </trkpt>
      <trkpt lat="49.184792982414365" lon="3.845148039981723">
        <ele>165</ele>
        <time>2018-07-10T10:13:25Z</time>
      </trkpt>
      <trkpt lat="49.184707989916205" lon="3.845412991940975">
        <ele>164.03999999999999</ele>
        <time>2018-07-10T10:13:26Z</time>
      </trkpt>
      <trkpt lat="49.18463196605444" lon="3.845688002184033">
        <ele>163.08000000000001</ele>
        <time>2018-07-10T10:13:27Z</time>
      </trkpt>
      <trkpt lat="49.184572035446763" lon="3.845971981063485">
        <ele>162.12</ele>
        <time>2018-07-10T10:13:28Z</time>
      </trkpt>
      <trkpt lat="49.183758990839124" lon="3.849820028990507">
        <ele>147.69999999999999</ele>
        <time>2018-07-10T10:13:42Z</time>
      </trkpt>
      <trkpt lat="49.183584982529283" lon="3.851600009948015">
        <ele>140.49000000000001</ele>
        <time>2018-07-10T10:13:50Z</time>
      </trkpt>
      <trkpt lat="49.18360099196434" lon="3.851759014651179">
        <ele>140.00999999999999</ele>
        <time>2018-07-10T10:13:51Z</time>
      </trkpt>
      <trkpt lat="49.18366402387619" lon="3.851923970505595">
        <ele>139.53</ele>
        <time>2018-07-10T10:13:52Z</time>
      </trkpt>
      <trkpt lat="49.183758990839124" lon="3.852038970217109">
        <ele>139.05000000000001</ele>
        <time>2018-07-10T10:13:53Z</time>
      </trkpt>
      <trkpt lat="49.183831997215748" lon="3.852195963263512">
        <ele>138.56999999999999</ele>
        <time>2018-07-10T10:13:54Z</time>
      </trkpt>
      <trkpt lat="49.18441797606647" lon="3.853710992261767">
        <ele>131.84</ele>
        <time>2018-07-10T10:14:01Z</time>
      </trkpt>
      <trkpt lat="49.185332022607327" lon="3.854900971055031">
        <ele>124.63</ele>
        <time>2018-07-10T10:14:07Z</time>
      </trkpt>
      <trkpt lat="49.1873590182513" lon="3.856755970045924">
        <ele>127.03</ele>
        <time>2018-07-10T10:14:18Z</time>
      </trkpt>
      <trkpt lat="49.190170979127288" lon="3.859287975355983">
        <ele>145.78</ele>
        <time>2018-07-10T10:14:33Z</time>
      </trkpt>
      <trkpt lat="49.191448967903852" lon="3.860439984127879">
        <ele>149.13999999999999</ele>
        <time>2018-07-10T10:14:39Z</time>
      </trkpt>
      <trkpt lat="49.192899037152529" lon="3.861725013703108">
        <ele>152.50999999999999</ele>
        <time>2018-07-10T10:14:50Z</time>
      </trkpt>
      <trkpt lat="49.194580027833581" lon="3.862944999709725">
        <ele>153.94999999999999</ele>
        <time>2018-07-10T10:15:02Z</time>
      </trkpt>
      <trkpt lat="49.196688998490572" lon="3.864108994603157">
        <ele>159.72</ele>
        <time>2018-07-10T10:15:15Z</time>
      </trkpt>
      <trkpt lat="49.198840968310833" lon="3.865306014195085">
        <ele>167.41</ele>
        <time>2018-07-10T10:15:27Z</time>
      </trkpt>
      <trkpt lat="49.201408009976149" lon="3.8667799718678">
        <ele>179.90000000000001</ele>
        <time>2018-07-10T10:15:40Z</time>
      </trkpt>
      <trkpt lat="49.201584029942751" lon="3.8668870087713">
        <ele>180.87</ele>
        <time>2018-07-10T10:15:41Z</time>
      </trkpt>
      <trkpt lat="49.201730964705348" lon="3.867056993767619">
        <ele>182.31</ele>
        <time>2018-07-10T10:15:42Z</time>
      </trkpt>
      <trkpt lat="49.201865997165442" lon="3.867233013734222">
        <ele>183.27000000000001</ele>
        <time>2018-07-10T10:15:43Z</time>
      </trkpt>
      <trkpt lat="49.201976973563433" lon="3.867440968751907">
        <ele>183.75</ele>
        <time>2018-07-10T10:15:44Z</time>
      </trkpt>
      <trkpt lat="49.202074036002159" lon="3.86766099371016">
        <ele>184.71000000000001</ele>
        <time>2018-07-10T10:15:45Z</time>
      </trkpt>
      <trkpt lat="49.20214201323688" lon="3.86789602227509">
        <ele>185.19</ele>
        <time>2018-07-10T10:15:46Z</time>
      </trkpt>
      <trkpt lat="49.202196998521686" lon="3.8681960105896">
        <ele>185.66999999999999</ele>
        <time>2018-07-10T10:15:47Z</time>
      </trkpt>
      <trkpt lat="49.202238991856575" lon="3.868488036096096">
        <ele>185.66999999999999</ele>
        <time>2018-07-10T10:15:48Z</time>
      </trkpt>
      <trkpt lat="49.202418029308319" lon="3.870129967108369">
        <ele>186.15000000000001</ele>
        <time>2018-07-10T10:15:53Z</time>
      </trkpt>
      <trkpt lat="49.202391961589456" lon="3.870468009263277">
        <ele>186.15000000000001</ele>
        <time>2018-07-10T10:15:54Z</time>
      </trkpt>
      <trkpt lat="49.202364971861243" lon="3.870810996741056">
        <ele>186.15000000000001</ele>
        <time>2018-07-10T10:15:55Z</time>
      </trkpt>
      <trkpt lat="49.201945038512349" lon="3.874500961974263">
        <ele>187.59</ele>
        <time>2018-07-10T10:16:05Z</time>
      </trkpt>
      <trkpt lat="49.201547987759113" lon="3.878000993281603">
        <ele>185.66999999999999</ele>
        <time>2018-07-10T10:16:15Z</time>
      </trkpt>
      <trkpt lat="49.201514041051269" lon="3.878598036244512">
        <ele>184.22999999999999</ele>
        <time>2018-07-10T10:16:17Z</time>
      </trkpt>
      <trkpt lat="49.201500965282321" lon="3.878903975710273">
        <ele>183.27000000000001</ele>
        <time>2018-07-10T10:16:18Z</time>
      </trkpt>
      <trkpt lat="49.201541030779481" lon="3.879211004823446">
        <ele>181.83000000000001</ele>
        <time>2018-07-10T10:16:19Z</time>
      </trkpt>
      <trkpt lat="49.20158201828599" lon="3.879525996744633">
        <ele>180.87</ele>
        <time>2018-07-10T10:16:20Z</time>
      </trkpt>
      <trkpt lat="49.201644966378808" lon="3.879840988665819">
        <ele>179.90000000000001</ele>
        <time>2018-07-10T10:16:21Z</time>
      </trkpt>
      <trkpt lat="49.202256007120013" lon="3.882801979780197">
        <ele>172.69</ele>
        <time>2018-07-10T10:16:30Z</time>
      </trkpt>
      <trkpt lat="49.203327968716621" lon="3.887936985120177">
        <ele>156.83000000000001</ele>
        <time>2018-07-10T10:16:46Z</time>
      </trkpt>
      <trkpt lat="49.204134978353977" lon="3.891815040260553">
        <ele>147.22</ele>
        <time>2018-07-10T10:16:58Z</time>
      </trkpt>
      <trkpt lat="49.20467896386981" lon="3.894372023642063">
        <ele>143.37</ele>
        <time>2018-07-10T10:17:06Z</time>
      </trkpt>
      <trkpt lat="49.20530098490417" lon="3.897582963109016">
        <ele>135.19999999999999</ele>
        <time>2018-07-10T10:17:16Z</time>
      </trkpt>
      <trkpt lat="49.205304002389312" lon="3.897902984172106">
        <ele>134.72</ele>
        <time>2018-07-10T10:17:17Z</time>
      </trkpt>
      <trkpt lat="49.205282041803002" lon="3.898224011063576">
        <ele>134.72</ele>
        <time>2018-07-10T10:17:18Z</time>
      </trkpt>
      <trkpt lat="49.205258991569281" lon="3.898551994934678">
        <ele>134.72</ele>
        <time>2018-07-10T10:17:19Z</time>
      </trkpt>
      <trkpt lat="49.205221021547914" lon="3.8988789729774">
        <ele>134.72</ele>
        <time>2018-07-10T10:17:20Z</time>
      </trkpt>
      <trkpt lat="49.204924972727895" lon="3.902427032589912">
        <ele>135.19999999999999</ele>
        <time>2018-07-10T10:17:31Z</time>
      </trkpt>
      <trkpt lat="49.204933019354939" lon="3.904006015509367">
        <ele>135.68000000000001</ele>
        <time>2018-07-10T10:17:36Z</time>
      </trkpt>
      <trkpt lat="49.204973001033068" lon="3.904298041015863">
        <ele>135.68000000000001</ele>
        <time>2018-07-10T10:17:37Z</time>
      </trkpt>
      <trkpt lat="49.205012982711196" lon="3.904590988531709">
        <ele>135.68000000000001</ele>
        <time>2018-07-10T10:17:38Z</time>
      </trkpt>
      <trkpt lat="49.205074002966285" lon="3.904876979067922">
        <ele>135.68000000000001</ele>
        <time>2018-07-10T10:17:39Z</time>
      </trkpt>
      <trkpt lat="49.205170981585979" lon="3.905143020674586">
        <ele>135.68000000000001</ele>
        <time>2018-07-10T10:17:40Z</time>
      </trkpt>
      <trkpt lat="49.205268966034055" lon="3.9054099842906">
        <ele>136.16</ele>
        <time>2018-07-10T10:17:41Z</time>
      </trkpt>
      <trkpt lat="49.205368040129542" lon="3.905682982876897">
        <ele>136.63999999999999</ele>
        <time>2018-07-10T10:17:42Z</time>
      </trkpt>
      <trkpt lat="49.20602903701365" lon="3.907996974885464">
        <ele>138.56999999999999</ele>
        <time>2018-07-10T10:17:50Z</time>
      </trkpt>
      <trkpt lat="49.206390967592597" lon="3.910746993497014">
        <ele>146.74000000000001</ele>
        <time>2018-07-10T10:17:59Z</time>
      </trkpt>
      <trkpt lat="49.206390967592597" lon="3.911859020590782">
        <ele>149.62</ele>
        <time>2018-07-10T10:18:03Z</time>
      </trkpt>
      <trkpt lat="49.206047980114818" lon="3.913879981264472">
        <ele>154.43000000000001</ele>
        <time>2018-07-10T10:18:10Z</time>
      </trkpt>
      <trkpt lat="49.205646989867091" lon="3.916785987094045">
        <ele>160.19999999999999</ele>
        <time>2018-07-10T10:18:20Z</time>
      </trkpt>
      <trkpt lat="49.205327974632382" lon="3.919038958847523">
        <ele>168.37</ele>
        <time>2018-07-10T10:18:29Z</time>
      </trkpt>
      <trkpt lat="49.205245999619365" lon="3.919939007610083">
        <ele>171.72999999999999</ele>
        <time>2018-07-10T10:18:34Z</time>
      </trkpt>
      <trkpt lat="49.205255974084139" lon="3.920086026191711">
        <ele>172.69</ele>
        <time>2018-07-10T10:18:35Z</time>
      </trkpt>
      <trkpt lat="49.205307019874454" lon="3.920221980661154">
        <ele>173.66</ele>
        <time>2018-07-10T10:18:36Z</time>
      </trkpt>
      <trkpt lat="49.205381032079458" lon="3.920315019786358">
        <ele>174.62</ele>
        <time>2018-07-10T10:18:37Z</time>
      </trkpt>
      <trkpt lat="49.205489996820688" lon="3.920423984527588">
        <ele>175.58000000000001</ele>
        <time>2018-07-10T10:18:38Z</time>
      </trkpt>
      <trkpt lat="49.205585969612002" lon="3.920423984527588">
        <ele>176.06</ele>
        <time>2018-07-10T10:18:39Z</time>
      </trkpt>
      <trkpt lat="49.205711027607322" lon="3.920393977314234">
        <ele>177.02000000000001</ele>
        <time>2018-07-10T10:18:40Z</time>
      </trkpt>
      <trkpt lat="49.205840025097132" lon="3.920317031443119">
        <ele>177.97999999999999</ele>
        <time>2018-07-10T10:18:41Z</time>
      </trkpt>
      <trkpt lat="49.205977991223335" lon="3.920233966782689">
        <ele>178.94</ele>
        <time>2018-07-10T10:18:42Z</time>
      </trkpt>
      <trkpt lat="49.206134984269738" lon="3.92017001286149">
        <ele>179.41999999999999</ele>
        <time>2018-07-10T10:18:43Z</time>
      </trkpt>
      <trkpt lat="49.206296000629663" lon="3.920133970677853">
        <ele>180.38</ele>
        <time>2018-07-10T10:18:44Z</time>
      </trkpt>
      <trkpt lat="49.206471014767885" lon="3.920114021748304">
        <ele>181.34999999999999</ele>
        <time>2018-07-10T10:18:45Z</time>
      </trkpt>
      <trkpt lat="49.207165958359838" lon="3.920047972351313">
        <ele>184.71000000000001</ele>
        <time>2018-07-10T10:18:49Z</time>
      </trkpt>
      <trkpt lat="49.207326974719763" lon="3.920116033405066">
        <ele>185.66999999999999</ele>
        <time>2018-07-10T10:18:50Z</time>
      </trkpt>
      <trkpt lat="49.20749201439321" lon="3.920185016468167">
        <ele>186.63</ele>
        <time>2018-07-10T10:18:51Z</time>
      </trkpt>
      <trkpt lat="49.207648001611233" lon="3.92029800452292">
        <ele>188.08000000000001</ele>
        <time>2018-07-10T10:18:52Z</time>
      </trkpt>
      <trkpt lat="49.207798037678003" lon="3.920434964820743">
        <ele>189.03999999999999</ele>
        <time>2018-07-10T10:18:53Z</time>
      </trkpt>
      <trkpt lat="49.208254013210535" lon="3.920778036117554">
        <ele>190.47999999999999</ele>
        <time>2018-07-10T10:18:56Z</time>
      </trkpt>
      <trkpt lat="49.208419974893332" lon="3.920849030837417">
        <ele>190.96000000000001</ele>
        <time>2018-07-10T10:18:57Z</time>
      </trkpt>
      <trkpt lat="49.208591971546412" lon="3.920889012515545">
        <ele>190.47999999999999</ele>
        <time>2018-07-10T10:18:58Z</time>
      </trkpt>
      <trkpt lat="49.208756005391479" lon="3.92085799947381">
        <ele>190.47999999999999</ele>
        <time>2018-07-10T10:18:59Z</time>
      </trkpt>
      <trkpt lat="49.208918027579784" lon="3.920811982825398">
        <ele>190</ele>
        <time>2018-07-10T10:19:00Z</time>
      </trkpt>
      <trkpt lat="49.209066973999143" lon="3.920725984498859">
        <ele>189.52000000000001</ele>
        <time>2018-07-10T10:19:01Z</time>
      </trkpt>
      <trkpt lat="49.209222039207816" lon="3.92062003724277">
        <ele>188.56</ele>
        <time>2018-07-10T10:19:02Z</time>
      </trkpt>
      <trkpt lat="49.209377020597458" lon="3.920474024489522">
        <ele>188.08000000000001</ele>
        <time>2018-07-10T10:19:03Z</time>
      </trkpt>
      <trkpt lat="49.209536025300622" lon="3.920322982594371">
        <ele>187.11000000000001</ele>
        <time>2018-07-10T10:19:04Z</time>
      </trkpt>
      <trkpt lat="49.210195010527968" lon="3.91978201456368">
        <ele>183.27000000000001</ele>
        <time>2018-07-10T10:19:08Z</time>
      </trkpt>
      <trkpt lat="49.210372036322951" lon="3.91969702206552">
        <ele>182.31</ele>
        <time>2018-07-10T10:19:09Z</time>
      </trkpt>
      <trkpt lat="49.210547972470522" lon="3.919652011245489">
        <ele>181.34999999999999</ele>
        <time>2018-07-10T10:19:10Z</time>
      </trkpt>
      <trkpt lat="49.210720974951982" lon="3.919652011245489">
        <ele>180.38</ele>
        <time>2018-07-10T10:19:11Z</time>
      </trkpt>
      <trkpt lat="49.210888026282191" lon="3.919668020680547">
        <ele>178.94</ele>
        <time>2018-07-10T10:19:12Z</time>
      </trkpt>
      <trkpt lat="49.211025992408395" lon="3.919737003743649">
        <ele>177.5</ele>
        <time>2018-07-10T10:19:13Z</time>
      </trkpt>
      <trkpt lat="49.211168987676501" lon="3.9198690187186">
        <ele>176.53999999999999</ele>
        <time>2018-07-10T10:19:14Z</time>
      </trkpt>
      <trkpt lat="49.211306031793356" lon="3.91999701038003">
        <ele>175.58000000000001</ele>
        <time>2018-07-10T10:19:15Z</time>
      </trkpt>
      <trkpt lat="49.212769009172916" lon="3.921604994684458">
        <ele>164.52000000000001</ele>
        <time>2018-07-10T10:19:25Z</time>
      </trkpt>
      <trkpt lat="49.213881036266685" lon="3.923161011189222">
        <ele>156.34999999999999</ele>
        <time>2018-07-10T10:19:33Z</time>
      </trkpt>
      <trkpt lat="49.215510981157422" lon="3.924311008304358">
        <ele>146.74000000000001</ele>
        <time>2018-07-10T10:19:42Z</time>
      </trkpt>
      <trkpt lat="49.216767009347677" lon="3.925200998783112">
        <ele>141.93000000000001</ele>
        <time>2018-07-10T10:19:51Z</time>
      </trkpt>
      <trkpt lat="49.216936994343996" lon="3.925405014306307">
        <ele>140.49000000000001</ele>
        <time>2018-07-10T10:19:53Z</time>
      </trkpt>
      <trkpt lat="49.217253997921944" lon="3.925873981788755">
        <ele>137.61000000000001</ele>
        <time>2018-07-10T10:19:58Z</time>
      </trkpt>
      <trkpt lat="49.2173529881984" lon="3.926082020625472">
        <ele>136.63999999999999</ele>
        <time>2018-07-10T10:20:00Z</time>
      </trkpt>
      <trkpt lat="49.217779040336609" lon="3.927382975816727">
        <ele>130.40000000000001</ele>
        <time>2018-07-10T10:20:10Z</time>
      </trkpt>
      <trkpt lat="49.217822039499879" lon="3.927529994398356">
        <ele>129.91999999999999</ele>
        <time>2018-07-10T10:20:11Z</time>
      </trkpt>
      <trkpt lat="49.218262005597353" lon="3.92904200591147">
        <ele>125.11</ele>
        <time>2018-07-10T10:20:22Z</time>
      </trkpt>
      <trkpt lat="49.218438025563955" lon="3.929789001122117">
        <ele>123.67</ele>
        <time>2018-07-10T10:20:28Z</time>
      </trkpt>
      <trkpt lat="49.218455040827394" lon="3.929884973913431">
        <ele>123.67</ele>
        <time>2018-07-10T10:20:29Z</time>
      </trkpt>
      <trkpt lat="49.218472978100181" lon="3.929982958361507">
        <ele>123.67</ele>
        <time>2018-07-10T10:20:30Z</time>
      </trkpt>
      <trkpt lat="49.218490999191999" lon="3.930089995265007">
        <ele>123.67</ele>
        <time>2018-07-10T10:20:31Z</time>
      </trkpt>
      <trkpt lat="49.21851497143507" lon="3.930229973047972">
        <ele>123.67</ele>
        <time>2018-07-10T10:20:32Z</time>
      </trkpt>
      <trkpt lat="49.218554031103849" lon="3.930323012173176">
        <ele>123.67</ele>
        <time>2018-07-10T10:20:33Z</time>
      </trkpt>
      <trkpt lat="49.218609016388655" lon="3.930451003834605">
        <ele>123.67</ele>
        <time>2018-07-10T10:20:34Z</time>
      </trkpt>
      <trkpt lat="49.218660984188318" lon="3.930603973567486">
        <ele>123.19</ele>
        <time>2018-07-10T10:20:35Z</time>
      </trkpt>
      <trkpt lat="49.218700965866446" lon="3.930769013240933">
        <ele>123.19</ele>
        <time>2018-07-10T10:20:36Z</time>
      </trkpt>
      <trkpt lat="49.218743965029716" lon="3.930944027379155">
        <ele>122.70999999999999</ele>
        <time>2018-07-10T10:20:37Z</time>
      </trkpt>
      <trkpt lat="49.219237994402647" lon="3.932920983061194">
        <ele>120.78</ele>
        <time>2018-07-10T10:20:47Z</time>
      </trkpt>
      <trkpt lat="49.219907037913799" lon="3.935620039701462">
        <ele>118.86</ele>
        <time>2018-07-10T10:20:57Z</time>
      </trkpt>
      <trkpt lat="49.220958966761827" lon="3.939878968521953">
        <ele>116.45999999999999</ele>
        <time>2018-07-10T10:21:11Z</time>
      </trkpt>
      <trkpt lat="49.221644019708037" lon="3.942667962983251">
        <ele>118.86</ele>
        <time>2018-07-10T10:21:21Z</time>
      </trkpt>
      <trkpt lat="49.22251196578145" lon="3.945681005716324">
        <ele>118.86</ele>
        <time>2018-07-10T10:21:32Z</time>
      </trkpt>
      <trkpt lat="49.22352097928524" lon="3.9471569750458">
        <ele>118.86</ele>
        <time>2018-07-10T10:21:39Z</time>
      </trkpt>
      <trkpt lat="49.225358041003346" lon="3.949805991724134">
        <ele>114.53</ele>
        <time>2018-07-10T10:21:51Z</time>
      </trkpt>
      <trkpt lat="49.226390020921826" lon="3.951708013191819">
        <ele>113.56999999999999</ele>
        <time>2018-07-10T10:21:57Z</time>
      </trkpt>
      <trkpt lat="49.227747973054647" lon="3.954128958284855">
        <ele>111.65000000000001</ele>
        <time>2018-07-10T10:22:06Z</time>
      </trkpt>
      <trkpt lat="49.229223020374775" lon="3.956517968326807">
        <ele>108.29000000000001</ele>
        <time>2018-07-10T10:22:16Z</time>
      </trkpt>
      <trkpt lat="49.229946965351701" lon="3.958186972886324">
        <ele>105.88</ele>
        <time>2018-07-10T10:22:22Z</time>
      </trkpt>
      <trkpt lat="49.230032041668892" lon="3.958487967029214">
        <ele>105.40000000000001</ele>
        <time>2018-07-10T10:22:23Z</time>
      </trkpt>
      <trkpt lat="49.23011401668191" lon="3.95877898670733">
        <ele>104.44</ele>
        <time>2018-07-10T10:22:24Z</time>
      </trkpt>
      <trkpt lat="49.230511989444494" lon="3.960756026208401">
        <ele>96.269999999999996</ele>
        <time>2018-07-10T10:22:32Z</time>
      </trkpt>
      <trkpt lat="49.230578038841486" lon="3.961085015907884">
        <ele>94.829999999999998</ele>
        <time>2018-07-10T10:22:34Z</time>
      </trkpt>
      <trkpt lat="49.230445018038154" lon="3.961364971473813">
        <ele>94.829999999999998</ele>
        <time>2018-07-10T10:22:35Z</time>
      </trkpt>
      <trkpt lat="49.230455998331308" lon="3.961425991728902">
        <ele>94.349999999999994</ele>
        <time>2018-07-10T10:22:36Z</time>
      </trkpt>
      <trkpt lat="49.230477958917618" lon="3.961547026410699">
        <ele>94.349999999999994</ele>
        <time>2018-07-10T10:22:37Z</time>
      </trkpt>
      <trkpt lat="49.230530010536313" lon="3.961672000586987">
        <ele>93.870000000000005</ele>
        <time>2018-07-10T10:22:38Z</time>
      </trkpt>
      <trkpt lat="49.230551971122622" lon="3.961708964779973">
        <ele>93.870000000000005</ele>
        <time>2018-07-10T10:22:39Z</time>
      </trkpt>
      <trkpt lat="49.230710975825787" lon="3.961843997240067">
        <ele>93.870000000000005</ele>
        <time>2018-07-10T10:22:40Z</time>
      </trkpt>
      <trkpt lat="49.230757998302579" lon="3.962020017206669">
        <ele>93.390000000000001</ele>
        <time>2018-07-10T10:22:41Z</time>
      </trkpt>
      <trkpt lat="49.231153037399054" lon="3.963510990142822">
        <ele>92.420000000000002</ele>
        <time>2018-07-10T10:22:47Z</time>
      </trkpt>
      <trkpt lat="49.23215601593256" lon="3.966356981545687">
        <ele>90.980000000000004</ele>
        <time>2018-07-10T10:22:56Z</time>
      </trkpt>
      <trkpt lat="49.233113983646035" lon="3.969286037608981">
        <ele>97.709999999999994</ele>
        <time>2018-07-10T10:23:05Z</time>
      </trkpt>
      <trkpt lat="49.234230034053326" lon="3.972771987318993">
        <ele>96.269999999999996</ele>
        <time>2018-07-10T10:23:16Z</time>
      </trkpt>
      <trkpt lat="49.235927034169436" lon="3.978090975433588">
        <ele>99.629999999999995</ele>
        <time>2018-07-10T10:23:32Z</time>
      </trkpt>
      <trkpt lat="49.236948033794761" lon="3.981793010607362">
        <ele>103.95999999999999</ele>
        <time>2018-07-10T10:23:44Z</time>
      </trkpt>
      <trkpt lat="49.237611964344978" lon="3.98393701761961">
        <ele>105.88</ele>
        <time>2018-07-10T10:23:53Z</time>
      </trkpt>
      <trkpt lat="49.238650985062122" lon="3.986934972926974">
        <ele>101.08</ele>
        <time>2018-07-10T10:24:05Z</time>
      </trkpt>
      <trkpt lat="49.238930018618703" lon="3.987720021978021">
        <ele>100.11</ele>
        <time>2018-07-10T10:24:08Z</time>
      </trkpt>
      <trkpt lat="49.239019034430385" lon="3.987970976158977">
        <ele>100.11</ele>
        <time>2018-07-10T10:24:09Z</time>
      </trkpt>
      <trkpt lat="49.239826966077089" lon="3.989870985969901">
        <ele>98.189999999999998</ele>
        <time>2018-07-10T10:24:17Z</time>
      </trkpt>
      <trkpt lat="49.240658031776547" lon="3.990982007235289">
        <ele>97.709999999999994</ele>
        <time>2018-07-10T10:24:25Z</time>
      </trkpt>
      <trkpt lat="49.241085005924106" lon="3.991443011909723">
        <ele>97.230000000000004</ele>
        <time>2018-07-10T10:24:30Z</time>
      </trkpt>
      <trkpt lat="49.241173015907407" lon="3.991475030779839">
        <ele>97.230000000000004</ele>
        <time>2018-07-10T10:24:31Z</time>
      </trkpt>
      <trkpt lat="49.241265971213579" lon="3.991485005244613">
        <ele>97.230000000000004</ele>
        <time>2018-07-10T10:24:32Z</time>
      </trkpt>
      <trkpt lat="49.24135398119688" lon="3.991487016901374">
        <ele>97.230000000000004</ele>
        <time>2018-07-10T10:24:33Z</time>
      </trkpt>
      <trkpt lat="49.241435034200549" lon="3.991473019123077">
        <ele>96.75</ele>
        <time>2018-07-10T10:24:34Z</time>
      </trkpt>
      <trkpt lat="49.24150301143527" lon="3.991495985537767">
        <ele>96.75</ele>
        <time>2018-07-10T10:24:35Z</time>
      </trkpt>
      <trkpt lat="49.241554979234934" lon="3.991520963609219">
        <ele>96.75</ele>
        <time>2018-07-10T10:24:36Z</time>
      </trkpt>
      <trkpt lat="49.241581968963146" lon="3.991534961387515">
        <ele>96.75</ele>
        <time>2018-07-10T10:24:37Z</time>
      </trkpt>
      <trkpt lat="49.241623040288687" lon="3.991618026047945">
        <ele>96.75</ele>
        <time>2018-07-10T10:24:38Z</time>
      </trkpt>
      <trkpt lat="49.241647012531757" lon="3.991677034646273">
        <ele>96.75</ele>
        <time>2018-07-10T10:24:39Z</time>
      </trkpt>
      <trkpt lat="49.241656986996531" lon="3.991763032972813">
        <ele>96.75</ele>
        <time>2018-07-10T10:24:40Z</time>
      </trkpt>
      <trkpt lat="49.241666961461306" lon="3.991859005764127">
        <ele>96.75</ele>
        <time>2018-07-10T10:24:41Z</time>
      </trkpt>
      <trkpt lat="49.241641983389854" lon="3.991947015747428">
        <ele>96.75</ele>
        <time>2018-07-10T10:24:42Z</time>
      </trkpt>
      <trkpt lat="49.24163200892508" lon="3.992069978266954">
        <ele>96.75</ele>
        <time>2018-07-10T10:24:43Z</time>
      </trkpt>
      <trkpt lat="49.241646006703377" lon="3.992177015170455">
        <ele>96.75</ele>
        <time>2018-07-10T10:24:44Z</time>
      </trkpt>
      <trkpt lat="49.241711972281337" lon="3.992262007668614">
        <ele>96.75</ele>
        <time>2018-07-10T10:24:45Z</time>
      </trkpt>
      <trkpt lat="49.241732005029917" lon="3.992285979911685">
        <ele>96.269999999999996</ele>
        <time>2018-07-10T10:24:46Z</time>
      </trkpt>
      <trkpt lat="49.241882041096687" lon="3.992479015141726">
        <ele>96.269999999999996</ele>
        <time>2018-07-10T10:24:47Z</time>
      </trkpt>
      <trkpt lat="49.242380009964108" lon="3.993196003139019">
        <ele>94.349999999999994</ele>
        <time>2018-07-10T10:24:55Z</time>
      </trkpt>
      <trkpt lat="49.243148965761065" lon="3.994167968630791">
        <ele>92.420000000000002</ele>
        <time>2018-07-10T10:25:09Z</time>
      </trkpt>
      <trkpt lat="49.243812980130315" lon="3.995011020451784">
        <ele>91.459999999999994</ele>
        <time>2018-07-10T10:25:19Z</time>
      </trkpt>
      <trkpt lat="49.244139036163688" lon="3.995413016527891">
        <ele>91.459999999999994</ele>
        <time>2018-07-10T10:25:24Z</time>
      </trkpt>
      <trkpt lat="49.244445981457829" lon="3.995799003168941">
        <ele>90.980000000000004</ele>
        <time>2018-07-10T10:25:29Z</time>
      </trkpt>
      <trkpt lat="49.244511025026441" lon="3.995880978181958">
        <ele>90.5</ele>
        <time>2018-07-10T10:25:30Z</time>
      </trkpt>
      <trkpt lat="49.245493970811367" lon="3.997148992493749">
        <ele>90.5</ele>
        <time>2018-07-10T10:25:44Z</time>
      </trkpt>
      <trkpt lat="49.246214982122183" lon="3.998063039034605">
        <ele>87.620000000000005</ele>
        <time>2018-07-10T10:25:54Z</time>
      </trkpt>
      <trkpt lat="49.246498038992286" lon="3.99844097904861">
        <ele>86.180000000000007</ele>
        <time>2018-07-10T10:25:58Z</time>
      </trkpt>
      <trkpt lat="49.246863992884755" lon="3.998923022300005">
        <ele>83.290000000000006</ele>
        <time>2018-07-10T10:26:04Z</time>
      </trkpt>
      <trkpt lat="49.247074965387583" lon="3.9994309656322">
        <ele>79.450000000000003</ele>
        <time>2018-07-10T10:26:11Z</time>
      </trkpt>
      <trkpt lat="49.247074965387583" lon="3.9994309656322">
        <ele>78.969999999999999</ele>
        <time>2018-07-10T10:26:12Z</time>
      </trkpt>
      <trkpt lat="49.247079994529486" lon="3.999467007815838">
        <ele>78.480000000000004</ele>
        <time>2018-07-10T10:26:13Z</time>
      </trkpt>
      <trkpt lat="49.247214021161199" lon="4.000344006344676">
        <ele>76.560000000000002</ele>
        <time>2018-07-10T10:26:21Z</time>
      </trkpt>
      <trkpt lat="49.24726297147572" lon="4.000771986320615">
        <ele>77.040000000000006</ele>
        <time>2018-07-10T10:26:25Z</time>
      </trkpt>
      <trkpt lat="49.247270012274384" lon="4.000872988253832">
        <ele>77.519999999999996</ele>
        <time>2018-07-10T10:26:26Z</time>
      </trkpt>
      <trkpt lat="49.247275963425636" lon="4.000978013500571">
        <ele>77.519999999999996</ele>
        <time>2018-07-10T10:26:27Z</time>
      </trkpt>
      <trkpt lat="49.247408984228969" lon="4.002467980608344">
        <ele>81.370000000000005</ele>
        <time>2018-07-10T10:26:38Z</time>
      </trkpt>
      <trkpt lat="49.247511997818947" lon="4.0033820271492">
        <ele>84.730000000000004</ele>
        <time>2018-07-10T10:26:46Z</time>
      </trkpt>
      <trkpt lat="49.247554996982217" lon="4.003841020166874">
        <ele>88.099999999999994</ele>
        <time>2018-07-10T10:26:55Z</time>
      </trkpt>
      <trkpt lat="49.247554996982217" lon="4.003841020166874">
        <ele>88.099999999999994</ele>
        <time>2018-07-10T10:27:25Z</time>
      </trkpt>
      <trkpt lat="49.247596990317106" lon="4.004300013184547">
        <ele>90.019999999999996</ele>
        <time>2018-07-10T10:27:38Z</time>
      </trkpt>
      <trkpt lat="49.247720958665013" lon="4.005700964480639">
        <ele>93.870000000000005</ele>
        <time>2018-07-10T10:27:48Z</time>
      </trkpt>
      <trkpt lat="49.247895972803235" lon="4.007425960153341">
        <ele>96.75</ele>
        <time>2018-07-10T10:27:59Z</time>
      </trkpt>
      <trkpt lat="49.248111974447966" lon="4.009188003838062">
        <ele>96.75</ele>
        <time>2018-07-10T10:28:11Z</time>
      </trkpt>
      <trkpt lat="49.248355971649289" lon="4.010877041146159">
        <ele>91.459999999999994</ele>
        <time>2018-07-10T10:28:22Z</time>
      </trkpt>
      <trkpt lat="49.248431995511055" lon="4.011406023055315">
        <ele>89.540000000000006</ele>
        <time>2018-07-10T10:28:26Z</time>
      </trkpt>
      <trkpt lat="49.248551018536091" lon="4.012280004099011">
        <ele>86.659999999999997</ele>
        <time>2018-07-10T10:28:34Z</time>
      </trkpt>
      <trkpt lat="49.248558981344104" lon="4.012332977727056">
        <ele>86.180000000000007</ele>
        <time>2018-07-10T10:28:35Z</time>
      </trkpt>
      <trkpt lat="49.248563004657626" lon="4.012368014082313">
        <ele>85.689999999999998</ele>
        <time>2018-07-10T10:28:36Z</time>
      </trkpt>
      <trkpt lat="49.248567027971148" lon="4.012395003810525">
        <ele>84.25</ele>
        <time>2018-07-10T10:28:48Z</time>
      </trkpt>
      <trkpt lat="49.248584965243936" lon="4.012528024613857">
        <ele>83.290000000000006</ele>
        <time>2018-07-10T10:29:02Z</time>
      </trkpt>
      <trkpt lat="49.248598041012883" lon="4.012618968263269">
        <ele>82.810000000000002</ele>
        <time>2018-07-10T10:29:03Z</time>
      </trkpt>
      <trkpt lat="49.248671969398856" lon="4.01309497654438">
        <ele>80.890000000000001</ele>
        <time>2018-07-10T10:29:07Z</time>
      </trkpt>
      <trkpt lat="49.248704994097352" lon="4.013227997347713">
        <ele>80.409999999999997</ele>
        <time>2018-07-10T10:29:08Z</time>
      </trkpt>
      <trkpt lat="49.248853018507361" lon="4.014186970889568">
        <ele>78.480000000000004</ele>
        <time>2018-07-10T10:29:15Z</time>
      </trkpt>
      <trkpt lat="49.24887296743691" lon="4.014315968379378">
        <ele>78.480000000000004</ele>
        <time>2018-07-10T10:29:16Z</time>
      </trkpt>
      <trkpt lat="49.248891994357109" lon="4.014448989182711">
        <ele>78</ele>
        <time>2018-07-10T10:29:17Z</time>
      </trkpt>
      <trkpt lat="49.24915099516511" lon="4.016003999859095">
        <ele>79.450000000000003</ele>
        <time>2018-07-10T10:29:28Z</time>
      </trkpt>
      <trkpt lat="49.249169016256928" lon="4.016140038147569">
        <ele>79.450000000000003</ele>
        <time>2018-07-10T10:29:29Z</time>
      </trkpt>
      <trkpt lat="49.249341012910008" lon="4.017078978940845">
        <ele>79.450000000000003</ele>
        <time>2018-07-10T10:29:36Z</time>
      </trkpt>
      <trkpt lat="49.249378982931376" lon="4.017214011400938">
        <ele>79.450000000000003</ele>
        <time>2018-07-10T10:29:37Z</time>
      </trkpt>
      <trkpt lat="49.249750971794128" lon="4.018371971324086">
        <ele>78.969999999999999</ele>
        <time>2018-07-10T10:29:47Z</time>
      </trkpt>
      <trkpt lat="49.250065041705966" lon="4.019290041178465">
        <ele>78</ele>
        <time>2018-07-10T10:29:57Z</time>
      </trkpt>
      <trkpt lat="49.250065041705966" lon="4.019290041178465">
        <ele>78</ele>
        <time>2018-07-10T10:30:07Z</time>
      </trkpt>
      <trkpt lat="49.25007401034236" lon="4.019316025078297">
        <ele>78.480000000000004</ele>
        <time>2018-07-10T10:30:57Z</time>
      </trkpt>
      <trkpt lat="49.250122038647532" lon="4.019450973719358">
        <ele>78.969999999999999</ele>
        <time>2018-07-10T10:30:59Z</time>
      </trkpt>
      <trkpt lat="49.25013997592032" lon="4.019514005631208">
        <ele>78.969999999999999</ele>
        <time>2018-07-10T10:31:00Z</time>
      </trkpt>
      <trkpt lat="49.250485980883241" lon="4.02065796777606">
        <ele>79.930000000000007</ele>
        <time>2018-07-10T10:31:09Z</time>
      </trkpt>
      <trkpt lat="49.251085035502911" lon="4.022277016192675">
        <ele>84.730000000000004</ele>
        <time>2018-07-10T10:31:21Z</time>
      </trkpt>
      <trkpt lat="49.251215038821101" lon="4.022644981741905">
        <ele>84.25</ele>
        <time>2018-07-10T10:31:24Z</time>
      </trkpt>
      <trkpt lat="49.251252003014088" lon="4.022767022252083">
        <ele>84.25</ele>
        <time>2018-07-10T10:31:25Z</time>
      </trkpt>
      <trkpt lat="49.251402961090207" lon="4.023104980587959">
        <ele>82.329999999999998</ele>
        <time>2018-07-10T10:31:31Z</time>
      </trkpt>
      <trkpt lat="49.251402961090207" lon="4.023104980587959">
        <ele>82.329999999999998</ele>
        <time>2018-07-10T10:31:46Z</time>
      </trkpt>
      <trkpt lat="49.251497006043792" lon="4.023232972249389">
        <ele>81.849999999999994</ele>
        <time>2018-07-10T10:31:58Z</time>
      </trkpt>
      <trkpt lat="49.251534976065159" lon="4.023243030533195">
        <ele>81.849999999999994</ele>
        <time>2018-07-10T10:31:59Z</time>
      </trkpt>
      <trkpt lat="49.25157998688519" lon="4.023254010826349">
        <ele>81.849999999999994</ele>
        <time>2018-07-10T10:32:00Z</time>
      </trkpt>
      <trkpt lat="49.251710996031761" lon="4.023257028311491">
        <ele>81.370000000000005</ele>
        <time>2018-07-10T10:32:03Z</time>
      </trkpt>
      <trkpt lat="49.25175198353827" lon="4.023248981684446">
        <ele>80.890000000000001</ele>
        <time>2018-07-10T10:32:04Z</time>
      </trkpt>
      <trkpt lat="49.251796994358301" lon="4.023199025541544">
        <ele>80.409999999999997</ele>
        <time>2018-07-10T10:32:05Z</time>
      </trkpt>
      <trkpt lat="49.251847034320235" lon="4.023142028599978">
        <ele>79.930000000000007</ele>
        <time>2018-07-10T10:32:06Z</time>
      </trkpt>
      <trkpt lat="49.251900007948279" lon="4.023082014173269">
        <ele>79.450000000000003</ele>
        <time>2018-07-10T10:32:07Z</time>
      </trkpt>
      <trkpt lat="49.251959016546607" lon="4.023014958947897">
        <ele>78.969999999999999</ele>
        <time>2018-07-10T10:32:08Z</time>
      </trkpt>
      <trkpt lat="49.252019030973315" lon="4.022945975884795">
        <ele>78.480000000000004</ele>
        <time>2018-07-10T10:32:09Z</time>
      </trkpt>
      <trkpt lat="49.252150962129235" lon="4.022797029465437">
        <ele>77.519999999999996</ele>
        <time>2018-07-10T10:32:11Z</time>
      </trkpt>
      <trkpt lat="49.252217011526227" lon="4.022722011432052">
        <ele>77.040000000000006</ele>
        <time>2018-07-10T10:32:12Z</time>
      </trkpt>
      <trkpt lat="49.252745993435383" lon="4.022095967084169">
        <ele>74.159999999999997</ele>
        <time>2018-07-10T10:32:21Z</time>
      </trkpt>
      <trkpt lat="49.252793015912175" lon="4.022036958485842">
        <ele>73.680000000000007</ele>
        <time>2018-07-10T10:32:23Z</time>
      </trkpt>
      <trkpt lat="49.252810031175613" lon="4.022014997899532">
        <ele>73.680000000000007</ele>
        <time>2018-07-10T10:32:24Z</time>
      </trkpt>
      <trkpt lat="49.252821011468768" lon="4.022001000121236">
        <ele>73.200000000000003</ele>
        <time>2018-07-10T10:32:25Z</time>
      </trkpt>
      <trkpt lat="49.252826040610671" lon="4.021994965150952">
        <ele>73.200000000000003</ele>
        <time>2018-07-10T10:32:37Z</time>
      </trkpt>
      <trkpt lat="49.252849007025361" lon="4.021965963765979">
        <ele>73.200000000000003</ele>
        <time>2018-07-10T10:32:38Z</time>
      </trkpt>
      <trkpt lat="49.252881025895476" lon="4.02192497625947">
        <ele>73.200000000000003</ele>
        <time>2018-07-10T10:32:39Z</time>
      </trkpt>
      <trkpt lat="49.25291396677494" lon="4.021883988752961">
        <ele>72.719999999999999</ele>
        <time>2018-07-10T10:32:40Z</time>
      </trkpt>
      <trkpt lat="49.253017986193299" lon="4.021876025944948">
        <ele>72.239999999999995</ele>
        <time>2018-07-10T10:32:41Z</time>
      </trkpt>
      <trkpt lat="49.253036007285118" lon="4.021882982924581">
        <ele>72.719999999999999</ele>
        <time>2018-07-10T10:32:42Z</time>
      </trkpt>
      <trkpt lat="49.253087975084782" lon="4.021903015673161">
        <ele>72.719999999999999</ele>
        <time>2018-07-10T10:32:43Z</time>
      </trkpt>
      <trkpt lat="49.253150001168251" lon="4.021925982087851">
        <ele>73.200000000000003</ele>
        <time>2018-07-10T10:32:44Z</time>
      </trkpt>
      <trkpt lat="49.253533976152539" lon="4.02207400649786">
        <ele>73.200000000000003</ele>
        <time>2018-07-10T10:32:49Z</time>
      </trkpt>
      <trkpt lat="49.253861038014293" lon="4.022199986502528">
        <ele>72.239999999999995</ele>
        <time>2018-07-10T10:32:53Z</time>
      </trkpt>
      <trkpt lat="49.253925997763872" lon="4.022224964573979">
        <ele>72.239999999999995</ele>
        <time>2018-07-10T10:32:54Z</time>
      </trkpt>
      <trkpt lat="49.253980983048677" lon="4.02224600315094">
        <ele>71.760000000000005</ele>
        <time>2018-07-10T10:32:55Z</time>
      </trkpt>
      <trkpt lat="49.254019958898425" lon="4.022261006757617">
        <ele>71.269999999999996</ele>
        <time>2018-07-10T10:32:56Z</time>
      </trkpt>
      <trkpt lat="49.254045020788908" lon="4.022270981222391">
        <ele>70.790000000000006</ele>
        <time>2018-07-10T10:32:57Z</time>
      </trkpt>
      <trkpt lat="49.254077039659023" lon="4.022282967343926">
        <ele>69.349999999999994</ele>
        <time>2018-07-10T10:33:09Z</time>
      </trkpt>
      <trkpt lat="49.254077039659023" lon="4.022282967343926">
        <ele>69.349999999999994</ele>
        <time>2018-07-10T10:33:15Z</time>
      </trkpt>
      <trkpt lat="49.254104029387236" lon="4.022293025627732">
        <ele>69.349999999999994</ele>
        <time>2018-07-10T10:33:16Z</time>
      </trkpt>
      <trkpt lat="49.254141999408603" lon="4.022308029234409">
        <ele>68.870000000000005</ele>
        <time>2018-07-10T10:33:17Z</time>
      </trkpt>
      <trkpt lat="49.254523040726781" lon="4.022478014230728">
        <ele>67.909999999999997</ele>
        <time>2018-07-10T10:33:24Z</time>
      </trkpt>
      <trkpt lat="49.254921013489366" lon="4.022713964805007">
        <ele>73.200000000000003</ele>
        <time>2018-07-10T10:33:31Z</time>
      </trkpt>
      <trkpt lat="49.254977004602551" lon="4.022765010595322">
        <ele>73.680000000000007</ele>
        <time>2018-07-10T10:33:32Z</time>
      </trkpt>
      <trkpt lat="49.255034001544118" lon="4.022827036678791">
        <ele>73.680000000000007</ele>
        <time>2018-07-10T10:33:33Z</time>
      </trkpt>
      <trkpt lat="49.255098039284348" lon="4.022897025570273">
        <ele>74.159999999999997</ele>
        <time>2018-07-10T10:33:34Z</time>
      </trkpt>
      <trkpt lat="49.255162999033928" lon="4.022969026118517">
        <ele>74.640000000000001</ele>
        <time>2018-07-10T10:33:35Z</time>
      </trkpt>
      <trkpt lat="49.255644958466291" lon="4.023618958890438">
        <ele>77.519999999999996</ele>
        <time>2018-07-10T10:33:45Z</time>
      </trkpt>
      <trkpt lat="49.255716959014535" lon="4.023716021329165">
        <ele>78.480000000000004</ele>
        <time>2018-07-10T10:33:47Z</time>
      </trkpt>
      <trkpt lat="49.255746966227889" lon="4.023757008835673">
        <ele>78.480000000000004</ele>
        <time>2018-07-10T10:33:48Z</time>
      </trkpt>
      <trkpt lat="49.255777979269624" lon="4.023797996342182">
        <ele>78.969999999999999</ele>
        <time>2018-07-10T10:33:49Z</time>
      </trkpt>
      <trkpt lat="49.255870012566447" lon="4.023921964690089">
        <ele>80.890000000000001</ele>
        <time>2018-07-10T10:33:58Z</time>
      </trkpt>
      <trkpt lat="49.256036980077624" lon="4.024147018790245">
        <ele>82.810000000000002</ele>
        <time>2018-07-10T10:34:19Z</time>
      </trkpt>
      <trkpt lat="49.256174024194479" lon="4.024318009614945">
        <ele>83.290000000000006</ele>
        <time>2018-07-10T10:34:22Z</time>
      </trkpt>
      <trkpt lat="49.256226997822523" lon="4.024384981021285">
        <ele>83.290000000000006</ele>
        <time>2018-07-10T10:34:23Z</time>
      </trkpt>
      <trkpt lat="49.25628500059247" lon="4.024456981569529">
        <ele>83.290000000000006</ele>
        <time>2018-07-10T10:34:24Z</time>
      </trkpt>
      <trkpt lat="49.256472000852227" lon="4.02469796128571">
        <ele>82.810000000000002</ele>
        <time>2018-07-10T10:34:27Z</time>
      </trkpt>
      <trkpt lat="49.256595969200134" lon="4.024856965988874">
        <ele>82.810000000000002</ele>
        <time>2018-07-10T10:34:29Z</time>
      </trkpt>
      <trkpt lat="49.256650032475591" lon="4.024926032871008">
        <ele>82.329999999999998</ele>
        <time>2018-07-10T10:34:30Z</time>
      </trkpt>
      <trkpt lat="49.256791016086936" lon="4.025106998160482">
        <ele>81.849999999999994</ele>
        <time>2018-07-10T10:34:33Z</time>
      </trkpt>
      <trkpt lat="49.256832003593445" lon="4.025160977616906">
        <ele>81.849999999999994</ele>
        <time>2018-07-10T10:34:34Z</time>
      </trkpt>
      <trkpt lat="49.256870979443192" lon="4.02521101757884">
        <ele>82.329999999999998</ele>
        <time>2018-07-10T10:34:35Z</time>
      </trkpt>
      <trkpt lat="49.256908027455211" lon="4.025256028398871">
        <ele>81.849999999999994</ele>
        <time>2018-07-10T10:34:36Z</time>
      </trkpt>
      <trkpt lat="49.256936023011804" lon="4.025290980935097">
        <ele>81.849999999999994</ele>
        <time>2018-07-10T10:34:37Z</time>
      </trkpt>
      <trkpt lat="49.256955971941352" lon="4.025315036997199">
        <ele>81.849999999999994</ele>
        <time>2018-07-10T10:34:38Z</time>
      </trkpt>
      <trkpt lat="49.25697198137641" lon="4.025333980098367">
        <ele>81.849999999999994</ele>
        <time>2018-07-10T10:34:39Z</time>
      </trkpt>
      <trkpt lat="49.257004000246525" lon="4.025373039767146">
        <ele>81.849999999999994</ele>
        <time>2018-07-10T10:34:51Z</time>
      </trkpt>
      <trkpt lat="49.257317986339331" lon="4.025744022801518">
        <ele>82.810000000000002</ele>
        <time>2018-07-10T10:35:00Z</time>
      </trkpt>
      <trkpt lat="49.25757204182446" lon="4.026078963652253">
        <ele>84.25</ele>
        <time>2018-07-10T10:35:05Z</time>
      </trkpt>
      <trkpt lat="49.257624009624124" lon="4.026144007220864">
        <ele>84.730000000000004</ele>
        <time>2018-07-10T10:35:06Z</time>
      </trkpt>
      <trkpt lat="49.257669020444155" lon="4.026201004162431">
        <ele>85.209999999999994</ele>
        <time>2018-07-10T10:35:07Z</time>
      </trkpt>
      <trkpt lat="49.257747977972031" lon="4.026437038555741">
        <ele>86.659999999999997</ele>
        <time>2018-07-10T10:35:10Z</time>
      </trkpt>
      <trkpt lat="49.257740015164018" lon="4.026509039103985">
        <ele>87.140000000000001</ele>
        <time>2018-07-10T10:35:11Z</time>
      </trkpt>
      <trkpt lat="49.257721994072199" lon="4.026682041585445">
        <ele>87.140000000000001</ele>
        <time>2018-07-10T10:35:13Z</time>
      </trkpt>
      <trkpt lat="49.257712019607425" lon="4.026780026033521">
        <ele>87.140000000000001</ele>
        <time>2018-07-10T10:35:14Z</time>
      </trkpt>
      <trkpt lat="49.257700033485889" lon="4.026895025745034">
        <ele>87.620000000000005</ele>
        <time>2018-07-10T10:35:15Z</time>
      </trkpt>
      <trkpt lat="49.257687041535974" lon="4.027013964951038">
        <ele>87.620000000000005</ele>
        <time>2018-07-10T10:35:16Z</time>
      </trkpt>
      <trkpt lat="49.257674971595407" lon="4.02712200768292">
        <ele>87.620000000000005</ele>
        <time>2018-07-10T10:35:17Z</time>
      </trkpt>
      <trkpt lat="49.257663991302252" lon="4.027233989909291">
        <ele>88.099999999999994</ele>
        <time>2018-07-10T10:35:18Z</time>
      </trkpt>
      <trkpt lat="49.257650999352336" lon="4.027349995449185">
        <ele>88.099999999999994</ele>
        <time>2018-07-10T10:35:19Z</time>
      </trkpt>
      <trkpt lat="49.257639013230801" lon="4.02746600098908">
        <ele>88.579999999999998</ele>
        <time>2018-07-10T10:35:20Z</time>
      </trkpt>
      <trkpt lat="49.257605988532305" lon="4.027774035930634">
        <ele>88.579999999999998</ele>
        <time>2018-07-10T10:35:23Z</time>
      </trkpt>
      <trkpt lat="49.257598025724292" lon="4.027850981801748">
        <ele>88.099999999999994</ele>
        <time>2018-07-10T10:35:24Z</time>
      </trkpt>
      <trkpt lat="49.257568018510938" lon="4.028263036161661">
        <ele>86.659999999999997</ele>
        <time>2018-07-10T10:35:31Z</time>
      </trkpt>
      <trkpt lat="49.257568018510938" lon="4.028364038094878">
        <ele>87.140000000000001</ele>
        <time>2018-07-10T10:35:32Z</time>
      </trkpt>
      <trkpt lat="49.257568018510938" lon="4.028445007279515">
        <ele>86.659999999999997</ele>
        <time>2018-07-10T10:35:33Z</time>
      </trkpt>
      <trkpt lat="49.257568018510938" lon="4.028522958979011">
        <ele>86.659999999999997</ele>
        <time>2018-07-10T10:35:34Z</time>
      </trkpt>
      <trkpt lat="49.257568018510938" lon="4.028598982840776">
        <ele>86.180000000000007</ele>
        <time>2018-07-10T10:35:35Z</time>
      </trkpt>
      <trkpt lat="49.257568018510938" lon="4.028677018359304">
        <ele>85.689999999999998</ele>
        <time>2018-07-10T10:35:36Z</time>
      </trkpt>
      <trkpt lat="49.257568018510938" lon="4.028814984485507">
        <ele>85.689999999999998</ele>
        <time>2018-07-10T10:35:38Z</time>
      </trkpt>
      <trkpt lat="49.257568018510938" lon="4.028874998912215">
        <ele>85.689999999999998</ele>
        <time>2018-07-10T10:35:39Z</time>
      </trkpt>
      <trkpt lat="49.257543962448835" lon="4.028962003067136">
        <ele>85.689999999999998</ele>
        <time>2018-07-10T10:35:40Z</time>
      </trkpt>
      <trkpt lat="49.257511021569371" lon="4.028969965875149">
        <ele>85.689999999999998</ele>
        <time>2018-07-10T10:35:41Z</time>
      </trkpt>
      <trkpt lat="49.257475985214114" lon="4.028977006673813">
        <ele>85.689999999999998</ele>
        <time>2018-07-10T10:35:42Z</time>
      </trkpt>
      <trkpt lat="49.257400967180729" lon="4.028994021937251">
        <ele>85.209999999999994</ele>
        <time>2018-07-10T10:35:45Z</time>
      </trkpt>
      <trkpt lat="49.257372971624136" lon="4.029049007222056">
        <ele>85.209999999999994</ele>
        <time>2018-07-10T10:35:46Z</time>
      </trkpt>
      <trkpt lat="49.257370959967375" lon="4.029104998335242">
        <ele>85.209999999999994</ele>
        <time>2018-07-10T10:35:47Z</time>
      </trkpt>
      <trkpt lat="49.257367020472884" lon="4.029237013310194">
        <ele>84.730000000000004</ele>
        <time>2018-07-10T10:35:49Z</time>
      </trkpt>
      <trkpt lat="49.257364002987742" lon="4.029305996373296">
        <ele>85.209999999999994</ele>
        <time>2018-07-10T10:35:50Z</time>
      </trkpt>
      <trkpt lat="49.257361991330981" lon="4.029380008578301">
        <ele>84.730000000000004</ele>
        <time>2018-07-10T10:35:51Z</time>
      </trkpt>
      <trkpt lat="49.25735997967422" lon="4.029434993863106">
        <ele>84.730000000000004</ele>
        <time>2018-07-10T10:35:52Z</time>
      </trkpt>
      <trkpt lat="49.25735897384584" lon="4.029478998854756">
        <ele>84.730000000000004</ele>
        <time>2018-07-10T10:35:53Z</time>
      </trkpt>
      <trkpt lat="49.257356962189078" lon="4.029526021331549">
        <ele>84.730000000000004</ele>
        <time>2018-07-10T10:35:54Z</time>
      </trkpt>
      <trkpt lat="49.25729401409626" lon="4.029715033248067">
        <ele>83.290000000000006</ele>
        <time>2018-07-10T10:35:59Z</time>
      </trkpt>
      <trkpt lat="49.257068959996104" lon="4.029905973002315">
        <ele>80.890000000000001</ele>
        <time>2018-07-10T10:36:06Z</time>
      </trkpt>
      <trkpt lat="49.256962006911635" lon="4.029997000470758">
        <ele>79.930000000000007</ele>
        <time>2018-07-10T10:36:09Z</time>
      </trkpt>
      <trkpt lat="49.256769977509975" lon="4.030159022659063">
        <ele>79.450000000000003</ele>
        <time>2018-07-10T10:36:15Z</time>
      </trkpt>
      <trkpt lat="49.256737036630511" lon="4.030188024044037">
        <ele>79.450000000000003</ele>
        <time>2018-07-10T10:36:16Z</time>
      </trkpt>
      <trkpt lat="49.256705017760396" lon="4.030215013772249">
        <ele>79.450000000000003</ele>
        <time>2018-07-10T10:36:17Z</time>
      </trkpt>
      <trkpt lat="49.25637099891901" lon="4.030512990429997">
        <ele>79.930000000000007</ele>
        <time>2018-07-10T10:36:27Z</time>
      </trkpt>
      <trkpt lat="49.256335962563753" lon="4.030542997643352">
        <ele>79.930000000000007</ele>
        <time>2018-07-10T10:36:28Z</time>
      </trkpt>
      <trkpt lat="49.25630402751267" lon="4.030571999028325">
        <ele>80.890000000000001</ele>
        <time>2018-07-10T10:36:29Z</time>
      </trkpt>
      <trkpt lat="49.256231021136045" lon="4.030637964606285">
        <ele>80.890000000000001</ele>
        <time>2018-07-10T10:36:31Z</time>
      </trkpt>
      <trkpt lat="49.256216017529368" lon="4.030651962384582">
        <ele>80.890000000000001</ele>
        <time>2018-07-10T10:36:32Z</time>
      </trkpt>
      <trkpt lat="49.255899013951421" lon="4.03092403896153">
        <ele>81.849999999999994</ele>
        <time>2018-07-10T10:36:40Z</time>
      </trkpt>
      <trkpt lat="49.255862971767783" lon="4.030955974012613">
        <ele>81.370000000000005</ele>
        <time>2018-07-10T10:36:41Z</time>
      </trkpt>
      <trkpt lat="49.255826007574797" lon="4.030986987054348">
        <ele>81.370000000000005</ele>
        <time>2018-07-10T10:36:42Z</time>
      </trkpt>
      <trkpt lat="49.255754007026553" lon="4.031050018966198">
        <ele>81.370000000000005</ele>
        <time>2018-07-10T10:36:44Z</time>
      </trkpt>
      <trkpt lat="49.255714025348425" lon="4.031083965674043">
        <ele>81.370000000000005</ele>
        <time>2018-07-10T10:36:45Z</time>
      </trkpt>
      <trkpt lat="49.255656022578478" lon="4.031134005635977">
        <ele>81.370000000000005</ele>
        <time>2018-07-10T10:36:47Z</time>
      </trkpt>
      <trkpt lat="49.255656022578478" lon="4.031134005635977">
        <ele>81.370000000000005</ele>
        <time>2018-07-10T10:36:57Z</time>
      </trkpt>
      <trkpt lat="49.255473967641592" lon="4.031289992853999">
        <ele>81.849999999999994</ele>
        <time>2018-07-10T10:37:13Z</time>
      </trkpt>
      <trkpt lat="49.255443038418889" lon="4.031316982582212">
        <ele>81.849999999999994</ele>
        <time>2018-07-10T10:37:27Z</time>
      </trkpt>
      <trkpt lat="49.255302976816893" lon="4.03144296258688">
        <ele>79.450000000000003</ele>
        <time>2018-07-10T10:38:08Z</time>
      </trkpt>
      <trkpt lat="49.255093010142446" lon="4.031630968675017">
        <ele>76.079999999999998</ele>
        <time>2018-07-10T10:38:17Z</time>
      </trkpt>
      <trkpt lat="49.255044981837273" lon="4.031730964779854">
        <ele>75.599999999999994</ele>
        <time>2018-07-10T10:38:20Z</time>
      </trkpt>
      <trkpt lat="49.255056967958808" lon="4.031788967549801">
        <ele>75.599999999999994</ele>
        <time>2018-07-10T10:38:21Z</time>
      </trkpt>
      <trkpt lat="49.255061997100711" lon="4.031803971156478">
        <ele>76.079999999999998</ele>
        <time>2018-07-10T10:38:22Z</time>
      </trkpt>
      <trkpt lat="49.255126034840941" lon="4.031816041097045">
        <ele>75.599999999999994</ele>
        <time>2018-07-10T10:38:23Z</time>
      </trkpt>
      <trkpt lat="49.255072977393866" lon="4.031839007511735">
        <ele>76.079999999999998</ele>
        <time>2018-07-10T10:38:24Z</time>
      </trkpt>
      <trkpt lat="49.255074989050627" lon="4.031844036653638">
        <ele>75.599999999999994</ele>
        <time>2018-07-10T10:38:25Z</time>
      </trkpt>
      <trkpt lat="49.255174985155463" lon="4.031776981428266">
        <ele>76.079999999999998</ele>
        <time>2018-07-10T10:38:26Z</time>
      </trkpt>
      <trkpt lat="49.255462987348437" lon="4.031545976176858">
        <ele>76.560000000000002</ele>
        <time>2018-07-10T10:38:37Z</time>
      </trkpt>
      <trkpt lat="49.255528030917048" lon="4.03157196007669">
        <ele>77.040000000000006</ele>
        <time>2018-07-10T10:38:38Z</time>
      </trkpt>
      <trkpt lat="49.255541022866964" lon="4.031609008088708">
        <ele>77.040000000000006</ele>
        <time>2018-07-10T10:38:39Z</time>
      </trkpt>
      <trkpt lat="49.255556026473641" lon="4.031654018908739">
        <ele>77.519999999999996</ele>
        <time>2018-07-10T10:38:40Z</time>
      </trkpt>
      <trkpt lat="49.25557304173708" lon="4.031704980880022">
        <ele>78</ele>
        <time>2018-07-10T10:38:41Z</time>
      </trkpt>
      <trkpt lat="49.255593996495008" lon="4.03176499530673">
        <ele>78</ele>
        <time>2018-07-10T10:38:42Z</time>
      </trkpt>
      <trkpt lat="49.255615035071969" lon="4.03182802721858">
        <ele>78</ele>
        <time>2018-07-10T10:38:43Z</time>
      </trkpt>
      <trkpt lat="49.255638001486659" lon="4.031894998624921">
        <ele>78.480000000000004</ele>
        <time>2018-07-10T10:38:44Z</time>
      </trkpt>
      <trkpt lat="49.255863977596164" lon="4.032563036307693">
        <ele>80.409999999999997</ele>
        <time>2018-07-10T10:38:53Z</time>
      </trkpt>
      <trkpt lat="49.255979983136058" lon="4.032905017957091">
        <ele>81.370000000000005</ele>
        <time>2018-07-10T10:39:01Z</time>
      </trkpt>
      <trkpt lat="49.255979983136058" lon="4.032905017957091">
        <ele>81.370000000000005</ele>
        <time>2018-07-10T10:39:34Z</time>
      </trkpt>
      <trkpt lat="49.255979983136058" lon="4.032905017957091">
        <ele>81.849999999999994</ele>
        <time>2018-07-10T10:40:20Z</time>
      </trkpt>
      <trkpt lat="49.256036980077624" lon="4.033108027651906">
        <ele>83.290000000000006</ele>
        <time>2018-07-10T10:40:33Z</time>
      </trkpt>
      <trkpt lat="49.256015019491315" lon="4.033141974359751">
        <ele>83.290000000000006</ele>
        <time>2018-07-10T10:40:34Z</time>
      </trkpt>
      <trkpt lat="49.255980988964438" lon="4.033193020150065">
        <ele>83.290000000000006</ele>
        <time>2018-07-10T10:40:35Z</time>
      </trkpt>
      <trkpt lat="49.255935978144407" lon="4.033244987949729">
        <ele>83.290000000000006</ele>
        <time>2018-07-10T10:40:36Z</time>
      </trkpt>
      <trkpt lat="49.255905970931053" lon="4.03326996602118">
        <ele>82.810000000000002</ele>
        <time>2018-07-10T10:40:37Z</time>
      </trkpt>
      <trkpt lat="49.255774039775133" lon="4.033379014581442">
        <ele>78.480000000000004</ele>
        <time>2018-07-10T10:40:51Z</time>
      </trkpt>
      <trkpt lat="49.255678988993168" lon="4.033455960452557">
        <ele>77.519999999999996</ele>
        <time>2018-07-10T10:41:03Z</time>
      </trkpt>
      <trkpt lat="49.25536198541522" lon="4.033757038414478">
        <ele>76.560000000000002</ele>
        <time>2018-07-10T10:41:10Z</time>
      </trkpt>
      <trkpt lat="49.255139026790857" lon="4.033958036452532">
        <ele>77.040000000000006</ele>
        <time>2018-07-10T10:41:15Z</time>
      </trkpt>
      <trkpt lat="49.254850018769503" lon="4.034227011725307">
        <ele>78.969999999999999</ele>
        <time>2018-07-10T10:41:22Z</time>
      </trkpt>
      <trkpt lat="49.254775000736117" lon="4.034303035587072">
        <ele>79.450000000000003</ele>
        <time>2018-07-10T10:41:24Z</time>
      </trkpt>
      <trkpt lat="49.25473996438086" lon="4.034337988123298">
        <ele>79.930000000000007</ele>
        <time>2018-07-10T10:41:25Z</time>
      </trkpt>
      <trkpt lat="49.254708029329777" lon="4.034370006993413">
        <ele>79.930000000000007</ele>
        <time>2018-07-10T10:41:26Z</time>
      </trkpt>
      <trkpt lat="49.254592023789883" lon="4.034558013081551">
        <ele>79.930000000000007</ele>
        <time>2018-07-10T10:41:35Z</time>
      </trkpt>
      <trkpt lat="49.254563022404909" lon="4.034621967002749">
        <ele>81.370000000000005</ele>
        <time>2018-07-10T10:41:41Z</time>
      </trkpt>
      <trkpt lat="49.254465959966183" lon="4.03453697450459">
        <ele>81.370000000000005</ele>
        <time>2018-07-10T10:41:42Z</time>
      </trkpt>
      <trkpt lat="49.254450034350157" lon="4.034521970897913">
        <ele>81.370000000000005</ele>
        <time>2018-07-10T10:41:43Z</time>
      </trkpt>
      <trkpt lat="49.25439203158021" lon="4.034472014755011">
        <ele>81.370000000000005</ele>
        <time>2018-07-10T10:41:44Z</time>
      </trkpt>
      <trkpt lat="49.25439203158021" lon="4.034472014755011">
        <ele>81.370000000000005</ele>
        <time>2018-07-10T10:41:45Z</time>
      </trkpt>
      <trkpt lat="49.25439203158021" lon="4.034472014755011">
        <ele>81.370000000000005</ele>
        <time>2018-07-10T10:41:46Z</time>
      </trkpt>
      <trkpt lat="49.25439203158021" lon="4.034472014755011">
        <ele>81.370000000000005</ele>
        <time>2018-07-10T10:41:48Z</time>
      </trkpt>
      <trkpt lat="49.25439203158021" lon="4.034472014755011">
        <ele>81.370000000000005</ele>
        <time>2018-07-10T10:41:49Z</time>
      </trkpt>
      <trkpt lat="49.254381973296404" lon="4.034444019198418">
        <ele>81.370000000000005</ele>
        <time>2018-07-10T10:41:50Z</time>
      </trkpt>
      <trkpt lat="49.254381973296404" lon="4.034444019198418">
        <ele>81.849999999999994</ele>
        <time>2018-07-10T10:42:04Z</time>
      </trkpt>
      <trkpt lat="49.254381973296404" lon="4.034444019198418">
        <ele>82.329999999999998</ele>
        <time>2018-07-10T10:42:43Z</time>
      </trkpt>
      <trkpt lat="49.254294969141483" lon="4.034789018332958">
        <ele>91.459999999999994</ele>
        <time>2018-07-10T11:26:24Z</time>
      </trkpt>
      <trkpt lat="49.254322964698076" lon="4.034582991153002">
        <ele>85.209999999999994</ele>
        <time>2018-07-10T11:26:42Z</time>
      </trkpt>
      <trkpt lat="49.254364036023617" lon="4.034545021131635">
        <ele>90.019999999999996</ele>
        <time>2018-07-10T11:27:11Z</time>
      </trkpt>
      <trkpt lat="49.254443999379873" lon="4.034517025575042">
        <ele>89.540000000000006</ele>
        <time>2018-07-10T11:27:14Z</time>
      </trkpt>
      <trkpt lat="49.254465037956834" lon="4.034535968676209">
        <ele>89.540000000000006</ele>
        <time>2018-07-10T11:27:15Z</time>
      </trkpt>
      <trkpt lat="49.254484986886382" lon="4.034552983939648">
        <ele>89.060000000000002</ele>
        <time>2018-07-10T11:27:16Z</time>
      </trkpt>
      <trkpt lat="49.254670981317759" lon="4.035051958635449">
        <ele>87.620000000000005</ele>
        <time>2018-07-10T11:27:27Z</time>
      </trkpt>
      <trkpt lat="49.254940040409565" lon="4.035176010802388">
        <ele>87.620000000000005</ele>
        <time>2018-07-10T11:27:37Z</time>
      </trkpt>
      <trkpt lat="49.255096027627587" lon="4.035037038847804">
        <ele>88.099999999999994</ele>
        <time>2018-07-10T11:27:41Z</time>
      </trkpt>
      <trkpt lat="49.255127040669322" lon="4.035008959472179">
        <ele>88.099999999999994</ele>
        <time>2018-07-10T11:27:42Z</time>
      </trkpt>
      <trkpt lat="49.255153024569154" lon="4.034985993057489">
        <ele>87.620000000000005</ele>
        <time>2018-07-10T11:27:43Z</time>
      </trkpt>
      <trkpt lat="49.255180014297366" lon="4.034962020814419">
        <ele>88.099999999999994</ele>
        <time>2018-07-10T11:27:44Z</time>
      </trkpt>
      <trkpt lat="49.255204992368817" lon="4.034939976409078">
        <ele>88.099999999999994</ele>
        <time>2018-07-10T11:27:45Z</time>
      </trkpt>
      <trkpt lat="49.255230976268649" lon="4.034916004166007">
        <ele>88.099999999999994</ele>
        <time>2018-07-10T11:27:46Z</time>
      </trkpt>
      <trkpt lat="49.25525201484561" lon="4.034896977245808">
        <ele>88.099999999999994</ele>
        <time>2018-07-10T11:27:47Z</time>
      </trkpt>
      <trkpt lat="49.255287973210216" lon="4.034864958375692">
        <ele>87.620000000000005</ele>
        <time>2018-07-10T11:27:49Z</time>
      </trkpt>
      <trkpt lat="49.255302976816893" lon="4.034851966425777">
        <ele>87.140000000000001</ele>
        <time>2018-07-10T11:27:50Z</time>
      </trkpt>
      <trkpt lat="49.255314962938428" lon="4.034841991961002">
        <ele>86.659999999999997</ele>
        <time>2018-07-10T11:27:51Z</time>
      </trkpt>
      <trkpt lat="49.255331978201866" lon="4.034825982525945">
        <ele>86.659999999999997</ele>
        <time>2018-07-10T11:27:52Z</time>
      </trkpt>
      <trkpt lat="49.255464999005198" lon="4.034707965329289">
        <ele>86.180000000000007</ele>
        <time>2018-07-10T11:27:53Z</time>
      </trkpt>
      <trkpt lat="49.255464999005198" lon="4.034707965329289">
        <ele>85.209999999999994</ele>
        <time>2018-07-10T11:27:54Z</time>
      </trkpt>
      <trkpt lat="49.25568301230669" lon="4.034504033625126">
        <ele>84.25</ele>
        <time>2018-07-10T11:28:01Z</time>
      </trkpt>
      <trkpt lat="49.255694998428226" lon="4.034540997818112">
        <ele>84.25</ele>
        <time>2018-07-10T11:28:02Z</time>
      </trkpt>
      <trkpt lat="49.255713019520044" lon="4.034593971446157">
        <ele>84.25</ele>
        <time>2018-07-10T11:28:03Z</time>
      </trkpt>
      <trkpt lat="49.255731962621212" lon="4.034651974216104">
        <ele>83.769999999999996</ele>
        <time>2018-07-10T11:28:04Z</time>
      </trkpt>
      <trkpt lat="49.255756018683314" lon="4.034721963107586">
        <ele>83.290000000000006</ele>
        <time>2018-07-10T11:28:05Z</time>
      </trkpt>
      <trkpt lat="49.255779990926385" lon="4.034795975312591">
        <ele>82.810000000000002</ele>
        <time>2018-07-10T11:28:06Z</time>
      </trkpt>
      <trkpt lat="49.255805974826217" lon="4.034874010831118">
        <ele>82.810000000000002</ele>
        <time>2018-07-10T11:28:07Z</time>
      </trkpt>
      <trkpt lat="49.25583397038281" lon="4.034956991672516">
        <ele>82.810000000000002</ele>
        <time>2018-07-10T11:28:08Z</time>
      </trkpt>
      <trkpt lat="49.255863977596164" lon="4.035042989999056">
        <ele>82.810000000000002</ele>
        <time>2018-07-10T11:28:09Z</time>
      </trkpt>
      <trkpt lat="49.256216017529368" lon="4.035973967984319">
        <ele>81.370000000000005</ele>
        <time>2018-07-10T11:28:18Z</time>
      </trkpt>
      <trkpt lat="49.256223980337381" lon="4.035997018218041">
        <ele>81.849999999999994</ele>
        <time>2018-07-10T11:28:19Z</time>
      </trkpt>
      <trkpt lat="49.256260022521019" lon="4.036098020151258">
        <ele>82.329999999999998</ele>
        <time>2018-07-10T11:28:20Z</time>
      </trkpt>
      <trkpt lat="49.256294975057244" lon="4.036198016256094">
        <ele>82.810000000000002</ele>
        <time>2018-07-10T11:28:21Z</time>
      </trkpt>
      <trkpt lat="49.256332023069263" lon="4.036303963512182">
        <ele>83.290000000000006</ele>
        <time>2018-07-10T11:28:22Z</time>
      </trkpt>
      <trkpt lat="49.256401006132364" lon="4.036504961550236">
        <ele>84.25</ele>
        <time>2018-07-10T11:28:24Z</time>
      </trkpt>
      <trkpt lat="49.25643696449697" lon="4.036604035645723">
        <ele>84.730000000000004</ele>
        <time>2018-07-10T11:28:25Z</time>
      </trkpt>
      <trkpt lat="49.256473006680608" lon="4.036703025922179">
        <ele>85.689999999999998</ele>
        <time>2018-07-10T11:28:26Z</time>
      </trkpt>
      <trkpt lat="49.256643997505307" lon="4.037174005061388">
        <ele>87.620000000000005</ele>
        <time>2018-07-10T11:28:31Z</time>
      </trkpt>
      <trkpt lat="49.256677022203803" lon="4.03726402670145">
        <ele>87.620000000000005</ele>
        <time>2018-07-10T11:28:32Z</time>
      </trkpt>
      <trkpt lat="49.256740976125002" lon="4.037441974505782">
        <ele>88.579999999999998</ele>
        <time>2018-07-10T11:28:34Z</time>
      </trkpt>
      <trkpt lat="49.256797973066568" lon="4.037583963945508">
        <ele>89.060000000000002</ele>
        <time>2018-07-10T11:28:36Z</time>
      </trkpt>
      <trkpt lat="49.25682001747191" lon="4.037637021392584">
        <ele>89.540000000000006</ele>
        <time>2018-07-10T11:28:37Z</time>
      </trkpt>
      <trkpt lat="49.256841978058219" lon="4.037687983363867">
        <ele>89.540000000000006</ele>
        <time>2018-07-10T11:28:38Z</time>
      </trkpt>
      <trkpt lat="49.256858993321657" lon="4.037728970870376">
        <ele>90.019999999999996</ele>
        <time>2018-07-10T11:28:39Z</time>
      </trkpt>
      <trkpt lat="49.256873996928334" lon="4.037763001397252">
        <ele>90.019999999999996</ele>
        <time>2018-07-10T11:28:40Z</time>
      </trkpt>
      <trkpt lat="49.256883971393108" lon="4.037787979468703">
        <ele>90.5</ele>
        <time>2018-07-10T11:28:51Z</time>
      </trkpt>
      <trkpt lat="49.256987990811467" lon="4.038033988326788">
        <ele>90.5</ele>
        <time>2018-07-10T11:29:00Z</time>
      </trkpt>
      <trkpt lat="49.257256966084242" lon="4.038785006850958">
        <ele>91.939999999999998</ele>
        <time>2018-07-10T11:29:11Z</time>
      </trkpt>
      <trkpt lat="49.257279010489583" lon="4.038847032934427">
        <ele>91.939999999999998</ele>
        <time>2018-07-10T11:29:12Z</time>
      </trkpt>
      <trkpt lat="49.257257971912622" lon="4.038994973525405">
        <ele>91.459999999999994</ele>
        <time>2018-07-10T11:29:13Z</time>
      </trkpt>
      <trkpt lat="49.257181026041508" lon="4.039084995165467">
        <ele>90.980000000000004</ele>
        <time>2018-07-10T11:29:14Z</time>
      </trkpt>
      <trkpt lat="49.257179014384747" lon="4.039107039570808">
        <ele>90.5</ele>
        <time>2018-07-10T11:29:15Z</time>
      </trkpt>
      <trkpt lat="49.257169961929321" lon="4.039193037897348">
        <ele>90.019999999999996</ele>
        <time>2018-07-10T11:29:16Z</time>
      </trkpt>
      <trkpt lat="49.25718697719276" lon="4.039337961003184">
        <ele>90.5</ele>
        <time>2018-07-10T11:29:17Z</time>
      </trkpt>
      <trkpt lat="49.257233999669552" lon="4.039403004571796">
        <ele>90.5</ele>
        <time>2018-07-10T11:29:18Z</time>
      </trkpt>
      <trkpt lat="49.257267024368048" lon="4.039450027048588">
        <ele>90.5</ele>
        <time>2018-07-10T11:29:19Z</time>
      </trkpt>
      <trkpt lat="49.257369032129645" lon="4.039423959329724">
        <ele>90.5</ele>
        <time>2018-07-10T11:29:20Z</time>
      </trkpt>
      <trkpt lat="49.257465004920959" lon="4.039463018998504">
        <ele>90.5</ele>
        <time>2018-07-10T11:29:21Z</time>
      </trkpt>
      <trkpt lat="49.257496017962694" lon="4.039527978748083">
        <ele>90.5</ele>
        <time>2018-07-10T11:29:22Z</time>
      </trkpt>
      <trkpt lat="49.257529964670539" lon="4.039600985124707">
        <ele>90.5</ele>
        <time>2018-07-10T11:29:23Z</time>
      </trkpt>
      <trkpt lat="49.257570030167699" lon="4.039684971794486">
        <ele>90.5</ele>
        <time>2018-07-10T11:29:24Z</time>
      </trkpt>
      <trkpt lat="49.257612023502588" lon="4.03977700509131">
        <ele>90.5</ele>
        <time>2018-07-10T11:29:25Z</time>
      </trkpt>
      <trkpt lat="49.257646976038814" lon="4.039871972054243">
        <ele>90.5</ele>
        <time>2018-07-10T11:29:26Z</time>
      </trkpt>
      <trkpt lat="49.257868006825447" lon="4.0404889639467">
        <ele>90.019999999999996</ele>
        <time>2018-07-10T11:29:32Z</time>
      </trkpt>
      <trkpt lat="49.257904971018434" lon="4.040591977536678">
        <ele>90.019999999999996</ele>
        <time>2018-07-10T11:29:33Z</time>
      </trkpt>
      <trkpt lat="49.257943024858832" lon="4.040699014440179">
        <ele>90.019999999999996</ele>
        <time>2018-07-10T11:29:34Z</time>
      </trkpt>
      <trkpt lat="49.258072022348642" lon="4.041085001081228">
        <ele>90.5</ele>
        <time>2018-07-10T11:29:38Z</time>
      </trkpt>
      <trkpt lat="49.25809096544981" lon="4.041145015507937">
        <ele>90.5</ele>
        <time>2018-07-10T11:29:39Z</time>
      </trkpt>
      <trkpt lat="49.257997004315257" lon="4.041294967755675">
        <ele>90.980000000000004</ele>
        <time>2018-07-10T11:29:40Z</time>
      </trkpt>
      <trkpt lat="49.257997004315257" lon="4.041294967755675">
        <ele>91.459999999999994</ele>
        <time>2018-07-10T11:29:41Z</time>
      </trkpt>
      <trkpt lat="49.257972026243806" lon="4.041362022981048">
        <ele>91.939999999999998</ele>
        <time>2018-07-10T11:29:42Z</time>
      </trkpt>
      <trkpt lat="49.257892984896898" lon="4.041594034060836">
        <ele>92.420000000000002</ele>
        <time>2018-07-10T11:29:45Z</time>
      </trkpt>
      <trkpt lat="49.257796006277204" lon="4.041940961033106">
        <ele>92.900000000000006</ele>
        <time>2018-07-10T11:29:49Z</time>
      </trkpt>
      <trkpt lat="49.257749989628792" lon="4.042108012363315">
        <ele>93.870000000000005</ele>
        <time>2018-07-10T11:29:51Z</time>
      </trkpt>
      <trkpt lat="49.257498029619455" lon="4.043212998658419">
        <ele>96.75</ele>
        <time>2018-07-10T11:30:02Z</time>
      </trkpt>
      <trkpt lat="49.257344976067543" lon="4.044610010460019">
        <ele>99.629999999999995</ele>
        <time>2018-07-10T11:30:15Z</time>
      </trkpt>
      <trkpt lat="49.257339024916291" lon="4.044684022665024">
        <ele>99.629999999999995</ele>
        <time>2018-07-10T11:30:16Z</time>
      </trkpt>
      <trkpt lat="49.257333995774388" lon="4.044745964929462">
        <ele>99.629999999999995</ele>
        <time>2018-07-10T11:30:17Z</time>
      </trkpt>
      <trkpt lat="49.257313041016459" lon="4.044919973239303">
        <ele>99.150000000000006</ele>
        <time>2018-07-10T11:30:26Z</time>
      </trkpt>
      <trkpt lat="49.257281022146344" lon="4.045225996524096">
        <ele>99.629999999999995</ele>
        <time>2018-07-10T11:30:52Z</time>
      </trkpt>
      <trkpt lat="49.257275993004441" lon="4.045806024223566">
        <ele>101.08</ele>
        <time>2018-07-10T11:30:57Z</time>
      </trkpt>
      <trkpt lat="49.257284961640835" lon="4.046160997822881">
        <ele>101.08</ele>
        <time>2018-07-10T11:31:00Z</time>
      </trkpt>
      <trkpt lat="49.257307006046176" lon="4.047031039372087">
        <ele>103.48</ele>
        <time>2018-07-10T11:31:08Z</time>
      </trkpt>
      <trkpt lat="49.257326032966375" lon="4.047603020444512">
        <ele>103.95999999999999</ele>
        <time>2018-07-10T11:31:18Z</time>
      </trkpt>
      <trkpt lat="49.257328966632485" lon="4.047713996842504">
        <ele>103.95999999999999</ele>
        <time>2018-07-10T11:31:38Z</time>
      </trkpt>
      <trkpt lat="49.257333995774388" lon="4.047795971855521">
        <ele>103.95999999999999</ele>
        <time>2018-07-10T11:31:39Z</time>
      </trkpt>
      <trkpt lat="49.257344976067543" lon="4.047881970182061">
        <ele>103.48</ele>
        <time>2018-07-10T11:31:40Z</time>
      </trkpt>
      <trkpt lat="49.257369032129645" lon="4.048058995977044">
        <ele>103</ele>
        <time>2018-07-10T11:31:42Z</time>
      </trkpt>
      <trkpt lat="49.25750900991261" lon="4.049306977540255">
        <ele>100.59999999999999</ele>
        <time>2018-07-10T11:31:52Z</time>
      </trkpt>
      <trkpt lat="49.257625015452504" lon="4.050506008788943">
        <ele>101.08</ele>
        <time>2018-07-10T11:32:01Z</time>
      </trkpt>
      <trkpt lat="49.257702967151999" lon="4.051434975117445">
        <ele>103</ele>
        <time>2018-07-10T11:32:08Z</time>
      </trkpt>
      <trkpt lat="49.257716964930296" lon="4.05157595872879">
        <ele>103</ele>
        <time>2018-07-10T11:32:09Z</time>
      </trkpt>
      <trkpt lat="49.25783297047019" lon="4.052869034931064">
        <ele>105.88</ele>
        <time>2018-07-10T11:32:18Z</time>
      </trkpt>
      <trkpt lat="49.257850991562009" lon="4.053025022149086">
        <ele>106.36</ele>
        <time>2018-07-10T11:32:19Z</time>
      </trkpt>
      <trkpt lat="49.257914023473859" lon="4.053698005154729">
        <ele>108.29000000000001</ele>
        <time>2018-07-10T11:32:24Z</time>
      </trkpt>
      <trkpt lat="49.257923997938633" lon="4.05389497987926">
        <ele>109.73</ele>
        <time>2018-07-10T11:32:26Z</time>
      </trkpt>
      <trkpt lat="49.257928021252155" lon="4.053981984034181">
        <ele>110.69</ele>
        <time>2018-07-10T11:32:27Z</time>
      </trkpt>
      <trkpt lat="49.257931960746646" lon="4.054050967097282">
        <ele>111.65000000000001</ele>
        <time>2018-07-10T11:32:28Z</time>
      </trkpt>
      <trkpt lat="49.258007984608412" lon="4.054039986804128">
        <ele>112.13</ele>
        <time>2018-07-10T11:32:29Z</time>
      </trkpt>
      <trkpt lat="49.258046038448811" lon="4.054029006510973">
        <ele>112.61</ele>
        <time>2018-07-10T11:32:30Z</time>
      </trkpt>
      <trkpt lat="49.258092977106571" lon="4.054015008732677">
        <ele>113.09</ele>
        <time>2018-07-10T11:32:31Z</time>
      </trkpt>
      <trkpt lat="49.258149974048138" lon="4.053997993469238">
        <ele>113.56999999999999</ele>
        <time>2018-07-10T11:32:32Z</time>
      </trkpt>
      <trkpt lat="49.258212000131607" lon="4.053978966549039">
        <ele>114.05</ele>
        <time>2018-07-10T11:32:33Z</time>
      </trkpt>
      <trkpt lat="49.258430013433099" lon="4.05391400679946">
        <ele>115.5</ele>
        <time>2018-07-10T11:32:36Z</time>
      </trkpt>
      <trkpt lat="49.258506037294865" lon="4.053891962394118">
        <ele>115.98</ele>
        <time>2018-07-10T11:32:37Z</time>
      </trkpt>
      <trkpt lat="49.258724972605705" lon="4.053825996816158">
        <ele>116.94</ele>
        <time>2018-07-10T11:32:40Z</time>
      </trkpt>
      <trkpt lat="49.25879898481071" lon="4.053804036229849">
        <ele>117.42</ele>
        <time>2018-07-10T11:32:41Z</time>
      </trkpt>
      <trkpt lat="49.259628960862756" lon="4.053557021543384">
        <ele>115.5</ele>
        <time>2018-07-10T11:32:52Z</time>
      </trkpt>
      <trkpt lat="49.259806992486119" lon="4.053503964096308">
        <ele>114.05</ele>
        <time>2018-07-10T11:32:55Z</time>
      </trkpt>
      <trkpt lat="49.260007990524173" lon="4.053531959652901">
        <ele>110.20999999999999</ele>
        <time>2018-07-10T11:33:00Z</time>
      </trkpt>
      <trkpt lat="49.260034980252385" lon="4.053563978523016">
        <ele>109.25</ele>
        <time>2018-07-10T11:33:01Z</time>
      </trkpt>
      <trkpt lat="49.260040009394288" lon="4.05367998406291">
        <ele>108.77</ele>
        <time>2018-07-10T11:33:02Z</time>
      </trkpt>
      <trkpt lat="49.26002399995923" lon="4.053767994046211">
        <ele>108.29000000000001</ele>
        <time>2018-07-10T11:33:03Z</time>
      </trkpt>
      <trkpt lat="49.260005978867412" lon="4.053862961009145">
        <ele>107.81</ele>
        <time>2018-07-10T11:33:04Z</time>
      </trkpt>
      <trkpt lat="49.25993699580431" lon="4.05432203784585">
        <ele>106.84</ele>
        <time>2018-07-10T11:33:08Z</time>
      </trkpt>
      <trkpt lat="49.259921992197633" lon="4.054454974830151">
        <ele>107.31999999999999</ele>
        <time>2018-07-10T11:33:09Z</time>
      </trkpt>
      <trkpt lat="49.259896008297801" lon="4.054586989805102">
        <ele>107.81</ele>
        <time>2018-07-10T11:33:10Z</time>
      </trkpt>
      <trkpt lat="49.259870024397969" lon="4.054719004780054">
        <ele>108.77</ele>
        <time>2018-07-10T11:33:11Z</time>
      </trkpt>
      <trkpt lat="49.259843034669757" lon="4.054851019755006">
        <ele>110.20999999999999</ele>
        <time>2018-07-10T11:33:12Z</time>
      </trkpt>
      <trkpt lat="49.259816966950893" lon="4.054983034729958">
        <ele>111.65000000000001</ele>
        <time>2018-07-10T11:33:13Z</time>
      </trkpt>
      <trkpt lat="49.259769022464752" lon="4.055238012224436">
        <ele>112.61</ele>
        <time>2018-07-10T11:33:15Z</time>
      </trkpt>
      <trkpt lat="49.259695010259748" lon="4.055743021890521">
        <ele>113.09</ele>
        <time>2018-07-10T11:33:19Z</time>
      </trkpt>
      <trkpt lat="49.259677994996309" lon="4.055856009945273">
        <ele>113.56999999999999</ele>
        <time>2018-07-10T11:33:20Z</time>
      </trkpt>
      <trkpt lat="49.259644970297813" lon="4.056051978841424">
        <ele>114.05</ele>
        <time>2018-07-10T11:33:22Z</time>
      </trkpt>
      <trkpt lat="49.259629966691136" lon="4.056142000481486">
        <ele>114.53</ele>
        <time>2018-07-10T11:33:23Z</time>
      </trkpt>
      <trkpt lat="49.259501975029707" lon="4.056382980197668">
        <ele>116.45999999999999</ele>
        <time>2018-07-10T11:33:30Z</time>
      </trkpt>
      <trkpt lat="49.259415976703167" lon="4.0563640370965">
        <ele>115.98</ele>
        <time>2018-07-10T11:33:35Z</time>
      </trkpt>
      <trkpt lat="49.259398961439729" lon="4.056360013782978">
        <ele>115.98</ele>
        <time>2018-07-10T11:33:36Z</time>
      </trkpt>
      <trkpt lat="49.259387981146574" lon="4.056358002126217">
        <ele>115.98</ele>
        <time>2018-07-10T11:33:37Z</time>
      </trkpt>
      <trkpt lat="49.259365014731884" lon="4.056352972984314">
        <ele>115.01000000000001</ele>
        <time>2018-07-10T11:33:44Z</time>
      </trkpt>
      <trkpt lat="49.259351016953588" lon="4.056349033489823">
        <ele>115.01000000000001</ele>
        <time>2018-07-10T11:33:45Z</time>
      </trkpt>
      <trkpt lat="49.259329978376627" lon="4.056345010176301">
        <ele>115.01000000000001</ele>
        <time>2018-07-10T11:33:46Z</time>
      </trkpt>
      <trkpt lat="49.259303994476795" lon="4.056338975206018">
        <ele>114.53</ele>
        <time>2018-07-10T11:33:47Z</time>
      </trkpt>
      <trkpt lat="49.259279016405344" lon="4.056333024054766">
        <ele>114.53</ele>
        <time>2018-07-10T11:33:48Z</time>
      </trkpt>
      <trkpt lat="49.259279016405344" lon="4.056333024054766">
        <ele>114.53</ele>
        <time>2018-07-10T11:33:49Z</time>
      </trkpt>
      <trkpt lat="49.259279016405344" lon="4.056333024054766">
        <ele>114.53</ele>
        <time>2018-07-10T11:34:08Z</time>
      </trkpt>
      <trkpt lat="49.259279016405344" lon="4.056333024054766">
        <ele>114.53</ele>
        <time>2018-07-10T11:34:31Z</time>
      </trkpt>
      <trkpt lat="49.259835993871093" lon="4.055476980283856">
        <ele>117.90000000000001</ele>
        <time>2018-07-10T11:42:54Z</time>
      </trkpt>
      <trkpt lat="49.259141972288489" lon="4.05619497410953">
        <ele>121.26000000000001</ele>
        <time>2018-07-10T11:43:16Z</time>
      </trkpt>
      <trkpt lat="49.259048011153936" lon="4.056124985218048">
        <ele>125.11</ele>
        <time>2018-07-10T11:43:49Z</time>
      </trkpt>
      <trkpt lat="49.259036025032401" lon="4.056266974657774">
        <ele>124.63</ele>
        <time>2018-07-10T11:44:12Z</time>
      </trkpt>
      <trkpt lat="49.258872997015715" lon="4.056241996586323">
        <ele>127.51000000000001</ele>
        <time>2018-07-10T11:44:18Z</time>
      </trkpt>
      <trkpt lat="49.258869979530573" lon="4.056241996586323">
        <ele>127.03</ele>
        <time>2018-07-10T11:44:19Z</time>
      </trkpt>
      <trkpt lat="49.258874002844095" lon="4.056243002414703">
        <ele>119.81999999999999</ele>
        <time>2018-07-10T11:44:30Z</time>
      </trkpt>
      <trkpt lat="49.258942985907197" lon="4.056252976879478">
        <ele>117.90000000000001</ele>
        <time>2018-07-10T11:44:35Z</time>
      </trkpt>
      <trkpt lat="49.258894035592675" lon="4.056245014071465">
        <ele>117.42</ele>
        <time>2018-07-10T11:44:36Z</time>
      </trkpt>
      <trkpt lat="49.258809965103865" lon="4.056233027949929">
        <ele>116.94</ele>
        <time>2018-07-10T11:44:37Z</time>
      </trkpt>
      <trkpt lat="49.258019970729947" lon="4.056061031296849">
        <ele>112.61</ele>
        <time>2018-07-10T11:44:46Z</time>
      </trkpt>
      <trkpt lat="49.257960040122271" lon="4.056047033518553">
        <ele>111.65000000000001</ele>
        <time>2018-07-10T11:44:47Z</time>
      </trkpt>
      <trkpt lat="49.257902959361672" lon="4.056108975782991">
        <ele>111.17</ele>
        <time>2018-07-10T11:44:48Z</time>
      </trkpt>
      <trkpt lat="49.257894996553659" lon="4.056179970502853">
        <ele>110.69</ele>
        <time>2018-07-10T11:44:49Z</time>
      </trkpt>
      <trkpt lat="49.257885022088885" lon="4.056276027113199">
        <ele>110.69</ele>
        <time>2018-07-10T11:44:50Z</time>
      </trkpt>
      <trkpt lat="49.257871024310589" lon="4.056404018774629">
        <ele>110.20999999999999</ele>
        <time>2018-07-10T11:44:51Z</time>
      </trkpt>
      <trkpt lat="49.257857026532292" lon="4.056534022092819">
        <ele>109.73</ele>
        <time>2018-07-10T11:44:52Z</time>
      </trkpt>
      <trkpt lat="49.257842022925615" lon="4.056670982390642">
        <ele>109.25</ele>
        <time>2018-07-10T11:44:53Z</time>
      </trkpt>
      <trkpt lat="49.257827019318938" lon="4.056810960173607">
        <ele>109.25</ele>
        <time>2018-07-10T11:44:54Z</time>
      </trkpt>
      <trkpt lat="49.257664997130632" lon="4.058309979736805">
        <ele>106.84</ele>
        <time>2018-07-10T11:45:04Z</time>
      </trkpt>
      <trkpt lat="49.257653011009097" lon="4.058438977226615">
        <ele>106.84</ele>
        <time>2018-07-10T11:45:05Z</time>
      </trkpt>
      <trkpt lat="49.257642030715942" lon="4.058560011908412">
        <ele>106.36</ele>
        <time>2018-07-10T11:45:06Z</time>
      </trkpt>
      <trkpt lat="49.257511021569371" lon="4.060075040906668">
        <ele>105.88</ele>
        <time>2018-07-10T11:45:16Z</time>
      </trkpt>
      <trkpt lat="49.257497023791075" lon="4.060235973447561">
        <ele>105.88</ele>
        <time>2018-07-10T11:45:17Z</time>
      </trkpt>
      <trkpt lat="49.257405996322632" lon="4.061022028326988">
        <ele>105.40000000000001</ele>
        <time>2018-07-10T11:45:22Z</time>
      </trkpt>
      <trkpt lat="49.257288984954357" lon="4.062252994626761">
        <ele>104.92</ele>
        <time>2018-07-10T11:45:31Z</time>
      </trkpt>
      <trkpt lat="49.257288984954357" lon="4.062522975727916">
        <ele>103.48</ele>
        <time>2018-07-10T11:45:38Z</time>
      </trkpt>
      <trkpt lat="49.257288984954357" lon="4.062850037589669">
        <ele>102.52</ele>
        <time>2018-07-10T11:45:49Z</time>
      </trkpt>
      <trkpt lat="49.257288984954357" lon="4.06296000815928">
        <ele>102.52</ele>
        <time>2018-07-10T11:45:50Z</time>
      </trkpt>
      <trkpt lat="49.257364002987742" lon="4.064256018027663">
        <ele>104.44</ele>
        <time>2018-07-10T11:45:58Z</time>
      </trkpt>
      <trkpt lat="49.257725011557341" lon="4.06661200337112">
        <ele>108.29000000000001</ele>
        <time>2018-07-10T11:46:09Z</time>
      </trkpt>
      <trkpt lat="49.257952999323606" lon="4.068913003429771">
        <ele>105.40000000000001</ele>
        <time>2018-07-10T11:46:20Z</time>
      </trkpt>
      <trkpt lat="49.258276959881186" lon="4.071453977376223">
        <ele>101.56</ele>
        <time>2018-07-10T11:46:32Z</time>
      </trkpt>
      <trkpt lat="49.258610978722572" lon="4.073972990736365">
        <ele>102.52</ele>
        <time>2018-07-10T11:46:45Z</time>
      </trkpt>
      <trkpt lat="49.258930999785662" lon="4.076512036845088">
        <ele>103.95999999999999</ele>
        <time>2018-07-10T11:46:58Z</time>
      </trkpt>
      <trkpt lat="49.259287985041738" lon="4.079260965809226">
        <ele>106.84</ele>
        <time>2018-07-10T11:47:11Z</time>
      </trkpt>
      <trkpt lat="49.259624015539885" lon="4.082006039097905">
        <ele>109.73</ele>
        <time>2018-07-10T11:47:20Z</time>
      </trkpt>
      <trkpt lat="49.260164983570576" lon="4.086199002340436">
        <ele>117.90000000000001</ele>
        <time>2018-07-10T11:47:34Z</time>
      </trkpt>
      <trkpt lat="49.261035025119781" lon="4.093193029984832">
        <ele>119.34</ele>
        <time>2018-07-10T11:47:57Z</time>
      </trkpt>
      <trkpt lat="49.261237028986216" lon="4.094811994582415">
        <ele>118.38</ele>
        <time>2018-07-10T11:48:04Z</time>
      </trkpt>
      <trkpt lat="49.261335013434291" lon="4.09568103030324">
        <ele>117.90000000000001</ele>
        <time>2018-07-10T11:48:10Z</time>
      </trkpt>
      <trkpt lat="49.261341970413923" lon="4.09615402109921">
        <ele>117.90000000000001</ele>
        <time>2018-07-10T11:48:14Z</time>
      </trkpt>
      <trkpt lat="49.261414976790547" lon="4.096258962526918">
        <ele>118.38</ele>
        <time>2018-07-10T11:48:15Z</time>
      </trkpt>
      <trkpt lat="49.261427968740463" lon="4.096397012472153">
        <ele>118.38</ele>
        <time>2018-07-10T11:48:16Z</time>
      </trkpt>
      <trkpt lat="49.261440960690379" lon="4.096543025225401">
        <ele>118.86</ele>
        <time>2018-07-10T11:48:17Z</time>
      </trkpt>
      <trkpt lat="49.261455964297056" lon="4.096691971644759">
        <ele>118.86</ele>
        <time>2018-07-10T11:48:18Z</time>
      </trkpt>
      <trkpt lat="49.261701973155141" lon="4.098620982840657">
        <ele>118.38</ele>
        <time>2018-07-10T11:48:31Z</time>
      </trkpt>
      <trkpt lat="49.261800041422248" lon="4.099338976666331">
        <ele>117.90000000000001</ele>
        <time>2018-07-10T11:48:36Z</time>
      </trkpt>
      <trkpt lat="49.261819990351796" lon="4.09948498941958">
        <ele>117.90000000000001</ele>
        <time>2018-07-10T11:48:37Z</time>
      </trkpt>
      <trkpt lat="49.26206398755312" lon="4.101359015330672">
        <ele>119.34</ele>
        <time>2018-07-10T11:48:50Z</time>
      </trkpt>
      <trkpt lat="49.262081002816558" lon="4.101507961750031">
        <ele>119.81999999999999</ele>
        <time>2018-07-10T11:48:51Z</time>
      </trkpt>
      <trkpt lat="49.262098018079996" lon="4.10165598616004">
        <ele>119.81999999999999</ele>
        <time>2018-07-10T11:48:52Z</time>
      </trkpt>
      <trkpt lat="49.262341009452939" lon="4.103457005694509">
        <ele>122.22</ele>
        <time>2018-07-10T11:49:04Z</time>
      </trkpt>
      <trkpt lat="49.262375039979815" lon="4.103595977649093">
        <ele>123.19</ele>
        <time>2018-07-10T11:49:05Z</time>
      </trkpt>
      <trkpt lat="49.262660024687648" lon="4.1045540291816">
        <ele>128.47</ele>
        <time>2018-07-10T11:49:14Z</time>
      </trkpt>
      <trkpt lat="49.262765971943736" lon="4.104907996952534">
        <ele>133.28</ele>
        <time>2018-07-10T11:49:24Z</time>
      </trkpt>
      <trkpt lat="49.262821041047573" lon="4.105130033567548">
        <ele>135.19999999999999</ele>
        <time>2018-07-10T11:49:37Z</time>
      </trkpt>
      <trkpt lat="49.263154976069927" lon="4.106387989595532">
        <ele>139.05000000000001</ele>
        <time>2018-07-10T11:49:47Z</time>
      </trkpt>
      <trkpt lat="49.26361002959311" lon="4.107964960858226">
        <ele>143.37</ele>
        <time>2018-07-10T11:49:58Z</time>
      </trkpt>
      <trkpt lat="49.263972966000438" lon="4.10986103117466">
        <ele>148.18000000000001</ele>
        <time>2018-07-10T11:50:08Z</time>
      </trkpt>
      <trkpt lat="49.264417961239815" lon="4.111895989626646">
        <ele>152.03</ele>
        <time>2018-07-10T11:50:17Z</time>
      </trkpt>
      <trkpt lat="49.265300994738936" lon="4.114652965217829">
        <ele>153.94999999999999</ele>
        <time>2018-07-10T11:50:28Z</time>
      </trkpt>
      <trkpt lat="49.266178999096155" lon="4.11759601905942">
        <ele>163.56</ele>
        <time>2018-07-10T11:50:40Z</time>
      </trkpt>
      <trkpt lat="49.266221998259425" lon="4.117868011817336">
        <ele>164.52000000000001</ele>
        <time>2018-07-10T11:50:41Z</time>
      </trkpt>
      <trkpt lat="49.266417967155576" lon="4.119872963055968">
        <ele>171.72999999999999</ele>
        <time>2018-07-10T11:50:48Z</time>
      </trkpt>
      <trkpt lat="49.266410004347563" lon="4.120568996295333">
        <ele>176.06</ele>
        <time>2018-07-10T11:50:51Z</time>
      </trkpt>
      <trkpt lat="49.266354013234377" lon="4.120800001546741">
        <ele>177.5</ele>
        <time>2018-07-10T11:50:52Z</time>
      </trkpt>
      <trkpt lat="49.266205988824368" lon="4.121289001777768">
        <ele>180.87</ele>
        <time>2018-07-10T11:50:54Z</time>
      </trkpt>
      <trkpt lat="49.266127031296492" lon="4.121548002585769">
        <ele>182.31</ele>
        <time>2018-07-10T11:50:55Z</time>
      </trkpt>
      <trkpt lat="49.265409037470818" lon="4.123718999326229">
        <ele>191.44</ele>
        <time>2018-07-10T11:51:03Z</time>
      </trkpt>
      <trkpt lat="49.265163028612733" lon="4.124630028381944">
        <ele>194.80000000000001</ele>
        <time>2018-07-10T11:51:07Z</time>
      </trkpt>
      <trkpt lat="49.265136038884521" lon="4.124854998663068">
        <ele>195.28</ele>
        <time>2018-07-10T11:51:08Z</time>
      </trkpt>
      <trkpt lat="49.265142995864153" lon="4.125086003914475">
        <ele>195.77000000000001</ele>
        <time>2018-07-10T11:51:09Z</time>
      </trkpt>
      <trkpt lat="49.265184989199042" lon="4.125279961153865">
        <ele>196.25</ele>
        <time>2018-07-10T11:51:10Z</time>
      </trkpt>
      <trkpt lat="49.265277022495866" lon="4.125474002212286">
        <ele>196.72999999999999</ele>
        <time>2018-07-10T11:51:11Z</time>
      </trkpt>
      <trkpt lat="49.265364026650786" lon="4.125657984986901">
        <ele>197.21000000000001</ele>
        <time>2018-07-10T11:51:12Z</time>
      </trkpt>
      <trkpt lat="49.265482965856791" lon="4.125793017446995">
        <ele>197.21000000000001</ele>
        <time>2018-07-10T11:51:13Z</time>
      </trkpt>
      <trkpt lat="49.265620009973645" lon="4.125918997451663">
        <ele>197.69</ele>
        <time>2018-07-10T11:51:14Z</time>
      </trkpt>
      <trkpt lat="49.265770968049765" lon="4.126035002991557">
        <ele>197.69</ele>
        <time>2018-07-10T11:51:15Z</time>
      </trkpt>
      <trkpt lat="49.267206033691764" lon="4.127138983458281">
        <ele>198.65000000000001</ele>
        <time>2018-07-10T11:51:24Z</time>
      </trkpt>
      <trkpt lat="49.268515035510063" lon="4.128164006397128">
        <ele>200.09</ele>
        <time>2018-07-10T11:51:33Z</time>
      </trkpt>
      <trkpt lat="49.268800020217896" lon="4.128398029133678">
        <ele>201.05000000000001</ele>
        <time>2018-07-10T11:51:35Z</time>
      </trkpt>
      <trkpt lat="49.268933041021228" lon="4.128553010523319">
        <ele>201.05000000000001</ele>
        <time>2018-07-10T11:51:36Z</time>
      </trkpt>
      <trkpt lat="49.2690259963274" lon="4.12874897941947">
        <ele>201.05000000000001</ele>
        <time>2018-07-10T11:51:37Z</time>
      </trkpt>
      <trkpt lat="49.269613986834884" lon="4.129986986517906">
        <ele>202.00999999999999</ele>
        <time>2018-07-10T11:51:43Z</time>
      </trkpt>
      <trkpt lat="49.269709037616849" lon="4.13018798455596">
        <ele>202.00999999999999</ele>
        <time>2018-07-10T11:51:44Z</time>
      </trkpt>
      <trkpt lat="49.270011959597468" lon="4.130927016958594">
        <ele>202.00999999999999</ele>
        <time>2018-07-10T11:51:48Z</time>
      </trkpt>
      <trkpt lat="49.270042972639203" lon="4.131119968369603">
        <ele>201.53</ele>
        <time>2018-07-10T11:51:49Z</time>
      </trkpt>
      <trkpt lat="49.270046995952725" lon="4.13130403496325">
        <ele>201.05000000000001</ele>
        <time>2018-07-10T11:51:50Z</time>
      </trkpt>
      <trkpt lat="49.270026963204145" lon="4.13147896528244">
        <ele>201.05000000000001</ele>
        <time>2018-07-10T11:51:51Z</time>
      </trkpt>
      <trkpt lat="49.26999100483954" lon="4.131675017997623">
        <ele>200.56999999999999</ele>
        <time>2018-07-10T11:51:52Z</time>
      </trkpt>
      <trkpt lat="49.26992797292769" lon="4.131800998002291">
        <ele>200.09</ele>
        <time>2018-07-10T11:51:53Z</time>
      </trkpt>
      <trkpt lat="49.269853038713336" lon="4.131952039897442">
        <ele>199.61000000000001</ele>
        <time>2018-07-10T11:51:54Z</time>
      </trkpt>
      <trkpt lat="49.269739966839552" lon="4.132051030173898">
        <ele>198.65000000000001</ele>
        <time>2018-07-10T11:51:55Z</time>
      </trkpt>
      <trkpt lat="49.269622033461928" lon="4.132139962166548">
        <ele>198.16999999999999</ele>
        <time>2018-07-10T11:51:56Z</time>
      </trkpt>
      <trkpt lat="49.269502004608512" lon="4.13222897797823">
        <ele>197.21000000000001</ele>
        <time>2018-07-10T11:51:57Z</time>
      </trkpt>
      <trkpt lat="49.269381975755095" lon="4.132312964648008">
        <ele>196.25</ele>
        <time>2018-07-10T11:51:58Z</time>
      </trkpt>
      <trkpt lat="49.26926102489233" lon="4.132380019873381">
        <ele>195.77000000000001</ele>
        <time>2018-07-10T11:51:59Z</time>
      </trkpt>
      <trkpt lat="49.268712010234594" lon="4.132682019844651">
        <ele>192.40000000000001</ele>
        <time>2018-07-10T11:52:04Z</time>
      </trkpt>
      <trkpt lat="49.268444962799549" lon="4.132927022874355">
        <ele>190.47999999999999</ele>
        <time>2018-07-10T11:52:07Z</time>
      </trkpt>
      <trkpt lat="49.268370028585196" lon="4.133036993443966">
        <ele>190</ele>
        <time>2018-07-10T11:52:08Z</time>
      </trkpt>
      <trkpt lat="49.268302973359823" lon="4.133166996762157">
        <ele>189.52000000000001</ele>
        <time>2018-07-10T11:52:09Z</time>
      </trkpt>
      <trkpt lat="49.268263997510076" lon="4.133315021172166">
        <ele>188.56</ele>
        <time>2018-07-10T11:52:10Z</time>
      </trkpt>
      <trkpt lat="49.268225021660328" lon="4.133459022268653">
        <ele>188.08000000000001</ele>
        <time>2018-07-10T11:52:11Z</time>
      </trkpt>
      <trkpt lat="49.268186967819929" lon="4.133602017536759">
        <ele>187.59</ele>
        <time>2018-07-10T11:52:12Z</time>
      </trkpt>
      <trkpt lat="49.268148997798562" lon="4.133744006976485">
        <ele>187.59</ele>
        <time>2018-07-10T11:52:13Z</time>
      </trkpt>
      <trkpt lat="49.268130976706743" lon="4.133899994194508">
        <ele>187.11000000000001</ele>
        <time>2018-07-10T11:52:14Z</time>
      </trkpt>
      <trkpt lat="49.268114967271686" lon="4.134051958099008">
        <ele>186.63</ele>
        <time>2018-07-10T11:52:15Z</time>
      </trkpt>
      <trkpt lat="49.268113039433956" lon="4.134224960580468">
        <ele>185.66999999999999</ele>
        <time>2018-07-10T11:52:16Z</time>
      </trkpt>
      <trkpt lat="49.268352007493377" lon="4.135691961273551">
        <ele>182.78999999999999</ele>
        <time>2018-07-10T11:52:24Z</time>
      </trkpt>
      <trkpt lat="49.26840397529304" lon="4.135922966524959">
        <ele>182.78999999999999</ele>
        <time>2018-07-10T11:52:25Z</time>
      </trkpt>
      <trkpt lat="49.26895902492106" lon="4.137660032138228">
        <ele>181.34999999999999</ele>
        <time>2018-07-10T11:52:33Z</time>
      </trkpt>
      <trkpt lat="49.269019961357117" lon="4.137910986319184">
        <ele>181.83000000000001</ele>
        <time>2018-07-10T11:52:34Z</time>
      </trkpt>
      <trkpt lat="49.269081987440586" lon="4.138163030147553">
        <ele>181.83000000000001</ele>
        <time>2018-07-10T11:52:35Z</time>
      </trkpt>
      <trkpt lat="49.269108977168798" lon="4.138426976278424">
        <ele>181.83000000000001</ele>
        <time>2018-07-10T11:52:36Z</time>
      </trkpt>
      <trkpt lat="49.269130015745759" lon="4.138696035370231">
        <ele>181.83000000000001</ele>
        <time>2018-07-10T11:52:37Z</time>
      </trkpt>
      <trkpt lat="49.269311986863613" lon="4.141071969643235">
        <ele>182.31</ele>
        <time>2018-07-10T11:52:47Z</time>
      </trkpt>
      <trkpt lat="49.269447019323707" lon="4.142667967826128">
        <ele>182.31</ele>
        <time>2018-07-10T11:52:57Z</time>
      </trkpt>
      <trkpt lat="49.269816996529698" lon="4.144756989553571">
        <ele>176.53999999999999</ele>
        <time>2018-07-10T11:53:10Z</time>
      </trkpt>
      <trkpt lat="49.270362993702292" lon="4.147037034854293">
        <ele>169.33000000000001</ele>
        <time>2018-07-10T11:53:25Z</time>
      </trkpt>
      <trkpt lat="49.270413033664227" lon="4.147343980148435">
        <ele>168.84999999999999</ele>
        <time>2018-07-10T11:53:27Z</time>
      </trkpt>
      <trkpt lat="49.270519986748695" lon="4.148274958133698">
        <ele>168.84999999999999</ele>
        <time>2018-07-10T11:53:33Z</time>
      </trkpt>
      <trkpt lat="49.270570026710629" lon="4.148804023861885">
        <ele>169.33000000000001</ele>
        <time>2018-07-10T11:53:37Z</time>
      </trkpt>
      <trkpt lat="49.270583018660545" lon="4.148939978331327">
        <ele>169.33000000000001</ele>
        <time>2018-07-10T11:53:38Z</time>
      </trkpt>
      <trkpt lat="49.270662982016802" lon="4.149428978562355">
        <ele>168.84999999999999</ele>
        <time>2018-07-10T11:53:42Z</time>
      </trkpt>
      <trkpt lat="49.27070296369493" lon="4.149540038779378">
        <ele>168.37</ele>
        <time>2018-07-10T11:53:43Z</time>
      </trkpt>
      <trkpt lat="49.270744035020471" lon="4.149654032662511">
        <ele>167.88999999999999</ele>
        <time>2018-07-10T11:53:44Z</time>
      </trkpt>
      <trkpt lat="49.271245021373034" lon="4.151046015322208">
        <ele>165.47999999999999</ele>
        <time>2018-07-10T11:53:56Z</time>
      </trkpt>
      <trkpt lat="49.271444007754326" lon="4.151597041636705">
        <ele>167.41</ele>
        <time>2018-07-10T11:54:01Z</time>
      </trkpt>
      <trkpt lat="49.271536963060498" lon="4.151851013302803">
        <ele>168.84999999999999</ele>
        <time>2018-07-10T11:54:03Z</time>
      </trkpt>
      <trkpt lat="49.271911969408393" lon="4.15261703543365">
        <ele>171.72999999999999</ele>
        <time>2018-07-10T11:54:09Z</time>
      </trkpt>
      <trkpt lat="49.271971983835101" lon="4.15274896658957">
        <ele>171.72999999999999</ele>
        <time>2018-07-10T11:54:10Z</time>
      </trkpt>
      <trkpt lat="49.27201297134161" lon="4.152904031798244">
        <ele>172.21000000000001</ele>
        <time>2018-07-10T11:54:11Z</time>
      </trkpt>
      <trkpt lat="49.272054964676499" lon="4.153066975995898">
        <ele>172.69</ele>
        <time>2018-07-10T11:54:12Z</time>
      </trkpt>
      <trkpt lat="49.272086983546615" lon="4.153226986527443">
        <ele>172.69</ele>
        <time>2018-07-10T11:54:13Z</time>
      </trkpt>
      <trkpt lat="49.272149009630084" lon="4.153544995933771">
        <ele>171.72999999999999</ele>
        <time>2018-07-10T11:54:15Z</time>
      </trkpt>
      <trkpt lat="49.272212041541934" lon="4.153869962319732">
        <ele>170.28999999999999</ele>
        <time>2018-07-10T11:54:17Z</time>
      </trkpt>
      <trkpt lat="49.272759966552258" lon="4.155321037396789">
        <ele>163.08000000000001</ele>
        <time>2018-07-10T11:54:27Z</time>
      </trkpt>
      <trkpt lat="49.273449964821339" lon="4.156991969794035">
        <ele>159.24000000000001</ele>
        <time>2018-07-10T11:54:38Z</time>
      </trkpt>
      <trkpt lat="49.273529006168246" lon="4.157406035810709">
        <ele>158.27000000000001</ele>
        <time>2018-07-10T11:54:40Z</time>
      </trkpt>
      <trkpt lat="49.273767974227667" lon="4.159659007564187">
        <ele>151.53999999999999</ele>
        <time>2018-07-10T11:54:49Z</time>
      </trkpt>
      <trkpt lat="49.274070980027318" lon="4.163036998361349">
        <ele>144.81999999999999</ele>
        <time>2018-07-10T11:55:00Z</time>
      </trkpt>
      <trkpt lat="49.274515975266695" lon="4.16782901622355">
        <ele>149.62</ele>
        <time>2018-07-10T11:55:15Z</time>
      </trkpt>
      <trkpt lat="49.274874972179532" lon="4.17148201726377">
        <ele>154.43000000000001</ele>
        <time>2018-07-10T11:55:27Z</time>
      </trkpt>
      <trkpt lat="49.274943033233285" lon="4.172081993892789">
        <ele>155.38999999999999</ele>
        <time>2018-07-10T11:55:29Z</time>
      </trkpt>
      <trkpt lat="49.275013022124767" lon="4.172379970550537">
        <ele>155.87</ele>
        <time>2018-07-10T11:55:30Z</time>
      </trkpt>
      <trkpt lat="49.275123998522758" lon="4.172618016600609">
        <ele>156.34999999999999</ele>
        <time>2018-07-10T11:55:31Z</time>
      </trkpt>
      <trkpt lat="49.275257019326091" lon="4.172849021852016">
        <ele>156.34999999999999</ele>
        <time>2018-07-10T11:55:32Z</time>
      </trkpt>
      <trkpt lat="49.275401020422578" lon="4.173056976869702">
        <ele>156.34999999999999</ele>
        <time>2018-07-10T11:55:33Z</time>
      </trkpt>
      <trkpt lat="49.275546027347445" lon="4.173267027363181">
        <ele>156.34999999999999</ele>
        <time>2018-07-10T11:55:34Z</time>
      </trkpt>
      <trkpt lat="49.275936959311366" lon="4.173972029238939">
        <ele>155.87</ele>
        <time>2018-07-10T11:55:37Z</time>
      </trkpt>
      <trkpt lat="49.276045002043247" lon="4.174233041703701">
        <ele>155.38999999999999</ele>
        <time>2018-07-10T11:55:38Z</time>
      </trkpt>
      <trkpt lat="49.276137035340071" lon="4.174508973956108">
        <ele>154.43000000000001</ele>
        <time>2018-07-10T11:55:39Z</time>
      </trkpt>
      <trkpt lat="49.276210041716695" lon="4.174798987805843">
        <ele>153.94999999999999</ele>
        <time>2018-07-10T11:55:40Z</time>
      </trkpt>
      <trkpt lat="49.276271983981133" lon="4.175097970291972">
        <ele>152.99000000000001</ele>
        <time>2018-07-10T11:55:41Z</time>
      </trkpt>
      <trkpt lat="49.277216959744692" lon="4.179827040061355">
        <ele>133.75999999999999</ele>
        <time>2018-07-10T11:55:57Z</time>
      </trkpt>
      <trkpt lat="49.277964038774371" lon="4.18364298529923">
        <ele>117.90000000000001</ele>
        <time>2018-07-10T11:56:10Z</time>
      </trkpt>
      <trkpt lat="49.279126022011042" lon="4.189477963373065">
        <ele>115.5</ele>
        <time>2018-07-10T11:56:30Z</time>
      </trkpt>
      <trkpt lat="49.280062029138207" lon="4.194199992343783">
        <ele>113.09</ele>
        <time>2018-07-10T11:56:46Z</time>
      </trkpt>
      <trkpt lat="49.280680026859045" lon="4.19743599370122">
        <ele>105.40000000000001</ele>
        <time>2018-07-10T11:56:57Z</time>
      </trkpt>
      <trkpt lat="49.281460968777537" lon="4.201343972235918">
        <ele>101.08</ele>
        <time>2018-07-10T11:57:10Z</time>
      </trkpt>
      <trkpt lat="49.282291028648615" lon="4.205567026510835">
        <ele>99.629999999999995</ele>
        <time>2018-07-10T11:57:24Z</time>
      </trkpt>
      <trkpt lat="49.282885976135731" lon="4.208593983203173">
        <ele>99.150000000000006</ele>
        <time>2018-07-10T11:57:34Z</time>
      </trkpt>
      <trkpt lat="49.28389398381114" lon="4.213725971058011">
        <ele>98.189999999999998</ele>
        <time>2018-07-10T11:57:51Z</time>
      </trkpt>
      <trkpt lat="49.285023026168346" lon="4.219470005482435">
        <ele>99.150000000000006</ele>
        <time>2018-07-10T11:58:10Z</time>
      </trkpt>
      <trkpt lat="49.286345019936562" lon="4.226089026778936">
        <ele>100.11</ele>
        <time>2018-07-10T11:58:32Z</time>
      </trkpt>
      <trkpt lat="49.287100983783603" lon="4.228335963562131">
        <ele>99.629999999999995</ele>
        <time>2018-07-10T11:58:40Z</time>
      </trkpt>
      <trkpt lat="49.287893995642662" lon="4.230451975017786">
        <ele>97.709999999999994</ele>
        <time>2018-07-10T11:58:49Z</time>
      </trkpt>
      <trkpt lat="49.288672003895044" lon="4.232521969825029">
        <ele>95.790000000000006</ele>
        <time>2018-07-10T11:59:00Z</time>
      </trkpt>
      <trkpt lat="49.289523018524051" lon="4.234806038439274">
        <ele>94.349999999999994</ele>
        <time>2018-07-10T11:59:15Z</time>
      </trkpt>
      <trkpt lat="49.290212010964751" lon="4.236613009124994">
        <ele>96.269999999999996</ele>
        <time>2018-07-10T11:59:27Z</time>
      </trkpt>
      <trkpt lat="49.290484003722668" lon="4.237904995679855">
        <ele>95.310000000000002</ele>
        <time>2018-07-10T11:59:35Z</time>
      </trkpt>
      <trkpt lat="49.290484003722668" lon="4.238040028139949">
        <ele>95.310000000000002</ele>
        <time>2018-07-10T11:59:36Z</time>
      </trkpt>
      <trkpt lat="49.290441004559398" lon="4.238169025629759">
        <ele>95.310000000000002</ele>
        <time>2018-07-10T11:59:37Z</time>
      </trkpt>
      <trkpt lat="49.289886960759759" lon="4.239235036075115">
        <ele>96.269999999999996</ele>
        <time>2018-07-10T11:59:45Z</time>
      </trkpt>
      <trkpt lat="49.289685040712357" lon="4.239658992737532">
        <ele>96.269999999999996</ele>
        <time>2018-07-10T11:59:48Z</time>
      </trkpt>
      <trkpt lat="49.289084980264306" lon="4.241018034517765">
        <ele>97.709999999999994</ele>
        <time>2018-07-10T11:59:58Z</time>
      </trkpt>
      <trkpt lat="49.288445021957159" lon="4.242525016888976">
        <ele>96.269999999999996</ele>
        <time>2018-07-10T12:00:07Z</time>
      </trkpt>
      <trkpt lat="49.288022993132472" lon="4.243572000414133">
        <ele>95.790000000000006</ele>
        <time>2018-07-10T12:00:12Z</time>
      </trkpt>
      <trkpt lat="49.287939006462693" lon="4.243806023150682">
        <ele>95.790000000000006</ele>
        <time>2018-07-10T12:00:13Z</time>
      </trkpt>
      <trkpt lat="49.287903970107436" lon="4.24407902173698">
        <ele>96.269999999999996</ele>
        <time>2018-07-10T12:00:14Z</time>
      </trkpt>
      <trkpt lat="49.287895001471043" lon="4.244363000616431">
        <ele>96.75</ele>
        <time>2018-07-10T12:00:15Z</time>
      </trkpt>
      <trkpt lat="49.28789097815752" lon="4.244666006416082">
        <ele>97.230000000000004</ele>
        <time>2018-07-10T12:00:16Z</time>
      </trkpt>
      <trkpt lat="49.287908999249339" lon="4.244978986680508">
        <ele>98.189999999999998</ele>
        <time>2018-07-10T12:00:17Z</time>
      </trkpt>
      <trkpt lat="49.28814503364265" lon="4.249112019315362">
        <ele>105.88</ele>
        <time>2018-07-10T12:00:29Z</time>
      </trkpt>
      <trkpt lat="49.288491038605571" lon="4.255032995715737">
        <ele>113.09</ele>
        <time>2018-07-10T12:00:46Z</time>
      </trkpt>
      <trkpt lat="49.288839977234602" lon="4.260999988764525">
        <ele>116.45999999999999</ele>
        <time>2018-07-10T12:01:03Z</time>
      </trkpt>
      <trkpt lat="49.289233004674315" lon="4.264831021428108">
        <ele>117.42</ele>
        <time>2018-07-10T12:01:14Z</time>
      </trkpt>
      <trkpt lat="49.290108997374773" lon="4.27067999728024">
        <ele>115.5</ele>
        <time>2018-07-10T12:01:31Z</time>
      </trkpt>
      <trkpt lat="49.290843000635505" lon="4.275464974343777">
        <ele>111.65000000000001</ele>
        <time>2018-07-10T12:01:45Z</time>
      </trkpt>
      <trkpt lat="49.291349016129971" lon="4.278778005391359">
        <ele>108.29000000000001</ele>
        <time>2018-07-10T12:01:56Z</time>
      </trkpt>
      <trkpt lat="49.291963996365666" lon="4.282825961709023">
        <ele>101.56</ele>
        <time>2018-07-10T12:02:08Z</time>
      </trkpt>
      <trkpt lat="49.29289698600769" lon="4.288967968896031">
        <ele>102.52</ele>
        <time>2018-07-10T12:02:26Z</time>
      </trkpt>
      <trkpt lat="49.293381040915847" lon="4.292148984968662">
        <ele>109.73</ele>
        <time>2018-07-10T12:02:36Z</time>
      </trkpt>
      <trkpt lat="49.293880015611649" lon="4.29540803655982">
        <ele>115.98</ele>
        <time>2018-07-10T12:02:46Z</time>
      </trkpt>
      <trkpt lat="49.294560039415956" lon="4.299838962033391">
        <ele>119.81999999999999</ele>
        <time>2018-07-10T12:02:59Z</time>
      </trkpt>
      <trkpt lat="49.295239979401231" lon="4.302783021703363">
        <ele>121.26000000000001</ele>
        <time>2018-07-10T12:03:08Z</time>
      </trkpt>
      <trkpt lat="49.296145979315042" lon="4.304536012932658">
        <ele>121.26000000000001</ele>
        <time>2018-07-10T12:03:15Z</time>
      </trkpt>
      <trkpt lat="49.297216013073921" lon="4.306105021387339">
        <ele>114.53</ele>
        <time>2018-07-10T12:03:23Z</time>
      </trkpt>
      <trkpt lat="49.297619014978409" lon="4.307447969913483">
        <ele>112.13</ele>
        <time>2018-07-10T12:03:30Z</time>
      </trkpt>
      <trkpt lat="49.297671988606453" lon="4.309237003326416">
        <ele>112.61</ele>
        <time>2018-07-10T12:03:40Z</time>
      </trkpt>
      <trkpt lat="49.297652961686254" lon="4.311329964548349">
        <ele>107.81</ele>
        <time>2018-07-10T12:03:52Z</time>
      </trkpt>
      <trkpt lat="49.297654973343015" lon="4.312810963019729">
        <ele>107.31999999999999</ele>
        <time>2018-07-10T12:04:01Z</time>
      </trkpt>
      <trkpt lat="49.297642987221479" lon="4.3129419721663">
        <ele>107.81</ele>
        <time>2018-07-10T12:04:02Z</time>
      </trkpt>
      <trkpt lat="49.297589007765055" lon="4.31339199654758">
        <ele>110.69</ele>
        <time>2018-07-10T12:04:06Z</time>
      </trkpt>
      <trkpt lat="49.297522036358714" lon="4.313938999548554">
        <ele>113.09</ele>
        <time>2018-07-10T12:04:11Z</time>
      </trkpt>
      <trkpt lat="49.297505021095276" lon="4.314074032008648">
        <ele>113.09</ele>
        <time>2018-07-10T12:04:12Z</time>
      </trkpt>
      <trkpt lat="49.29738599807024" lon="4.315059995278716">
        <ele>111.17</ele>
        <time>2018-07-10T12:04:18Z</time>
      </trkpt>
      <trkpt lat="49.297364037483931" lon="4.315223023295403">
        <ele>110.69</ele>
        <time>2018-07-10T12:04:19Z</time>
      </trkpt>
      <trkpt lat="49.297220958396792" lon="4.315953003242612">
        <ele>110.20999999999999</ele>
        <time>2018-07-10T12:04:24Z</time>
      </trkpt>
      <trkpt lat="49.297037981450558" lon="4.31682899594307">
        <ele>107.31999999999999</ele>
        <time>2018-07-10T12:04:31Z</time>
      </trkpt>
      <trkpt lat="49.297030018642545" lon="4.316902002319694">
        <ele>106.36</ele>
        <time>2018-07-10T12:04:32Z</time>
      </trkpt>
      <trkpt lat="49.297066982835531" lon="4.316984983161092">
        <ele>105.88</ele>
        <time>2018-07-10T12:04:33Z</time>
      </trkpt>
      <trkpt lat="49.297114005312324" lon="4.317091014236212">
        <ele>105.40000000000001</ele>
        <time>2018-07-10T12:04:34Z</time>
      </trkpt>
      <trkpt lat="49.297142000868917" lon="4.317112974822521">
        <ele>104.92</ele>
        <time>2018-07-10T12:04:35Z</time>
      </trkpt>
      <trkpt lat="49.297209978103638" lon="4.317165026441217">
        <ele>104.44</ele>
        <time>2018-07-10T12:04:36Z</time>
      </trkpt>
      <trkpt lat="49.297790005803108" lon="4.317642962560058">
        <ele>100.59999999999999</ele>
        <time>2018-07-10T12:04:44Z</time>
      </trkpt>
      <trkpt lat="49.297853037714958" lon="4.317696020007134">
        <ele>100.59999999999999</ele>
        <time>2018-07-10T12:04:45Z</time>
      </trkpt>
      <trkpt lat="49.297951022163033" lon="4.317802973091602">
        <ele>99.629999999999995</ele>
        <time>2018-07-10T12:04:46Z</time>
      </trkpt>
      <trkpt lat="49.297949010506272" lon="4.317918978631496">
        <ele>99.150000000000006</ele>
        <time>2018-07-10T12:04:47Z</time>
      </trkpt>
      <trkpt lat="49.297937024384737" lon="4.318030960857868">
        <ele>98.670000000000002</ele>
        <time>2018-07-10T12:04:48Z</time>
      </trkpt>
      <trkpt lat="49.297913974151015" lon="4.318159036338329">
        <ele>98.189999999999998</ele>
        <time>2018-07-10T12:04:49Z</time>
      </trkpt>
      <trkpt lat="49.297883966937661" lon="4.318279987201095">
        <ele>97.709999999999994</ele>
        <time>2018-07-10T12:04:50Z</time>
      </trkpt>
      <trkpt lat="49.297853037714958" lon="4.318390041589737">
        <ele>97.230000000000004</ele>
        <time>2018-07-10T12:04:51Z</time>
      </trkpt>
      <trkpt lat="49.297820013016462" lon="4.31850696913898">
        <ele>96.269999999999996</ele>
        <time>2018-07-10T12:04:52Z</time>
      </trkpt>
      <trkpt lat="49.297783970832825" lon="4.318636972457171">
        <ele>95.790000000000006</ele>
        <time>2018-07-10T12:04:53Z</time>
      </trkpt>
      <trkpt lat="49.297459004446864" lon="4.319658977910876">
        <ele>96.269999999999996</ele>
        <time>2018-07-10T12:05:01Z</time>
      </trkpt>
      <trkpt lat="49.297411981970072" lon="4.319779006764293">
        <ele>96.269999999999996</ele>
        <time>2018-07-10T12:05:02Z</time>
      </trkpt>
      <trkpt lat="49.297364037483931" lon="4.31990004144609">
        <ele>96.269999999999996</ele>
        <time>2018-07-10T12:05:03Z</time>
      </trkpt>
      <trkpt lat="49.296981990337372" lon="4.320908971130848">
        <ele>99.150000000000006</ele>
        <time>2018-07-10T12:05:11Z</time>
      </trkpt>
      <trkpt lat="49.296567002311349" lon="4.32235199958086">
        <ele>97.230000000000004</ele>
        <time>2018-07-10T12:05:22Z</time>
      </trkpt>
      <trkpt lat="49.296546969562769" lon="4.322476973757148">
        <ele>96.75</ele>
        <time>2018-07-10T12:05:23Z</time>
      </trkpt>
      <trkpt lat="49.296532971784472" lon="4.322606977075338">
        <ele>96.75</ele>
        <time>2018-07-10T12:05:24Z</time>
      </trkpt>
      <trkpt lat="49.296519979834557" lon="4.322734968736768">
        <ele>96.269999999999996</ele>
        <time>2018-07-10T12:05:25Z</time>
      </trkpt>
      <trkpt lat="49.29652500897646" lon="4.32284502312541">
        <ele>96.269999999999996</ele>
        <time>2018-07-10T12:05:26Z</time>
      </trkpt>
      <trkpt lat="49.296556022018194" lon="4.322969997301698">
        <ele>95.790000000000006</ele>
        <time>2018-07-10T12:05:27Z</time>
      </trkpt>
      <trkpt lat="49.296614024788141" lon="4.323062030598521">
        <ele>95.790000000000006</ele>
        <time>2018-07-10T12:05:28Z</time>
      </trkpt>
      <trkpt lat="49.296679990366101" lon="4.323162026703358">
        <ele>95.790000000000006</ele>
        <time>2018-07-10T12:05:29Z</time>
      </trkpt>
      <trkpt lat="49.296755008399487" lon="4.32325498200953">
        <ele>95.310000000000002</ele>
        <time>2018-07-10T12:05:30Z</time>
      </trkpt>
      <trkpt lat="49.297056002542377" lon="4.323611967265606">
        <ele>94.349999999999994</ele>
        <time>2018-07-10T12:05:34Z</time>
      </trkpt>
      <trkpt lat="49.297144012525678" lon="4.323672987520695">
        <ele>94.349999999999994</ele>
        <time>2018-07-10T12:05:35Z</time>
      </trkpt>
      <trkpt lat="49.297230010852218" lon="4.323733001947403">
        <ele>94.349999999999994</ele>
        <time>2018-07-10T12:05:36Z</time>
      </trkpt>
      <trkpt lat="49.297316009178758" lon="4.323741970583797">
        <ele>94.349999999999994</ele>
        <time>2018-07-10T12:05:37Z</time>
      </trkpt>
      <trkpt lat="49.297420028597116" lon="4.323741970583797">
        <ele>94.349999999999994</ele>
        <time>2018-07-10T12:05:38Z</time>
      </trkpt>
      <trkpt lat="49.297523964196444" lon="4.323741970583797">
        <ele>94.349999999999994</ele>
        <time>2018-07-10T12:05:39Z</time>
      </trkpt>
      <trkpt lat="49.297629995271564" lon="4.323716992512345">
        <ele>94.349999999999994</ele>
        <time>2018-07-10T12:05:40Z</time>
      </trkpt>
      <trkpt lat="49.298070967197418" lon="4.323612973093987">
        <ele>93.870000000000005</ele>
        <time>2018-07-10T12:05:44Z</time>
      </trkpt>
      <trkpt lat="49.298183033242822" lon="4.323586989194155">
        <ele>93.870000000000005</ele>
        <time>2018-07-10T12:05:45Z</time>
      </trkpt>
      <trkpt lat="49.298293003812432" lon="4.323581038042903">
        <ele>93.870000000000005</ele>
        <time>2018-07-10T12:05:46Z</time>
      </trkpt>
      <trkpt lat="49.298400040715933" lon="4.323608027771115">
        <ele>93.870000000000005</ele>
        <time>2018-07-10T12:05:47Z</time>
      </trkpt>
      <trkpt lat="49.298512022942305" lon="4.323639962822199">
        <ele>93.870000000000005</ele>
        <time>2018-07-10T12:05:48Z</time>
      </trkpt>
      <trkpt lat="49.298595003783703" lon="4.323741970583797">
        <ele>93.870000000000005</ele>
        <time>2018-07-10T12:05:49Z</time>
      </trkpt>
      <trkpt lat="49.298663986846805" lon="4.323874991387129">
        <ele>93.870000000000005</ele>
        <time>2018-07-10T12:05:50Z</time>
      </trkpt>
      <trkpt lat="49.298734981566668" lon="4.324011029675603">
        <ele>93.390000000000001</ele>
        <time>2018-07-10T12:05:51Z</time>
      </trkpt>
      <trkpt lat="49.298807987943292" lon="4.324148995801806">
        <ele>93.390000000000001</ele>
        <time>2018-07-10T12:05:52Z</time>
      </trkpt>
      <trkpt lat="49.29934199899435" lon="4.325184999033809">
        <ele>93.390000000000001</ele>
        <time>2018-07-10T12:06:00Z</time>
      </trkpt>
      <trkpt lat="49.299415005370975" lon="4.325294969603419">
        <ele>93.390000000000001</ele>
        <time>2018-07-10T12:06:01Z</time>
      </trkpt>
      <trkpt lat="49.299492035061121" lon="4.325391026213765">
        <ele>93.390000000000001</ele>
        <time>2018-07-10T12:06:02Z</time>
      </trkpt>
      <trkpt lat="49.300503982231021" lon="4.326510010287166">
        <ele>95.310000000000002</ele>
        <time>2018-07-10T12:06:14Z</time>
      </trkpt>
      <trkpt lat="49.300503982231021" lon="4.326510010287166">
        <ele>95.310000000000002</ele>
        <time>2018-07-10T12:06:15Z</time>
      </trkpt>
      <trkpt lat="49.300503982231021" lon="4.326510010287166">
        <ele>95.790000000000006</ele>
        <time>2018-07-10T12:06:16Z</time>
      </trkpt>
      <trkpt lat="49.3005430418998" lon="4.326850986108184">
        <ele>95.790000000000006</ele>
        <time>2018-07-10T12:06:17Z</time>
      </trkpt>
      <trkpt lat="49.30049903690815" lon="4.326979983597994">
        <ele>95.790000000000006</ele>
        <time>2018-07-10T12:06:18Z</time>
      </trkpt>
      <trkpt lat="49.300453020259738" lon="4.327133959159255">
        <ele>95.790000000000006</ele>
        <time>2018-07-10T12:06:19Z</time>
      </trkpt>
      <trkpt lat="49.300256967544556" lon="4.328527031466365">
        <ele>95.790000000000006</ele>
        <time>2018-07-10T12:06:26Z</time>
      </trkpt>
      <trkpt lat="49.300169041380286" lon="4.331388026475906">
        <ele>96.269999999999996</ele>
        <time>2018-07-10T12:06:37Z</time>
      </trkpt>
      <trkpt lat="49.300109026953578" lon="4.334649005904794">
        <ele>97.709999999999994</ele>
        <time>2018-07-10T12:06:47Z</time>
      </trkpt>
      <trkpt lat="49.300041971728206" lon="4.338330002501607">
        <ele>99.629999999999995</ele>
        <time>2018-07-10T12:06:58Z</time>
      </trkpt>
      <trkpt lat="49.299958990886807" lon="4.342706026509404">
        <ele>100.11</ele>
        <time>2018-07-10T12:07:11Z</time>
      </trkpt>
      <trkpt lat="49.299811972305179" lon="4.348417036235333">
        <ele>97.709999999999994</ele>
        <time>2018-07-10T12:07:28Z</time>
      </trkpt>
      <trkpt lat="49.299358008429408" lon="4.350260971114039">
        <ele>99.629999999999995</ele>
        <time>2018-07-10T12:07:34Z</time>
      </trkpt>
      <trkpt lat="49.297577021643519" lon="4.35535297729075">
        <ele>103.95999999999999</ele>
        <time>2018-07-10T12:07:51Z</time>
      </trkpt>
      <trkpt lat="49.296907978132367" lon="4.357259022071958">
        <ele>103.48</ele>
        <time>2018-07-10T12:07:59Z</time>
      </trkpt>
      <trkpt lat="49.296368015930057" lon="4.358798023313284">
        <ele>104.44</ele>
        <time>2018-07-10T12:08:08Z</time>
      </trkpt>
      <trkpt lat="49.296272965148091" lon="4.359068004414439">
        <ele>104.92</ele>
        <time>2018-07-10T12:08:10Z</time>
      </trkpt>
      <trkpt lat="49.296228960156441" lon="4.359194990247488">
        <ele>104.92</ele>
        <time>2018-07-10T12:08:11Z</time>
      </trkpt>
      <trkpt lat="49.296170035377145" lon="4.359362041577697">
        <ele>104.92</ele>
        <time>2018-07-10T12:08:13Z</time>
      </trkpt>
      <trkpt lat="49.296084037050605" lon="4.359597992151976">
        <ele>104.92</ele>
        <time>2018-07-10T12:08:14Z</time>
      </trkpt>
      <trkpt lat="49.296039026230574" lon="4.359762025997043">
        <ele>103.95999999999999</ele>
        <time>2018-07-10T12:08:16Z</time>
      </trkpt>
      <trkpt lat="49.296001978218555" lon="4.359898986294866">
        <ele>103.95999999999999</ele>
        <time>2018-07-10T12:08:17Z</time>
      </trkpt>
      <trkpt lat="49.295376017689705" lon="4.361765971407294">
        <ele>103</ele>
        <time>2018-07-10T12:08:30Z</time>
      </trkpt>
      <trkpt lat="49.29472298361361" lon="4.363659024238586">
        <ele>102.04000000000001</ele>
        <time>2018-07-10T12:08:42Z</time>
      </trkpt>
      <trkpt lat="49.294332973659039" lon="4.364770967513323">
        <ele>103.95999999999999</ele>
        <time>2018-07-10T12:08:51Z</time>
      </trkpt>
      <trkpt lat="49.293967019766569" lon="4.365827003493905">
        <ele>104.44</ele>
        <time>2018-07-10T12:09:01Z</time>
      </trkpt>
      <trkpt lat="49.293486988171935" lon="4.367185961455107">
        <ele>103.95999999999999</ele>
        <time>2018-07-10T12:09:12Z</time>
      </trkpt>
      <trkpt lat="49.293397972360253" lon="4.367435993626714">
        <ele>103.48</ele>
        <time>2018-07-10T12:09:14Z</time>
      </trkpt>
      <trkpt lat="49.293364025652409" lon="4.367561973631382">
        <ele>103</ele>
        <time>2018-07-10T12:09:15Z</time>
      </trkpt>
      <trkpt lat="49.293349022045732" lon="4.367688037455082">
        <ele>103</ele>
        <time>2018-07-10T12:09:16Z</time>
      </trkpt>
      <trkpt lat="49.293337035924196" lon="4.367816029116511">
        <ele>102.52</ele>
        <time>2018-07-10T12:09:17Z</time>
      </trkpt>
      <trkpt lat="49.293323960155249" lon="4.367949971929193">
        <ele>102.52</ele>
        <time>2018-07-10T12:09:18Z</time>
      </trkpt>
      <trkpt lat="49.293327983468771" lon="4.368092967197299">
        <ele>103</ele>
        <time>2018-07-10T12:09:19Z</time>
      </trkpt>
      <trkpt lat="49.293363019824028" lon="4.368233028799295">
        <ele>103</ele>
        <time>2018-07-10T12:09:20Z</time>
      </trkpt>
      <trkpt lat="49.293404007330537" lon="4.368380969390273">
        <ele>103</ele>
        <time>2018-07-10T12:09:21Z</time>
      </trkpt>
      <trkpt lat="49.293444994837046" lon="4.368534022942185">
        <ele>103.48</ele>
        <time>2018-07-10T12:09:22Z</time>
      </trkpt>
      <trkpt lat="49.294001972302794" lon="4.370429003611207">
        <ele>106.36</ele>
        <time>2018-07-10T12:09:33Z</time>
      </trkpt>
      <trkpt lat="49.294634973630309" lon="4.372552977874875">
        <ele>106.84</ele>
        <time>2018-07-10T12:09:43Z</time>
      </trkpt>
      <trkpt lat="49.295529993250966" lon="4.375535007566214">
        <ele>105.40000000000001</ele>
        <time>2018-07-10T12:09:53Z</time>
      </trkpt>
      <trkpt lat="49.297004034742713" lon="4.380436995998025">
        <ele>105.40000000000001</ele>
        <time>2018-07-10T12:10:09Z</time>
      </trkpt>
      <trkpt lat="49.298385959118605" lon="4.385037990286946">
        <ele>105.88</ele>
        <time>2018-07-10T12:10:24Z</time>
      </trkpt>
      <trkpt lat="49.30004901252687" lon="4.390575997531414">
        <ele>109.25</ele>
        <time>2018-07-10T12:10:42Z</time>
      </trkpt>
      <trkpt lat="49.30067497305572" lon="4.39265102148056">
        <ele>109.73</ele>
        <time>2018-07-10T12:10:50Z</time>
      </trkpt>
      <trkpt lat="49.301239997148514" lon="4.394503002986312">
        <ele>107.81</ele>
        <time>2018-07-10T12:10:59Z</time>
      </trkpt>
      <trkpt lat="49.301663031801581" lon="4.396011997014284">
        <ele>107.31999999999999</ele>
        <time>2018-07-10T12:11:09Z</time>
      </trkpt>
      <trkpt lat="49.302125964313745" lon="4.397589974105358">
        <ele>104.92</ele>
        <time>2018-07-10T12:11:20Z</time>
      </trkpt>
      <trkpt lat="49.302174998447299" lon="4.397755013778806">
        <ele>105.40000000000001</ele>
        <time>2018-07-10T12:11:21Z</time>
      </trkpt>
      <trkpt lat="49.30267196148634" lon="4.39935402944684">
        <ele>106.84</ele>
        <time>2018-07-10T12:11:31Z</time>
      </trkpt>
      <trkpt lat="49.302872959524393" lon="4.399991976097226">
        <ele>107.31999999999999</ele>
        <time>2018-07-10T12:11:35Z</time>
      </trkpt>
      <trkpt lat="49.30335802026093" lon="4.401527037844062">
        <ele>105.40000000000001</ele>
        <time>2018-07-10T12:11:45Z</time>
      </trkpt>
      <trkpt lat="49.303442006930709" lon="4.401710014790297">
        <ele>105.40000000000001</ele>
        <time>2018-07-10T12:11:46Z</time>
      </trkpt>
      <trkpt lat="49.304080037400126" lon="4.402937041595578">
        <ele>105.88</ele>
        <time>2018-07-10T12:11:55Z</time>
      </trkpt>
      <trkpt lat="49.305303962901235" lon="4.404566986486316">
        <ele>109.73</ele>
        <time>2018-07-10T12:12:09Z</time>
      </trkpt>
      <trkpt lat="49.306090017780662" lon="4.405824020504952">
        <ele>112.61</ele>
        <time>2018-07-10T12:12:17Z</time>
      </trkpt>
      <trkpt lat="49.307330958545208" lon="4.408101970329881">
        <ele>115.5</ele>
        <time>2018-07-10T12:12:27Z</time>
      </trkpt>
      <trkpt lat="49.308994011953473" lon="4.411156000569463">
        <ele>119.34</ele>
        <time>2018-07-10T12:12:39Z</time>
      </trkpt>
      <trkpt lat="49.310958981513977" lon="4.414749993011355">
        <ele>125.11</ele>
        <time>2018-07-10T12:12:53Z</time>
      </trkpt>
      <trkpt lat="49.314106972888112" lon="4.419917017221451">
        <ele>118.86</ele>
        <time>2018-07-10T12:13:14Z</time>
      </trkpt>
      <trkpt lat="49.316927986219525" lon="4.424545001238585">
        <ele>127.03</ele>
        <time>2018-07-10T12:13:33Z</time>
      </trkpt>
      <trkpt lat="49.320084024220705" lon="4.429725017398596">
        <ele>119.81999999999999</ele>
        <time>2018-07-10T12:13:54Z</time>
      </trkpt>
      <trkpt lat="49.322302965447307" lon="4.433372989296913">
        <ele>117.90000000000001</ele>
        <time>2018-07-10T12:14:09Z</time>
      </trkpt>
      <trkpt lat="49.325135964900255" lon="4.438031986355782">
        <ele>123.67</ele>
        <time>2018-07-10T12:14:28Z</time>
      </trkpt>
      <trkpt lat="49.327512988820672" lon="4.441942982375622">
        <ele>128.47</ele>
        <time>2018-07-10T12:14:44Z</time>
      </trkpt>
      <trkpt lat="49.330178014934063" lon="4.446327975019813">
        <ele>140.97</ele>
        <time>2018-07-10T12:15:02Z</time>
      </trkpt>
      <trkpt lat="49.331833021715283" lon="4.449056033045054">
        <ele>150.58000000000001</ele>
        <time>2018-07-10T12:15:15Z</time>
      </trkpt>
      <trkpt lat="49.333418039605021" lon="4.451683005318046">
        <ele>158.27000000000001</ele>
        <time>2018-07-10T12:15:26Z</time>
      </trkpt>
      <trkpt lat="49.335989020764828" lon="4.455530969426036">
        <ele>161.63999999999999</ele>
        <time>2018-07-10T12:15:42Z</time>
      </trkpt>
      <trkpt lat="49.339462984353304" lon="4.459325037896633">
        <ele>152.99000000000001</ele>
        <time>2018-07-10T12:16:01Z</time>
      </trkpt>
      <trkpt lat="49.343110034242272" lon="4.463307028636336">
        <ele>142.88999999999999</ele>
        <time>2018-07-10T12:16:21Z</time>
      </trkpt>
      <trkpt lat="49.344734027981758" lon="4.465080974623561">
        <ele>142.41</ele>
        <time>2018-07-10T12:16:31Z</time>
      </trkpt>
      <trkpt lat="49.345786040648818" lon="4.466227032244206">
        <ele>140.00999999999999</ele>
        <time>2018-07-10T12:16:39Z</time>
      </trkpt>
      <trkpt lat="49.346650969237089" lon="4.467408964410424">
        <ele>138.56999999999999</ele>
        <time>2018-07-10T12:16:49Z</time>
      </trkpt>
      <trkpt lat="49.347526961937547" lon="4.468687959015369">
        <ele>138.09</ele>
        <time>2018-07-10T12:17:00Z</time>
      </trkpt>
      <trkpt lat="49.34832600876689" lon="4.469900988042355">
        <ele>139.05000000000001</ele>
        <time>2018-07-10T12:17:10Z</time>
      </trkpt>
      <trkpt lat="49.348767986521125" lon="4.47090002708137">
        <ele>141.44999999999999</ele>
        <time>2018-07-10T12:17:17Z</time>
      </trkpt>
      <trkpt lat="49.34892900288105" lon="4.471531016752124">
        <ele>142.41</ele>
        <time>2018-07-10T12:17:21Z</time>
      </trkpt>
      <trkpt lat="49.349060012027621" lon="4.472886035218835">
        <ele>144.34</ele>
        <time>2018-07-10T12:17:29Z</time>
      </trkpt>
      <trkpt lat="49.348977031186223" lon="4.474212974309921">
        <ele>147.22</ele>
        <time>2018-07-10T12:17:36Z</time>
      </trkpt>
      <trkpt lat="49.348963033407927" lon="4.474424030631781">
        <ele>147.69999999999999</ele>
        <time>2018-07-10T12:17:37Z</time>
      </trkpt>
      <trkpt lat="49.348835041746497" lon="4.476435016840696">
        <ele>151.06</ele>
        <time>2018-07-10T12:17:46Z</time>
      </trkpt>
      <trkpt lat="49.348697997629642" lon="4.478554967790842">
        <ele>151.06</ele>
        <time>2018-07-10T12:17:53Z</time>
      </trkpt>
      <trkpt lat="49.348645024001598" lon="4.48237300850451">
        <ele>144.34</ele>
        <time>2018-07-10T12:18:04Z</time>
      </trkpt>
      <trkpt lat="49.349368968978524" lon="4.48568101041019">
        <ele>139.05000000000001</ele>
        <time>2018-07-10T12:18:14Z</time>
      </trkpt>
      <trkpt lat="49.350832030177116" lon="4.491838021203876">
        <ele>136.63999999999999</ele>
        <time>2018-07-10T12:18:33Z</time>
      </trkpt>
      <trkpt lat="49.351214999333024" lon="4.493472995236516">
        <ele>136.16</ele>
        <time>2018-07-10T12:18:40Z</time>
      </trkpt>
      <trkpt lat="49.351390013471246" lon="4.494222002103925">
        <ele>136.16</ele>
        <time>2018-07-10T12:18:44Z</time>
      </trkpt>
      <trkpt lat="49.351844983175397" lon="4.496014975011349">
        <ele>137.61000000000001</ele>
        <time>2018-07-10T12:18:54Z</time>
      </trkpt>
      <trkpt lat="49.351901980116963" lon="4.496183032169938">
        <ele>138.09</ele>
        <time>2018-07-10T12:18:55Z</time>
      </trkpt>
      <trkpt lat="49.35195998288691" lon="4.496354022994638">
        <ele>138.56999999999999</ele>
        <time>2018-07-10T12:18:56Z</time>
      </trkpt>
      <trkpt lat="49.352024020627141" lon="4.496541023254395">
        <ele>138.56999999999999</ele>
        <time>2018-07-10T12:18:57Z</time>
      </trkpt>
      <trkpt lat="49.352107001468539" lon="4.496655017137528">
        <ele>138.56999999999999</ele>
        <time>2018-07-10T12:18:58Z</time>
      </trkpt>
      <trkpt lat="49.352199034765363" lon="4.496782002970576">
        <ele>138.56999999999999</ele>
        <time>2018-07-10T12:18:59Z</time>
      </trkpt>
      <trkpt lat="49.353149961680174" lon="4.498011963441968">
        <ele>140.00999999999999</ele>
        <time>2018-07-10T12:19:09Z</time>
      </trkpt>
      <trkpt lat="49.3542589712888" lon="4.499279977753758">
        <ele>139.05000000000001</ele>
        <time>2018-07-10T12:19:20Z</time>
      </trkpt>
      <trkpt lat="49.355350965633988" lon="4.500878993421793">
        <ele>137.13</ele>
        <time>2018-07-10T12:19:32Z</time>
      </trkpt>
      <trkpt lat="49.356116987764835" lon="4.501899993047118">
        <ele>138.09</ele>
        <time>2018-07-10T12:19:40Z</time>
      </trkpt>
      <trkpt lat="49.35621396638453" lon="4.502024967223406">
        <ele>138.56999999999999</ele>
        <time>2018-07-10T12:19:41Z</time>
      </trkpt>
      <trkpt lat="49.357187021523714" lon="4.503246964886785">
        <ele>142.41</ele>
        <time>2018-07-10T12:19:51Z</time>
      </trkpt>
      <trkpt lat="49.35823299922049" lon="4.504679013043642">
        <ele>146.25999999999999</ele>
        <time>2018-07-10T12:20:02Z</time>
      </trkpt>
      <trkpt lat="49.359025005251169" lon="4.50647802092135">
        <ele>145.78</ele>
        <time>2018-07-10T12:20:12Z</time>
      </trkpt>
      <trkpt lat="49.359807958826423" lon="4.509255029261112">
        <ele>144.34</ele>
        <time>2018-07-10T12:20:22Z</time>
      </trkpt>
      <trkpt lat="49.361255010589957" lon="4.514395985752344">
        <ele>138.09</ele>
        <time>2018-07-10T12:20:39Z</time>
      </trkpt>
      <trkpt lat="49.362426968291402" lon="4.518391974270344">
        <ele>131.84</ele>
        <time>2018-07-10T12:20:52Z</time>
      </trkpt>
      <trkpt lat="49.362557977437973" lon="4.518603030592203">
        <ele>132.31999999999999</ele>
        <time>2018-07-10T12:20:53Z</time>
      </trkpt>
      <trkpt lat="49.362695021554828" lon="4.518822971731424">
        <ele>132.31999999999999</ele>
        <time>2018-07-10T12:20:54Z</time>
      </trkpt>
      <trkpt lat="49.362841034308076" lon="4.519035033881664">
        <ele>132.31999999999999</ele>
        <time>2018-07-10T12:20:55Z</time>
      </trkpt>
      <trkpt lat="49.363009007647634" lon="4.519218010827899">
        <ele>132.80000000000001</ele>
        <time>2018-07-10T12:20:56Z</time>
      </trkpt>
      <trkpt lat="49.363190978765488" lon="4.519369974732399">
        <ele>132.80000000000001</ele>
        <time>2018-07-10T12:20:57Z</time>
      </trkpt>
      <trkpt lat="49.365125019103289" lon="4.520894978195429">
        <ele>131.36000000000001</ele>
        <time>2018-07-10T12:21:07Z</time>
      </trkpt>
      <trkpt lat="49.368894025683403" lon="4.523902991786599">
        <ele>127.51000000000001</ele>
        <time>2018-07-10T12:21:26Z</time>
      </trkpt>
      <trkpt lat="49.371872032061219" lon="4.52626601792872">
        <ele>123.19</ele>
        <time>2018-07-10T12:21:41Z</time>
      </trkpt>
      <trkpt lat="49.375238036736846" lon="4.528934983536601">
        <ele>127.51000000000001</ele>
        <time>2018-07-10T12:21:58Z</time>
      </trkpt>
      <trkpt lat="49.378546960651875" lon="4.531779969111085">
        <ele>132.31999999999999</ele>
        <time>2018-07-10T12:22:15Z</time>
      </trkpt>
      <trkpt lat="49.382193004712462" lon="4.535804037004709">
        <ele>127.51000000000001</ele>
        <time>2018-07-10T12:22:35Z</time>
      </trkpt>
      <trkpt lat="49.385136980563402" lon="4.538877010345459">
        <ele>128.94999999999999</ele>
        <time>2018-07-10T12:22:51Z</time>
      </trkpt>
      <trkpt lat="49.386143982410431" lon="4.539716960862279">
        <ele>127.03</ele>
        <time>2018-07-10T12:22:57Z</time>
      </trkpt>
      <trkpt lat="49.386733984574676" lon="4.540771991014481">
        <ele>127.03</ele>
        <time>2018-07-10T12:23:04Z</time>
      </trkpt>
      <trkpt lat="49.387050988152623" lon="4.541586963459849">
        <ele>127.98999999999999</ele>
        <time>2018-07-10T12:23:09Z</time>
      </trkpt>
      <trkpt lat="49.387496989220381" lon="4.543365016579628">
        <ele>130.40000000000001</ele>
        <time>2018-07-10T12:23:19Z</time>
      </trkpt>
      <trkpt lat="49.387659011408687" lon="4.544211002066732">
        <ele>130.40000000000001</ele>
        <time>2018-07-10T12:23:24Z</time>
      </trkpt>
      <trkpt lat="49.387643001973629" lon="4.54435701481998">
        <ele>130.40000000000001</ele>
        <time>2018-07-10T12:23:25Z</time>
      </trkpt>
      <trkpt lat="49.387627998366952" lon="4.544491041451693">
        <ele>129.91999999999999</ele>
        <time>2018-07-10T12:23:26Z</time>
      </trkpt>
      <trkpt lat="49.387584999203682" lon="4.544587014243007">
        <ele>129.91999999999999</ele>
        <time>2018-07-10T12:23:27Z</time>
      </trkpt>
      <trkpt lat="49.387520961463451" lon="4.544663960114121">
        <ele>129.91999999999999</ele>
        <time>2018-07-10T12:23:28Z</time>
      </trkpt>
      <trkpt lat="49.38745298422873" lon="4.544746018946171">
        <ele>129.91999999999999</ele>
        <time>2018-07-10T12:23:29Z</time>
      </trkpt>
      <trkpt lat="49.387367991730571" lon="4.544822964817286">
        <ele>129.91999999999999</ele>
        <time>2018-07-10T12:23:30Z</time>
      </trkpt>
      <trkpt lat="49.387290040031075" lon="4.544877028092742">
        <ele>129.91999999999999</ele>
        <time>2018-07-10T12:23:31Z</time>
      </trkpt>
      <trkpt lat="49.387212004512548" lon="4.544971995055676">
        <ele>129.91999999999999</ele>
        <time>2018-07-10T12:23:32Z</time>
      </trkpt>
      <trkpt lat="49.387132041156292" lon="4.54506897367537">
        <ele>129.91999999999999</ele>
        <time>2018-07-10T12:23:33Z</time>
      </trkpt>
      <trkpt lat="49.387080995365977" lon="4.5451969653368">
        <ele>129.91999999999999</ele>
        <time>2018-07-10T12:23:34Z</time>
      </trkpt>
      <trkpt lat="49.38704302534461" lon="4.545336021110416">
        <ele>129.91999999999999</ele>
        <time>2018-07-10T12:23:35Z</time>
      </trkpt>
      <trkpt lat="49.387013018131256" lon="4.545524027198553">
        <ele>129.43000000000001</ele>
        <time>2018-07-10T12:23:36Z</time>
      </trkpt>
      <trkpt lat="49.386984016746283" lon="4.545709015801549">
        <ele>129.91999999999999</ele>
        <time>2018-07-10T12:23:37Z</time>
      </trkpt>
      <trkpt lat="49.386874968186021" lon="4.546918021515012">
        <ele>129.43000000000001</ele>
        <time>2018-07-10T12:23:44Z</time>
      </trkpt>
      <trkpt lat="49.386885026469827" lon="4.547094041481614">
        <ele>129.91999999999999</ele>
        <time>2018-07-10T12:23:45Z</time>
      </trkpt>
      <trkpt lat="49.386896006762981" lon="4.547272995114327">
        <ele>129.91999999999999</ele>
        <time>2018-07-10T12:23:46Z</time>
      </trkpt>
      <trkpt lat="49.386905981227756" lon="4.547454966232181">
        <ele>130.40000000000001</ele>
        <time>2018-07-10T12:23:47Z</time>
      </trkpt>
      <trkpt lat="49.386921990662813" lon="4.547638026997447">
        <ele>130.40000000000001</ele>
        <time>2018-07-10T12:23:48Z</time>
      </trkpt>
      <trkpt lat="49.387335972860456" lon="4.549651024863124">
        <ele>133.75999999999999</ele>
        <time>2018-07-10T12:23:59Z</time>
      </trkpt>
      <trkpt lat="49.387718020007014" lon="4.55172898247838">
        <ele>135.68000000000001</ele>
        <time>2018-07-10T12:24:08Z</time>
      </trkpt>
      <trkpt lat="49.387950031086802" lon="4.553454983979464">
        <ele>136.16</ele>
        <time>2018-07-10T12:24:16Z</time>
      </trkpt>
      <trkpt lat="49.388218000531197" lon="4.555421965196729">
        <ele>137.61000000000001</ele>
        <time>2018-07-10T12:24:23Z</time>
      </trkpt>
      <trkpt lat="49.388631982728839" lon="4.55843098461628">
        <ele>138.09</ele>
        <time>2018-07-10T12:24:32Z</time>
      </trkpt>
      <trkpt lat="49.389175968244672" lon="4.562422027811408">
        <ele>141.44999999999999</ele>
        <time>2018-07-10T12:24:44Z</time>
      </trkpt>
      <trkpt lat="49.389968980103731" lon="4.56825097091496">
        <ele>147.22</ele>
        <time>2018-07-10T12:25:01Z</time>
      </trkpt>
      <trkpt lat="49.390828963369131" lon="4.574453998357058">
        <ele>154.43000000000001</ele>
        <time>2018-07-10T12:25:19Z</time>
      </trkpt>
      <trkpt lat="49.391417959704995" lon="4.578684009611607">
        <ele>160.68000000000001</ele>
        <time>2018-07-10T12:25:32Z</time>
      </trkpt>
      <trkpt lat="49.391734041273594" lon="4.58090596832335">
        <ele>167.41</ele>
        <time>2018-07-10T12:25:41Z</time>
      </trkpt>
      <trkpt lat="49.391935039311647" lon="4.582011960446835">
        <ele>169.33000000000001</ele>
        <time>2018-07-10T12:25:48Z</time>
      </trkpt>
      <trkpt lat="49.392065964639187" lon="4.582696007564664">
        <ele>170.28999999999999</ele>
        <time>2018-07-10T12:25:57Z</time>
      </trkpt>
      <trkpt lat="49.392054984346032" lon="4.582877978682518">
        <ele>170.77000000000001</ele>
        <time>2018-07-10T12:25:59Z</time>
      </trkpt>
      <trkpt lat="49.392015002667904" lon="4.582975963130593">
        <ele>170.77000000000001</ele>
        <time>2018-07-10T12:26:00Z</time>
      </trkpt>
      <trkpt lat="49.391926992684603" lon="4.583197999745607">
        <ele>171.72999999999999</ele>
        <time>2018-07-10T12:26:02Z</time>
      </trkpt>
      <trkpt lat="49.391914000734687" lon="4.58335398696363">
        <ele>171.72999999999999</ele>
        <time>2018-07-10T12:26:03Z</time>
      </trkpt>
      <trkpt lat="49.391914000734687" lon="4.583493964746594">
        <ele>172.21000000000001</ele>
        <time>2018-07-10T12:26:04Z</time>
      </trkpt>
      <trkpt lat="49.391921041533351" lon="4.583645006641746">
        <ele>172.69</ele>
        <time>2018-07-10T12:26:05Z</time>
      </trkpt>
      <trkpt lat="49.391955994069576" lon="4.583785990253091">
        <ele>172.69</ele>
        <time>2018-07-10T12:26:06Z</time>
      </trkpt>
      <trkpt lat="49.391993964090943" lon="4.583935020491481">
        <ele>172.69</ele>
        <time>2018-07-10T12:26:07Z</time>
      </trkpt>
      <trkpt lat="49.392054984346032" lon="4.584057983011007">
        <ele>172.69</ele>
        <time>2018-07-10T12:26:08Z</time>
      </trkpt>
      <trkpt lat="49.392120027914643" lon="4.584172982722521">
        <ele>173.16999999999999</ele>
        <time>2018-07-10T12:26:09Z</time>
      </trkpt>
      <trkpt lat="49.392179036512971" lon="4.58427700214088">
        <ele>173.16999999999999</ele>
        <time>2018-07-10T12:26:10Z</time>
      </trkpt>
      <trkpt lat="49.39217702485621" lon="4.584476994350553">
        <ele>173.16999999999999</ele>
        <time>2018-07-10T12:26:11Z</time>
      </trkpt>
      <trkpt lat="49.392163027077913" lon="4.584625018760562">
        <ele>173.16999999999999</ele>
        <time>2018-07-10T12:26:12Z</time>
      </trkpt>
      <trkpt lat="49.392148023471236" lon="4.584791986271739">
        <ele>173.16999999999999</ele>
        <time>2018-07-10T12:26:13Z</time>
      </trkpt>
      <trkpt lat="49.392130002379417" lon="4.584974963217974">
        <ele>173.16999999999999</ele>
        <time>2018-07-10T12:26:14Z</time>
      </trkpt>
      <trkpt lat="49.39179003238678" lon="4.586665006354451">
        <ele>175.09999999999999</ele>
        <time>2018-07-10T12:26:21Z</time>
      </trkpt>
      <trkpt lat="49.39097598195076" lon="4.590558987110853">
        <ele>179.90000000000001</ele>
        <time>2018-07-10T12:26:34Z</time>
      </trkpt>
      <trkpt lat="49.390355972573161" lon="4.593622991815209">
        <ele>177.02000000000001</ele>
        <time>2018-07-10T12:26:44Z</time>
      </trkpt>
      <trkpt lat="49.389263978227973" lon="4.599054967984557">
        <ele>165.96000000000001</ele>
        <time>2018-07-10T12:27:00Z</time>
      </trkpt>
      <trkpt lat="49.388254964724183" lon="4.604092994704843">
        <ele>165</ele>
        <time>2018-07-10T12:27:15Z</time>
      </trkpt>
      <trkpt lat="49.387111002579331" lon="4.609807021915913">
        <ele>176.06</ele>
        <time>2018-07-10T12:27:32Z</time>
      </trkpt>
      <trkpt lat="49.385890010744333" lon="4.615927990525961">
        <ele>172.21000000000001</ele>
        <time>2018-07-10T12:27:50Z</time>
      </trkpt>
      <trkpt lat="49.385361028835177" lon="4.619761034846306">
        <ele>167.88999999999999</ele>
        <time>2018-07-10T12:28:01Z</time>
      </trkpt>
      <trkpt lat="49.385208981111646" lon="4.62224300019443">
        <ele>159.24000000000001</ele>
        <time>2018-07-10T12:28:08Z</time>
      </trkpt>
      <trkpt lat="49.385189032182097" lon="4.622593028470874">
        <ele>157.78999999999999</ele>
        <time>2018-07-10T12:28:09Z</time>
      </trkpt>
      <trkpt lat="49.384931037202477" lon="4.626799989491701">
        <ele>143.37</ele>
        <time>2018-07-10T12:28:21Z</time>
      </trkpt>
      <trkpt lat="49.384936988353729" lon="4.627422010526061">
        <ele>141.93000000000001</ele>
        <time>2018-07-10T12:28:23Z</time>
      </trkpt>
      <trkpt lat="49.384968001395464" lon="4.627706995233893">
        <ele>140.97</ele>
        <time>2018-07-10T12:28:24Z</time>
      </trkpt>
      <trkpt lat="49.385061040520668" lon="4.628230025991797">
        <ele>139.53</ele>
        <time>2018-07-10T12:28:26Z</time>
      </trkpt>
      <trkpt lat="49.385489020496607" lon="4.629843961447477">
        <ele>136.63999999999999</ele>
        <time>2018-07-10T12:28:34Z</time>
      </trkpt>
      <trkpt lat="49.386123027652502" lon="4.632130041718483">
        <ele>136.16</ele>
        <time>2018-07-10T12:28:47Z</time>
      </trkpt>
      <trkpt lat="49.386786036193371" lon="4.634453002363443">
        <ele>135.19999999999999</ele>
        <time>2018-07-10T12:29:00Z</time>
      </trkpt>
      <trkpt lat="49.38728098757565" lon="4.636271959170699">
        <ele>131.84</ele>
        <time>2018-07-10T12:29:07Z</time>
      </trkpt>
      <trkpt lat="49.388186987489462" lon="4.639608040452004">
        <ele>118.86</ele>
        <time>2018-07-10T12:29:17Z</time>
      </trkpt>
      <trkpt lat="49.389155013486743" lon="4.64310497045517">
        <ele>115.98</ele>
        <time>2018-07-10T12:29:27Z</time>
      </trkpt>
      <trkpt lat="49.39045999199152" lon="4.647817024961114">
        <ele>111.17</ele>
        <time>2018-07-10T12:29:41Z</time>
      </trkpt>
      <trkpt lat="49.391260966658592" lon="4.650647006928921">
        <ele>109.73</ele>
        <time>2018-07-10T12:29:51Z</time>
      </trkpt>
      <trkpt lat="49.391766982153058" lon="4.652438974007964">
        <ele>110.20999999999999</ele>
        <time>2018-07-10T12:29:59Z</time>
      </trkpt>
      <trkpt lat="49.392165960744023" lon="4.654386006295681">
        <ele>111.17</ele>
        <time>2018-07-10T12:30:09Z</time>
      </trkpt>
      <trkpt lat="49.39243501983583" lon="4.656548034399748">
        <ele>108.29000000000001</ele>
        <time>2018-07-10T12:30:19Z</time>
      </trkpt>
      <trkpt lat="49.392734002321959" lon="4.659038968384266">
        <ele>106.36</ele>
        <time>2018-07-10T12:30:29Z</time>
      </trkpt>
      <trkpt lat="49.393033990636468" lon="4.661541972309351">
        <ele>105.40000000000001</ele>
        <time>2018-07-10T12:30:36Z</time>
      </trkpt>
      <trkpt lat="49.393762964755297" lon="4.667358007282019">
        <ele>108.29000000000001</ele>
        <time>2018-07-10T12:30:53Z</time>
      </trkpt>
      <trkpt lat="49.394264034926891" lon="4.671491961926222">
        <ele>112.61</ele>
        <time>2018-07-10T12:31:05Z</time>
      </trkpt>
      <trkpt lat="49.394733002409339" lon="4.675409998744726">
        <ele>110.69</ele>
        <time>2018-07-10T12:31:17Z</time>
      </trkpt>
      <trkpt lat="49.394921008497477" lon="4.676981018856168">
        <ele>110.20999999999999</ele>
        <time>2018-07-10T12:31:25Z</time>
      </trkpt>
      <trkpt lat="49.39523097127676" lon="4.67945896089077">
        <ele>111.65000000000001</ele>
        <time>2018-07-10T12:31:38Z</time>
      </trkpt>
      <trkpt lat="49.395473040640354" lon="4.681399958208203">
        <ele>110.69</ele>
        <time>2018-07-10T12:31:49Z</time>
      </trkpt>
      <trkpt lat="49.395412020385265" lon="4.681677985936403">
        <ele>111.17</ele>
        <time>2018-07-10T12:31:50Z</time>
      </trkpt>
      <trkpt lat="49.395411014556885" lon="4.681683015078306">
        <ele>111.17</ele>
        <time>2018-07-10T12:31:51Z</time>
      </trkpt>
      <trkpt lat="49.395389975979924" lon="4.681849982589483">
        <ele>111.17</ele>
        <time>2018-07-10T12:31:52Z</time>
      </trkpt>
      <trkpt lat="49.395412020385265" lon="4.681934975087643">
        <ele>111.65000000000001</ele>
        <time>2018-07-10T12:31:53Z</time>
      </trkpt>
      <trkpt lat="49.39553196541965" lon="4.682049974799156">
        <ele>111.65000000000001</ele>
        <time>2018-07-10T12:31:54Z</time>
      </trkpt>
      <trkpt lat="49.395559960976243" lon="4.682200010865927">
        <ele>111.65000000000001</ele>
        <time>2018-07-10T12:31:55Z</time>
      </trkpt>
      <trkpt lat="49.395589968189597" lon="4.682362033054233">
        <ele>111.65000000000001</ele>
        <time>2018-07-10T12:31:56Z</time>
      </trkpt>
      <trkpt lat="49.395622992888093" lon="4.682542998343706">
        <ele>112.13</ele>
        <time>2018-07-10T12:31:57Z</time>
      </trkpt>
      <trkpt lat="49.395646965131164" lon="4.682738967239857">
        <ele>112.13</ele>
        <time>2018-07-10T12:31:58Z</time>
      </trkpt>
      <trkpt lat="49.395913006737828" lon="4.684817008674145">
        <ele>115.98</ele>
        <time>2018-07-10T12:32:10Z</time>
      </trkpt>
      <trkpt lat="49.395935973152518" lon="4.68502102419734">
        <ele>116.45999999999999</ele>
        <time>2018-07-10T12:32:12Z</time>
      </trkpt>
      <trkpt lat="49.395957011729479" lon="4.685262003913522">
        <ele>115.98</ele>
        <time>2018-07-10T12:32:15Z</time>
      </trkpt>
      <trkpt lat="49.396104030311108" lon="4.686387022957206">
        <ele>115.98</ele>
        <time>2018-07-10T12:32:25Z</time>
      </trkpt>
      <trkpt lat="49.396235039457679" lon="4.687566021457315">
        <ele>119.81999999999999</ele>
        <time>2018-07-10T12:32:36Z</time>
      </trkpt>
      <trkpt lat="49.396388009190559" lon="4.688721969723702">
        <ele>120.3</ele>
        <time>2018-07-10T12:32:46Z</time>
      </trkpt>
      <trkpt lat="49.396571991965175" lon="4.69024496152997">
        <ele>120.78</ele>
        <time>2018-07-10T12:33:02Z</time>
      </trkpt>
      <trkpt lat="49.396625971421599" lon="4.690681993961334">
        <ele>120.78</ele>
        <time>2018-07-10T12:33:07Z</time>
      </trkpt>
      <trkpt lat="49.396736025810242" lon="4.691625963896513">
        <ele>119.34</ele>
        <time>2018-07-10T12:33:17Z</time>
      </trkpt>
      <trkpt lat="49.396782964468002" lon="4.692033994942904">
        <ele>118.38</ele>
        <time>2018-07-10T12:33:21Z</time>
      </trkpt>
      <trkpt lat="49.396807020530105" lon="4.692239016294479">
        <ele>117.42</ele>
        <time>2018-07-10T12:33:23Z</time>
      </trkpt>
      <trkpt lat="49.396830992773175" lon="4.692441020160914">
        <ele>116.94</ele>
        <time>2018-07-10T12:33:25Z</time>
      </trkpt>
      <trkpt lat="49.396986979991198" lon="4.693763013929129">
        <ele>114.53</ele>
        <time>2018-07-10T12:33:35Z</time>
      </trkpt>
      <trkpt lat="49.397160988301039" lon="4.695074027404189">
        <ele>111.65000000000001</ele>
        <time>2018-07-10T12:33:45Z</time>
      </trkpt>
      <trkpt lat="49.397179009392858" lon="4.695201013237238">
        <ele>111.65000000000001</ele>
        <time>2018-07-10T12:33:46Z</time>
      </trkpt>
      <trkpt lat="49.397360980510712" lon="4.696620991453528">
        <ele>108.77</ele>
        <time>2018-07-10T12:33:58Z</time>
      </trkpt>
      <trkpt lat="49.397502969950438" lon="4.69767602160573">
        <ele>108.77</ele>
        <time>2018-07-10T12:34:09Z</time>
      </trkpt>
      <trkpt lat="49.397512022405863" lon="4.697742993012071">
        <ele>108.77</ele>
        <time>2018-07-10T12:34:10Z</time>
      </trkpt>
      <trkpt lat="49.397540017962456" lon="4.697964023798704">
        <ele>109.25</ele>
        <time>2018-07-10T12:34:14Z</time>
      </trkpt>
      <trkpt lat="49.397544041275978" lon="4.698005011305213">
        <ele>109.25</ele>
        <time>2018-07-10T12:34:15Z</time>
      </trkpt>
      <trkpt lat="49.397548986598849" lon="4.698065025731921">
        <ele>110.20999999999999</ele>
        <time>2018-07-10T12:34:26Z</time>
      </trkpt>
      <trkpt lat="49.397562984377146" lon="4.698206009343267">
        <ele>113.09</ele>
        <time>2018-07-10T12:34:57Z</time>
      </trkpt>
      <trkpt lat="49.397610006853938" lon="4.698803974315524">
        <ele>112.13</ele>
        <time>2018-07-10T12:35:05Z</time>
      </trkpt>
      <trkpt lat="49.397621992975473" lon="4.69903196208179">
        <ele>111.65000000000001</ele>
        <time>2018-07-10T12:35:08Z</time>
      </trkpt>
      <trkpt lat="49.397621992975473" lon="4.699189038947225">
        <ele>111.65000000000001</ele>
        <time>2018-07-10T12:35:10Z</time>
      </trkpt>
      <trkpt lat="49.397621992975473" lon="4.699267996475101">
        <ele>111.65000000000001</ele>
        <time>2018-07-10T12:35:11Z</time>
      </trkpt>
      <trkpt lat="49.39763599075377" lon="4.699871996417642">
        <ele>111.17</ele>
        <time>2018-07-10T12:35:19Z</time>
      </trkpt>
      <trkpt lat="49.397643031552434" lon="4.700109958648682">
        <ele>110.69</ele>
        <time>2018-07-10T12:35:23Z</time>
      </trkpt>
      <trkpt lat="49.39763699658215" lon="4.700222024694085">
        <ele>111.17</ele>
        <time>2018-07-10T12:35:24Z</time>
      </trkpt>
      <trkpt lat="49.397632973268628" lon="4.700297964736819">
        <ele>111.17</ele>
        <time>2018-07-10T12:35:25Z</time>
      </trkpt>
      <trkpt lat="49.397603971883655" lon="4.700833987444639">
        <ele>112.13</ele>
        <time>2018-07-10T12:35:34Z</time>
      </trkpt>
      <trkpt lat="49.397588968276978" lon="4.700974971055985">
        <ele>112.13</ele>
        <time>2018-07-10T12:35:36Z</time>
      </trkpt>
      <trkpt lat="49.39746499992907" lon="4.701715009287">
        <ele>111.65000000000001</ele>
        <time>2018-07-10T12:35:46Z</time>
      </trkpt>
      <trkpt lat="49.397410014644265" lon="4.702048022300005">
        <ele>110.20999999999999</ele>
        <time>2018-07-10T12:35:53Z</time>
      </trkpt>
      <trkpt lat="49.397383024916053" lon="4.70229403115809">
        <ele>109.73</ele>
        <time>2018-07-10T12:35:57Z</time>
      </trkpt>
      <trkpt lat="49.397373972460628" lon="4.702373994514346">
        <ele>109.73</ele>
        <time>2018-07-10T12:35:58Z</time>
      </trkpt>
      <trkpt lat="49.397385958582163" lon="4.702972965314984">
        <ele>108.29000000000001</ele>
        <time>2018-07-10T12:36:05Z</time>
      </trkpt>
      <trkpt lat="49.397388976067305" lon="4.703053012490273">
        <ele>108.29000000000001</ele>
        <time>2018-07-10T12:36:06Z</time>
      </trkpt>
      <trkpt lat="49.397392999380827" lon="4.703138004988432">
        <ele>107.81</ele>
        <time>2018-07-10T12:36:07Z</time>
      </trkpt>
      <trkpt lat="49.39740096218884" lon="4.703339003026485">
        <ele>107.81</ele>
        <time>2018-07-10T12:36:09Z</time>
      </trkpt>
      <trkpt lat="49.397405991330743" lon="4.703450985252857">
        <ele>107.81</ele>
        <time>2018-07-10T12:36:10Z</time>
      </trkpt>
      <trkpt lat="49.397439016029239" lon="4.70356397330761">
        <ele>107.31999999999999</ele>
        <time>2018-07-10T12:36:11Z</time>
      </trkpt>
      <trkpt lat="49.397482015192509" lon="4.703665981069207">
        <ele>107.31999999999999</ele>
        <time>2018-07-10T12:36:12Z</time>
      </trkpt>
      <trkpt lat="49.397546974942088" lon="4.70373303629458">
        <ele>107.31999999999999</ele>
        <time>2018-07-10T12:36:13Z</time>
      </trkpt>
      <trkpt lat="49.397620987147093" lon="4.703774023801088">
        <ele>106.84</ele>
        <time>2018-07-10T12:36:14Z</time>
      </trkpt>
      <trkpt lat="49.397707991302013" lon="4.70382196828723">
        <ele>106.36</ele>
        <time>2018-07-10T12:36:15Z</time>
      </trkpt>
      <trkpt lat="49.397790972143412" lon="4.703863961622119">
        <ele>106.36</ele>
        <time>2018-07-10T12:36:16Z</time>
      </trkpt>
      <trkpt lat="49.398676017299294" lon="4.70457399263978">
        <ele>101.56</ele>
        <time>2018-07-10T12:36:25Z</time>
      </trkpt>
      <trkpt lat="49.398832004517317" lon="4.70485202036798">
        <ele>101.08</ele>
        <time>2018-07-10T12:36:27Z</time>
      </trkpt>
      <trkpt lat="49.399836994707584" lon="4.706969037652016">
        <ele>98.670000000000002</ele>
        <time>2018-07-10T12:36:41Z</time>
      </trkpt>
      <trkpt lat="49.400220969691873" lon="4.708723034709692">
        <ele>97.230000000000004</ele>
        <time>2018-07-10T12:36:51Z</time>
      </trkpt>
      <trkpt lat="49.40023697912693" lon="4.708925960585475">
        <ele>96.75</ele>
        <time>2018-07-10T12:36:52Z</time>
      </trkpt>
      <trkpt lat="49.40021300688386" lon="4.70910700969398">
        <ele>96.75</ele>
        <time>2018-07-10T12:36:53Z</time>
      </trkpt>
      <trkpt lat="49.400164978578687" lon="4.709465000778437">
        <ele>96.269999999999996</ele>
        <time>2018-07-10T12:36:55Z</time>
      </trkpt>
      <trkpt lat="49.400133965536952" lon="4.709644038230181">
        <ele>96.269999999999996</ele>
        <time>2018-07-10T12:36:56Z</time>
      </trkpt>
      <trkpt lat="49.399686036631465" lon="4.711787961423397">
        <ele>95.790000000000006</ele>
        <time>2018-07-10T12:37:07Z</time>
      </trkpt>
      <trkpt lat="49.399280017241836" lon="4.713745974004269">
        <ele>92.900000000000006</ele>
        <time>2018-07-10T12:37:17Z</time>
      </trkpt>
      <trkpt lat="49.398889001458883" lon="4.715625029057264">
        <ele>91.939999999999998</ele>
        <time>2018-07-10T12:37:27Z</time>
      </trkpt>
      <trkpt lat="49.398439982905984" lon="4.717747997492552">
        <ele>88.579999999999998</ele>
        <time>2018-07-10T12:37:37Z</time>
      </trkpt>
      <trkpt lat="49.39785098657012" lon="4.720555013045669">
        <ele>90.019999999999996</ele>
        <time>2018-07-10T12:37:47Z</time>
      </trkpt>
      <trkpt lat="49.396973988041282" lon="4.72470598295331">
        <ele>96.269999999999996</ele>
        <time>2018-07-10T12:38:00Z</time>
      </trkpt>
      <trkpt lat="49.395936978980899" lon="4.729632027447224">
        <ele>117.90000000000001</ele>
        <time>2018-07-10T12:38:15Z</time>
      </trkpt>
      <trkpt lat="49.395309006795287" lon="4.733304977416992">
        <ele>131.36000000000001</ele>
        <time>2018-07-10T12:38:26Z</time>
      </trkpt>
      <trkpt lat="49.395247986540198" lon="4.735817033797503">
        <ele>140.49000000000001</ele>
        <time>2018-07-10T12:38:34Z</time>
      </trkpt>
      <trkpt lat="49.395214039832354" lon="4.737225025892258">
        <ele>144.34</ele>
        <time>2018-07-10T12:38:38Z</time>
      </trkpt>
      <trkpt lat="49.395130975171924" lon="4.740642998367548">
        <ele>152.99000000000001</ele>
        <time>2018-07-10T12:38:47Z</time>
      </trkpt>
      <trkpt lat="49.395123012363911" lon="4.740983974188566">
        <ele>153.94999999999999</ele>
        <time>2018-07-10T12:38:48Z</time>
      </trkpt>
      <trkpt lat="49.395113959908485" lon="4.741328973323107">
        <ele>154.91</ele>
        <time>2018-07-10T12:38:49Z</time>
      </trkpt>
      <trkpt lat="49.395046988502145" lon="4.744498003274202">
        <ele>157.78999999999999</ele>
        <time>2018-07-10T12:38:59Z</time>
      </trkpt>
      <trkpt lat="49.39512200653553" lon="4.746674029156566">
        <ele>156.34999999999999</ele>
        <time>2018-07-10T12:39:07Z</time>
      </trkpt>
      <trkpt lat="49.395226025953889" lon="4.747103014960885">
        <ele>155.38999999999999</ele>
        <time>2018-07-10T12:39:09Z</time>
      </trkpt>
      <trkpt lat="49.395841006189585" lon="4.748991038650274">
        <ele>148.66</ele>
        <time>2018-07-10T12:39:19Z</time>
      </trkpt>
      <trkpt lat="49.396296981722116" lon="4.750417973846197">
        <ele>140.97</ele>
        <time>2018-07-10T12:39:27Z</time>
      </trkpt>
      <trkpt lat="49.396312991157174" lon="4.750627018511295">
        <ele>140.00999999999999</ele>
        <time>2018-07-10T12:39:28Z</time>
      </trkpt>
      <trkpt lat="49.396312991157174" lon="4.750835979357362">
        <ele>139.05000000000001</ele>
        <time>2018-07-10T12:39:29Z</time>
      </trkpt>
      <trkpt lat="49.396280972287059" lon="4.751049969345331">
        <ele>138.56999999999999</ele>
        <time>2018-07-10T12:39:30Z</time>
      </trkpt>
      <trkpt lat="49.396241996437311" lon="4.7512829862535">
        <ele>138.09</ele>
        <time>2018-07-10T12:39:31Z</time>
      </trkpt>
      <trkpt lat="49.396198997274041" lon="4.751542992889881">
        <ele>138.56999999999999</ele>
        <time>2018-07-10T12:39:32Z</time>
      </trkpt>
      <trkpt lat="49.396150968968868" lon="4.751825965940952">
        <ele>139.05000000000001</ele>
        <time>2018-07-10T12:39:33Z</time>
      </trkpt>
      <trkpt lat="49.395630033686757" lon="4.754087990149856">
        <ele>146.74000000000001</ele>
        <time>2018-07-10T12:39:40Z</time>
      </trkpt>
      <trkpt lat="49.395238012075424" lon="4.755692034959793">
        <ele>153.47</ele>
        <time>2018-07-10T12:39:46Z</time>
      </trkpt>
      <trkpt lat="49.394700983539224" lon="4.757949030026794">
        <ele>162.12</ele>
        <time>2018-07-10T12:39:56Z</time>
      </trkpt>
      <trkpt lat="49.394153980538249" lon="4.760243995115161">
        <ele>166.93000000000001</ele>
        <time>2018-07-10T12:40:03Z</time>
      </trkpt>
      <trkpt lat="49.393088975921273" lon="4.764450034126639">
        <ele>180.87</ele>
        <time>2018-07-10T12:40:16Z</time>
      </trkpt>
      <trkpt lat="49.391930010169744" lon="4.766700994223356">
        <ele>182.78999999999999</ele>
        <time>2018-07-10T12:40:24Z</time>
      </trkpt>
      <trkpt lat="49.391130963340402" lon="4.768337979912758">
        <ele>182.78999999999999</ele>
        <time>2018-07-10T12:40:30Z</time>
      </trkpt>
      <trkpt lat="49.391044965013862" lon="4.768628999590874">
        <ele>183.27000000000001</ele>
        <time>2018-07-10T12:40:31Z</time>
      </trkpt>
      <trkpt lat="49.390965001657605" lon="4.768925970420241">
        <ele>183.75</ele>
        <time>2018-07-10T12:40:32Z</time>
      </trkpt>
      <trkpt lat="49.390931976959109" lon="4.769245991483331">
        <ele>184.22999999999999</ele>
        <time>2018-07-10T12:40:33Z</time>
      </trkpt>
      <trkpt lat="49.390898030251265" lon="4.769568024203181">
        <ele>185.19</ele>
        <time>2018-07-10T12:40:34Z</time>
      </trkpt>
      <trkpt lat="49.390862993896008" lon="4.769912017509341">
        <ele>185.66999999999999</ele>
        <time>2018-07-10T12:40:35Z</time>
      </trkpt>
      <trkpt lat="49.390873974189162" lon="4.770203037187457">
        <ele>186.63</ele>
        <time>2018-07-10T12:40:36Z</time>
      </trkpt>
      <trkpt lat="49.390896018594503" lon="4.770502019673586">
        <ele>187.11000000000001</ele>
        <time>2018-07-10T12:40:37Z</time>
      </trkpt>
      <trkpt lat="49.390958966687322" lon="4.770776024088264">
        <ele>188.08000000000001</ele>
        <time>2018-07-10T12:40:38Z</time>
      </trkpt>
      <trkpt lat="49.391021998599172" lon="4.77104801684618">
        <ele>188.56</ele>
        <time>2018-07-10T12:40:39Z</time>
      </trkpt>
      <trkpt lat="49.391084024682641" lon="4.771322021260858">
        <ele>189.52000000000001</ele>
        <time>2018-07-10T12:40:40Z</time>
      </trkpt>
      <trkpt lat="49.391163988038898" lon="4.771581022068858">
        <ele>190</ele>
        <time>2018-07-10T12:40:41Z</time>
      </trkpt>
      <trkpt lat="49.391268007457256" lon="4.771828036755323">
        <ele>190.96000000000001</ele>
        <time>2018-07-10T12:40:42Z</time>
      </trkpt>
      <trkpt lat="49.392082979902625" lon="4.773142989724875">
        <ele>193.36000000000001</ele>
        <time>2018-07-10T12:40:48Z</time>
      </trkpt>
      <trkpt lat="49.392962995916605" lon="4.774405974894762">
        <ele>195.77000000000001</ele>
        <time>2018-07-10T12:40:56Z</time>
      </trkpt>
      <trkpt lat="49.393301038071513" lon="4.774914002045989">
        <ele>195.28</ele>
        <time>2018-07-10T12:41:00Z</time>
      </trkpt>
      <trkpt lat="49.393343031406403" lon="4.775052974000573">
        <ele>194.80000000000001</ele>
        <time>2018-07-10T12:41:01Z</time>
      </trkpt>
      <trkpt lat="49.393383013084531" lon="4.775188006460667">
        <ele>194.31999999999999</ele>
        <time>2018-07-10T12:41:02Z</time>
      </trkpt>
      <trkpt lat="49.393402962014079" lon="4.775353968143463">
        <ele>193.84</ele>
        <time>2018-07-10T12:41:03Z</time>
      </trkpt>
      <trkpt lat="49.393371026962996" lon="4.77549696341157">
        <ele>193.84</ele>
        <time>2018-07-10T12:41:04Z</time>
      </trkpt>
      <trkpt lat="49.393336996436119" lon="4.775644987821579">
        <ele>193.36000000000001</ele>
        <time>2018-07-10T12:41:05Z</time>
      </trkpt>
      <trkpt lat="49.393288968130946" lon="4.775799969211221">
        <ele>193.36000000000001</ele>
        <time>2018-07-10T12:41:06Z</time>
      </trkpt>
      <trkpt lat="49.39321001060307" lon="4.775917986407876">
        <ele>193.84</ele>
        <time>2018-07-10T12:41:07Z</time>
      </trkpt>
      <trkpt lat="49.393130969256163" lon="4.776037009432912">
        <ele>193.84</ele>
        <time>2018-07-10T12:41:08Z</time>
      </trkpt>
      <trkpt lat="49.393045976758003" lon="4.776163995265961">
        <ele>193.84</ele>
        <time>2018-07-10T12:41:09Z</time>
      </trkpt>
      <trkpt lat="49.391998993232846" lon="4.777610963210464">
        <ele>192.40000000000001</ele>
        <time>2018-07-10T12:41:19Z</time>
      </trkpt>
      <trkpt lat="49.390591001138091" lon="4.779549026861787">
        <ele>189.52000000000001</ele>
        <time>2018-07-10T12:41:30Z</time>
      </trkpt>
      <trkpt lat="49.388672970235348" lon="4.782058987766504">
        <ele>187.59</ele>
        <time>2018-07-10T12:41:42Z</time>
      </trkpt>
      <trkpt lat="49.387364974245429" lon="4.783077975735068">
        <ele>188.08000000000001</ele>
        <time>2018-07-10T12:41:49Z</time>
      </trkpt>
      <trkpt lat="49.384868005290627" lon="4.783659009262919">
        <ele>194.31999999999999</ele>
        <time>2018-07-10T12:42:01Z</time>
      </trkpt>
      <trkpt lat="49.381945990025997" lon="4.784273989498615">
        <ele>191.44</ele>
        <time>2018-07-10T12:42:14Z</time>
      </trkpt>
      <trkpt lat="49.379296973347664" lon="4.784819986671209">
        <ele>189.52000000000001</ele>
        <time>2018-07-10T12:42:26Z</time>
      </trkpt>
      <trkpt lat="49.37875097617507" lon="4.784771036356688">
        <ele>190.47999999999999</ele>
        <time>2018-07-10T12:42:29Z</time>
      </trkpt>
      <trkpt lat="49.378576967865229" lon="4.784724013879895">
        <ele>190.96000000000001</ele>
        <time>2018-07-10T12:42:30Z</time>
      </trkpt>
      <trkpt lat="49.378405977040529" lon="4.784642960876226">
        <ele>191.44</ele>
        <time>2018-07-10T12:42:31Z</time>
      </trkpt>
      <trkpt lat="49.378228029236197" lon="4.784557968378067">
        <ele>191.91999999999999</ele>
        <time>2018-07-10T12:42:32Z</time>
      </trkpt>
      <trkpt lat="49.378053015097976" lon="4.784425031393766">
        <ele>192.40000000000001</ele>
        <time>2018-07-10T12:42:33Z</time>
      </trkpt>
      <trkpt lat="49.377879006788135" lon="4.78428496979177">
        <ele>192.40000000000001</ele>
        <time>2018-07-10T12:42:34Z</time>
      </trkpt>
      <trkpt lat="49.375479016453028" lon="4.782362999394536">
        <ele>196.72999999999999</ele>
        <time>2018-07-10T12:42:47Z</time>
      </trkpt>
      <trkpt lat="49.373888969421387" lon="4.78144601918757">
        <ele>194.80000000000001</ele>
        <time>2018-07-10T12:42:56Z</time>
      </trkpt>
      <trkpt lat="49.373716972768307" lon="4.781402014195919">
        <ele>194.80000000000001</ele>
        <time>2018-07-10T12:42:57Z</time>
      </trkpt>
      <trkpt lat="49.373533995822072" lon="4.781377036124468">
        <ele>195.28</ele>
        <time>2018-07-10T12:42:58Z</time>
      </trkpt>
      <trkpt lat="49.372093984857202" lon="4.781531011685729">
        <ele>197.21000000000001</ele>
        <time>2018-07-10T12:43:05Z</time>
      </trkpt>
      <trkpt lat="49.370569987222552" lon="4.782451009377837">
        <ele>194.80000000000001</ele>
        <time>2018-07-10T12:43:12Z</time>
      </trkpt>
      <trkpt lat="49.368148036301136" lon="4.784224033355713">
        <ele>189.03999999999999</ele>
        <time>2018-07-10T12:43:24Z</time>
      </trkpt>
      <trkpt lat="49.365946026518941" lon="4.785845009610057">
        <ele>183.75</ele>
        <time>2018-07-10T12:43:35Z</time>
      </trkpt>
      <trkpt lat="49.363991031423211" lon="4.78746397420764">
        <ele>186.63</ele>
        <time>2018-07-10T12:43:45Z</time>
      </trkpt>
      <trkpt lat="49.362714970484376" lon="4.788954025134444">
        <ele>183.75</ele>
        <time>2018-07-10T12:43:52Z</time>
      </trkpt>
      <trkpt lat="49.362352034077048" lon="4.7892049793154">
        <ele>182.78999999999999</ele>
        <time>2018-07-10T12:43:54Z</time>
      </trkpt>
      <trkpt lat="49.362178025767207" lon="4.789275974035263">
        <ele>182.31</ele>
        <time>2018-07-10T12:43:55Z</time>
      </trkpt>
      <trkpt lat="49.361999994143844" lon="4.789335988461971">
        <ele>181.83000000000001</ele>
        <time>2018-07-10T12:43:56Z</time>
      </trkpt>
      <trkpt lat="49.36143396422267" lon="4.789359038695693">
        <ele>181.83000000000001</ele>
        <time>2018-07-10T12:43:59Z</time>
      </trkpt>
      <trkpt lat="49.359814999625087" lon="4.789114035665989">
        <ele>183.75</ele>
        <time>2018-07-10T12:44:07Z</time>
      </trkpt>
      <trkpt lat="49.35857598669827" lon="4.789081010967493">
        <ele>184.71000000000001</ele>
        <time>2018-07-10T12:44:13Z</time>
      </trkpt>
      <trkpt lat="49.358355961740017" lon="4.789141025394201">
        <ele>184.71000000000001</ele>
        <time>2018-07-10T12:44:14Z</time>
      </trkpt>
      <trkpt lat="49.356161998584867" lon="4.79010502807796">
        <ele>180.38</ele>
        <time>2018-07-10T12:44:24Z</time>
      </trkpt>
      <trkpt lat="49.353600991889834" lon="4.791228035464883">
        <ele>179.90000000000001</ele>
        <time>2018-07-10T12:44:36Z</time>
      </trkpt>
      <trkpt lat="49.352354016155005" lon="4.791772020980716">
        <ele>177.02000000000001</ele>
        <time>2018-07-10T12:44:43Z</time>
      </trkpt>
      <trkpt lat="49.351233020424843" lon="4.792446009814739">
        <ele>172.69</ele>
        <time>2018-07-10T12:44:51Z</time>
      </trkpt>
      <trkpt lat="49.351135035976768" lon="4.792507030069828">
        <ele>172.21000000000001</ele>
        <time>2018-07-10T12:44:52Z</time>
      </trkpt>
      <trkpt lat="49.350993968546391" lon="4.792398987337947">
        <ele>171.72999999999999</ele>
        <time>2018-07-10T12:44:53Z</time>
      </trkpt>
      <trkpt lat="49.350950969383121" lon="4.792398987337947">
        <ele>171.25</ele>
        <time>2018-07-10T12:44:54Z</time>
      </trkpt>
      <trkpt lat="49.350876035168767" lon="4.792456990107894">
        <ele>171.25</ele>
        <time>2018-07-10T12:44:55Z</time>
      </trkpt>
      <trkpt lat="49.350839992985129" lon="4.792522033676505">
        <ele>171.25</ele>
        <time>2018-07-10T12:44:56Z</time>
      </trkpt>
      <trkpt lat="49.350801017135382" lon="4.792596967890859">
        <ele>171.25</ele>
        <time>2018-07-10T12:44:57Z</time>
      </trkpt>
      <trkpt lat="49.350801017135382" lon="4.792681038379669">
        <ele>171.25</ele>
        <time>2018-07-10T12:44:58Z</time>
      </trkpt>
      <trkpt lat="49.350801017135382" lon="4.792721020057797">
        <ele>171.72999999999999</ele>
        <time>2018-07-10T12:44:59Z</time>
      </trkpt>
      <trkpt lat="49.350887015461922" lon="4.792927969247103">
        <ele>171.72999999999999</ele>
        <time>2018-07-10T12:45:00Z</time>
      </trkpt>
      <trkpt lat="49.350844016298652" lon="4.793085968121886">
        <ele>171.72999999999999</ele>
        <time>2018-07-10T12:45:01Z</time>
      </trkpt>
      <trkpt lat="49.350827001035213" lon="4.793175989761949">
        <ele>171.72999999999999</ele>
        <time>2018-07-10T12:45:02Z</time>
      </trkpt>
      <trkpt lat="49.350794982165098" lon="4.793343041092157">
        <ele>170.77000000000001</ele>
        <time>2018-07-10T12:45:03Z</time>
      </trkpt>
      <trkpt lat="49.350592978298664" lon="4.79457501322031">
        <ele>163.56</ele>
        <time>2018-07-10T12:45:09Z</time>
      </trkpt>
      <trkpt lat="49.350445037707686" lon="4.796694964170456">
        <ele>152.03</ele>
        <time>2018-07-10T12:45:18Z</time>
      </trkpt>
      <trkpt lat="49.350155023857951" lon="4.798725983127952">
        <ele>144.34</ele>
        <time>2018-07-10T12:45:26Z</time>
      </trkpt>
      <trkpt lat="49.349722014740109" lon="4.801829969510436">
        <ele>134.72</ele>
        <time>2018-07-10T12:45:38Z</time>
      </trkpt>
      <trkpt lat="49.349493021145463" lon="4.804492983967066">
        <ele>125.11</ele>
        <time>2018-07-10T12:45:47Z</time>
      </trkpt>
      <trkpt lat="49.349485980346799" lon="4.807270998135209">
        <ele>115.98</ele>
        <time>2018-07-10T12:45:56Z</time>
      </trkpt>
      <trkpt lat="49.349438035860658" lon="4.807540979236364">
        <ele>115.01000000000001</ele>
        <time>2018-07-10T12:45:57Z</time>
      </trkpt>
      <trkpt lat="49.349378021433949" lon="4.807807020843029">
        <ele>115.01000000000001</ele>
        <time>2018-07-10T12:45:58Z</time>
      </trkpt>
      <trkpt lat="49.348515020683408" lon="4.810306001454592">
        <ele>118.38</ele>
        <time>2018-07-10T12:46:07Z</time>
      </trkpt>
      <trkpt lat="49.347698958590627" lon="4.812310030683875">
        <ele>124.63</ele>
        <time>2018-07-10T12:46:15Z</time>
      </trkpt>
      <trkpt lat="49.346626996994019" lon="4.8136539850384">
        <ele>126.06999999999999</ele>
        <time>2018-07-10T12:46:22Z</time>
      </trkpt>
      <trkpt lat="49.345070980489254" lon="4.81552398763597">
        <ele>131.36000000000001</ele>
        <time>2018-07-10T12:46:32Z</time>
      </trkpt>
      <trkpt lat="49.344777027145028" lon="4.816321022808552">
        <ele>134.72</ele>
        <time>2018-07-10T12:46:35Z</time>
      </trkpt>
      <trkpt lat="49.344720030203462" lon="4.816611958667636">
        <ele>136.16</ele>
        <time>2018-07-10T12:46:36Z</time>
      </trkpt>
      <trkpt lat="49.344664039090276" lon="4.81689996086061">
        <ele>137.13</ele>
        <time>2018-07-10T12:46:37Z</time>
      </trkpt>
      <trkpt lat="49.344634031876922" lon="4.817187963053584">
        <ele>138.09</ele>
        <time>2018-07-10T12:46:38Z</time>
      </trkpt>
      <trkpt lat="49.344621039927006" lon="4.817483006045222">
        <ele>138.56999999999999</ele>
        <time>2018-07-10T12:46:39Z</time>
      </trkpt>
      <trkpt lat="49.344621039927006" lon="4.817778971046209">
        <ele>139.53</ele>
        <time>2018-07-10T12:46:40Z</time>
      </trkpt>
      <trkpt lat="49.344633026048541" lon="4.818075019866228">
        <ele>140.00999999999999</ele>
        <time>2018-07-10T12:46:41Z</time>
      </trkpt>
      <trkpt lat="49.344676025211811" lon="4.818368973210454">
        <ele>140.97</ele>
        <time>2018-07-10T12:46:42Z</time>
      </trkpt>
      <trkpt lat="49.344724975526333" lon="4.818663010373712">
        <ele>141.93000000000001</ele>
        <time>2018-07-10T12:46:43Z</time>
      </trkpt>
      <trkpt lat="49.345229985192418" lon="4.821053026244044">
        <ele>148.66</ele>
        <time>2018-07-10T12:46:51Z</time>
      </trkpt>
      <trkpt lat="49.345303997397423" lon="4.821640010923147">
        <ele>149.62</ele>
        <time>2018-07-10T12:46:53Z</time>
      </trkpt>
      <trkpt lat="49.345331992954016" lon="4.821938993409276">
        <ele>150.09999999999999</ele>
        <time>2018-07-10T12:46:54Z</time>
      </trkpt>
      <trkpt lat="49.345302991569042" lon="4.822837030515075">
        <ele>150.58000000000001</ele>
        <time>2018-07-10T12:46:57Z</time>
      </trkpt>
      <trkpt lat="49.344865037128329" lon="4.824581975117326">
        <ele>152.03</ele>
        <time>2018-07-10T12:47:03Z</time>
      </trkpt>
      <trkpt lat="49.344756994396448" lon="4.824875006452203">
        <ele>152.99000000000001</ele>
        <time>2018-07-10T12:47:04Z</time>
      </trkpt>
      <trkpt lat="49.344648029655218" lon="4.82517097145319">
        <ele>152.99000000000001</ele>
        <time>2018-07-10T12:47:05Z</time>
      </trkpt>
      <trkpt lat="49.343532985076308" lon="4.828130034729838">
        <ele>154.91</ele>
        <time>2018-07-10T12:47:15Z</time>
      </trkpt>
      <trkpt lat="49.342317022383213" lon="4.831410963088274">
        <ele>160.19999999999999</ele>
        <time>2018-07-10T12:47:26Z</time>
      </trkpt>
      <trkpt lat="49.341502971947193" lon="4.833543989807367">
        <ele>157.31</ele>
        <time>2018-07-10T12:47:34Z</time>
      </trkpt>
      <trkpt lat="49.340983964502811" lon="4.835534021258354">
        <ele>152.50999999999999</ele>
        <time>2018-07-10T12:47:42Z</time>
      </trkpt>
      <trkpt lat="49.340879023075104" lon="4.838157976046205">
        <ele>143.84999999999999</ele>
        <time>2018-07-10T12:47:50Z</time>
      </trkpt>
      <trkpt lat="49.340771986171603" lon="4.841278977692127">
        <ele>128.94999999999999</ele>
        <time>2018-07-10T12:47:59Z</time>
      </trkpt>
      <trkpt lat="49.340619016438723" lon="4.845703030005097">
        <ele>116.45999999999999</ele>
        <time>2018-07-10T12:48:12Z</time>
      </trkpt>
      <trkpt lat="49.340408965945244" lon="4.851836990565062">
        <ele>124.15000000000001</ele>
        <time>2018-07-10T12:48:30Z</time>
      </trkpt>
      <trkpt lat="49.340212997049093" lon="4.857348008081317">
        <ele>129.43000000000001</ele>
        <time>2018-07-10T12:48:46Z</time>
      </trkpt>
      <trkpt lat="49.340109983459115" lon="4.86025501973927">
        <ele>127.98999999999999</ele>
        <time>2018-07-10T12:48:55Z</time>
      </trkpt>
      <trkpt lat="49.340049969032407" lon="4.861940033733845">
        <ele>124.63</ele>
        <time>2018-07-10T12:49:02Z</time>
      </trkpt>
      <trkpt lat="49.340045023709536" lon="4.862151006236672">
        <ele>123.67</ele>
        <time>2018-07-10T12:49:03Z</time>
      </trkpt>
      <trkpt lat="49.33999297209084" lon="4.863761002197862">
        <ele>121.26000000000001</ele>
        <time>2018-07-10T12:49:12Z</time>
      </trkpt>
      <trkpt lat="49.339936980977654" lon="4.865437969565392">
        <ele>125.59</ele>
        <time>2018-07-10T12:49:23Z</time>
      </trkpt>
      <trkpt lat="49.339933963492513" lon="4.865594962611795">
        <ele>126.06999999999999</ele>
        <time>2018-07-10T12:49:24Z</time>
      </trkpt>
      <trkpt lat="49.339912002906203" lon="4.866759963333607">
        <ele>126.55</ele>
        <time>2018-07-10T12:49:32Z</time>
      </trkpt>
      <trkpt lat="49.339908985421062" lon="4.866912011057138">
        <ele>126.55</ele>
        <time>2018-07-10T12:49:33Z</time>
      </trkpt>
      <trkpt lat="49.340009987354279" lon="4.868427040055394">
        <ele>126.06999999999999</ele>
        <time>2018-07-10T12:49:44Z</time>
      </trkpt>
      <trkpt lat="49.340036977082491" lon="4.868685035035014">
        <ele>126.55</ele>
        <time>2018-07-10T12:49:46Z</time>
      </trkpt>
      <trkpt lat="49.340049969032407" lon="4.868813026696444">
        <ele>126.55</ele>
        <time>2018-07-10T12:49:47Z</time>
      </trkpt>
      <trkpt lat="49.340192964300513" lon="4.869811981916428">
        <ele>125.59</ele>
        <time>2018-07-10T12:49:55Z</time>
      </trkpt>
      <trkpt lat="49.340221965685487" lon="4.869947014376521">
        <ele>125.11</ele>
        <time>2018-07-10T12:49:56Z</time>
      </trkpt>
      <trkpt lat="49.340252978727221" lon="4.870066037401557">
        <ele>125.11</ele>
        <time>2018-07-10T12:49:57Z</time>
      </trkpt>
      <trkpt lat="49.340530000627041" lon="4.871061975136399">
        <ele>121.26000000000001</ele>
        <time>2018-07-10T12:50:05Z</time>
      </trkpt>
      <trkpt lat="49.340580040588975" lon="4.871174963191152">
        <ele>120.78</ele>
        <time>2018-07-10T12:50:06Z</time>
      </trkpt>
      <trkpt lat="49.340952029451728" lon="4.871706962585449">
        <ele>118.38</ele>
        <time>2018-07-10T12:50:12Z</time>
      </trkpt>
      <trkpt lat="49.341274984180927" lon="4.872089009732008">
        <ele>116.94</ele>
        <time>2018-07-10T12:50:17Z</time>
      </trkpt>
      <trkpt lat="49.341338016092777" lon="4.872163021937013">
        <ele>116.94</ele>
        <time>2018-07-10T12:50:18Z</time>
      </trkpt>
      <trkpt lat="49.34147397056222" lon="4.872291013598442">
        <ele>116.45999999999999</ele>
        <time>2018-07-10T12:50:20Z</time>
      </trkpt>
      <trkpt lat="49.341715034097433" lon="4.87241699360311">
        <ele>115.98</ele>
        <time>2018-07-10T12:50:23Z</time>
      </trkpt>
      <trkpt lat="49.341797009110451" lon="4.872458986938">
        <ele>115.5</ele>
        <time>2018-07-10T12:50:24Z</time>
      </trkpt>
      <trkpt lat="49.34196799993515" lon="4.872529981657863">
        <ele>115.01000000000001</ele>
        <time>2018-07-10T12:50:26Z</time>
      </trkpt>
      <trkpt lat="49.342146031558514" lon="4.872558983042836">
        <ele>115.01000000000001</ele>
        <time>2018-07-10T12:50:28Z</time>
      </trkpt>
      <trkpt lat="49.343117997050285" lon="4.872712958604097">
        <ele>116.94</ele>
        <time>2018-07-10T12:50:37Z</time>
      </trkpt>
      <trkpt lat="49.344370001927018" lon="4.873003978282213">
        <ele>117.90000000000001</ele>
        <time>2018-07-10T12:50:46Z</time>
      </trkpt>
      <trkpt lat="49.345610020682216" lon="4.873592974618077">
        <ele>119.34</ele>
        <time>2018-07-10T12:50:53Z</time>
      </trkpt>
      <trkpt lat="49.347215993329883" lon="4.874781025573611">
        <ele>120.78</ele>
        <time>2018-07-10T12:51:01Z</time>
      </trkpt>
      <trkpt lat="49.348171027377248" lon="4.875677973031998">
        <ele>121.73999999999999</ele>
        <time>2018-07-10T12:51:06Z</time>
      </trkpt>
      <trkpt lat="49.348340006545186" lon="4.875913001596928">
        <ele>121.73999999999999</ele>
        <time>2018-07-10T12:51:07Z</time>
      </trkpt>
      <trkpt lat="49.349381038919091" lon="4.8781300149858">
        <ele>121.73999999999999</ele>
        <time>2018-07-10T12:51:15Z</time>
      </trkpt>
      <trkpt lat="49.349929969757795" lon="4.880735026672483">
        <ele>122.70999999999999</ele>
        <time>2018-07-10T12:51:23Z</time>
      </trkpt>
      <trkpt lat="49.349910020828247" lon="4.882803009822965">
        <ele>122.22</ele>
        <time>2018-07-10T12:51:29Z</time>
      </trkpt>
      <trkpt lat="49.349424038082361" lon="4.885446997359395">
        <ele>121.26000000000001</ele>
        <time>2018-07-10T12:51:37Z</time>
      </trkpt>
      <trkpt lat="49.348296001553535" lon="4.888428021222353">
        <ele>120.78</ele>
        <time>2018-07-10T12:51:47Z</time>
      </trkpt>
      <trkpt lat="49.34643697924912" lon="4.893118031322956">
        <ele>121.26000000000001</ele>
        <time>2018-07-10T12:52:03Z</time>
      </trkpt>
      <trkpt lat="49.344426998868585" lon="4.897608971223235">
        <ele>129.43000000000001</ele>
        <time>2018-07-10T12:52:19Z</time>
      </trkpt>
      <trkpt lat="49.343174993991852" lon="4.899506969377399">
        <ele>141.44999999999999</ele>
        <time>2018-07-10T12:52:27Z</time>
      </trkpt>
      <trkpt lat="49.342391034588218" lon="4.901582999154925">
        <ele>152.03</ele>
        <time>2018-07-10T12:52:34Z</time>
      </trkpt>
      <trkpt lat="49.341169958934188" lon="4.906072011217475">
        <ele>162.12</ele>
        <time>2018-07-10T12:52:48Z</time>
      </trkpt>
      <trkpt lat="49.340331014245749" lon="4.908134965226054">
        <ele>162.12</ele>
        <time>2018-07-10T12:52:55Z</time>
      </trkpt>
      <trkpt lat="49.339660964906216" lon="4.909516973420978">
        <ele>160.68000000000001</ele>
        <time>2018-07-10T12:53:00Z</time>
      </trkpt>
      <trkpt lat="49.339200966060162" lon="4.911125963553786">
        <ele>160.68000000000001</ele>
        <time>2018-07-10T12:53:06Z</time>
      </trkpt>
      <trkpt lat="49.338811039924622" lon="4.912617020308971">
        <ele>157.78999999999999</ele>
        <time>2018-07-10T12:53:13Z</time>
      </trkpt>
      <trkpt lat="49.338066978380084" lon="4.915318004786968">
        <ele>151.06</ele>
        <time>2018-07-10T12:53:23Z</time>
      </trkpt>
      <trkpt lat="49.337272960692644" lon="4.918146980926395">
        <ele>142.41</ele>
        <time>2018-07-10T12:53:32Z</time>
      </trkpt>
      <trkpt lat="49.336478020995855" lon="4.921000013127923">
        <ele>133.28</ele>
        <time>2018-07-10T12:53:41Z</time>
      </trkpt>
      <trkpt lat="49.335562968626618" lon="4.92486197501421">
        <ele>127.51000000000001</ele>
        <time>2018-07-10T12:53:53Z</time>
      </trkpt>
      <trkpt lat="49.334803987294436" lon="4.928422020748258">
        <ele>126.55</ele>
        <time>2018-07-10T12:54:04Z</time>
      </trkpt>
      <trkpt lat="49.333686009049416" lon="4.933654004707933">
        <ele>129.91999999999999</ele>
        <time>2018-07-10T12:54:20Z</time>
      </trkpt>
      <trkpt lat="49.333129031583667" lon="4.936263961717486">
        <ele>132.80000000000001</ele>
        <time>2018-07-10T12:54:29Z</time>
      </trkpt>
      <trkpt lat="49.332947982475162" lon="4.93725998327136">
        <ele>133.75999999999999</ele>
        <time>2018-07-10T12:54:34Z</time>
      </trkpt>
      <trkpt lat="49.332972038537264" lon="4.937611017376185">
        <ele>134.24000000000001</ele>
        <time>2018-07-10T12:54:36Z</time>
      </trkpt>
      <trkpt lat="49.33316096663475" lon="4.939954010769725">
        <ele>135.19999999999999</ele>
        <time>2018-07-10T12:54:49Z</time>
      </trkpt>
      <trkpt lat="49.333285018801689" lon="4.941884027794004">
        <ele>134.24000000000001</ele>
        <time>2018-07-10T12:54:58Z</time>
      </trkpt>
      <trkpt lat="49.333169013261795" lon="4.94411202147603">
        <ele>133.28</ele>
        <time>2018-07-10T12:55:05Z</time>
      </trkpt>
      <trkpt lat="49.33294303715229" lon="4.947883039712906">
        <ele>130.40000000000001</ele>
        <time>2018-07-10T12:55:16Z</time>
      </trkpt>
      <trkpt lat="49.332349011674523" lon="4.951884979382157">
        <ele>129.91999999999999</ele>
        <time>2018-07-10T12:55:28Z</time>
      </trkpt>
      <trkpt lat="49.331346033141017" lon="4.954174999147654">
        <ele>129.43000000000001</ele>
        <time>2018-07-10T12:55:36Z</time>
      </trkpt>
      <trkpt lat="49.330440033227205" lon="4.956101998686791">
        <ele>131.36000000000001</ele>
        <time>2018-07-10T12:55:43Z</time>
      </trkpt>
      <trkpt lat="49.330302989110351" lon="4.956326968967915">
        <ele>131.84</ele>
        <time>2018-07-10T12:55:44Z</time>
      </trkpt>
      <trkpt lat="49.330155970528722" lon="4.956516986712813">
        <ele>131.84</ele>
        <time>2018-07-10T12:55:45Z</time>
      </trkpt>
      <trkpt lat="49.330005012452602" lon="4.956678003072739">
        <ele>132.31999999999999</ele>
        <time>2018-07-10T12:55:46Z</time>
      </trkpt>
      <trkpt lat="49.329845001921058" lon="4.956823009997606">
        <ele>132.31999999999999</ele>
        <time>2018-07-10T12:55:47Z</time>
      </trkpt>
      <trkpt lat="49.329674011096358" lon="4.95696097612381">
        <ele>132.31999999999999</ele>
        <time>2018-07-10T12:55:48Z</time>
      </trkpt>
      <trkpt lat="49.327749023213983" lon="4.958497965708375">
        <ele>131.36000000000001</ele>
        <time>2018-07-10T12:55:58Z</time>
      </trkpt>
      <trkpt lat="49.324339013546705" lon="4.961165003478527">
        <ele>132.80000000000001</ele>
        <time>2018-07-10T12:56:15Z</time>
      </trkpt>
      <trkpt lat="49.321324964985251" lon="4.963526017963886">
        <ele>129.91999999999999</ele>
        <time>2018-07-10T12:56:30Z</time>
      </trkpt>
      <trkpt lat="49.318393981084228" lon="4.965820983052254">
        <ele>131.84</ele>
        <time>2018-07-10T12:56:45Z</time>
      </trkpt>
      <trkpt lat="49.316143020987511" lon="4.967585038393736">
        <ele>135.19999999999999</ele>
        <time>2018-07-10T12:56:58Z</time>
      </trkpt>
      <trkpt lat="49.314293973147869" lon="4.968667980283499">
        <ele>136.16</ele>
        <time>2018-07-10T12:57:07Z</time>
      </trkpt>
      <trkpt lat="49.311272967606783" lon="4.970115032047033">
        <ele>136.63999999999999</ele>
        <time>2018-07-10T12:57:21Z</time>
      </trkpt>
      <trkpt lat="49.311046991497278" lon="4.970145961269736">
        <ele>136.63999999999999</ele>
        <time>2018-07-10T12:57:22Z</time>
      </trkpt>
      <trkpt lat="49.310828978195786" lon="4.970111008733511">
        <ele>136.63999999999999</ele>
        <time>2018-07-10T12:57:23Z</time>
      </trkpt>
      <trkpt lat="49.3086869828403" lon="4.969781013205648">
        <ele>135.19999999999999</ele>
        <time>2018-07-10T12:57:33Z</time>
      </trkpt>
      <trkpt lat="49.307727003470063" lon="4.969624020159245">
        <ele>134.24000000000001</ele>
        <time>2018-07-10T12:57:40Z</time>
      </trkpt>
      <trkpt lat="49.306209962815046" lon="4.969384968280792">
        <ele>132.80000000000001</ele>
        <time>2018-07-10T12:57:52Z</time>
      </trkpt>
      <trkpt lat="49.305725991725922" lon="4.969473984092474">
        <ele>132.31999999999999</ele>
        <time>2018-07-10T12:57:56Z</time>
      </trkpt>
      <trkpt lat="49.305605962872505" lon="4.969524024054408">
        <ele>131.84</ele>
        <time>2018-07-10T12:57:57Z</time>
      </trkpt>
      <trkpt lat="49.305481994524598" lon="4.969574986025691">
        <ele>131.36000000000001</ele>
        <time>2018-07-10T12:57:58Z</time>
      </trkpt>
      <trkpt lat="49.305381998419762" lon="4.969656961038709">
        <ele>131.36000000000001</ele>
        <time>2018-07-10T12:57:59Z</time>
      </trkpt>
      <trkpt lat="49.305274039506912" lon="4.969743965193629">
        <ele>130.88</ele>
        <time>2018-07-10T12:58:00Z</time>
      </trkpt>
      <trkpt lat="49.303836040198803" lon="4.970936961472035">
        <ele>127.51000000000001</ele>
        <time>2018-07-10T12:58:13Z</time>
      </trkpt>
      <trkpt lat="49.30282099172473" lon="4.971787976101041">
        <ele>126.55</ele>
        <time>2018-07-10T12:58:19Z</time>
      </trkpt>
      <trkpt lat="49.300947971642017" lon="4.973078034818173">
        <ele>127.51000000000001</ele>
        <time>2018-07-10T12:58:28Z</time>
      </trkpt>
      <trkpt lat="49.29717100225389" lon="4.974214034155011">
        <ele>131.84</ele>
        <time>2018-07-10T12:58:45Z</time>
      </trkpt>
      <trkpt lat="49.29502003826201" lon="4.975189017131925">
        <ele>136.16</ele>
        <time>2018-07-10T12:58:55Z</time>
      </trkpt>
      <trkpt lat="49.293366959318519" lon="4.977014008909464">
        <ele>140.97</ele>
        <time>2018-07-10T12:59:04Z</time>
      </trkpt>
      <trkpt lat="49.290663041174412" lon="4.979999978095293">
        <ele>153.94999999999999</ele>
        <time>2018-07-10T12:59:19Z</time>
      </trkpt>
      <trkpt lat="49.28898498415947" lon="4.981002034619451">
        <ele>165.47999999999999</ele>
        <time>2018-07-10T12:59:27Z</time>
      </trkpt>
      <trkpt lat="49.28578301332891" lon="4.982669027522206">
        <ele>171.72999999999999</ele>
        <time>2018-07-10T12:59:42Z</time>
      </trkpt>
      <trkpt lat="49.283788036555052" lon="4.983701007440686">
        <ele>167.41</ele>
        <time>2018-07-10T12:59:52Z</time>
      </trkpt>
      <trkpt lat="49.280730988830328" lon="4.985317960381508">
        <ele>170.77000000000001</ele>
        <time>2018-07-10T13:00:08Z</time>
      </trkpt>
      <trkpt lat="49.279283015057445" lon="4.986461000517011">
        <ele>167.41</ele>
        <time>2018-07-10T13:00:16Z</time>
      </trkpt>
      <trkpt lat="49.277247972786427" lon="4.989224011078477">
        <ele>153.47</ele>
        <time>2018-07-10T13:00:29Z</time>
      </trkpt>
      <trkpt lat="49.275164986029267" lon="4.992090035229921">
        <ele>140.97</ele>
        <time>2018-07-10T13:00:43Z</time>
      </trkpt>
      <trkpt lat="49.274115990847349" lon="4.993447987362742">
        <ele>135.19999999999999</ele>
        <time>2018-07-10T13:00:50Z</time>
      </trkpt>
      <trkpt lat="49.272862980142236" lon="4.994527995586395">
        <ele>135.19999999999999</ele>
        <time>2018-07-10T13:00:57Z</time>
      </trkpt>
      <trkpt lat="49.27115298807621" lon="4.995819982141256">
        <ele>136.63999999999999</ele>
        <time>2018-07-10T13:01:08Z</time>
      </trkpt>
      <trkpt lat="49.270161995664239" lon="4.996821032837033">
        <ele>137.61000000000001</ele>
        <time>2018-07-10T13:01:16Z</time>
      </trkpt>
      <trkpt lat="49.270108016207814" lon="4.996880041435361">
        <ele>138.09</ele>
        <time>2018-07-10T13:01:17Z</time>
      </trkpt>
      <trkpt lat="49.27007700316608" lon="4.99696503393352">
        <ele>138.56999999999999</ele>
        <time>2018-07-10T13:01:18Z</time>
      </trkpt>
      <trkpt lat="49.27007700316608" lon="4.997061006724834">
        <ele>139.05000000000001</ele>
        <time>2018-07-10T13:01:19Z</time>
      </trkpt>
      <trkpt lat="49.27007700316608" lon="4.997188998386264">
        <ele>139.53</ele>
        <time>2018-07-10T13:01:20Z</time>
      </trkpt>
      <trkpt lat="49.270091000944376" lon="4.997339034453034">
        <ele>140.00999999999999</ele>
        <time>2018-07-10T13:01:21Z</time>
      </trkpt>
      <trkpt lat="49.270118996500969" lon="4.997509019449353">
        <ele>140.97</ele>
        <time>2018-07-10T13:01:22Z</time>
      </trkpt>
      <trkpt lat="49.270157972350717" lon="4.997685961425304">
        <ele>141.44999999999999</ele>
        <time>2018-07-10T13:01:23Z</time>
      </trkpt>
      <trkpt lat="49.270223015919328" lon="4.997863993048668">
        <ele>142.41</ele>
        <time>2018-07-10T13:01:24Z</time>
      </trkpt>
      <trkpt lat="49.27029300481081" lon="4.998053004965186">
        <ele>143.84999999999999</ele>
        <time>2018-07-10T13:01:25Z</time>
      </trkpt>
      <trkpt lat="49.270432982593775" lon="4.998432034626603">
        <ele>147.22</ele>
        <time>2018-07-10T13:01:27Z</time>
      </trkpt>
      <trkpt lat="49.270467013120651" lon="4.998632026836276">
        <ele>149.13999999999999</ele>
        <time>2018-07-10T13:01:28Z</time>
      </trkpt>
      <trkpt lat="49.270805977284908" lon="5.000504963099957">
        <ele>164.03999999999999</ele>
        <time>2018-07-10T13:01:36Z</time>
      </trkpt>
      <trkpt lat="49.271231023594737" lon="5.002129040658474">
        <ele>175.58000000000001</ele>
        <time>2018-07-10T13:01:43Z</time>
      </trkpt>
      <trkpt lat="49.271253990009427" lon="5.00235803425312">
        <ele>176.53999999999999</ele>
        <time>2018-07-10T13:01:44Z</time>
      </trkpt>
      <trkpt lat="49.271276034414768" lon="5.002598008140922">
        <ele>177.97999999999999</ele>
        <time>2018-07-10T13:01:45Z</time>
      </trkpt>
      <trkpt lat="49.271369995549321" lon="5.005076033994556">
        <ele>186.15000000000001</ele>
        <time>2018-07-10T13:01:54Z</time>
      </trkpt>
      <trkpt lat="49.271565964445472" lon="5.006742021068931">
        <ele>189.52000000000001</ele>
        <time>2018-07-10T13:02:00Z</time>
      </trkpt>
      <trkpt lat="49.271622039377689" lon="5.006961962208152">
        <ele>189.52000000000001</ele>
        <time>2018-07-10T13:02:01Z</time>
      </trkpt>
      <trkpt lat="49.271679958328605" lon="5.007190033793449">
        <ele>189.52000000000001</ele>
        <time>2018-07-10T13:02:02Z</time>
      </trkpt>
      <trkpt lat="49.271764028817415" lon="5.007423972710967">
        <ele>189.03999999999999</ele>
        <time>2018-07-10T13:02:03Z</time>
      </trkpt>
      <trkpt lat="49.271866036579013" lon="5.007652966305614">
        <ele>188.56</ele>
        <time>2018-07-10T13:02:04Z</time>
      </trkpt>
      <trkpt lat="49.27196997217834" lon="5.007886989042163">
        <ele>188.08000000000001</ele>
        <time>2018-07-10T13:02:05Z</time>
      </trkpt>
      <trkpt lat="49.272272977977991" lon="5.008568018674851">
        <ele>187.59</ele>
        <time>2018-07-10T13:02:08Z</time>
      </trkpt>
      <trkpt lat="49.272331986576319" lon="5.0088020414114">
        <ele>187.11000000000001</ele>
        <time>2018-07-10T13:02:09Z</time>
      </trkpt>
      <trkpt lat="49.272369034588337" lon="5.009052995592356">
        <ele>187.11000000000001</ele>
        <time>2018-07-10T13:02:10Z</time>
      </trkpt>
      <trkpt lat="49.272408010438085" lon="5.009310990571976">
        <ele>186.63</ele>
        <time>2018-07-10T13:02:11Z</time>
      </trkpt>
      <trkpt lat="49.272446986287832" lon="5.009575020521879">
        <ele>186.63</ele>
        <time>2018-07-10T13:02:12Z</time>
      </trkpt>
      <trkpt lat="49.272534996271133" lon="5.010127974674106">
        <ele>185.66999999999999</ele>
        <time>2018-07-10T13:02:14Z</time>
      </trkpt>
      <trkpt lat="49.272606996819377" lon="5.010396027937532">
        <ele>185.66999999999999</ele>
        <time>2018-07-10T13:02:15Z</time>
      </trkpt>
      <trkpt lat="49.272673968225718" lon="5.010644970461726">
        <ele>185.66999999999999</ele>
        <time>2018-07-10T13:02:16Z</time>
      </trkpt>
      <trkpt lat="49.27278402261436" lon="5.010905982926488">
        <ele>185.19</ele>
        <time>2018-07-10T13:02:17Z</time>
      </trkpt>
      <trkpt lat="49.272887036204338" lon="5.011150985956192">
        <ele>185.19</ele>
        <time>2018-07-10T13:02:18Z</time>
      </trkpt>
      <trkpt lat="49.273964026942849" lon="5.013202959671617">
        <ele>182.78999999999999</ele>
        <time>2018-07-10T13:02:27Z</time>
      </trkpt>
      <trkpt lat="49.274259991943836" lon="5.013758009299636">
        <ele>181.83000000000001</ele>
        <time>2018-07-10T13:02:30Z</time>
      </trkpt>
      <trkpt lat="49.274314977228642" lon="5.013933023437858">
        <ele>181.34999999999999</ele>
        <time>2018-07-10T13:02:31Z</time>
      </trkpt>
      <trkpt lat="49.274360993877053" lon="5.014108959585428">
        <ele>181.34999999999999</ele>
        <time>2018-07-10T13:02:32Z</time>
      </trkpt>
      <trkpt lat="49.274397036060691" lon="5.014303000643849">
        <ele>180.87</ele>
        <time>2018-07-10T13:02:33Z</time>
      </trkpt>
      <trkpt lat="49.274435006082058" lon="5.014511039480567">
        <ele>180.38</ele>
        <time>2018-07-10T13:02:34Z</time>
      </trkpt>
      <trkpt lat="49.274464007467031" lon="5.014736009761691">
        <ele>179.90000000000001</ele>
        <time>2018-07-10T13:02:35Z</time>
      </trkpt>
      <trkpt lat="49.274583030492067" lon="5.017012031748891">
        <ele>174.13999999999999</ele>
        <time>2018-07-10T13:02:46Z</time>
      </trkpt>
      <trkpt lat="49.274583030492067" lon="5.018242998048663">
        <ele>177.02000000000001</ele>
        <time>2018-07-10T13:02:54Z</time>
      </trkpt>
      <trkpt lat="49.274583030492067" lon="5.019179005175829">
        <ele>184.71000000000001</ele>
        <time>2018-07-10T13:03:05Z</time>
      </trkpt>
      <trkpt lat="49.274583030492067" lon="5.019252011552453">
        <ele>185.19</ele>
        <time>2018-07-10T13:03:06Z</time>
      </trkpt>
      <trkpt lat="49.274722002446651" lon="5.020310981199145">
        <ele>193.84</ele>
        <time>2018-07-10T13:03:20Z</time>
      </trkpt>
      <trkpt lat="49.274849994108081" lon="5.021020006388426">
        <ele>195.28</ele>
        <time>2018-07-10T13:03:32Z</time>
      </trkpt>
      <trkpt lat="49.27508401684463" lon="5.02182399854064">
        <ele>196.72999999999999</ele>
        <time>2018-07-10T13:03:41Z</time>
      </trkpt>
      <trkpt lat="49.275352992117405" lon="5.022795964032412">
        <ele>198.16999999999999</ele>
        <time>2018-07-10T13:03:46Z</time>
      </trkpt>
      <trkpt lat="49.275394985452294" lon="5.023043984547257">
        <ele>198.16999999999999</ele>
        <time>2018-07-10T13:03:47Z</time>
      </trkpt>
      <trkpt lat="49.275399008765817" lon="5.023315977305174">
        <ele>198.65000000000001</ele>
        <time>2018-07-10T13:03:48Z</time>
      </trkpt>
      <trkpt lat="49.275399008765817" lon="5.02358797006309">
        <ele>199.13</ele>
        <time>2018-07-10T13:03:49Z</time>
      </trkpt>
      <trkpt lat="49.275399008765817" lon="5.023863986134529">
        <ele>199.61000000000001</ele>
        <time>2018-07-10T13:03:50Z</time>
      </trkpt>
      <trkpt lat="49.275382999330759" lon="5.024147965013981">
        <ele>200.09</ele>
        <time>2018-07-10T13:03:51Z</time>
      </trkpt>
      <trkpt lat="49.275313010439277" lon="5.027546994388104">
        <ele>202.00999999999999</ele>
        <time>2018-07-10T13:04:02Z</time>
      </trkpt>
      <trkpt lat="49.27542801015079" lon="5.029568038880825">
        <ele>203.94</ele>
        <time>2018-07-10T13:04:09Z</time>
      </trkpt>
      <trkpt lat="49.27547100931406" lon="5.029782028868794">
        <ele>203.94</ele>
        <time>2018-07-10T13:04:10Z</time>
      </trkpt>
      <trkpt lat="49.27551400847733" lon="5.029999036341906">
        <ele>203.94</ele>
        <time>2018-07-10T13:04:11Z</time>
      </trkpt>
      <trkpt lat="49.275586009025574" lon="5.030212020501494">
        <ele>204.41999999999999</ele>
        <time>2018-07-10T13:04:12Z</time>
      </trkpt>
      <trkpt lat="49.275671001523733" lon="5.030426010489464">
        <ele>204.41999999999999</ele>
        <time>2018-07-10T13:04:13Z</time>
      </trkpt>
      <trkpt lat="49.276793003082275" lon="5.032999003306031">
        <ele>207.78</ele>
        <time>2018-07-10T13:04:24Z</time>
      </trkpt>
      <trkpt lat="49.277239004150033" lon="5.033913971856237">
        <ele>208.25999999999999</ele>
        <time>2018-07-10T13:04:28Z</time>
      </trkpt>
      <trkpt lat="49.277334976941347" lon="5.034146988764405">
        <ele>208.25999999999999</ele>
        <time>2018-07-10T13:04:29Z</time>
      </trkpt>
      <trkpt lat="49.277384011074901" lon="5.03441303037107">
        <ele>208.25999999999999</ele>
        <time>2018-07-10T13:04:30Z</time>
      </trkpt>
      <trkpt lat="49.277435978874564" lon="5.034689968451858">
        <ele>208.25999999999999</ele>
        <time>2018-07-10T13:04:31Z</time>
      </trkpt>
      <trkpt lat="49.27748903632164" lon="5.034979982301593">
        <ele>208.25999999999999</ele>
        <time>2018-07-10T13:04:32Z</time>
      </trkpt>
      <trkpt lat="49.277823977172375" lon="5.036936989054084">
        <ele>207.78</ele>
        <time>2018-07-10T13:04:39Z</time>
      </trkpt>
      <trkpt lat="49.277823977172375" lon="5.037170005962253">
        <ele>207.30000000000001</ele>
        <time>2018-07-10T13:04:40Z</time>
      </trkpt>
      <trkpt lat="49.277798999100924" lon="5.037408974021673">
        <ele>206.81999999999999</ele>
        <time>2018-07-10T13:04:41Z</time>
      </trkpt>
      <trkpt lat="49.277530023828149" lon="5.039047971367836">
        <ele>203.46000000000001</ele>
        <time>2018-07-10T13:04:48Z</time>
      </trkpt>
      <trkpt lat="49.277411000803113" lon="5.039436975494027">
        <ele>202.97999999999999</ele>
        <time>2018-07-10T13:04:50Z</time>
      </trkpt>
      <trkpt lat="49.277331959456205" lon="5.039606038480997">
        <ele>202.49000000000001</ele>
        <time>2018-07-10T13:04:51Z</time>
      </trkpt>
      <trkpt lat="49.277235986664891" lon="5.039759008213878">
        <ele>202.49000000000001</ele>
        <time>2018-07-10T13:04:52Z</time>
      </trkpt>
      <trkpt lat="49.276969023048878" lon="5.040153041481972">
        <ele>202.97999999999999</ele>
        <time>2018-07-10T13:04:55Z</time>
      </trkpt>
      <trkpt lat="49.27684597671032" lon="5.040349010378122">
        <ele>204.41999999999999</ele>
        <time>2018-07-10T13:04:57Z</time>
      </trkpt>
      <trkpt lat="49.276822004467249" lon="5.040441965684295">
        <ele>204.90000000000001</ele>
        <time>2018-07-10T13:04:58Z</time>
      </trkpt>
      <trkpt lat="49.276804989203811" lon="5.040540033951402">
        <ele>204.90000000000001</ele>
        <time>2018-07-10T13:04:59Z</time>
      </trkpt>
      <trkpt lat="49.276798032224178" lon="5.040626032277942">
        <ele>205.38</ele>
        <time>2018-07-10T13:05:00Z</time>
      </trkpt>
      <trkpt lat="49.276817981153727" lon="5.04073197953403">
        <ele>205.86000000000001</ele>
        <time>2018-07-10T13:05:01Z</time>
      </trkpt>
      <trkpt lat="49.276840025559068" lon="5.040847985073924">
        <ele>206.34</ele>
        <time>2018-07-10T13:05:02Z</time>
      </trkpt>
      <trkpt lat="49.276863997802138" lon="5.040974970906973">
        <ele>206.81999999999999</ele>
        <time>2018-07-10T13:05:03Z</time>
      </trkpt>
      <trkpt lat="49.27688897587359" lon="5.041110003367066">
        <ele>207.30000000000001</ele>
        <time>2018-07-10T13:05:04Z</time>
      </trkpt>
      <trkpt lat="49.277097014710307" lon="5.042439959943295">
        <ele>208.74000000000001</ele>
        <time>2018-07-10T13:05:11Z</time>
      </trkpt>
      <trkpt lat="49.277236992493272" lon="5.045013036578894">
        <ele>210.66999999999999</ele>
        <time>2018-07-10T13:05:20Z</time>
      </trkpt>
      <trkpt lat="49.277345035225153" lon="5.049352012574673">
        <ele>214.99000000000001</ele>
        <time>2018-07-10T13:05:34Z</time>
      </trkpt>
      <trkpt lat="49.277366995811462" lon="5.051745967939496">
        <ele>223.16</ele>
        <time>2018-07-10T13:05:43Z</time>
      </trkpt>
      <trkpt lat="49.277412006631494" lon="5.05250696092844">
        <ele>226.53</ele>
        <time>2018-07-10T13:05:46Z</time>
      </trkpt>
      <trkpt lat="49.277444025501609" lon="5.052753975614905">
        <ele>227.49000000000001</ele>
        <time>2018-07-10T13:05:47Z</time>
      </trkpt>
      <trkpt lat="49.277475038543344" lon="5.052993027493358">
        <ele>228.93000000000001</ele>
        <time>2018-07-10T13:05:48Z</time>
      </trkpt>
      <trkpt lat="49.277552990242839" lon="5.053449003025889">
        <ele>230.84999999999999</ele>
        <time>2018-07-10T13:05:50Z</time>
      </trkpt>
      <trkpt lat="49.278077026829123" lon="5.054977023974061">
        <ele>231.81</ele>
        <time>2018-07-10T13:05:56Z</time>
      </trkpt>
      <trkpt lat="49.278774987906218" lon="5.057298978790641">
        <ele>227.49000000000001</ele>
        <time>2018-07-10T13:06:04Z</time>
      </trkpt>
      <trkpt lat="49.279142031446099" lon="5.05852097645402">
        <ele>225.09</ele>
        <time>2018-07-10T13:06:10Z</time>
      </trkpt>
      <trkpt lat="49.279177989810705" lon="5.058789029717445">
        <ele>224.12</ele>
        <time>2018-07-10T13:06:12Z</time>
      </trkpt>
      <trkpt lat="49.27918897010386" lon="5.058897994458675">
        <ele>223.63999999999999</ele>
        <time>2018-07-10T13:06:13Z</time>
      </trkpt>
      <trkpt lat="49.279161980375648" lon="5.059016011655331">
        <ele>223.16</ele>
        <time>2018-07-10T13:06:14Z</time>
      </trkpt>
      <trkpt lat="49.279096014797688" lon="5.059107039123774">
        <ele>222.19999999999999</ele>
        <time>2018-07-10T13:06:15Z</time>
      </trkpt>
      <trkpt lat="49.279020996764302" lon="5.05920996889472">
        <ele>221.72</ele>
        <time>2018-07-10T13:06:16Z</time>
      </trkpt>
      <trkpt lat="49.278936004266143" lon="5.059327986091375">
        <ele>221.72</ele>
        <time>2018-07-10T13:06:17Z</time>
      </trkpt>
      <trkpt lat="49.278843970969319" lon="5.059454971924424">
        <ele>221.24000000000001</ele>
        <time>2018-07-10T13:06:18Z</time>
      </trkpt>
      <trkpt lat="49.278747998178005" lon="5.059587992727757">
        <ele>221.72</ele>
        <time>2018-07-10T13:06:19Z</time>
      </trkpt>
      <trkpt lat="49.278373997658491" lon="5.060103982686997">
        <ele>223.16</ele>
        <time>2018-07-10T13:06:23Z</time>
      </trkpt>
      <trkpt lat="49.278295962139964" lon="5.060213031247258">
        <ele>223.16</ele>
        <time>2018-07-10T13:06:24Z</time>
      </trkpt>
      <trkpt lat="49.278188003227115" lon="5.060299029573798">
        <ele>223.63999999999999</ele>
        <time>2018-07-10T13:06:25Z</time>
      </trkpt>
      <trkpt lat="49.27809102460742" lon="5.060326019302011">
        <ele>223.63999999999999</ele>
        <time>2018-07-10T13:06:26Z</time>
      </trkpt>
      <trkpt lat="49.2779849935323" lon="5.060355020686984">
        <ele>224.12</ele>
        <time>2018-07-10T13:06:27Z</time>
      </trkpt>
      <trkpt lat="49.277802016586065" lon="5.060405982658267">
        <ele>223.63999999999999</ele>
        <time>2018-07-10T13:06:29Z</time>
      </trkpt>
      <trkpt lat="49.277738984674215" lon="5.060477983206511">
        <ele>223.63999999999999</ele>
        <time>2018-07-10T13:06:30Z</time>
      </trkpt>
      <trkpt lat="49.277679976075888" lon="5.060545960441232">
        <ele>223.63999999999999</ele>
        <time>2018-07-10T13:06:31Z</time>
      </trkpt>
      <trkpt lat="49.277643011882901" lon="5.06064897403121">
        <ele>223.63999999999999</ele>
        <time>2018-07-10T13:06:32Z</time>
      </trkpt>
      <trkpt lat="49.277627002447844" lon="5.060779983177781">
        <ele>223.16</ele>
        <time>2018-07-10T13:06:33Z</time>
      </trkpt>
      <trkpt lat="49.277608981356025" lon="5.060921972617507">
        <ele>222.68000000000001</ele>
        <time>2018-07-10T13:06:34Z</time>
      </trkpt>
      <trkpt lat="49.277552990242839" lon="5.061369985342026">
        <ele>222.19999999999999</ele>
        <time>2018-07-10T13:06:37Z</time>
      </trkpt>
      <trkpt lat="49.277476966381073" lon="5.063090035691857">
        <ele>218.84</ele>
        <time>2018-07-10T13:06:47Z</time>
      </trkpt>
      <trkpt lat="49.277432039380074" lon="5.063480967655778">
        <ele>216.91</ele>
        <time>2018-07-10T13:06:52Z</time>
      </trkpt>
      <trkpt lat="49.277430027723312" lon="5.063497982919216">
        <ele>216.43000000000001</ele>
        <time>2018-07-10T13:06:56Z</time>
      </trkpt>
      <trkpt lat="49.277424998581409" lon="5.063542993739247">
        <ele>215.94999999999999</ele>
        <time>2018-07-10T13:06:57Z</time>
      </trkpt>
      <trkpt lat="49.277438996359706" lon="5.063657993450761">
        <ele>215.47</ele>
        <time>2018-07-10T13:06:58Z</time>
      </trkpt>
      <trkpt lat="49.277490964159369" lon="5.063729993999004">
        <ele>214.99000000000001</ele>
        <time>2018-07-10T13:06:59Z</time>
      </trkpt>
      <trkpt lat="49.2775550018996" lon="5.063820015639067">
        <ele>214.99000000000001</ele>
        <time>2018-07-10T13:07:00Z</time>
      </trkpt>
      <trkpt lat="49.278071997687221" lon="5.064552007243037">
        <ele>216.91</ele>
        <time>2018-07-10T13:07:08Z</time>
      </trkpt>
      <trkpt lat="49.278471982106566" lon="5.065136980265379">
        <ele>219.31999999999999</ele>
        <time>2018-07-10T13:07:14Z</time>
      </trkpt>
      <trkpt lat="49.278496960178018" lon="5.065173022449017">
        <ele>219.80000000000001</ele>
        <time>2018-07-10T13:07:15Z</time>
      </trkpt>
      <trkpt lat="49.278515987098217" lon="5.06530998274684">
        <ele>219.80000000000001</ele>
        <time>2018-07-10T13:07:16Z</time>
      </trkpt>
      <trkpt lat="49.278488997370005" lon="5.065350970253348">
        <ele>219.80000000000001</ele>
        <time>2018-07-10T13:07:17Z</time>
      </trkpt>
      <trkpt lat="49.278448009863496" lon="5.065412996336818">
        <ele>220.28</ele>
        <time>2018-07-10T13:07:18Z</time>
      </trkpt>
      <trkpt lat="49.278394030407071" lon="5.065493965521455">
        <ele>220.28</ele>
        <time>2018-07-10T13:07:19Z</time>
      </trkpt>
      <trkpt lat="49.278180040419102" lon="5.065815998241305">
        <ele>219.80000000000001</ele>
        <time>2018-07-10T13:07:22Z</time>
      </trkpt>
      <trkpt lat="49.278136035427451" lon="5.065973997116089">
        <ele>219.31999999999999</ele>
        <time>2018-07-10T13:07:23Z</time>
      </trkpt>
      <trkpt lat="49.278094964101911" lon="5.066164014860988">
        <ele>218.36000000000001</ele>
        <time>2018-07-10T13:07:24Z</time>
      </trkpt>
      <trkpt lat="49.278049031272531" lon="5.066370964050293">
        <ele>217.88</ele>
        <time>2018-07-10T13:07:25Z</time>
      </trkpt>
      <trkpt lat="49.278017012402415" lon="5.066594006493688">
        <ele>216.91</ele>
        <time>2018-07-10T13:07:26Z</time>
      </trkpt>
      <trkpt lat="49.278017012402415" lon="5.066827023401856">
        <ele>215.47</ele>
        <time>2018-07-10T13:07:27Z</time>
      </trkpt>
      <trkpt lat="49.278028998523951" lon="5.067052999511361">
        <ele>214.50999999999999</ele>
        <time>2018-07-10T13:07:28Z</time>
      </trkpt>
      <trkpt lat="49.278065962716937" lon="5.067284004762769">
        <ele>213.55000000000001</ele>
        <time>2018-07-10T13:07:29Z</time>
      </trkpt>
      <trkpt lat="49.278117008507252" lon="5.067519033327699">
        <ele>212.59</ele>
        <time>2018-07-10T13:07:30Z</time>
      </trkpt>
      <trkpt lat="49.278178028762341" lon="5.067755989730358">
        <ele>211.63</ele>
        <time>2018-07-10T13:07:31Z</time>
      </trkpt>
      <trkpt lat="49.278281964361668" lon="5.068215988576412">
        <ele>211.15000000000001</ele>
        <time>2018-07-10T13:07:33Z</time>
      </trkpt>
      <trkpt lat="49.278301997110248" lon="5.0684479996562">
        <ele>210.66999999999999</ele>
        <time>2018-07-10T13:07:34Z</time>
      </trkpt>
      <trkpt lat="49.278307026252151" lon="5.06868302822113">
        <ele>210.19</ele>
        <time>2018-07-10T13:07:35Z</time>
      </trkpt>
      <trkpt lat="49.278266960754991" lon="5.068915039300919">
        <ele>210.19</ele>
        <time>2018-07-10T13:07:36Z</time>
      </trkpt>
      <trkpt lat="49.278227984905243" lon="5.069145038723946">
        <ele>210.19</ele>
        <time>2018-07-10T13:07:37Z</time>
      </trkpt>
      <trkpt lat="49.278189009055495" lon="5.069372020661831">
        <ele>210.19</ele>
        <time>2018-07-10T13:07:38Z</time>
      </trkpt>
      <trkpt lat="49.278111979365349" lon="5.069817015901208">
        <ele>210.66999999999999</ele>
        <time>2018-07-10T13:07:40Z</time>
      </trkpt>
      <trkpt lat="49.278080966323614" lon="5.070054978132248">
        <ele>210.66999999999999</ele>
        <time>2018-07-10T13:07:41Z</time>
      </trkpt>
      <trkpt lat="49.278080966323614" lon="5.07031599059701">
        <ele>210.66999999999999</ele>
        <time>2018-07-10T13:07:42Z</time>
      </trkpt>
      <trkpt lat="49.2779849935323" lon="5.072603998705745">
        <ele>213.55000000000001</ele>
        <time>2018-07-10T13:07:50Z</time>
      </trkpt>
      <trkpt lat="49.277922967448831" lon="5.074092959985137">
        <ele>214.03</ele>
        <time>2018-07-10T13:07:56Z</time>
      </trkpt>
      <trkpt lat="49.278145004063845" lon="5.076253982260823">
        <ele>215.94999999999999</ele>
        <time>2018-07-10T13:08:04Z</time>
      </trkpt>
      <trkpt lat="49.278206024318933" lon="5.077069038525224">
        <ele>216.91</ele>
        <time>2018-07-10T13:08:07Z</time>
      </trkpt>
      <trkpt lat="49.278179034590721" lon="5.077334996312857">
        <ele>217.88</ele>
        <time>2018-07-10T13:08:08Z</time>
      </trkpt>
      <trkpt lat="49.278140980750322" lon="5.077588967978954">
        <ele>218.84</ele>
        <time>2018-07-10T13:08:09Z</time>
      </trkpt>
      <trkpt lat="49.278104016557336" lon="5.077841011807323">
        <ele>219.80000000000001</ele>
        <time>2018-07-10T13:08:10Z</time>
      </trkpt>
      <trkpt lat="49.278049031272531" lon="5.078088026493788">
        <ele>220.75999999999999</ele>
        <time>2018-07-10T13:08:11Z</time>
      </trkpt>
      <trkpt lat="49.277966972440481" lon="5.07830997928977">
        <ele>221.72</ele>
        <time>2018-07-10T13:08:12Z</time>
      </trkpt>
      <trkpt lat="49.277886003255844" lon="5.078531010076404">
        <ele>222.68000000000001</ele>
        <time>2018-07-10T13:08:13Z</time>
      </trkpt>
      <trkpt lat="49.277807967737317" lon="5.078742988407612">
        <ele>223.63999999999999</ele>
        <time>2018-07-10T13:08:14Z</time>
      </trkpt>
      <trkpt lat="49.277707971632481" lon="5.078935017809272">
        <ele>224.61000000000001</ele>
        <time>2018-07-10T13:08:15Z</time>
      </trkpt>
      <trkpt lat="49.277011016383767" lon="5.080087026581168">
        <ele>230.37</ele>
        <time>2018-07-10T13:08:23Z</time>
      </trkpt>
      <trkpt lat="49.276933986693621" lon="5.080218035727739">
        <ele>231.33000000000001</ele>
        <time>2018-07-10T13:08:24Z</time>
      </trkpt>
      <trkpt lat="49.276876989752054" lon="5.080369999632239">
        <ele>231.81</ele>
        <time>2018-07-10T13:08:25Z</time>
      </trkpt>
      <trkpt lat="49.276832984760404" lon="5.080548031255603">
        <ele>232.78</ele>
        <time>2018-07-10T13:08:26Z</time>
      </trkpt>
      <trkpt lat="49.276785962283611" lon="5.08073503151536">
        <ele>233.74000000000001</ele>
        <time>2018-07-10T13:08:27Z</time>
      </trkpt>
      <trkpt lat="49.276751009747386" lon="5.080932006239891">
        <ele>234.22</ele>
        <time>2018-07-10T13:08:28Z</time>
      </trkpt>
      <trkpt lat="49.276751009747386" lon="5.081131998449564">
        <ele>235.18000000000001</ele>
        <time>2018-07-10T13:08:29Z</time>
      </trkpt>
      <trkpt lat="49.276751009747386" lon="5.081327967345715">
        <ele>235.66</ele>
        <time>2018-07-10T13:08:30Z</time>
      </trkpt>
      <trkpt lat="49.276751009747386" lon="5.08150901645422">
        <ele>235.66</ele>
        <time>2018-07-10T13:08:31Z</time>
      </trkpt>
      <trkpt lat="49.276764001697302" lon="5.081665003672242">
        <ele>236.13999999999999</ele>
        <time>2018-07-10T13:08:32Z</time>
      </trkpt>
      <trkpt lat="49.276798032224178" lon="5.081819985061884">
        <ele>236.62</ele>
        <time>2018-07-10T13:08:33Z</time>
      </trkpt>
      <trkpt lat="49.276836002245545" lon="5.081991981714964">
        <ele>237.09999999999999</ele>
        <time>2018-07-10T13:08:34Z</time>
      </trkpt>
      <trkpt lat="49.276884030550718" lon="5.082126008346677">
        <ele>237.58000000000001</ele>
        <time>2018-07-10T13:08:35Z</time>
      </trkpt>
      <trkpt lat="49.276938010007143" lon="5.082275960594416">
        <ele>237.58000000000001</ele>
        <time>2018-07-10T13:08:36Z</time>
      </trkpt>
      <trkpt lat="49.277320979163051" lon="5.083668027073145">
        <ele>239.02000000000001</ele>
        <time>2018-07-10T13:08:43Z</time>
      </trkpt>
      <trkpt lat="49.277502028271556" lon="5.084586013108492">
        <ele>239.99000000000001</ele>
        <time>2018-07-10T13:08:47Z</time>
      </trkpt>
      <trkpt lat="49.277502028271556" lon="5.084787011146545">
        <ele>239.99000000000001</ele>
        <time>2018-07-10T13:08:48Z</time>
      </trkpt>
      <trkpt lat="49.277502028271556" lon="5.084995971992612">
        <ele>239.99000000000001</ele>
        <time>2018-07-10T13:08:49Z</time>
      </trkpt>
      <trkpt lat="49.277479983866215" lon="5.085219014436007">
        <ele>239.50999999999999</ele>
        <time>2018-07-10T13:08:50Z</time>
      </trkpt>
      <trkpt lat="49.277456011623144" lon="5.085457982495427">
        <ele>239.02000000000001</ele>
        <time>2018-07-10T13:08:51Z</time>
      </trkpt>
      <trkpt lat="49.277303963899612" lon="5.087523031979799">
        <ele>230.84999999999999</ele>
        <time>2018-07-10T13:08:58Z</time>
      </trkpt>
      <trkpt lat="49.277436984702945" lon="5.090314960107207">
        <ele>228.44999999999999</ele>
        <time>2018-07-10T13:09:07Z</time>
      </trkpt>
      <trkpt lat="49.277470009401441" lon="5.09111300110817">
        <ele>227.00999999999999</ele>
        <time>2018-07-10T13:09:10Z</time>
      </trkpt>
      <trkpt lat="49.277474032714963" lon="5.091377031058073">
        <ele>226.05000000000001</ele>
        <time>2018-07-10T13:09:11Z</time>
      </trkpt>
      <trkpt lat="49.277418963611126" lon="5.09162999689579">
        <ele>225.09</ele>
        <time>2018-07-10T13:09:12Z</time>
      </trkpt>
      <trkpt lat="49.277359033003449" lon="5.091890003532171">
        <ele>224.61000000000001</ele>
        <time>2018-07-10T13:09:13Z</time>
      </trkpt>
      <trkpt lat="49.277284014970064" lon="5.09214598685503">
        <ele>223.63999999999999</ele>
        <time>2018-07-10T13:09:14Z</time>
      </trkpt>
      <trkpt lat="49.277213020250201" lon="5.092388978227973">
        <ele>223.63999999999999</ele>
        <time>2018-07-10T13:09:15Z</time>
      </trkpt>
      <trkpt lat="49.277100032195449" lon="5.092841014266014">
        <ele>223.16</ele>
        <time>2018-07-10T13:09:17Z</time>
      </trkpt>
      <trkpt lat="49.277071030810475" lon="5.093064978718758">
        <ele>223.16</ele>
        <time>2018-07-10T13:09:18Z</time>
      </trkpt>
      <trkpt lat="49.277055021375418" lon="5.093281986191869">
        <ele>223.16</ele>
        <time>2018-07-10T13:09:19Z</time>
      </trkpt>
      <trkpt lat="49.277069019153714" lon="5.093511985614896">
        <ele>223.16</ele>
        <time>2018-07-10T13:09:20Z</time>
      </trkpt>
      <trkpt lat="49.277084022760391" lon="5.093755982816219">
        <ele>223.16</ele>
        <time>2018-07-10T13:09:21Z</time>
      </trkpt>
      <trkpt lat="49.277121992781758" lon="5.09543102234602">
        <ele>220.28</ele>
        <time>2018-07-10T13:09:29Z</time>
      </trkpt>
      <trkpt lat="49.277053009718657" lon="5.095777027308941">
        <ele>218.84</ele>
        <time>2018-07-10T13:09:31Z</time>
      </trkpt>
      <trkpt lat="49.276995006948709" lon="5.095943994820118">
        <ele>217.88</ele>
        <time>2018-07-10T13:09:32Z</time>
      </trkpt>
      <trkpt lat="49.276929963380098" lon="5.096114985644817">
        <ele>216.91</ele>
        <time>2018-07-10T13:09:33Z</time>
      </trkpt>
      <trkpt lat="49.276844970881939" lon="5.096273990347982">
        <ele>215.94999999999999</ele>
        <time>2018-07-10T13:09:34Z</time>
      </trkpt>
      <trkpt lat="49.276752015575767" lon="5.096418997272849">
        <ele>215.47</ele>
        <time>2018-07-10T13:09:35Z</time>
      </trkpt>
      <trkpt lat="49.276647996157408" lon="5.096544977277517">
        <ele>214.50999999999999</ele>
        <time>2018-07-10T13:09:36Z</time>
      </trkpt>
      <trkpt lat="49.276542970910668" lon="5.096671963110566">
        <ele>214.03</ele>
        <time>2018-07-10T13:09:37Z</time>
      </trkpt>
      <trkpt lat="49.276438029482961" lon="5.096798026934266">
        <ele>213.55000000000001</ele>
        <time>2018-07-10T13:09:38Z</time>
      </trkpt>
      <trkpt lat="49.27553596906364" lon="5.097884992137551">
        <ele>213.06999999999999</ele>
        <time>2018-07-10T13:09:48Z</time>
      </trkpt>
      <trkpt lat="49.275365984067321" lon="5.098113985732198">
        <ele>214.03</ele>
        <time>2018-07-10T13:09:50Z</time>
      </trkpt>
      <trkpt lat="49.275313010439277" lon="5.098250024020672">
        <ele>214.99000000000001</ele>
        <time>2018-07-10T13:09:51Z</time>
      </trkpt>
      <trkpt lat="49.275261964648962" lon="5.098391007632017">
        <ele>215.94999999999999</ele>
        <time>2018-07-10T13:09:52Z</time>
      </trkpt>
      <trkpt lat="49.275248972699046" lon="5.098535008728504">
        <ele>217.40000000000001</ele>
        <time>2018-07-10T13:09:53Z</time>
      </trkpt>
      <trkpt lat="49.275248972699046" lon="5.098703987896442">
        <ele>218.36000000000001</ele>
        <time>2018-07-10T13:09:54Z</time>
      </trkpt>
      <trkpt lat="49.275283003225923" lon="5.098877996206284">
        <ele>219.31999999999999</ele>
        <time>2018-07-10T13:09:55Z</time>
      </trkpt>
      <trkpt lat="49.275332959368825" lon="5.099064996466041">
        <ele>220.28</ele>
        <time>2018-07-10T13:09:56Z</time>
      </trkpt>
      <trkpt lat="49.27551400847733" lon="5.099906036630273">
        <ele>224.12</ele>
        <time>2018-07-10T13:10:00Z</time>
      </trkpt>
      <trkpt lat="49.27553697489202" lon="5.100122038275003">
        <ele>225.56999999999999</ele>
        <time>2018-07-10T13:10:01Z</time>
      </trkpt>
      <trkpt lat="49.275534963235259" lon="5.100344996899366">
        <ele>226.53</ele>
        <time>2018-07-10T13:10:02Z</time>
      </trkpt>
      <trkpt lat="49.275456005707383" lon="5.100994007661939">
        <ele>229.88999999999999</ele>
        <time>2018-07-10T13:10:05Z</time>
      </trkpt>
      <trkpt lat="49.275460029020905" lon="5.101209003478289">
        <ele>231.33000000000001</ele>
        <time>2018-07-10T13:10:06Z</time>
      </trkpt>
      <trkpt lat="49.275504034012556" lon="5.101404972374439">
        <ele>232.30000000000001</ele>
        <time>2018-07-10T13:10:07Z</time>
      </trkpt>
      <trkpt lat="49.275617022067308" lon="5.101744020357728">
        <ele>233.74000000000001</ele>
        <time>2018-07-10T13:10:09Z</time>
      </trkpt>
      <trkpt lat="49.275644011795521" lon="5.101905958727002">
        <ele>234.22</ele>
        <time>2018-07-10T13:10:10Z</time>
      </trkpt>
      <trkpt lat="49.275655997917056" lon="5.102054988965392">
        <ele>234.69999999999999</ele>
        <time>2018-07-10T13:10:11Z</time>
      </trkpt>
      <trkpt lat="49.275607969611883" lon="5.10222396813333">
        <ele>235.18000000000001</ele>
        <time>2018-07-10T13:10:12Z</time>
      </trkpt>
      <trkpt lat="49.275560025125742" lon="5.10239202529192">
        <ele>235.66</ele>
        <time>2018-07-10T13:10:13Z</time>
      </trkpt>
      <trkpt lat="49.275501016527414" lon="5.102573996409774">
        <ele>236.13999999999999</ele>
        <time>2018-07-10T13:10:14Z</time>
      </trkpt>
      <trkpt lat="49.275423986837268" lon="5.102771976962686">
        <ele>236.62</ele>
        <time>2018-07-10T13:10:15Z</time>
      </trkpt>
      <trkpt lat="49.274756032973528" lon="5.10452002286911">
        <ele>238.06</ele>
        <time>2018-07-10T13:10:22Z</time>
      </trkpt>
      <trkpt lat="49.274306008592248" lon="5.106810964643955">
        <ele>239.99000000000001</ele>
        <time>2018-07-10T13:10:30Z</time>
      </trkpt>
      <trkpt lat="49.274265021085739" lon="5.107928020879626">
        <ele>239.99000000000001</ele>
        <time>2018-07-10T13:10:34Z</time>
      </trkpt>
      <trkpt lat="49.274293016642332" lon="5.108207976445556">
        <ele>239.99000000000001</ele>
        <time>2018-07-10T13:10:35Z</time>
      </trkpt>
      <trkpt lat="49.274342972785234" lon="5.108489021658897">
        <ele>239.99000000000001</ele>
        <time>2018-07-10T13:10:36Z</time>
      </trkpt>
      <trkpt lat="49.274409022182226" lon="5.10877501219511">
        <ele>240.47</ele>
        <time>2018-07-10T13:10:37Z</time>
      </trkpt>
      <trkpt lat="49.274475993588567" lon="5.109068965539336">
        <ele>240.47</ele>
        <time>2018-07-10T13:10:38Z</time>
      </trkpt>
      <trkpt lat="49.274926017969847" lon="5.111364014446735">
        <ele>243.34999999999999</ele>
        <time>2018-07-10T13:10:46Z</time>
      </trkpt>
      <trkpt lat="49.274905985221267" lon="5.111642964184284">
        <ele>243.83000000000001</ele>
        <time>2018-07-10T13:10:47Z</time>
      </trkpt>
      <trkpt lat="49.274883018806577" lon="5.111939013004303">
        <ele>244.78999999999999</ele>
        <time>2018-07-10T13:10:48Z</time>
      </trkpt>
      <trkpt lat="49.274514969438314" lon="5.114901009947062">
        <ele>258.25</ele>
        <time>2018-07-10T13:10:57Z</time>
      </trkpt>
      <trkpt lat="49.273855984210968" lon="5.119511978700757">
        <ele>274.11000000000001</ele>
        <time>2018-07-10T13:11:11Z</time>
      </trkpt>
      <trkpt lat="49.273161040619016" lon="5.122389988973737">
        <ele>275.06999999999999</ele>
        <time>2018-07-10T13:11:20Z</time>
      </trkpt>
      <trkpt lat="49.272614037618041" lon="5.125458016991615">
        <ele>277</ele>
        <time>2018-07-10T13:11:30Z</time>
      </trkpt>
      <trkpt lat="49.272603979334235" lon="5.128159001469612">
        <ele>277.95999999999998</ele>
        <time>2018-07-10T13:11:40Z</time>
      </trkpt>
      <trkpt lat="49.272566009312868" lon="5.129815014079213">
        <ele>278.44</ele>
        <time>2018-07-10T13:11:49Z</time>
      </trkpt>
      <trkpt lat="49.272501971572638" lon="5.130908014252782">
        <ele>276.04000000000002</ele>
        <time>2018-07-10T13:11:56Z</time>
      </trkpt>
      <trkpt lat="49.272501971572638" lon="5.131057966500521">
        <ele>276.04000000000002</ele>
        <time>2018-07-10T13:11:57Z</time>
      </trkpt>
      <trkpt lat="49.27252996712923" lon="5.131219988688827">
        <ele>276.04000000000002</ele>
        <time>2018-07-10T13:11:58Z</time>
      </trkpt>
      <trkpt lat="49.272712022066116" lon="5.132014006376267">
        <ele>275.56</ele>
        <time>2018-07-10T13:12:03Z</time>
      </trkpt>
      <trkpt lat="49.272735994309187" lon="5.132124982774258">
        <ele>275.06999999999999</ele>
        <time>2018-07-10T13:12:04Z</time>
      </trkpt>
      <trkpt lat="49.272752003744245" lon="5.132196983322501">
        <ele>275.06999999999999</ele>
        <time>2018-07-10T13:12:05Z</time>
      </trkpt>
      <trkpt lat="49.272760972380638" lon="5.132240988314152">
        <ele>274.58999999999997</ele>
        <time>2018-07-10T13:12:06Z</time>
      </trkpt>
      <trkpt lat="49.272768013179302" lon="5.132269989699125">
        <ele>274.58999999999997</ele>
        <time>2018-07-10T13:12:07Z</time>
      </trkpt>
      <trkpt lat="49.272773964330554" lon="5.132299996912479">
        <ele>274.11000000000001</ele>
        <time>2018-07-10T13:12:08Z</time>
      </trkpt>
      <trkpt lat="49.272786034271121" lon="5.132350036874414">
        <ele>273.63</ele>
        <time>2018-07-10T13:12:09Z</time>
      </trkpt>
      <trkpt lat="49.272805983200669" lon="5.132427988573909">
        <ele>273.63</ele>
        <time>2018-07-10T13:12:10Z</time>
      </trkpt>
      <trkpt lat="49.27283096127212" lon="5.132525973021984">
        <ele>273.63</ele>
        <time>2018-07-10T13:12:11Z</time>
      </trkpt>
      <trkpt lat="49.272876977920532" lon="5.132704004645348">
        <ele>273.14999999999998</ele>
        <time>2018-07-10T13:12:13Z</time>
      </trkpt>
      <trkpt lat="49.272898016497493" lon="5.132781034335494">
        <ele>272.67000000000002</ele>
        <time>2018-07-10T13:12:14Z</time>
      </trkpt>
      <trkpt lat="49.27291695959866" lon="5.132854962721467">
        <ele>272.67000000000002</ele>
        <time>2018-07-10T13:12:15Z</time>
      </trkpt>
      <trkpt lat="49.272883012890816" lon="5.132972979918122">
        <ele>272.19</ele>
        <time>2018-07-10T13:12:16Z</time>
      </trkpt>
      <trkpt lat="49.272843031212687" lon="5.133024025708437">
        <ele>272.19</ele>
        <time>2018-07-10T13:12:17Z</time>
      </trkpt>
      <trkpt lat="49.272796008735895" lon="5.133083034306765">
        <ele>271.70999999999998</ele>
        <time>2018-07-10T13:12:18Z</time>
      </trkpt>
      <trkpt lat="49.272737000137568" lon="5.133158974349499">
        <ele>271.70999999999998</ele>
        <time>2018-07-10T13:12:19Z</time>
      </trkpt>
      <trkpt lat="49.272670028731227" lon="5.133243966847658">
        <ele>271.70999999999998</ele>
        <time>2018-07-10T13:12:20Z</time>
      </trkpt>
      <trkpt lat="49.272601967677474" lon="5.133329965174198">
        <ele>272.19</ele>
        <time>2018-07-10T13:12:21Z</time>
      </trkpt>
      <trkpt lat="49.272534996271133" lon="5.133415963500738">
        <ele>272.67000000000002</ele>
        <time>2018-07-10T13:12:22Z</time>
      </trkpt>
      <trkpt lat="49.272469030693173" lon="5.133499028161168">
        <ele>273.14999999999998</ele>
        <time>2018-07-10T13:12:23Z</time>
      </trkpt>
      <trkpt lat="49.272424019873142" lon="5.133598018437624">
        <ele>273.63</ele>
        <time>2018-07-10T13:12:24Z</time>
      </trkpt>
      <trkpt lat="49.27237800322473" lon="5.133710000663996">
        <ele>273.63</ele>
        <time>2018-07-10T13:12:25Z</time>
      </trkpt>
      <trkpt lat="49.272329974919558" lon="5.133825000375509">
        <ele>273.63</ele>
        <time>2018-07-10T13:12:26Z</time>
      </trkpt>
      <trkpt lat="49.272280018776655" lon="5.133947040885687">
        <ele>273.63</ele>
        <time>2018-07-10T13:12:27Z</time>
      </trkpt>
      <trkpt lat="49.271616004407406" lon="5.135428039357066">
        <ele>279.39999999999998</ele>
        <time>2018-07-10T13:12:38Z</time>
      </trkpt>
      <trkpt lat="49.271227000281215" lon="5.136021981015801">
        <ele>285.17000000000002</ele>
        <time>2018-07-10T13:12:43Z</time>
      </trkpt>
      <trkpt lat="49.271160028874874" lon="5.13612499460578">
        <ele>286.61000000000001</ele>
        <time>2018-07-10T13:12:44Z</time>
      </trkpt>
      <trkpt lat="49.271114012226462" lon="5.136244017630816">
        <ele>287.08999999999997</ele>
        <time>2018-07-10T13:12:45Z</time>
      </trkpt>
      <trkpt lat="49.271090039983392" lon="5.1363639626652">
        <ele>288.05000000000001</ele>
        <time>2018-07-10T13:12:46Z</time>
      </trkpt>
      <trkpt lat="49.271063972264528" lon="5.136494971811771">
        <ele>289.49000000000001</ele>
        <time>2018-07-10T13:12:47Z</time>
      </trkpt>
      <trkpt lat="49.271063972264528" lon="5.136609971523285">
        <ele>290.45999999999998</ele>
        <time>2018-07-10T13:12:48Z</time>
      </trkpt>
      <trkpt lat="49.271063972264528" lon="5.136734023690224">
        <ele>291.42000000000002</ele>
        <time>2018-07-10T13:12:49Z</time>
      </trkpt>
      <trkpt lat="49.271075958386064" lon="5.136881964281201">
        <ele>291.89999999999998</ele>
        <time>2018-07-10T13:12:50Z</time>
      </trkpt>
      <trkpt lat="49.271112000569701" lon="5.137016996741295">
        <ele>292.86000000000001</ele>
        <time>2018-07-10T13:12:51Z</time>
      </trkpt>
      <trkpt lat="49.271551966667175" lon="5.138485003262758">
        <ele>302.94999999999999</ele>
        <time>2018-07-10T13:13:00Z</time>
      </trkpt>
      <trkpt lat="49.271604018285871" lon="5.138634033501148">
        <ele>303.91000000000003</ele>
        <time>2018-07-10T13:13:01Z</time>
      </trkpt>
      <trkpt lat="49.271909035742283" lon="5.139689985662699">
        <ele>310.16000000000003</ele>
        <time>2018-07-10T13:13:07Z</time>
      </trkpt>
      <trkpt lat="49.272043984383345" lon="5.140393981710076">
        <ele>314.00999999999999</ele>
        <time>2018-07-10T13:13:13Z</time>
      </trkpt>
      <trkpt lat="49.272009031847119" lon="5.14057201333344">
        <ele>316.41000000000003</ele>
        <time>2018-07-10T13:13:17Z</time>
      </trkpt>
      <trkpt lat="49.272001991048455" lon="5.140633033588529">
        <ele>317.37</ele>
        <time>2018-07-10T13:13:18Z</time>
      </trkpt>
      <trkpt lat="49.272005008533597" lon="5.141272991895676">
        <ele>318.32999999999998</ele>
        <time>2018-07-10T13:13:24Z</time>
      </trkpt>
      <trkpt lat="49.272016994655132" lon="5.141638023778796">
        <ele>317.37</ele>
        <time>2018-07-10T13:13:30Z</time>
      </trkpt>
      <trkpt lat="49.272020012140274" lon="5.141706001013517">
        <ele>316.88999999999999</ele>
        <time>2018-07-10T13:13:31Z</time>
      </trkpt>
      <trkpt lat="49.272022023797035" lon="5.141773978248239">
        <ele>316.88999999999999</ele>
        <time>2018-07-10T13:13:32Z</time>
      </trkpt>
      <trkpt lat="49.272025041282177" lon="5.14184002764523">
        <ele>316.88999999999999</ele>
        <time>2018-07-10T13:13:33Z</time>
      </trkpt>
      <trkpt lat="49.272026969119906" lon="5.141897024586797">
        <ele>316.88999999999999</ele>
        <time>2018-07-10T13:13:34Z</time>
      </trkpt>
      <trkpt lat="49.272027974948287" lon="5.141942035406828">
        <ele>316.41000000000003</ele>
        <time>2018-07-10T13:13:35Z</time>
      </trkpt>
      <trkpt lat="49.272028980776668" lon="5.141973970457912">
        <ele>315.93000000000001</ele>
        <time>2018-07-10T13:13:36Z</time>
      </trkpt>
      <trkpt lat="49.272030992433429" lon="5.14203398488462">
        <ele>315.44999999999999</ele>
        <time>2018-07-10T13:13:47Z</time>
      </trkpt>
      <trkpt lat="49.272038033232093" lon="5.142233977094293">
        <ele>314.97000000000003</ele>
        <time>2018-07-10T13:13:50Z</time>
      </trkpt>
      <trkpt lat="49.272040966898203" lon="5.142304971814156">
        <ele>314.97000000000003</ele>
        <time>2018-07-10T13:13:51Z</time>
      </trkpt>
      <trkpt lat="49.272042978554964" lon="5.142379989847541">
        <ele>314.49000000000001</ele>
        <time>2018-07-10T13:13:52Z</time>
      </trkpt>
      <trkpt lat="49.272045996040106" lon="5.142454002052546">
        <ele>314.49000000000001</ele>
        <time>2018-07-10T13:13:53Z</time>
      </trkpt>
      <trkpt lat="49.271994028240442" lon="5.142620969563723">
        <ele>314.49000000000001</ele>
        <time>2018-07-10T13:13:54Z</time>
      </trkpt>
      <trkpt lat="49.271928984671831" lon="5.142634967342019">
        <ele>314.00999999999999</ele>
        <time>2018-07-10T13:13:55Z</time>
      </trkpt>
      <trkpt lat="49.271857989951968" lon="5.142648965120316">
        <ele>314.00999999999999</ele>
        <time>2018-07-10T13:13:56Z</time>
      </trkpt>
      <trkpt lat="49.271780038252473" lon="5.142663968726993">
        <ele>313.52999999999997</ele>
        <time>2018-07-10T13:13:57Z</time>
      </trkpt>
      <trkpt lat="49.271695967763662" lon="5.142680983990431">
        <ele>313.05000000000001</ele>
        <time>2018-07-10T13:13:58Z</time>
      </trkpt>
      <trkpt lat="49.271434033289552" lon="5.142733035609126">
        <ele>312.56999999999999</ele>
        <time>2018-07-10T13:14:01Z</time>
      </trkpt>
      <trkpt lat="49.271350968629122" lon="5.142749967053533">
        <ele>312.08999999999997</ele>
        <time>2018-07-10T13:14:02Z</time>
      </trkpt>
      <trkpt lat="49.271275028586388" lon="5.14280503615737">
        <ele>312.08999999999997</ele>
        <time>2018-07-10T13:14:03Z</time>
      </trkpt>
      <trkpt lat="49.271211996674538" lon="5.142919030040503">
        <ele>311.60000000000002</ele>
        <time>2018-07-10T13:14:04Z</time>
      </trkpt>
      <trkpt lat="49.271145025268197" lon="5.143040986731648">
        <ele>311.12</ele>
        <time>2018-07-10T13:14:05Z</time>
      </trkpt>
      <trkpt lat="49.271071013063192" lon="5.143174007534981">
        <ele>311.12</ele>
        <time>2018-07-10T13:14:06Z</time>
      </trkpt>
      <trkpt lat="49.270978979766369" lon="5.143339969217777">
        <ele>310.63999999999999</ele>
        <time>2018-07-10T13:14:07Z</time>
      </trkpt>
      <trkpt lat="49.270286969840527" lon="5.144947031512857">
        <ele>303.91000000000003</ele>
        <time>2018-07-10T13:14:17Z</time>
      </trkpt>
      <trkpt lat="49.270055964589119" lon="5.145484982058406">
        <ele>300.06999999999999</ele>
        <time>2018-07-10T13:14:21Z</time>
      </trkpt>
      <trkpt lat="49.270022017881274" lon="5.145649015903473">
        <ele>299.11000000000001</ele>
        <time>2018-07-10T13:14:22Z</time>
      </trkpt>
      <trkpt lat="49.269989999011159" lon="5.145803997293115">
        <ele>298.63</ele>
        <time>2018-07-10T13:14:23Z</time>
      </trkpt>
      <trkpt lat="49.269958985969424" lon="5.145952021703124">
        <ele>297.67000000000002</ele>
        <time>2018-07-10T13:14:24Z</time>
      </trkpt>
      <trkpt lat="49.269937025383115" lon="5.146105997264385">
        <ele>296.69999999999999</ele>
        <time>2018-07-10T13:14:25Z</time>
      </trkpt>
      <trkpt lat="49.269797969609499" lon="5.147374011576176">
        <ele>290.45999999999998</ele>
        <time>2018-07-10T13:14:34Z</time>
      </trkpt>
      <trkpt lat="49.26977600902319" lon="5.1474470179528">
        <ele>289.49000000000001</ele>
        <time>2018-07-10T13:14:35Z</time>
      </trkpt>
      <trkpt lat="49.269738039001822" lon="5.147567968815565">
        <ele>286.61000000000001</ele>
        <time>2018-07-10T13:14:42Z</time>
      </trkpt>
      <trkpt lat="49.269707025960088" lon="5.147665031254292">
        <ele>285.17000000000002</ele>
        <time>2018-07-10T13:14:47Z</time>
      </trkpt>
      <trkpt lat="49.269693028181791" lon="5.147759998217225">
        <ele>284.69</ele>
        <time>2018-07-10T13:14:48Z</time>
      </trkpt>
      <trkpt lat="49.269698979333043" lon="5.147859994322062">
        <ele>283.73000000000002</ele>
        <time>2018-07-10T13:14:49Z</time>
      </trkpt>
      <trkpt lat="49.269641982391477" lon="5.148834977298975">
        <ele>283.25</ele>
        <time>2018-07-10T13:14:57Z</time>
      </trkpt>
      <trkpt lat="49.269500998780131" lon="5.150296026840806">
        <ele>283.73000000000002</ele>
        <time>2018-07-10T13:15:05Z</time>
      </trkpt>
      <trkpt lat="49.269313998520374" lon="5.152041977271438">
        <ele>284.20999999999998</ele>
        <time>2018-07-10T13:15:12Z</time>
      </trkpt>
      <trkpt lat="49.269290026277304" lon="5.152259990572929">
        <ele>283.73000000000002</ele>
        <time>2018-07-10T13:15:13Z</time>
      </trkpt>
      <trkpt lat="49.269267981871963" lon="5.152461994439364">
        <ele>283.25</ele>
        <time>2018-07-10T13:15:14Z</time>
      </trkpt>
      <trkpt lat="49.269090034067631" lon="5.152781009674072">
        <ele>282.76999999999998</ele>
        <time>2018-07-10T13:15:15Z</time>
      </trkpt>
      <trkpt lat="49.268770013004541" lon="5.153391966596246">
        <ele>282.76999999999998</ele>
        <time>2018-07-10T13:15:19Z</time>
      </trkpt>
      <trkpt lat="49.26865903660655" lon="5.153605034574866">
        <ele>282.76999999999998</ele>
        <time>2018-07-10T13:15:20Z</time>
      </trkpt>
      <trkpt lat="49.268518975004554" lon="5.153795974329114">
        <ele>282.76999999999998</ele>
        <time>2018-07-10T13:15:21Z</time>
      </trkpt>
      <trkpt lat="49.267094973474741" lon="5.155235985293984">
        <ele>285.17000000000002</ele>
        <time>2018-07-10T13:15:29Z</time>
      </trkpt>
      <trkpt lat="49.264220986515284" lon="5.158022968098521">
        <ele>289.00999999999999</ele>
        <time>2018-07-10T13:15:44Z</time>
      </trkpt>
      <trkpt lat="49.260777030140162" lon="5.161361983045936">
        <ele>289.49000000000001</ele>
        <time>2018-07-10T13:16:02Z</time>
      </trkpt>
      <trkpt lat="49.259778996929526" lon="5.16216304153204">
        <ele>287.08999999999997</ele>
        <time>2018-07-10T13:16:07Z</time>
      </trkpt>
      <trkpt lat="49.259561989456415" lon="5.162243004888296">
        <ele>287.08999999999997</ele>
        <time>2018-07-10T13:16:08Z</time>
      </trkpt>
      <trkpt lat="49.25647702999413" lon="5.1633479911834">
        <ele>289.49000000000001</ele>
        <time>2018-07-10T13:16:22Z</time>
      </trkpt>
      <trkpt lat="49.255673037841916" lon="5.163688967004418">
        <ele>286.13</ele>
        <time>2018-07-10T13:16:26Z</time>
      </trkpt>
      <trkpt lat="49.255501041188836" lon="5.163813019171357">
        <ele>284.69</ele>
        <time>2018-07-10T13:16:27Z</time>
      </trkpt>
      <trkpt lat="49.254150968044996" lon="5.16517398878932">
        <ele>274.58999999999997</ele>
        <time>2018-07-10T13:16:35Z</time>
      </trkpt>
      <trkpt lat="49.254026999697089" lon="5.165352020412684">
        <ele>273.63</ele>
        <time>2018-07-10T13:16:36Z</time>
      </trkpt>
      <trkpt lat="49.253903031349182" lon="5.165530974045396">
        <ele>272.67000000000002</ele>
        <time>2018-07-10T13:16:37Z</time>
      </trkpt>
      <trkpt lat="49.253807980567217" lon="5.165758961811662">
        <ele>271.70999999999998</ele>
        <time>2018-07-10T13:16:38Z</time>
      </trkpt>
      <trkpt lat="49.253718964755535" lon="5.166003964841366">
        <ele>270.26999999999998</ele>
        <time>2018-07-10T13:16:39Z</time>
      </trkpt>
      <trkpt lat="49.253627015277743" lon="5.166257014498115">
        <ele>269.31</ele>
        <time>2018-07-10T13:16:40Z</time>
      </trkpt>
      <trkpt lat="49.253226025030017" lon="5.167210036888719">
        <ele>264.5</ele>
        <time>2018-07-10T13:16:44Z</time>
      </trkpt>
      <trkpt lat="49.25310499034822" lon="5.167410029098392">
        <ele>263.54000000000002</ele>
        <time>2018-07-10T13:16:45Z</time>
      </trkpt>
      <trkpt lat="49.25299703143537" lon="5.167586971074343">
        <ele>262.10000000000002</ele>
        <time>2018-07-10T13:16:46Z</time>
      </trkpt>
      <trkpt lat="49.252829980105162" lon="5.167723009362817">
        <ele>261.13999999999999</ele>
        <time>2018-07-10T13:16:47Z</time>
      </trkpt>
      <trkpt lat="49.252669969573617" lon="5.167854018509388">
        <ele>260.17000000000002</ele>
        <time>2018-07-10T13:16:48Z</time>
      </trkpt>
      <trkpt lat="49.25250300206244" lon="5.16798997297883">
        <ele>259.20999999999998</ele>
        <time>2018-07-10T13:16:49Z</time>
      </trkpt>
      <trkpt lat="49.251635977998376" lon="5.168726993724704">
        <ele>253.93000000000001</ele>
        <time>2018-07-10T13:16:54Z</time>
      </trkpt>
      <trkpt lat="49.251480996608734" lon="5.168914999812841">
        <ele>252.47999999999999</ele>
        <time>2018-07-10T13:16:55Z</time>
      </trkpt>
      <trkpt lat="49.250261010602117" lon="5.170318968594074">
        <ele>243.83000000000001</ele>
        <time>2018-07-10T13:17:03Z</time>
      </trkpt>
      <trkpt lat="49.248866010457277" lon="5.171405011788011">
        <ele>236.62</ele>
        <time>2018-07-10T13:17:11Z</time>
      </trkpt>
      <trkpt lat="49.247462041676044" lon="5.172118982300162">
        <ele>233.74000000000001</ele>
        <time>2018-07-10T13:17:18Z</time>
      </trkpt>
      <trkpt lat="49.246717980131507" lon="5.172291984781623">
        <ele>232.78</ele>
        <time>2018-07-10T13:17:22Z</time>
      </trkpt>
      <trkpt lat="49.246560987085104" lon="5.172371026128531">
        <ele>232.30000000000001</ele>
        <time>2018-07-10T13:17:23Z</time>
      </trkpt>
      <trkpt lat="49.246387984603643" lon="5.172458030283451">
        <ele>232.30000000000001</ele>
        <time>2018-07-10T13:17:24Z</time>
      </trkpt>
      <trkpt lat="49.246256975457072" lon="5.172590967267752">
        <ele>231.81</ele>
        <time>2018-07-10T13:17:25Z</time>
      </trkpt>
      <trkpt lat="49.246105011552572" lon="5.172745026648045">
        <ele>231.33000000000001</ele>
        <time>2018-07-10T13:17:26Z</time>
      </trkpt>
      <trkpt lat="49.244809001684189" lon="5.174155030399561">
        <ele>229.88999999999999</ele>
        <time>2018-07-10T13:17:34Z</time>
      </trkpt>
      <trkpt lat="49.243819015100598" lon="5.175732001662254">
        <ele>228.44999999999999</ele>
        <time>2018-07-10T13:17:42Z</time>
      </trkpt>
      <trkpt lat="49.243194982409477" lon="5.17673397436738">
        <ele>226.05000000000001</ele>
        <time>2018-07-10T13:17:51Z</time>
      </trkpt>
      <trkpt lat="49.242549994960427" lon="5.178203992545605">
        <ele>224.12</ele>
        <time>2018-07-10T13:18:02Z</time>
      </trkpt>
      <trkpt lat="49.242049008607864" lon="5.179736958816648">
        <ele>223.63999999999999</ele>
        <time>2018-07-10T13:18:13Z</time>
      </trkpt>
      <trkpt lat="49.24115801230073" lon="5.181766971945763">
        <ele>223.16</ele>
        <time>2018-07-10T13:18:28Z</time>
      </trkpt>
      <trkpt lat="49.240714022889733" lon="5.182248009368777">
        <ele>223.16</ele>
        <time>2018-07-10T13:18:33Z</time>
      </trkpt>
      <trkpt lat="49.24060296267271" lon="5.182305006310344">
        <ele>222.68000000000001</ele>
        <time>2018-07-10T13:18:34Z</time>
      </trkpt>
      <trkpt lat="49.240489974617958" lon="5.182364014908671">
        <ele>222.19999999999999</ele>
        <time>2018-07-10T13:18:35Z</time>
      </trkpt>
      <trkpt lat="49.239453971385956" lon="5.182740027084947">
        <ele>216.43000000000001</ele>
        <time>2018-07-10T13:18:43Z</time>
      </trkpt>
      <trkpt lat="49.238039022311568" lon="5.183223998174071">
        <ele>214.99000000000001</ele>
        <time>2018-07-10T13:18:53Z</time>
      </trkpt>
      <trkpt lat="49.236924983561039" lon="5.184002006426454">
        <ele>216.43000000000001</ele>
        <time>2018-07-10T13:19:01Z</time>
      </trkpt>
      <trkpt lat="49.236824987456203" lon="5.184112982824445">
        <ele>216.43000000000001</ele>
        <time>2018-07-10T13:19:02Z</time>
      </trkpt>
      <trkpt lat="49.236742006614804" lon="5.184205016121268">
        <ele>216.91</ele>
        <time>2018-07-10T13:19:03Z</time>
      </trkpt>
      <trkpt lat="49.236687021329999" lon="5.18433703109622">
        <ele>217.88</ele>
        <time>2018-07-10T13:19:04Z</time>
      </trkpt>
      <trkpt lat="49.236639998853207" lon="5.184463011100888">
        <ele>218.36000000000001</ele>
        <time>2018-07-10T13:19:05Z</time>
      </trkpt>
      <trkpt lat="49.23660303466022" lon="5.184611035510898">
        <ele>218.36000000000001</ele>
        <time>2018-07-10T13:19:06Z</time>
      </trkpt>
      <trkpt lat="49.23660303466022" lon="5.184783032163978">
        <ele>218.84</ele>
        <time>2018-07-10T13:19:07Z</time>
      </trkpt>
      <trkpt lat="49.236639998853207" lon="5.184973971918225">
        <ele>219.31999999999999</ele>
        <time>2018-07-10T13:19:08Z</time>
      </trkpt>
      <trkpt lat="49.236701019108295" lon="5.185166001319885">
        <ele>219.31999999999999</ele>
        <time>2018-07-10T13:19:09Z</time>
      </trkpt>
      <trkpt lat="49.237260008230805" lon="5.186908012256026">
        <ele>217.40000000000001</ele>
        <time>2018-07-10T13:19:17Z</time>
      </trkpt>
      <trkpt lat="49.23731398768723" lon="5.187106998637319">
        <ele>217.40000000000001</ele>
        <time>2018-07-10T13:19:18Z</time>
      </trkpt>
      <trkpt lat="49.237325973808765" lon="5.187310008332133">
        <ele>216.91</ele>
        <time>2018-07-10T13:19:19Z</time>
      </trkpt>
      <trkpt lat="49.237328991293907" lon="5.187508994713426">
        <ele>216.91</ele>
        <time>2018-07-10T13:19:20Z</time>
      </trkpt>
      <trkpt lat="49.237317005172372" lon="5.187728013843298">
        <ele>216.91</ele>
        <time>2018-07-10T13:19:21Z</time>
      </trkpt>
      <trkpt lat="49.237304013222456" lon="5.187962958589196">
        <ele>216.43000000000001</ele>
        <time>2018-07-10T13:19:22Z</time>
      </trkpt>
      <trkpt lat="49.237178033217788" lon="5.188860995694995">
        <ele>216.43000000000001</ele>
        <time>2018-07-10T13:19:26Z</time>
      </trkpt>
      <trkpt lat="49.237113995477557" lon="5.189042966812849">
        <ele>216.43000000000001</ele>
        <time>2018-07-10T13:19:27Z</time>
      </trkpt>
      <trkpt lat="49.237038977444172" lon="5.189207000657916">
        <ele>216.43000000000001</ele>
        <time>2018-07-10T13:19:28Z</time>
      </trkpt>
      <trkpt lat="49.236936969682574" lon="5.189363993704319">
        <ele>216.43000000000001</ele>
        <time>2018-07-10T13:19:29Z</time>
      </trkpt>
      <trkpt lat="49.236826999112964" lon="5.189533978700638">
        <ele>216.43000000000001</ele>
        <time>2018-07-10T13:19:30Z</time>
      </trkpt>
      <trkpt lat="49.23576601780951" lon="5.191165013238788">
        <ele>221.24000000000001</ele>
        <time>2018-07-10T13:19:38Z</time>
      </trkpt>
      <trkpt lat="49.235362010076642" lon="5.191638004034758">
        <ele>223.63999999999999</ele>
        <time>2018-07-10T13:19:41Z</time>
      </trkpt>
      <trkpt lat="49.235211974009871" lon="5.191732970997691">
        <ele>224.61000000000001</ele>
        <time>2018-07-10T13:19:42Z</time>
      </trkpt>
      <trkpt lat="49.235063027590513" lon="5.191816035658121">
        <ele>226.05000000000001</ele>
        <time>2018-07-10T13:19:43Z</time>
      </trkpt>
      <trkpt lat="49.234910979866982" lon="5.191860040649772">
        <ele>227.00999999999999</ele>
        <time>2018-07-10T13:19:44Z</time>
      </trkpt>
      <trkpt lat="49.234752980992198" lon="5.191870015114546">
        <ele>227.97</ele>
        <time>2018-07-10T13:19:45Z</time>
      </trkpt>
      <trkpt lat="49.234599005430937" lon="5.191864985972643">
        <ele>228.93000000000001</ele>
        <time>2018-07-10T13:19:46Z</time>
      </trkpt>
      <trkpt lat="49.234446035698056" lon="5.191801032051444">
        <ele>229.88999999999999</ele>
        <time>2018-07-10T13:19:47Z</time>
      </trkpt>
      <trkpt lat="49.23428300768137" lon="5.191733976826072">
        <ele>230.84999999999999</ele>
        <time>2018-07-10T13:19:48Z</time>
      </trkpt>
      <trkpt lat="49.23413397744298" lon="5.191589975729585">
        <ele>231.81</ele>
        <time>2018-07-10T13:19:49Z</time>
      </trkpt>
      <trkpt lat="49.233986958861351" lon="5.191434994339943">
        <ele>232.78</ele>
        <time>2018-07-10T13:19:50Z</time>
      </trkpt>
      <trkpt lat="49.23383398912847" lon="5.191273977980018">
        <ele>233.74000000000001</ele>
        <time>2018-07-10T13:19:51Z</time>
      </trkpt>
      <trkpt lat="49.232879960909486" lon="5.189931029453874">
        <ele>238.53999999999999</ele>
        <time>2018-07-10T13:19:58Z</time>
      </trkpt>
      <trkpt lat="49.232059959322214" lon="5.189341027289629">
        <ele>242.87</ele>
        <time>2018-07-10T13:20:03Z</time>
      </trkpt>
      <trkpt lat="49.231912018731236" lon="5.18930003978312">
        <ele>243.83000000000001</ele>
        <time>2018-07-10T13:20:04Z</time>
      </trkpt>
      <trkpt lat="49.231775980442762" lon="5.189295010641217">
        <ele>244.78999999999999</ele>
        <time>2018-07-10T13:20:05Z</time>
      </trkpt>
      <trkpt lat="49.231646982952952" lon="5.18932300619781">
        <ele>245.75</ele>
        <time>2018-07-10T13:20:06Z</time>
      </trkpt>
      <trkpt lat="49.231519997119904" lon="5.18940799869597">
        <ele>246.72</ele>
        <time>2018-07-10T13:20:07Z</time>
      </trkpt>
      <trkpt lat="49.231398040428758" lon="5.189510006457567">
        <ele>247.19999999999999</ele>
        <time>2018-07-10T13:20:08Z</time>
      </trkpt>
      <trkpt lat="49.231274994090199" lon="5.189636992290616">
        <ele>248.16</ele>
        <time>2018-07-10T13:20:09Z</time>
      </trkpt>
      <trkpt lat="49.23086604103446" lon="5.190060026943684">
        <ele>250.56</ele>
        <time>2018-07-10T13:20:12Z</time>
      </trkpt>
      <trkpt lat="49.23069697804749" lon="5.190154993906617">
        <ele>251.52000000000001</ele>
        <time>2018-07-10T13:20:13Z</time>
      </trkpt>
      <trkpt lat="49.23052498139441" lon="5.190230011940002">
        <ele>252.47999999999999</ele>
        <time>2018-07-10T13:20:14Z</time>
      </trkpt>
      <trkpt lat="49.230347033590078" lon="5.19026898778975">
        <ele>252.96000000000001</ele>
        <time>2018-07-10T13:20:15Z</time>
      </trkpt>
      <trkpt lat="49.230169001966715" lon="5.190279968082905">
        <ele>254.41</ele>
        <time>2018-07-10T13:20:16Z</time>
      </trkpt>
      <trkpt lat="49.22998895868659" lon="5.190250966697931">
        <ele>255.37</ele>
        <time>2018-07-10T13:20:17Z</time>
      </trkpt>
      <trkpt lat="49.229801036417484" lon="5.190217019990087">
        <ele>256.81</ele>
        <time>2018-07-10T13:20:18Z</time>
      </trkpt>
      <trkpt lat="49.229605989530683" lon="5.190144013613462">
        <ele>257.76999999999998</ele>
        <time>2018-07-10T13:20:19Z</time>
      </trkpt>
      <trkpt lat="49.227955006062984" lon="5.189524004235864">
        <ele>265.94</ele>
        <time>2018-07-10T13:20:27Z</time>
      </trkpt>
      <trkpt lat="49.226439977064729" lon="5.189071968197823">
        <ele>273.14999999999998</ele>
        <time>2018-07-10T13:20:34Z</time>
      </trkpt>
      <trkpt lat="49.226221041753888" lon="5.189094012603164">
        <ele>273.63</ele>
        <time>2018-07-10T13:20:35Z</time>
      </trkpt>
      <trkpt lat="49.223695993423462" lon="5.189348990097642">
        <ele>281.80000000000001</ele>
        <time>2018-07-10T13:20:46Z</time>
      </trkpt>
      <trkpt lat="49.222921002656221" lon="5.189427025616169">
        <ele>280.83999999999997</ele>
        <time>2018-07-10T13:20:50Z</time>
      </trkpt>
      <trkpt lat="49.222610034048557" lon="5.189458038657904">
        <ele>278.92000000000002</ele>
        <time>2018-07-10T13:20:55Z</time>
      </trkpt>
      <trkpt lat="49.221869995817542" lon="5.189563985913992">
        <ele>277.95999999999998</ele>
        <time>2018-07-10T13:21:01Z</time>
      </trkpt>
      <trkpt lat="49.221072038635612" lon="5.19000998698175">
        <ele>277.48000000000002</ele>
        <time>2018-07-10T13:21:06Z</time>
      </trkpt>
      <trkpt lat="49.220916973426938" lon="5.190145019441843">
        <ele>277.48000000000002</ele>
        <time>2018-07-10T13:21:07Z</time>
      </trkpt>
      <trkpt lat="49.220784958451986" lon="5.190323973074555">
        <ele>277.48000000000002</ele>
        <time>2018-07-10T13:21:08Z</time>
      </trkpt>
      <trkpt lat="49.219667986035347" lon="5.192018961533904">
        <ele>279.39999999999998</ele>
        <time>2018-07-10T13:21:16Z</time>
      </trkpt>
      <trkpt lat="49.21846903860569" lon="5.193071980029345">
        <ele>283.25</ele>
        <time>2018-07-10T13:21:23Z</time>
      </trkpt>
      <trkpt lat="49.216948980465531" lon="5.194274028763175">
        <ele>287.08999999999997</ele>
        <time>2018-07-10T13:21:31Z</time>
      </trkpt>
      <trkpt lat="49.215674009174109" lon="5.194880962371826">
        <ele>287.56999999999999</ele>
        <time>2018-07-10T13:21:38Z</time>
      </trkpt>
      <trkpt lat="49.215492960065603" lon="5.194880962371826">
        <ele>287.56999999999999</ele>
        <time>2018-07-10T13:21:39Z</time>
      </trkpt>
      <trkpt lat="49.215320963412523" lon="5.194846009835601">
        <ele>287.08999999999997</ele>
        <time>2018-07-10T13:21:40Z</time>
      </trkpt>
      <trkpt lat="49.215150978416204" lon="5.194788007065654">
        <ele>286.61000000000001</ele>
        <time>2018-07-10T13:21:41Z</time>
      </trkpt>
      <trkpt lat="49.214981999248266" lon="5.194730004295707">
        <ele>286.13</ele>
        <time>2018-07-10T13:21:42Z</time>
      </trkpt>
      <trkpt lat="49.214371964335442" lon="5.194580974057317">
        <ele>282.27999999999997</ele>
        <time>2018-07-10T13:21:46Z</time>
      </trkpt>
      <trkpt lat="49.214230980724096" lon="5.194580974057317">
        <ele>281.31999999999999</ele>
        <time>2018-07-10T13:21:47Z</time>
      </trkpt>
      <trkpt lat="49.214112963527441" lon="5.194663032889366">
        <ele>280.36000000000001</ele>
        <time>2018-07-10T13:21:48Z</time>
      </trkpt>
      <trkpt lat="49.213997041806579" lon="5.194770991802216">
        <ele>279.39999999999998</ele>
        <time>2018-07-10T13:21:49Z</time>
      </trkpt>
      <trkpt lat="49.213876007124782" lon="5.194883979856968">
        <ele>278.92000000000002</ele>
        <time>2018-07-10T13:21:50Z</time>
      </trkpt>
      <trkpt lat="49.212999008595943" lon="5.195450009778142">
        <ele>277.48000000000002</ele>
        <time>2018-07-10T13:21:56Z</time>
      </trkpt>
      <trkpt lat="49.212837992236018" lon="5.195459984242916">
        <ele>277.48000000000002</ele>
        <time>2018-07-10T13:21:57Z</time>
      </trkpt>
      <trkpt lat="49.212662978097796" lon="5.195459984242916">
        <ele>277.48000000000002</ele>
        <time>2018-07-10T13:21:58Z</time>
      </trkpt>
      <trkpt lat="49.211001014336944" lon="5.195181034505367">
        <ele>278.44</ele>
        <time>2018-07-10T13:22:07Z</time>
      </trkpt>
      <trkpt lat="49.210860030725598" lon="5.195181034505367">
        <ele>278.44</ele>
        <time>2018-07-10T13:22:08Z</time>
      </trkpt>
      <trkpt lat="49.210732039064169" lon="5.195211041718721">
        <ele>278.44</ele>
        <time>2018-07-10T13:22:09Z</time>
      </trkpt>
      <trkpt lat="49.210617039352655" lon="5.195305002853274">
        <ele>278.44</ele>
        <time>2018-07-10T13:22:10Z</time>
      </trkpt>
      <trkpt lat="49.210492987185717" lon="5.195404998958111">
        <ele>278.92000000000002</ele>
        <time>2018-07-10T13:22:11Z</time>
      </trkpt>
      <trkpt lat="49.210373964160681" lon="5.19553299061954">
        <ele>279.39999999999998</ele>
        <time>2018-07-10T13:22:12Z</time>
      </trkpt>
      <trkpt lat="49.210257036611438" lon="5.195699958130717">
        <ele>279.88</ele>
        <time>2018-07-10T13:22:13Z</time>
      </trkpt>
      <trkpt lat="49.209299990907311" lon="5.197290005162358">
        <ele>286.13</ele>
        <time>2018-07-10T13:22:21Z</time>
      </trkpt>
      <trkpt lat="49.209223967045546" lon="5.197477005422115">
        <ele>287.08999999999997</ele>
        <time>2018-07-10T13:22:22Z</time>
      </trkpt>
      <trkpt lat="49.209170993417501" lon="5.197660988196731">
        <ele>287.56999999999999</ele>
        <time>2018-07-10T13:22:23Z</time>
      </trkpt>
      <trkpt lat="49.20914500951767" lon="5.197859974578023">
        <ele>288.52999999999997</ele>
        <time>2018-07-10T13:22:24Z</time>
      </trkpt>
      <trkpt lat="49.209116008132696" lon="5.198078993707895">
        <ele>289.00999999999999</ele>
        <time>2018-07-10T13:22:25Z</time>
      </trkpt>
      <trkpt lat="49.209084995090961" lon="5.198318967595696">
        <ele>289.49000000000001</ele>
        <time>2018-07-10T13:22:26Z</time>
      </trkpt>
      <trkpt lat="49.208795987069607" lon="5.200705965980887">
        <ele>290.94</ele>
        <time>2018-07-10T13:22:35Z</time>
      </trkpt>
      <trkpt lat="49.208815013989806" lon="5.202454011887312">
        <ele>285.17000000000002</ele>
        <time>2018-07-10T13:22:43Z</time>
      </trkpt>
      <trkpt lat="49.208814008161426" lon="5.202563982456923">
        <ele>284.69</ele>
        <time>2018-07-10T13:22:44Z</time>
      </trkpt>
      <trkpt lat="49.208799004554749" lon="5.202789036557078">
        <ele>282.27999999999997</ele>
        <time>2018-07-10T13:22:48Z</time>
      </trkpt>
      <trkpt lat="49.208796992897987" lon="5.202871011570096">
        <ele>281.80000000000001</ele>
        <time>2018-07-10T13:22:49Z</time>
      </trkpt>
      <trkpt lat="49.208828005939722" lon="5.202967990189791">
        <ele>281.31999999999999</ele>
        <time>2018-07-10T13:22:50Z</time>
      </trkpt>
      <trkpt lat="49.208865975961089" lon="5.203089024871588">
        <ele>280.83999999999997</ele>
        <time>2018-07-10T13:22:51Z</time>
      </trkpt>
      <trkpt lat="49.208914004266262" lon="5.203240988776088">
        <ele>280.36000000000001</ele>
        <time>2018-07-10T13:22:52Z</time>
      </trkpt>
      <trkpt lat="49.208969995379448" lon="5.203414997085929">
        <ele>280.36000000000001</ele>
        <time>2018-07-10T13:22:53Z</time>
      </trkpt>
      <trkpt lat="49.20948900282383" lon="5.204768003895879">
        <ele>275.56</ele>
        <time>2018-07-10T13:22:59Z</time>
      </trkpt>
      <trkpt lat="49.210257958620787" lon="5.207088030874729">
        <ele>266.89999999999998</ele>
        <time>2018-07-10T13:23:07Z</time>
      </trkpt>
      <trkpt lat="49.21103797852993" lon="5.21035697311163">
        <ele>254.88999999999999</ele>
        <time>2018-07-10T13:23:18Z</time>
      </trkpt>
      <trkpt lat="49.211383983492851" lon="5.211905026808381">
        <ele>248.63999999999999</ele>
        <time>2018-07-10T13:23:26Z</time>
      </trkpt>
      <trkpt lat="49.211391024291515" lon="5.212047016248107">
        <ele>247.68000000000001</ele>
        <time>2018-07-10T13:23:27Z</time>
      </trkpt>
      <trkpt lat="49.211391024291515" lon="5.212174002081156">
        <ele>247.19999999999999</ele>
        <time>2018-07-10T13:23:28Z</time>
      </trkpt>
      <trkpt lat="49.211346013471484" lon="5.212294030934572">
        <ele>246.22999999999999</ele>
        <time>2018-07-10T13:23:29Z</time>
      </trkpt>
      <trkpt lat="49.211307959631085" lon="5.21239603869617">
        <ele>244.78999999999999</ele>
        <time>2018-07-10T13:23:30Z</time>
      </trkpt>
      <trkpt lat="49.211262026801705" lon="5.212519001215696">
        <ele>243.83000000000001</ele>
        <time>2018-07-10T13:23:31Z</time>
      </trkpt>
      <trkpt lat="49.211201006546617" lon="5.212580021470785">
        <ele>243.34999999999999</ele>
        <time>2018-07-10T13:23:32Z</time>
      </trkpt>
      <trkpt lat="49.211111990734935" lon="5.212669037282467">
        <ele>242.38999999999999</ele>
        <time>2018-07-10T13:23:33Z</time>
      </trkpt>
      <trkpt lat="49.211020041257143" lon="5.21267800591886">
        <ele>241.43000000000001</ele>
        <time>2018-07-10T13:23:34Z</time>
      </trkpt>
      <trkpt lat="49.210917027667165" lon="5.212688986212015">
        <ele>240.94999999999999</ele>
        <time>2018-07-10T13:23:35Z</time>
      </trkpt>
      <trkpt lat="49.210812002420425" lon="5.21265503950417">
        <ele>240.47</ele>
        <time>2018-07-10T13:23:36Z</time>
      </trkpt>
      <trkpt lat="49.210711000487208" lon="5.212586978450418">
        <ele>239.99000000000001</ele>
        <time>2018-07-10T13:23:37Z</time>
      </trkpt>
      <trkpt lat="49.210617039352655" lon="5.21248203702271">
        <ele>239.50999999999999</ele>
        <time>2018-07-10T13:23:38Z</time>
      </trkpt>
      <trkpt lat="49.210514025762677" lon="5.212367037311196">
        <ele>239.02000000000001</ele>
        <time>2018-07-10T13:23:39Z</time>
      </trkpt>
      <trkpt lat="49.209731994196773" lon="5.211462965235114">
        <ele>236.13999999999999</ele>
        <time>2018-07-10T13:23:47Z</time>
      </trkpt>
      <trkpt lat="49.209197983145714" lon="5.210875980556011">
        <ele>233.25999999999999</ele>
        <time>2018-07-10T13:23:55Z</time>
      </trkpt>
      <trkpt lat="49.20912598259747" lon="5.210840022191405">
        <ele>232.78</ele>
        <time>2018-07-10T13:23:56Z</time>
      </trkpt>
      <trkpt lat="49.209051970392466" lon="5.210802974179387">
        <ele>232.30000000000001</ele>
        <time>2018-07-10T13:23:57Z</time>
      </trkpt>
      <trkpt lat="49.208977958187461" lon="5.210843039676547">
        <ele>231.81</ele>
        <time>2018-07-10T13:23:58Z</time>
      </trkpt>
      <trkpt lat="49.208895983174443" lon="5.210887966677547">
        <ele>231.33000000000001</ele>
        <time>2018-07-10T13:23:59Z</time>
      </trkpt>
      <trkpt lat="49.208810990676284" lon="5.210934989154339">
        <ele>230.84999999999999</ele>
        <time>2018-07-10T13:24:00Z</time>
      </trkpt>
      <trkpt lat="49.207890992984176" lon="5.211576959118247">
        <ele>227.49000000000001</ele>
        <time>2018-07-10T13:24:11Z</time>
      </trkpt>
      <trkpt lat="49.207807006314397" lon="5.211638985201716">
        <ele>227.00999999999999</ele>
        <time>2018-07-10T13:24:12Z</time>
      </trkpt>
      <trkpt lat="49.207760989665985" lon="5.211700005456805">
        <ele>226.53</ele>
        <time>2018-07-10T13:24:13Z</time>
      </trkpt>
      <trkpt lat="49.207731988281012" lon="5.211810981854796">
        <ele>226.53</ele>
        <time>2018-07-10T13:24:14Z</time>
      </trkpt>
      <trkpt lat="49.207715978845954" lon="5.211948025971651">
        <ele>226.05000000000001</ele>
        <time>2018-07-10T13:24:15Z</time>
      </trkpt>
      <trkpt lat="49.207698041573167" lon="5.212099989876151">
        <ele>226.05000000000001</ele>
        <time>2018-07-10T13:24:16Z</time>
      </trkpt>
      <trkpt lat="49.207678008824587" lon="5.21226997487247">
        <ele>225.56999999999999</ele>
        <time>2018-07-10T13:24:17Z</time>
      </trkpt>
      <trkpt lat="49.207695024088025" lon="5.213650977239013">
        <ele>226.05000000000001</ele>
        <time>2018-07-10T13:24:26Z</time>
      </trkpt>
      <trkpt lat="49.207526966929436" lon="5.21523398347199">
        <ele>227.49000000000001</ele>
        <time>2018-07-10T13:24:37Z</time>
      </trkpt>
      <trkpt lat="49.207473993301392" lon="5.215709991753101">
        <ele>228.44999999999999</ele>
        <time>2018-07-10T13:24:40Z</time>
      </trkpt>
      <trkpt lat="49.207502994686365" lon="5.215863967314363">
        <ele>228.93000000000001</ele>
        <time>2018-07-10T13:24:41Z</time>
      </trkpt>
      <trkpt lat="49.207533001899719" lon="5.216025989502668">
        <ele>228.93000000000001</ele>
        <time>2018-07-10T13:24:42Z</time>
      </trkpt>
      <trkpt lat="49.207570971921086" lon="5.216231010854244">
        <ele>229.41</ele>
        <time>2018-07-10T13:24:43Z</time>
      </trkpt>
      <trkpt lat="49.207626963034272" lon="5.21637300029397">
        <ele>229.41</ele>
        <time>2018-07-10T13:24:44Z</time>
      </trkpt>
      <trkpt lat="49.207697035744786" lon="5.216550026088953">
        <ele>229.41</ele>
        <time>2018-07-10T13:24:45Z</time>
      </trkpt>
      <trkpt lat="49.208442019298673" lon="5.218395972624421">
        <ele>227.97</ele>
        <time>2018-07-10T13:24:54Z</time>
      </trkpt>
      <trkpt lat="49.208939988166094" lon="5.219885017722845">
        <ele>229.41</ele>
        <time>2018-07-10T13:25:00Z</time>
      </trkpt>
      <trkpt lat="49.208971001207829" lon="5.220136977732182">
        <ele>229.88999999999999</ele>
        <time>2018-07-10T13:25:01Z</time>
      </trkpt>
      <trkpt lat="49.209003020077944" lon="5.22039296105504">
        <ele>230.37</ele>
        <time>2018-07-10T13:25:02Z</time>
      </trkpt>
      <trkpt lat="49.208992961794138" lon="5.220673000440002">
        <ele>231.33000000000001</ele>
        <time>2018-07-10T13:25:03Z</time>
      </trkpt>
      <trkpt lat="49.20897401869297" lon="5.220957985147834">
        <ele>231.81</ele>
        <time>2018-07-10T13:25:04Z</time>
      </trkpt>
      <trkpt lat="49.208647962659597" lon="5.223572971299291">
        <ele>237.09999999999999</ele>
        <time>2018-07-10T13:25:12Z</time>
      </trkpt>
      <trkpt lat="49.208096014335752" lon="5.227541970089078">
        <ele>248.63999999999999</ele>
        <time>2018-07-10T13:25:24Z</time>
      </trkpt>
      <trkpt lat="49.207496959716082" lon="5.231279041618109">
        <ele>237.09999999999999</ele>
        <time>2018-07-10T13:25:34Z</time>
      </trkpt>
      <trkpt lat="49.206918021664023" lon="5.234842021018267">
        <ele>232.78</ele>
        <time>2018-07-10T13:25:44Z</time>
      </trkpt>
      <trkpt lat="49.206190975382924" lon="5.239324998110533">
        <ele>228.93000000000001</ele>
        <time>2018-07-10T13:25:57Z</time>
      </trkpt>
      <trkpt lat="49.205967010930181" lon="5.240924013778567">
        <ele>225.56999999999999</ele>
        <time>2018-07-10T13:26:03Z</time>
      </trkpt>
      <trkpt lat="49.205995006486773" lon="5.241129035130143">
        <ele>225.09</ele>
        <time>2018-07-10T13:26:04Z</time>
      </trkpt>
      <trkpt lat="49.206023002043366" lon="5.241332966834307">
        <ele>224.61000000000001</ele>
        <time>2018-07-10T13:26:05Z</time>
      </trkpt>
      <trkpt lat="49.206047980114818" lon="5.241508986800909">
        <ele>223.63999999999999</ele>
        <time>2018-07-10T13:26:06Z</time>
      </trkpt>
      <trkpt lat="49.206142025068402" lon="5.241708979010582">
        <ele>223.16</ele>
        <time>2018-07-10T13:26:07Z</time>
      </trkpt>
      <trkpt lat="49.206228023394942" lon="5.241886004805565">
        <ele>222.19999999999999</ele>
        <time>2018-07-10T13:26:08Z</time>
      </trkpt>
      <trkpt lat="49.206340005621314" lon="5.24204702116549">
        <ele>221.72</ele>
        <time>2018-07-10T13:26:09Z</time>
      </trkpt>
      <trkpt lat="49.206464979797602" lon="5.242209965363145">
        <ele>221.24000000000001</ele>
        <time>2018-07-10T13:26:10Z</time>
      </trkpt>
      <trkpt lat="49.206607975065708" lon="5.242365030571818">
        <ele>220.75999999999999</ele>
        <time>2018-07-10T13:26:11Z</time>
      </trkpt>
      <trkpt lat="49.207818992435932" lon="5.243789032101631">
        <ele>220.28</ele>
        <time>2018-07-10T13:26:20Z</time>
      </trkpt>
      <trkpt lat="49.208325007930398" lon="5.245066015049815">
        <ele>223.16</ele>
        <time>2018-07-10T13:26:26Z</time>
      </trkpt>
      <trkpt lat="49.208386028185487" lon="5.245367009192705">
        <ele>223.63999999999999</ele>
        <time>2018-07-10T13:26:27Z</time>
      </trkpt>
      <trkpt lat="49.208874022588134" lon="5.247807987034321">
        <ele>231.33000000000001</ele>
        <time>2018-07-10T13:26:34Z</time>
      </trkpt>
      <trkpt lat="49.209452038630843" lon="5.250064982101321">
        <ele>239.50999999999999</ele>
        <time>2018-07-10T13:26:41Z</time>
      </trkpt>
      <trkpt lat="49.210189981386065" lon="5.251521002501249">
        <ele>244.78999999999999</ele>
        <time>2018-07-10T13:26:47Z</time>
      </trkpt>
      <trkpt lat="49.210330964997411" lon="5.251858960837126">
        <ele>245.75</ele>
        <time>2018-07-10T13:26:49Z</time>
      </trkpt>
      <trkpt lat="49.210376981645823" lon="5.252035986632109">
        <ele>245.75</ele>
        <time>2018-07-10T13:26:50Z</time>
      </trkpt>
      <trkpt lat="49.210411012172699" lon="5.252236984670162">
        <ele>245.27000000000001</ele>
        <time>2018-07-10T13:26:51Z</time>
      </trkpt>
      <trkpt lat="49.210447976365685" lon="5.252459021285176">
        <ele>244.78999999999999</ele>
        <time>2018-07-10T13:26:52Z</time>
      </trkpt>
      <trkpt lat="49.210487036034465" lon="5.252696983516216">
        <ele>243.83000000000001</ele>
        <time>2018-07-10T13:26:53Z</time>
      </trkpt>
      <trkpt lat="49.210530035197735" lon="5.252952966839075">
        <ele>243.34999999999999</ele>
        <time>2018-07-10T13:26:54Z</time>
      </trkpt>
      <trkpt lat="49.210574962198734" lon="5.253224037587643">
        <ele>242.38999999999999</ele>
        <time>2018-07-10T13:26:55Z</time>
      </trkpt>
      <trkpt lat="49.210647968575358" lon="5.253495024517179">
        <ele>241.43000000000001</ele>
        <time>2018-07-10T13:26:56Z</time>
      </trkpt>
      <trkpt lat="49.211407033726573" lon="5.25558203458786">
        <ele>232.30000000000001</ele>
        <time>2018-07-10T13:27:03Z</time>
      </trkpt>
      <trkpt lat="49.212745958939195" lon="5.258630029857159">
        <ele>218.84</ele>
        <time>2018-07-10T13:27:13Z</time>
      </trkpt>
      <trkpt lat="49.214283032342792" lon="5.261597977951169">
        <ele>210.66999999999999</ele>
        <time>2018-07-10T13:27:24Z</time>
      </trkpt>
      <trkpt lat="49.215553980320692" lon="5.264016995206475">
        <ele>205.86000000000001</ele>
        <time>2018-07-10T13:27:35Z</time>
      </trkpt>
      <trkpt lat="49.216124033555388" lon="5.264846971258521">
        <ele>202.49000000000001</ele>
        <time>2018-07-10T13:27:41Z</time>
      </trkpt>
      <trkpt lat="49.216428967192769" lon="5.265160035341978">
        <ele>200.56999999999999</ele>
        <time>2018-07-10T13:27:45Z</time>
      </trkpt>
      <trkpt lat="49.216809002682567" lon="5.265548033639789">
        <ele>198.65000000000001</ele>
        <time>2018-07-10T13:27:50Z</time>
      </trkpt>
      <trkpt lat="49.217437980696559" lon="5.266642039641738">
        <ele>195.77000000000001</ele>
        <time>2018-07-10T13:28:01Z</time>
      </trkpt>
    </trkseg>
  </trk>

  <trk>
    <name>Track vom: 2018-07-10 15:28</name>
    <extensions>
      <gpxx:TrackExtension>
        <gpxx:DisplayColor>DarkGray</gpxx:DisplayColor>
      </gpxx:TrackExtension>
    </extensions>
    <trkseg>
      <trkpt lat="49.218064025044441" lon="5.270712040364742">
        <ele>198.16999999999999</ele>
        <time>2018-07-10T13:28:46Z</time>
      </trkpt>
      <trkpt lat="49.218048015609384" lon="5.270778005942702">
        <ele>198.16999999999999</ele>
        <time>2018-07-10T13:28:47Z</time>
      </trkpt>
      <trkpt lat="49.218029994517565" lon="5.270850006490946">
        <ele>198.16999999999999</ele>
        <time>2018-07-10T13:28:48Z</time>
      </trkpt>
      <trkpt lat="49.218005016446114" lon="5.270947990939021">
        <ele>198.16999999999999</ele>
        <time>2018-07-10T13:28:49Z</time>
      </trkpt>
      <trkpt lat="49.21797601506114" lon="5.271065002307296">
        <ele>198.16999999999999</ele>
        <time>2018-07-10T13:28:50Z</time>
      </trkpt>
      <trkpt lat="49.217935027554631" lon="5.271227024495602">
        <ele>198.16999999999999</ele>
        <time>2018-07-10T13:28:51Z</time>
      </trkpt>
      <trkpt lat="49.217938967049122" lon="5.271338000893593">
        <ele>198.16999999999999</ele>
        <time>2018-07-10T13:28:52Z</time>
      </trkpt>
      <trkpt lat="49.217943996191025" lon="5.271492982283235">
        <ele>197.69</ele>
        <time>2018-07-10T13:28:53Z</time>
      </trkpt>
      <trkpt lat="49.217950031161308" lon="5.271649975329638">
        <ele>197.69</ele>
        <time>2018-07-10T13:28:54Z</time>
      </trkpt>
      <trkpt lat="49.217954976484179" lon="5.271807974204421">
        <ele>197.69</ele>
        <time>2018-07-10T13:28:55Z</time>
      </trkpt>
      <trkpt lat="49.217980038374662" lon="5.271964967250824">
        <ele>197.69</ele>
        <time>2018-07-10T13:28:56Z</time>
      </trkpt>
      <trkpt lat="49.218435008078814" lon="5.273643024265766">
        <ele>196.72999999999999</ele>
        <time>2018-07-10T13:29:06Z</time>
      </trkpt>
      <trkpt lat="49.219097010791302" lon="5.275830030441284">
        <ele>195.28</ele>
        <time>2018-07-10T13:29:18Z</time>
      </trkpt>
      <trkpt lat="49.219966968521476" lon="5.2786819729954">
        <ele>194.31999999999999</ele>
        <time>2018-07-10T13:29:32Z</time>
      </trkpt>
      <trkpt lat="49.220521012321115" lon="5.280582988634706">
        <ele>191.44</ele>
        <time>2018-07-10T13:29:41Z</time>
      </trkpt>
      <trkpt lat="49.220863999798894" lon="5.281760981306434">
        <ele>190.96000000000001</ele>
        <time>2018-07-10T13:29:48Z</time>
      </trkpt>
      <trkpt lat="49.220899036154151" lon="5.281884027644992">
        <ele>190.47999999999999</ele>
        <time>2018-07-10T13:29:49Z</time>
      </trkpt>
      <trkpt lat="49.220922002568841" lon="5.281991986557841">
        <ele>190.47999999999999</ele>
        <time>2018-07-10T13:29:50Z</time>
      </trkpt>
      <trkpt lat="49.2208550311625" lon="5.282255010679364">
        <ele>189.52000000000001</ele>
        <time>2018-07-10T13:29:51Z</time>
      </trkpt>
      <trkpt lat="49.220782024785876" lon="5.282312007620931">
        <ele>189.03999999999999</ele>
        <time>2018-07-10T13:29:52Z</time>
      </trkpt>
      <trkpt lat="49.220697032287717" lon="5.282379984855652">
        <ele>188.56</ele>
        <time>2018-07-10T13:29:53Z</time>
      </trkpt>
      <trkpt lat="49.220595024526119" lon="5.282461037859321">
        <ele>188.56</ele>
        <time>2018-07-10T13:29:54Z</time>
      </trkpt>
      <trkpt lat="49.220479018986225" lon="5.282551981508732">
        <ele>188.08000000000001</ele>
        <time>2018-07-10T13:29:55Z</time>
      </trkpt>
      <trkpt lat="49.220363013446331" lon="5.282678967341781">
        <ele>188.08000000000001</ele>
        <time>2018-07-10T13:29:56Z</time>
      </trkpt>
      <trkpt lat="49.220238961279392" lon="5.282830009236932">
        <ele>188.08000000000001</ele>
        <time>2018-07-10T13:29:57Z</time>
      </trkpt>
      <trkpt lat="49.219059962779284" lon="5.284423995763063">
        <ele>188.56</ele>
        <time>2018-07-10T13:30:05Z</time>
      </trkpt>
      <trkpt lat="49.217523979023099" lon="5.286569008603692">
        <ele>190.47999999999999</ele>
        <time>2018-07-10T13:30:14Z</time>
      </trkpt>
      <trkpt lat="49.215153995901346" lon="5.289807021617889">
        <ele>190.96000000000001</ele>
        <time>2018-07-10T13:30:28Z</time>
      </trkpt>
      <trkpt lat="49.213620023801923" lon="5.291668977588415">
        <ele>191.91999999999999</ele>
        <time>2018-07-10T13:30:37Z</time>
      </trkpt>
      <trkpt lat="49.21348700299859" lon="5.291890008375049">
        <ele>191.91999999999999</ele>
        <time>2018-07-10T13:30:38Z</time>
      </trkpt>
      <trkpt lat="49.213406033813953" lon="5.292159989476204">
        <ele>191.91999999999999</ele>
        <time>2018-07-10T13:30:39Z</time>
      </trkpt>
      <trkpt lat="49.213323974981904" lon="5.292433993890882">
        <ele>191.91999999999999</ele>
        <time>2018-07-10T13:30:40Z</time>
      </trkpt>
      <trkpt lat="49.213239988312125" lon="5.292713027447462">
        <ele>192.40000000000001</ele>
        <time>2018-07-10T13:30:41Z</time>
      </trkpt>
      <trkpt lat="49.212559964507818" lon="5.295923966914415">
        <ele>193.84</ele>
        <time>2018-07-10T13:30:52Z</time>
      </trkpt>
      <trkpt lat="49.212301969528198" lon="5.297567993402481">
        <ele>191.44</ele>
        <time>2018-07-10T13:30:59Z</time>
      </trkpt>
      <trkpt lat="49.211943978443742" lon="5.298888981342316">
        <ele>186.63</ele>
        <time>2018-07-10T13:31:07Z</time>
      </trkpt>
      <trkpt lat="49.211689000949264" lon="5.30061598867178">
        <ele>185.19</ele>
        <time>2018-07-10T13:31:19Z</time>
      </trkpt>
      <trkpt lat="49.211370991542935" lon="5.301807979121804">
        <ele>185.66999999999999</ele>
        <time>2018-07-10T13:31:28Z</time>
      </trkpt>
      <trkpt lat="49.211346013471484" lon="5.301950974389911">
        <ele>185.66999999999999</ele>
        <time>2018-07-10T13:31:29Z</time>
      </trkpt>
      <trkpt lat="49.211331009864807" lon="5.302106961607933">
        <ele>186.15000000000001</ele>
        <time>2018-07-10T13:31:30Z</time>
      </trkpt>
      <trkpt lat="49.211348025128245" lon="5.302254986017942">
        <ele>186.63</ele>
        <time>2018-07-10T13:31:31Z</time>
      </trkpt>
      <trkpt lat="49.211400998756289" lon="5.302402004599571">
        <ele>186.15000000000001</ele>
        <time>2018-07-10T13:31:32Z</time>
      </trkpt>
      <trkpt lat="49.211452966555953" lon="5.302544999867678">
        <ele>186.15000000000001</ele>
        <time>2018-07-10T13:31:33Z</time>
      </trkpt>
      <trkpt lat="49.211506024003029" lon="5.302691012620926">
        <ele>185.66999999999999</ele>
        <time>2018-07-10T13:31:34Z</time>
      </trkpt>
      <trkpt lat="49.211605014279485" lon="5.302963005378842">
        <ele>185.66999999999999</ele>
        <time>2018-07-10T13:31:36Z</time>
      </trkpt>
      <trkpt lat="49.211638038977981" lon="5.303117986768484">
        <ele>186.15000000000001</ele>
        <time>2018-07-10T13:31:37Z</time>
      </trkpt>
      <trkpt lat="49.211667040362954" lon="5.303255030885339">
        <ele>187.11000000000001</ele>
        <time>2018-07-10T13:31:38Z</time>
      </trkpt>
      <trkpt lat="49.211686989292502" lon="5.303403977304697">
        <ele>188.08000000000001</ele>
        <time>2018-07-10T13:31:39Z</time>
      </trkpt>
      <trkpt lat="49.211669974029064" lon="5.303557030856609">
        <ele>188.56</ele>
        <time>2018-07-10T13:31:40Z</time>
      </trkpt>
      <trkpt lat="49.211651030927896" lon="5.303718969225884">
        <ele>189.03999999999999</ele>
        <time>2018-07-10T13:31:41Z</time>
      </trkpt>
      <trkpt lat="49.211632004007697" lon="5.303886020556092">
        <ele>189.03999999999999</ele>
        <time>2018-07-10T13:31:42Z</time>
      </trkpt>
      <trkpt lat="49.211582969874144" lon="5.304041001945734">
        <ele>189.03999999999999</ele>
        <time>2018-07-10T13:31:43Z</time>
      </trkpt>
      <trkpt lat="49.211524967104197" lon="5.304191960021853">
        <ele>189.52000000000001</ele>
        <time>2018-07-10T13:31:44Z</time>
      </trkpt>
      <trkpt lat="49.211466964334249" lon="5.304345013573766">
        <ele>189.52000000000001</ele>
        <time>2018-07-10T13:31:45Z</time>
      </trkpt>
      <trkpt lat="49.211407033726573" lon="5.304499994963408">
        <ele>189.52000000000001</ele>
        <time>2018-07-10T13:31:46Z</time>
      </trkpt>
      <trkpt lat="49.210511008277535" lon="5.306457001715899">
        <ele>193.36000000000001</ele>
        <time>2018-07-10T13:31:58Z</time>
      </trkpt>
      <trkpt lat="49.210077999159694" lon="5.307930037379265">
        <ele>193.84</ele>
        <time>2018-07-10T13:32:05Z</time>
      </trkpt>
      <trkpt lat="49.210043968632817" lon="5.308181997388601">
        <ele>194.31999999999999</ele>
        <time>2018-07-10T13:32:06Z</time>
      </trkpt>
      <trkpt lat="49.210018990561366" lon="5.308444015681744">
        <ele>194.31999999999999</ele>
        <time>2018-07-10T13:32:07Z</time>
      </trkpt>
      <trkpt lat="49.210058972239494" lon="5.310449972748756">
        <ele>194.31999999999999</ele>
        <time>2018-07-10T13:32:14Z</time>
      </trkpt>
      <trkpt lat="49.210024019703269" lon="5.310726994648576">
        <ele>194.31999999999999</ele>
        <time>2018-07-10T13:32:15Z</time>
      </trkpt>
      <trkpt lat="49.209965011104941" lon="5.311003010720015">
        <ele>193.84</ele>
        <time>2018-07-10T13:32:16Z</time>
      </trkpt>
      <trkpt lat="49.209902985021472" lon="5.311290007084608">
        <ele>193.84</ele>
        <time>2018-07-10T13:32:17Z</time>
      </trkpt>
      <trkpt lat="49.209840036928654" lon="5.311582032591105">
        <ele>193.36000000000001</ele>
        <time>2018-07-10T13:32:18Z</time>
      </trkpt>
      <trkpt lat="49.209711039438844" lon="5.312183015048504">
        <ele>193.36000000000001</ele>
        <time>2018-07-10T13:32:20Z</time>
      </trkpt>
      <trkpt lat="49.209601990878582" lon="5.314562972635031">
        <ele>194.31999999999999</ele>
        <time>2018-07-10T13:32:27Z</time>
      </trkpt>
      <trkpt lat="49.209510963410139" lon="5.317738959565759">
        <ele>193.36000000000001</ele>
        <time>2018-07-10T13:32:36Z</time>
      </trkpt>
      <trkpt lat="49.209571983665228" lon="5.320378001779318">
        <ele>194.80000000000001</ele>
        <time>2018-07-10T13:32:44Z</time>
      </trkpt>
      <trkpt lat="49.209794020280242" lon="5.323026012629271">
        <ele>194.31999999999999</ele>
        <time>2018-07-10T13:32:52Z</time>
      </trkpt>
      <trkpt lat="49.210123009979725" lon="5.3252590354532">
        <ele>196.72999999999999</ele>
        <time>2018-07-10T13:32:59Z</time>
      </trkpt>
      <trkpt lat="49.21011102385819" lon="5.327292988076806">
        <ele>194.31999999999999</ele>
        <time>2018-07-10T13:33:05Z</time>
      </trkpt>
      <trkpt lat="49.210539003834128" lon="5.330842975527048">
        <ele>200.56999999999999</ele>
        <time>2018-07-10T13:33:15Z</time>
      </trkpt>
      <trkpt lat="49.211196983233094" lon="5.334673002362251">
        <ele>201.05000000000001</ele>
        <time>2018-07-10T13:33:26Z</time>
      </trkpt>
      <trkpt lat="49.211525972932577" lon="5.336730005219579">
        <ele>204.90000000000001</ele>
        <time>2018-07-10T13:33:33Z</time>
      </trkpt>
      <trkpt lat="49.211562015116215" lon="5.339208031073213">
        <ele>209.22</ele>
        <time>2018-07-10T13:33:41Z</time>
      </trkpt>
      <trkpt lat="49.211490014567971" lon="5.34212501719594">
        <ele>208.74000000000001</ele>
        <time>2018-07-10T13:33:50Z</time>
      </trkpt>
      <trkpt lat="49.210911998525262" lon="5.345739964395762">
        <ele>209.69999999999999</ele>
        <time>2018-07-10T13:34:00Z</time>
      </trkpt>
      <trkpt lat="49.210432972759008" lon="5.347530003637075">
        <ele>212.11000000000001</ele>
        <time>2018-07-10T13:34:06Z</time>
      </trkpt>
      <trkpt lat="49.210294000804424" lon="5.347782969474793">
        <ele>212.11000000000001</ele>
        <time>2018-07-10T13:34:07Z</time>
      </trkpt>
      <trkpt lat="49.21013499610126" lon="5.348036019131541">
        <ele>212.11000000000001</ele>
        <time>2018-07-10T13:34:08Z</time>
      </trkpt>
      <trkpt lat="49.208145970478654" lon="5.350917968899012">
        <ele>211.63</ele>
        <time>2018-07-10T13:34:19Z</time>
      </trkpt>
      <trkpt lat="49.207109967246652" lon="5.352651011198759">
        <ele>214.99000000000001</ele>
        <time>2018-07-10T13:34:26Z</time>
      </trkpt>
      <trkpt lat="49.206358026713133" lon="5.353883989155293">
        <ele>214.03</ele>
        <time>2018-07-10T13:34:33Z</time>
      </trkpt>
      <trkpt lat="49.205684037879109" lon="5.35475897602737">
        <ele>210.66999999999999</ele>
        <time>2018-07-10T13:34:42Z</time>
      </trkpt>
      <trkpt lat="49.205388994887471" lon="5.355132976546884">
        <ele>208.74000000000001</ele>
        <time>2018-07-10T13:34:47Z</time>
      </trkpt>
      <trkpt lat="49.205327974632382" lon="5.355207994580269">
        <ele>208.25999999999999</ele>
        <time>2018-07-10T13:34:48Z</time>
      </trkpt>
      <trkpt lat="49.205267038196325" lon="5.355285024270415">
        <ele>208.25999999999999</ele>
        <time>2018-07-10T13:34:49Z</time>
      </trkpt>
      <trkpt lat="49.204682987183332" lon="5.356045011430979">
        <ele>204.41999999999999</ele>
        <time>2018-07-10T13:35:00Z</time>
      </trkpt>
      <trkpt lat="49.204631019383669" lon="5.356113994494081">
        <ele>203.94</ele>
        <time>2018-07-10T13:35:01Z</time>
      </trkpt>
      <trkpt lat="49.204614004120231" lon="5.356131009757519">
        <ele>203.94</ele>
        <time>2018-07-10T13:35:02Z</time>
      </trkpt>
      <trkpt lat="49.204489029943943" lon="5.356056997552514">
        <ele>203.46000000000001</ele>
        <time>2018-07-10T13:35:03Z</time>
      </trkpt>
      <trkpt lat="49.204460028558969" lon="5.355984997004271">
        <ele>203.46000000000001</ele>
        <time>2018-07-10T13:35:04Z</time>
      </trkpt>
      <trkpt lat="49.204429015517235" lon="5.355930011719465">
        <ele>202.97999999999999</ele>
        <time>2018-07-10T13:35:05Z</time>
      </trkpt>
      <trkpt lat="49.204385010525584" lon="5.355848036706448">
        <ele>202.97999999999999</ele>
        <time>2018-07-10T13:35:06Z</time>
      </trkpt>
      <trkpt lat="49.20433103106916" lon="5.35574896261096">
        <ele>202.97999999999999</ele>
        <time>2018-07-10T13:35:07Z</time>
      </trkpt>
      <trkpt lat="49.203757038339972" lon="5.354643976315856">
        <ele>201.53</ele>
        <time>2018-07-10T13:35:16Z</time>
      </trkpt>
      <trkpt lat="49.202993027865887" lon="5.353246964514256">
        <ele>204.90000000000001</ele>
        <time>2018-07-10T13:35:24Z</time>
      </trkpt>
      <trkpt lat="49.201486967504025" lon="5.351359024643898">
        <ele>215.94999999999999</ele>
        <time>2018-07-10T13:35:34Z</time>
      </trkpt>
      <trkpt lat="49.199521997943521" lon="5.34891402348876">
        <ele>218.84</ele>
        <time>2018-07-10T13:35:46Z</time>
      </trkpt>
      <trkpt lat="49.198260018602014" lon="5.347564034163952">
        <ele>212.11000000000001</ele>
        <time>2018-07-10T13:35:53Z</time>
      </trkpt>
      <trkpt lat="49.197971010580659" lon="5.347179975360632">
        <ele>210.66999999999999</ele>
        <time>2018-07-10T13:35:55Z</time>
      </trkpt>
      <trkpt lat="49.197841007262468" lon="5.346948970109224">
        <ele>210.19</ele>
        <time>2018-07-10T13:35:56Z</time>
      </trkpt>
      <trkpt lat="49.197727013379335" lon="5.346682006493211">
        <ele>209.69999999999999</ele>
        <time>2018-07-10T13:35:57Z</time>
      </trkpt>
      <trkpt lat="49.196671983227134" lon="5.344479996711016">
        <ele>205.38</ele>
        <time>2018-07-10T13:36:05Z</time>
      </trkpt>
      <trkpt lat="49.194947993382812" lon="5.342315034940839">
        <ele>202.00999999999999</ele>
        <time>2018-07-10T13:36:15Z</time>
      </trkpt>
      <trkpt lat="49.194619003683329" lon="5.342008005827665">
        <ele>201.53</ele>
        <time>2018-07-10T13:36:17Z</time>
      </trkpt>
      <trkpt lat="49.194452036172152" lon="5.341875990852714">
        <ele>201.05000000000001</ele>
        <time>2018-07-10T13:36:18Z</time>
      </trkpt>
      <trkpt lat="49.194282973185182" lon="5.341767026111484">
        <ele>200.56999999999999</ele>
        <time>2018-07-10T13:36:19Z</time>
      </trkpt>
      <trkpt lat="49.194098990410566" lon="5.34171698614955">
        <ele>200.09</ele>
        <time>2018-07-10T13:36:20Z</time>
      </trkpt>
      <trkpt lat="49.19391299597919" lon="5.341666024178267">
        <ele>199.61000000000001</ele>
        <time>2018-07-10T13:36:21Z</time>
      </trkpt>
      <trkpt lat="49.193731024861336" lon="5.341682033613324">
        <ele>199.13</ele>
        <time>2018-07-10T13:36:22Z</time>
      </trkpt>
      <trkpt lat="49.193544024601579" lon="5.341725032776594">
        <ele>198.65000000000001</ele>
        <time>2018-07-10T13:36:23Z</time>
      </trkpt>
      <trkpt lat="49.193356018513441" lon="5.341769037768245">
        <ele>198.16999999999999</ele>
        <time>2018-07-10T13:36:24Z</time>
      </trkpt>
      <trkpt lat="49.193169018253684" lon="5.341812958940864">
        <ele>198.16999999999999</ele>
        <time>2018-07-10T13:36:25Z</time>
      </trkpt>
      <trkpt lat="49.192618997767568" lon="5.341887976974249">
        <ele>197.21000000000001</ele>
        <time>2018-07-10T13:36:28Z</time>
      </trkpt>
      <trkpt lat="49.192422023043036" lon="5.341887976974249">
        <ele>197.21000000000001</ele>
        <time>2018-07-10T13:36:29Z</time>
      </trkpt>
      <trkpt lat="49.190212972462177" lon="5.341429989784956">
        <ele>193.36000000000001</ele>
        <time>2018-07-10T13:36:40Z</time>
      </trkpt>
      <trkpt lat="49.189085019752383" lon="5.34111600369215">
        <ele>193.84</ele>
        <time>2018-07-10T13:36:46Z</time>
      </trkpt>
      <trkpt lat="49.188930038362741" lon="5.341012990102172">
        <ele>193.84</ele>
        <time>2018-07-10T13:36:47Z</time>
      </trkpt>
      <trkpt lat="49.188783019781113" lon="5.340865971520543">
        <ele>193.84</ele>
        <time>2018-07-10T13:36:48Z</time>
      </trkpt>
      <trkpt lat="49.188633989542723" lon="5.340718030929565">
        <ele>193.84</ele>
        <time>2018-07-10T13:36:49Z</time>
      </trkpt>
      <trkpt lat="49.188496023416519" lon="5.34053597599268">
        <ele>193.84</ele>
        <time>2018-07-10T13:36:50Z</time>
      </trkpt>
      <trkpt lat="49.188361996784806" lon="5.340329026803374">
        <ele>193.36000000000001</ele>
        <time>2018-07-10T13:36:51Z</time>
      </trkpt>
      <trkpt lat="49.186916034668684" lon="5.337921995669603">
        <ele>195.28</ele>
        <time>2018-07-10T13:37:01Z</time>
      </trkpt>
      <trkpt lat="49.18581398203969" lon="5.336131034418941">
        <ele>197.69</ele>
        <time>2018-07-10T13:37:09Z</time>
      </trkpt>
      <trkpt lat="49.185698982328176" lon="5.335973035544157">
        <ele>197.69</ele>
        <time>2018-07-10T13:37:10Z</time>
      </trkpt>
      <trkpt lat="49.185575013980269" lon="5.335859041661024">
        <ele>198.16999999999999</ele>
        <time>2018-07-10T13:37:11Z</time>
      </trkpt>
      <trkpt lat="49.185442999005318" lon="5.335764996707439">
        <ele>198.16999999999999</ele>
        <time>2018-07-10T13:37:12Z</time>
      </trkpt>
      <trkpt lat="49.185308972373605" lon="5.335707999765873">
        <ele>198.65000000000001</ele>
        <time>2018-07-10T13:37:13Z</time>
      </trkpt>
      <trkpt lat="49.18516899459064" lon="5.335707999765873">
        <ele>198.65000000000001</ele>
        <time>2018-07-10T13:37:14Z</time>
      </trkpt>
      <trkpt lat="49.185029016807675" lon="5.335707999765873">
        <ele>199.13</ele>
        <time>2018-07-10T13:37:15Z</time>
      </trkpt>
      <trkpt lat="49.184895996004343" lon="5.335759967565537">
        <ele>199.61000000000001</ele>
        <time>2018-07-10T13:37:16Z</time>
      </trkpt>
      <trkpt lat="49.184757024049759" lon="5.335849989205599">
        <ele>199.61000000000001</ele>
        <time>2018-07-10T13:37:17Z</time>
      </trkpt>
      <trkpt lat="49.18461000546813" lon="5.335945961996913">
        <ele>199.61000000000001</ele>
        <time>2018-07-10T13:37:18Z</time>
      </trkpt>
      <trkpt lat="49.184463992714882" lon="5.336075965315104">
        <ele>199.61000000000001</ele>
        <time>2018-07-10T13:37:19Z</time>
      </trkpt>
      <trkpt lat="49.183282982558012" lon="5.337352026253939">
        <ele>199.13</ele>
        <time>2018-07-10T13:37:26Z</time>
      </trkpt>
      <trkpt lat="49.180793976411223" lon="5.340124005451798">
        <ele>197.69</ele>
        <time>2018-07-10T13:37:39Z</time>
      </trkpt>
      <trkpt lat="49.178347969427705" lon="5.342810992151499">
        <ele>197.21000000000001</ele>
        <time>2018-07-10T13:37:52Z</time>
      </trkpt>
      <trkpt lat="49.176110001280904" lon="5.345269991084933">
        <ele>197.21000000000001</ele>
        <time>2018-07-10T13:38:05Z</time>
      </trkpt>
      <trkpt lat="49.175301985815167" lon="5.346162999048829">
        <ele>197.69</ele>
        <time>2018-07-10T13:38:12Z</time>
      </trkpt>
      <trkpt lat="49.174387017264962" lon="5.347177963703871">
        <ele>200.09</ele>
        <time>2018-07-10T13:38:21Z</time>
      </trkpt>
      <trkpt lat="49.173266021534801" lon="5.348404990509152">
        <ele>200.09</ele>
        <time>2018-07-10T13:38:33Z</time>
      </trkpt>
      <trkpt lat="49.172348035499454" lon="5.349406963214278">
        <ele>202.00999999999999</ele>
        <time>2018-07-10T13:38:44Z</time>
      </trkpt>
      <trkpt lat="49.171429965645075" lon="5.350392004474998">
        <ele>202.97999999999999</ele>
        <time>2018-07-10T13:38:55Z</time>
      </trkpt>
      <trkpt lat="49.170278962701559" lon="5.351691031828523">
        <ele>202.00999999999999</ele>
        <time>2018-07-10T13:39:09Z</time>
      </trkpt>
      <trkpt lat="49.169188980013132" lon="5.352834993973374">
        <ele>202.97999999999999</ele>
        <time>2018-07-10T13:39:22Z</time>
      </trkpt>
      <trkpt lat="49.168319022282958" lon="5.353886000812054">
        <ele>203.46000000000001</ele>
        <time>2018-07-10T13:39:33Z</time>
      </trkpt>
      <trkpt lat="49.168178960680962" lon="5.354108037427068">
        <ele>203.94</ele>
        <time>2018-07-10T13:39:35Z</time>
      </trkpt>
      <trkpt lat="49.167921971529722" lon="5.354700973257422">
        <ele>206.34</ele>
        <time>2018-07-10T13:39:42Z</time>
      </trkpt>
      <trkpt lat="49.167902022600174" lon="5.354749001562595">
        <ele>206.34</ele>
        <time>2018-07-10T13:39:43Z</time>
      </trkpt>
      <trkpt lat="49.167611002922058" lon="5.35551100037992">
        <ele>207.30000000000001</ele>
        <time>2018-07-10T13:39:51Z</time>
      </trkpt>
      <trkpt lat="49.167042039334774" lon="5.357072968035936">
        <ele>209.69999999999999</ele>
        <time>2018-07-10T13:40:03Z</time>
      </trkpt>
      <trkpt lat="49.166461005806923" lon="5.358653040602803">
        <ele>211.15000000000001</ele>
        <time>2018-07-10T13:40:14Z</time>
      </trkpt>
      <trkpt lat="49.165867986157537" lon="5.360268987715244">
        <ele>213.06999999999999</ele>
        <time>2018-07-10T13:40:25Z</time>
      </trkpt>
      <trkpt lat="49.16568199172616" lon="5.360771985724568">
        <ele>214.50999999999999</ele>
        <time>2018-07-10T13:40:31Z</time>
      </trkpt>
      <trkpt lat="49.165624994784594" lon="5.360935013741255">
        <ele>215.47</ele>
        <time>2018-07-10T13:40:40Z</time>
      </trkpt>
      <trkpt lat="49.16557596065104" lon="5.361070968210697">
        <ele>216.91</ele>
        <time>2018-07-10T13:41:21Z</time>
      </trkpt>
      <trkpt lat="49.165442017838359" lon="5.361427031457424">
        <ele>214.50999999999999</ele>
        <time>2018-07-10T13:41:27Z</time>
      </trkpt>
      <trkpt lat="49.165419973433018" lon="5.361485034227371">
        <ele>213.55000000000001</ele>
        <time>2018-07-10T13:41:28Z</time>
      </trkpt>
      <trkpt lat="49.165287036448717" lon="5.361841013655067">
        <ele>210.66999999999999</ele>
        <time>2018-07-10T13:41:33Z</time>
      </trkpt>
      <trkpt lat="49.165259962901473" lon="5.361912008374929">
        <ele>210.19</ele>
        <time>2018-07-10T13:41:34Z</time>
      </trkpt>
      <trkpt lat="49.165053013712168" lon="5.362469991669059">
        <ele>205.38</ele>
        <time>2018-07-10T13:41:45Z</time>
      </trkpt>
      <trkpt lat="49.164802981540561" lon="5.363121014088392">
        <ele>204.41999999999999</ele>
        <time>2018-07-10T13:41:52Z</time>
      </trkpt>
      <trkpt lat="49.164772974327207" lon="5.363199971616268">
        <ele>204.41999999999999</ele>
        <time>2018-07-10T13:41:53Z</time>
      </trkpt>
      <trkpt lat="49.164593014866114" lon="5.363709004595876">
        <ele>206.81999999999999</ele>
        <time>2018-07-10T13:42:01Z</time>
      </trkpt>
      <trkpt lat="49.164571976289153" lon="5.363767007365823">
        <ele>206.81999999999999</ele>
        <time>2018-07-10T13:42:02Z</time>
      </trkpt>
      <trkpt lat="49.164344994351268" lon="5.364367989823222">
        <ele>209.69999999999999</ele>
        <time>2018-07-10T13:42:12Z</time>
      </trkpt>
      <trkpt lat="49.164324961602688" lon="5.364423980936408">
        <ele>209.69999999999999</ele>
        <time>2018-07-10T13:42:13Z</time>
      </trkpt>
      <trkpt lat="49.16430601850152" lon="5.364480977877975">
        <ele>209.69999999999999</ele>
        <time>2018-07-10T13:42:14Z</time>
      </trkpt>
      <trkpt lat="49.16428497992456" lon="5.364549038931727">
        <ele>209.69999999999999</ele>
        <time>2018-07-10T13:42:15Z</time>
      </trkpt>
      <trkpt lat="49.16426201350987" lon="5.364623973146081">
        <ele>209.69999999999999</ele>
        <time>2018-07-10T13:42:16Z</time>
      </trkpt>
      <trkpt lat="49.164138967171311" lon="5.365019012242556">
        <ele>210.19</ele>
        <time>2018-07-10T13:42:25Z</time>
      </trkpt>
      <trkpt lat="49.164098985493183" lon="5.365194026380777">
        <ele>210.66999999999999</ele>
        <time>2018-07-10T13:42:38Z</time>
      </trkpt>
      <trkpt lat="49.164054980501533" lon="5.365862986072898">
        <ele>209.69999999999999</ele>
        <time>2018-07-10T13:42:50Z</time>
      </trkpt>
      <trkpt lat="49.163931012153625" lon="5.366435972973704">
        <ele>208.74000000000001</ele>
        <time>2018-07-10T13:42:59Z</time>
      </trkpt>
      <trkpt lat="49.163925983011723" lon="5.366457011550665">
        <ele>208.74000000000001</ele>
        <time>2018-07-10T13:43:00Z</time>
      </trkpt>
      <trkpt lat="49.163946015760303" lon="5.36661802791059">
        <ele>208.25999999999999</ele>
        <time>2018-07-10T13:43:01Z</time>
      </trkpt>
      <trkpt lat="49.163840990513563" lon="5.367194032296538">
        <ele>207.30000000000001</ele>
        <time>2018-07-10T13:43:06Z</time>
      </trkpt>
      <trkpt lat="49.163690032437444" lon="5.368219977244735">
        <ele>205.38</ele>
        <time>2018-07-10T13:43:13Z</time>
      </trkpt>
      <trkpt lat="49.163690032437444" lon="5.368354003876448">
        <ele>204.90000000000001</ele>
        <time>2018-07-10T13:43:14Z</time>
      </trkpt>
      <trkpt lat="49.163691038265824" lon="5.368480989709497">
        <ele>204.90000000000001</ele>
        <time>2018-07-10T13:43:15Z</time>
      </trkpt>
      <trkpt lat="49.16370696388185" lon="5.369650013744831">
        <ele>203.46000000000001</ele>
        <time>2018-07-10T13:43:25Z</time>
      </trkpt>
      <trkpt lat="49.163711993023753" lon="5.370332971215248">
        <ele>203.94</ele>
        <time>2018-07-10T13:43:32Z</time>
      </trkpt>
      <trkpt lat="49.163711993023753" lon="5.370391979813576">
        <ele>204.41999999999999</ele>
        <time>2018-07-10T13:43:33Z</time>
      </trkpt>
      <trkpt lat="49.163711993023753" lon="5.370447970926762">
        <ele>204.41999999999999</ele>
        <time>2018-07-10T13:43:34Z</time>
      </trkpt>
      <trkpt lat="49.163711993023753" lon="5.370447970926762">
        <ele>204.41999999999999</ele>
        <time>2018-07-10T13:43:35Z</time>
      </trkpt>
      <trkpt lat="49.163728002458811" lon="5.370540004223585">
        <ele>204.41999999999999</ele>
        <time>2018-07-10T13:43:36Z</time>
      </trkpt>
      <trkpt lat="49.163737976923585" lon="5.37059498950839">
        <ele>204.41999999999999</ele>
        <time>2018-07-10T13:43:37Z</time>
      </trkpt>
      <trkpt lat="49.163748035207391" lon="5.370655003935099">
        <ele>204.41999999999999</ele>
        <time>2018-07-10T13:43:38Z</time>
      </trkpt>
      <trkpt lat="49.163759015500546" lon="5.370717030018568">
        <ele>204.41999999999999</ele>
        <time>2018-07-10T13:43:39Z</time>
      </trkpt>
      <trkpt lat="49.16376898996532" lon="5.370775032788515">
        <ele>204.41999999999999</ele>
        <time>2018-07-10T13:43:40Z</time>
      </trkpt>
      <trkpt lat="49.163776030763984" lon="5.370811996981502">
        <ele>203.94</ele>
        <time>2018-07-10T13:43:41Z</time>
      </trkpt>
      <trkpt lat="49.163782987743616" lon="5.370880980044603">
        <ele>203.94</ele>
        <time>2018-07-10T13:43:42Z</time>
      </trkpt>
      <trkpt lat="49.1637890227139" lon="5.370939988642931">
        <ele>204.41999999999999</ele>
        <time>2018-07-10T13:43:52Z</time>
      </trkpt>
      <trkpt lat="49.163797991350293" lon="5.371021963655949">
        <ele>204.41999999999999</ele>
        <time>2018-07-10T13:44:06Z</time>
      </trkpt>
      <trkpt lat="49.163711993023753" lon="5.371220028027892">
        <ele>204.41999999999999</ele>
        <time>2018-07-10T13:44:13Z</time>
      </trkpt>
      <trkpt lat="49.163699001073837" lon="5.37123897112906">
        <ele>204.41999999999999</ele>
        <time>2018-07-10T13:44:14Z</time>
      </trkpt>
      <trkpt lat="49.163668993860483" lon="5.371354976668954">
        <ele>204.41999999999999</ele>
        <time>2018-07-10T13:44:15Z</time>
      </trkpt>
      <trkpt lat="49.163668993860483" lon="5.371455978602171">
        <ele>204.41999999999999</ele>
        <time>2018-07-10T13:44:16Z</time>
      </trkpt>
      <trkpt lat="49.163762032985687" lon="5.3715839702636">
        <ele>203.94</ele>
        <time>2018-07-10T13:44:17Z</time>
      </trkpt>
      <trkpt lat="49.163783993571997" lon="5.371726965531707">
        <ele>203.94</ele>
        <time>2018-07-10T13:44:18Z</time>
      </trkpt>
      <trkpt lat="49.163868986070156" lon="5.372007004916668">
        <ele>203.46000000000001</ele>
        <time>2018-07-10T13:44:20Z</time>
      </trkpt>
      <trkpt lat="49.164313981309533" lon="5.373244006186724">
        <ele>204.41999999999999</ele>
        <time>2018-07-10T13:44:27Z</time>
      </trkpt>
      <trkpt lat="49.164354968816042" lon="5.3734300006181">
        <ele>204.90000000000001</ele>
        <time>2018-07-10T13:44:28Z</time>
      </trkpt>
      <trkpt lat="49.164418000727892" lon="5.373809030279517">
        <ele>205.38</ele>
        <time>2018-07-10T13:44:30Z</time>
      </trkpt>
      <trkpt lat="49.164405008777976" lon="5.373969040811062">
        <ele>205.38</ele>
        <time>2018-07-10T13:44:31Z</time>
      </trkpt>
      <trkpt lat="49.164388999342918" lon="5.374124022200704">
        <ele>205.38</ele>
        <time>2018-07-10T13:44:32Z</time>
      </trkpt>
      <trkpt lat="49.164356980472803" lon="5.374269029125571">
        <ele>205.38</ele>
        <time>2018-07-10T13:44:33Z</time>
      </trkpt>
      <trkpt lat="49.164272993803024" lon="5.374368019402027">
        <ele>205.86000000000001</ele>
        <time>2018-07-10T13:44:34Z</time>
      </trkpt>
      <trkpt lat="49.164188001304865" lon="5.374468015506864">
        <ele>205.86000000000001</ele>
        <time>2018-07-10T13:44:35Z</time>
      </trkpt>
      <trkpt lat="49.164083981886506" lon="5.374541021883488">
        <ele>206.34</ele>
        <time>2018-07-10T13:44:36Z</time>
      </trkpt>
      <trkpt lat="49.163973005488515" lon="5.374570023268461">
        <ele>206.81999999999999</ele>
        <time>2018-07-10T13:44:37Z</time>
      </trkpt>
      <trkpt lat="49.163861023262143" lon="5.374586032703519">
        <ele>206.81999999999999</ele>
        <time>2018-07-10T13:44:38Z</time>
      </trkpt>
      <trkpt lat="49.163200026378036" lon="5.3745680116117">
        <ele>206.34</ele>
        <time>2018-07-10T13:44:44Z</time>
      </trkpt>
      <trkpt lat="49.16310396976769" lon="5.374608999118209">
        <ele>206.34</ele>
        <time>2018-07-10T13:44:45Z</time>
      </trkpt>
      <trkpt lat="49.163006991147995" lon="5.37465400993824">
        <ele>206.34</ele>
        <time>2018-07-10T13:44:46Z</time>
      </trkpt>
      <trkpt lat="49.162940019741654" lon="5.374728022143245">
        <ele>205.86000000000001</ele>
        <time>2018-07-10T13:44:47Z</time>
      </trkpt>
      <trkpt lat="49.16288997977972" lon="5.374859031289816">
        <ele>205.86000000000001</ele>
        <time>2018-07-10T13:44:48Z</time>
      </trkpt>
      <trkpt lat="49.162840023636818" lon="5.374991968274117">
        <ele>205.38</ele>
        <time>2018-07-10T13:44:49Z</time>
      </trkpt>
      <trkpt lat="49.162788977846503" lon="5.375124989077449">
        <ele>205.38</ele>
        <time>2018-07-10T13:44:50Z</time>
      </trkpt>
      <trkpt lat="49.162788977846503" lon="5.375250969082117">
        <ele>204.90000000000001</ele>
        <time>2018-07-10T13:44:51Z</time>
      </trkpt>
      <trkpt lat="49.162788977846503" lon="5.375374015420675">
        <ele>204.90000000000001</ele>
        <time>2018-07-10T13:44:52Z</time>
      </trkpt>
      <trkpt lat="49.162788977846503" lon="5.375484991818667">
        <ele>204.41999999999999</ele>
        <time>2018-07-10T13:44:53Z</time>
      </trkpt>
      <trkpt lat="49.162822002544999" lon="5.375634022057056">
        <ele>203.94</ele>
        <time>2018-07-10T13:44:55Z</time>
      </trkpt>
      <trkpt lat="49.162753019481897" lon="5.37596401758492">
        <ele>203.46000000000001</ele>
        <time>2018-07-10T13:44:59Z</time>
      </trkpt>
      <trkpt lat="49.162771962583065" lon="5.376031994819641">
        <ele>203.46000000000001</ele>
        <time>2018-07-10T13:45:00Z</time>
      </trkpt>
      <trkpt lat="49.162788977846503" lon="5.376091003417969">
        <ele>202.97999999999999</ele>
        <time>2018-07-10T13:45:01Z</time>
      </trkpt>
      <trkpt lat="49.162884028628469" lon="5.376163003966212">
        <ele>202.97999999999999</ele>
        <time>2018-07-10T13:45:02Z</time>
      </trkpt>
      <trkpt lat="49.162896014750004" lon="5.376258976757526">
        <ele>202.49000000000001</ele>
        <time>2018-07-10T13:45:03Z</time>
      </trkpt>
      <trkpt lat="49.1629100125283" lon="5.376364002004266">
        <ele>202.49000000000001</ele>
        <time>2018-07-10T13:45:04Z</time>
      </trkpt>
      <trkpt lat="49.163244031369686" lon="5.377700999379158">
        <ele>200.56999999999999</ele>
        <time>2018-07-10T13:45:15Z</time>
      </trkpt>
      <trkpt lat="49.163797991350293" lon="5.378721999004483">
        <ele>201.05000000000001</ele>
        <time>2018-07-10T13:45:25Z</time>
      </trkpt>
      <trkpt lat="49.163853982463479" lon="5.378813026472926">
        <ele>201.05000000000001</ele>
        <time>2018-07-10T13:45:26Z</time>
      </trkpt>
      <trkpt lat="49.164129998534918" lon="5.379266990348697">
        <ele>200.09</ele>
        <time>2018-07-10T13:45:34Z</time>
      </trkpt>
      <trkpt lat="49.164191018790007" lon="5.379388025030494">
        <ele>200.09</ele>
        <time>2018-07-10T13:45:37Z</time>
      </trkpt>
      <trkpt lat="49.1642190143466" lon="5.37944502197206">
        <ele>200.09</ele>
        <time>2018-07-10T13:45:38Z</time>
      </trkpt>
      <trkpt lat="49.164226977154613" lon="5.379460025578737">
        <ele>200.56999999999999</ele>
        <time>2018-07-10T13:45:39Z</time>
      </trkpt>
      <trkpt lat="49.164255978539586" lon="5.37963897921145">
        <ele>200.56999999999999</ele>
        <time>2018-07-10T13:45:40Z</time>
      </trkpt>
      <trkpt lat="49.164334014058113" lon="5.379632022231817">
        <ele>200.56999999999999</ele>
        <time>2018-07-10T13:45:41Z</time>
      </trkpt>
      <trkpt lat="49.164379024878144" lon="5.379698993638158">
        <ele>200.09</ele>
        <time>2018-07-10T13:45:42Z</time>
      </trkpt>
      <trkpt lat="49.164425041526556" lon="5.379775017499924">
        <ele>200.09</ele>
        <time>2018-07-10T13:45:43Z</time>
      </trkpt>
      <trkpt lat="49.164470974355936" lon="5.379850035533309">
        <ele>200.09</ele>
        <time>2018-07-10T13:45:44Z</time>
      </trkpt>
      <trkpt lat="49.16456401348114" lon="5.380001999437809">
        <ele>200.09</ele>
        <time>2018-07-10T13:45:46Z</time>
      </trkpt>
      <trkpt lat="49.164612963795662" lon="5.380081962794066">
        <ele>200.09</ele>
        <time>2018-07-10T13:45:47Z</time>
      </trkpt>
      <trkpt lat="49.164653029292822" lon="5.380168966948986">
        <ele>200.09</ele>
        <time>2018-07-10T13:45:48Z</time>
      </trkpt>
      <trkpt lat="49.164690999314189" lon="5.380253037437797">
        <ele>200.09</ele>
        <time>2018-07-10T13:45:49Z</time>
      </trkpt>
      <trkpt lat="49.164726035669446" lon="5.380329983308911">
        <ele>200.09</ele>
        <time>2018-07-10T13:45:50Z</time>
      </trkpt>
      <trkpt lat="49.164848998188972" lon="5.380597030743957">
        <ele>201.53</ele>
        <time>2018-07-10T13:45:57Z</time>
      </trkpt>
      <trkpt lat="49.165044967085123" lon="5.381179992109537">
        <ele>200.56999999999999</ele>
        <time>2018-07-10T13:46:07Z</time>
      </trkpt>
      <trkpt lat="49.165076985955238" lon="5.381280994042754">
        <ele>200.56999999999999</ele>
        <time>2018-07-10T13:46:09Z</time>
      </trkpt>
      <trkpt lat="49.165120990946889" lon="5.381414014846087">
        <ele>200.56999999999999</ele>
        <time>2018-07-10T13:46:18Z</time>
      </trkpt>
      <trkpt lat="49.165105987340212" lon="5.381626999005675">
        <ele>201.05000000000001</ele>
        <time>2018-07-10T13:46:22Z</time>
      </trkpt>
      <trkpt lat="49.16512199677527" lon="5.381673015654087">
        <ele>201.53</ele>
        <time>2018-07-10T13:46:23Z</time>
      </trkpt>
      <trkpt lat="49.165146974846721" lon="5.381749961525202">
        <ele>201.53</ele>
        <time>2018-07-10T13:46:24Z</time>
      </trkpt>
      <trkpt lat="49.165234984830022" lon="5.381755996495485">
        <ele>201.53</ele>
        <time>2018-07-10T13:46:25Z</time>
      </trkpt>
      <trkpt lat="49.165354007855058" lon="5.381707968190312">
        <ele>201.53</ele>
        <time>2018-07-10T13:46:26Z</time>
      </trkpt>
      <trkpt lat="49.165411004796624" lon="5.381773011758924">
        <ele>201.53</ele>
        <time>2018-07-10T13:46:27Z</time>
      </trkpt>
      <trkpt lat="49.165471019223332" lon="5.381841994822025">
        <ele>201.05000000000001</ele>
        <time>2018-07-10T13:46:28Z</time>
      </trkpt>
      <trkpt lat="49.165528016164899" lon="5.381926987320185">
        <ele>200.56999999999999</ele>
        <time>2018-07-10T13:46:29Z</time>
      </trkpt>
      <trkpt lat="49.165581995621324" lon="5.382008040323854">
        <ele>200.09</ele>
        <time>2018-07-10T13:46:30Z</time>
      </trkpt>
      <trkpt lat="49.165636980906129" lon="5.382091021165252">
        <ele>200.09</ele>
        <time>2018-07-10T13:46:31Z</time>
      </trkpt>
    </trkseg>
  </trk>

  <trk>
    <name>Track vom: 2018-07-10 15:46</name>
    <extensions>
      <gpxx:TrackExtension>
        <gpxx:DisplayColor>DarkGray</gpxx:DisplayColor>
      </gpxx:TrackExtension>
    </extensions>
    <trkseg>
      <trkpt lat="49.166081976145506" lon="5.382757969200611">
        <ele>198.65000000000001</ele>
        <time>2018-07-10T13:46:39Z</time>
      </trkpt>
      <trkpt lat="49.166628979146481" lon="5.383560033515096">
        <ele>196.25</ele>
        <time>2018-07-10T13:46:48Z</time>
      </trkpt>
      <trkpt lat="49.167220992967486" lon="5.384531999006867">
        <ele>197.69</ele>
        <time>2018-07-10T13:46:59Z</time>
      </trkpt>
      <trkpt lat="49.167355019599199" lon="5.38479401730001">
        <ele>198.65000000000001</ele>
        <time>2018-07-10T13:47:06Z</time>
      </trkpt>
      <trkpt lat="49.167348984628916" lon="5.384866017848253">
        <ele>199.13</ele>
        <time>2018-07-10T13:47:07Z</time>
      </trkpt>
      <trkpt lat="49.167510000988841" lon="5.385841000825167">
        <ele>201.05000000000001</ele>
        <time>2018-07-10T13:47:16Z</time>
      </trkpt>
      <trkpt lat="49.167563980445266" lon="5.38636201992631">
        <ele>201.05000000000001</ele>
        <time>2018-07-10T13:47:24Z</time>
      </trkpt>
      <trkpt lat="49.167589964345098" lon="5.38653401657939">
        <ele>201.05000000000001</ele>
        <time>2018-07-10T13:47:36Z</time>
      </trkpt>
      <trkpt lat="49.167616032063961" lon="5.38670701906085">
        <ele>201.53</ele>
        <time>2018-07-10T13:47:39Z</time>
      </trkpt>
      <trkpt lat="49.167617037892342" lon="5.386712970212102">
        <ele>201.53</ele>
        <time>2018-07-10T13:47:40Z</time>
      </trkpt>
      <trkpt lat="49.167660037055612" lon="5.386969959363341">
        <ele>201.05000000000001</ele>
        <time>2018-07-10T13:47:41Z</time>
      </trkpt>
      <trkpt lat="49.167660037055612" lon="5.386969959363341">
        <ele>201.05000000000001</ele>
        <time>2018-07-10T13:47:42Z</time>
      </trkpt>
      <trkpt lat="49.167666994035244" lon="5.387059981003404">
        <ele>201.05000000000001</ele>
        <time>2018-07-10T13:47:43Z</time>
      </trkpt>
      <trkpt lat="49.167676968500018" lon="5.387172969058156">
        <ele>201.05000000000001</ele>
        <time>2018-07-10T13:47:44Z</time>
      </trkpt>
      <trkpt lat="49.167689960449934" lon="5.387294003739953">
        <ele>201.05000000000001</ele>
        <time>2018-07-10T13:47:45Z</time>
      </trkpt>
      <trkpt lat="49.167706975713372" lon="5.387420989573002">
        <ele>201.05000000000001</ele>
        <time>2018-07-10T13:47:46Z</time>
      </trkpt>
      <trkpt lat="49.16776699014008" lon="5.388463027775288">
        <ele>202.00999999999999</ele>
        <time>2018-07-10T13:47:53Z</time>
      </trkpt>
      <trkpt lat="49.167734971269965" lon="5.389859033748508">
        <ele>200.56999999999999</ele>
        <time>2018-07-10T13:48:02Z</time>
      </trkpt>
      <trkpt lat="49.167728014290333" lon="5.390020972117782">
        <ele>200.56999999999999</ele>
        <time>2018-07-10T13:48:03Z</time>
      </trkpt>
      <trkpt lat="49.167673029005527" lon="5.392059031873941">
        <ele>199.13</ele>
        <time>2018-07-10T13:48:15Z</time>
      </trkpt>
      <trkpt lat="49.167617037892342" lon="5.394287025555968">
        <ele>202.00999999999999</ele>
        <time>2018-07-10T13:48:28Z</time>
      </trkpt>
      <trkpt lat="49.167598010972142" lon="5.394893037155271">
        <ele>202.49000000000001</ele>
        <time>2018-07-10T13:48:32Z</time>
      </trkpt>
      <trkpt lat="49.167592981830239" lon="5.395049024373293">
        <ele>202.49000000000001</ele>
        <time>2018-07-10T13:48:33Z</time>
      </trkpt>
      <trkpt lat="49.167560040950775" lon="5.396121991798282">
        <ele>201.05000000000001</ele>
        <time>2018-07-10T13:48:40Z</time>
      </trkpt>
      <trkpt lat="49.167504971846938" lon="5.398086961358786">
        <ele>202.97999999999999</ele>
        <time>2018-07-10T13:48:52Z</time>
      </trkpt>
      <trkpt lat="49.167490974068642" lon="5.398601023480296">
        <ele>204.90000000000001</ele>
        <time>2018-07-10T13:48:57Z</time>
      </trkpt>
      <trkpt lat="49.16748896241188" lon="5.398675035685301">
        <ele>204.90000000000001</ele>
        <time>2018-07-10T13:48:58Z</time>
      </trkpt>
      <trkpt lat="49.167416961863637" lon="5.398741001263261">
        <ele>204.90000000000001</ele>
        <time>2018-07-10T13:48:59Z</time>
      </trkpt>
      <trkpt lat="49.167467001825571" lon="5.398901011794806">
        <ele>204.90000000000001</ele>
        <time>2018-07-10T13:49:00Z</time>
      </trkpt>
      <trkpt lat="49.16746499016881" lon="5.398963037878275">
        <ele>204.90000000000001</ele>
        <time>2018-07-10T13:49:01Z</time>
      </trkpt>
      <trkpt lat="49.167461972683668" lon="5.399081977084279">
        <ele>205.38</ele>
        <time>2018-07-10T13:49:02Z</time>
      </trkpt>
      <trkpt lat="49.167459039017558" lon="5.39921198040247">
        <ele>204.90000000000001</ele>
        <time>2018-07-10T13:49:03Z</time>
      </trkpt>
      <trkpt lat="49.167428025975823" lon="5.400742013007402">
        <ele>204.90000000000001</ele>
        <time>2018-07-10T13:49:12Z</time>
      </trkpt>
      <trkpt lat="49.167242031544447" lon="5.403139991685748">
        <ele>208.25999999999999</ele>
        <time>2018-07-10T13:49:25Z</time>
      </trkpt>
      <trkpt lat="49.166829977184534" lon="5.404385039582849">
        <ele>210.66999999999999</ele>
        <time>2018-07-10T13:49:34Z</time>
      </trkpt>
      <trkpt lat="49.166116006672382" lon="5.405881963670254">
        <ele>213.55000000000001</ele>
        <time>2018-07-10T13:49:46Z</time>
      </trkpt>
      <trkpt lat="49.165781987830997" lon="5.406565004959703">
        <ele>216.43000000000001</ele>
        <time>2018-07-10T13:49:52Z</time>
      </trkpt>
      <trkpt lat="49.165741000324488" lon="5.406659971922636">
        <ele>216.43000000000001</ele>
        <time>2018-07-10T13:49:53Z</time>
      </trkpt>
      <trkpt lat="49.165729014202952" lon="5.406782012432814">
        <ele>217.40000000000001</ele>
        <time>2018-07-10T13:49:54Z</time>
      </trkpt>
      <trkpt lat="49.165729014202952" lon="5.406912015751004">
        <ele>217.88</ele>
        <time>2018-07-10T13:49:55Z</time>
      </trkpt>
      <trkpt lat="49.165714010596275" lon="5.407049981877208">
        <ele>218.84</ele>
        <time>2018-07-10T13:49:56Z</time>
      </trkpt>
      <trkpt lat="49.165696995332837" lon="5.407193982973695">
        <ele>219.80000000000001</ele>
        <time>2018-07-10T13:49:57Z</time>
      </trkpt>
      <trkpt lat="49.165678974241018" lon="5.407350976020098">
        <ele>221.24000000000001</ele>
        <time>2018-07-10T13:49:58Z</time>
      </trkpt>
      <trkpt lat="49.165598005056381" lon="5.408033011481166">
        <ele>225.09</ele>
        <time>2018-07-10T13:50:02Z</time>
      </trkpt>
      <trkpt lat="49.165748963132501" lon="5.409662034362555">
        <ele>230.84999999999999</ele>
        <time>2018-07-10T13:50:11Z</time>
      </trkpt>
      <trkpt lat="49.166403003036976" lon="5.411343025043607">
        <ele>234.69999999999999</ele>
        <time>2018-07-10T13:50:21Z</time>
      </trkpt>
      <trkpt lat="49.167037010192871" lon="5.412911027669907">
        <ele>239.99000000000001</ele>
        <time>2018-07-10T13:50:29Z</time>
      </trkpt>
      <trkpt lat="49.167076991870999" lon="5.41311101987958">
        <ele>240.94999999999999</ele>
        <time>2018-07-10T13:50:30Z</time>
      </trkpt>
      <trkpt lat="49.167093001306057" lon="5.413307994604111">
        <ele>241.91</ele>
        <time>2018-07-10T13:50:31Z</time>
      </trkpt>
      <trkpt lat="49.167068023234606" lon="5.413505975157023">
        <ele>242.87</ele>
        <time>2018-07-10T13:50:32Z</time>
      </trkpt>
      <trkpt lat="49.167036004364491" lon="5.413703033700585">
        <ele>243.83000000000001</ele>
        <time>2018-07-10T13:50:33Z</time>
      </trkpt>
      <trkpt lat="49.166998034343123" lon="5.413909982889891">
        <ele>244.78999999999999</ele>
        <time>2018-07-10T13:50:34Z</time>
      </trkpt>
      <trkpt lat="49.166958974674344" lon="5.41412103921175">
        <ele>245.27000000000001</ele>
        <time>2018-07-10T13:50:35Z</time>
      </trkpt>
      <trkpt lat="49.166815979406238" lon="5.414954032748938">
        <ele>248.63999999999999</ele>
        <time>2018-07-10T13:50:39Z</time>
      </trkpt>
      <trkpt lat="49.166801981627941" lon="5.415123011916876">
        <ele>249.12</ele>
        <time>2018-07-10T13:50:40Z</time>
      </trkpt>
      <trkpt lat="49.166853027418256" lon="5.415295008569956">
        <ele>249.12</ele>
        <time>2018-07-10T13:50:41Z</time>
      </trkpt>
      <trkpt lat="49.166898038238287" lon="5.415444960817695">
        <ele>249.59999999999999</ele>
        <time>2018-07-10T13:50:42Z</time>
      </trkpt>
      <trkpt lat="49.166952017694712" lon="5.415578987449408">
        <ele>250.08000000000001</ele>
        <time>2018-07-10T13:50:43Z</time>
      </trkpt>
      <trkpt lat="49.167033992707729" lon="5.415680995211005">
        <ele>250.56</ele>
        <time>2018-07-10T13:50:44Z</time>
      </trkpt>
      <trkpt lat="49.167119991034269" lon="5.415776968002319">
        <ele>251.03999999999999</ele>
        <time>2018-07-10T13:50:45Z</time>
      </trkpt>
      <trkpt lat="49.167215963825583" lon="5.415835976600647">
        <ele>252</ele>
        <time>2018-07-10T13:50:46Z</time>
      </trkpt>
      <trkpt lat="49.167303973808885" lon="5.415905965492129">
        <ele>252</ele>
        <time>2018-07-10T13:50:47Z</time>
      </trkpt>
      <trkpt lat="49.167390977963805" lon="5.415976038202643">
        <ele>252.47999999999999</ele>
        <time>2018-07-10T13:50:48Z</time>
      </trkpt>
      <trkpt lat="49.167479993775487" lon="5.416047032922506">
        <ele>252.96000000000001</ele>
        <time>2018-07-10T13:50:49Z</time>
      </trkpt>
      <trkpt lat="49.167556017637253" lon="5.416138982400298">
        <ele>252.96000000000001</ele>
        <time>2018-07-10T13:50:50Z</time>
      </trkpt>
      <trkpt lat="49.167621983215213" lon="5.416269991546869">
        <ele>252.96000000000001</ele>
        <time>2018-07-10T13:50:51Z</time>
      </trkpt>
      <trkpt lat="49.167681997641921" lon="5.416425978764892">
        <ele>252.47999999999999</ele>
        <time>2018-07-10T13:50:52Z</time>
      </trkpt>
      <trkpt lat="49.167689038440585" lon="5.41661599650979">
        <ele>252.47999999999999</ele>
        <time>2018-07-10T13:50:53Z</time>
      </trkpt>
      <trkpt lat="49.167694989591837" lon="5.416816994547844">
        <ele>252.47999999999999</ele>
        <time>2018-07-10T13:50:54Z</time>
      </trkpt>
      <trkpt lat="49.167702030390501" lon="5.417020004242659">
        <ele>252.47999999999999</ele>
        <time>2018-07-10T13:50:55Z</time>
      </trkpt>
      <trkpt lat="49.167874027043581" lon="5.419049011543393">
        <ele>257.29000000000002</ele>
        <time>2018-07-10T13:51:04Z</time>
      </trkpt>
      <trkpt lat="49.16795801371336" lon="5.419275993481278">
        <ele>258.25</ele>
        <time>2018-07-10T13:51:05Z</time>
      </trkpt>
      <trkpt lat="49.168638959527016" lon="5.421012975275517">
        <ele>264.98000000000002</ele>
        <time>2018-07-10T13:51:13Z</time>
      </trkpt>
      <trkpt lat="49.16870903223753" lon="5.421126969158649">
        <ele>265.45999999999998</ele>
        <time>2018-07-10T13:51:14Z</time>
      </trkpt>
      <trkpt lat="49.168807016685605" lon="5.421153958886862">
        <ele>265.94</ele>
        <time>2018-07-10T13:51:15Z</time>
      </trkpt>
      <trkpt lat="49.16890500113368" lon="5.421167034655809">
        <ele>266.89999999999998</ele>
        <time>2018-07-10T13:51:16Z</time>
      </trkpt>
      <trkpt lat="49.169012038037181" lon="5.421130992472172">
        <ele>267.38</ele>
        <time>2018-07-10T13:51:17Z</time>
      </trkpt>
      <trkpt lat="49.169088983908296" lon="5.421020016074181">
        <ele>268.35000000000002</ele>
        <time>2018-07-10T13:51:18Z</time>
      </trkpt>
      <trkpt lat="49.16916199028492" lon="5.420915996655822">
        <ele>268.82999999999998</ele>
        <time>2018-07-10T13:51:19Z</time>
      </trkpt>
      <trkpt lat="49.169186968356371" lon="5.420747017487884">
        <ele>269.79000000000002</ele>
        <time>2018-07-10T13:51:20Z</time>
      </trkpt>
      <trkpt lat="49.169215969741344" lon="5.420561023056507">
        <ele>270.26999999999998</ele>
        <time>2018-07-10T13:51:21Z</time>
      </trkpt>
      <trkpt lat="49.169245976954699" lon="5.420356001704931">
        <ele>271.23000000000002</ele>
        <time>2018-07-10T13:51:22Z</time>
      </trkpt>
      <trkpt lat="49.169314038008451" lon="5.419908994808793">
        <ele>272.67000000000002</ele>
        <time>2018-07-10T13:51:24Z</time>
      </trkpt>
      <trkpt lat="49.169369023293257" lon="5.41968503035605">
        <ele>273.14999999999998</ele>
        <time>2018-07-10T13:51:25Z</time>
      </trkpt>
      <trkpt lat="49.169450998306274" lon="5.4194700345397">
        <ele>274.11000000000001</ele>
        <time>2018-07-10T13:51:26Z</time>
      </trkpt>
      <trkpt lat="49.169535990804434" lon="5.419245986267924">
        <ele>275.06999999999999</ele>
        <time>2018-07-10T13:51:27Z</time>
      </trkpt>
      <trkpt lat="49.169637998566031" lon="5.419037025421858">
        <ele>276.04000000000002</ele>
        <time>2018-07-10T13:51:28Z</time>
      </trkpt>
      <trkpt lat="49.17027804069221" lon="5.41809699498117">
        <ele>281.80000000000001</ele>
        <time>2018-07-10T13:51:34Z</time>
      </trkpt>
      <trkpt lat="49.170390022918582" lon="5.417999010533094">
        <ele>282.27999999999997</ele>
        <time>2018-07-10T13:51:35Z</time>
      </trkpt>
      <trkpt lat="49.170505022630095" lon="5.417930027469993">
        <ele>283.25</ele>
        <time>2018-07-10T13:51:36Z</time>
      </trkpt>
      <trkpt lat="49.17062496766448" lon="5.417921980842948">
        <ele>283.73000000000002</ele>
        <time>2018-07-10T13:51:37Z</time>
      </trkpt>
      <trkpt lat="49.170744996517897" lon="5.417949976399541">
        <ele>284.69</ele>
        <time>2018-07-10T13:51:38Z</time>
      </trkpt>
      <trkpt lat="49.17083702981472" lon="5.418042009696364">
        <ele>285.64999999999998</ele>
        <time>2018-07-10T13:51:39Z</time>
      </trkpt>
      <trkpt lat="49.170931996777654" lon="5.418136976659298">
        <ele>286.13</ele>
        <time>2018-07-10T13:51:40Z</time>
      </trkpt>
      <trkpt lat="49.171029981225729" lon="5.418234961107373">
        <ele>287.08999999999997</ele>
        <time>2018-07-10T13:51:41Z</time>
      </trkpt>
      <trkpt lat="49.17113701812923" lon="5.418343003839254">
        <ele>287.56999999999999</ele>
        <time>2018-07-10T13:51:42Z</time>
      </trkpt>
      <trkpt lat="49.171252017840743" lon="5.418456997722387">
        <ele>289.00999999999999</ele>
        <time>2018-07-10T13:51:43Z</time>
      </trkpt>
      <trkpt lat="49.17137598618865" lon="5.418566968291998">
        <ele>289.97000000000003</ele>
        <time>2018-07-10T13:51:44Z</time>
      </trkpt>
      <trkpt lat="49.171531973406672" lon="5.418635029345751">
        <ele>290.94</ele>
        <time>2018-07-10T13:51:45Z</time>
      </trkpt>
      <trkpt lat="49.17169701308012" lon="5.418706024065614">
        <ele>291.89999999999998</ele>
        <time>2018-07-10T13:51:46Z</time>
      </trkpt>
      <trkpt lat="49.173277001827955" lon="5.41925503872335">
        <ele>299.11000000000001</ele>
        <time>2018-07-10T13:51:54Z</time>
      </trkpt>
      <trkpt lat="49.174553984776139" lon="5.420006979256868">
        <ele>303.91000000000003</ele>
        <time>2018-07-10T13:52:01Z</time>
      </trkpt>
      <trkpt lat="49.174666972830892" lon="5.420128013938665">
        <ele>304.88</ele>
        <time>2018-07-10T13:52:02Z</time>
      </trkpt>
      <trkpt lat="49.174750037491322" lon="5.420251982286573">
        <ele>305.36000000000001</ele>
        <time>2018-07-10T13:52:03Z</time>
      </trkpt>
      <trkpt lat="49.174785995855927" lon="5.420434037223458">
        <ele>306.31999999999999</ele>
        <time>2018-07-10T13:52:04Z</time>
      </trkpt>
      <trkpt lat="49.174810973927379" lon="5.420620031654835">
        <ele>306.80000000000001</ele>
        <time>2018-07-10T13:52:05Z</time>
      </trkpt>
      <trkpt lat="49.174823965877295" lon="5.420832009986043">
        <ele>307.27999999999997</ele>
        <time>2018-07-10T13:52:06Z</time>
      </trkpt>
      <trkpt lat="49.174837963655591" lon="5.421063015237451">
        <ele>308.24000000000001</ele>
        <time>2018-07-10T13:52:07Z</time>
      </trkpt>
      <trkpt lat="49.174867970868945" lon="5.421556960791349">
        <ele>309.68000000000001</ele>
        <time>2018-07-10T13:52:09Z</time>
      </trkpt>
      <trkpt lat="49.174915999174118" lon="5.421815039590001">
        <ele>310.63999999999999</ele>
        <time>2018-07-10T13:52:10Z</time>
      </trkpt>
      <trkpt lat="49.175394019111991" lon="5.424248976632953">
        <ele>318.81</ele>
        <time>2018-07-10T13:52:18Z</time>
      </trkpt>
      <trkpt lat="49.175788974389434" lon="5.426198020577431">
        <ele>325.54000000000002</ele>
        <time>2018-07-10T13:52:25Z</time>
      </trkpt>
      <trkpt lat="49.176019979640841" lon="5.427193036302924">
        <ele>328.43000000000001</ele>
        <time>2018-07-10T13:52:29Z</time>
      </trkpt>
      <trkpt lat="49.1761239990592" lon="5.427410965785384">
        <ele>328.91000000000003</ele>
        <time>2018-07-10T13:52:30Z</time>
      </trkpt>
      <trkpt lat="49.176237992942333" lon="5.427607018500567">
        <ele>329.87</ele>
        <time>2018-07-10T13:52:31Z</time>
      </trkpt>
      <trkpt lat="49.176371013745666" lon="5.427783960476518">
        <ele>330.35000000000002</ele>
        <time>2018-07-10T13:52:32Z</time>
      </trkpt>
      <trkpt lat="49.176519960165024" lon="5.427945982664824">
        <ele>330.82999999999998</ele>
        <time>2018-07-10T13:52:33Z</time>
      </trkpt>
      <trkpt lat="49.176674019545317" lon="5.428070034831762">
        <ele>331.31</ele>
        <time>2018-07-10T13:52:34Z</time>
      </trkpt>
      <trkpt lat="49.176844004541636" lon="5.428170030936599">
        <ele>331.79000000000002</ele>
        <time>2018-07-10T13:52:35Z</time>
      </trkpt>
      <trkpt lat="49.177002003416419" lon="5.428246976807714">
        <ele>332.26999999999998</ele>
        <time>2018-07-10T13:52:36Z</time>
      </trkpt>
      <trkpt lat="49.177152961492538" lon="5.428287964314222">
        <ele>332.75</ele>
        <time>2018-07-10T13:52:37Z</time>
      </trkpt>
      <trkpt lat="49.177290005609393" lon="5.428285030648112">
        <ele>333.23000000000002</ele>
        <time>2018-07-10T13:52:38Z</time>
      </trkpt>
      <trkpt lat="49.177425038069487" lon="5.428270027041435">
        <ele>333.70999999999998</ele>
        <time>2018-07-10T13:52:39Z</time>
      </trkpt>
      <trkpt lat="49.17756199836731" lon="5.428249994292855">
        <ele>334.19999999999999</ele>
        <time>2018-07-10T13:52:40Z</time>
      </trkpt>
      <trkpt lat="49.177698958665133" lon="5.428183022886515">
        <ele>334.68000000000001</ele>
        <time>2018-07-10T13:52:41Z</time>
      </trkpt>
      <trkpt lat="49.177838014438748" lon="5.428114961832762">
        <ele>335.63999999999999</ele>
        <time>2018-07-10T13:52:42Z</time>
      </trkpt>
      <trkpt lat="49.178946018218994" lon="5.427717994898558">
        <ele>339.48000000000002</ele>
        <time>2018-07-10T13:52:49Z</time>
      </trkpt>
      <trkpt lat="49.179119020700455" lon="5.427740961313248">
        <ele>339.95999999999998</ele>
        <time>2018-07-10T13:52:50Z</time>
      </trkpt>
      <trkpt lat="49.179297974333167" lon="5.42776501737535">
        <ele>340.44</ele>
        <time>2018-07-10T13:52:51Z</time>
      </trkpt>
      <trkpt lat="49.180460963398218" lon="5.428156033158302">
        <ele>341.88999999999999</ele>
        <time>2018-07-10T13:52:57Z</time>
      </trkpt>
      <trkpt lat="49.182463986799121" lon="5.428969999775291">
        <ele>340.92000000000002</ele>
        <time>2018-07-10T13:53:06Z</time>
      </trkpt>
      <trkpt lat="49.183301003649831" lon="5.429166974499822">
        <ele>339.48000000000002</ele>
        <time>2018-07-10T13:53:10Z</time>
      </trkpt>
      <trkpt lat="49.183507030829787" lon="5.429134033620358">
        <ele>339.48000000000002</ele>
        <time>2018-07-10T13:53:11Z</time>
      </trkpt>
      <trkpt lat="49.184081023558974" lon="5.429039988666773">
        <ele>339.95999999999998</ele>
        <time>2018-07-10T13:53:14Z</time>
      </trkpt>
      <trkpt lat="49.184257965534925" lon="5.429047029465437">
        <ele>340.44</ele>
        <time>2018-07-10T13:53:15Z</time>
      </trkpt>
      <trkpt lat="49.18443700298667" lon="5.429081982001662">
        <ele>340.92000000000002</ele>
        <time>2018-07-10T13:53:16Z</time>
      </trkpt>
      <trkpt lat="49.184620985761285" lon="5.429135039448738">
        <ele>341.41000000000003</ele>
        <time>2018-07-10T13:53:17Z</time>
      </trkpt>
      <trkpt lat="49.184788037091494" lon="5.429253978654742">
        <ele>341.88999999999999</ele>
        <time>2018-07-10T13:53:18Z</time>
      </trkpt>
      <trkpt lat="49.184956010431051" lon="5.429374007508159">
        <ele>342.85000000000002</ele>
        <time>2018-07-10T13:53:19Z</time>
      </trkpt>
      <trkpt lat="49.185122977942228" lon="5.429523037746549">
        <ele>343.81</ele>
        <time>2018-07-10T13:53:20Z</time>
      </trkpt>
      <trkpt lat="49.186110030859709" lon="5.430576978251338">
        <ele>346.20999999999998</ele>
        <time>2018-07-10T13:53:27Z</time>
      </trkpt>
      <trkpt lat="49.186752000823617" lon="5.431263037025929">
        <ele>344.76999999999998</ele>
        <time>2018-07-10T13:53:34Z</time>
      </trkpt>
      <trkpt lat="49.186796005815268" lon="5.43131098151207">
        <ele>344.76999999999998</ele>
        <time>2018-07-10T13:53:35Z</time>
      </trkpt>
      <trkpt lat="49.186833975836635" lon="5.431350963190198">
        <ele>344.76999999999998</ele>
        <time>2018-07-10T13:53:36Z</time>
      </trkpt>
      <trkpt lat="49.18686599470675" lon="5.431384993717074">
        <ele>344.76999999999998</ele>
        <time>2018-07-10T13:53:37Z</time>
      </trkpt>
      <trkpt lat="49.187008989974856" lon="5.431537963449955">
        <ele>344.29000000000002</ele>
        <time>2018-07-10T13:53:45Z</time>
      </trkpt>
      <trkpt lat="49.187008989974856" lon="5.431537963449955">
        <ele>343.81</ele>
        <time>2018-07-10T13:53:48Z</time>
      </trkpt>
      <trkpt lat="49.18701603077352" lon="5.431546010077">
        <ele>343.81</ele>
        <time>2018-07-10T13:53:49Z</time>
      </trkpt>
      <trkpt lat="49.187006978318095" lon="5.431536035612226">
        <ele>343.81</ele>
        <time>2018-07-10T13:53:50Z</time>
      </trkpt>
      <trkpt lat="49.186993986368179" lon="5.431522037833929">
        <ele>343.81</ele>
        <time>2018-07-10T13:53:51Z</time>
      </trkpt>
      <trkpt lat="49.186979988589883" lon="5.431507034227252">
        <ele>344.29000000000002</ele>
        <time>2018-07-10T13:53:52Z</time>
      </trkpt>
      <trkpt lat="49.186963979154825" lon="5.431490018963814">
        <ele>344.29000000000002</ele>
        <time>2018-07-10T13:53:53Z</time>
      </trkpt>
      <trkpt lat="49.186947969719768" lon="5.431473003700376">
        <ele>343.81</ele>
        <time>2018-07-10T13:53:54Z</time>
      </trkpt>
      <trkpt lat="49.186947969719768" lon="5.431473003700376">
        <ele>343.81</ele>
        <time>2018-07-10T13:53:55Z</time>
      </trkpt>
      <trkpt lat="49.186810003593564" lon="5.431325985118747">
        <ele>344.29000000000002</ele>
        <time>2018-07-10T13:54:08Z</time>
      </trkpt>
      <trkpt lat="49.186781002208591" lon="5.431293966248632">
        <ele>344.29000000000002</ele>
        <time>2018-07-10T13:54:20Z</time>
      </trkpt>
      <trkpt lat="49.186781002208591" lon="5.431293966248632">
        <ele>344.29000000000002</ele>
        <time>2018-07-10T13:54:40Z</time>
      </trkpt>
      <trkpt lat="49.186781002208591" lon="5.431293966248632">
        <ele>344.29000000000002</ele>
        <time>2018-07-10T13:54:54Z</time>
      </trkpt>
      <trkpt lat="49.186781002208591" lon="5.431293966248632">
        <ele>345.25</ele>
        <time>2018-07-10T13:55:39Z</time>
      </trkpt>
    </trkseg>
  </trk>

  <trk>
    <name>Track vom: 2018-07-10 16:02</name>
    <extensions>
      <gpxx:TrackExtension>
        <gpxx:DisplayColor>DarkGray</gpxx:DisplayColor>
      </gpxx:TrackExtension>
    </extensions>
    <trkseg>
      <trkpt lat="49.186816038563848" lon="5.431186007335782">
        <ele>343.81</ele>
        <time>2018-07-10T14:02:08Z</time>
      </trkpt>
      <trkpt lat="49.186816038563848" lon="5.431186007335782">
        <ele>343.81</ele>
        <time>2018-07-10T14:02:14Z</time>
      </trkpt>
      <trkpt lat="49.186792988330126" lon="5.431306958198547">
        <ele>343.81</ele>
        <time>2018-07-10T14:02:16Z</time>
      </trkpt>
      <trkpt lat="49.186834981665015" lon="5.431351969018579">
        <ele>343.81</ele>
        <time>2018-07-10T14:02:17Z</time>
      </trkpt>
      <trkpt lat="49.186892984434962" lon="5.431412989273667">
        <ele>343.81</ele>
        <time>2018-07-10T14:02:18Z</time>
      </trkpt>
      <trkpt lat="49.186962973326445" lon="5.431488007307053">
        <ele>343.32999999999998</ele>
        <time>2018-07-10T14:02:20Z</time>
      </trkpt>
      <trkpt lat="49.187137987464666" lon="5.43167601339519">
        <ele>343.32999999999998</ele>
        <time>2018-07-10T14:02:21Z</time>
      </trkpt>
      <trkpt lat="49.187137987464666" lon="5.43167601339519">
        <ele>342.85000000000002</ele>
        <time>2018-07-10T14:02:22Z</time>
      </trkpt>
      <trkpt lat="49.18817600235343" lon="5.432785023003817">
        <ele>339.95999999999998</ele>
        <time>2018-07-10T14:02:30Z</time>
      </trkpt>
      <trkpt lat="49.189233966171741" lon="5.433933008462191">
        <ele>339</ele>
        <time>2018-07-10T14:02:38Z</time>
      </trkpt>
      <trkpt lat="49.190434003248811" lon="5.435423981398344">
        <ele>340.44</ele>
        <time>2018-07-10T14:02:48Z</time>
      </trkpt>
      <trkpt lat="49.191617025062442" lon="5.437033977359533">
        <ele>342.37</ele>
        <time>2018-07-10T14:02:56Z</time>
      </trkpt>
      <trkpt lat="49.191916007548571" lon="5.437442008405924">
        <ele>343.81</ele>
        <time>2018-07-10T14:03:00Z</time>
      </trkpt>
      <trkpt lat="49.191991025581956" lon="5.437544016167522">
        <ele>344.29000000000002</ele>
        <time>2018-07-10T14:03:01Z</time>
      </trkpt>
      <trkpt lat="49.192132009193301" lon="5.43773596175015">
        <ele>348.62</ele>
        <time>2018-07-10T14:03:07Z</time>
      </trkpt>
      <trkpt lat="49.192132009193301" lon="5.43773596175015">
        <ele>348.62</ele>
        <time>2018-07-10T14:03:20Z</time>
      </trkpt>
      <trkpt lat="49.192132009193301" lon="5.43773596175015">
        <ele>349.10000000000002</ele>
        <time>2018-07-10T14:03:21Z</time>
      </trkpt>
      <trkpt lat="49.192164028063416" lon="5.43777896091342">
        <ele>349.57999999999998</ele>
        <time>2018-07-10T14:03:22Z</time>
      </trkpt>
      <trkpt lat="49.192184982821345" lon="5.437807962298393">
        <ele>349.57999999999998</ele>
        <time>2018-07-10T14:03:23Z</time>
      </trkpt>
      <trkpt lat="49.192228987812996" lon="5.437867976725102">
        <ele>350.06</ele>
        <time>2018-07-10T14:03:24Z</time>
      </trkpt>
      <trkpt lat="49.192250026389956" lon="5.437846016138792">
        <ele>350.06</ele>
        <time>2018-07-10T14:03:25Z</time>
      </trkpt>
      <trkpt lat="49.192868024110794" lon="5.437228018417954">
        <ele>351.5</ele>
        <time>2018-07-10T14:03:31Z</time>
      </trkpt>
      <trkpt lat="49.193860022351146" lon="5.435880040749908">
        <ele>351.01999999999998</ele>
        <time>2018-07-10T14:03:42Z</time>
      </trkpt>
      <trkpt lat="49.194529987871647" lon="5.434950990602374">
        <ele>351.98000000000002</ele>
        <time>2018-07-10T14:03:50Z</time>
      </trkpt>
      <trkpt lat="49.194682035595179" lon="5.434739012271166">
        <ele>351.98000000000002</ele>
        <time>2018-07-10T14:03:57Z</time>
      </trkpt>
      <trkpt lat="49.195099035277963" lon="5.434157978743315">
        <ele>352.94</ele>
        <time>2018-07-10T14:04:06Z</time>
      </trkpt>
      <trkpt lat="49.195296010002494" lon="5.433862013742328">
        <ele>352.45999999999998</ele>
        <time>2018-07-10T14:04:13Z</time>
      </trkpt>
      <trkpt lat="49.195292992517352" lon="5.43386603705585">
        <ele>351.98000000000002</ele>
        <time>2018-07-10T14:04:16Z</time>
      </trkpt>
      <trkpt lat="49.195282012224197" lon="5.433882968500257">
        <ele>351.98000000000002</ele>
        <time>2018-07-10T14:04:17Z</time>
      </trkpt>
      <trkpt lat="49.195271031931043" lon="5.433899983763695">
        <ele>351.98000000000002</ele>
        <time>2018-07-10T14:04:18Z</time>
      </trkpt>
      <trkpt lat="49.195271031931043" lon="5.433899983763695">
        <ele>351.98000000000002</ele>
        <time>2018-07-10T14:04:19Z</time>
      </trkpt>
      <trkpt lat="49.195271031931043" lon="5.433899983763695">
        <ele>352.45999999999998</ele>
        <time>2018-07-10T14:04:36Z</time>
      </trkpt>
      <trkpt lat="49.195221997797489" lon="5.43397500179708">
        <ele>352.45999999999998</ele>
        <time>2018-07-10T14:05:18Z</time>
      </trkpt>
      <trkpt lat="49.195182016119361" lon="5.434037027880549">
        <ele>352.94</ele>
        <time>2018-07-10T14:05:19Z</time>
      </trkpt>
      <trkpt lat="49.195127030834556" lon="5.434119002893567">
        <ele>352.94</ele>
        <time>2018-07-10T14:05:20Z</time>
      </trkpt>
      <trkpt lat="49.194489000365138" lon="5.435007987543941">
        <ele>353.42000000000002</ele>
        <time>2018-07-10T14:05:29Z</time>
      </trkpt>
      <trkpt lat="49.193218974396586" lon="5.436762990429997">
        <ele>354.38</ele>
        <time>2018-07-10T14:05:39Z</time>
      </trkpt>
      <trkpt lat="49.192112982273102" lon="5.437990017235279">
        <ele>356.31</ele>
        <time>2018-07-10T14:05:48Z</time>
      </trkpt>
      <trkpt lat="49.190704990178347" lon="5.439541004598141">
        <ele>361.58999999999997</ele>
        <time>2018-07-10T14:05:57Z</time>
      </trkpt>
      <trkpt lat="49.189565973356366" lon="5.441688029095531">
        <ele>374.08999999999997</ele>
        <time>2018-07-10T14:06:06Z</time>
      </trkpt>
      <trkpt lat="49.188723005354404" lon="5.444722026586533">
        <ele>376.49000000000001</ele>
        <time>2018-07-10T14:06:15Z</time>
      </trkpt>
      <trkpt lat="49.188534999266267" lon="5.445495005697012">
        <ele>375.05000000000001</ele>
        <time>2018-07-10T14:06:19Z</time>
      </trkpt>
      <trkpt lat="49.188428968191147" lon="5.445788959041238">
        <ele>373.13</ele>
        <time>2018-07-10T14:06:21Z</time>
      </trkpt>
      <trkpt lat="49.188374988734722" lon="5.445897001773119">
        <ele>372.17000000000002</ele>
        <time>2018-07-10T14:06:22Z</time>
      </trkpt>
      <trkpt lat="49.188321009278297" lon="5.445975037291646">
        <ele>371.20999999999998</ele>
        <time>2018-07-10T14:06:23Z</time>
      </trkpt>
      <trkpt lat="49.188232999294996" lon="5.446041002869606">
        <ele>370.24000000000001</ele>
        <time>2018-07-10T14:06:24Z</time>
      </trkpt>
      <trkpt lat="49.188138032332063" lon="5.446094982326031">
        <ele>369.75999999999999</ele>
        <time>2018-07-10T14:06:25Z</time>
      </trkpt>
      <trkpt lat="49.188023032620549" lon="5.446122977882624">
        <ele>368.80000000000001</ele>
        <time>2018-07-10T14:06:26Z</time>
      </trkpt>
      <trkpt lat="49.187170006334782" lon="5.44620000757277">
        <ele>363.04000000000002</ele>
        <time>2018-07-10T14:06:32Z</time>
      </trkpt>
      <trkpt lat="49.186869012191892" lon="5.446236971765757">
        <ele>361.11000000000001</ele>
        <time>2018-07-10T14:06:34Z</time>
      </trkpt>
      <trkpt lat="49.18671403080225" lon="5.446278965100646">
        <ele>360.63</ele>
        <time>2018-07-10T14:06:35Z</time>
      </trkpt>
      <trkpt lat="49.186470033600926" lon="5.4464799631387">
        <ele>359.67000000000002</ele>
        <time>2018-07-10T14:06:36Z</time>
      </trkpt>
      <trkpt lat="49.186332989484072" lon="5.446618013083935">
        <ele>358.70999999999998</ele>
        <time>2018-07-10T14:06:38Z</time>
      </trkpt>
      <trkpt lat="49.186184965074062" lon="5.446761008352041">
        <ele>358.23000000000002</ele>
        <time>2018-07-10T14:06:39Z</time>
      </trkpt>
      <trkpt lat="49.185858992859721" lon="5.446945996955037">
        <ele>357.75</ele>
        <time>2018-07-10T14:06:40Z</time>
      </trkpt>
      <trkpt lat="49.185680961236358" lon="5.446982961148024">
        <ele>357.75</ele>
        <time>2018-07-10T14:06:41Z</time>
      </trkpt>
      <trkpt lat="49.185680961236358" lon="5.446982961148024">
        <ele>357.75</ele>
        <time>2018-07-10T14:06:42Z</time>
      </trkpt>
      <trkpt lat="49.183973986655474" lon="5.447243973612785">
        <ele>356.79000000000002</ele>
        <time>2018-07-10T14:06:51Z</time>
      </trkpt>
      <trkpt lat="49.183690007776022" lon="5.447388980537653">
        <ele>356.79000000000002</ele>
        <time>2018-07-10T14:06:53Z</time>
      </trkpt>
      <trkpt lat="49.183571990579367" lon="5.447496017441154">
        <ele>356.79000000000002</ele>
        <time>2018-07-10T14:06:54Z</time>
      </trkpt>
      <trkpt lat="49.183467971161008" lon="5.447624009102583">
        <ele>356.79000000000002</ele>
        <time>2018-07-10T14:06:55Z</time>
      </trkpt>
      <trkpt lat="49.183389013633132" lon="5.447789970785379">
        <ele>356.79000000000002</ele>
        <time>2018-07-10T14:06:56Z</time>
      </trkpt>
      <trkpt lat="49.183336040005088" lon="5.447975965216756">
        <ele>356.79000000000002</ele>
        <time>2018-07-10T14:06:57Z</time>
      </trkpt>
      <trkpt lat="49.183312989771366" lon="5.448192972689867">
        <ele>356.79000000000002</ele>
        <time>2018-07-10T14:06:58Z</time>
      </trkpt>
      <trkpt lat="49.183297986164689" lon="5.448425989598036">
        <ele>356.79000000000002</ele>
        <time>2018-07-10T14:06:59Z</time>
      </trkpt>
      <trkpt lat="49.183160020038486" lon="5.450750961899757">
        <ele>352.94</ele>
        <time>2018-07-10T14:07:07Z</time>
      </trkpt>
      <trkpt lat="49.183019958436489" lon="5.454004984349012">
        <ele>344.76999999999998</ele>
        <time>2018-07-10T14:07:17Z</time>
      </trkpt>
      <trkpt lat="49.182906970381737" lon="5.456099035218358">
        <ele>339.48000000000002</ele>
        <time>2018-07-10T14:07:26Z</time>
      </trkpt>
      <trkpt lat="49.182876963168383" lon="5.456278994679451">
        <ele>339</ele>
        <time>2018-07-10T14:07:27Z</time>
      </trkpt>
      <trkpt lat="49.182852990925312" lon="5.456419978290796">
        <ele>338.51999999999998</ele>
        <time>2018-07-10T14:07:28Z</time>
      </trkpt>
      <trkpt lat="49.182834969833493" lon="5.456530032679439">
        <ele>338.51999999999998</ele>
        <time>2018-07-10T14:07:29Z</time>
      </trkpt>
      <trkpt lat="49.182776967063546" lon="5.456611001864076">
        <ele>338.04000000000002</ele>
        <time>2018-07-10T14:07:30Z</time>
      </trkpt>
      <trkpt lat="49.182712007313967" lon="5.456675039604306">
        <ele>338.04000000000002</ele>
        <time>2018-07-10T14:07:31Z</time>
      </trkpt>
      <trkpt lat="49.182647969573736" lon="5.456739999353886">
        <ele>338.04000000000002</ele>
        <time>2018-07-10T14:07:32Z</time>
      </trkpt>
      <trkpt lat="49.182499023154378" lon="5.456815017387271">
        <ele>338.51999999999998</ele>
        <time>2018-07-10T14:07:34Z</time>
      </trkpt>
      <trkpt lat="49.18241897597909" lon="5.456833960488439">
        <ele>339</ele>
        <time>2018-07-10T14:07:35Z</time>
      </trkpt>
      <trkpt lat="49.182328032329679" lon="5.456854999065399">
        <ele>339</ele>
        <time>2018-07-10T14:07:36Z</time>
      </trkpt>
      <trkpt lat="49.182218983769417" lon="5.456850975751877">
        <ele>339.48000000000002</ele>
        <time>2018-07-10T14:07:37Z</time>
      </trkpt>
      <trkpt lat="49.182107001543045" lon="5.456842007115483">
        <ele>339.48000000000002</ele>
        <time>2018-07-10T14:07:38Z</time>
      </trkpt>
      <trkpt lat="49.18198999017477" lon="5.456833960488439">
        <ele>339.95999999999998</ele>
        <time>2018-07-10T14:07:39Z</time>
      </trkpt>
      <trkpt lat="49.180916016921401" lon="5.456675961613655">
        <ele>342.37</ele>
        <time>2018-07-10T14:07:46Z</time>
      </trkpt>
      <trkpt lat="49.178807968273759" lon="5.455956039950252">
        <ele>343.32999999999998</ele>
        <time>2018-07-10T14:07:55Z</time>
      </trkpt>
      <trkpt lat="49.177337028086185" lon="5.455420017242432">
        <ele>344.29000000000002</ele>
        <time>2018-07-10T14:08:03Z</time>
      </trkpt>
      <trkpt lat="49.17717601172626" lon="5.455298982560635">
        <ele>344.29000000000002</ele>
        <time>2018-07-10T14:08:04Z</time>
      </trkpt>
      <trkpt lat="49.177024969831109" lon="5.455168979242444">
        <ele>344.29000000000002</ele>
        <time>2018-07-10T14:08:05Z</time>
      </trkpt>
      <trkpt lat="49.176879962906241" lon="5.455016009509563">
        <ele>343.81</ele>
        <time>2018-07-10T14:08:06Z</time>
      </trkpt>
      <trkpt lat="49.176730010658503" lon="5.454855998978019">
        <ele>343.32999999999998</ele>
        <time>2018-07-10T14:08:07Z</time>
      </trkpt>
      <trkpt lat="49.176575029268861" lon="5.454690959304571">
        <ele>343.32999999999998</ele>
        <time>2018-07-10T14:08:08Z</time>
      </trkpt>
      <trkpt lat="49.176415018737316" lon="5.454521980136633">
        <ele>342.85000000000002</ele>
        <time>2018-07-10T14:08:09Z</time>
      </trkpt>
      <trkpt lat="49.176242016255856" lon="5.454388959333301">
        <ele>342.85000000000002</ele>
        <time>2018-07-10T14:08:10Z</time>
      </trkpt>
      <trkpt lat="49.174913987517357" lon="5.453659985214472">
        <ele>337.56</ele>
        <time>2018-07-10T14:08:16Z</time>
      </trkpt>
      <trkpt lat="49.173802966251969" lon="5.453396961092949">
        <ele>328.91000000000003</ele>
        <time>2018-07-10T14:08:23Z</time>
      </trkpt>
      <trkpt lat="49.173802966251969" lon="5.453396961092949">
        <ele>328.43000000000001</ele>
        <time>2018-07-10T14:08:24Z</time>
      </trkpt>
      <trkpt lat="49.173528039827943" lon="5.453512966632843">
        <ele>327.94999999999999</ele>
        <time>2018-07-10T14:08:25Z</time>
      </trkpt>
      <trkpt lat="49.173389989882708" lon="5.453602988272905">
        <ele>327.47000000000003</ele>
        <time>2018-07-10T14:08:26Z</time>
      </trkpt>
      <trkpt lat="49.173389989882708" lon="5.453602988272905">
        <ele>326.5</ele>
        <time>2018-07-10T14:08:27Z</time>
      </trkpt>
      <trkpt lat="49.1731589846313" lon="5.453874981030822">
        <ele>326.01999999999998</ele>
        <time>2018-07-10T14:08:28Z</time>
      </trkpt>
      <trkpt lat="49.173044990748167" lon="5.454009007662535">
        <ele>325.54000000000002</ele>
        <time>2018-07-10T14:08:29Z</time>
      </trkpt>
      <trkpt lat="49.172936026006937" lon="5.454138005152345">
        <ele>324.57999999999998</ele>
        <time>2018-07-10T14:08:30Z</time>
      </trkpt>
      <trkpt lat="49.172759000211954" lon="5.454297009855509">
        <ele>322.66000000000003</ele>
        <time>2018-07-10T14:08:32Z</time>
      </trkpt>
      <trkpt lat="49.17266596108675" lon="5.454344032332301">
        <ele>322.18000000000001</ele>
        <time>2018-07-10T14:08:33Z</time>
      </trkpt>
      <trkpt lat="49.172580968588591" lon="5.454337997362018">
        <ele>321.22000000000003</ele>
        <time>2018-07-10T14:08:34Z</time>
      </trkpt>
      <trkpt lat="49.172465968877077" lon="5.454326011240482">
        <ele>320.74000000000001</ele>
        <time>2018-07-10T14:08:35Z</time>
      </trkpt>
      <trkpt lat="49.172465968877077" lon="5.454326011240482">
        <ele>320.25999999999999</ele>
        <time>2018-07-10T14:08:36Z</time>
      </trkpt>
      <trkpt lat="49.172386005520821" lon="5.454288963228464">
        <ele>319.77999999999997</ele>
        <time>2018-07-10T14:08:37Z</time>
      </trkpt>
      <trkpt lat="49.172283997759223" lon="5.454243030399084">
        <ele>319.30000000000001</ele>
        <time>2018-07-10T14:08:38Z</time>
      </trkpt>
      <trkpt lat="49.172071013599634" lon="5.454095005989075">
        <ele>319.30000000000001</ele>
        <time>2018-07-10T14:08:40Z</time>
      </trkpt>
      <trkpt lat="49.171445975080132" lon="5.453498968854547">
        <ele>318.81</ele>
        <time>2018-07-10T14:08:45Z</time>
      </trkpt>
      <trkpt lat="49.171060994267464" lon="5.453062020242214">
        <ele>319.30000000000001</ele>
        <time>2018-07-10T14:08:47Z</time>
      </trkpt>
      <trkpt lat="49.170939037576318" lon="5.452921958640218">
        <ele>319.30000000000001</ele>
        <time>2018-07-10T14:08:49Z</time>
      </trkpt>
      <trkpt lat="49.170137979090214" lon="5.452084019780159">
        <ele>321.22000000000003</ele>
        <time>2018-07-10T14:08:54Z</time>
      </trkpt>
      <trkpt lat="49.170137979090214" lon="5.452084019780159">
        <ele>321.69999999999999</ele>
        <time>2018-07-10T14:08:55Z</time>
      </trkpt>
      <trkpt lat="49.170004958286881" lon="5.451990980654955">
        <ele>322.66000000000003</ele>
        <time>2018-07-10T14:08:56Z</time>
      </trkpt>
      <trkpt lat="49.169887024909258" lon="5.451919985935092">
        <ele>323.62</ele>
        <time>2018-07-10T14:08:57Z</time>
      </trkpt>
      <trkpt lat="49.169751992449164" lon="5.451855026185513">
        <ele>324.57999999999998</ele>
        <time>2018-07-10T14:08:58Z</time>
      </trkpt>
      <trkpt lat="49.169485028833151" lon="5.451863994821906">
        <ele>326.99000000000001</ele>
        <time>2018-07-10T14:09:00Z</time>
      </trkpt>
      <trkpt lat="49.168842975050211" lon="5.452254004776478">
        <ele>332.26999999999998</ele>
        <time>2018-07-10T14:09:04Z</time>
      </trkpt>
      <trkpt lat="49.168751025572419" lon="5.452360035851598">
        <ele>333.70999999999998</ele>
        <time>2018-07-10T14:09:05Z</time>
      </trkpt>
      <trkpt lat="49.168678019195795" lon="5.452476963400841">
        <ele>334.68000000000001</ele>
        <time>2018-07-10T14:09:06Z</time>
      </trkpt>
      <trkpt lat="49.168521026149392" lon="5.452726995572448">
        <ele>337.07999999999998</ele>
        <time>2018-07-10T14:09:09Z</time>
      </trkpt>
      <trkpt lat="49.168520020321012" lon="5.452726995572448">
        <ele>337.56</ele>
        <time>2018-07-10T14:09:10Z</time>
      </trkpt>
      <trkpt lat="49.168490013107657" lon="5.452775023877621">
        <ele>338.04000000000002</ele>
        <time>2018-07-10T14:09:11Z</time>
      </trkpt>
      <trkpt lat="49.168448019772768" lon="5.452843001112342">
        <ele>338.51999999999998</ele>
        <time>2018-07-10T14:09:12Z</time>
      </trkpt>
      <trkpt lat="49.168434021994472" lon="5.452864961698651">
        <ele>338.51999999999998</ele>
        <time>2018-07-10T14:09:13Z</time>
      </trkpt>
      <trkpt lat="49.168236963450909" lon="5.452907038852572">
        <ele>340.92000000000002</ele>
        <time>2018-07-10T14:09:19Z</time>
      </trkpt>
      <trkpt lat="49.168212991207838" lon="5.452868985012174">
        <ele>341.88999999999999</ele>
        <time>2018-07-10T14:09:20Z</time>
      </trkpt>
      <trkpt lat="49.168112995103002" lon="5.452716015279293">
        <ele>341.88999999999999</ele>
        <time>2018-07-10T14:09:21Z</time>
      </trkpt>
      <trkpt lat="49.168112995103002" lon="5.452716015279293">
        <ele>342.37</ele>
        <time>2018-07-10T14:09:22Z</time>
      </trkpt>
      <trkpt lat="49.168046023696661" lon="5.452609984204173">
        <ele>342.37</ele>
        <time>2018-07-10T14:09:23Z</time>
      </trkpt>
      <trkpt lat="49.167387960478663" lon="5.451387986540794">
        <ele>343.32999999999998</ele>
        <time>2018-07-10T14:09:30Z</time>
      </trkpt>
      <trkpt lat="49.167276984080672" lon="5.451106019318104">
        <ele>343.81</ele>
        <time>2018-07-10T14:09:34Z</time>
      </trkpt>
      <trkpt lat="49.167252006009221" lon="5.451042987406254">
        <ele>344.29000000000002</ele>
        <time>2018-07-10T14:09:36Z</time>
      </trkpt>
      <trkpt lat="49.167223004624248" lon="5.451036030426621">
        <ele>344.29000000000002</ele>
        <time>2018-07-10T14:09:37Z</time>
      </trkpt>
      <trkpt lat="49.167180005460978" lon="5.451026977971196">
        <ele>344.76999999999998</ele>
        <time>2018-07-10T14:09:38Z</time>
      </trkpt>
      <trkpt lat="49.167123008519411" lon="5.45101398602128">
        <ele>344.76999999999998</ele>
        <time>2018-07-10T14:09:39Z</time>
      </trkpt>
      <trkpt lat="49.167058970779181" lon="5.450999988242984">
        <ele>344.76999999999998</ele>
        <time>2018-07-10T14:09:40Z</time>
      </trkpt>
      <trkpt lat="49.166981019079685" lon="5.451032007113099">
        <ele>344.76999999999998</ele>
        <time>2018-07-10T14:09:41Z</time>
      </trkpt>
      <trkpt lat="49.166772980242968" lon="5.451115993782878">
        <ele>345.25</ele>
        <time>2018-07-10T14:09:42Z</time>
      </trkpt>
      <trkpt lat="49.166649011895061" lon="5.451153963804245">
        <ele>345.73000000000002</ele>
        <time>2018-07-10T14:09:43Z</time>
      </trkpt>
      <trkpt lat="49.166259001940489" lon="5.451403995975852">
        <ele>348.13</ele>
        <time>2018-07-10T14:09:46Z</time>
      </trkpt>
      <trkpt lat="49.166139978915453" lon="5.45152897015214">
        <ele>349.10000000000002</ele>
        <time>2018-07-10T14:09:47Z</time>
      </trkpt>
      <trkpt lat="49.166050963103771" lon="5.451643969863653">
        <ele>350.54000000000002</ele>
        <time>2018-07-10T14:09:48Z</time>
      </trkpt>
      <trkpt lat="49.165976028889418" lon="5.451877992600203">
        <ele>351.01999999999998</ele>
        <time>2018-07-10T14:09:49Z</time>
      </trkpt>
      <trkpt lat="49.165976028889418" lon="5.451877992600203">
        <ele>351.98000000000002</ele>
        <time>2018-07-10T14:09:50Z</time>
      </trkpt>
      <trkpt lat="49.165918026119471" lon="5.452075973153114">
        <ele>352.94</ele>
        <time>2018-07-10T14:09:51Z</time>
      </trkpt>
      <trkpt lat="49.165886007249355" lon="5.452303038910031">
        <ele>353.42000000000002</ele>
        <time>2018-07-10T14:09:52Z</time>
      </trkpt>
      <trkpt lat="49.165719039738178" lon="5.453487988561392">
        <ele>355.82999999999998</ele>
        <time>2018-07-10T14:09:57Z</time>
      </trkpt>
      <trkpt lat="49.165688026696444" lon="5.453711031004787">
        <ele>355.82999999999998</ele>
        <time>2018-07-10T14:09:58Z</time>
      </trkpt>
      <trkpt lat="49.165557017549872" lon="5.454102968797088">
        <ele>356.31</ele>
        <time>2018-07-10T14:09:59Z</time>
      </trkpt>
      <trkpt lat="49.165460960939527" lon="5.454279994592071">
        <ele>356.79000000000002</ele>
        <time>2018-07-10T14:10:00Z</time>
      </trkpt>
      <trkpt lat="49.16533799842" lon="5.454436987638474">
        <ele>356.79000000000002</ele>
        <time>2018-07-10T14:10:01Z</time>
      </trkpt>
      <trkpt lat="49.16533799842" lon="5.454436987638474">
        <ele>357.26999999999998</ele>
        <time>2018-07-10T14:10:02Z</time>
      </trkpt>
      <trkpt lat="49.165057959035039" lon="5.454791039228439">
        <ele>358.23000000000002</ele>
        <time>2018-07-10T14:10:03Z</time>
      </trkpt>
      <trkpt lat="49.164934996515512" lon="5.454948032274842">
        <ele>359.19</ele>
        <time>2018-07-10T14:10:04Z</time>
      </trkpt>
      <trkpt lat="49.164826031774282" lon="5.45513897202909">
        <ele>360.14999999999998</ele>
        <time>2018-07-10T14:10:05Z</time>
      </trkpt>
      <trkpt lat="49.164740033447742" lon="5.455315997824073">
        <ele>360.63</ele>
        <time>2018-07-10T14:10:06Z</time>
      </trkpt>
      <trkpt lat="49.164740033447742" lon="5.455315997824073">
        <ele>361.11000000000001</ele>
        <time>2018-07-10T14:10:07Z</time>
      </trkpt>
      <trkpt lat="49.16466903872788" lon="5.455531999468803">
        <ele>361.58999999999997</ele>
        <time>2018-07-10T14:10:08Z</time>
      </trkpt>
      <trkpt lat="49.164556972682476" lon="5.456013958901167">
        <ele>362.06999999999999</ele>
        <time>2018-07-10T14:10:09Z</time>
      </trkpt>
      <trkpt lat="49.1643709782511" lon="5.45707200653851">
        <ele>363.51999999999998</ele>
        <time>2018-07-10T14:10:14Z</time>
      </trkpt>
      <trkpt lat="49.164232006296515" lon="5.457507027313113">
        <ele>364</ele>
        <time>2018-07-10T14:10:15Z</time>
      </trkpt>
      <trkpt lat="49.164097979664803" lon="5.45788798481226">
        <ele>364.95999999999998</ele>
        <time>2018-07-10T14:10:18Z</time>
      </trkpt>
      <trkpt lat="49.164040982723236" lon="5.458157965913415">
        <ele>364.95999999999998</ele>
        <time>2018-07-10T14:10:19Z</time>
      </trkpt>
      <trkpt lat="49.163830010220408" lon="5.46020700596273">
        <ele>366.88</ele>
        <time>2018-07-10T14:10:26Z</time>
      </trkpt>
      <trkpt lat="49.163775024935603" lon="5.461154999211431">
        <ele>367.36000000000001</ele>
        <time>2018-07-10T14:10:28Z</time>
      </trkpt>
      <trkpt lat="49.163758009672165" lon="5.461465967819095">
        <ele>366.88</ele>
        <time>2018-07-10T14:10:29Z</time>
      </trkpt>
      <trkpt lat="49.163636974990368" lon="5.463762022554874">
        <ele>365.44</ele>
        <time>2018-07-10T14:10:36Z</time>
      </trkpt>
      <trkpt lat="49.163485011085868" lon="5.465842997655273">
        <ele>364.95999999999998</ele>
        <time>2018-07-10T14:10:43Z</time>
      </trkpt>
      <trkpt lat="49.163437988609076" lon="5.466037960723043">
        <ele>364.95999999999998</ele>
        <time>2018-07-10T14:10:44Z</time>
      </trkpt>
      <trkpt lat="49.163364982232451" lon="5.466215992346406">
        <ele>364.95999999999998</ele>
        <time>2018-07-10T14:10:45Z</time>
      </trkpt>
      <trkpt lat="49.163270015269518" lon="5.46635496430099">
        <ele>364.95999999999998</ele>
        <time>2018-07-10T14:10:46Z</time>
      </trkpt>
      <trkpt lat="49.163131965324283" lon="5.466556968167424">
        <ele>365.44</ele>
        <time>2018-07-10T14:10:47Z</time>
      </trkpt>
      <trkpt lat="49.16303901001811" lon="5.466633997857571">
        <ele>365.44</ele>
        <time>2018-07-10T14:10:48Z</time>
      </trkpt>
      <trkpt lat="49.162898026406765" lon="5.466751009225845">
        <ele>365.92000000000002</ele>
        <time>2018-07-10T14:10:49Z</time>
      </trkpt>
      <trkpt lat="49.162413971498609" lon="5.467151999473572">
        <ele>365.44</ele>
        <time>2018-07-10T14:10:53Z</time>
      </trkpt>
      <trkpt lat="49.162242980673909" lon="5.46729801222682">
        <ele>365.44</ele>
        <time>2018-07-10T14:10:54Z</time>
      </trkpt>
      <trkpt lat="49.160901037976146" lon="5.468981014564633">
        <ele>363.04000000000002</ele>
        <time>2018-07-10T14:11:02Z</time>
      </trkpt>
      <trkpt lat="49.160027978941798" lon="5.4701569955796">
        <ele>356.31</ele>
        <time>2018-07-10T14:11:08Z</time>
      </trkpt>
      <trkpt lat="49.159910967573524" lon="5.470351036638022">
        <ele>354.86000000000001</ele>
        <time>2018-07-10T14:11:09Z</time>
      </trkpt>
      <trkpt lat="49.159792028367519" lon="5.470551028847694">
        <ele>353.89999999999998</ele>
        <time>2018-07-10T14:11:10Z</time>
      </trkpt>
      <trkpt lat="49.159161960706115" lon="5.472437040880323">
        <ele>345.73000000000002</ele>
        <time>2018-07-10T14:11:17Z</time>
      </trkpt>
      <trkpt lat="49.159069005399942" lon="5.473038023337722">
        <ele>343.32999999999998</ele>
        <time>2018-07-10T14:11:19Z</time>
      </trkpt>
      <trkpt lat="49.15902198292315" lon="5.473339017480612">
        <ele>341.88999999999999</ele>
        <time>2018-07-10T14:11:20Z</time>
      </trkpt>
      <trkpt lat="49.159066993743181" lon="5.475546978414059">
        <ele>332.26999999999998</ele>
        <time>2018-07-10T14:11:26Z</time>
      </trkpt>
      <trkpt lat="49.159114016219974" lon="5.476788002997637">
        <ele>325.06</ele>
        <time>2018-07-10T14:11:31Z</time>
      </trkpt>
      <trkpt lat="49.159763026982546" lon="5.479310033842921">
        <ele>314.00999999999999</ele>
        <time>2018-07-10T14:11:38Z</time>
      </trkpt>
      <trkpt lat="49.160380018875003" lon="5.481489999219775">
        <ele>301.99000000000001</ele>
        <time>2018-07-10T14:11:46Z</time>
      </trkpt>
      <trkpt lat="49.160994999110699" lon="5.484285028651357">
        <ele>290.45999999999998</ele>
        <time>2018-07-10T14:11:54Z</time>
      </trkpt>
      <trkpt lat="49.161316026002169" lon="5.48719204030931">
        <ele>282.27999999999997</ele>
        <time>2018-07-10T14:12:04Z</time>
      </trkpt>
      <trkpt lat="49.161467989906669" lon="5.48947099596262">
        <ele>278.44</ele>
        <time>2018-07-10T14:12:11Z</time>
      </trkpt>
      <trkpt lat="49.161479976028204" lon="5.491910967975855">
        <ele>275.06999999999999</ele>
        <time>2018-07-10T14:12:17Z</time>
      </trkpt>
      <trkpt lat="49.161423984915018" lon="5.493247965350747">
        <ele>269.79000000000002</ele>
        <time>2018-07-10T14:12:23Z</time>
      </trkpt>
      <trkpt lat="49.161274032667279" lon="5.494670961052179">
        <ele>267.38</ele>
        <time>2018-07-10T14:12:32Z</time>
      </trkpt>
      <trkpt lat="49.161296999081969" lon="5.494912024587393">
        <ele>265.94</ele>
        <time>2018-07-10T14:12:34Z</time>
      </trkpt>
      <trkpt lat="49.161296999081969" lon="5.494912024587393">
        <ele>264.98000000000002</ele>
        <time>2018-07-10T14:12:35Z</time>
      </trkpt>
      <trkpt lat="49.161322982981801" lon="5.495041022077203">
        <ele>264.01999999999998</ele>
        <time>2018-07-10T14:12:36Z</time>
      </trkpt>
      <trkpt lat="49.161349972710013" lon="5.495173037052155">
        <ele>262.57999999999998</ele>
        <time>2018-07-10T14:12:37Z</time>
      </trkpt>
      <trkpt lat="49.161373022943735" lon="5.495288036763668">
        <ele>261.62</ele>
        <time>2018-07-10T14:12:38Z</time>
      </trkpt>
      <trkpt lat="49.161443011835217" lon="5.495390966534615">
        <ele>260.64999999999998</ele>
        <time>2018-07-10T14:12:39Z</time>
      </trkpt>
      <trkpt lat="49.161504032090306" lon="5.495479982346296">
        <ele>259.69</ele>
        <time>2018-07-10T14:12:40Z</time>
      </trkpt>
      <trkpt lat="49.161564968526363" lon="5.495566986501217">
        <ele>258.73000000000002</ele>
        <time>2018-07-10T14:12:41Z</time>
      </trkpt>
      <trkpt lat="49.161620959639549" lon="5.495634963735938">
        <ele>257.76999999999998</ele>
        <time>2018-07-10T14:12:42Z</time>
      </trkpt>
      <trkpt lat="49.161710981279612" lon="5.495660025626421">
        <ele>257.29000000000002</ele>
        <time>2018-07-10T14:12:43Z</time>
      </trkpt>
      <trkpt lat="49.162316992878914" lon="5.495824981480837">
        <ele>252</ele>
        <time>2018-07-10T14:12:51Z</time>
      </trkpt>
      <trkpt lat="49.162358986213803" lon="5.495824981480837">
        <ele>252</ele>
        <time>2018-07-10T14:12:52Z</time>
      </trkpt>
      <trkpt lat="49.162955023348331" lon="5.495792962610722">
        <ele>252.47999999999999</ele>
        <time>2018-07-10T14:12:58Z</time>
      </trkpt>
      <trkpt lat="49.163057031109929" lon="5.49578701145947">
        <ele>253.44</ele>
        <time>2018-07-10T14:13:00Z</time>
      </trkpt>
      <trkpt lat="49.163156021386385" lon="5.495795980095863">
        <ele>253.93000000000001</ele>
        <time>2018-07-10T14:13:01Z</time>
      </trkpt>
      <trkpt lat="49.16325300000608" lon="5.49585398286581">
        <ele>254.41</ele>
        <time>2018-07-10T14:13:02Z</time>
      </trkpt>
      <trkpt lat="49.163347966969013" lon="5.495911985635757">
        <ele>254.88999999999999</ele>
        <time>2018-07-10T14:13:03Z</time>
      </trkpt>
      <trkpt lat="49.16342600248754" lon="5.496021034196019">
        <ele>254.88999999999999</ele>
        <time>2018-07-10T14:13:04Z</time>
      </trkpt>
      <trkpt lat="49.163478976115584" lon="5.496136033907533">
        <ele>254.88999999999999</ele>
        <time>2018-07-10T14:13:05Z</time>
      </trkpt>
      <trkpt lat="49.163527004420757" lon="5.496278023347259">
        <ele>254.88999999999999</ele>
        <time>2018-07-10T14:13:06Z</time>
      </trkpt>
      <trkpt lat="49.163582995533943" lon="5.496447002515197">
        <ele>254.88999999999999</ele>
        <time>2018-07-10T14:13:07Z</time>
      </trkpt>
      <trkpt lat="49.163996977731586" lon="5.498294960707426">
        <ele>252</ele>
        <time>2018-07-10T14:13:18Z</time>
      </trkpt>
      <trkpt lat="49.164372989907861" lon="5.499834967777133">
        <ele>249.59999999999999</ele>
        <time>2018-07-10T14:13:27Z</time>
      </trkpt>
      <trkpt lat="49.164490001276135" lon="5.500274011865258">
        <ele>249.59999999999999</ele>
        <time>2018-07-10T14:13:31Z</time>
      </trkpt>
      <trkpt lat="49.165149992331862" lon="5.501898005604744">
        <ele>249.59999999999999</ele>
        <time>2018-07-10T14:13:42Z</time>
      </trkpt>
      <trkpt lat="49.165811995044351" lon="5.50362903624773">
        <ele>250.08000000000001</ele>
        <time>2018-07-10T14:13:53Z</time>
      </trkpt>
      <trkpt lat="49.16585398837924" lon="5.503768008202314">
        <ele>250.08000000000001</ele>
        <time>2018-07-10T14:13:54Z</time>
      </trkpt>
      <trkpt lat="49.165891036391258" lon="5.50388703122735">
        <ele>250.08000000000001</ele>
        <time>2018-07-10T14:13:55Z</time>
      </trkpt>
      <trkpt lat="49.16593998670578" lon="5.504044024273753">
        <ele>249.59999999999999</ele>
        <time>2018-07-10T14:13:56Z</time>
      </trkpt>
      <trkpt lat="49.165928000584245" lon="5.504219038411975">
        <ele>249.12</ele>
        <time>2018-07-10T14:13:57Z</time>
      </trkpt>
      <trkpt lat="49.165877960622311" lon="5.504240998998284">
        <ele>248.63999999999999</ele>
        <time>2018-07-10T14:13:58Z</time>
      </trkpt>
      <trkpt lat="49.165877960622311" lon="5.504240998998284">
        <ele>248.16</ele>
        <time>2018-07-10T14:13:59Z</time>
      </trkpt>
      <trkpt lat="49.165719039738178" lon="5.504309982061386">
        <ele>248.16</ele>
        <time>2018-07-10T14:14:00Z</time>
      </trkpt>
      <trkpt lat="49.165607979521155" lon="5.504371002316475">
        <ele>247.68000000000001</ele>
        <time>2018-07-10T14:14:01Z</time>
      </trkpt>
      <trkpt lat="49.164767023175955" lon="5.505154961720109">
        <ele>246.72</ele>
        <time>2018-07-10T14:14:07Z</time>
      </trkpt>
      <trkpt lat="49.163463972508907" lon="5.506505034863949">
        <ele>244.78999999999999</ele>
        <time>2018-07-10T14:14:15Z</time>
      </trkpt>
      <trkpt lat="49.160787966102362" lon="5.509310038760305">
        <ele>248.63999999999999</ele>
        <time>2018-07-10T14:14:29Z</time>
      </trkpt>
      <trkpt lat="49.158341037109494" lon="5.511874984949827">
        <ele>252.47999999999999</ele>
        <time>2018-07-10T14:14:41Z</time>
      </trkpt>
      <trkpt lat="49.1562270373106" lon="5.514038018882275">
        <ele>251.52000000000001</ele>
        <time>2018-07-10T14:14:53Z</time>
      </trkpt>
      <trkpt lat="49.153939029201865" lon="5.516341030597687">
        <ele>250.08000000000001</ele>
        <time>2018-07-10T14:15:04Z</time>
      </trkpt>
      <trkpt lat="49.151313984766603" lon="5.518980994820595">
        <ele>244.78999999999999</ele>
        <time>2018-07-10T14:15:18Z</time>
      </trkpt>
      <trkpt lat="49.150435980409384" lon="5.519863022491336">
        <ele>245.75</ele>
        <time>2018-07-10T14:15:26Z</time>
      </trkpt>
      <trkpt lat="49.149464014917612" lon="5.520840017125011">
        <ele>247.19999999999999</ele>
        <time>2018-07-10T14:15:34Z</time>
      </trkpt>
      <trkpt lat="49.148302031680942" lon="5.522003006190062">
        <ele>247.68000000000001</ele>
        <time>2018-07-10T14:15:44Z</time>
      </trkpt>
      <trkpt lat="49.147163014858961" lon="5.52311897277832">
        <ele>245.75</ele>
        <time>2018-07-10T14:15:58Z</time>
      </trkpt>
      <trkpt lat="49.147086990997195" lon="5.523190973326564">
        <ele>245.75</ele>
        <time>2018-07-10T14:15:59Z</time>
      </trkpt>
      <trkpt lat="49.146503023803234" lon="5.52369799464941">
        <ele>246.22999999999999</ele>
        <time>2018-07-10T14:16:07Z</time>
      </trkpt>
      <trkpt lat="49.145929031074047" lon="5.52412698045373">
        <ele>246.22999999999999</ele>
        <time>2018-07-10T14:16:17Z</time>
      </trkpt>
      <trkpt lat="49.145790981128812" lon="5.524268969893456">
        <ele>246.72</ele>
        <time>2018-07-10T14:16:20Z</time>
      </trkpt>
      <trkpt lat="49.145753011107445" lon="5.524309035390616">
        <ele>246.72</ele>
        <time>2018-07-10T14:16:21Z</time>
      </trkpt>
      <trkpt lat="49.145455034449697" lon="5.524616986513138">
        <ele>246.72</ele>
        <time>2018-07-10T14:16:31Z</time>
      </trkpt>
      <trkpt lat="49.145414968952537" lon="5.524644982069731">
        <ele>246.72</ele>
        <time>2018-07-10T14:16:32Z</time>
      </trkpt>
      <trkpt lat="49.145363001152873" lon="5.524655962362886">
        <ele>246.72</ele>
        <time>2018-07-10T14:16:33Z</time>
      </trkpt>
      <trkpt lat="49.145322013646364" lon="5.52466400898993">
        <ele>246.72</ele>
        <time>2018-07-10T14:16:34Z</time>
      </trkpt>
      <trkpt lat="49.145244983956218" lon="5.524650011211634">
        <ele>246.72</ele>
        <time>2018-07-10T14:16:35Z</time>
      </trkpt>
      <trkpt lat="49.145177006721497" lon="5.524638025090098">
        <ele>246.72</ele>
        <time>2018-07-10T14:16:36Z</time>
      </trkpt>
      <trkpt lat="49.145100982859731" lon="5.524625033140183">
        <ele>247.19999999999999</ele>
        <time>2018-07-10T14:16:37Z</time>
      </trkpt>
      <trkpt lat="49.144924962893128" lon="5.524609023705125">
        <ele>248.16</ele>
        <time>2018-07-10T14:16:38Z</time>
      </trkpt>
      <trkpt lat="49.144829995930195" lon="5.524636013433337">
        <ele>249.12</ele>
        <time>2018-07-10T14:16:39Z</time>
      </trkpt>
      <trkpt lat="49.144741985946894" lon="5.524701979011297">
        <ele>250.56</ele>
        <time>2018-07-10T14:16:40Z</time>
      </trkpt>
      <trkpt lat="49.14382902905345" lon="5.525671010836959">
        <ele>251.03999999999999</ele>
        <time>2018-07-10T14:16:49Z</time>
      </trkpt>
      <trkpt lat="49.143713023513556" lon="5.52580101415515">
        <ele>251.52000000000001</ele>
        <time>2018-07-10T14:16:50Z</time>
      </trkpt>
      <trkpt lat="49.143606992438436" lon="5.525920959189534">
        <ele>251.52000000000001</ele>
        <time>2018-07-10T14:16:51Z</time>
      </trkpt>
      <trkpt lat="49.14352803491056" lon="5.52603998221457">
        <ele>252</ele>
        <time>2018-07-10T14:16:52Z</time>
      </trkpt>
      <trkpt lat="49.143476989120245" lon="5.526208961382508">
        <ele>251.52000000000001</ele>
        <time>2018-07-10T14:16:53Z</time>
      </trkpt>
      <trkpt lat="49.143452011048794" lon="5.526403002440929">
        <ele>251.52000000000001</ele>
        <time>2018-07-10T14:16:54Z</time>
      </trkpt>
      <trkpt lat="49.143425021320581" lon="5.526609029620886">
        <ele>251.52000000000001</ele>
        <time>2018-07-10T14:16:55Z</time>
      </trkpt>
      <trkpt lat="49.143397025763988" lon="5.526829976588488">
        <ele>251.03999999999999</ele>
        <time>2018-07-10T14:16:56Z</time>
      </trkpt>
      <trkpt lat="49.143319996073842" lon="5.527058970183134">
        <ele>251.03999999999999</ele>
        <time>2018-07-10T14:16:57Z</time>
      </trkpt>
      <trkpt lat="49.14322997443378" lon="5.527295004576445">
        <ele>251.52000000000001</ele>
        <time>2018-07-10T14:16:58Z</time>
      </trkpt>
      <trkpt lat="49.142349036410451" lon="5.528977001085877">
        <ele>256.81</ele>
        <time>2018-07-10T14:17:05Z</time>
      </trkpt>
      <trkpt lat="49.142081988975406" lon="5.529448986053467">
        <ele>259.69</ele>
        <time>2018-07-10T14:17:07Z</time>
      </trkpt>
      <trkpt lat="49.140932997688651" lon="5.532321967184544">
        <ele>261.62</ele>
        <time>2018-07-10T14:17:16Z</time>
      </trkpt>
      <trkpt lat="49.139949968084693" lon="5.535006020218134">
        <ele>260.64999999999998</ele>
        <time>2018-07-10T14:17:26Z</time>
      </trkpt>
      <trkpt lat="49.138808017596602" lon="5.537011977285147">
        <ele>264.5</ele>
        <time>2018-07-10T14:17:35Z</time>
      </trkpt>
      <trkpt lat="49.137977035716176" lon="5.53860898129642">
        <ele>265.45999999999998</ele>
        <time>2018-07-10T14:17:44Z</time>
      </trkpt>
      <trkpt lat="49.137645028531551" lon="5.539415990933776">
        <ele>266.42000000000002</ele>
        <time>2018-07-10T14:17:50Z</time>
      </trkpt>
      <trkpt lat="49.137561041861773" lon="5.539537025615573">
        <ele>266.42000000000002</ele>
        <time>2018-07-10T14:17:51Z</time>
      </trkpt>
      <trkpt lat="49.137482000514865" lon="5.539646996185184">
        <ele>266.42000000000002</ele>
        <time>2018-07-10T14:17:52Z</time>
      </trkpt>
      <trkpt lat="49.137329030781984" lon="5.539859980344772">
        <ele>266.42000000000002</ele>
        <time>2018-07-10T14:17:54Z</time>
      </trkpt>
      <trkpt lat="49.137258036062121" lon="5.539957964792848">
        <ele>266.89999999999998</ele>
        <time>2018-07-10T14:17:55Z</time>
      </trkpt>
      <trkpt lat="49.13721201941371" lon="5.540072964504361">
        <ele>266.89999999999998</ele>
        <time>2018-07-10T14:17:56Z</time>
      </trkpt>
      <trkpt lat="49.137168014422059" lon="5.540188970044255">
        <ele>266.42000000000002</ele>
        <time>2018-07-10T14:17:57Z</time>
      </trkpt>
      <trkpt lat="49.137160973623395" lon="5.540320985019207">
        <ele>266.42000000000002</ele>
        <time>2018-07-10T14:17:58Z</time>
      </trkpt>
      <trkpt lat="49.137186035513878" lon="5.540465991944075">
        <ele>266.42000000000002</ele>
        <time>2018-07-10T14:17:59Z</time>
      </trkpt>
      <trkpt lat="49.137282008305192" lon="5.540925990790129">
        <ele>265.94</ele>
        <time>2018-07-10T14:18:01Z</time>
      </trkpt>
      <trkpt lat="49.137676041573286" lon="5.541901979595423">
        <ele>261.62</ele>
        <time>2018-07-10T14:18:08Z</time>
      </trkpt>
      <trkpt lat="49.137676041573286" lon="5.541900973767042">
        <ele>261.13999999999999</ele>
        <time>2018-07-10T14:18:09Z</time>
      </trkpt>
      <trkpt lat="49.137696996331215" lon="5.542141031473875">
        <ele>261.13999999999999</ele>
        <time>2018-07-10T14:18:10Z</time>
      </trkpt>
      <trkpt lat="49.137696996331215" lon="5.542141031473875">
        <ele>261.13999999999999</ele>
        <time>2018-07-10T14:18:11Z</time>
      </trkpt>
      <trkpt lat="49.137647040188313" lon="5.542359966784716">
        <ele>260.64999999999998</ele>
        <time>2018-07-10T14:18:12Z</time>
      </trkpt>
      <trkpt lat="49.13757998496294" lon="5.542464992031455">
        <ele>260.17000000000002</ele>
        <time>2018-07-10T14:18:13Z</time>
      </trkpt>
      <trkpt lat="49.137503961101174" lon="5.542572028934956">
        <ele>260.17000000000002</ele>
        <time>2018-07-10T14:18:14Z</time>
      </trkpt>
      <trkpt lat="49.137503961101174" lon="5.542572028934956">
        <ele>260.17000000000002</ele>
        <time>2018-07-10T14:18:15Z</time>
      </trkpt>
      <trkpt lat="49.136776998639107" lon="5.543464031070471">
        <ele>258.25</ele>
        <time>2018-07-10T14:18:21Z</time>
      </trkpt>
      <trkpt lat="49.136666022241116" lon="5.543663017451763">
        <ele>257.29000000000002</ele>
        <time>2018-07-10T14:18:22Z</time>
      </trkpt>
      <trkpt lat="49.136545993387699" lon="5.543889999389648">
        <ele>256.81</ele>
        <time>2018-07-10T14:18:23Z</time>
      </trkpt>
      <trkpt lat="49.136474998667836" lon="5.544117987155914">
        <ele>255.84999999999999</ele>
        <time>2018-07-10T14:18:24Z</time>
      </trkpt>
      <trkpt lat="49.13639604113996" lon="5.544372964650393">
        <ele>255.37</ele>
        <time>2018-07-10T14:18:25Z</time>
      </trkpt>
      <trkpt lat="49.136316999793053" lon="5.544626014307141">
        <ele>254.41</ele>
        <time>2018-07-10T14:18:26Z</time>
      </trkpt>
      <trkpt lat="49.136234018951654" lon="5.544875040650368">
        <ele>253.93000000000001</ele>
        <time>2018-07-10T14:18:27Z</time>
      </trkpt>
      <trkpt lat="49.136234018951654" lon="5.544875040650368">
        <ele>253.93000000000001</ele>
        <time>2018-07-10T14:18:28Z</time>
      </trkpt>
      <trkpt lat="49.135603029280901" lon="5.545838959515095">
        <ele>250.08000000000001</ele>
        <time>2018-07-10T14:18:33Z</time>
      </trkpt>
      <trkpt lat="49.135483000427485" lon="5.545990001410246">
        <ele>249.59999999999999</ele>
        <time>2018-07-10T14:18:34Z</time>
      </trkpt>
      <trkpt lat="49.135179994627833" lon="5.546207008883357">
        <ele>249.12</ele>
        <time>2018-07-10T14:18:36Z</time>
      </trkpt>
      <trkpt lat="49.135012021288276" lon="5.546308010816574">
        <ele>249.59999999999999</ele>
        <time>2018-07-10T14:18:37Z</time>
      </trkpt>
      <trkpt lat="49.134848993271589" lon="5.546430973336101">
        <ele>250.08000000000001</ele>
        <time>2018-07-10T14:18:38Z</time>
      </trkpt>
      <trkpt lat="49.133707964792848" lon="5.547952959313989">
        <ele>252.96000000000001</ele>
        <time>2018-07-10T14:18:45Z</time>
      </trkpt>
      <trkpt lat="49.132398962974548" lon="5.550031000748277">
        <ele>254.88999999999999</ele>
        <time>2018-07-10T14:18:54Z</time>
      </trkpt>
      <trkpt lat="49.131420040503144" lon="5.551591962575913">
        <ele>253.93000000000001</ele>
        <time>2018-07-10T14:19:01Z</time>
      </trkpt>
      <trkpt lat="49.13108803331852" lon="5.552051961421967">
        <ele>254.88999999999999</ele>
        <time>2018-07-10T14:19:06Z</time>
      </trkpt>
      <trkpt lat="49.130990970879793" lon="5.552148018032312">
        <ele>254.41</ele>
        <time>2018-07-10T14:19:07Z</time>
      </trkpt>
      <trkpt lat="49.130769018083811" lon="5.552311968058348">
        <ele>254.41</ele>
        <time>2018-07-10T14:19:08Z</time>
      </trkpt>
      <trkpt lat="49.130645971745253" lon="5.552354967221618">
        <ele>253.44</ele>
        <time>2018-07-10T14:19:09Z</time>
      </trkpt>
      <trkpt lat="49.130645971745253" lon="5.552354967221618">
        <ele>252.96000000000001</ele>
        <time>2018-07-10T14:19:10Z</time>
      </trkpt>
      <trkpt lat="49.130409015342593" lon="5.552438031882048">
        <ele>252</ele>
        <time>2018-07-10T14:19:12Z</time>
      </trkpt>
      <trkpt lat="49.129696972668171" lon="5.552658978849649">
        <ele>248.63999999999999</ele>
        <time>2018-07-10T14:19:17Z</time>
      </trkpt>
      <trkpt lat="49.129365971311927" lon="5.552743971347809">
        <ele>248.16</ele>
        <time>2018-07-10T14:19:21Z</time>
      </trkpt>
      <trkpt lat="49.129182994365692" lon="5.552867017686367">
        <ele>248.63999999999999</ele>
        <time>2018-07-10T14:19:22Z</time>
      </trkpt>
      <trkpt lat="49.129078974947333" lon="5.552944969385862">
        <ele>249.12</ele>
        <time>2018-07-10T14:19:23Z</time>
      </trkpt>
      <trkpt lat="49.128525014966726" lon="5.553696993738413">
        <ele>250.56</ele>
        <time>2018-07-10T14:19:29Z</time>
      </trkpt>
      <trkpt lat="49.128525014966726" lon="5.553696993738413">
        <ele>250.56</ele>
        <time>2018-07-10T14:19:30Z</time>
      </trkpt>
      <trkpt lat="49.128442034125328" lon="5.553890028968453">
        <ele>251.03999999999999</ele>
        <time>2018-07-10T14:19:31Z</time>
      </trkpt>
      <trkpt lat="49.128372967243195" lon="5.554096978157759">
        <ele>251.03999999999999</ele>
        <time>2018-07-10T14:19:32Z</time>
      </trkpt>
      <trkpt lat="49.128270959481597" lon="5.554520012810826">
        <ele>251.03999999999999</ele>
        <time>2018-07-10T14:19:33Z</time>
      </trkpt>
      <trkpt lat="49.128169035539031" lon="5.554887978360057">
        <ele>251.03999999999999</ele>
        <time>2018-07-10T14:19:35Z</time>
      </trkpt>
      <trkpt lat="49.128169035539031" lon="5.554887978360057">
        <ele>250.56</ele>
        <time>2018-07-10T14:19:36Z</time>
      </trkpt>
      <trkpt lat="49.128099968656898" lon="5.555043965578079">
        <ele>250.56</ele>
        <time>2018-07-10T14:19:37Z</time>
      </trkpt>
      <trkpt lat="49.127197992056608" lon="5.556389009580016">
        <ele>252.96000000000001</ele>
        <time>2018-07-10T14:19:46Z</time>
      </trkpt>
      <trkpt lat="49.127103025093675" lon="5.556532004848123">
        <ele>252.96000000000001</ele>
        <time>2018-07-10T14:19:47Z</time>
      </trkpt>
      <trkpt lat="49.127005962654948" lon="5.55667701177299">
        <ele>252.96000000000001</ele>
        <time>2018-07-10T14:19:48Z</time>
      </trkpt>
      <trkpt lat="49.126572031527758" lon="5.557060986757278">
        <ele>252</ele>
        <time>2018-07-10T14:19:51Z</time>
      </trkpt>
      <trkpt lat="49.126405986025929" lon="5.557199958711863">
        <ele>251.52000000000001</ele>
        <time>2018-07-10T14:19:52Z</time>
      </trkpt>
      <trkpt lat="49.125240985304117" lon="5.558514995500445">
        <ele>253.93000000000001</ele>
        <time>2018-07-10T14:19:59Z</time>
      </trkpt>
      <trkpt lat="49.125100001692772" lon="5.55860904045403">
        <ele>254.88999999999999</ele>
        <time>2018-07-10T14:20:00Z</time>
      </trkpt>
      <trkpt lat="49.124968992546201" lon="5.558695960789919">
        <ele>255.37</ele>
        <time>2018-07-10T14:20:01Z</time>
      </trkpt>
      <trkpt lat="49.124835971742868" lon="5.558784976601601">
        <ele>255.84999999999999</ele>
        <time>2018-07-10T14:20:02Z</time>
      </trkpt>
      <trkpt lat="49.124513017013669" lon="5.558790005743504">
        <ele>255.84999999999999</ele>
        <time>2018-07-10T14:20:03Z</time>
      </trkpt>
      <trkpt lat="49.124336997047067" lon="5.558781959116459">
        <ele>255.84999999999999</ele>
        <time>2018-07-10T14:20:04Z</time>
      </trkpt>
      <trkpt lat="49.124015970155597" lon="5.558708030730486">
        <ele>255.37</ele>
        <time>2018-07-10T14:20:07Z</time>
      </trkpt>
      <trkpt lat="49.12384900264442" lon="5.558668971061707">
        <ele>255.37</ele>
        <time>2018-07-10T14:20:08Z</time>
      </trkpt>
      <trkpt lat="49.123684968799353" lon="5.55867400020361">
        <ele>255.37</ele>
        <time>2018-07-10T14:20:09Z</time>
      </trkpt>
      <trkpt lat="49.123344998806715" lon="5.558765027672052">
        <ele>255.37</ele>
        <time>2018-07-10T14:20:10Z</time>
      </trkpt>
      <trkpt lat="49.123179037123919" lon="5.558854965493083">
        <ele>255.37</ele>
        <time>2018-07-10T14:20:11Z</time>
      </trkpt>
      <trkpt lat="49.123025983572006" lon="5.558971976861358">
        <ele>255.84999999999999</ele>
        <time>2018-07-10T14:20:12Z</time>
      </trkpt>
      <trkpt lat="49.122751979157329" lon="5.559304989874363">
        <ele>255.84999999999999</ele>
        <time>2018-07-10T14:20:14Z</time>
      </trkpt>
      <trkpt lat="49.122751979157329" lon="5.559304989874363">
        <ele>255.84999999999999</ele>
        <time>2018-07-10T14:20:15Z</time>
      </trkpt>
      <trkpt lat="49.122655000537634" lon="5.559529960155487">
        <ele>255.37</ele>
        <time>2018-07-10T14:20:16Z</time>
      </trkpt>
      <trkpt lat="49.122563973069191" lon="5.559768006205559">
        <ele>254.88999999999999</ele>
        <time>2018-07-10T14:20:17Z</time>
      </trkpt>
      <trkpt lat="49.12247302941978" lon="5.560005968436599">
        <ele>254.88999999999999</ele>
        <time>2018-07-10T14:20:18Z</time>
      </trkpt>
      <trkpt lat="49.122383007779717" lon="5.560240997001529">
        <ele>254.41</ele>
        <time>2018-07-10T14:20:19Z</time>
      </trkpt>
      <trkpt lat="49.122302960604429" lon="5.560451969504356">
        <ele>254.41</ele>
        <time>2018-07-10T14:20:20Z</time>
      </trkpt>
      <trkpt lat="49.122205981984735" lon="5.560622038319707">
        <ele>254.41</ele>
        <time>2018-07-10T14:20:21Z</time>
      </trkpt>
      <trkpt lat="49.122101040557027" lon="5.560776013880968">
        <ele>254.41</ele>
        <time>2018-07-10T14:20:22Z</time>
      </trkpt>
      <trkpt lat="49.12198000587523" lon="5.560893025249243">
        <ele>254.41</ele>
        <time>2018-07-10T14:20:23Z</time>
      </trkpt>
      <trkpt lat="49.121839022263885" lon="5.560964019969106">
        <ele>254.41</ele>
        <time>2018-07-10T14:20:24Z</time>
      </trkpt>
      <trkpt lat="49.120505964383483" lon="5.561385964974761">
        <ele>254.88999999999999</ele>
        <time>2018-07-10T14:20:32Z</time>
      </trkpt>
      <trkpt lat="49.120186027139425" lon="5.561417983844876">
        <ele>255.37</ele>
        <time>2018-07-10T14:20:33Z</time>
      </trkpt>
      <trkpt lat="49.120038002729416" lon="5.561413960531354">
        <ele>255.84999999999999</ele>
        <time>2018-07-10T14:20:34Z</time>
      </trkpt>
      <trkpt lat="49.119894001632929" lon="5.561410021036863">
        <ele>256.81</ele>
        <time>2018-07-10T14:20:36Z</time>
      </trkpt>
      <trkpt lat="49.119754023849964" lon="5.561405997723341">
        <ele>257.76999999999998</ele>
        <time>2018-07-10T14:20:37Z</time>
      </trkpt>
      <trkpt lat="49.119622008875012" lon="5.561401974409819">
        <ele>258.25</ele>
        <time>2018-07-10T14:20:38Z</time>
      </trkpt>
      <trkpt lat="49.119496028870344" lon="5.561440028250217">
        <ele>259.20999999999998</ele>
        <time>2018-07-10T14:20:39Z</time>
      </trkpt>
      <trkpt lat="49.119382034987211" lon="5.561523009091616">
        <ele>260.17000000000002</ele>
        <time>2018-07-10T14:20:40Z</time>
      </trkpt>
      <trkpt lat="49.119168967008591" lon="5.56181201711297">
        <ele>261.13999999999999</ele>
        <time>2018-07-10T14:20:41Z</time>
      </trkpt>
      <trkpt lat="49.119097972288728" lon="5.562002034857869">
        <ele>262.10000000000002</ele>
        <time>2018-07-10T14:20:42Z</time>
      </trkpt>
      <trkpt lat="49.119025971740484" lon="5.562191968783736">
        <ele>262.57999999999998</ele>
        <time>2018-07-10T14:20:43Z</time>
      </trkpt>
      <trkpt lat="49.118969980627298" lon="5.56239103898406">
        <ele>263.06</ele>
        <time>2018-07-10T14:20:44Z</time>
      </trkpt>
      <trkpt lat="49.11892999894917" lon="5.562575021758676">
        <ele>264.01999999999998</ele>
        <time>2018-07-10T14:20:45Z</time>
      </trkpt>
      <trkpt lat="49.118831008672714" lon="5.562939969822764">
        <ele>265.94</ele>
        <time>2018-07-10T14:20:48Z</time>
      </trkpt>
      <trkpt lat="49.118831008672714" lon="5.562938963994384">
        <ele>266.42000000000002</ele>
        <time>2018-07-10T14:20:49Z</time>
      </trkpt>
      <trkpt lat="49.11880100145936" lon="5.563029991462827">
        <ele>266.89999999999998</ele>
        <time>2018-07-10T14:20:50Z</time>
      </trkpt>
      <trkpt lat="49.118723971769214" lon="5.563107021152973">
        <ele>269.31</ele>
        <time>2018-07-10T14:20:57Z</time>
      </trkpt>
      <trkpt lat="49.11869103088975" lon="5.563139962032437">
        <ele>269.79000000000002</ele>
        <time>2018-07-10T14:20:58Z</time>
      </trkpt>
      <trkpt lat="49.11865197122097" lon="5.563178015872836">
        <ele>269.79000000000002</ele>
        <time>2018-07-10T14:20:59Z</time>
      </trkpt>
      <trkpt lat="49.118630010634661" lon="5.563322016969323">
        <ele>270.26999999999998</ele>
        <time>2018-07-10T14:21:00Z</time>
      </trkpt>
      <trkpt lat="49.118618024513125" lon="5.563388988375664">
        <ele>270.26999999999998</ele>
        <time>2018-07-10T14:21:01Z</time>
      </trkpt>
      <trkpt lat="49.11860503256321" lon="5.563458977267146">
        <ele>270.26999999999998</ele>
        <time>2018-07-10T14:21:02Z</time>
      </trkpt>
      <trkpt lat="49.118431024253368" lon="5.564321978017688">
        <ele>270.26999999999998</ele>
        <time>2018-07-10T14:21:11Z</time>
      </trkpt>
      <trkpt lat="49.118106979876757" lon="5.565896015614271">
        <ele>268.35000000000002</ele>
        <time>2018-07-10T14:21:18Z</time>
      </trkpt>
      <trkpt lat="49.117522006854415" lon="5.568626001477242">
        <ele>265.45999999999998</ele>
        <time>2018-07-10T14:21:27Z</time>
      </trkpt>
      <trkpt lat="49.116743998602033" lon="5.572245977818966">
        <ele>259.69</ele>
        <time>2018-07-10T14:21:39Z</time>
      </trkpt>
      <trkpt lat="49.116447027772665" lon="5.573624968528748">
        <ele>258.25</ele>
        <time>2018-07-10T14:21:45Z</time>
      </trkpt>
      <trkpt lat="49.116303026676178" lon="5.574288982897997">
        <ele>256.81</ele>
        <time>2018-07-10T14:21:52Z</time>
      </trkpt>
      <trkpt lat="49.116216022521257" lon="5.574695002287626">
        <ele>256.81</ele>
        <time>2018-07-10T14:22:03Z</time>
      </trkpt>
      <trkpt lat="49.116210993379354" lon="5.574714029207826">
        <ele>256.81</ele>
        <time>2018-07-10T14:22:12Z</time>
      </trkpt>
      <trkpt lat="49.116216022521257" lon="5.574690978974104">
        <ele>256.81</ele>
        <time>2018-07-10T14:22:13Z</time>
      </trkpt>
      <trkpt lat="49.11622398532927" lon="5.574653008952737">
        <ele>256.81</ele>
        <time>2018-07-10T14:22:14Z</time>
      </trkpt>
      <trkpt lat="49.116398999467492" lon="5.573847005143762">
        <ele>257.29000000000002</ele>
        <time>2018-07-10T14:22:20Z</time>
      </trkpt>
      <trkpt lat="49.116676021367311" lon="5.572561975568533">
        <ele>258.73000000000002</ele>
        <time>2018-07-10T14:22:26Z</time>
      </trkpt>
      <trkpt lat="49.117325032129884" lon="5.569548010826111">
        <ele>261.62</ele>
        <time>2018-07-10T14:22:38Z</time>
      </trkpt>
      <trkpt lat="49.117960967123508" lon="5.566568998619914">
        <ele>265.45999999999998</ele>
        <time>2018-07-10T14:22:50Z</time>
      </trkpt>
      <trkpt lat="49.118373021483421" lon="5.56460302323103">
        <ele>266.89999999999998</ele>
        <time>2018-07-10T14:22:58Z</time>
      </trkpt>
      <trkpt lat="49.11843697540462" lon="5.564292976632714">
        <ele>267.38</ele>
        <time>2018-07-10T14:23:00Z</time>
      </trkpt>
      <trkpt lat="49.118466982617974" lon="5.564149981364608">
        <ele>267.86000000000001</ele>
        <time>2018-07-10T14:23:01Z</time>
      </trkpt>
      <trkpt lat="49.118594974279404" lon="5.563513040542603">
        <ele>271.70999999999998</ele>
        <time>2018-07-10T14:23:09Z</time>
      </trkpt>
      <trkpt lat="49.11860503256321" lon="5.563460988923907">
        <ele>272.19</ele>
        <time>2018-07-10T14:23:10Z</time>
      </trkpt>
      <trkpt lat="49.118614001199603" lon="5.563410026952624">
        <ele>272.67000000000002</ele>
        <time>2018-07-10T14:23:11Z</time>
      </trkpt>
      <trkpt lat="49.118595980107784" lon="5.563330985605717">
        <ele>273.14999999999998</ele>
        <time>2018-07-10T14:23:12Z</time>
      </trkpt>
      <trkpt lat="49.118560021743178" lon="5.563330985605717">
        <ele>273.63</ele>
        <time>2018-07-10T14:23:13Z</time>
      </trkpt>
      <trkpt lat="49.118508975952864" lon="5.563330985605717">
        <ele>273.63</ele>
        <time>2018-07-10T14:23:14Z</time>
      </trkpt>
      <trkpt lat="49.118439992889762" lon="5.563330985605717">
        <ele>273.63</ele>
        <time>2018-07-10T14:23:15Z</time>
      </trkpt>
      <trkpt lat="49.118360029533505" lon="5.563330985605717">
        <ele>273.63</ele>
        <time>2018-07-10T14:23:16Z</time>
      </trkpt>
      <trkpt lat="49.117435002699494" lon="5.563403991982341">
        <ele>268.82999999999998</ele>
        <time>2018-07-10T14:23:23Z</time>
      </trkpt>
      <trkpt lat="49.117308016866446" lon="5.563416983932257">
        <ele>267.38</ele>
        <time>2018-07-10T14:23:25Z</time>
      </trkpt>
      <trkpt lat="49.117194022983313" lon="5.563416983932257">
        <ele>266.89999999999998</ele>
        <time>2018-07-10T14:23:26Z</time>
      </trkpt>
      <trkpt lat="49.117088997736573" lon="5.563416983932257">
        <ele>265.94</ele>
        <time>2018-07-10T14:23:27Z</time>
      </trkpt>
      <trkpt lat="49.116990007460117" lon="5.563384965062141">
        <ele>265.45999999999998</ele>
        <time>2018-07-10T14:23:28Z</time>
      </trkpt>
      <trkpt lat="49.116898979991674" lon="5.563355041667819">
        <ele>264.98000000000002</ele>
        <time>2018-07-10T14:23:29Z</time>
      </trkpt>
      <trkpt lat="49.116826979443431" lon="5.563330985605717">
        <ele>264.5</ele>
        <time>2018-07-10T14:23:30Z</time>
      </trkpt>
      <trkpt lat="49.116691024973989" lon="5.563182039186359">
        <ele>264.01999999999998</ele>
        <time>2018-07-10T14:23:31Z</time>
      </trkpt>
      <trkpt lat="49.116691024973989" lon="5.563182039186359">
        <ele>263.54000000000002</ele>
        <time>2018-07-10T14:23:32Z</time>
      </trkpt>
      <trkpt lat="49.116568984463811" lon="5.563029991462827">
        <ele>263.54000000000002</ele>
        <time>2018-07-10T14:23:33Z</time>
      </trkpt>
      <trkpt lat="49.116517016664147" lon="5.562918009236455">
        <ele>263.54000000000002</ele>
        <time>2018-07-10T14:23:34Z</time>
      </trkpt>
      <trkpt lat="49.116517016664147" lon="5.562918009236455">
        <ele>263.06</ele>
        <time>2018-07-10T14:23:35Z</time>
      </trkpt>
      <trkpt lat="49.116419032216072" lon="5.562664959579706">
        <ele>263.06</ele>
        <time>2018-07-10T14:23:36Z</time>
      </trkpt>
      <trkpt lat="49.116419032216072" lon="5.562664959579706">
        <ele>263.06</ele>
        <time>2018-07-10T14:23:37Z</time>
      </trkpt>
      <trkpt lat="49.116381984204054" lon="5.562516013160348">
        <ele>263.54000000000002</ele>
        <time>2018-07-10T14:23:38Z</time>
      </trkpt>
      <trkpt lat="49.116342002525926" lon="5.562360025942326">
        <ele>263.54000000000002</ele>
        <time>2018-07-10T14:23:39Z</time>
      </trkpt>
      <trkpt lat="49.116311995312572" lon="5.562209989875555">
        <ele>263.54000000000002</ele>
        <time>2018-07-10T14:23:40Z</time>
      </trkpt>
      <trkpt lat="49.116311995312572" lon="5.562040004879236">
        <ele>264.01999999999998</ele>
        <time>2018-07-10T14:23:41Z</time>
      </trkpt>
      <trkpt lat="49.116311995312572" lon="5.561873037368059">
        <ele>264.5</ele>
        <time>2018-07-10T14:23:42Z</time>
      </trkpt>
      <trkpt lat="49.116311995312572" lon="5.559923993423581">
        <ele>264.98000000000002</ele>
        <time>2018-07-10T14:23:54Z</time>
      </trkpt>
      <trkpt lat="49.116292968392372" lon="5.559800025075674">
        <ele>265.45999999999998</ele>
        <time>2018-07-10T14:23:55Z</time>
      </trkpt>
      <trkpt lat="49.116262039169669" lon="5.559677984565496">
        <ele>265.94</ele>
        <time>2018-07-10T14:23:56Z</time>
      </trkpt>
      <trkpt lat="49.116233959794044" lon="5.559564996510744">
        <ele>265.94</ele>
        <time>2018-07-10T14:23:57Z</time>
      </trkpt>
      <trkpt lat="49.116196995601058" lon="5.559488972648978">
        <ele>265.94</ele>
        <time>2018-07-10T14:23:58Z</time>
      </trkpt>
      <trkpt lat="49.116105968132615" lon="5.559352012351155">
        <ele>265.94</ele>
        <time>2018-07-10T14:23:59Z</time>
      </trkpt>
      <trkpt lat="49.116105968132615" lon="5.559352012351155">
        <ele>265.94</ele>
        <time>2018-07-10T14:24:00Z</time>
      </trkpt>
      <trkpt lat="49.116054000332952" lon="5.559274982661009">
        <ele>266.42000000000002</ele>
        <time>2018-07-10T14:24:01Z</time>
      </trkpt>
      <trkpt lat="49.116002032533288" lon="5.559274982661009">
        <ele>266.42000000000002</ele>
        <time>2018-07-10T14:24:02Z</time>
      </trkpt>
      <trkpt lat="49.115918967872858" lon="5.559279005974531">
        <ele>265.94</ele>
        <time>2018-07-10T14:24:03Z</time>
      </trkpt>
      <trkpt lat="49.115722998976707" lon="5.559299038723111">
        <ele>265.45999999999998</ele>
        <time>2018-07-10T14:24:04Z</time>
      </trkpt>
      <trkpt lat="49.114832002669573" lon="5.559175992384553">
        <ele>263.06</ele>
        <time>2018-07-10T14:24:13Z</time>
      </trkpt>
      <trkpt lat="49.114617006853223" lon="5.55908203125">
        <ele>264.01999999999998</ele>
        <time>2018-07-10T14:24:15Z</time>
      </trkpt>
      <trkpt lat="49.114508964121342" lon="5.559060992673039">
        <ele>264.5</ele>
        <time>2018-07-10T14:24:16Z</time>
      </trkpt>
      <trkpt lat="49.114405028522015" lon="5.559089994058013">
        <ele>264.98000000000002</ele>
        <time>2018-07-10T14:24:17Z</time>
      </trkpt>
      <trkpt lat="49.114306038245559" lon="5.55912796407938">
        <ele>264.98000000000002</ele>
        <time>2018-07-10T14:24:18Z</time>
      </trkpt>
      <trkpt lat="49.114200007170439" lon="5.559178004041314">
        <ele>265.45999999999998</ele>
        <time>2018-07-10T14:24:19Z</time>
      </trkpt>
      <trkpt lat="49.113245978951454" lon="5.559341032058001">
        <ele>267.86000000000001</ele>
        <time>2018-07-10T14:24:26Z</time>
      </trkpt>
      <trkpt lat="49.111750982701778" lon="5.559110026806593">
        <ele>270.75</ele>
        <time>2018-07-10T14:24:36Z</time>
      </trkpt>
      <trkpt lat="49.11160396412015" lon="5.559092005714774">
        <ele>270.26999999999998</ele>
        <time>2018-07-10T14:24:37Z</time>
      </trkpt>
      <trkpt lat="49.111297018826008" lon="5.559151014313102">
        <ele>269.31</ele>
        <time>2018-07-10T14:24:38Z</time>
      </trkpt>
      <trkpt lat="49.11112803965807" lon="5.559201976284385">
        <ele>268.35000000000002</ele>
        <time>2018-07-10T14:24:39Z</time>
      </trkpt>
      <trkpt lat="49.11112803965807" lon="5.559201976284385">
        <ele>267.38</ele>
        <time>2018-07-10T14:24:40Z</time>
      </trkpt>
      <trkpt lat="49.109891038388014" lon="5.560084003955126">
        <ele>264.01999999999998</ele>
        <time>2018-07-10T14:24:47Z</time>
      </trkpt>
      <trkpt lat="49.108670968562365" lon="5.561715960502625">
        <ele>263.06</ele>
        <time>2018-07-10T14:24:55Z</time>
      </trkpt>
      <trkpt lat="49.108481034636497" lon="5.562084009870887">
        <ele>263.06</ele>
        <time>2018-07-10T14:24:56Z</time>
      </trkpt>
      <trkpt lat="49.108448009938002" lon="5.562300011515617">
        <ele>263.06</ele>
        <time>2018-07-10T14:24:57Z</time>
      </trkpt>
      <trkpt lat="49.108448009938002" lon="5.562300011515617">
        <ele>262.57999999999998</ele>
        <time>2018-07-10T14:24:58Z</time>
      </trkpt>
      <trkpt lat="49.108414985239506" lon="5.562515007331967">
        <ele>262.57999999999998</ele>
        <time>2018-07-10T14:24:59Z</time>
      </trkpt>
      <trkpt lat="49.108247011899948" lon="5.565517991781235">
        <ele>258.73000000000002</ele>
        <time>2018-07-10T14:25:09Z</time>
      </trkpt>
      <trkpt lat="49.108200995251536" lon="5.566090978682041">
        <ele>258.25</ele>
        <time>2018-07-10T14:25:11Z</time>
      </trkpt>
      <trkpt lat="49.108119020238519" lon="5.566570004448295">
        <ele>257.76999999999998</ele>
        <time>2018-07-10T14:25:12Z</time>
      </trkpt>
      <trkpt lat="49.108036961406469" lon="5.566765973344445">
        <ele>257.76999999999998</ele>
        <time>2018-07-10T14:25:13Z</time>
      </trkpt>
      <trkpt lat="49.1079490352422" lon="5.566962026059628">
        <ele>257.29000000000002</ele>
        <time>2018-07-10T14:25:14Z</time>
      </trkpt>
      <trkpt lat="49.1079490352422" lon="5.566962026059628">
        <ele>256.81</ele>
        <time>2018-07-10T14:25:15Z</time>
      </trkpt>
      <trkpt lat="49.107831018045545" lon="5.567094963043928">
        <ele>256.81</ele>
        <time>2018-07-10T14:25:16Z</time>
      </trkpt>
      <trkpt lat="49.107692968100309" lon="5.567207029089332">
        <ele>256.81</ele>
        <time>2018-07-10T14:25:17Z</time>
      </trkpt>
      <trkpt lat="49.106098981574178" lon="5.568090984597802">
        <ele>259.69</ele>
        <time>2018-07-10T14:25:26Z</time>
      </trkpt>
      <trkpt lat="49.104747986420989" lon="5.568546038120985">
        <ele>258.25</ele>
        <time>2018-07-10T14:25:33Z</time>
      </trkpt>
      <trkpt lat="49.104667017236352" lon="5.568619966506958">
        <ele>257.76999999999998</ele>
        <time>2018-07-10T14:25:34Z</time>
      </trkpt>
      <trkpt lat="49.104613959789276" lon="5.568739995360375">
        <ele>257.29000000000002</ele>
        <time>2018-07-10T14:25:35Z</time>
      </trkpt>
      <trkpt lat="49.104586970061064" lon="5.568868992850184">
        <ele>256.81</ele>
        <time>2018-07-10T14:25:36Z</time>
      </trkpt>
      <trkpt lat="49.104580013081431" lon="5.569034032523632">
        <ele>256.32999999999998</ele>
        <time>2018-07-10T14:25:37Z</time>
      </trkpt>
      <trkpt lat="49.104638015851378" lon="5.569429993629456">
        <ele>255.84999999999999</ele>
        <time>2018-07-10T14:25:39Z</time>
      </trkpt>
      <trkpt lat="49.104725020006299" lon="5.570079004392028">
        <ele>255.37</ele>
        <time>2018-07-10T14:25:42Z</time>
      </trkpt>
      <trkpt lat="49.104725020006299" lon="5.570278996601701">
        <ele>254.88999999999999</ele>
        <time>2018-07-10T14:25:43Z</time>
      </trkpt>
      <trkpt lat="49.104725020006299" lon="5.570432972162962">
        <ele>254.88999999999999</ele>
        <time>2018-07-10T14:25:44Z</time>
      </trkpt>
      <trkpt lat="49.104654025286436" lon="5.570604968816042">
        <ele>254.41</ele>
        <time>2018-07-10T14:25:45Z</time>
      </trkpt>
      <trkpt lat="49.104654025286436" lon="5.570604968816042">
        <ele>253.93000000000001</ele>
        <time>2018-07-10T14:25:46Z</time>
      </trkpt>
      <trkpt lat="49.104573978111148" lon="5.570798004046083">
        <ele>253.93000000000001</ele>
        <time>2018-07-10T14:25:47Z</time>
      </trkpt>
      <trkpt lat="49.104495020583272" lon="5.570915015414357">
        <ele>253.44</ele>
        <time>2018-07-10T14:25:48Z</time>
      </trkpt>
      <trkpt lat="49.104073997586966" lon="5.571537958458066">
        <ele>253.44</ele>
        <time>2018-07-10T14:25:51Z</time>
      </trkpt>
      <trkpt lat="49.104007026180625" lon="5.571713978424668">
        <ele>253.44</ele>
        <time>2018-07-10T14:25:52Z</time>
      </trkpt>
      <trkpt lat="49.104007026180625" lon="5.571713978424668">
        <ele>253.93000000000001</ele>
        <time>2018-07-10T14:25:53Z</time>
      </trkpt>
      <trkpt lat="49.103961009532213" lon="5.572107005864382">
        <ele>254.41</ele>
        <time>2018-07-10T14:25:54Z</time>
      </trkpt>
      <trkpt lat="49.10395204089582" lon="5.572317978367209">
        <ele>254.41</ele>
        <time>2018-07-10T14:25:55Z</time>
      </trkpt>
      <trkpt lat="49.10395204089582" lon="5.57253398001194">
        <ele>253.93000000000001</ele>
        <time>2018-07-10T14:25:56Z</time>
      </trkpt>
      <trkpt lat="49.10395204089582" lon="5.572953997179866">
        <ele>253.93000000000001</ele>
        <time>2018-07-10T14:25:58Z</time>
      </trkpt>
      <trkpt lat="49.10395204089582" lon="5.573136974126101">
        <ele>253.44</ele>
        <time>2018-07-10T14:25:59Z</time>
      </trkpt>
      <trkpt lat="49.103942988440394" lon="5.57328499853611">
        <ele>253.44</ele>
        <time>2018-07-10T14:26:00Z</time>
      </trkpt>
      <trkpt lat="49.103917004540563" lon="5.573407039046288">
        <ele>253.44</ele>
        <time>2018-07-10T14:26:01Z</time>
      </trkpt>
      <trkpt lat="49.103894960135221" lon="5.573512986302376">
        <ele>253.44</ele>
        <time>2018-07-10T14:26:02Z</time>
      </trkpt>
      <trkpt lat="49.103822037577629" lon="5.573579035699368">
        <ele>253.44</ele>
        <time>2018-07-10T14:26:03Z</time>
      </trkpt>
      <trkpt lat="49.103735033422709" lon="5.573624968528748">
        <ele>253.93000000000001</ele>
        <time>2018-07-10T14:26:04Z</time>
      </trkpt>
      <trkpt lat="49.103638976812363" lon="5.573676014319062">
        <ele>254.41</ele>
        <time>2018-07-10T14:26:05Z</time>
      </trkpt>
      <trkpt lat="49.102868009358644" lon="5.573901990428567">
        <ele>256.81</ele>
        <time>2018-07-10T14:26:14Z</time>
      </trkpt>
      <trkpt lat="49.102392001077533" lon="5.574025036767125">
        <ele>257.76999999999998</ele>
        <time>2018-07-10T14:26:19Z</time>
      </trkpt>
      <trkpt lat="49.102287981659174" lon="5.574049009010196">
        <ele>257.76999999999998</ele>
        <time>2018-07-10T14:26:20Z</time>
      </trkpt>
      <trkpt lat="49.101314004510641" lon="5.57442300952971">
        <ele>259.20999999999998</ele>
        <time>2018-07-10T14:26:28Z</time>
      </trkpt>
      <trkpt lat="49.099792018532753" lon="5.575359016656876">
        <ele>257.29000000000002</ele>
        <time>2018-07-10T14:26:36Z</time>
      </trkpt>
      <trkpt lat="49.098271038383245" lon="5.576330982148647">
        <ele>254.88999999999999</ele>
        <time>2018-07-10T14:26:44Z</time>
      </trkpt>
      <trkpt lat="49.097791006788611" lon="5.57663599960506">
        <ele>255.37</ele>
        <time>2018-07-10T14:26:49Z</time>
      </trkpt>
      <trkpt lat="49.097642982378602" lon="5.576729960739613">
        <ele>256.81</ele>
        <time>2018-07-10T14:26:55Z</time>
      </trkpt>
      <trkpt lat="49.097585985437036" lon="5.57676600292325">
        <ele>256.81</ele>
        <time>2018-07-10T14:26:58Z</time>
      </trkpt>
      <trkpt lat="49.097562013193965" lon="5.576803972944617">
        <ele>257.29000000000002</ele>
        <time>2018-07-10T14:26:59Z</time>
      </trkpt>
      <trkpt lat="49.097579028457403" lon="5.576883014291525">
        <ele>257.29000000000002</ele>
        <time>2018-07-10T14:27:00Z</time>
      </trkpt>
      <trkpt lat="49.097603000700474" lon="5.576999019831419">
        <ele>257.76999999999998</ele>
        <time>2018-07-10T14:27:01Z</time>
      </trkpt>
      <trkpt lat="49.097634013742208" lon="5.577143020927906">
        <ele>257.76999999999998</ele>
        <time>2018-07-10T14:27:02Z</time>
      </trkpt>
      <trkpt lat="49.097668966278434" lon="5.577307976782322">
        <ele>257.29000000000002</ele>
        <time>2018-07-10T14:27:03Z</time>
      </trkpt>
      <trkpt lat="49.097971972078085" lon="5.578728038817644">
        <ele>255.37</ele>
        <time>2018-07-10T14:27:09Z</time>
      </trkpt>
      <trkpt lat="49.098312025889754" lon="5.581308994442225">
        <ele>252</ele>
        <time>2018-07-10T14:27:17Z</time>
      </trkpt>
      <trkpt lat="49.098396012559533" lon="5.585650987923145">
        <ele>246.22999999999999</ele>
        <time>2018-07-10T14:27:29Z</time>
      </trkpt>
      <trkpt lat="49.098255028948188" lon="5.587060991674662">
        <ele>244.78999999999999</ele>
        <time>2018-07-10T14:27:34Z</time>
      </trkpt>
      <trkpt lat="49.09819602034986" lon="5.58727297000587">
        <ele>244.78999999999999</ele>
        <time>2018-07-10T14:27:35Z</time>
      </trkpt>
      <trkpt lat="49.097987981513143" lon="5.588061036542058">
        <ele>242.87</ele>
        <time>2018-07-10T14:27:39Z</time>
      </trkpt>
      <trkpt lat="49.097943976521492" lon="5.588252982124686">
        <ele>242.38999999999999</ele>
        <time>2018-07-10T14:27:40Z</time>
      </trkpt>
      <trkpt lat="49.097906006500125" lon="5.588442999869585">
        <ele>241.91</ele>
        <time>2018-07-10T14:27:41Z</time>
      </trkpt>
      <trkpt lat="49.097747001796961" lon="5.589324021711946">
        <ele>241.91</ele>
        <time>2018-07-10T14:27:46Z</time>
      </trkpt>
      <trkpt lat="49.097710959613323" lon="5.589444972574711">
        <ele>241.43000000000001</ele>
        <time>2018-07-10T14:27:47Z</time>
      </trkpt>
      <trkpt lat="49.09763895906508" lon="5.589530970901251">
        <ele>241.43000000000001</ele>
        <time>2018-07-10T14:27:48Z</time>
      </trkpt>
      <trkpt lat="49.09763895906508" lon="5.589530970901251">
        <ele>240.94999999999999</ele>
        <time>2018-07-10T14:27:49Z</time>
      </trkpt>
      <trkpt lat="49.097560001537204" lon="5.589571036398411">
        <ele>240.94999999999999</ele>
        <time>2018-07-10T14:27:50Z</time>
      </trkpt>
      <trkpt lat="49.097474003210664" lon="5.589596014469862">
        <ele>241.43000000000001</ele>
        <time>2018-07-10T14:27:51Z</time>
      </trkpt>
      <trkpt lat="49.097379958257079" lon="5.589618980884552">
        <ele>241.91</ele>
        <time>2018-07-10T14:27:52Z</time>
      </trkpt>
      <trkpt lat="49.097279040142894" lon="5.589630967006087">
        <ele>241.91</ele>
        <time>2018-07-10T14:27:53Z</time>
      </trkpt>
      <trkpt lat="49.097089022397995" lon="5.589650999754667">
        <ele>241.91</ele>
        <time>2018-07-10T14:27:54Z</time>
      </trkpt>
      <trkpt lat="49.097008975222707" lon="5.589669020846486">
        <ele>241.91</ele>
        <time>2018-07-10T14:27:55Z</time>
      </trkpt>
      <trkpt lat="49.097009981051087" lon="5.589669020846486">
        <ele>241.91</ele>
        <time>2018-07-10T14:27:56Z</time>
      </trkpt>
      <trkpt lat="49.096870003268123" lon="5.589825008064508">
        <ele>241.43000000000001</ele>
        <time>2018-07-10T14:27:57Z</time>
      </trkpt>
      <trkpt lat="49.096819963306189" lon="5.58995601721108">
        <ele>241.91</ele>
        <time>2018-07-10T14:27:58Z</time>
      </trkpt>
      <trkpt lat="49.096769001334906" lon="5.590089960023761">
        <ele>241.91</ele>
        <time>2018-07-10T14:27:59Z</time>
      </trkpt>
      <trkpt lat="49.096675962209702" lon="5.590361030772328">
        <ele>241.91</ele>
        <time>2018-07-10T14:28:01Z</time>
      </trkpt>
      <trkpt lat="49.096634974703193" lon="5.590491034090519">
        <ele>241.91</ele>
        <time>2018-07-10T14:28:02Z</time>
      </trkpt>
      <trkpt lat="49.096574038267136" lon="5.590761015191674">
        <ele>242.38999999999999</ele>
        <time>2018-07-10T14:28:04Z</time>
      </trkpt>
      <trkpt lat="49.096545958891511" lon="5.590900992974639">
        <ele>242.87</ele>
        <time>2018-07-10T14:28:05Z</time>
      </trkpt>
      <trkpt lat="49.096450991928577" lon="5.591517984867096">
        <ele>243.34999999999999</ele>
        <time>2018-07-10T14:28:09Z</time>
      </trkpt>
      <trkpt lat="49.096233984455466" lon="5.593251027166843">
        <ele>243.34999999999999</ele>
        <time>2018-07-10T14:28:20Z</time>
      </trkpt>
      <trkpt lat="49.096249993890524" lon="5.593383964151144">
        <ele>243.34999999999999</ele>
        <time>2018-07-10T14:28:21Z</time>
      </trkpt>
      <trkpt lat="49.096267009153962" lon="5.593515979126096">
        <ele>242.87</ele>
        <time>2018-07-10T14:28:22Z</time>
      </trkpt>
      <trkpt lat="49.096267009153962" lon="5.593514973297715">
        <ele>242.87</ele>
        <time>2018-07-10T14:28:23Z</time>
      </trkpt>
      <trkpt lat="49.096396006643772" lon="5.593742039054632">
        <ele>242.38999999999999</ele>
        <time>2018-07-10T14:28:24Z</time>
      </trkpt>
      <trkpt lat="49.096467001363635" lon="5.593848992139101">
        <ele>241.91</ele>
        <time>2018-07-10T14:28:26Z</time>
      </trkpt>
      <trkpt lat="49.096522992476821" lon="5.593974972143769">
        <ele>241.91</ele>
        <time>2018-07-10T14:28:27Z</time>
      </trkpt>
      <trkpt lat="49.096558028832078" lon="5.594114027917385">
        <ele>241.91</ele>
        <time>2018-07-10T14:28:28Z</time>
      </trkpt>
      <trkpt lat="49.096591975539923" lon="5.594260962679982">
        <ele>241.91</ele>
        <time>2018-07-10T14:28:29Z</time>
      </trkpt>
      <trkpt lat="49.09658401273191" lon="5.594419967383146">
        <ele>241.91</ele>
        <time>2018-07-10T14:28:30Z</time>
      </trkpt>
      <trkpt lat="49.096560962498188" lon="5.594775024801493">
        <ele>241.91</ele>
        <time>2018-07-10T14:28:31Z</time>
      </trkpt>
      <trkpt lat="49.096362981945276" lon="5.59663899242878">
        <ele>239.50999999999999</ele>
        <time>2018-07-10T14:28:40Z</time>
      </trkpt>
      <trkpt lat="49.096280001103878" lon="5.597750013694167">
        <ele>238.53999999999999</ele>
        <time>2018-07-10T14:28:45Z</time>
      </trkpt>
      <trkpt lat="49.096270026639104" lon="5.598005997017026">
        <ele>238.06</ele>
        <time>2018-07-10T14:28:46Z</time>
      </trkpt>
      <trkpt lat="49.096360970288515" lon="5.598628018051386">
        <ele>236.62</ele>
        <time>2018-07-10T14:28:49Z</time>
      </trkpt>
      <trkpt lat="49.096496002748609" lon="5.599279962480068">
        <ele>234.69999999999999</ele>
        <time>2018-07-10T14:28:53Z</time>
      </trkpt>
      <trkpt lat="49.096544031053782" lon="5.599494958296418">
        <ele>233.74000000000001</ele>
        <time>2018-07-10T14:28:54Z</time>
      </trkpt>
      <trkpt lat="49.097175020724535" lon="5.602126037701964">
        <ele>232.30000000000001</ele>
        <time>2018-07-10T14:29:04Z</time>
      </trkpt>
      <trkpt lat="49.097954034805298" lon="5.605439990758896">
        <ele>231.33000000000001</ele>
        <time>2018-07-10T14:29:15Z</time>
      </trkpt>
      <trkpt lat="49.098039027303457" lon="5.606084978207946">
        <ele>231.81</ele>
        <time>2018-07-10T14:29:17Z</time>
      </trkpt>
      <trkpt lat="49.09811002202332" lon="5.608315989375114">
        <ele>232.30000000000001</ele>
        <time>2018-07-10T14:29:24Z</time>
      </trkpt>
      <trkpt lat="49.098214963451028" lon="5.612223967909813">
        <ele>231.81</ele>
        <time>2018-07-10T14:29:34Z</time>
      </trkpt>
      <trkpt lat="49.098296016454697" lon="5.615712013095617">
        <ele>231.33000000000001</ele>
        <time>2018-07-10T14:29:45Z</time>
      </trkpt>
      <trkpt lat="49.098414033651352" lon="5.62016598880291">
        <ele>230.84999999999999</ele>
        <time>2018-07-10T14:29:58Z</time>
      </trkpt>
      <trkpt lat="49.098387965932488" lon="5.620806030929089">
        <ele>230.84999999999999</ele>
        <time>2018-07-10T14:30:00Z</time>
      </trkpt>
      <trkpt lat="49.098372962325811" lon="5.621115993708372">
        <ele>230.84999999999999</ele>
        <time>2018-07-10T14:30:01Z</time>
      </trkpt>
      <trkpt lat="49.098326023668051" lon="5.621421011164784">
        <ele>231.33000000000001</ele>
        <time>2018-07-10T14:30:02Z</time>
      </trkpt>
      <trkpt lat="49.098277995362878" lon="5.621725022792816">
        <ele>231.33000000000001</ele>
        <time>2018-07-10T14:30:03Z</time>
      </trkpt>
      <trkpt lat="49.098230972886086" lon="5.622027022764087">
        <ele>231.33000000000001</ele>
        <time>2018-07-10T14:30:04Z</time>
      </trkpt>
      <trkpt lat="49.098073979839683" lon="5.622600009664893">
        <ele>231.81</ele>
        <time>2018-07-10T14:30:05Z</time>
      </trkpt>
      <trkpt lat="49.09770299680531" lon="5.623890990391374">
        <ele>232.78</ele>
        <time>2018-07-10T14:30:11Z</time>
      </trkpt>
      <trkpt lat="49.097197987139225" lon="5.625639036297798">
        <ele>232.30000000000001</ele>
        <time>2018-07-10T14:30:22Z</time>
      </trkpt>
      <trkpt lat="49.096763972193003" lon="5.627130009233952">
        <ele>231.33000000000001</ele>
        <time>2018-07-10T14:30:35Z</time>
      </trkpt>
      <trkpt lat="49.096744023263454" lon="5.627197986468673">
        <ele>231.33000000000001</ele>
        <time>2018-07-10T14:30:39Z</time>
      </trkpt>
      <trkpt lat="49.096675962209702" lon="5.627445001155138">
        <ele>231.33000000000001</ele>
        <time>2018-07-10T14:30:42Z</time>
      </trkpt>
      <trkpt lat="49.096646038815379" lon="5.627555977553129">
        <ele>230.84999999999999</ele>
        <time>2018-07-10T14:30:43Z</time>
      </trkpt>
      <trkpt lat="49.096229961141944" lon="5.628893980756402">
        <ele>231.33000000000001</ele>
        <time>2018-07-10T14:30:52Z</time>
      </trkpt>
      <trkpt lat="49.095513978973031" lon="5.631133038550615">
        <ele>231.81</ele>
        <time>2018-07-10T14:31:07Z</time>
      </trkpt>
      <trkpt lat="49.095150036737323" lon="5.632913019508123">
        <ele>229.88999999999999</ele>
        <time>2018-07-10T14:31:18Z</time>
      </trkpt>
      <trkpt lat="49.094740999862552" lon="5.634657964110375">
        <ele>229.88999999999999</ele>
        <time>2018-07-10T14:31:29Z</time>
      </trkpt>
      <trkpt lat="49.094724990427494" lon="5.634785033762455">
        <ele>229.88999999999999</ele>
        <time>2018-07-10T14:31:30Z</time>
      </trkpt>
      <trkpt lat="49.094733959063888" lon="5.634942026808858">
        <ele>229.88999999999999</ele>
        <time>2018-07-10T14:31:31Z</time>
      </trkpt>
      <trkpt lat="49.094742005690932" lon="5.635082004591823">
        <ele>229.41</ele>
        <time>2018-07-10T14:31:32Z</time>
      </trkpt>
      <trkpt lat="49.094762038439512" lon="5.635221982374787">
        <ele>229.41</ele>
        <time>2018-07-10T14:31:33Z</time>
      </trkpt>
      <trkpt lat="49.09480202011764" lon="5.635357014834881">
        <ele>229.41</ele>
        <time>2018-07-10T14:31:34Z</time>
      </trkpt>
      <trkpt lat="49.09480202011764" lon="5.635357014834881">
        <ele>229.41</ele>
        <time>2018-07-10T14:31:35Z</time>
      </trkpt>
      <trkpt lat="49.094868991523981" lon="5.635460028424859">
        <ele>228.93000000000001</ele>
        <time>2018-07-10T14:31:36Z</time>
      </trkpt>
      <trkpt lat="49.095033025369048" lon="5.635623978450894">
        <ele>228.93000000000001</ele>
        <time>2018-07-10T14:31:37Z</time>
      </trkpt>
      <trkpt lat="49.095126986503601" lon="5.635681981220841">
        <ele>229.41</ele>
        <time>2018-07-10T14:31:38Z</time>
      </trkpt>
      <trkpt lat="49.095366038382053" lon="5.635831011459231">
        <ele>229.88999999999999</ele>
        <time>2018-07-10T14:31:42Z</time>
      </trkpt>
      <trkpt lat="49.095542980358005" lon="5.635980041697621">
        <ele>229.41</ele>
        <time>2018-07-10T14:31:44Z</time>
      </trkpt>
      <trkpt lat="49.095551026985049" lon="5.636083977296948">
        <ele>228.93000000000001</ele>
        <time>2018-07-10T14:31:45Z</time>
      </trkpt>
      <trkpt lat="49.095788989216089" lon="5.637044962495565">
        <ele>227.97</ele>
        <time>2018-07-10T14:31:50Z</time>
      </trkpt>
      <trkpt lat="49.095855038613081" lon="5.63722399994731">
        <ele>227.49000000000001</ele>
        <time>2018-07-10T14:31:51Z</time>
      </trkpt>
      <trkpt lat="49.096701024100184" lon="5.638913037255406">
        <ele>226.05000000000001</ele>
        <time>2018-07-10T14:32:02Z</time>
      </trkpt>
      <trkpt lat="49.096790961921215" lon="5.639087967574596">
        <ele>226.53</ele>
        <time>2018-07-10T14:32:07Z</time>
      </trkpt>
      <trkpt lat="49.096796996891499" lon="5.639167008921504">
        <ele>226.53</ele>
        <time>2018-07-10T14:32:10Z</time>
      </trkpt>
      <trkpt lat="49.096787022426724" lon="5.639216965064406">
        <ele>226.53</ele>
        <time>2018-07-10T14:32:11Z</time>
      </trkpt>
      <trkpt lat="49.096770007163286" lon="5.639302963390946">
        <ele>226.53</ele>
        <time>2018-07-10T14:32:12Z</time>
      </trkpt>
      <trkpt lat="49.096508994698524" lon="5.640677008777857">
        <ele>226.05000000000001</ele>
        <time>2018-07-10T14:32:18Z</time>
      </trkpt>
      <trkpt lat="49.096086965873837" lon="5.643038023263216">
        <ele>226.05000000000001</ele>
        <time>2018-07-10T14:32:25Z</time>
      </trkpt>
      <trkpt lat="49.095535017549992" lon="5.64674399793148">
        <ele>225.09</ele>
        <time>2018-07-10T14:32:34Z</time>
      </trkpt>
      <trkpt lat="49.095069989562035" lon="5.649869022890925">
        <ele>224.61000000000001</ele>
        <time>2018-07-10T14:32:43Z</time>
      </trkpt>
      <trkpt lat="49.094405975192785" lon="5.653229998424649">
        <ele>222.68000000000001</ele>
        <time>2018-07-10T14:32:53Z</time>
      </trkpt>
      <trkpt lat="49.093220019713044" lon="5.658898008987308">
        <ele>221.72</ele>
        <time>2018-07-10T14:33:09Z</time>
      </trkpt>
      <trkpt lat="49.091990981251001" lon="5.664910012856126">
        <ele>219.80000000000001</ele>
        <time>2018-07-10T14:33:27Z</time>
      </trkpt>
      <trkpt lat="49.090980039909482" lon="5.670248027890921">
        <ele>217.88</ele>
        <time>2018-07-10T14:33:43Z</time>
      </trkpt>
      <trkpt lat="49.090883983299136" lon="5.672850022092462">
        <ele>216.91</ele>
        <time>2018-07-10T14:33:52Z</time>
      </trkpt>
      <trkpt lat="49.090896975249052" lon="5.674496982246637">
        <ele>216.43000000000001</ele>
        <time>2018-07-10T14:34:00Z</time>
      </trkpt>
      <trkpt lat="49.091023961082101" lon="5.676893033087254">
        <ele>215.94999999999999</ele>
        <time>2018-07-10T14:34:13Z</time>
      </trkpt>
      <trkpt lat="49.091065032407641" lon="5.67931598983705">
        <ele>216.43000000000001</ele>
        <time>2018-07-10T14:34:25Z</time>
      </trkpt>
      <trkpt lat="49.090701006352901" lon="5.68193499930203">
        <ele>219.31999999999999</ele>
        <time>2018-07-10T14:34:36Z</time>
      </trkpt>
      <trkpt lat="49.090150985866785" lon="5.684792976826429">
        <ele>220.28</ele>
        <time>2018-07-10T14:34:48Z</time>
      </trkpt>
      <trkpt lat="49.089928027242422" lon="5.685365041717887">
        <ele>220.28</ele>
        <time>2018-07-10T14:34:52Z</time>
      </trkpt>
      <trkpt lat="49.089857032522559" lon="5.685534020885825">
        <ele>219.80000000000001</ele>
        <time>2018-07-10T14:34:55Z</time>
      </trkpt>
      <trkpt lat="49.089847980067134" lon="5.685554975643754">
        <ele>219.80000000000001</ele>
        <time>2018-07-10T14:34:56Z</time>
      </trkpt>
      <trkpt lat="49.089853009209037" lon="5.685542989522219">
        <ele>219.80000000000001</ele>
        <time>2018-07-10T14:34:58Z</time>
      </trkpt>
      <trkpt lat="49.089872958138585" lon="5.685496972873807">
        <ele>219.80000000000001</ele>
        <time>2018-07-10T14:34:59Z</time>
      </trkpt>
      <trkpt lat="49.089872036129236" lon="5.685496972873807">
        <ele>219.80000000000001</ele>
        <time>2018-07-10T14:35:00Z</time>
      </trkpt>
      <trkpt lat="49.089898020029068" lon="5.68543603643775">
        <ele>219.80000000000001</ele>
        <time>2018-07-10T14:35:01Z</time>
      </trkpt>
      <trkpt lat="49.089962979778647" lon="5.685282982885838">
        <ele>219.80000000000001</ele>
        <time>2018-07-10T14:35:02Z</time>
      </trkpt>
      <trkpt lat="49.089988963678479" lon="5.6852210406214">
        <ele>219.80000000000001</ele>
        <time>2018-07-10T14:35:03Z</time>
      </trkpt>
      <trkpt lat="49.089988963678479" lon="5.6852210406214">
        <ele>220.28</ele>
        <time>2018-07-10T14:35:04Z</time>
      </trkpt>
      <trkpt lat="49.09020496532321" lon="5.685280971229076">
        <ele>219.80000000000001</ele>
        <time>2018-07-10T14:35:05Z</time>
      </trkpt>
      <trkpt lat="49.09020496532321" lon="5.685279965400696">
        <ele>219.80000000000001</ele>
        <time>2018-07-10T14:35:06Z</time>
      </trkpt>
      <trkpt lat="49.090251987800002" lon="5.685454979538918">
        <ele>219.80000000000001</ele>
        <time>2018-07-10T14:35:07Z</time>
      </trkpt>
      <trkpt lat="49.090251987800002" lon="5.685454979538918">
        <ele>219.80000000000001</ele>
        <time>2018-07-10T14:35:08Z</time>
      </trkpt>
      <trkpt lat="49.090285012498498" lon="5.685594035312533">
        <ele>219.80000000000001</ele>
        <time>2018-07-10T14:35:09Z</time>
      </trkpt>
      <trkpt lat="49.090410992503166" lon="5.687465965747833">
        <ele>219.80000000000001</ele>
        <time>2018-07-10T14:35:15Z</time>
      </trkpt>
      <trkpt lat="49.090637974441051" lon="5.690844962373376">
        <ele>220.75999999999999</ele>
        <time>2018-07-10T14:35:24Z</time>
      </trkpt>
      <trkpt lat="49.091023039072752" lon="5.696564018726349">
        <ele>216.43000000000001</ele>
        <time>2018-07-10T14:35:38Z</time>
      </trkpt>
      <trkpt lat="49.091459987685084" lon="5.70123097859323">
        <ele>214.99000000000001</ele>
        <time>2018-07-10T14:35:50Z</time>
      </trkpt>
      <trkpt lat="49.092295998707414" lon="5.708197010681033">
        <ele>213.06999999999999</ele>
        <time>2018-07-10T14:36:09Z</time>
      </trkpt>
      <trkpt lat="49.092712998390198" lon="5.710278991609812">
        <ele>213.06999999999999</ele>
        <time>2018-07-10T14:36:15Z</time>
      </trkpt>
      <trkpt lat="49.093402996659279" lon="5.712903030216694">
        <ele>212.59</ele>
        <time>2018-07-10T14:36:22Z</time>
      </trkpt>
      <trkpt lat="49.094155021011829" lon="5.715762013569474">
        <ele>211.15000000000001</ele>
        <time>2018-07-10T14:36:30Z</time>
      </trkpt>
      <trkpt lat="49.095205022022128" lon="5.719544012099505">
        <ele>211.15000000000001</ele>
        <time>2018-07-10T14:36:41Z</time>
      </trkpt>
      <trkpt lat="49.095807010307908" lon="5.72159699164331">
        <ele>211.15000000000001</ele>
        <time>2018-07-10T14:36:49Z</time>
      </trkpt>
      <trkpt lat="49.096209006384015" lon="5.722968019545078">
        <ele>212.11000000000001</ele>
        <time>2018-07-10T14:36:56Z</time>
      </trkpt>
      <trkpt lat="49.096589041873813" lon="5.724254976958036">
        <ele>212.59</ele>
        <time>2018-07-10T14:37:04Z</time>
      </trkpt>
      <trkpt lat="49.097262024879456" lon="5.726049039512873">
        <ele>214.99000000000001</ele>
        <time>2018-07-10T14:37:15Z</time>
      </trkpt>
      <trkpt lat="49.098167018964887" lon="5.727665992453694">
        <ele>215.94999999999999</ele>
        <time>2018-07-10T14:37:26Z</time>
      </trkpt>
      <trkpt lat="49.098300039768219" lon="5.727921975776553">
        <ele>215.94999999999999</ele>
        <time>2018-07-10T14:37:27Z</time>
      </trkpt>
      <trkpt lat="49.098401963710785" lon="5.728179970756173">
        <ele>215.47</ele>
        <time>2018-07-10T14:37:29Z</time>
      </trkpt>
      <trkpt lat="49.098401963710785" lon="5.728179970756173">
        <ele>214.99000000000001</ele>
        <time>2018-07-10T14:37:30Z</time>
      </trkpt>
      <trkpt lat="49.09843297675252" lon="5.728468978777528">
        <ele>214.50999999999999</ele>
        <time>2018-07-10T14:37:31Z</time>
      </trkpt>
      <trkpt lat="49.09843297675252" lon="5.728468978777528">
        <ele>214.03</ele>
        <time>2018-07-10T14:37:32Z</time>
      </trkpt>
      <trkpt lat="49.098354019224644" lon="5.728775002062321">
        <ele>212.59</ele>
        <time>2018-07-10T14:37:33Z</time>
      </trkpt>
      <trkpt lat="49.098286963999271" lon="5.728983962908387">
        <ele>211.63</ele>
        <time>2018-07-10T14:37:34Z</time>
      </trkpt>
      <trkpt lat="49.098286963999271" lon="5.728983962908387">
        <ele>210.66999999999999</ele>
        <time>2018-07-10T14:37:35Z</time>
      </trkpt>
      <trkpt lat="49.098201971501112" lon="5.729087982326746">
        <ele>209.69999999999999</ele>
        <time>2018-07-10T14:37:36Z</time>
      </trkpt>
      <trkpt lat="49.097966020926833" lon="5.729369027540088">
        <ele>208.74000000000001</ele>
        <time>2018-07-10T14:37:37Z</time>
      </trkpt>
      <trkpt lat="49.097966020926833" lon="5.729369027540088">
        <ele>208.25999999999999</ele>
        <time>2018-07-10T14:37:38Z</time>
      </trkpt>
      <trkpt lat="49.096603961661458" lon="5.730602005496621">
        <ele>207.78</ele>
        <time>2018-07-10T14:37:47Z</time>
      </trkpt>
      <trkpt lat="49.095850009471178" lon="5.731319999322295">
        <ele>206.34</ele>
        <time>2018-07-10T14:37:54Z</time>
      </trkpt>
      <trkpt lat="49.095674995332956" lon="5.731604984030128">
        <ele>206.34</ele>
        <time>2018-07-10T14:37:55Z</time>
      </trkpt>
      <trkpt lat="49.095676001161337" lon="5.731603978201747">
        <ele>206.34</ele>
        <time>2018-07-10T14:37:56Z</time>
      </trkpt>
      <trkpt lat="49.095591008663177" lon="5.731968004256487">
        <ele>205.86000000000001</ele>
        <time>2018-07-10T14:37:57Z</time>
      </trkpt>
      <trkpt lat="49.095608023926616" lon="5.732186017557979">
        <ele>205.86000000000001</ele>
        <time>2018-07-10T14:37:58Z</time>
      </trkpt>
      <trkpt lat="49.095626967027783" lon="5.732423979789019">
        <ele>205.38</ele>
        <time>2018-07-10T14:37:59Z</time>
      </trkpt>
      <trkpt lat="49.095801981166005" lon="5.734160961583257">
        <ele>205.38</ele>
        <time>2018-07-10T14:38:06Z</time>
      </trkpt>
      <trkpt lat="49.09615402109921" lon="5.737354969605804">
        <ele>204.41999999999999</ele>
        <time>2018-07-10T14:38:15Z</time>
      </trkpt>
      <trkpt lat="49.09656498581171" lon="5.74110796675086">
        <ele>204.90000000000001</ele>
        <time>2018-07-10T14:38:26Z</time>
      </trkpt>
      <trkpt lat="49.096976034343243" lon="5.744906980544329">
        <ele>207.30000000000001</ele>
        <time>2018-07-10T14:38:37Z</time>
      </trkpt>
      <trkpt lat="49.097521025687456" lon="5.750084985047579">
        <ele>206.34</ele>
        <time>2018-07-10T14:38:51Z</time>
      </trkpt>
      <trkpt lat="49.097650023177266" lon="5.75388802215457">
        <ele>212.59</ele>
        <time>2018-07-10T14:39:03Z</time>
      </trkpt>
      <trkpt lat="49.097795030102134" lon="5.759082958102226">
        <ele>211.63</ele>
        <time>2018-07-10T14:39:17Z</time>
      </trkpt>
      <trkpt lat="49.097539968788624" lon="5.761109031736851">
        <ele>219.80000000000001</ele>
        <time>2018-07-10T14:39:23Z</time>
      </trkpt>
      <trkpt lat="49.09694803878665" lon="5.765626961365342">
        <ele>218.36000000000001</ele>
        <time>2018-07-10T14:39:36Z</time>
      </trkpt>
      <trkpt lat="49.096728013828397" lon="5.769071001559496">
        <ele>218.84</ele>
        <time>2018-07-10T14:39:46Z</time>
      </trkpt>
      <trkpt lat="49.09656397998333" lon="5.773639976978302">
        <ele>216.43000000000001</ele>
        <time>2018-07-10T14:40:00Z</time>
      </trkpt>
      <trkpt lat="49.09652098082006" lon="5.778517993167043">
        <ele>209.69999999999999</ele>
        <time>2018-07-10T14:40:14Z</time>
      </trkpt>
      <trkpt lat="49.096473958343267" lon="5.783325014635921">
        <ele>204.41999999999999</ele>
        <time>2018-07-10T14:40:28Z</time>
      </trkpt>
      <trkpt lat="49.096442023292184" lon="5.785310016945005">
        <ele>203.94</ele>
        <time>2018-07-10T14:40:35Z</time>
      </trkpt>
      <trkpt lat="49.095933996140957" lon="5.787531975656748">
        <ele>206.34</ele>
        <time>2018-07-10T14:40:43Z</time>
      </trkpt>
      <trkpt lat="49.095407025888562" lon="5.78957699239254">
        <ele>205.86000000000001</ele>
        <time>2018-07-10T14:40:54Z</time>
      </trkpt>
      <trkpt lat="49.094978962093592" lon="5.79116896726191">
        <ele>203.94</ele>
        <time>2018-07-10T14:41:02Z</time>
      </trkpt>
      <trkpt lat="49.094274966046214" lon="5.793367037549615">
        <ele>204.90000000000001</ele>
        <time>2018-07-10T14:41:10Z</time>
      </trkpt>
      <trkpt lat="49.093542974442244" lon="5.79606500454247">
        <ele>208.25999999999999</ele>
        <time>2018-07-10T14:41:19Z</time>
      </trkpt>
      <trkpt lat="49.092467995360494" lon="5.801634024828672">
        <ele>219.31999999999999</ele>
        <time>2018-07-10T14:41:36Z</time>
      </trkpt>
      <trkpt lat="49.091397961601615" lon="5.80728099681437">
        <ele>218.36000000000001</ele>
        <time>2018-07-10T14:41:53Z</time>
      </trkpt>
      <trkpt lat="49.091355968266726" lon="5.807962026447058">
        <ele>218.36000000000001</ele>
        <time>2018-07-10T14:41:54Z</time>
      </trkpt>
      <trkpt lat="49.091355968266726" lon="5.807962026447058">
        <ele>218.36000000000001</ele>
        <time>2018-07-10T14:41:55Z</time>
      </trkpt>
      <trkpt lat="49.091355968266726" lon="5.808303002268076">
        <ele>218.36000000000001</ele>
        <time>2018-07-10T14:41:56Z</time>
      </trkpt>
      <trkpt lat="49.091742038726807" lon="5.813432978466153">
        <ele>215.94999999999999</ele>
        <time>2018-07-10T14:42:11Z</time>
      </trkpt>
      <trkpt lat="49.091834994032979" lon="5.814453978091478">
        <ele>214.50999999999999</ele>
        <time>2018-07-10T14:42:14Z</time>
      </trkpt>
      <trkpt lat="49.092581989243627" lon="5.81769903190434">
        <ele>212.11000000000001</ele>
        <time>2018-07-10T14:42:24Z</time>
      </trkpt>
      <trkpt lat="49.093443984165788" lon="5.821920996531844">
        <ele>214.03</ele>
        <time>2018-07-10T14:42:37Z</time>
      </trkpt>
      <trkpt lat="49.093600977212191" lon="5.824087969958782">
        <ele>212.59</ele>
        <time>2018-07-10T14:42:43Z</time>
      </trkpt>
      <trkpt lat="49.09362000413239" lon="5.824334984645248">
        <ele>212.59</ele>
        <time>2018-07-10T14:42:44Z</time>
      </trkpt>
      <trkpt lat="49.093698039650917" lon="5.82584397867322">
        <ele>213.55000000000001</ele>
        <time>2018-07-10T14:42:52Z</time>
      </trkpt>
      <trkpt lat="49.09372896887362" lon="5.826428029686213">
        <ele>212.59</ele>
        <time>2018-07-10T14:42:55Z</time>
      </trkpt>
      <trkpt lat="49.093738021329045" lon="5.82659499719739">
        <ele>212.11000000000001</ele>
        <time>2018-07-10T14:42:56Z</time>
      </trkpt>
      <trkpt lat="49.093787977471948" lon="5.826779985800386">
        <ele>211.63</ele>
        <time>2018-07-10T14:42:57Z</time>
      </trkpt>
      <trkpt lat="49.093824019655585" lon="5.82691702991724">
        <ele>210.66999999999999</ele>
        <time>2018-07-10T14:42:58Z</time>
      </trkpt>
      <trkpt lat="49.093949999660254" lon="5.827209977433085">
        <ele>209.69999999999999</ele>
        <time>2018-07-10T14:42:59Z</time>
      </trkpt>
      <trkpt lat="49.093949999660254" lon="5.827209977433085">
        <ele>208.25999999999999</ele>
        <time>2018-07-10T14:43:00Z</time>
      </trkpt>
      <trkpt lat="49.094095006585121" lon="5.827435031533241">
        <ele>207.30000000000001</ele>
        <time>2018-07-10T14:43:01Z</time>
      </trkpt>
      <trkpt lat="49.094747034832835" lon="5.828429963439703">
        <ele>204.90000000000001</ele>
        <time>2018-07-10T14:43:11Z</time>
      </trkpt>
      <trkpt lat="49.094810988754034" lon="5.828525014221668">
        <ele>205.38</ele>
        <time>2018-07-10T14:43:12Z</time>
      </trkpt>
      <trkpt lat="49.094849964603782" lon="5.828656023368239">
        <ele>205.38</ele>
        <time>2018-07-10T14:43:13Z</time>
      </trkpt>
      <trkpt lat="49.094875026494265" lon="5.828790972009301">
        <ele>205.38</ele>
        <time>2018-07-10T14:43:14Z</time>
      </trkpt>
      <trkpt lat="49.094864968210459" lon="5.829075034707785">
        <ele>205.38</ele>
        <time>2018-07-10T14:43:15Z</time>
      </trkpt>
      <trkpt lat="49.094843007624149" lon="5.829229010269046">
        <ele>205.86000000000001</ele>
        <time>2018-07-10T14:43:16Z</time>
      </trkpt>
      <trkpt lat="49.094661036506295" lon="5.830543041229248">
        <ele>208.25999999999999</ele>
        <time>2018-07-10T14:43:25Z</time>
      </trkpt>
      <trkpt lat="49.094661036506295" lon="5.830692993476987">
        <ele>208.74000000000001</ele>
        <time>2018-07-10T14:43:26Z</time>
      </trkpt>
      <trkpt lat="49.094561962410808" lon="5.83138701505959">
        <ele>211.15000000000001</ele>
        <time>2018-07-10T14:43:30Z</time>
      </trkpt>
      <trkpt lat="49.094532039016485" lon="5.831594970077276">
        <ele>212.11000000000001</ele>
        <time>2018-07-10T14:43:31Z</time>
      </trkpt>
      <trkpt lat="49.094286030158401" lon="5.833871997892857">
        <ele>216.43000000000001</ele>
        <time>2018-07-10T14:43:41Z</time>
      </trkpt>
      <trkpt lat="49.093954022973776" lon="5.836861990392208">
        <ele>218.84</ele>
        <time>2018-07-10T14:43:53Z</time>
      </trkpt>
      <trkpt lat="49.093666020780802" lon="5.839407993480563">
        <ele>222.19999999999999</ele>
        <time>2018-07-10T14:44:00Z</time>
      </trkpt>
      <trkpt lat="49.093252038583159" lon="5.843100976198912">
        <ele>224.61000000000001</ele>
        <time>2018-07-10T14:44:11Z</time>
      </trkpt>
      <trkpt lat="49.093252960592508" lon="5.843416973948479">
        <ele>224.12</ele>
        <time>2018-07-10T14:44:12Z</time>
      </trkpt>
      <trkpt lat="49.093263018876314" lon="5.84372098557651">
        <ele>223.16</ele>
        <time>2018-07-10T14:44:13Z</time>
      </trkpt>
      <trkpt lat="49.093303000554442" lon="5.844013011083007">
        <ele>222.19999999999999</ele>
        <time>2018-07-10T14:44:14Z</time>
      </trkpt>
      <trkpt lat="49.093356980010867" lon="5.844320962205529">
        <ele>221.72</ele>
        <time>2018-07-10T14:44:15Z</time>
      </trkpt>
      <trkpt lat="49.093411965295672" lon="5.844639977440238">
        <ele>220.75999999999999</ele>
        <time>2018-07-10T14:44:16Z</time>
      </trkpt>
      <trkpt lat="49.093934996053576" lon="5.847195032984018">
        <ele>223.16</ele>
        <time>2018-07-10T14:44:24Z</time>
      </trkpt>
      <trkpt lat="49.094265997409821" lon="5.850952975451946">
        <ele>229.41</ele>
        <time>2018-07-10T14:44:36Z</time>
      </trkpt>
      <trkpt lat="49.094609990715981" lon="5.855043008923531">
        <ele>233.25999999999999</ele>
        <time>2018-07-10T14:44:48Z</time>
      </trkpt>
      <trkpt lat="49.095183983445168" lon="5.858773961663246">
        <ele>217.88</ele>
        <time>2018-07-10T14:44:59Z</time>
      </trkpt>
      <trkpt lat="49.095794018357992" lon="5.862691998481751">
        <ele>214.99000000000001</ele>
        <time>2018-07-10T14:45:10Z</time>
      </trkpt>
      <trkpt lat="49.096507988870144" lon="5.866595031693578">
        <ele>233.74000000000001</ele>
        <time>2018-07-10T14:45:23Z</time>
      </trkpt>
      <trkpt lat="49.09804699011147" lon="5.87272304110229">
        <ele>246.22999999999999</ele>
        <time>2018-07-10T14:45:42Z</time>
      </trkpt>
      <trkpt lat="49.099130015820265" lon="5.87704299017787">
        <ele>247.19999999999999</ele>
        <time>2018-07-10T14:45:56Z</time>
      </trkpt>
      <trkpt lat="49.099346017464995" lon="5.877714967355132">
        <ele>246.22999999999999</ele>
        <time>2018-07-10T14:45:59Z</time>
      </trkpt>
      <trkpt lat="49.099553972482681" lon="5.878056026995182">
        <ele>245.75</ele>
        <time>2018-07-10T14:46:00Z</time>
      </trkpt>
      <trkpt lat="49.099553972482681" lon="5.878056026995182">
        <ele>245.75</ele>
        <time>2018-07-10T14:46:01Z</time>
      </trkpt>
      <trkpt lat="49.099785983562469" lon="5.878317961469293">
        <ele>245.27000000000001</ele>
        <time>2018-07-10T14:46:03Z</time>
      </trkpt>
      <trkpt lat="49.099895032122731" lon="5.878446036949754">
        <ele>245.75</ele>
        <time>2018-07-10T14:46:04Z</time>
      </trkpt>
      <trkpt lat="49.100003996863961" lon="5.878587020561099">
        <ele>245.75</ele>
        <time>2018-07-10T14:46:05Z</time>
      </trkpt>
      <trkpt lat="49.100075997412205" lon="5.878731021657586">
        <ele>246.22999999999999</ele>
        <time>2018-07-10T14:46:06Z</time>
      </trkpt>
      <trkpt lat="49.10013098269701" lon="5.878930008038878">
        <ele>246.72</ele>
        <time>2018-07-10T14:46:07Z</time>
      </trkpt>
      <trkpt lat="49.100161995738745" lon="5.879122959449887">
        <ele>246.72</ele>
        <time>2018-07-10T14:46:08Z</time>
      </trkpt>
      <trkpt lat="49.100163001567125" lon="5.879335021600127">
        <ele>247.19999999999999</ele>
        <time>2018-07-10T14:46:09Z</time>
      </trkpt>
      <trkpt lat="49.100142968818545" lon="5.879533002153039">
        <ele>247.19999999999999</ele>
        <time>2018-07-10T14:46:10Z</time>
      </trkpt>
      <trkpt lat="49.100124025717378" lon="5.879723019897938">
        <ele>247.68000000000001</ele>
        <time>2018-07-10T14:46:11Z</time>
      </trkpt>
      <trkpt lat="49.100038027390838" lon="5.880059972405434">
        <ele>247.68000000000001</ele>
        <time>2018-07-10T14:46:12Z</time>
      </trkpt>
      <trkpt lat="49.099976001307368" lon="5.880227023735642">
        <ele>247.19999999999999</ele>
        <time>2018-07-10T14:46:13Z</time>
      </trkpt>
      <trkpt lat="49.099976001307368" lon="5.880227023735642">
        <ele>246.72</ele>
        <time>2018-07-10T14:46:14Z</time>
      </trkpt>
      <trkpt lat="49.099886985495687" lon="5.880368007346988">
        <ele>246.22999999999999</ele>
        <time>2018-07-10T14:46:15Z</time>
      </trkpt>
      <trkpt lat="49.099790006875992" lon="5.880498010665178">
        <ele>245.27000000000001</ele>
        <time>2018-07-10T14:46:16Z</time>
      </trkpt>
      <trkpt lat="49.099060026928782" lon="5.881248023360968">
        <ele>238.53999999999999</ele>
        <time>2018-07-10T14:46:24Z</time>
      </trkpt>
      <trkpt lat="49.09894703887403" lon="5.881323041394353">
        <ele>238.06</ele>
        <time>2018-07-10T14:46:25Z</time>
      </trkpt>
      <trkpt lat="49.09894703887403" lon="5.881323041394353">
        <ele>237.58000000000001</ele>
        <time>2018-07-10T14:46:26Z</time>
      </trkpt>
      <trkpt lat="49.098844025284052" lon="5.881382972002029">
        <ele>237.58000000000001</ele>
        <time>2018-07-10T14:46:27Z</time>
      </trkpt>
      <trkpt lat="49.098642021417618" lon="5.881497971713543">
        <ele>237.58000000000001</ele>
        <time>2018-07-10T14:46:28Z</time>
      </trkpt>
      <trkpt lat="49.097709031775594" lon="5.881966017186642">
        <ele>236.62</ele>
        <time>2018-07-10T14:46:38Z</time>
      </trkpt>
      <trkpt lat="49.097642982378602" lon="5.881999041885138">
        <ele>237.09999999999999</ele>
        <time>2018-07-10T14:46:39Z</time>
      </trkpt>
      <trkpt lat="49.097633007913828" lon="5.882052015513182">
        <ele>237.09999999999999</ele>
        <time>2018-07-10T14:46:40Z</time>
      </trkpt>
      <trkpt lat="49.097614986822009" lon="5.882139019668102">
        <ele>237.58000000000001</ele>
        <time>2018-07-10T14:46:41Z</time>
      </trkpt>
      <trkpt lat="49.097606018185616" lon="5.8822410274297">
        <ele>237.58000000000001</ele>
        <time>2018-07-10T14:46:42Z</time>
      </trkpt>
      <trkpt lat="49.097625967115164" lon="5.882352003827691">
        <ele>237.58000000000001</ele>
        <time>2018-07-10T14:46:43Z</time>
      </trkpt>
      <trkpt lat="49.097648011520505" lon="5.882473038509488">
        <ele>237.58000000000001</ele>
        <time>2018-07-10T14:46:44Z</time>
      </trkpt>
      <trkpt lat="49.097670977935195" lon="5.882597006857395">
        <ele>237.58000000000001</ele>
        <time>2018-07-10T14:46:45Z</time>
      </trkpt>
      <trkpt lat="49.097963003441691" lon="5.884254025295377">
        <ele>236.62</ele>
        <time>2018-07-10T14:46:58Z</time>
      </trkpt>
      <trkpt lat="49.098329963162541" lon="5.886185970157385">
        <ele>236.62</ele>
        <time>2018-07-10T14:47:11Z</time>
      </trkpt>
      <trkpt lat="49.098688960075378" lon="5.887644002214074">
        <ele>235.18000000000001</ele>
        <time>2018-07-10T14:47:21Z</time>
      </trkpt>
      <trkpt lat="49.099096991121769" lon="5.889419037848711">
        <ele>235.66</ele>
        <time>2018-07-10T14:47:32Z</time>
      </trkpt>
      <trkpt lat="49.099268987774849" lon="5.890394020825625">
        <ele>236.13999999999999</ele>
        <time>2018-07-10T14:47:38Z</time>
      </trkpt>
      <trkpt lat="49.099284997209907" lon="5.89055503718555">
        <ele>235.66</ele>
        <time>2018-07-10T14:47:39Z</time>
      </trkpt>
      <trkpt lat="49.09929002635181" lon="5.890714963898063">
        <ele>235.66</ele>
        <time>2018-07-10T14:47:40Z</time>
      </trkpt>
      <trkpt lat="49.09926999360323" lon="5.890887966379523">
        <ele>235.66</ele>
        <time>2018-07-10T14:47:41Z</time>
      </trkpt>
      <trkpt lat="49.099249038845301" lon="5.891063986346126">
        <ele>235.66</ele>
        <time>2018-07-10T14:47:42Z</time>
      </trkpt>
      <trkpt lat="49.098921976983547" lon="5.893288040533662">
        <ele>236.62</ele>
        <time>2018-07-10T14:47:53Z</time>
      </trkpt>
      <trkpt lat="49.098586030304432" lon="5.895816022530198">
        <ele>236.13999999999999</ele>
        <time>2018-07-10T14:48:02Z</time>
      </trkpt>
      <trkpt lat="49.098182022571564" lon="5.898855971172452">
        <ele>236.62</ele>
        <time>2018-07-10T14:48:11Z</time>
      </trkpt>
      <trkpt lat="49.097729986533523" lon="5.902118962258101">
        <ele>239.99000000000001</ele>
        <time>2018-07-10T14:48:20Z</time>
      </trkpt>
      <trkpt lat="49.097040994092822" lon="5.907109966501594">
        <ele>241.91</ele>
        <time>2018-07-10T14:48:33Z</time>
      </trkpt>
      <trkpt lat="49.096430959179997" lon="5.911380965262651">
        <ele>248.16</ele>
        <time>2018-07-10T14:48:44Z</time>
      </trkpt>
      <trkpt lat="49.095694022253156" lon="5.916056977584958">
        <ele>255.84999999999999</ele>
        <time>2018-07-10T14:48:56Z</time>
      </trkpt>
      <trkpt lat="49.094774024561048" lon="5.921329027041793">
        <ele>259.69</ele>
        <time>2018-07-10T14:49:12Z</time>
      </trkpt>
      <trkpt lat="49.094080002978444" lon="5.926337968558073">
        <ele>268.82999999999998</ele>
        <time>2018-07-10T14:49:27Z</time>
      </trkpt>
      <trkpt lat="49.093811027705669" lon="5.929800029844046">
        <ele>272.67000000000002</ele>
        <time>2018-07-10T14:49:36Z</time>
      </trkpt>
      <trkpt lat="49.093208033591509" lon="5.937570976093411">
        <ele>288.05000000000001</ele>
        <time>2018-07-10T14:49:55Z</time>
      </trkpt>
      <trkpt lat="49.093017010018229" lon="5.940306996926665">
        <ele>292.38</ele>
        <time>2018-07-10T14:50:03Z</time>
      </trkpt>
      <trkpt lat="49.092965964227915" lon="5.941092967987061">
        <ele>291.89999999999998</ele>
        <time>2018-07-10T14:50:06Z</time>
      </trkpt>
      <trkpt lat="49.09310401417315" lon="5.943708037957549">
        <ele>284.20999999999998</ele>
        <time>2018-07-10T14:50:15Z</time>
      </trkpt>
      <trkpt lat="49.093170985579491" lon="5.945017961785197">
        <ele>283.73000000000002</ele>
        <time>2018-07-10T14:50:21Z</time>
      </trkpt>
      <trkpt lat="49.093178026378155" lon="5.945187024772167">
        <ele>283.73000000000002</ele>
        <time>2018-07-10T14:50:22Z</time>
      </trkpt>
      <trkpt lat="49.093238962814212" lon="5.946556041017175">
        <ele>283.73000000000002</ele>
        <time>2018-07-10T14:50:31Z</time>
      </trkpt>
      <trkpt lat="49.093350023031235" lon="5.948425959795713">
        <ele>280.36000000000001</ele>
        <time>2018-07-10T14:50:44Z</time>
      </trkpt>
      <trkpt lat="49.093492012470961" lon="5.949831018224359">
        <ele>279.88</ele>
        <time>2018-07-10T14:50:54Z</time>
      </trkpt>
      <trkpt lat="49.093503998592496" lon="5.949951969087124">
        <ele>279.88</ele>
        <time>2018-07-10T14:50:55Z</time>
      </trkpt>
      <trkpt lat="49.093516990542412" lon="5.950073003768921">
        <ele>279.39999999999998</ele>
        <time>2018-07-10T14:50:56Z</time>
      </trkpt>
      <trkpt lat="49.093551021069288" lon="5.950402999296784">
        <ele>279.88</ele>
        <time>2018-07-10T14:50:59Z</time>
      </trkpt>
      <trkpt lat="49.093558983877301" lon="5.950483968481422">
        <ele>279.88</ele>
        <time>2018-07-10T14:51:00Z</time>
      </trkpt>
      <trkpt lat="49.093566024675965" lon="5.950547000393271">
        <ele>279.39999999999998</ele>
        <time>2018-07-10T14:51:01Z</time>
      </trkpt>
      <trkpt lat="49.093569964170456" lon="5.950593017041683">
        <ele>279.39999999999998</ele>
        <time>2018-07-10T14:51:02Z</time>
      </trkpt>
      <trkpt lat="49.093569964170456" lon="5.950593017041683">
        <ele>279.39999999999998</ele>
        <time>2018-07-10T14:51:11Z</time>
      </trkpt>
      <trkpt lat="49.093586979433894" lon="5.950750010088086">
        <ele>279.88</ele>
        <time>2018-07-10T14:51:22Z</time>
      </trkpt>
      <trkpt lat="49.093586979433894" lon="5.950750010088086">
        <ele>279.88</ele>
        <time>2018-07-10T14:51:54Z</time>
      </trkpt>
      <trkpt lat="49.093586979433894" lon="5.950750010088086">
        <ele>279.88</ele>
        <time>2018-07-10T14:52:39Z</time>
      </trkpt>
      <trkpt lat="49.093586979433894" lon="5.950750010088086">
        <ele>281.31999999999999</ele>
        <time>2018-07-10T14:53:23Z</time>
      </trkpt>
      <trkpt lat="49.093586979433894" lon="5.950750010088086">
        <ele>281.80000000000001</ele>
        <time>2018-07-10T14:54:06Z</time>
      </trkpt>
      <trkpt lat="49.0935970377177" lon="5.950851012021303">
        <ele>282.27999999999997</ele>
        <time>2018-07-10T14:54:49Z</time>
      </trkpt>
      <trkpt lat="49.093640958890319" lon="5.9512759745121">
        <ele>282.27999999999997</ele>
        <time>2018-07-10T14:54:53Z</time>
      </trkpt>
      <trkpt lat="49.093656968325377" lon="5.951432967558503">
        <ele>282.27999999999997</ele>
        <time>2018-07-10T14:54:54Z</time>
      </trkpt>
      <trkpt lat="49.093714971095324" lon="5.952001009136438">
        <ele>282.76999999999998</ele>
        <time>2018-07-10T14:54:57Z</time>
      </trkpt>
      <trkpt lat="49.093738021329045" lon="5.952223967760801">
        <ele>282.76999999999998</ele>
        <time>2018-07-10T14:54:58Z</time>
      </trkpt>
      <trkpt lat="49.093968020752072" lon="5.954330004751682">
        <ele>285.64999999999998</ele>
        <time>2018-07-10T14:55:06Z</time>
      </trkpt>
      <trkpt lat="49.094294998794794" lon="5.957301976159215">
        <ele>291.89999999999998</ele>
        <time>2018-07-10T14:55:15Z</time>
      </trkpt>
      <trkpt lat="49.094690959900618" lon="5.961817977949977">
        <ele>296.69999999999999</ele>
        <time>2018-07-10T14:55:27Z</time>
      </trkpt>
      <trkpt lat="49.095246009528637" lon="5.968510005623102">
        <ele>291.89999999999998</ele>
        <time>2018-07-10T14:55:43Z</time>
      </trkpt>
      <trkpt lat="49.095542980358005" lon="5.971924960613251">
        <ele>296.69999999999999</ele>
        <time>2018-07-10T14:55:52Z</time>
      </trkpt>
      <trkpt lat="49.096171036362648" lon="5.97718401812017">
        <ele>299.11000000000001</ele>
        <time>2018-07-10T14:56:06Z</time>
      </trkpt>
      <trkpt lat="49.096857011318207" lon="5.982923023402691">
        <ele>302.94999999999999</ele>
        <time>2018-07-10T14:56:21Z</time>
      </trkpt>
      <trkpt lat="49.097039988264441" lon="5.984838958829641">
        <ele>303.43000000000001</ele>
        <time>2018-07-10T14:56:28Z</time>
      </trkpt>
      <trkpt lat="49.097178038209677" lon="5.986303025856614">
        <ele>300.55000000000001</ele>
        <time>2018-07-10T14:56:37Z</time>
      </trkpt>
      <trkpt lat="49.097264036536217" lon="5.987248001620174">
        <ele>299.58999999999997</ele>
        <time>2018-07-10T14:56:45Z</time>
      </trkpt>
      <trkpt lat="49.097356991842389" lon="5.988624980673194">
        <ele>298.14999999999998</ele>
        <time>2018-07-10T14:56:57Z</time>
      </trkpt>
      <trkpt lat="49.097440978512168" lon="5.989098977297545">
        <ele>298.14999999999998</ele>
        <time>2018-07-10T14:57:01Z</time>
      </trkpt>
      <trkpt lat="49.09748699516058" lon="5.989205008372665">
        <ele>298.14999999999998</ele>
        <time>2018-07-10T14:57:02Z</time>
      </trkpt>
      <trkpt lat="49.097896032035351" lon="5.990049988031387">
        <ele>299.58999999999997</ele>
        <time>2018-07-10T14:57:10Z</time>
      </trkpt>
      <trkpt lat="49.098159978166223" lon="5.990629009902477">
        <ele>300.06999999999999</ele>
        <time>2018-07-10T14:57:15Z</time>
      </trkpt>
      <trkpt lat="49.098211023956537" lon="5.99076203070581">
        <ele>300.55000000000001</ele>
        <time>2018-07-10T14:57:16Z</time>
      </trkpt>
      <trkpt lat="49.098449992015958" lon="5.991780012845993">
        <ele>301.50999999999999</ele>
        <time>2018-07-10T14:57:23Z</time>
      </trkpt>
      <trkpt lat="49.098646966740489" lon="5.992651982232928">
        <ele>305.36000000000001</ele>
        <time>2018-07-10T14:57:29Z</time>
      </trkpt>
      <trkpt lat="49.098678985610604" lon="5.992796989157796">
        <ele>305.36000000000001</ele>
        <time>2018-07-10T14:57:30Z</time>
      </trkpt>
      <trkpt lat="49.09903597086668" lon="5.994201963767409">
        <ele>310.63999999999999</ele>
        <time>2018-07-10T14:57:40Z</time>
      </trkpt>
      <trkpt lat="49.09948599524796" lon="5.995250036939979">
        <ele>310.63999999999999</ele>
        <time>2018-07-10T14:57:50Z</time>
      </trkpt>
      <trkpt lat="49.099868964403868" lon="5.996140027418733">
        <ele>311.60000000000002</ele>
        <time>2018-07-10T14:57:56Z</time>
      </trkpt>
      <trkpt lat="49.100543959066272" lon="5.997657990083098">
        <ele>311.12</ele>
        <time>2018-07-10T14:58:02Z</time>
      </trkpt>
      <trkpt lat="49.102018000558019" lon="6.00094897672534">
        <ele>308.24000000000001</ele>
        <time>2018-07-10T14:58:12Z</time>
      </trkpt>
      <trkpt lat="49.103511990979314" lon="6.004282040521503">
        <ele>292.86000000000001</ele>
        <time>2018-07-10T14:58:21Z</time>
      </trkpt>
      <trkpt lat="49.105402026325464" lon="6.008558990433812">
        <ele>275.06999999999999</ele>
        <time>2018-07-10T14:58:33Z</time>
      </trkpt>
      <trkpt lat="49.106440041214228" lon="6.011051014065743">
        <ele>282.27999999999997</ele>
        <time>2018-07-10T14:58:41Z</time>
      </trkpt>
      <trkpt lat="49.107494987547398" lon="6.013623001053929">
        <ele>295.74000000000001</ele>
        <time>2018-07-10T14:58:49Z</time>
      </trkpt>
      <trkpt lat="49.108587987720966" lon="6.016207979992032">
        <ele>299.11000000000001</ele>
        <time>2018-07-10T14:58:59Z</time>
      </trkpt>
      <trkpt lat="49.108856040984392" lon="6.016840981319547">
        <ele>300.55000000000001</ele>
        <time>2018-07-10T14:59:05Z</time>
      </trkpt>
      <trkpt lat="49.109290977939963" lon="6.017885031178594">
        <ele>299.58999999999997</ele>
        <time>2018-07-10T14:59:13Z</time>
      </trkpt>
      <trkpt lat="49.10984200425446" lon="6.019499972462654">
        <ele>296.69999999999999</ele>
        <time>2018-07-10T14:59:23Z</time>
      </trkpt>
      <trkpt lat="49.110386995598674" lon="6.02140199393034">
        <ele>293.33999999999997</ele>
        <time>2018-07-10T14:59:34Z</time>
      </trkpt>
      <trkpt lat="49.110883036628366" lon="6.023106034845114">
        <ele>292.38</ele>
        <time>2018-07-10T14:59:45Z</time>
      </trkpt>
      <trkpt lat="49.111362984403968" lon="6.02453799918294">
        <ele>292.38</ele>
        <time>2018-07-10T14:59:53Z</time>
      </trkpt>
      <trkpt lat="49.112100005149841" lon="6.026336001232266">
        <ele>296.22000000000003</ele>
        <time>2018-07-10T15:00:03Z</time>
      </trkpt>
      <trkpt lat="49.112474005669355" lon="6.027231020852923">
        <ele>297.67000000000002</ele>
        <time>2018-07-10T15:00:11Z</time>
      </trkpt>
      <trkpt lat="49.112648013979197" lon="6.027685990557075">
        <ele>297.67000000000002</ele>
        <time>2018-07-10T15:00:19Z</time>
      </trkpt>
      <trkpt lat="49.11269897595048" lon="6.027787998318672">
        <ele>298.63</ele>
        <time>2018-07-10T15:00:29Z</time>
      </trkpt>
      <trkpt lat="49.112810036167502" lon="6.028010034933686">
        <ele>299.11000000000001</ele>
        <time>2018-07-10T15:00:38Z</time>
      </trkpt>
      <trkpt lat="49.112813975661993" lon="6.028016991913319">
        <ele>299.11000000000001</ele>
        <time>2018-07-10T15:00:41Z</time>
      </trkpt>
      <trkpt lat="49.112827973440289" lon="6.028046999126673">
        <ele>299.58999999999997</ele>
        <time>2018-07-10T15:00:42Z</time>
      </trkpt>
      <trkpt lat="49.112985972315073" lon="6.02846902795136">
        <ele>301.02999999999997</ele>
        <time>2018-07-10T15:00:49Z</time>
      </trkpt>
      <trkpt lat="49.11325603723526" lon="6.029084008187056">
        <ele>301.99000000000001</ele>
        <time>2018-07-10T15:00:55Z</time>
      </trkpt>
      <trkpt lat="49.113659039139748" lon="6.029993025586009">
        <ele>303.91000000000003</ele>
        <time>2018-07-10T15:01:04Z</time>
      </trkpt>
      <trkpt lat="49.114094981923699" lon="6.030990974977613">
        <ele>304.88</ele>
        <time>2018-07-10T15:01:13Z</time>
      </trkpt>
      <trkpt lat="49.114293968304992" lon="6.031415015459061">
        <ele>305.36000000000001</ele>
        <time>2018-07-10T15:01:16Z</time>
      </trkpt>
      <trkpt lat="49.114364041015506" lon="6.0315649677068">
        <ele>305.36000000000001</ele>
        <time>2018-07-10T15:01:17Z</time>
      </trkpt>
      <trkpt lat="49.11443998105824" lon="6.031729001551867">
        <ele>305.83999999999997</ele>
        <time>2018-07-10T15:01:18Z</time>
      </trkpt>
      <trkpt lat="49.114522039890289" lon="6.03190996684134">
        <ele>306.31999999999999</ele>
        <time>2018-07-10T15:01:19Z</time>
      </trkpt>
      <trkpt lat="49.114608960226178" lon="6.032103002071381">
        <ele>305.83999999999997</ele>
        <time>2018-07-10T15:01:20Z</time>
      </trkpt>
      <trkpt lat="49.115430973470211" lon="6.033800002187491">
        <ele>301.50999999999999</ele>
        <time>2018-07-10T15:01:27Z</time>
      </trkpt>
      <trkpt lat="49.115430973470211" lon="6.03379899635911">
        <ele>300.55000000000001</ele>
        <time>2018-07-10T15:01:28Z</time>
      </trkpt>
      <trkpt lat="49.116448033601046" lon="6.035907967016101">
        <ele>293.33999999999997</ele>
        <time>2018-07-10T15:01:35Z</time>
      </trkpt>
      <trkpt lat="49.117688974365592" lon="6.038467967882752">
        <ele>281.31999999999999</ele>
        <time>2018-07-10T15:01:45Z</time>
      </trkpt>
      <trkpt lat="49.118380984291434" lon="6.040529999881983">
        <ele>274.58999999999997</ele>
        <time>2018-07-10T15:01:51Z</time>
      </trkpt>
      <trkpt lat="49.118870990350842" lon="6.043559974059463">
        <ele>284.69</ele>
        <time>2018-07-10T15:01:59Z</time>
      </trkpt>
      <trkpt lat="49.118840983137488" lon="6.046280991286039">
        <ele>299.11000000000001</ele>
        <time>2018-07-10T15:02:06Z</time>
      </trkpt>
      <trkpt lat="49.118382995948195" lon="6.04926603846252">
        <ele>315.44999999999999</ele>
        <time>2018-07-10T15:02:14Z</time>
      </trkpt>
      <trkpt lat="49.117727028205991" lon="6.05135296471417">
        <ele>324.57999999999998</ele>
        <time>2018-07-10T15:02:20Z</time>
      </trkpt>
      <trkpt lat="49.11736199632287" lon="6.051868032664061">
        <ele>327.47000000000003</ele>
        <time>2018-07-10T15:02:22Z</time>
      </trkpt>
      <trkpt lat="49.117180025205016" lon="6.052126027643681">
        <ele>328.43000000000001</ele>
        <time>2018-07-10T15:02:23Z</time>
      </trkpt>
      <trkpt lat="49.116075960919261" lon="6.053047031164169">
        <ele>336.12</ele>
        <time>2018-07-10T15:02:29Z</time>
      </trkpt>
      <trkpt lat="49.113861965015531" lon="6.053997036069632">
        <ele>341.41000000000003</ele>
        <time>2018-07-10T15:02:38Z</time>
      </trkpt>
      <trkpt lat="49.111781995743513" lon="6.055232025682926">
        <ele>343.81</ele>
        <time>2018-07-10T15:02:48Z</time>
      </trkpt>
      <trkpt lat="49.110629986971617" lon="6.056711012497544">
        <ele>343.81</ele>
        <time>2018-07-10T15:02:55Z</time>
      </trkpt>
      <trkpt lat="49.109290977939963" lon="6.058964990079403">
        <ele>342.37</ele>
        <time>2018-07-10T15:03:06Z</time>
      </trkpt>
      <trkpt lat="49.108160007745028" lon="6.06100196018815">
        <ele>335.63999999999999</ele>
        <time>2018-07-10T15:03:14Z</time>
      </trkpt>
      <trkpt lat="49.108039978891611" lon="6.061308989301324">
        <ele>334.68000000000001</ele>
        <time>2018-07-10T15:03:15Z</time>
      </trkpt>
      <trkpt lat="49.107956998050213" lon="6.061631022021174">
        <ele>333.23000000000002</ele>
        <time>2018-07-10T15:03:16Z</time>
      </trkpt>
      <trkpt lat="49.107895977795124" lon="6.061960011720657">
        <ele>332.26999999999998</ele>
        <time>2018-07-10T15:03:17Z</time>
      </trkpt>
      <trkpt lat="49.107835963368416" lon="6.062293024733663">
        <ele>331.79000000000002</ele>
        <time>2018-07-10T15:03:18Z</time>
      </trkpt>
      <trkpt lat="49.107817020267248" lon="6.062637018039823">
        <ele>331.31</ele>
        <time>2018-07-10T15:03:19Z</time>
      </trkpt>
      <trkpt lat="49.107798999175429" lon="6.062985034659505">
        <ele>331.31</ele>
        <time>2018-07-10T15:03:20Z</time>
      </trkpt>
      <trkpt lat="49.107645023614168" lon="6.065476974472404">
        <ele>329.38999999999999</ele>
        <time>2018-07-10T15:03:28Z</time>
      </trkpt>
      <trkpt lat="49.107301030308008" lon="6.067576976493001">
        <ele>323.13999999999999</ele>
        <time>2018-07-10T15:03:35Z</time>
      </trkpt>
      <trkpt lat="49.107086034491658" lon="6.068087015300989">
        <ele>321.22000000000003</ele>
        <time>2018-07-10T15:03:37Z</time>
      </trkpt>
      <trkpt lat="49.106961982324719" lon="6.068307040259242">
        <ele>319.77999999999997</ele>
        <time>2018-07-10T15:03:38Z</time>
      </trkpt>
      <trkpt lat="49.106824016198516" lon="6.068512983620167">
        <ele>318.81</ele>
        <time>2018-07-10T15:03:39Z</time>
      </trkpt>
      <trkpt lat="49.106526039540768" lon="6.068899976089597">
        <ele>316.41000000000003</ele>
        <time>2018-07-10T15:03:41Z</time>
      </trkpt>
      <trkpt lat="49.106356976553798" lon="6.069074990227819">
        <ele>315.44999999999999</ele>
        <time>2018-07-10T15:03:42Z</time>
      </trkpt>
      <trkpt lat="49.106184979900718" lon="6.069252016022801">
        <ele>314.00999999999999</ele>
        <time>2018-07-10T15:03:43Z</time>
      </trkpt>
      <trkpt lat="49.106012983247638" lon="6.069429963827133">
        <ele>313.05000000000001</ele>
        <time>2018-07-10T15:03:44Z</time>
      </trkpt>
      <trkpt lat="49.105839980766177" lon="6.069559967145324">
        <ele>311.60000000000002</ele>
        <time>2018-07-10T15:03:45Z</time>
      </trkpt>
      <trkpt lat="49.104292010888457" lon="6.070782970637083">
        <ele>300.55000000000001</ele>
        <time>2018-07-10T15:03:54Z</time>
      </trkpt>
      <trkpt lat="49.102913020178676" lon="6.072342004626989">
        <ele>289.49000000000001</ele>
        <time>2018-07-10T15:04:03Z</time>
      </trkpt>
      <trkpt lat="49.102802965790033" lon="6.072589019313455">
        <ele>288.52999999999997</ele>
        <time>2018-07-10T15:04:04Z</time>
      </trkpt>
      <trkpt lat="49.102703975513577" lon="6.072848020121455">
        <ele>287.56999999999999</ele>
        <time>2018-07-10T15:04:05Z</time>
      </trkpt>
      <trkpt lat="49.102608002722263" lon="6.07309696264565">
        <ele>286.61000000000001</ele>
        <time>2018-07-10T15:04:06Z</time>
      </trkpt>
      <trkpt lat="49.102530973032117" lon="6.073363004252315">
        <ele>285.17000000000002</ele>
        <time>2018-07-10T15:04:07Z</time>
      </trkpt>
      <trkpt lat="49.10247397609055" lon="6.073643965646625">
        <ele>284.20999999999998</ele>
        <time>2018-07-10T15:04:08Z</time>
      </trkpt>
      <trkpt lat="49.102355036884546" lon="6.074828999117017">
        <ele>279.88</ele>
        <time>2018-07-10T15:04:12Z</time>
      </trkpt>
      <trkpt lat="49.102378003299236" lon="6.075411038473249">
        <ele>277.95999999999998</ele>
        <time>2018-07-10T15:04:14Z</time>
      </trkpt>
      <trkpt lat="49.102950990200043" lon="6.077539036050439">
        <ele>270.26999999999998</ele>
        <time>2018-07-10T15:04:22Z</time>
      </trkpt>
      <trkpt lat="49.103389028459787" lon="6.079408032819629">
        <ele>262.57999999999998</ele>
        <time>2018-07-10T15:04:29Z</time>
      </trkpt>
      <trkpt lat="49.103420963510871" lon="6.079697962850332">
        <ele>261.62</ele>
        <time>2018-07-10T15:04:30Z</time>
      </trkpt>
      <trkpt lat="49.103603018447757" lon="6.082098037004471">
        <ele>251.03999999999999</ele>
        <time>2018-07-10T15:04:38Z</time>
      </trkpt>
      <trkpt lat="49.10369798541069" lon="6.082937987521291">
        <ele>248.16</ele>
        <time>2018-07-10T15:04:41Z</time>
      </trkpt>
      <trkpt lat="49.103820025920868" lon="6.083463029935956">
        <ele>246.22999999999999</ele>
        <time>2018-07-10T15:04:43Z</time>
      </trkpt>
      <trkpt lat="49.103906024247408" lon="6.083698980510235">
        <ele>245.27000000000001</ele>
        <time>2018-07-10T15:04:44Z</time>
      </trkpt>
      <trkpt lat="49.104003002867103" lon="6.083931997418404">
        <ele>244.31</ele>
        <time>2018-07-10T15:04:45Z</time>
      </trkpt>
      <trkpt lat="49.104100987315178" lon="6.084169037640095">
        <ele>243.34999999999999</ele>
        <time>2018-07-10T15:04:46Z</time>
      </trkpt>
      <trkpt lat="49.104221016168594" lon="6.084381015971303">
        <ele>242.87</ele>
        <time>2018-07-10T15:04:47Z</time>
      </trkpt>
      <trkpt lat="49.104351019486785" lon="6.084606992080808">
        <ele>241.91</ele>
        <time>2018-07-10T15:04:48Z</time>
      </trkpt>
      <trkpt lat="49.104484040290117" lon="6.084827017039061">
        <ele>241.43000000000001</ele>
        <time>2018-07-10T15:04:49Z</time>
      </trkpt>
      <trkpt lat="49.10550001077354" lon="6.086286976933479">
        <ele>233.25999999999999</ele>
        <time>2018-07-10T15:04:57Z</time>
      </trkpt>
      <trkpt lat="49.106452027335763" lon="6.087838970124722">
        <ele>225.56999999999999</ele>
        <time>2018-07-10T15:05:06Z</time>
      </trkpt>
      <trkpt lat="49.106941027566791" lon="6.088876985013485">
        <ele>219.80000000000001</ele>
        <time>2018-07-10T15:05:15Z</time>
      </trkpt>
      <trkpt lat="49.107630020007491" lon="6.089830007404089">
        <ele>214.50999999999999</ele>
        <time>2018-07-10T15:05:23Z</time>
      </trkpt>
      <trkpt lat="49.108024975284934" lon="6.090177018195391">
        <ele>214.50999999999999</ele>
        <time>2018-07-10T15:05:27Z</time>
      </trkpt>
      <trkpt lat="49.109160974621773" lon="6.090804990381002">
        <ele>209.69999999999999</ele>
        <time>2018-07-10T15:05:38Z</time>
      </trkpt>
      <trkpt lat="49.109329031780362" lon="6.090900963172317">
        <ele>208.74000000000001</ele>
        <time>2018-07-10T15:05:41Z</time>
      </trkpt>
      <trkpt lat="49.109373958781362" lon="6.0909260250628">
        <ele>208.25999999999999</ele>
        <time>2018-07-10T15:05:42Z</time>
      </trkpt>
      <trkpt lat="49.109413018450141" lon="6.090947985649109">
        <ele>207.78</ele>
        <time>2018-07-10T15:05:43Z</time>
      </trkpt>
      <trkpt lat="49.109449982643127" lon="6.09096902422607">
        <ele>207.30000000000001</ele>
        <time>2018-07-10T15:05:44Z</time>
      </trkpt>
      <trkpt lat="49.109488036483526" lon="6.090989978983998">
        <ele>206.81999999999999</ele>
        <time>2018-07-10T15:05:45Z</time>
      </trkpt>
      <trkpt lat="49.109517959877849" lon="6.091006994247437">
        <ele>206.34</ele>
        <time>2018-07-10T15:05:46Z</time>
      </trkpt>
      <trkpt lat="49.109719963744283" lon="6.091112019494176">
        <ele>203.46000000000001</ele>
        <time>2018-07-10T15:05:54Z</time>
      </trkpt>
      <trkpt lat="49.109737984836102" lon="6.09112098813057">
        <ele>202.97999999999999</ele>
        <time>2018-07-10T15:06:06Z</time>
      </trkpt>
      <trkpt lat="49.109972007572651" lon="6.091230036690831">
        <ele>202.49000000000001</ele>
        <time>2018-07-10T15:06:18Z</time>
      </trkpt>
      <trkpt lat="49.110780023038387" lon="6.091781985014677">
        <ele>199.13</ele>
        <time>2018-07-10T15:06:27Z</time>
      </trkpt>
      <trkpt lat="49.110865015536547" lon="6.091877035796642">
        <ele>198.65000000000001</ele>
        <time>2018-07-10T15:06:28Z</time>
      </trkpt>
      <trkpt lat="49.110930981114507" lon="6.091993041336536">
        <ele>198.65000000000001</ele>
        <time>2018-07-10T15:06:29Z</time>
      </trkpt>
      <trkpt lat="49.110998036339879" lon="6.092126984149218">
        <ele>198.65000000000001</ele>
        <time>2018-07-10T15:06:30Z</time>
      </trkpt>
      <trkpt lat="49.11106500774622" lon="6.092262016609311">
        <ele>198.65000000000001</ele>
        <time>2018-07-10T15:06:31Z</time>
      </trkpt>
      <trkpt lat="49.11113197915256" lon="6.092395037412643">
        <ele>198.65000000000001</ele>
        <time>2018-07-10T15:06:32Z</time>
      </trkpt>
      <trkpt lat="49.111635982990265" lon="6.093963962048292">
        <ele>197.21000000000001</ele>
        <time>2018-07-10T15:06:43Z</time>
      </trkpt>
      <trkpt lat="49.111663978546858" lon="6.094125984236598">
        <ele>196.72999999999999</ele>
        <time>2018-07-10T15:06:44Z</time>
      </trkpt>
      <trkpt lat="49.111692979931831" lon="6.094291023910046">
        <ele>196.25</ele>
        <time>2018-07-10T15:06:45Z</time>
      </trkpt>
      <trkpt lat="49.111689040437341" lon="6.094457991421223">
        <ele>195.77000000000001</ele>
        <time>2018-07-10T15:06:46Z</time>
      </trkpt>
      <trkpt lat="49.111676970496774" lon="6.094638034701347">
        <ele>195.77000000000001</ele>
        <time>2018-07-10T15:06:47Z</time>
      </trkpt>
      <trkpt lat="49.111663978546858" lon="6.094814976677299">
        <ele>195.28</ele>
        <time>2018-07-10T15:06:48Z</time>
      </trkpt>
      <trkpt lat="49.111636988818645" lon="6.094990996643901">
        <ele>195.28</ele>
        <time>2018-07-10T15:06:49Z</time>
      </trkpt>
      <trkpt lat="49.111140025779605" lon="6.096424972638488">
        <ele>190.96000000000001</ele>
        <time>2018-07-10T15:06:58Z</time>
      </trkpt>
      <trkpt lat="49.110558992251754" lon="6.098061958327889">
        <ele>186.63</ele>
        <time>2018-07-10T15:07:08Z</time>
      </trkpt>
      <trkpt lat="49.110390013083816" lon="6.098562022671104">
        <ele>186.15000000000001</ele>
        <time>2018-07-10T15:07:11Z</time>
      </trkpt>
      <trkpt lat="49.110328992828727" lon="6.098724966868758">
        <ele>185.66999999999999</ele>
        <time>2018-07-10T15:07:12Z</time>
      </trkpt>
      <trkpt lat="49.110267972573638" lon="6.098884977400303">
        <ele>186.15000000000001</ele>
        <time>2018-07-10T15:07:13Z</time>
      </trkpt>
      <trkpt lat="49.1102060303092" lon="6.099039036780596">
        <ele>186.15000000000001</ele>
        <time>2018-07-10T15:07:14Z</time>
      </trkpt>
      <trkpt lat="49.110144004225731" lon="6.099199969321489">
        <ele>186.63</ele>
        <time>2018-07-10T15:07:15Z</time>
      </trkpt>
      <trkpt lat="49.109413018450141" lon="6.101171979680657">
        <ele>184.22999999999999</ele>
        <time>2018-07-10T15:07:27Z</time>
      </trkpt>
      <trkpt lat="49.108717991039157" lon="6.10315103083849">
        <ele>183.27000000000001</ele>
        <time>2018-07-10T15:07:40Z</time>
      </trkpt>
      <trkpt lat="49.108672980219126" lon="6.103276005014777">
        <ele>182.78999999999999</ele>
        <time>2018-07-10T15:07:42Z</time>
      </trkpt>
      <trkpt lat="49.108394030481577" lon="6.10403398051858">
        <ele>181.34999999999999</ele>
        <time>2018-07-10T15:07:50Z</time>
      </trkpt>
      <trkpt lat="49.107860019430518" lon="6.10555998980999">
        <ele>180.87</ele>
        <time>2018-07-10T15:08:01Z</time>
      </trkpt>
      <trkpt lat="49.107717024162412" lon="6.105917980894446">
        <ele>179.90000000000001</ele>
        <time>2018-07-10T15:08:06Z</time>
      </trkpt>
      <trkpt lat="49.107699003070593" lon="6.105961985886097">
        <ele>178.46000000000001</ele>
        <time>2018-07-10T15:08:16Z</time>
      </trkpt>
      <trkpt lat="49.107614010572433" lon="6.106173964217305">
        <ele>177.02000000000001</ele>
        <time>2018-07-10T15:08:43Z</time>
      </trkpt>
      <trkpt lat="49.107301030308008" lon="6.107068983837962">
        <ele>174.13999999999999</ele>
        <time>2018-07-10T15:08:52Z</time>
      </trkpt>
      <trkpt lat="49.106954019516706" lon="6.108066011220217">
        <ele>172.21000000000001</ele>
        <time>2018-07-10T15:09:00Z</time>
      </trkpt>
      <trkpt lat="49.106850000098348" lon="6.108284024521709">
        <ele>171.72999999999999</ele>
        <time>2018-07-10T15:09:02Z</time>
      </trkpt>
      <trkpt lat="49.106798032298684" lon="6.108390977606177">
        <ele>171.25</ele>
        <time>2018-07-10T15:09:03Z</time>
      </trkpt>
      <trkpt lat="49.106630980968475" lon="6.108699012547731">
        <ele>171.25</ele>
        <time>2018-07-10T15:09:06Z</time>
      </trkpt>
      <trkpt lat="49.106568032875657" lon="6.108796996995807">
        <ele>171.25</ele>
        <time>2018-07-10T15:09:07Z</time>
      </trkpt>
      <trkpt lat="49.106347002089024" lon="6.10919295810163">
        <ele>171.25</ele>
        <time>2018-07-10T15:09:11Z</time>
      </trkpt>
      <trkpt lat="49.106328980997205" lon="6.109282979741693">
        <ele>171.25</ele>
        <time>2018-07-10T15:09:12Z</time>
      </trkpt>
      <trkpt lat="49.106313977390528" lon="6.109353974461556">
        <ele>171.25</ele>
        <time>2018-07-10T15:09:13Z</time>
      </trkpt>
      <trkpt lat="49.106301991268992" lon="6.109413988888264">
        <ele>171.25</ele>
        <time>2018-07-10T15:09:14Z</time>
      </trkpt>
      <trkpt lat="49.106291010975838" lon="6.10947098582983">
        <ele>171.25</ele>
        <time>2018-07-10T15:09:15Z</time>
      </trkpt>
      <trkpt lat="49.106293022632599" lon="6.109510967507958">
        <ele>171.25</ele>
        <time>2018-07-10T15:09:16Z</time>
      </trkpt>
      <trkpt lat="49.10629503428936" lon="6.109543992206454">
        <ele>171.25</ele>
        <time>2018-07-10T15:09:17Z</time>
      </trkpt>
      <trkpt lat="49.10629503428936" lon="6.109543992206454">
        <ele>171.25</ele>
        <time>2018-07-10T15:09:28Z</time>
      </trkpt>
      <trkpt lat="49.106296040117741" lon="6.109557989984751">
        <ele>171.25</ele>
        <time>2018-07-10T15:09:52Z</time>
      </trkpt>
      <trkpt lat="49.106323029845953" lon="6.110001979395747">
        <ele>171.25</ele>
        <time>2018-07-10T15:09:58Z</time>
      </trkpt>
      <trkpt lat="49.106325963512063" lon="6.110053025186062">
        <ele>171.25</ele>
        <time>2018-07-10T15:10:05Z</time>
      </trkpt>
      <trkpt lat="49.106325963512063" lon="6.110053025186062">
        <ele>171.25</ele>
        <time>2018-07-10T15:10:43Z</time>
      </trkpt>
      <trkpt lat="49.106334010139108" lon="6.11020096577704">
        <ele>172.69</ele>
        <time>2018-07-10T15:11:15Z</time>
      </trkpt>
      <trkpt lat="49.106397964060307" lon="6.110845031216741">
        <ele>172.69</ele>
        <time>2018-07-10T15:11:23Z</time>
      </trkpt>
      <trkpt lat="49.106606002897024" lon="6.11202796921134">
        <ele>172.21000000000001</ele>
        <time>2018-07-10T15:11:33Z</time>
      </trkpt>
      <trkpt lat="49.106995007023215" lon="6.113973995670676">
        <ele>172.69</ele>
        <time>2018-07-10T15:11:43Z</time>
      </trkpt>
      <trkpt lat="49.107181001454592" lon="6.114928023889661">
        <ele>172.21000000000001</ele>
        <time>2018-07-10T15:11:49Z</time>
      </trkpt>
      <trkpt lat="49.107493981719017" lon="6.116427965462208">
        <ele>172.21000000000001</ele>
        <time>2018-07-10T15:11:59Z</time>
      </trkpt>
      <trkpt lat="49.107610993087292" lon="6.116981003433466">
        <ele>172.69</ele>
        <time>2018-07-10T15:12:03Z</time>
      </trkpt>
      <trkpt lat="49.107641000300646" lon="6.117123998701572">
        <ele>173.66</ele>
        <time>2018-07-10T15:12:04Z</time>
      </trkpt>
      <trkpt lat="49.107670001685619" lon="6.117260036990047">
        <ele>174.13999999999999</ele>
        <time>2018-07-10T15:12:05Z</time>
      </trkpt>
      <trkpt lat="49.107699003070593" lon="6.117391968145967">
        <ele>174.62</ele>
        <time>2018-07-10T15:12:06Z</time>
      </trkpt>
      <trkpt lat="49.107724986970425" lon="6.117513002827764">
        <ele>174.62</ele>
        <time>2018-07-10T15:12:07Z</time>
      </trkpt>
      <trkpt lat="49.107892960309982" lon="6.118374997749925">
        <ele>173.16999999999999</ele>
        <time>2018-07-10T15:12:16Z</time>
      </trkpt>
      <trkpt lat="49.108030004426837" lon="6.119035994634032">
        <ele>173.16999999999999</ele>
        <time>2018-07-10T15:12:24Z</time>
      </trkpt>
      <trkpt lat="49.108311971649528" lon="6.120404005050659">
        <ele>174.13999999999999</ele>
        <time>2018-07-10T15:12:33Z</time>
      </trkpt>
      <trkpt lat="49.108482962474227" lon="6.121250996366143">
        <ele>173.66</ele>
        <time>2018-07-10T15:12:39Z</time>
      </trkpt>
      <trkpt lat="49.108560997992754" lon="6.121619967743754">
        <ele>173.16999999999999</ele>
        <time>2018-07-10T15:12:42Z</time>
      </trkpt>
      <trkpt lat="49.108584970235825" lon="6.121731027960777">
        <ele>173.16999999999999</ele>
        <time>2018-07-10T15:12:43Z</time>
      </trkpt>
      <trkpt lat="49.108868027105927" lon="6.123032988980413">
        <ele>172.69</ele>
        <time>2018-07-10T15:12:52Z</time>
      </trkpt>
      <trkpt lat="49.10902401432395" lon="6.123724998906255">
        <ele>174.13999999999999</ele>
        <time>2018-07-10T15:12:59Z</time>
      </trkpt>
      <trkpt lat="49.109104983508587" lon="6.124066980555654">
        <ele>174.62</ele>
        <time>2018-07-10T15:13:04Z</time>
      </trkpt>
      <trkpt lat="49.109344035387039" lon="6.125118993222714">
        <ele>175.09999999999999</ele>
        <time>2018-07-10T15:13:12Z</time>
      </trkpt>
      <trkpt lat="49.109780983999372" lon="6.126608960330486">
        <ele>176.06</ele>
        <time>2018-07-10T15:13:22Z</time>
      </trkpt>
      <trkpt lat="49.109868993982673" lon="6.126879025250673">
        <ele>176.53999999999999</ele>
        <time>2018-07-10T15:13:24Z</time>
      </trkpt>
      <trkpt lat="49.11009999923408" lon="6.127595007419586">
        <ele>177.02000000000001</ele>
        <time>2018-07-10T15:13:29Z</time>
      </trkpt>
      <trkpt lat="49.110144004225731" lon="6.127738002687693">
        <ele>177.02000000000001</ele>
        <time>2018-07-10T15:13:30Z</time>
      </trkpt>
      <trkpt lat="49.110691007226706" lon="6.129331989213824">
        <ele>176.53999999999999</ele>
        <time>2018-07-10T15:13:41Z</time>
      </trkpt>
      <trkpt lat="49.111304981634021" lon="6.131067965179682">
        <ele>174.13999999999999</ele>
        <time>2018-07-10T15:13:52Z</time>
      </trkpt>
      <trkpt lat="49.111416041851044" lon="6.131372982636094">
        <ele>174.13999999999999</ele>
        <time>2018-07-10T15:13:54Z</time>
      </trkpt>
      <trkpt lat="49.111470021307468" lon="6.131522012874484">
        <ele>174.13999999999999</ele>
        <time>2018-07-10T15:13:55Z</time>
      </trkpt>
      <trkpt lat="49.111931025981903" lon="6.132855992764235">
        <ele>173.66</ele>
        <time>2018-07-10T15:14:05Z</time>
      </trkpt>
      <trkpt lat="49.112284993752837" lon="6.133928038179874">
        <ele>172.21000000000001</ele>
        <time>2018-07-10T15:14:15Z</time>
      </trkpt>
      <trkpt lat="49.112681960687041" lon="6.135079963132739">
        <ele>172.69</ele>
        <time>2018-07-10T15:14:24Z</time>
      </trkpt>
      <trkpt lat="49.113050010055304" lon="6.136112026870251">
        <ele>173.66</ele>
        <time>2018-07-10T15:14:33Z</time>
      </trkpt>
      <trkpt lat="49.113265005871654" lon="6.136718960478902">
        <ele>174.13999999999999</ele>
        <time>2018-07-10T15:14:41Z</time>
      </trkpt>
      <trkpt lat="49.113285960629582" lon="6.13677503541112">
        <ele>174.13999999999999</ele>
        <time>2018-07-10T15:14:53Z</time>
      </trkpt>
      <trkpt lat="49.113406995311379" lon="6.137104025110602">
        <ele>176.06</ele>
        <time>2018-07-10T15:15:06Z</time>
      </trkpt>
      <trkpt lat="49.113477990031242" lon="6.137296976521611">
        <ele>175.58000000000001</ele>
        <time>2018-07-10T15:15:08Z</time>
      </trkpt>
      <trkpt lat="49.113511014729738" lon="6.137384986504912">
        <ele>175.58000000000001</ele>
        <time>2018-07-10T15:15:09Z</time>
      </trkpt>
      <trkpt lat="49.113544039428234" lon="6.137474002316594">
        <ele>175.58000000000001</ele>
        <time>2018-07-10T15:15:10Z</time>
      </trkpt>
      <trkpt lat="49.113576980307698" lon="6.137564023956657">
        <ele>175.09999999999999</ele>
        <time>2018-07-10T15:15:11Z</time>
      </trkpt>
      <trkpt lat="49.113618973642588" lon="6.137675000354648">
        <ele>175.58000000000001</ele>
        <time>2018-07-10T15:15:12Z</time>
      </trkpt>
      <trkpt lat="49.113702960312366" lon="6.137898964807391">
        <ele>176.06</ele>
        <time>2018-07-10T15:15:14Z</time>
      </trkpt>
      <trkpt lat="49.113741014152765" lon="6.138000972568989">
        <ele>176.53999999999999</ele>
        <time>2018-07-10T15:15:15Z</time>
      </trkpt>
      <trkpt lat="49.113777978345752" lon="6.138099040836096">
        <ele>177.02000000000001</ele>
        <time>2018-07-10T15:15:16Z</time>
      </trkpt>
      <trkpt lat="49.113816032186151" lon="6.138199036940932">
        <ele>177.5</ele>
        <time>2018-07-10T15:15:17Z</time>
      </trkpt>
      <trkpt lat="49.113847967237234" lon="6.138286041095853">
        <ele>177.97999999999999</ele>
        <time>2018-07-10T15:15:18Z</time>
      </trkpt>
      <trkpt lat="49.113873029127717" lon="6.138352006673813">
        <ele>178.46000000000001</ele>
        <time>2018-07-10T15:15:19Z</time>
      </trkpt>
      <trkpt lat="49.113894989714026" lon="6.13841000944376">
        <ele>178.46000000000001</ele>
        <time>2018-07-10T15:15:20Z</time>
      </trkpt>
      <trkpt lat="49.113917034119368" lon="6.138470023870468">
        <ele>178.94</ele>
        <time>2018-07-10T15:15:21Z</time>
      </trkpt>
      <trkpt lat="49.113941006362438" lon="6.138533977791667">
        <ele>179.41999999999999</ele>
        <time>2018-07-10T15:15:22Z</time>
      </trkpt>
      <trkpt lat="49.113994985818863" lon="6.138677978888154">
        <ele>180.38</ele>
        <time>2018-07-10T15:15:24Z</time>
      </trkpt>
      <trkpt lat="49.114024993032217" lon="6.138757020235062">
        <ele>180.38</ele>
        <time>2018-07-10T15:15:25Z</time>
      </trkpt>
      <trkpt lat="49.1143539827317" lon="6.139540979638696">
        <ele>179.41999999999999</ele>
        <time>2018-07-10T15:15:33Z</time>
      </trkpt>
      <trkpt lat="49.11482697352767" lon="6.140195019543171">
        <ele>178.46000000000001</ele>
        <time>2018-07-10T15:15:41Z</time>
      </trkpt>
      <trkpt lat="49.114919006824493" lon="6.140285963192582">
        <ele>178.46000000000001</ele>
        <time>2018-07-10T15:15:42Z</time>
      </trkpt>
      <trkpt lat="49.115916034206748" lon="6.140920976176858">
        <ele>178.46000000000001</ele>
        <time>2018-07-10T15:15:52Z</time>
      </trkpt>
      <trkpt lat="49.117101989686489" lon="6.141902999952436">
        <ele>176.53999999999999</ele>
        <time>2018-07-10T15:16:03Z</time>
      </trkpt>
      <trkpt lat="49.118420965969563" lon="6.143324989825487">
        <ele>179.41999999999999</ele>
        <time>2018-07-10T15:16:14Z</time>
      </trkpt>
      <trkpt lat="49.118603020906448" lon="6.143518025055528">
        <ele>180.38</ele>
        <time>2018-07-10T15:16:16Z</time>
      </trkpt>
      <trkpt lat="49.11867099814117" lon="6.143612992018461">
        <ele>180.87</ele>
        <time>2018-07-10T15:16:17Z</time>
      </trkpt>
      <trkpt lat="49.11873696371913" lon="6.143722962588072">
        <ele>180.87</ele>
        <time>2018-07-10T15:16:18Z</time>
      </trkpt>
      <trkpt lat="49.118760013952851" lon="6.143837962299585">
        <ele>180.87</ele>
        <time>2018-07-10T15:16:19Z</time>
      </trkpt>
      <trkpt lat="49.11873403005302" lon="6.144044995307922">
        <ele>180.87</ele>
        <time>2018-07-10T15:16:20Z</time>
      </trkpt>
      <trkpt lat="49.118682984262705" lon="6.144171981140971">
        <ele>181.34999999999999</ele>
        <time>2018-07-10T15:16:21Z</time>
      </trkpt>
      <trkpt lat="49.11862900480628" lon="6.144309025257826">
        <ele>181.34999999999999</ele>
        <time>2018-07-10T15:16:22Z</time>
      </trkpt>
      <trkpt lat="49.118569996207952" lon="6.144455038011074">
        <ele>181.34999999999999</ele>
        <time>2018-07-10T15:16:23Z</time>
      </trkpt>
      <trkpt lat="49.117810009047389" lon="6.146464012563229">
        <ele>179.41999999999999</ele>
        <time>2018-07-10T15:16:35Z</time>
      </trkpt>
      <trkpt lat="49.117144988849759" lon="6.148209040984511">
        <ele>174.62</ele>
        <time>2018-07-10T15:16:47Z</time>
      </trkpt>
      <trkpt lat="49.116958994418383" lon="6.148696029558778">
        <ele>173.16999999999999</ele>
        <time>2018-07-10T15:16:51Z</time>
      </trkpt>
      <trkpt lat="49.116915995255113" lon="6.148806000128388">
        <ele>172.69</ele>
        <time>2018-07-10T15:16:52Z</time>
      </trkpt>
      <trkpt lat="49.116751039400697" lon="6.149202967062593">
        <ele>172.21000000000001</ele>
        <time>2018-07-10T15:16:56Z</time>
      </trkpt>
      <trkpt lat="49.116708040237427" lon="6.149298017844558">
        <ele>171.72999999999999</ele>
        <time>2018-07-10T15:16:57Z</time>
      </trkpt>
      <trkpt lat="49.116665963083506" lon="6.149388961493969">
        <ele>171.25</ele>
        <time>2018-07-10T15:16:58Z</time>
      </trkpt>
      <trkpt lat="49.116551969200373" lon="6.149636982008815">
        <ele>170.28999999999999</ele>
        <time>2018-07-10T15:17:04Z</time>
      </trkpt>
      <trkpt lat="49.116531014442444" lon="6.149681992828846">
        <ele>169.81</ele>
        <time>2018-07-10T15:17:06Z</time>
      </trkpt>
      <trkpt lat="49.116517016664147" lon="6.149713005870581">
        <ele>169.81</ele>
        <time>2018-07-10T15:17:10Z</time>
      </trkpt>
      <trkpt lat="49.116345020011067" lon="6.150090023875237">
        <ele>168.84999999999999</ele>
        <time>2018-07-10T15:17:17Z</time>
      </trkpt>
      <trkpt lat="49.115951992571354" lon="6.150939026847482">
        <ele>169.81</ele>
        <time>2018-07-10T15:17:26Z</time>
      </trkpt>
      <trkpt lat="49.115549996495247" lon="6.151822982355952">
        <ele>170.77000000000001</ele>
        <time>2018-07-10T15:17:34Z</time>
      </trkpt>
      <trkpt lat="49.115500962361693" lon="6.151930019259453">
        <ele>170.77000000000001</ele>
        <time>2018-07-10T15:17:35Z</time>
      </trkpt>
      <trkpt lat="49.115456035360694" lon="6.152029009535909">
        <ele>170.77000000000001</ele>
        <time>2018-07-10T15:17:36Z</time>
      </trkpt>
      <trkpt lat="49.115387974306941" lon="6.152176028117538">
        <ele>170.28999999999999</ele>
        <time>2018-07-10T15:17:38Z</time>
      </trkpt>
      <trkpt lat="49.115368025377393" lon="6.152216009795666">
        <ele>170.28999999999999</ele>
        <time>2018-07-10T15:17:40Z</time>
      </trkpt>
      <trkpt lat="49.11534296348691" lon="6.152266971766949">
        <ele>170.77000000000001</ele>
        <time>2018-07-10T15:17:51Z</time>
      </trkpt>
      <trkpt lat="49.115258976817131" lon="6.15244198590517">
        <ele>171.25</ele>
        <time>2018-07-10T15:17:59Z</time>
      </trkpt>
      <trkpt lat="49.115223018452525" lon="6.152514992281795">
        <ele>171.25</ele>
        <time>2018-07-10T15:18:00Z</time>
      </trkpt>
      <trkpt lat="49.115166021510959" lon="6.15263401530683">
        <ele>171.72999999999999</ele>
        <time>2018-07-10T15:18:06Z</time>
      </trkpt>
      <trkpt lat="49.11499897018075" lon="6.152982031926513">
        <ele>171.72999999999999</ele>
        <time>2018-07-10T15:18:23Z</time>
      </trkpt>
      <trkpt lat="49.114767964929342" lon="6.153468014672399">
        <ele>171.72999999999999</ele>
        <time>2018-07-10T15:18:27Z</time>
      </trkpt>
      <trkpt lat="49.114655982702971" lon="6.153703965246677">
        <ele>171.72999999999999</ele>
        <time>2018-07-10T15:18:30Z</time>
      </trkpt>
      <trkpt lat="49.114596974104643" lon="6.153826005756855">
        <ele>171.25</ele>
        <time>2018-07-10T15:18:32Z</time>
      </trkpt>
      <trkpt lat="49.114567972719669" lon="6.153887026011944">
        <ele>171.25</ele>
        <time>2018-07-10T15:18:33Z</time>
      </trkpt>
      <trkpt lat="49.114147033542395" lon="6.154769975692034">
        <ele>169.81</ele>
        <time>2018-07-10T15:18:42Z</time>
      </trkpt>
      <trkpt lat="49.113415963947773" lon="6.156346024945378">
        <ele>169.81</ele>
        <time>2018-07-10T15:18:56Z</time>
      </trkpt>
      <trkpt lat="49.113031988963485" lon="6.15714599378407">
        <ele>168.84999999999999</ele>
        <time>2018-07-10T15:19:03Z</time>
      </trkpt>
      <trkpt lat="49.11248498596251" lon="6.158273024484515">
        <ele>169.33000000000001</ele>
        <time>2018-07-10T15:19:11Z</time>
      </trkpt>
      <trkpt lat="49.112036973237991" lon="6.159288994967938">
        <ele>168.84999999999999</ele>
        <time>2018-07-10T15:19:18Z</time>
      </trkpt>
      <trkpt lat="49.111999003216624" lon="6.159382034093142">
        <ele>167.88999999999999</ele>
        <time>2018-07-10T15:19:19Z</time>
      </trkpt>
      <trkpt lat="49.111933959648013" lon="6.15953198634088">
        <ele>166.93000000000001</ele>
        <time>2018-07-10T15:19:20Z</time>
      </trkpt>
      <trkpt lat="49.111899007111788" lon="6.159624019637704">
        <ele>165.96000000000001</ele>
        <time>2018-07-10T15:19:21Z</time>
      </trkpt>
      <trkpt lat="49.111856007948518" lon="6.159731978550553">
        <ele>165</ele>
        <time>2018-07-10T15:19:22Z</time>
      </trkpt>
      <trkpt lat="49.111815020442009" lon="6.159838009625673">
        <ele>164.52000000000001</ele>
        <time>2018-07-10T15:19:23Z</time>
      </trkpt>
      <trkpt lat="49.111775038763881" lon="6.159942029044032">
        <ele>164.52000000000001</ele>
        <time>2018-07-10T15:19:24Z</time>
      </trkpt>
      <trkpt lat="49.111735979095101" lon="6.160042025148869">
        <ele>164.03999999999999</ele>
        <time>2018-07-10T15:19:25Z</time>
      </trkpt>
      <trkpt lat="49.111735979095101" lon="6.160042025148869">
        <ele>164.03999999999999</ele>
        <time>2018-07-10T15:19:26Z</time>
      </trkpt>
      <trkpt lat="49.111697003245354" lon="6.160141015425324">
        <ele>164.03999999999999</ele>
        <time>2018-07-10T15:19:27Z</time>
      </trkpt>
      <trkpt lat="49.11162500269711" lon="6.160329021513462">
        <ele>164.03999999999999</ele>
        <time>2018-07-10T15:19:28Z</time>
      </trkpt>
      <trkpt lat="49.111587032675743" lon="6.160426000133157">
        <ele>164.03999999999999</ele>
        <time>2018-07-10T15:19:29Z</time>
      </trkpt>
      <trkpt lat="49.111147988587618" lon="6.161508020013571">
        <ele>167.88999999999999</ele>
        <time>2018-07-10T15:19:38Z</time>
      </trkpt>
      <trkpt lat="49.110625963658094" lon="6.162619963288307">
        <ele>171.72999999999999</ele>
        <time>2018-07-10T15:19:48Z</time>
      </trkpt>
      <trkpt lat="49.110522028058767" lon="6.162829007953405">
        <ele>173.16999999999999</ele>
        <time>2018-07-10T15:19:51Z</time>
      </trkpt>
      <trkpt lat="49.110487997531891" lon="6.162896985188127">
        <ele>173.66</ele>
        <time>2018-07-10T15:19:52Z</time>
      </trkpt>
      <trkpt lat="49.110354976728559" lon="6.163146011531353">
        <ele>176.53999999999999</ele>
        <time>2018-07-10T15:20:00Z</time>
      </trkpt>
      <trkpt lat="49.11033796146512" lon="6.163169983774424">
        <ele>176.53999999999999</ele>
        <time>2018-07-10T15:20:21Z</time>
      </trkpt>
      <trkpt lat="49.110152972862124" lon="6.163523029536009">
        <ele>181.34999999999999</ele>
        <time>2018-07-10T15:20:29Z</time>
      </trkpt>
      <trkpt lat="49.109981982037425" lon="6.163609027862549">
        <ele>182.78999999999999</ele>
        <time>2018-07-10T15:20:33Z</time>
      </trkpt>
      <trkpt lat="49.109967984259129" lon="6.163620008155704">
        <ele>183.27000000000001</ele>
        <time>2018-07-10T15:20:34Z</time>
      </trkpt>
      <trkpt lat="49.109910987317562" lon="6.163668036460877">
        <ele>183.75</ele>
        <time>2018-07-10T15:20:35Z</time>
      </trkpt>
      <trkpt lat="49.109856002032757" lon="6.163713969290257">
        <ele>184.22999999999999</ele>
        <time>2018-07-10T15:20:36Z</time>
      </trkpt>
      <trkpt lat="49.109852984547615" lon="6.163844978436828">
        <ele>184.22999999999999</ele>
        <time>2018-07-10T15:20:37Z</time>
      </trkpt>
      <trkpt lat="49.109879974275827" lon="6.164038013666868">
        <ele>184.22999999999999</ele>
        <time>2018-07-10T15:20:38Z</time>
      </trkpt>
      <trkpt lat="49.109837980940938" lon="6.164113031700254">
        <ele>184.71000000000001</ele>
        <time>2018-07-10T15:20:39Z</time>
      </trkpt>
      <trkpt lat="49.109789030626416" lon="6.164198024198413">
        <ele>184.71000000000001</ele>
        <time>2018-07-10T15:20:40Z</time>
      </trkpt>
      <trkpt lat="49.10973203368485" lon="6.164298020303249">
        <ele>185.19</ele>
        <time>2018-07-10T15:20:41Z</time>
      </trkpt>
      <trkpt lat="49.109669001773" lon="6.16440799087286">
        <ele>185.19</ele>
        <time>2018-07-10T15:20:43Z</time>
      </trkpt>
      <trkpt lat="49.109040023759007" lon="6.165613979101181">
        <ele>188.56</ele>
        <time>2018-07-10T15:20:52Z</time>
      </trkpt>
      <trkpt lat="49.108887976035476" lon="6.166025027632713">
        <ele>190</ele>
        <time>2018-07-10T15:20:56Z</time>
      </trkpt>
      <trkpt lat="49.10885302349925" lon="6.166121000424027">
        <ele>190</ele>
        <time>2018-07-10T15:20:57Z</time>
      </trkpt>
      <trkpt lat="49.108819998800755" lon="6.166210016235709">
        <ele>190.47999999999999</ele>
        <time>2018-07-10T15:20:58Z</time>
      </trkpt>
      <trkpt lat="49.108794014900923" lon="6.166281010955572">
        <ele>190.47999999999999</ele>
        <time>2018-07-10T15:20:59Z</time>
      </trkpt>
      <trkpt lat="49.108771970495582" lon="6.166339013725519">
        <ele>190.96000000000001</ele>
        <time>2018-07-10T15:21:00Z</time>
      </trkpt>
      <trkpt lat="49.10868102684617" lon="6.166316969320178">
        <ele>191.44</ele>
        <time>2018-07-10T15:21:01Z</time>
      </trkpt>
      <trkpt lat="49.108642973005772" lon="6.166286962106824">
        <ele>191.44</ele>
        <time>2018-07-10T15:21:02Z</time>
      </trkpt>
      <trkpt lat="49.108597040176392" lon="6.166251003742218">
        <ele>191.91999999999999</ele>
        <time>2018-07-10T15:21:03Z</time>
      </trkpt>
      <trkpt lat="49.108545994386077" lon="6.16621102206409">
        <ele>192.40000000000001</ele>
        <time>2018-07-10T15:21:04Z</time>
      </trkpt>
      <trkpt lat="49.108482962474227" lon="6.166161987930536">
        <ele>192.88</ele>
        <time>2018-07-10T15:21:05Z</time>
      </trkpt>
      <trkpt lat="49.108407022431493" lon="6.166102979332209">
        <ele>193.36000000000001</ele>
        <time>2018-07-10T15:21:06Z</time>
      </trkpt>
      <trkpt lat="49.107818026095629" lon="6.165614984929562">
        <ele>195.77000000000001</ele>
        <time>2018-07-10T15:21:12Z</time>
      </trkpt>
      <trkpt lat="49.107722975313663" lon="6.16552596911788">
        <ele>196.25</ele>
        <time>2018-07-10T15:21:13Z</time>
      </trkpt>
      <trkpt lat="49.107354003936052" lon="6.165187004953623">
        <ele>196.72999999999999</ele>
        <time>2018-07-10T15:21:17Z</time>
      </trkpt>
      <trkpt lat="49.107172032818198" lon="6.165028000250459">
        <ele>195.77000000000001</ele>
        <time>2018-07-10T15:21:19Z</time>
      </trkpt>
      <trkpt lat="49.106328980997205" lon="6.164303971454501">
        <ele>194.31999999999999</ele>
        <time>2018-07-10T15:21:29Z</time>
      </trkpt>
      <trkpt lat="49.106119014322758" lon="6.164067015051842">
        <ele>193.84</ele>
        <time>2018-07-10T15:21:34Z</time>
      </trkpt>
      <trkpt lat="49.106066962704062" lon="6.164074977859855">
        <ele>194.31999999999999</ele>
        <time>2018-07-10T15:21:35Z</time>
      </trkpt>
      <trkpt lat="49.106033015996218" lon="6.164143038913608">
        <ele>194.31999999999999</ele>
        <time>2018-07-10T15:21:36Z</time>
      </trkpt>
      <trkpt lat="49.106033015996218" lon="6.164210010319948">
        <ele>194.31999999999999</ele>
        <time>2018-07-10T15:21:37Z</time>
      </trkpt>
      <trkpt lat="49.106033015996218" lon="6.164209004491568">
        <ele>194.31999999999999</ele>
        <time>2018-07-10T15:21:38Z</time>
      </trkpt>
      <trkpt lat="49.106033015996218" lon="6.164316963404417">
        <ele>194.31999999999999</ele>
        <time>2018-07-10T15:21:39Z</time>
      </trkpt>
      <trkpt lat="49.106152961030602" lon="6.164802024140954">
        <ele>194.31999999999999</ele>
        <time>2018-07-10T15:21:42Z</time>
      </trkpt>
      <trkpt lat="49.106224039569497" lon="6.165134031325579">
        <ele>195.28</ele>
        <time>2018-07-10T15:21:44Z</time>
      </trkpt>
      <trkpt lat="49.106291010975838" lon="6.165446005761623">
        <ele>195.77000000000001</ele>
        <time>2018-07-10T15:21:46Z</time>
      </trkpt>
      <trkpt lat="49.106325963512063" lon="6.165607022121549">
        <ele>196.25</ele>
        <time>2018-07-10T15:21:47Z</time>
      </trkpt>
      <trkpt lat="49.106671968474984" lon="6.166850980371237">
        <ele>197.21000000000001</ele>
        <time>2018-07-10T15:21:56Z</time>
      </trkpt>
      <trkpt lat="49.106703987345099" lon="6.166939996182919">
        <ele>196.25</ele>
        <time>2018-07-10T15:21:57Z</time>
      </trkpt>
      <trkpt lat="49.106728965416551" lon="6.167009985074401">
        <ele>195.28</ele>
        <time>2018-07-10T15:21:58Z</time>
      </trkpt>
      <trkpt lat="49.106762995943427" lon="6.167105035856366">
        <ele>190.96000000000001</ele>
        <time>2018-07-10T15:22:05Z</time>
      </trkpt>
      <trkpt lat="49.106731982901692" lon="6.167215006425977">
        <ele>190</ele>
        <time>2018-07-10T15:22:08Z</time>
      </trkpt>
      <trkpt lat="49.106495026499033" lon="6.16769696585834">
        <ele>186.15000000000001</ele>
        <time>2018-07-10T15:22:15Z</time>
      </trkpt>
      <trkpt lat="49.106458984315395" lon="6.16775999777019">
        <ele>186.15000000000001</ele>
        <time>2018-07-10T15:22:16Z</time>
      </trkpt>
      <trkpt lat="49.106419002637267" lon="6.167828980833292">
        <ele>186.15000000000001</ele>
        <time>2018-07-10T15:22:17Z</time>
      </trkpt>
      <trkpt lat="49.106373991817236" lon="6.167905004695058">
        <ele>186.15000000000001</ele>
        <time>2018-07-10T15:22:18Z</time>
      </trkpt>
      <trkpt lat="49.106265027076006" lon="6.168069038540125">
        <ele>185.66999999999999</ele>
        <time>2018-07-10T15:22:20Z</time>
      </trkpt>
      <trkpt lat="49.106204006820917" lon="6.168159982189536">
        <ele>185.66999999999999</ele>
        <time>2018-07-10T15:22:21Z</time>
      </trkpt>
      <trkpt lat="49.106151033192873" lon="6.16825302131474">
        <ele>185.19</ele>
        <time>2018-07-10T15:22:22Z</time>
      </trkpt>
      <trkpt lat="49.106107028201222" lon="6.168371038511396">
        <ele>185.19</ele>
        <time>2018-07-10T15:22:23Z</time>
      </trkpt>
      <trkpt lat="49.106066040694714" lon="6.168480003252626">
        <ele>185.19</ele>
        <time>2018-07-10T15:22:24Z</time>
      </trkpt>
      <trkpt lat="49.106033015996218" lon="6.168593997135758">
        <ele>185.19</ele>
        <time>2018-07-10T15:22:25Z</time>
      </trkpt>
      <trkpt lat="49.106033015996218" lon="6.168727017939091">
        <ele>185.19</ele>
        <time>2018-07-10T15:22:26Z</time>
      </trkpt>
      <trkpt lat="49.106054976582527" lon="6.168864984065294">
        <ele>185.19</ele>
        <time>2018-07-10T15:22:27Z</time>
      </trkpt>
      <trkpt lat="49.106086995452642" lon="6.16900596767664">
        <ele>185.19</ele>
        <time>2018-07-10T15:22:28Z</time>
      </trkpt>
      <trkpt lat="49.106133012101054" lon="6.169141000136733">
        <ele>185.19</ele>
        <time>2018-07-10T15:22:29Z</time>
      </trkpt>
      <trkpt lat="49.106178022921085" lon="6.169273015111685">
        <ele>184.71000000000001</ele>
        <time>2018-07-10T15:22:30Z</time>
      </trkpt>
      <trkpt lat="49.106224961578846" lon="6.169410981237888">
        <ele>184.22999999999999</ele>
        <time>2018-07-10T15:22:31Z</time>
      </trkpt>
      <trkpt lat="49.106271984055638" lon="6.169550959020853">
        <ele>183.75</ele>
        <time>2018-07-10T15:22:32Z</time>
      </trkpt>
      <trkpt lat="49.106450015679002" lon="6.170076001435518">
        <ele>181.34999999999999</ele>
        <time>2018-07-10T15:22:36Z</time>
      </trkpt>
      <trkpt lat="49.10676802508533" lon="6.170835988596082">
        <ele>179.41999999999999</ele>
        <time>2018-07-10T15:22:43Z</time>
      </trkpt>
      <trkpt lat="49.106786968186498" lon="6.170878987759352">
        <ele>178.94</ele>
        <time>2018-07-10T15:22:44Z</time>
      </trkpt>
      <trkpt lat="49.106874978169799" lon="6.171079985797405">
        <ele>177.5</ele>
        <time>2018-07-10T15:22:53Z</time>
      </trkpt>
      <trkpt lat="49.106874978169799" lon="6.171079985797405">
        <ele>177.5</ele>
        <time>2018-07-10T15:23:30Z</time>
      </trkpt>
      <trkpt lat="49.107050998136401" lon="6.171443006023765">
        <ele>177.02000000000001</ele>
        <time>2018-07-10T15:23:50Z</time>
      </trkpt>
      <trkpt lat="49.107107995077968" lon="6.171546019613743">
        <ele>176.53999999999999</ele>
        <time>2018-07-10T15:23:51Z</time>
      </trkpt>
      <trkpt lat="49.107463974505663" lon="6.172151025384665">
        <ele>175.58000000000001</ele>
        <time>2018-07-10T15:23:57Z</time>
      </trkpt>
      <trkpt lat="49.108031010255218" lon="6.173073034733534">
        <ele>176.06</ele>
        <time>2018-07-10T15:24:05Z</time>
      </trkpt>
      <trkpt lat="49.108163025230169" lon="6.173286018893123">
        <ele>177.02000000000001</ele>
        <time>2018-07-10T15:24:07Z</time>
      </trkpt>
      <trkpt lat="49.10823100246489" lon="6.173398001119494">
        <ele>177.5</ele>
        <time>2018-07-10T15:24:08Z</time>
      </trkpt>
      <trkpt lat="49.108441974967718" lon="6.173739982768893">
        <ele>179.90000000000001</ele>
        <time>2018-07-10T15:24:11Z</time>
      </trkpt>
      <trkpt lat="49.109075982123613" lon="6.174972038716078">
        <ele>184.71000000000001</ele>
        <time>2018-07-10T15:24:21Z</time>
      </trkpt>
      <trkpt lat="49.109138008207083" lon="6.175097012892366">
        <ele>184.22999999999999</ele>
        <time>2018-07-10T15:24:22Z</time>
      </trkpt>
      <trkpt lat="49.109202967956662" lon="6.175227016210556">
        <ele>184.22999999999999</ele>
        <time>2018-07-10T15:24:23Z</time>
      </trkpt>
      <trkpt lat="49.109594989567995" lon="6.176034025847912">
        <ele>180.38</ele>
        <time>2018-07-10T15:24:29Z</time>
      </trkpt>
      <trkpt lat="49.111370025202632" lon="6.179922977462411">
        <ele>187.59</ele>
        <time>2018-07-10T15:24:55Z</time>
      </trkpt>
      <trkpt lat="49.111450994387269" lon="6.180042000487447">
        <ele>186.15000000000001</ele>
        <time>2018-07-10T15:24:56Z</time>
      </trkpt>
      <trkpt lat="49.112137975171208" lon="6.18114204145968">
        <ele>174.62</ele>
        <time>2018-07-10T15:25:05Z</time>
      </trkpt>
      <trkpt lat="49.112782040610909" lon="6.182491024956107">
        <ele>170.28999999999999</ele>
        <time>2018-07-10T15:25:14Z</time>
      </trkpt>
      <trkpt lat="49.112898968160152" lon="6.182726975530386">
        <ele>169.33000000000001</ele>
        <time>2018-07-10T15:25:16Z</time>
      </trkpt>
      <trkpt lat="49.113179007545114" lon="6.183328963816166">
        <ele>169.81</ele>
        <time>2018-07-10T15:25:24Z</time>
      </trkpt>
      <trkpt lat="49.113152017816901" lon="6.183511018753052">
        <ele>170.28999999999999</ele>
        <time>2018-07-10T15:25:25Z</time>
      </trkpt>
      <trkpt lat="49.113140031695366" lon="6.183592993766069">
        <ele>170.77000000000001</ele>
        <time>2018-07-10T15:25:26Z</time>
      </trkpt>
      <trkpt lat="49.113115975633264" lon="6.183756021782756">
        <ele>170.28999999999999</ele>
        <time>2018-07-10T15:25:28Z</time>
      </trkpt>
      <trkpt lat="49.113106001168489" lon="6.183823999017477">
        <ele>170.28999999999999</ele>
        <time>2018-07-10T15:25:29Z</time>
      </trkpt>
      <trkpt lat="49.113098038360476" lon="6.183879990130663">
        <ele>170.28999999999999</ele>
        <time>2018-07-10T15:25:30Z</time>
      </trkpt>
      <trkpt lat="49.113071970641613" lon="6.184058021754026">
        <ele>170.77000000000001</ele>
        <time>2018-07-10T15:25:32Z</time>
      </trkpt>
      <trkpt lat="49.113068031147122" lon="6.184063972905278">
        <ele>171.25</ele>
        <time>2018-07-10T15:25:33Z</time>
      </trkpt>
      <trkpt lat="49.113032994791865" lon="6.184119964018464">
        <ele>171.72999999999999</ele>
        <time>2018-07-10T15:25:34Z</time>
      </trkpt>
      <trkpt lat="49.112994018942118" lon="6.184185007587075">
        <ele>172.21000000000001</ele>
        <time>2018-07-10T15:25:35Z</time>
      </trkpt>
      <trkpt lat="49.112954959273338" lon="6.184248039498925">
        <ele>172.21000000000001</ele>
        <time>2018-07-10T15:25:36Z</time>
      </trkpt>
      <trkpt lat="49.112707022577524" lon="6.184573005884886">
        <ele>170.28999999999999</ele>
        <time>2018-07-10T15:25:44Z</time>
      </trkpt>
      <trkpt lat="49.112707022577524" lon="6.184573005884886">
        <ele>170.28999999999999</ele>
        <time>2018-07-10T15:25:45Z</time>
      </trkpt>
      <trkpt lat="49.112520022317767" lon="6.184810968115926">
        <ele>170.77000000000001</ele>
        <time>2018-07-10T15:25:49Z</time>
      </trkpt>
      <trkpt lat="49.112448021769524" lon="6.184879029169679">
        <ele>171.25</ele>
        <time>2018-07-10T15:25:50Z</time>
      </trkpt>
      <trkpt lat="49.112389013171196" lon="6.184894032776356">
        <ele>171.25</ele>
        <time>2018-07-10T15:25:51Z</time>
      </trkpt>
      <trkpt lat="49.112336039543152" lon="6.184907024726272">
        <ele>171.72999999999999</ele>
        <time>2018-07-10T15:25:52Z</time>
      </trkpt>
      <trkpt lat="49.112288011237979" lon="6.184919010847807">
        <ele>172.21000000000001</ele>
        <time>2018-07-10T15:25:53Z</time>
      </trkpt>
      <trkpt lat="49.112212993204594" lon="6.184938037768006">
        <ele>172.69</ele>
        <time>2018-07-10T15:25:55Z</time>
      </trkpt>
      <trkpt lat="49.112187009304762" lon="6.184978019446135">
        <ele>173.16999999999999</ele>
        <time>2018-07-10T15:25:56Z</time>
      </trkpt>
      <trkpt lat="49.112155996263027" lon="6.185024036094546">
        <ele>173.16999999999999</ele>
        <time>2018-07-10T15:25:57Z</time>
      </trkpt>
      <trkpt lat="49.112128000706434" lon="6.185065023601055">
        <ele>173.66</ele>
        <time>2018-07-10T15:25:58Z</time>
      </trkpt>
      <trkpt lat="49.112130012363195" lon="6.185086984187365">
        <ele>173.66</ele>
        <time>2018-07-10T15:25:59Z</time>
      </trkpt>
      <trkpt lat="49.112136969342828" lon="6.185140963643789">
        <ele>174.13999999999999</ele>
        <time>2018-07-10T15:26:00Z</time>
      </trkpt>
      <trkpt lat="49.112149039283395" lon="6.185238026082516">
        <ele>174.62</ele>
        <time>2018-07-10T15:26:01Z</time>
      </trkpt>
      <trkpt lat="49.112159013748169" lon="6.185257975012064">
        <ele>174.62</ele>
        <time>2018-07-10T15:26:02Z</time>
      </trkpt>
      <trkpt lat="49.1122040245682" lon="6.185279013589025">
        <ele>174.62</ele>
        <time>2018-07-10T15:26:03Z</time>
      </trkpt>
      <trkpt lat="49.112264038994908" lon="6.185274990275502">
        <ele>175.09999999999999</ele>
        <time>2018-07-10T15:26:04Z</time>
      </trkpt>
      <trkpt lat="49.112324975430965" lon="6.185269961133599">
        <ele>175.09999999999999</ele>
        <time>2018-07-10T15:26:05Z</time>
      </trkpt>
      <trkpt lat="49.112383984029293" lon="6.185266021639109">
        <ele>175.09999999999999</ele>
        <time>2018-07-10T15:26:06Z</time>
      </trkpt>
      <trkpt lat="49.112438969314098" lon="6.185261998325586">
        <ele>175.58000000000001</ele>
        <time>2018-07-10T15:26:07Z</time>
      </trkpt>
      <trkpt lat="49.112470988184214" lon="6.185259986668825">
        <ele>175.58000000000001</ele>
        <time>2018-07-10T15:26:08Z</time>
      </trkpt>
      <trkpt lat="49.112551035359502" lon="6.185238026082516">
        <ele>175.58000000000001</ele>
        <time>2018-07-10T15:26:09Z</time>
      </trkpt>
      <trkpt lat="49.112614989280701" lon="6.185238026082516">
        <ele>175.58000000000001</ele>
        <time>2018-07-10T15:26:10Z</time>
      </trkpt>
      <trkpt lat="49.112690007314086" lon="6.185238026082516">
        <ele>175.09999999999999</ele>
        <time>2018-07-10T15:26:11Z</time>
      </trkpt>
      <trkpt lat="49.112912965938449" lon="6.185257975012064">
        <ele>174.13999999999999</ele>
        <time>2018-07-10T15:26:14Z</time>
      </trkpt>
      <trkpt lat="49.112969962880015" lon="6.18529099971056">
        <ele>173.66</ele>
        <time>2018-07-10T15:26:15Z</time>
      </trkpt>
      <trkpt lat="49.113032994791865" lon="6.185329975560308">
        <ele>173.66</ele>
        <time>2018-07-10T15:26:16Z</time>
      </trkpt>
      <trkpt lat="49.113523000851274" lon="6.186055010184646">
        <ele>173.16999999999999</ele>
        <time>2018-07-10T15:26:24Z</time>
      </trkpt>
      <trkpt lat="49.114218028262258" lon="6.187050025910139">
        <ele>173.66</ele>
        <time>2018-07-10T15:26:35Z</time>
      </trkpt>
      <trkpt lat="49.114352976903319" lon="6.187281031161547">
        <ele>174.13999999999999</ele>
        <time>2018-07-10T15:26:38Z</time>
      </trkpt>
      <trkpt lat="49.114450961351395" lon="6.187517987564206">
        <ele>174.13999999999999</ele>
        <time>2018-07-10T15:26:41Z</time>
      </trkpt>
      <trkpt lat="49.114480968564749" lon="6.187593005597591">
        <ele>174.13999999999999</ele>
        <time>2018-07-10T15:26:42Z</time>
      </trkpt>
      <trkpt lat="49.114538971334696" lon="6.187732983380556">
        <ele>174.13999999999999</ele>
        <time>2018-07-10T15:26:44Z</time>
      </trkpt>
      <trkpt lat="49.114564033225179" lon="6.187794003635645">
        <ele>174.13999999999999</ele>
        <time>2018-07-10T15:26:45Z</time>
      </trkpt>
      <trkpt lat="49.114586999639869" lon="6.18784798309207">
        <ele>174.13999999999999</ele>
        <time>2018-07-10T15:26:46Z</time>
      </trkpt>
      <trkpt lat="49.114585993811488" lon="6.187958959490061">
        <ele>174.13999999999999</ele>
        <time>2018-07-10T15:26:47Z</time>
      </trkpt>
      <trkpt lat="49.114531008526683" lon="6.188028026372194">
        <ele>174.13999999999999</ele>
        <time>2018-07-10T15:26:48Z</time>
      </trkpt>
      <trkpt lat="49.114531008526683" lon="6.188200023025274">
        <ele>174.13999999999999</ele>
        <time>2018-07-10T15:26:51Z</time>
      </trkpt>
      <trkpt lat="49.114555986598134" lon="6.188262971118093">
        <ele>174.13999999999999</ele>
        <time>2018-07-10T15:26:52Z</time>
      </trkpt>
      <trkpt lat="49.114574007689953" lon="6.188306976109743">
        <ele>174.13999999999999</ele>
        <time>2018-07-10T15:26:53Z</time>
      </trkpt>
      <trkpt lat="49.114651959389448" lon="6.188346035778523">
        <ele>173.66</ele>
        <time>2018-07-10T15:26:54Z</time>
      </trkpt>
      <trkpt lat="49.11467601545155" lon="6.188463969156146">
        <ele>173.66</ele>
        <time>2018-07-10T15:26:55Z</time>
      </trkpt>
      <trkpt lat="49.114691019058228" lon="6.188560025766492">
        <ele>174.13999999999999</ele>
        <time>2018-07-10T15:26:56Z</time>
      </trkpt>
      <trkpt lat="49.114704011008143" lon="6.188651975244284">
        <ele>174.13999999999999</ele>
        <time>2018-07-10T15:26:57Z</time>
      </trkpt>
      <trkpt lat="49.114717002958059" lon="6.188735961914063">
        <ele>174.13999999999999</ele>
        <time>2018-07-10T15:26:58Z</time>
      </trkpt>
      <trkpt lat="49.114744998514652" lon="6.188952969387174">
        <ele>174.13999999999999</ele>
        <time>2018-07-10T15:27:01Z</time>
      </trkpt>
      <trkpt lat="49.114744998514652" lon="6.189018012955785">
        <ele>174.13999999999999</ele>
        <time>2018-07-10T15:27:02Z</time>
      </trkpt>
      <trkpt lat="49.114744998514652" lon="6.18907199241221">
        <ele>174.13999999999999</ele>
        <time>2018-07-10T15:27:03Z</time>
      </trkpt>
      <trkpt lat="49.114744998514652" lon="6.189109962433577">
        <ele>174.13999999999999</ele>
        <time>2018-07-10T15:27:04Z</time>
      </trkpt>
      <trkpt lat="49.114744998514652" lon="6.189140975475311">
        <ele>173.66</ele>
        <time>2018-07-10T15:27:05Z</time>
      </trkpt>
      <trkpt lat="49.114744998514652" lon="6.189140975475311">
        <ele>173.16999999999999</ele>
        <time>2018-07-10T15:27:06Z</time>
      </trkpt>
      <trkpt lat="49.114744998514652" lon="6.189140975475311">
        <ele>173.16999999999999</ele>
        <time>2018-07-10T15:27:20Z</time>
      </trkpt>
      <trkpt lat="49.114744998514652" lon="6.189205013215542">
        <ele>173.16999999999999</ele>
        <time>2018-07-10T15:27:27Z</time>
      </trkpt>
      <trkpt lat="49.114744998514652" lon="6.189271984621882">
        <ele>173.16999999999999</ele>
        <time>2018-07-10T15:27:28Z</time>
      </trkpt>
      <trkpt lat="49.114744998514652" lon="6.189311966300011">
        <ele>173.66</ele>
        <time>2018-07-10T15:27:29Z</time>
      </trkpt>
      <trkpt lat="49.114736029878259" lon="6.189895011484623">
        <ele>175.09999999999999</ele>
        <time>2018-07-10T15:27:38Z</time>
      </trkpt>
      <trkpt lat="49.114723959937692" lon="6.190066002309322">
        <ele>175.58000000000001</ele>
        <time>2018-07-10T15:27:41Z</time>
      </trkpt>
      <trkpt lat="49.114760002121329" lon="6.190187036991119">
        <ele>176.06</ele>
        <time>2018-07-10T15:27:42Z</time>
      </trkpt>
      <trkpt lat="49.114781962707639" lon="6.190259037539363">
        <ele>176.06</ele>
        <time>2018-07-10T15:27:43Z</time>
      </trkpt>
      <trkpt lat="49.114781962707639" lon="6.190259959548712">
        <ele>176.53999999999999</ele>
        <time>2018-07-10T15:27:44Z</time>
      </trkpt>
      <trkpt lat="49.114865027368069" lon="6.190333971753717">
        <ele>176.53999999999999</ele>
        <time>2018-07-10T15:27:45Z</time>
      </trkpt>
      <trkpt lat="49.114927975460887" lon="6.190377976745367">
        <ele>177.02000000000001</ele>
        <time>2018-07-10T15:27:46Z</time>
      </trkpt>
      <trkpt lat="49.11499603651464" lon="6.190424999222159">
        <ele>177.02000000000001</ele>
        <time>2018-07-10T15:27:47Z</time>
      </trkpt>
      <trkpt lat="49.115510014817119" lon="6.190938977524638">
        <ele>177.97999999999999</ele>
        <time>2018-07-10T15:27:54Z</time>
      </trkpt>
      <trkpt lat="49.115562988445163" lon="6.191021036356688">
        <ele>177.5</ele>
        <time>2018-07-10T15:27:55Z</time>
      </trkpt>
      <trkpt lat="49.115586960688233" lon="6.191136036068201">
        <ele>177.5</ele>
        <time>2018-07-10T15:27:56Z</time>
      </trkpt>
      <trkpt lat="49.115613028407097" lon="6.19126302190125">
        <ele>177.5</ele>
        <time>2018-07-10T15:27:57Z</time>
      </trkpt>
      <trkpt lat="49.115673964843154" lon="6.191445998847485">
        <ele>177.5</ele>
        <time>2018-07-10T15:27:58Z</time>
      </trkpt>
      <trkpt lat="49.115660972893238" lon="6.191627969965339">
        <ele>177.97999999999999</ele>
        <time>2018-07-10T15:27:59Z</time>
      </trkpt>
      <trkpt lat="49.115560976788402" lon="6.193511970341206">
        <ele>181.83000000000001</ele>
        <time>2018-07-10T15:28:07Z</time>
      </trkpt>
      <trkpt lat="49.115589978173375" lon="6.196028972044587">
        <ele>183.27000000000001</ele>
        <time>2018-07-10T15:28:16Z</time>
      </trkpt>
      <trkpt lat="49.115754012018442" lon="6.199102029204369">
        <ele>185.19</ele>
        <time>2018-07-10T15:28:25Z</time>
      </trkpt>
      <trkpt lat="49.115989040583372" lon="6.204610029235482">
        <ele>190</ele>
        <time>2018-07-10T15:28:41Z</time>
      </trkpt>
      <trkpt lat="49.116296991705894" lon="6.20767998509109">
        <ele>193.36000000000001</ele>
        <time>2018-07-10T15:28:50Z</time>
      </trkpt>
      <trkpt lat="49.116979027166963" lon="6.211344972252846">
        <ele>198.16999999999999</ele>
        <time>2018-07-10T15:29:01Z</time>
      </trkpt>
      <trkpt lat="49.117461992427707" lon="6.213916959241033">
        <ele>196.25</ele>
        <time>2018-07-10T15:29:09Z</time>
      </trkpt>
      <trkpt lat="49.117879997938871" lon="6.216061972081661">
        <ele>198.16999999999999</ele>
        <time>2018-07-10T15:29:18Z</time>
      </trkpt>
      <trkpt lat="49.118276964873075" lon="6.218287032097578">
        <ele>205.86000000000001</ele>
        <time>2018-07-10T15:29:28Z</time>
      </trkpt>
      <trkpt lat="49.118547029793262" lon="6.220132978633046">
        <ele>214.99000000000001</ele>
        <time>2018-07-10T15:29:36Z</time>
      </trkpt>
      <trkpt lat="49.11860503256321" lon="6.220564981922507">
        <ele>216.91</ele>
        <time>2018-07-10T15:29:38Z</time>
      </trkpt>
      <trkpt lat="49.11862900480628" lon="6.220745025202632">
        <ele>217.88</ele>
        <time>2018-07-10T15:29:39Z</time>
      </trkpt>
      <trkpt lat="49.118681978434324" lon="6.221138974651694">
        <ele>219.80000000000001</ele>
        <time>2018-07-10T15:29:42Z</time>
      </trkpt>
      <trkpt lat="49.118692958727479" lon="6.221222961321473">
        <ele>220.75999999999999</ele>
        <time>2018-07-10T15:29:43Z</time>
      </trkpt>
      <trkpt lat="49.118701005354524" lon="6.22129999101162">
        <ele>221.24000000000001</ele>
        <time>2018-07-10T15:29:44Z</time>
      </trkpt>
      <trkpt lat="49.118739981204271" lon="6.221668040379882">
        <ele>225.09</ele>
        <time>2018-07-10T15:29:50Z</time>
      </trkpt>
      <trkpt lat="49.118747022002935" lon="6.221752027049661">
        <ele>225.56999999999999</ele>
        <time>2018-07-10T15:29:51Z</time>
      </trkpt>
      <trkpt lat="49.118805024772882" lon="6.222196016460657">
        <ele>227.49000000000001</ele>
        <time>2018-07-10T15:29:56Z</time>
      </trkpt>
      <trkpt lat="49.118814999237657" lon="6.222263993695378">
        <ele>227.49000000000001</ele>
        <time>2018-07-10T15:29:57Z</time>
      </trkpt>
      <trkpt lat="49.11882296204567" lon="6.222334988415241">
        <ele>227.97</ele>
        <time>2018-07-10T15:29:58Z</time>
      </trkpt>
      <trkpt lat="49.118825979530811" lon="6.222393997013569">
        <ele>227.49000000000001</ele>
        <time>2018-07-10T15:29:59Z</time>
      </trkpt>
      <trkpt lat="49.118827991187572" lon="6.222445964813232">
        <ele>227.00999999999999</ele>
        <time>2018-07-10T15:30:00Z</time>
      </trkpt>
      <trkpt lat="49.118830002844334" lon="6.222489969804883">
        <ele>227.00999999999999</ele>
        <time>2018-07-10T15:30:01Z</time>
      </trkpt>
      <trkpt lat="49.118831008672714" lon="6.22252400033176">
        <ele>227.00999999999999</ele>
        <time>2018-07-10T15:30:02Z</time>
      </trkpt>
      <trkpt lat="49.118833020329475" lon="6.222554007545114">
        <ele>226.05000000000001</ele>
        <time>2018-07-10T15:30:03Z</time>
      </trkpt>
      <trkpt lat="49.118834026157856" lon="6.222580997273326">
        <ele>226.05000000000001</ele>
        <time>2018-07-10T15:30:04Z</time>
      </trkpt>
      <trkpt lat="49.118835031986237" lon="6.222596000880003">
        <ele>225.56999999999999</ele>
        <time>2018-07-10T15:30:10Z</time>
      </trkpt>
      <trkpt lat="49.118854980915785" lon="6.223037978634238">
        <ele>222.68000000000001</ele>
        <time>2018-07-10T15:30:16Z</time>
      </trkpt>
      <trkpt lat="49.118878031149507" lon="6.223560003563762">
        <ele>221.24000000000001</ele>
        <time>2018-07-10T15:30:22Z</time>
      </trkpt>
      <trkpt lat="49.118882976472378" lon="6.223666034638882">
        <ele>221.24000000000001</ele>
        <time>2018-07-10T15:30:23Z</time>
      </trkpt>
      <trkpt lat="49.118925975635648" lon="6.224618973210454">
        <ele>219.80000000000001</ele>
        <time>2018-07-10T15:30:34Z</time>
      </trkpt>
      <trkpt lat="49.118960006162524" lon="6.225520027801395">
        <ele>218.84</ele>
        <time>2018-07-10T15:30:44Z</time>
      </trkpt>
      <trkpt lat="49.118976015597582" lon="6.22615797445178">
        <ele>216.91</ele>
        <time>2018-07-10T15:30:50Z</time>
      </trkpt>
      <trkpt lat="49.118979033082724" lon="6.226253025233746">
        <ele>216.43000000000001</ele>
        <time>2018-07-10T15:30:51Z</time>
      </trkpt>
      <trkpt lat="49.119006022810936" lon="6.227096999064088">
        <ele>215.94999999999999</ele>
        <time>2018-07-10T15:31:02Z</time>
      </trkpt>
      <trkpt lat="49.119012979790568" lon="6.227247035130858">
        <ele>215.94999999999999</ele>
        <time>2018-07-10T15:31:05Z</time>
      </trkpt>
      <trkpt lat="49.119013985618949" lon="6.227286010980606">
        <ele>215.47</ele>
        <time>2018-07-10T15:31:06Z</time>
      </trkpt>
      <trkpt lat="49.11901599727571" lon="6.227325992658734">
        <ele>215.47</ele>
        <time>2018-07-10T15:31:07Z</time>
      </trkpt>
      <trkpt lat="49.119023038074374" lon="6.227478040382266">
        <ele>214.99000000000001</ele>
        <time>2018-07-10T15:31:10Z</time>
      </trkpt>
      <trkpt lat="49.119028989225626" lon="6.227605026215315">
        <ele>215.47</ele>
        <time>2018-07-10T15:31:12Z</time>
      </trkpt>
      <trkpt lat="49.119032006710768" lon="6.227668980136514">
        <ele>215.47</ele>
        <time>2018-07-10T15:31:13Z</time>
      </trkpt>
      <trkpt lat="49.11903502419591" lon="6.2277249712497">
        <ele>215.47</ele>
        <time>2018-07-10T15:31:14Z</time>
      </trkpt>
      <trkpt lat="49.119037035852671" lon="6.227802000939846">
        <ele>215.47</ele>
        <time>2018-07-10T15:31:16Z</time>
      </trkpt>
      <trkpt lat="49.119037035852671" lon="6.227835025638342">
        <ele>215.47</ele>
        <time>2018-07-10T15:31:17Z</time>
      </trkpt>
      <trkpt lat="49.119037035852671" lon="6.22787500731647">
        <ele>215.94999999999999</ele>
        <time>2018-07-10T15:31:18Z</time>
      </trkpt>
      <trkpt lat="49.119037035852671" lon="6.227921023964882">
        <ele>215.94999999999999</ele>
        <time>2018-07-10T15:31:19Z</time>
      </trkpt>
      <trkpt lat="49.119037035852671" lon="6.227973997592926">
        <ele>215.94999999999999</ele>
        <time>2018-07-10T15:31:20Z</time>
      </trkpt>
      <trkpt lat="49.119037035852671" lon="6.228027977049351">
        <ele>215.94999999999999</ele>
        <time>2018-07-10T15:31:21Z</time>
      </trkpt>
      <trkpt lat="49.119019014760852" lon="6.228624014183879">
        <ele>214.50999999999999</ele>
        <time>2018-07-10T15:31:33Z</time>
      </trkpt>
      <trkpt lat="49.118984984233975" lon="6.229030033573508">
        <ele>214.99000000000001</ele>
        <time>2018-07-10T15:31:44Z</time>
      </trkpt>
      <trkpt lat="49.118982972577214" lon="6.229051994159818">
        <ele>214.99000000000001</ele>
        <time>2018-07-10T15:31:47Z</time>
      </trkpt>
      <trkpt lat="49.118976015597582" lon="6.229138998314738">
        <ele>214.99000000000001</ele>
        <time>2018-07-10T15:31:55Z</time>
      </trkpt>
      <trkpt lat="49.118976015597582" lon="6.229138998314738">
        <ele>215.47</ele>
        <time>2018-07-10T15:31:56Z</time>
      </trkpt>
      <trkpt lat="49.118968974798918" lon="6.229230025783181">
        <ele>215.47</ele>
        <time>2018-07-10T15:32:11Z</time>
      </trkpt>
      <trkpt lat="49.118994036689401" lon="6.22970100492239">
        <ele>217.88</ele>
        <time>2018-07-10T15:32:25Z</time>
      </trkpt>
      <trkpt lat="49.119087997823954" lon="6.230262005701661">
        <ele>218.84</ele>
        <time>2018-07-10T15:32:37Z</time>
      </trkpt>
      <trkpt lat="49.119070982560515" lon="6.23036602512002">
        <ele>219.31999999999999</ele>
        <time>2018-07-10T15:32:40Z</time>
      </trkpt>
      <trkpt lat="49.11903502419591" lon="6.230395026504993">
        <ele>219.31999999999999</ele>
        <time>2018-07-10T15:32:41Z</time>
      </trkpt>
      <trkpt lat="49.119001999497414" lon="6.230420004576445">
        <ele>219.31999999999999</ele>
        <time>2018-07-10T15:32:42Z</time>
      </trkpt>
      <trkpt lat="49.118822040036321" lon="6.230561994016171">
        <ele>219.31999999999999</ele>
        <time>2018-07-10T15:32:50Z</time>
      </trkpt>
      <trkpt lat="49.118790021166205" lon="6.230612033978105">
        <ele>219.31999999999999</ele>
        <time>2018-07-10T15:32:51Z</time>
      </trkpt>
      <trkpt lat="49.11877702921629" lon="6.230650003999472">
        <ele>219.80000000000001</ele>
        <time>2018-07-10T15:32:52Z</time>
      </trkpt>
      <trkpt lat="49.118768982589245" lon="6.230672970414162">
        <ele>219.80000000000001</ele>
        <time>2018-07-10T15:32:53Z</time>
      </trkpt>
      <trkpt lat="49.118768982589245" lon="6.230672970414162">
        <ele>219.80000000000001</ele>
        <time>2018-07-10T15:33:06Z</time>
      </trkpt>
      <trkpt lat="49.118766970932484" lon="6.230800040066242">
        <ele>220.28</ele>
        <time>2018-07-10T15:33:24Z</time>
      </trkpt>
      <trkpt lat="49.118779040873051" lon="6.230919985100627">
        <ele>220.28</ele>
        <time>2018-07-10T15:33:25Z</time>
      </trkpt>
      <trkpt lat="49.118825979530811" lon="6.231063986197114">
        <ele>220.28</ele>
        <time>2018-07-10T15:33:26Z</time>
      </trkpt>
      <trkpt lat="49.118991019204259" lon="6.231682989746332">
        <ele>221.72</ele>
        <time>2018-07-10T15:33:30Z</time>
      </trkpt>
      <trkpt lat="49.119118005037308" lon="6.232302999123931">
        <ele>221.72</ele>
        <time>2018-07-10T15:33:34Z</time>
      </trkpt>
      <trkpt lat="49.119142983108759" lon="6.232462003827095">
        <ele>221.72</ele>
        <time>2018-07-10T15:33:35Z</time>
      </trkpt>
      <trkpt lat="49.119123034179211" lon="6.232659984380007">
        <ele>222.19999999999999</ele>
        <time>2018-07-10T15:33:36Z</time>
      </trkpt>
      <trkpt lat="49.119216995313764" lon="6.234715981408954">
        <ele>225.09</ele>
        <time>2018-07-10T15:33:46Z</time>
      </trkpt>
      <trkpt lat="49.119385974481702" lon="6.237535988911986">
        <ele>229.41</ele>
        <time>2018-07-10T15:33:59Z</time>
      </trkpt>
      <trkpt lat="49.11955201998353" lon="6.239226032048464">
        <ele>231.81</ele>
        <time>2018-07-10T15:34:08Z</time>
      </trkpt>
      <trkpt lat="49.119529975578189" lon="6.239602966234088">
        <ele>232.30000000000001</ele>
        <time>2018-07-10T15:34:10Z</time>
      </trkpt>
      <trkpt lat="49.119529975578189" lon="6.239759037271142">
        <ele>232.30000000000001</ele>
        <time>2018-07-10T15:34:11Z</time>
      </trkpt>
      <trkpt lat="49.119625026360154" lon="6.24020797200501">
        <ele>232.30000000000001</ele>
        <time>2018-07-10T15:34:14Z</time>
      </trkpt>
      <trkpt lat="49.119711024686694" lon="6.241902960464358">
        <ele>233.25999999999999</ele>
        <time>2018-07-10T15:34:22Z</time>
      </trkpt>
      <trkpt lat="49.119622008875012" lon="6.243266025558114">
        <ele>233.74000000000001</ele>
        <time>2018-07-10T15:34:28Z</time>
      </trkpt>
      <trkpt lat="49.119564006105065" lon="6.24345101416111">
        <ele>233.25999999999999</ele>
        <time>2018-07-10T15:34:29Z</time>
      </trkpt>
      <trkpt lat="49.119453029707074" lon="6.243801964446902">
        <ele>233.25999999999999</ele>
        <time>2018-07-10T15:34:31Z</time>
      </trkpt>
      <trkpt lat="49.119024965912104" lon="6.24506201595068">
        <ele>229.88999999999999</ele>
        <time>2018-07-10T15:34:40Z</time>
      </trkpt>
      <trkpt lat="49.118905020877719" lon="6.245762994512916">
        <ele>227.49000000000001</ele>
        <time>2018-07-10T15:34:48Z</time>
      </trkpt>
      <trkpt lat="49.118869984522462" lon="6.245999028906226">
        <ele>227.00999999999999</ele>
        <time>2018-07-10T15:34:51Z</time>
      </trkpt>
      <trkpt lat="49.118765965104103" lon="6.24639499001205">
        <ele>226.05000000000001</ele>
        <time>2018-07-10T15:34:57Z</time>
      </trkpt>
      <trkpt lat="49.118736041709781" lon="6.246478976681829">
        <ele>226.05000000000001</ele>
        <time>2018-07-10T15:34:58Z</time>
      </trkpt>
      <trkpt lat="49.118669992312789" lon="6.246556006371975">
        <ele>226.05000000000001</ele>
        <time>2018-07-10T15:34:59Z</time>
      </trkpt>
      <trkpt lat="49.118600003421307" lon="6.246633036062121">
        <ele>226.53</ele>
        <time>2018-07-10T15:35:00Z</time>
      </trkpt>
      <trkpt lat="49.118504030629992" lon="6.246692966669798">
        <ele>226.53</ele>
        <time>2018-07-10T15:35:01Z</time>
      </trkpt>
      <trkpt lat="49.118397999554873" lon="6.246811989694834">
        <ele>226.53</ele>
        <time>2018-07-10T15:35:02Z</time>
      </trkpt>
      <trkpt lat="49.118337985128164" lon="6.246933024376631">
        <ele>226.53</ele>
        <time>2018-07-10T15:35:03Z</time>
      </trkpt>
      <trkpt lat="49.118292974308133" lon="6.247081970795989">
        <ele>226.05000000000001</ele>
        <time>2018-07-10T15:35:04Z</time>
      </trkpt>
      <trkpt lat="49.118272019550204" lon="6.247266959398985">
        <ele>226.05000000000001</ele>
        <time>2018-07-10T15:35:05Z</time>
      </trkpt>
      <trkpt lat="49.11828501150012" lon="6.247411966323853">
        <ele>225.56999999999999</ele>
        <time>2018-07-10T15:35:06Z</time>
      </trkpt>
      <trkpt lat="49.118336979299784" lon="6.247567031532526">
        <ele>225.09</ele>
        <time>2018-07-10T15:35:07Z</time>
      </trkpt>
      <trkpt lat="49.118387019261718" lon="6.24770600348711">
        <ele>224.61000000000001</ele>
        <time>2018-07-10T15:35:08Z</time>
      </trkpt>
      <trkpt lat="49.11843596957624" lon="6.247851010411978">
        <ele>223.63999999999999</ele>
        <time>2018-07-10T15:35:09Z</time>
      </trkpt>
      <trkpt lat="49.118487015366554" lon="6.248003980144858">
        <ele>223.16</ele>
        <time>2018-07-10T15:35:10Z</time>
      </trkpt>
      <trkpt lat="49.118538983166218" lon="6.24820196069777">
        <ele>222.68000000000001</ele>
        <time>2018-07-10T15:35:11Z</time>
      </trkpt>
      <trkpt lat="49.118512999266386" lon="6.248397007584572">
        <ele>222.19999999999999</ele>
        <time>2018-07-10T15:35:12Z</time>
      </trkpt>
      <trkpt lat="49.118356006219983" lon="6.249964004382491">
        <ele>220.28</ele>
        <time>2018-07-10T15:35:18Z</time>
      </trkpt>
      <trkpt lat="49.118356006219983" lon="6.250280002132058">
        <ele>220.28</ele>
        <time>2018-07-10T15:35:19Z</time>
      </trkpt>
      <trkpt lat="49.118665968999267" lon="6.253096992149949">
        <ele>219.80000000000001</ele>
        <time>2018-07-10T15:35:27Z</time>
      </trkpt>
      <trkpt lat="49.11869203671813" lon="6.25518199056387">
        <ele>217.88</ele>
        <time>2018-07-10T15:35:33Z</time>
      </trkpt>
      <trkpt lat="49.118275959044695" lon="6.257347036153078">
        <ele>213.55000000000001</ele>
        <time>2018-07-10T15:35:40Z</time>
      </trkpt>
      <trkpt lat="49.11734196357429" lon="6.261097015812993">
        <ele>206.34</ele>
        <time>2018-07-10T15:35:53Z</time>
      </trkpt>
      <trkpt lat="49.116990007460117" lon="6.263739997521043">
        <ele>213.55000000000001</ele>
        <time>2018-07-10T15:36:02Z</time>
      </trkpt>
      <trkpt lat="49.117064019665122" lon="6.265826001763344">
        <ele>222.19999999999999</ele>
        <time>2018-07-10T15:36:08Z</time>
      </trkpt>
      <trkpt lat="49.117164015769958" lon="6.269029984250665">
        <ele>233.74000000000001</ele>
        <time>2018-07-10T15:36:17Z</time>
      </trkpt>
      <trkpt lat="49.117097966372967" lon="6.274748034775257">
        <ele>240.47</ele>
        <time>2018-07-10T15:36:34Z</time>
      </trkpt>
      <trkpt lat="49.117257976904511" lon="6.276315031573176">
        <ele>242.38999999999999</ele>
        <time>2018-07-10T15:36:40Z</time>
      </trkpt>
      <trkpt lat="49.117343975231051" lon="6.277006035670638">
        <ele>242.87</ele>
        <time>2018-07-10T15:36:44Z</time>
      </trkpt>
      <trkpt lat="49.11736099049449" lon="6.277146013453603">
        <ele>242.87</ele>
        <time>2018-07-10T15:36:45Z</time>
      </trkpt>
      <trkpt lat="49.117191005498171" lon="6.277452036738396">
        <ele>243.34999999999999</ele>
        <time>2018-07-10T15:36:47Z</time>
      </trkpt>
      <trkpt lat="49.117284966632724" lon="6.277970038354397">
        <ele>242.38999999999999</ele>
        <time>2018-07-10T15:36:50Z</time>
      </trkpt>
      <trkpt lat="49.117228975519538" lon="6.278148991987109">
        <ele>242.38999999999999</ele>
        <time>2018-07-10T15:36:51Z</time>
      </trkpt>
      <trkpt lat="49.116634028032422" lon="6.280102981254458">
        <ele>241.91</ele>
        <time>2018-07-10T15:37:00Z</time>
      </trkpt>
      <trkpt lat="49.115658961236477" lon="6.28218999132514">
        <ele>243.34999999999999</ele>
        <time>2018-07-10T15:37:09Z</time>
      </trkpt>
      <trkpt lat="49.114906014874578" lon="6.284395018592477">
        <ele>245.75</ele>
        <time>2018-07-10T15:37:18Z</time>
      </trkpt>
      <trkpt lat="49.114776011556387" lon="6.285231029614806">
        <ele>245.75</ele>
        <time>2018-07-10T15:37:21Z</time>
      </trkpt>
      <trkpt lat="49.114746004343033" lon="6.285526994615793">
        <ele>245.27000000000001</ele>
        <time>2018-07-10T15:37:22Z</time>
      </trkpt>
      <trkpt lat="49.114744998514652" lon="6.285837041214109">
        <ele>244.78999999999999</ele>
        <time>2018-07-10T15:37:23Z</time>
      </trkpt>
      <trkpt lat="49.114758996292949" lon="6.286170976236463">
        <ele>244.78999999999999</ele>
        <time>2018-07-10T15:37:24Z</time>
      </trkpt>
      <trkpt lat="49.114781962707639" lon="6.286543970927596">
        <ele>244.31</ele>
        <time>2018-07-10T15:37:25Z</time>
      </trkpt>
      <trkpt lat="49.114983966574073" lon="6.289532035589218">
        <ele>242.87</ele>
        <time>2018-07-10T15:37:32Z</time>
      </trkpt>
      <trkpt lat="49.115312034264207" lon="6.293713012710214">
        <ele>247.19999999999999</ele>
        <time>2018-07-10T15:37:43Z</time>
      </trkpt>
      <trkpt lat="49.115615962073207" lon="6.297695003449917">
        <ele>253.44</ele>
        <time>2018-07-10T15:37:54Z</time>
      </trkpt>
      <trkpt lat="49.115962972864509" lon="6.302070021629334">
        <ele>262.57999999999998</ele>
        <time>2018-07-10T15:38:07Z</time>
      </trkpt>
      <trkpt lat="49.116005972027779" lon="6.304161977022886">
        <ele>265.45999999999998</ele>
        <time>2018-07-10T15:38:14Z</time>
      </trkpt>
      <trkpt lat="49.115803968161345" lon="6.307706013321877">
        <ele>266.42000000000002</ele>
        <time>2018-07-10T15:38:23Z</time>
      </trkpt>
      <trkpt lat="49.115692991763353" lon="6.309795035049319">
        <ele>267.86000000000001</ele>
        <time>2018-07-10T15:38:30Z</time>
      </trkpt>
      <trkpt lat="49.11570799537003" lon="6.3103779964149">
        <ele>268.82999999999998</ele>
        <time>2018-07-10T15:38:32Z</time>
      </trkpt>
      <trkpt lat="49.115740014240146" lon="6.31065996363759">
        <ele>268.82999999999998</ele>
        <time>2018-07-10T15:38:33Z</time>
      </trkpt>
      <trkpt lat="49.115788964554667" lon="6.310947965830565">
        <ele>269.31</ele>
        <time>2018-07-10T15:38:34Z</time>
      </trkpt>
      <trkpt lat="49.116376033052802" lon="6.313511990010738">
        <ele>270.26999999999998</ele>
        <time>2018-07-10T15:38:42Z</time>
      </trkpt>
      <trkpt lat="49.117502979934216" lon="6.318189008161426">
        <ele>274.11000000000001</ele>
        <time>2018-07-10T15:38:56Z</time>
      </trkpt>
      <trkpt lat="49.118232037872076" lon="6.321132984012365">
        <ele>275.56</ele>
        <time>2018-07-10T15:39:06Z</time>
      </trkpt>
      <trkpt lat="49.119026977568865" lon="6.324475016444922">
        <ele>277</ele>
        <time>2018-07-10T15:39:18Z</time>
      </trkpt>
      <trkpt lat="49.119276003912091" lon="6.326501006260514">
        <ele>277.95999999999998</ele>
        <time>2018-07-10T15:39:25Z</time>
      </trkpt>
      <trkpt lat="49.119040975347161" lon="6.328323986381292">
        <ele>279.88</ele>
        <time>2018-07-10T15:39:31Z</time>
      </trkpt>
      <trkpt lat="49.118447033688426" lon="6.330892033874989">
        <ele>280.83999999999997</ele>
        <time>2018-07-10T15:39:38Z</time>
      </trkpt>
      <trkpt lat="49.117347998544574" lon="6.335777007043362">
        <ele>284.69</ele>
        <time>2018-07-10T15:39:53Z</time>
      </trkpt>
      <trkpt lat="49.115646975114942" lon="6.343298004940152">
        <ele>287.08999999999997</ele>
        <time>2018-07-10T15:40:16Z</time>
      </trkpt>
      <trkpt lat="49.115049010142684" lon="6.345927994698286">
        <ele>287.56999999999999</ele>
        <time>2018-07-10T15:40:25Z</time>
      </trkpt>
      <trkpt lat="49.114364041015506" lon="6.348918993026018">
        <ele>289.97000000000003</ele>
        <time>2018-07-10T15:40:38Z</time>
      </trkpt>
      <trkpt lat="49.113907981663942" lon="6.351074986159802">
        <ele>290.94</ele>
        <time>2018-07-10T15:40:49Z</time>
      </trkpt>
      <trkpt lat="49.113856013864279" lon="6.351795997470617">
        <ele>291.42000000000002</ele>
        <time>2018-07-10T15:40:53Z</time>
      </trkpt>
      <trkpt lat="49.113864982500672" lon="6.351985009387136">
        <ele>291.42000000000002</ele>
        <time>2018-07-10T15:40:54Z</time>
      </trkpt>
      <trkpt lat="49.113884009420872" lon="6.352165974676609">
        <ele>290.94</ele>
        <time>2018-07-10T15:40:55Z</time>
      </trkpt>
      <trkpt lat="49.114216016605496" lon="6.354046035557985">
        <ele>287.56999999999999</ele>
        <time>2018-07-10T15:41:06Z</time>
      </trkpt>
      <trkpt lat="49.114603009074926" lon="6.355838002637029">
        <ele>284.20999999999998</ele>
        <time>2018-07-10T15:41:17Z</time>
      </trkpt>
      <trkpt lat="49.11502000875771" lon="6.357714962214232">
        <ele>280.36000000000001</ele>
        <time>2018-07-10T15:41:28Z</time>
      </trkpt>
      <trkpt lat="49.115411024540663" lon="6.359497960656881">
        <ele>275.06999999999999</ele>
        <time>2018-07-10T15:41:37Z</time>
      </trkpt>
      <trkpt lat="49.115828024223447" lon="6.361624030396342">
        <ele>263.06</ele>
        <time>2018-07-10T15:41:46Z</time>
      </trkpt>
      <trkpt lat="49.11596599034965" lon="6.363432006910443">
        <ele>254.41</ele>
        <time>2018-07-10T15:41:53Z</time>
      </trkpt>
      <trkpt lat="49.115919973701239" lon="6.363686984404922">
        <ele>252.96000000000001</ele>
        <time>2018-07-10T15:41:54Z</time>
      </trkpt>
      <trkpt lat="49.115875968709588" lon="6.363937016576529">
        <ele>252</ele>
        <time>2018-07-10T15:41:55Z</time>
      </trkpt>
      <trkpt lat="49.11581402644515" lon="6.364170033484697">
        <ele>251.03999999999999</ele>
        <time>2018-07-10T15:41:56Z</time>
      </trkpt>
      <trkpt lat="49.115735990926623" lon="6.364410007372499">
        <ele>250.56</ele>
        <time>2018-07-10T15:41:57Z</time>
      </trkpt>
      <trkpt lat="49.115656027570367" lon="6.364660961553454">
        <ele>249.59999999999999</ele>
        <time>2018-07-10T15:41:58Z</time>
      </trkpt>
      <trkpt lat="49.114461019635201" lon="6.367493961006403">
        <ele>240.47</ele>
        <time>2018-07-10T15:42:09Z</time>
      </trkpt>
      <trkpt lat="49.113285038620234" lon="6.370340958237648">
        <ele>232.30000000000001</ele>
        <time>2018-07-10T15:42:18Z</time>
      </trkpt>
      <trkpt lat="49.111777972429991" lon="6.373994965106249">
        <ele>232.30000000000001</ele>
        <time>2018-07-10T15:42:30Z</time>
      </trkpt>
      <trkpt lat="49.111009016633034" lon="6.375854993239045">
        <ele>233.74000000000001</ele>
        <time>2018-07-10T15:42:37Z</time>
      </trkpt>
      <trkpt lat="49.109920039772987" lon="6.37844399549067">
        <ele>228.44999999999999</ele>
        <time>2018-07-10T15:42:47Z</time>
      </trkpt>
      <trkpt lat="49.109355015680194" lon="6.379803959280253">
        <ele>225.56999999999999</ele>
        <time>2018-07-10T15:42:55Z</time>
      </trkpt>
      <trkpt lat="49.108704999089241" lon="6.381438011303544">
        <ele>221.72</ele>
        <time>2018-07-10T15:43:07Z</time>
      </trkpt>
      <trkpt lat="49.10865998826921" lon="6.381585029885173">
        <ele>221.24000000000001</ele>
        <time>2018-07-10T15:43:08Z</time>
      </trkpt>
      <trkpt lat="49.108622018247843" lon="6.381740011274815">
        <ele>221.24000000000001</ele>
        <time>2018-07-10T15:43:09Z</time>
      </trkpt>
      <trkpt lat="49.10859796218574" lon="6.381906978785992">
        <ele>220.75999999999999</ele>
        <time>2018-07-10T15:43:10Z</time>
      </trkpt>
      <trkpt lat="49.108587987720966" lon="6.38207302428782">
        <ele>220.75999999999999</ele>
        <time>2018-07-10T15:43:11Z</time>
      </trkpt>
      <trkpt lat="49.108592011034489" lon="6.382247032597661">
        <ele>220.28</ele>
        <time>2018-07-10T15:43:12Z</time>
      </trkpt>
      <trkpt lat="49.10859502851963" lon="6.382419029250741">
        <ele>219.80000000000001</ele>
        <time>2018-07-10T15:43:13Z</time>
      </trkpt>
      <trkpt lat="49.10859796218574" lon="6.38259002007544">
        <ele>219.31999999999999</ele>
        <time>2018-07-10T15:43:14Z</time>
      </trkpt>
      <trkpt lat="49.108655964955688" lon="6.384430015459657">
        <ele>217.40000000000001</ele>
        <time>2018-07-10T15:43:25Z</time>
      </trkpt>
      <trkpt lat="49.108671974390745" lon="6.38525202870369">
        <ele>217.88</ele>
        <time>2018-07-10T15:43:30Z</time>
      </trkpt>
      <trkpt lat="49.108674991875887" lon="6.385407010093331">
        <ele>218.36000000000001</ele>
        <time>2018-07-10T15:43:31Z</time>
      </trkpt>
      <trkpt lat="49.108678009361029" lon="6.385556040331721">
        <ele>218.36000000000001</ele>
        <time>2018-07-10T15:43:32Z</time>
      </trkpt>
      <trkpt lat="49.108707010746002" lon="6.386784994974732">
        <ele>217.88</ele>
        <time>2018-07-10T15:43:38Z</time>
      </trkpt>
      <trkpt lat="49.108761996030807" lon="6.38909999281168">
        <ele>217.88</ele>
        <time>2018-07-10T15:43:48Z</time>
      </trkpt>
      <trkpt lat="49.108800971880555" lon="6.390593983232975">
        <ele>217.88</ele>
        <time>2018-07-10T15:43:56Z</time>
      </trkpt>
      <trkpt lat="49.108812035992742" lon="6.390952980145812">
        <ele>216.91</ele>
        <time>2018-07-10T15:44:00Z</time>
      </trkpt>
      <trkpt lat="49.10883299075067" lon="6.391593022271991">
        <ele>216.43000000000001</ele>
        <time>2018-07-10T15:44:10Z</time>
      </trkpt>
      <trkpt lat="49.108833996579051" lon="6.391612971201539">
        <ele>216.91</ele>
        <time>2018-07-10T15:44:13Z</time>
      </trkpt>
      <trkpt lat="49.108836008235812" lon="6.391666028648615">
        <ele>216.91</ele>
        <time>2018-07-10T15:44:14Z</time>
      </trkpt>
      <trkpt lat="49.108850006014109" lon="6.391970962285996">
        <ele>218.84</ele>
        <time>2018-07-10T15:44:20Z</time>
      </trkpt>
      <trkpt lat="49.108800971880555" lon="6.392155028879643">
        <ele>218.84</ele>
        <time>2018-07-10T15:44:21Z</time>
      </trkpt>
      <trkpt lat="49.108797032386065" lon="6.392168020829558">
        <ele>218.36000000000001</ele>
        <time>2018-07-10T15:44:22Z</time>
      </trkpt>
      <trkpt lat="49.108761996030807" lon="6.392273968085647">
        <ele>218.36000000000001</ele>
        <time>2018-07-10T15:44:23Z</time>
      </trkpt>
      <trkpt lat="49.10874598659575" lon="6.39240799471736">
        <ele>218.36000000000001</ele>
        <time>2018-07-10T15:44:24Z</time>
      </trkpt>
      <trkpt lat="49.108758978545666" lon="6.392498016357422">
        <ele>218.36000000000001</ele>
        <time>2018-07-10T15:44:25Z</time>
      </trkpt>
      <trkpt lat="49.108843971043825" lon="6.392609998583794">
        <ele>218.36000000000001</ele>
        <time>2018-07-10T15:44:26Z</time>
      </trkpt>
      <trkpt lat="49.108843971043825" lon="6.392727009952068">
        <ele>218.36000000000001</ele>
        <time>2018-07-10T15:44:27Z</time>
      </trkpt>
      <trkpt lat="49.108843971043825" lon="6.392884002998471">
        <ele>218.36000000000001</ele>
        <time>2018-07-10T15:44:28Z</time>
      </trkpt>
      <trkpt lat="49.108847994357347" lon="6.392965978011489">
        <ele>218.36000000000001</ele>
        <time>2018-07-10T15:44:29Z</time>
      </trkpt>
      <trkpt lat="49.108862997964025" lon="6.393308965489268">
        <ele>218.36000000000001</ele>
        <time>2018-07-10T15:44:33Z</time>
      </trkpt>
      <trkpt lat="49.108866015449166" lon="6.393378032371402">
        <ele>218.36000000000001</ele>
        <time>2018-07-10T15:44:34Z</time>
      </trkpt>
      <trkpt lat="49.108888981863856" lon="6.394275985658169">
        <ele>220.28</ele>
        <time>2018-07-10T15:44:43Z</time>
      </trkpt>
      <trkpt lat="49.108927035704255" lon="6.39567400328815">
        <ele>221.24000000000001</ele>
        <time>2018-07-10T15:44:52Z</time>
      </trkpt>
      <trkpt lat="49.108973974362016" lon="6.397809963673353">
        <ele>222.19999999999999</ele>
        <time>2018-07-10T15:45:04Z</time>
      </trkpt>
      <trkpt lat="49.10904698073864" lon="6.400554031133652">
        <ele>225.56999999999999</ele>
        <time>2018-07-10T15:45:19Z</time>
      </trkpt>
      <trkpt lat="49.109048992395401" lon="6.401211004704237">
        <ele>226.53</ele>
        <time>2018-07-10T15:45:26Z</time>
      </trkpt>
      <trkpt lat="49.109028037637472" lon="6.401925981044769">
        <ele>227.49000000000001</ele>
        <time>2018-07-10T15:45:33Z</time>
      </trkpt>
      <trkpt lat="49.108988977968693" lon="6.403204975649715">
        <ele>225.09</ele>
        <time>2018-07-10T15:45:41Z</time>
      </trkpt>
      <trkpt lat="49.108983026817441" lon="6.403407985344529">
        <ele>224.12</ele>
        <time>2018-07-10T15:45:43Z</time>
      </trkpt>
      <trkpt lat="49.108980009332299" lon="6.40349498949945">
        <ele>223.63999999999999</ele>
        <time>2018-07-10T15:45:44Z</time>
      </trkpt>
      <trkpt lat="49.108977997675538" lon="6.403563972562552">
        <ele>223.63999999999999</ele>
        <time>2018-07-10T15:45:45Z</time>
      </trkpt>
      <trkpt lat="49.108975986018777" lon="6.403614012524486">
        <ele>223.16</ele>
        <time>2018-07-10T15:45:46Z</time>
      </trkpt>
      <trkpt lat="49.108974980190396" lon="6.403659023344517">
        <ele>223.16</ele>
        <time>2018-07-10T15:45:47Z</time>
      </trkpt>
      <trkpt lat="49.108973974362016" lon="6.403695987537503">
        <ele>223.16</ele>
        <time>2018-07-10T15:45:48Z</time>
      </trkpt>
      <trkpt lat="49.108972968533635" lon="6.40373102389276">
        <ele>224.12</ele>
        <time>2018-07-10T15:45:53Z</time>
      </trkpt>
      <trkpt lat="49.108969029039145" lon="6.403845017775893">
        <ele>224.61000000000001</ele>
        <time>2018-07-10T15:45:55Z</time>
      </trkpt>
      <trkpt lat="49.108967017382383" lon="6.403929004445672">
        <ele>225.09</ele>
        <time>2018-07-10T15:45:56Z</time>
      </trkpt>
      <trkpt lat="49.108962994068861" lon="6.404069988057017">
        <ele>226.05000000000001</ele>
        <time>2018-07-10T15:46:03Z</time>
      </trkpt>
      <trkpt lat="49.108956959098577" lon="6.404251959174871">
        <ele>226.53</ele>
        <time>2018-07-10T15:46:42Z</time>
      </trkpt>
      <trkpt lat="49.108885964378715" lon="6.405603038147092">
        <ele>226.53</ele>
        <time>2018-07-10T15:46:51Z</time>
      </trkpt>
      <trkpt lat="49.10881002433598" lon="6.407503969967365">
        <ele>227.00999999999999</ele>
        <time>2018-07-10T15:47:01Z</time>
      </trkpt>
      <trkpt lat="49.108721008524299" lon="6.409741016104817">
        <ele>227.49000000000001</ele>
        <time>2018-07-10T15:47:13Z</time>
      </trkpt>
      <trkpt lat="49.108629981055856" lon="6.41193799674511">
        <ele>232.30000000000001</ele>
        <time>2018-07-10T15:47:25Z</time>
      </trkpt>
      <trkpt lat="49.10872302018106" lon="6.413522008806467">
        <ele>238.06</ele>
        <time>2018-07-10T15:47:33Z</time>
      </trkpt>
      <trkpt lat="49.109112024307251" lon="6.415639026090503">
        <ele>246.22999999999999</ele>
        <time>2018-07-10T15:47:42Z</time>
      </trkpt>
      <trkpt lat="49.109343029558659" lon="6.418044967576861">
        <ele>255.37</ele>
        <time>2018-07-10T15:47:49Z</time>
      </trkpt>
      <trkpt lat="49.10928200930357" lon="6.420652996748686">
        <ele>264.01999999999998</ele>
        <time>2018-07-10T15:47:56Z</time>
      </trkpt>
      <trkpt lat="49.108911026269197" lon="6.424512024968863">
        <ele>274.11000000000001</ele>
        <time>2018-07-10T15:48:07Z</time>
      </trkpt>
      <trkpt lat="49.108620006591082" lon="6.427764035761356">
        <ele>284.69</ele>
        <time>2018-07-10T15:48:16Z</time>
      </trkpt>
      <trkpt lat="49.108075015246868" lon="6.433663973584771">
        <ele>300.55000000000001</ele>
        <time>2018-07-10T15:48:30Z</time>
      </trkpt>
      <trkpt lat="49.107553996145725" lon="6.439477996900678">
        <ele>321.22000000000003</ele>
        <time>2018-07-10T15:48:44Z</time>
      </trkpt>
      <trkpt lat="49.107233975082636" lon="6.4430480170995">
        <ele>326.99000000000001</ele>
        <time>2018-07-10T15:48:54Z</time>
      </trkpt>
      <trkpt lat="49.106999030336738" lon="6.445857966318727">
        <ele>332.75</ele>
        <time>2018-07-10T15:49:02Z</time>
      </trkpt>
      <trkpt lat="49.107126016169786" lon="6.448488039895892">
        <ele>331.79000000000002</ele>
        <time>2018-07-10T15:49:09Z</time>
      </trkpt>
      <trkpt lat="49.107380993664265" lon="6.452532978728414">
        <ele>322.18000000000001</ele>
        <time>2018-07-10T15:49:19Z</time>
      </trkpt>
      <trkpt lat="49.10760797560215" lon="6.456096963956952">
        <ele>313.05000000000001</ele>
        <time>2018-07-10T15:49:27Z</time>
      </trkpt>
      <trkpt lat="49.107777960598469" lon="6.458769030869007">
        <ele>305.36000000000001</ele>
        <time>2018-07-10T15:49:34Z</time>
      </trkpt>
      <trkpt lat="49.108114996924996" lon="6.464527985081077">
        <ele>289.00999999999999</ele>
        <time>2018-07-10T15:49:51Z</time>
      </trkpt>
      <trkpt lat="49.108077026903629" lon="6.46554596722126">
        <ele>286.13</ele>
        <time>2018-07-10T15:49:54Z</time>
      </trkpt>
      <trkpt lat="49.10803503356874" lon="6.465881997719407">
        <ele>284.69</ele>
        <time>2018-07-10T15:49:55Z</time>
      </trkpt>
      <trkpt lat="49.107969990000129" lon="6.466216016560793">
        <ele>283.25</ele>
        <time>2018-07-10T15:49:56Z</time>
      </trkpt>
      <trkpt lat="49.107774021103978" lon="6.466840971261263">
        <ele>279.88</ele>
        <time>2018-07-10T15:49:58Z</time>
      </trkpt>
      <trkpt lat="49.107620967552066" lon="6.467118998989463">
        <ele>278.44</ele>
        <time>2018-07-10T15:49:59Z</time>
      </trkpt>
      <trkpt lat="49.107472021132708" lon="6.467387974262238">
        <ele>277</ele>
        <time>2018-07-10T15:50:00Z</time>
      </trkpt>
      <trkpt lat="49.107317961752415" lon="6.467653010040522">
        <ele>275.56</ele>
        <time>2018-07-10T15:50:01Z</time>
      </trkpt>
      <trkpt lat="49.107138002291322" lon="6.46788502112031">
        <ele>273.63</ele>
        <time>2018-07-10T15:50:02Z</time>
      </trkpt>
      <trkpt lat="49.106959970667958" lon="6.468116026371718">
        <ele>271.70999999999998</ele>
        <time>2018-07-10T15:50:03Z</time>
      </trkpt>
      <trkpt lat="49.105189964175224" lon="6.47042297758162">
        <ele>254.41</ele>
        <time>2018-07-10T15:50:13Z</time>
      </trkpt>
      <trkpt lat="49.105038000270724" lon="6.470717014744878">
        <ele>252.96000000000001</ele>
        <time>2018-07-10T15:50:14Z</time>
      </trkpt>
      <trkpt lat="49.104884024709463" lon="6.471015997231007">
        <ele>251.03999999999999</ele>
        <time>2018-07-10T15:50:15Z</time>
      </trkpt>
      <trkpt lat="49.104754021391273" lon="6.471340041607618">
        <ele>249.59999999999999</ele>
        <time>2018-07-10T15:50:16Z</time>
      </trkpt>
      <trkpt lat="49.103822959586978" lon="6.473961984738708">
        <ele>233.74000000000001</ele>
        <time>2018-07-10T15:50:24Z</time>
      </trkpt>
      <trkpt lat="49.102849988266826" lon="6.476187966763973">
        <ele>225.09</ele>
        <time>2018-07-10T15:50:31Z</time>
      </trkpt>
      <trkpt lat="49.101134967058897" lon="6.479435032233596">
        <ele>223.63999999999999</ele>
        <time>2018-07-10T15:50:41Z</time>
      </trkpt>
      <trkpt lat="49.099853038787842" lon="6.481887996196747">
        <ele>222.19999999999999</ele>
        <time>2018-07-10T15:50:50Z</time>
      </trkpt>
      <trkpt lat="49.098051013424993" lon="6.485349973663688">
        <ele>224.12</ele>
        <time>2018-07-10T15:51:03Z</time>
      </trkpt>
      <trkpt lat="49.096545036882162" lon="6.488244999200106">
        <ele>230.84999999999999</ele>
        <time>2018-07-10T15:51:14Z</time>
      </trkpt>
      <trkpt lat="49.095867024734616" lon="6.489567998796701">
        <ele>233.74000000000001</ele>
        <time>2018-07-10T15:51:20Z</time>
      </trkpt>
      <trkpt lat="49.094881983473897" lon="6.491632964462042">
        <ele>231.81</ele>
        <time>2018-07-10T15:51:27Z</time>
      </trkpt>
      <trkpt lat="49.094473030418158" lon="6.493197027593851">
        <ele>230.37</ele>
        <time>2018-07-10T15:51:33Z</time>
      </trkpt>
      <trkpt lat="49.094388959929347" lon="6.49577203206718">
        <ele>230.84999999999999</ele>
        <time>2018-07-10T15:51:41Z</time>
      </trkpt>
      <trkpt lat="49.094626000151038" lon="6.497570034116507">
        <ele>231.33000000000001</ele>
        <time>2018-07-10T15:51:47Z</time>
      </trkpt>
      <trkpt lat="49.094959013164043" lon="6.499676993116736">
        <ele>227.97</ele>
        <time>2018-07-10T15:51:54Z</time>
      </trkpt>
      <trkpt lat="49.095276016741991" lon="6.501752017065883">
        <ele>227.49000000000001</ele>
        <time>2018-07-10T15:52:01Z</time>
      </trkpt>
      <trkpt lat="49.095443990081549" lon="6.50286303833127">
        <ele>227.00999999999999</ele>
        <time>2018-07-10T15:52:06Z</time>
      </trkpt>
      <trkpt lat="49.095657980069518" lon="6.504444032907486">
        <ele>224.61000000000001</ele>
        <time>2018-07-10T15:52:17Z</time>
      </trkpt>
      <trkpt lat="49.09570500254631" lon="6.505113998427987">
        <ele>224.12</ele>
        <time>2018-07-10T15:52:21Z</time>
      </trkpt>
      <trkpt lat="49.095695028081536" lon="6.505282977595925">
        <ele>223.63999999999999</ele>
        <time>2018-07-10T15:52:22Z</time>
      </trkpt>
      <trkpt lat="49.095646999776363" lon="6.505794022232294">
        <ele>224.12</ele>
        <time>2018-07-10T15:52:25Z</time>
      </trkpt>
      <trkpt lat="49.09546603448689" lon="6.506669009104371">
        <ele>226.05000000000001</ele>
        <time>2018-07-10T15:52:31Z</time>
      </trkpt>
      <trkpt lat="49.095433009788394" lon="6.506828013807535">
        <ele>226.05000000000001</ele>
        <time>2018-07-10T15:52:32Z</time>
      </trkpt>
      <trkpt lat="49.095433009788394" lon="6.507008979097009">
        <ele>227.00999999999999</ele>
        <time>2018-07-10T15:52:33Z</time>
      </trkpt>
      <trkpt lat="49.095441978424788" lon="6.507196985185146">
        <ele>227.00999999999999</ele>
        <time>2018-07-10T15:52:34Z</time>
      </trkpt>
      <trkpt lat="49.09546603448689" lon="6.507383985444903">
        <ele>227.49000000000001</ele>
        <time>2018-07-10T15:52:35Z</time>
      </trkpt>
      <trkpt lat="49.095839029178023" lon="6.510271970182657">
        <ele>232.78</ele>
        <time>2018-07-10T15:52:50Z</time>
      </trkpt>
      <trkpt lat="49.096183022484183" lon="6.512048011645675">
        <ele>237.58000000000001</ele>
        <time>2018-07-10T15:52:57Z</time>
      </trkpt>
      <trkpt lat="49.096910990774632" lon="6.513503026217222">
        <ele>243.83000000000001</ele>
        <time>2018-07-10T15:53:04Z</time>
      </trkpt>
      <trkpt lat="49.098226027563214" lon="6.515452992171049">
        <ele>250.08000000000001</ele>
        <time>2018-07-10T15:53:13Z</time>
      </trkpt>
      <trkpt lat="49.099727980792522" lon="6.517627006396651">
        <ele>252</ele>
        <time>2018-07-10T15:53:21Z</time>
      </trkpt>
      <trkpt lat="49.101623967289925" lon="6.520369984209538">
        <ele>256.32999999999998</ele>
        <time>2018-07-10T15:53:32Z</time>
      </trkpt>
      <trkpt lat="49.103539986535907" lon="6.523134000599384">
        <ele>253.93000000000001</ele>
        <time>2018-07-10T15:53:42Z</time>
      </trkpt>
      <trkpt lat="49.105576034635305" lon="6.526070013642311">
        <ele>253.93000000000001</ele>
        <time>2018-07-10T15:53:54Z</time>
      </trkpt>
      <trkpt lat="49.107050998136401" lon="6.528197005391121">
        <ele>256.32999999999998</ele>
        <time>2018-07-10T15:54:03Z</time>
      </trkpt>
      <trkpt lat="49.107984993606806" lon="6.529574990272522">
        <ele>257.76999999999998</ele>
        <time>2018-07-10T15:54:10Z</time>
      </trkpt>
      <trkpt lat="49.10833896137774" lon="6.530250990763307">
        <ele>257.76999999999998</ele>
        <time>2018-07-10T15:54:14Z</time>
      </trkpt>
      <trkpt lat="49.108415991067886" lon="6.530441008508205">
        <ele>257.76999999999998</ele>
        <time>2018-07-10T15:54:15Z</time>
      </trkpt>
      <trkpt lat="49.10846502520144" lon="6.530651981011033">
        <ele>257.29000000000002</ele>
        <time>2018-07-10T15:54:16Z</time>
      </trkpt>
      <trkpt lat="49.108504001051188" lon="6.530873011797667">
        <ele>257.29000000000002</ele>
        <time>2018-07-10T15:54:17Z</time>
      </trkpt>
      <trkpt lat="49.108543982729316" lon="6.53109697625041">
        <ele>257.29000000000002</ele>
        <time>2018-07-10T15:54:18Z</time>
      </trkpt>
      <trkpt lat="49.10902502015233" lon="6.534113958477974">
        <ele>260.64999999999998</ele>
        <time>2018-07-10T15:54:32Z</time>
      </trkpt>
      <trkpt lat="49.109512008726597" lon="6.53709095902741">
        <ele>261.13999999999999</ele>
        <time>2018-07-10T15:54:47Z</time>
      </trkpt>
      <trkpt lat="49.109945017844439" lon="6.53971198014915">
        <ele>269.31</ele>
        <time>2018-07-10T15:54:58Z</time>
      </trkpt>
      <trkpt lat="49.110532002523541" lon="6.541959000751376">
        <ele>279.88</ele>
        <time>2018-07-10T15:55:05Z</time>
      </trkpt>
      <trkpt lat="49.11181602627039" lon="6.545959012582898">
        <ele>300.55000000000001</ele>
        <time>2018-07-10T15:55:16Z</time>
      </trkpt>
      <trkpt lat="49.113219995051622" lon="6.549301967024803">
        <ele>317.37</ele>
        <time>2018-07-10T15:55:25Z</time>
      </trkpt>
      <trkpt lat="49.113619979470968" lon="6.550867035984993">
        <ele>325.06</ele>
        <time>2018-07-10T15:55:29Z</time>
      </trkpt>
      <trkpt lat="49.113888032734394" lon="6.553528038784862">
        <ele>335.16000000000003</ele>
        <time>2018-07-10T15:55:36Z</time>
      </trkpt>
      <trkpt lat="49.114045025780797" lon="6.555602978914976">
        <ele>342.37</ele>
        <time>2018-07-10T15:55:43Z</time>
      </trkpt>
      <trkpt lat="49.114378038793802" lon="6.559900967404246">
        <ele>352.94</ele>
        <time>2018-07-10T15:55:55Z</time>
      </trkpt>
      <trkpt lat="49.114815993234515" lon="6.562190987169743">
        <ele>359.19</ele>
        <time>2018-07-10T15:56:02Z</time>
      </trkpt>
      <trkpt lat="49.116077972576022" lon="6.565310982987285">
        <ele>363.04000000000002</ele>
        <time>2018-07-10T15:56:13Z</time>
      </trkpt>
      <trkpt lat="49.117392003536224" lon="6.568701965734363">
        <ele>366.39999999999998</ele>
        <time>2018-07-10T15:56:26Z</time>
      </trkpt>
      <trkpt lat="49.118473017588258" lon="6.572493016719818">
        <ele>364.48000000000002</ele>
        <time>2018-07-10T15:56:39Z</time>
      </trkpt>
      <trkpt lat="49.118956988677382" lon="6.575007000938058">
        <ele>362.55000000000001</ele>
        <time>2018-07-10T15:56:47Z</time>
      </trkpt>
      <trkpt lat="49.119276003912091" lon="6.579735986888409">
        <ele>363.51999999999998</ele>
        <time>2018-07-10T15:57:02Z</time>
      </trkpt>
      <trkpt lat="49.119623014703393" lon="6.581916958093643">
        <ele>363.04000000000002</ele>
        <time>2018-07-10T15:57:10Z</time>
      </trkpt>
      <trkpt lat="49.120041020214558" lon="6.584160039201379">
        <ele>366.39999999999998</ele>
        <time>2018-07-10T15:57:20Z</time>
      </trkpt>
      <trkpt lat="49.120400017127395" lon="6.586303962394595">
        <ele>364.48000000000002</ele>
        <time>2018-07-10T15:57:30Z</time>
      </trkpt>
      <trkpt lat="49.120778040960431" lon="6.588564980775118">
        <ele>364.95999999999998</ele>
        <time>2018-07-10T15:57:42Z</time>
      </trkpt>
      <trkpt lat="49.121223036199808" lon="6.591160017997026">
        <ele>367.83999999999997</ele>
        <time>2018-07-10T15:57:57Z</time>
      </trkpt>
      <trkpt lat="49.121493017300963" lon="6.592920972034335">
        <ele>369.27999999999997</ele>
        <time>2018-07-10T15:58:05Z</time>
      </trkpt>
      <trkpt lat="49.12167901173234" lon="6.595137985423207">
        <ele>371.69</ele>
        <time>2018-07-10T15:58:12Z</time>
      </trkpt>
      <trkpt lat="49.121395032852888" lon="6.597625985741615">
        <ele>373.61000000000001</ele>
        <time>2018-07-10T15:58:19Z</time>
      </trkpt>
      <trkpt lat="49.120825985446572" lon="6.602024976164103">
        <ele>379.38</ele>
        <time>2018-07-10T15:58:30Z</time>
      </trkpt>
      <trkpt lat="49.1203030385077" lon="6.606934005394578">
        <ele>392.36000000000001</ele>
        <time>2018-07-10T15:58:42Z</time>
      </trkpt>
      <trkpt lat="49.119787970557809" lon="6.611581016331911">
        <ele>406.76999999999998</ele>
        <time>2018-07-10T15:58:56Z</time>
      </trkpt>
      <trkpt lat="49.119730973616242" lon="6.611882010474801">
        <ele>407.25999999999999</ele>
        <time>2018-07-10T15:58:57Z</time>
      </trkpt>
      <trkpt lat="49.119677999988198" lon="6.612165989354253">
        <ele>407.25999999999999</ele>
        <time>2018-07-10T15:58:58Z</time>
      </trkpt>
      <trkpt lat="49.119589990004897" lon="6.612419961020351">
        <ele>407.25999999999999</ele>
        <time>2018-07-10T15:58:59Z</time>
      </trkpt>
      <trkpt lat="49.119484964758158" lon="6.6126539837569">
        <ele>406.76999999999998</ele>
        <time>2018-07-10T15:59:00Z</time>
      </trkpt>
      <trkpt lat="49.119357978925109" lon="6.612859005108476">
        <ele>406.29000000000002</ele>
        <time>2018-07-10T15:59:01Z</time>
      </trkpt>
      <trkpt lat="49.11920802667737" lon="6.613034019246697">
        <ele>405.81</ele>
        <time>2018-07-10T15:59:02Z</time>
      </trkpt>
      <trkpt lat="49.119048016145825" lon="6.613181037828326">
        <ele>405.32999999999998</ele>
        <time>2018-07-10T15:59:03Z</time>
      </trkpt>
      <trkpt lat="49.118865039199591" lon="6.613278016448021">
        <ele>404.37</ele>
        <time>2018-07-10T15:59:04Z</time>
      </trkpt>
      <trkpt lat="49.118679966777563" lon="6.613340964540839">
        <ele>403.41000000000003</ele>
        <time>2018-07-10T15:59:05Z</time>
      </trkpt>
      <trkpt lat="49.118485003709793" lon="6.613379018381238">
        <ele>401.97000000000003</ele>
        <time>2018-07-10T15:59:06Z</time>
      </trkpt>
      <trkpt lat="49.118288028985262" lon="6.61336300894618">
        <ele>401.00999999999999</ele>
        <time>2018-07-10T15:59:07Z</time>
      </trkpt>
      <trkpt lat="49.118086025118828" lon="6.613346999511123">
        <ele>399.56999999999999</ele>
        <time>2018-07-10T15:59:08Z</time>
      </trkpt>
      <trkpt lat="49.117875974625349" lon="6.613316992297769">
        <ele>397.63999999999999</ele>
        <time>2018-07-10T15:59:09Z</time>
      </trkpt>
      <trkpt lat="49.115995997563004" lon="6.61316997371614">
        <ele>385.63</ele>
        <time>2018-07-10T15:59:18Z</time>
      </trkpt>
      <trkpt lat="49.115390991792083" lon="6.613252032548189">
        <ele>381.30000000000001</ele>
        <time>2018-07-10T15:59:21Z</time>
      </trkpt>
      <trkpt lat="49.115209020674229" lon="6.613334007561207">
        <ele>380.33999999999997</ele>
        <time>2018-07-10T15:59:22Z</time>
      </trkpt>
      <trkpt lat="49.115029983222485" lon="6.613415982574225">
        <ele>378.89999999999998</ele>
        <time>2018-07-10T15:59:23Z</time>
      </trkpt>
      <trkpt lat="49.11486703902483" lon="6.613545985892415">
        <ele>377.94</ele>
        <time>2018-07-10T15:59:24Z</time>
      </trkpt>
      <trkpt lat="49.114711973816156" lon="6.613710019737482">
        <ele>376.49000000000001</ele>
        <time>2018-07-10T15:59:25Z</time>
      </trkpt>
      <trkpt lat="49.114552969112992" lon="6.61387899890542">
        <ele>375.52999999999997</ele>
        <time>2018-07-10T15:59:26Z</time>
      </trkpt>
      <trkpt lat="49.113299958407879" lon="6.61510200239718">
        <ele>366.39999999999998</ele>
        <time>2018-07-10T15:59:34Z</time>
      </trkpt>
      <trkpt lat="49.111729022115469" lon="6.616885000839829">
        <ele>352.94</ele>
        <time>2018-07-10T15:59:45Z</time>
      </trkpt>
      <trkpt lat="49.111457029357553" lon="6.61727299913764">
        <ele>350.06</ele>
        <time>2018-07-10T15:59:48Z</time>
      </trkpt>
      <trkpt lat="49.111416041851044" lon="6.617411971092224">
        <ele>349.10000000000002</ele>
        <time>2018-07-10T15:59:49Z</time>
      </trkpt>
      <trkpt lat="49.111375976353884" lon="6.617545997723937">
        <ele>348.13</ele>
        <time>2018-07-10T15:59:50Z</time>
      </trkpt>
      <trkpt lat="49.111413024365902" lon="6.617694022133946">
        <ele>347.64999999999998</ele>
        <time>2018-07-10T15:59:51Z</time>
      </trkpt>
      <trkpt lat="49.111449988558888" lon="6.617840034887195">
        <ele>346.69</ele>
        <time>2018-07-10T15:59:52Z</time>
      </trkpt>
      <trkpt lat="49.111525006592274" lon="6.617953022941947">
        <ele>345.73000000000002</ele>
        <time>2018-07-10T15:59:53Z</time>
      </trkpt>
      <trkpt lat="49.111621985211968" lon="6.618041032925248">
        <ele>344.76999999999998</ele>
        <time>2018-07-10T15:59:54Z</time>
      </trkpt>
      <trkpt lat="49.111738996580243" lon="6.618057964369655">
        <ele>343.32999999999998</ele>
        <time>2018-07-10T15:59:55Z</time>
      </trkpt>
      <trkpt lat="49.111858019605279" lon="6.618023011833429">
        <ele>342.37</ele>
        <time>2018-07-10T15:59:56Z</time>
      </trkpt>
      <trkpt lat="49.11198802292347" lon="6.617967020720244">
        <ele>341.41000000000003</ele>
        <time>2018-07-10T15:59:57Z</time>
      </trkpt>
      <trkpt lat="49.112124983221292" lon="6.617860989645124">
        <ele>339.95999999999998</ele>
        <time>2018-07-10T15:59:58Z</time>
      </trkpt>
      <trkpt lat="49.112273007631302" lon="6.61774598993361">
        <ele>338.51999999999998</ele>
        <time>2018-07-10T15:59:59Z</time>
      </trkpt>
      <trkpt lat="49.113191999495029" lon="6.617233017459512">
        <ele>332.26999999999998</ele>
        <time>2018-07-10T16:00:04Z</time>
      </trkpt>
      <trkpt lat="49.113833969458938" lon="6.617005029693246">
        <ele>326.5</ele>
        <time>2018-07-10T16:00:08Z</time>
      </trkpt>
      <trkpt lat="49.114275025203824" lon="6.616901010274887">
        <ele>325.06</ele>
        <time>2018-07-10T16:00:09Z</time>
      </trkpt>
      <trkpt lat="49.114485997706652" lon="6.616880977526307">
        <ele>323.62</ele>
        <time>2018-07-10T16:00:10Z</time>
      </trkpt>
      <trkpt lat="49.114688001573086" lon="6.616880977526307">
        <ele>322.18000000000001</ele>
        <time>2018-07-10T16:00:11Z</time>
      </trkpt>
      <trkpt lat="49.114880030974746" lon="6.616998994722962">
        <ele>320.74000000000001</ele>
        <time>2018-07-10T16:00:12Z</time>
      </trkpt>
      <trkpt lat="49.115056972950697" lon="6.617117011919618">
        <ele>319.77999999999997</ele>
        <time>2018-07-10T16:00:13Z</time>
      </trkpt>
      <trkpt lat="49.11523399874568" lon="6.617240980267525">
        <ele>318.81</ele>
        <time>2018-07-10T16:00:14Z</time>
      </trkpt>
      <trkpt lat="49.115400966256857" lon="6.617408031597734">
        <ele>318.32999999999998</ele>
        <time>2018-07-10T16:00:15Z</time>
      </trkpt>
      <trkpt lat="49.115541027858853" lon="6.617633001878858">
        <ele>317.37</ele>
        <time>2018-07-10T16:00:16Z</time>
      </trkpt>
      <trkpt lat="49.115671031177044" lon="6.617866018787026">
        <ele>316.41000000000003</ele>
        <time>2018-07-10T16:00:17Z</time>
      </trkpt>
      <trkpt lat="49.11579298786819" lon="6.618115967139602">
        <ele>315.44999999999999</ele>
        <time>2018-07-10T16:00:18Z</time>
      </trkpt>
      <trkpt lat="49.115880997851491" lon="6.61841101013124">
        <ele>314.49000000000001</ele>
        <time>2018-07-10T16:00:19Z</time>
      </trkpt>
      <trkpt lat="49.115926008671522" lon="6.618716027587652">
        <ele>313.05000000000001</ele>
        <time>2018-07-10T16:00:20Z</time>
      </trkpt>
      <trkpt lat="49.115968002006412" lon="6.619005035609007">
        <ele>312.08999999999997</ele>
        <time>2018-07-10T16:00:21Z</time>
      </trkpt>
      <trkpt lat="49.115968002006412" lon="6.619341988116503">
        <ele>310.63999999999999</ele>
        <time>2018-07-10T16:00:22Z</time>
      </trkpt>
      <trkpt lat="49.115954004228115" lon="6.619663015007973">
        <ele>309.68000000000001</ele>
        <time>2018-07-10T16:00:23Z</time>
      </trkpt>
      <trkpt lat="49.115916034206748" lon="6.619985969737172">
        <ele>308.24000000000001</ele>
        <time>2018-07-10T16:00:24Z</time>
      </trkpt>
      <trkpt lat="49.115874962881207" lon="6.620314959436655">
        <ele>306.80000000000001</ele>
        <time>2018-07-10T16:00:25Z</time>
      </trkpt>
      <trkpt lat="49.11542896181345" lon="6.623038994148374">
        <ele>296.69999999999999</ele>
        <time>2018-07-10T16:00:33Z</time>
      </trkpt>
      <trkpt lat="49.114910960197449" lon="6.626348001882434">
        <ele>285.17000000000002</ele>
        <time>2018-07-10T16:00:43Z</time>
      </trkpt>
      <trkpt lat="49.114894028753042" lon="6.62752197124064">
        <ele>278.92000000000002</ele>
        <time>2018-07-10T16:00:49Z</time>
      </trkpt>
      <trkpt lat="49.114844994619489" lon="6.629319973289967">
        <ele>275.06999999999999</ele>
        <time>2018-07-10T16:00:59Z</time>
      </trkpt>
      <trkpt lat="49.114796966314316" lon="6.632217010483146">
        <ele>272.19</ele>
        <time>2018-07-10T16:01:15Z</time>
      </trkpt>
      <trkpt lat="49.114706022664905" lon="6.63512796163559">
        <ele>266.89999999999998</ele>
        <time>2018-07-10T16:01:31Z</time>
      </trkpt>
      <trkpt lat="49.114853041246533" lon="6.636905008926988">
        <ele>258.73000000000002</ele>
        <time>2018-07-10T16:01:41Z</time>
      </trkpt>
      <trkpt lat="49.115267023444176" lon="6.639121016487479">
        <ele>254.41</ele>
        <time>2018-07-10T16:01:54Z</time>
      </trkpt>
      <trkpt lat="49.115925002843142" lon="6.641048016026616">
        <ele>255.37</ele>
        <time>2018-07-10T16:02:06Z</time>
      </trkpt>
      <trkpt lat="49.11682303994894" lon="6.643587984144688">
        <ele>257.29000000000002</ele>
        <time>2018-07-10T16:02:22Z</time>
      </trkpt>
      <trkpt lat="49.11721296608448" lon="6.644711997359991">
        <ele>255.84999999999999</ele>
        <time>2018-07-10T16:02:30Z</time>
      </trkpt>
      <trkpt lat="49.117226963862777" lon="6.644832026213408">
        <ele>255.37</ele>
        <time>2018-07-10T16:02:31Z</time>
      </trkpt>
      <trkpt lat="49.117238027974963" lon="6.644922969862819">
        <ele>255.37</ele>
        <time>2018-07-10T16:02:32Z</time>
      </trkpt>
      <trkpt lat="49.117246996611357" lon="6.644998993724585">
        <ele>254.88999999999999</ele>
        <time>2018-07-10T16:02:33Z</time>
      </trkpt>
      <trkpt lat="49.117191005498171" lon="6.645119022578001">
        <ele>254.41</ele>
        <time>2018-07-10T16:02:34Z</time>
      </trkpt>
      <trkpt lat="49.117187988013029" lon="6.645277021452785">
        <ele>253.44</ele>
        <time>2018-07-10T16:02:36Z</time>
      </trkpt>
      <trkpt lat="49.1172119602561" lon="6.645374000072479">
        <ele>252.96000000000001</ele>
        <time>2018-07-10T16:02:37Z</time>
      </trkpt>
      <trkpt lat="49.11721003241837" lon="6.645464021712542">
        <ele>252.96000000000001</ele>
        <time>2018-07-10T16:02:38Z</time>
      </trkpt>
      <trkpt lat="49.117206009104848" lon="6.645551025867462">
        <ele>252.47999999999999</ele>
        <time>2018-07-10T16:02:39Z</time>
      </trkpt>
      <trkpt lat="49.117202991619706" lon="6.645640041679144">
        <ele>252.47999999999999</ele>
        <time>2018-07-10T16:02:40Z</time>
      </trkpt>
      <trkpt lat="49.117199974134564" lon="6.645731991156936">
        <ele>252</ele>
        <time>2018-07-10T16:02:41Z</time>
      </trkpt>
      <trkpt lat="49.117196034640074" lon="6.64582503028214">
        <ele>252</ele>
        <time>2018-07-10T16:02:42Z</time>
      </trkpt>
      <trkpt lat="49.117193017154932" lon="6.645919997245073">
        <ele>251.52000000000001</ele>
        <time>2018-07-10T16:02:43Z</time>
      </trkpt>
      <trkpt lat="49.117148006334901" lon="6.646042037755251">
        <ele>251.52000000000001</ele>
        <time>2018-07-10T16:02:44Z</time>
      </trkpt>
      <trkpt lat="49.117148006334901" lon="6.646118983626366">
        <ele>251.52000000000001</ele>
        <time>2018-07-10T16:02:45Z</time>
      </trkpt>
      <trkpt lat="49.117148006334901" lon="6.646171035245061">
        <ele>251.03999999999999</ele>
        <time>2018-07-10T16:02:46Z</time>
      </trkpt>
      <trkpt lat="49.117219001054764" lon="6.646340014412999">
        <ele>250.56</ele>
        <time>2018-07-10T16:02:47Z</time>
      </trkpt>
      <trkpt lat="49.117197962477803" lon="6.64645099081099">
        <ele>250.08000000000001</ele>
        <time>2018-07-10T16:02:48Z</time>
      </trkpt>
      <trkpt lat="49.117174996063113" lon="6.646574959158897">
        <ele>249.59999999999999</ele>
        <time>2018-07-10T16:02:49Z</time>
      </trkpt>
      <trkpt lat="49.117152029648423" lon="6.646703034639359">
        <ele>249.12</ele>
        <time>2018-07-10T16:02:50Z</time>
      </trkpt>
      <trkpt lat="49.11712696775794" lon="6.646833959966898">
        <ele>248.63999999999999</ele>
        <time>2018-07-10T16:02:51Z</time>
      </trkpt>
      <trkpt lat="49.116884982213378" lon="6.648315964266658">
        <ele>249.12</ele>
        <time>2018-07-10T16:03:00Z</time>
      </trkpt>
      <trkpt lat="49.116665041074157" lon="6.650611013174057">
        <ele>250.56</ele>
        <time>2018-07-10T16:03:13Z</time>
      </trkpt>
      <trkpt lat="49.116430012509227" lon="6.652928022667766">
        <ele>256.81</ele>
        <time>2018-07-10T16:03:25Z</time>
      </trkpt>
      <trkpt lat="49.116206970065832" lon="6.655292976647615">
        <ele>262.57999999999998</ele>
        <time>2018-07-10T16:03:33Z</time>
      </trkpt>
      <trkpt lat="49.115788964554667" lon="6.65929801762104">
        <ele>270.26999999999998</ele>
        <time>2018-07-10T16:03:45Z</time>
      </trkpt>
      <trkpt lat="49.11540700122714" lon="6.661272961646318">
        <ele>266.42000000000002</ele>
        <time>2018-07-10T16:03:52Z</time>
      </trkpt>
      <trkpt lat="49.114914983510971" lon="6.663412023335695">
        <ele>261.62</ele>
        <time>2018-07-10T16:04:02Z</time>
      </trkpt>
      <trkpt lat="49.114821022376418" lon="6.663745958358049">
        <ele>260.64999999999998</ele>
        <time>2018-07-10T16:04:05Z</time>
      </trkpt>
      <trkpt lat="49.11471800878644" lon="6.664033960551024">
        <ele>259.69</ele>
        <time>2018-07-10T16:04:06Z</time>
      </trkpt>
      <trkpt lat="49.114662017673254" lon="6.664146026596427">
        <ele>259.20999999999998</ele>
        <time>2018-07-10T16:04:07Z</time>
      </trkpt>
      <trkpt lat="49.114613989368081" lon="6.664241999387741">
        <ele>258.73000000000002</ele>
        <time>2018-07-10T16:04:08Z</time>
      </trkpt>
      <trkpt lat="49.114422965794802" lon="6.664237976074219">
        <ele>258.25</ele>
        <time>2018-07-10T16:04:09Z</time>
      </trkpt>
      <trkpt lat="49.114402011036873" lon="6.664237976074219">
        <ele>257.76999999999998</ele>
        <time>2018-07-10T16:04:10Z</time>
      </trkpt>
      <trkpt lat="49.114402011036873" lon="6.664237976074219">
        <ele>257.29000000000002</ele>
        <time>2018-07-10T16:04:11Z</time>
      </trkpt>
      <trkpt lat="49.114234037697315" lon="6.664351969957352">
        <ele>256.81</ele>
        <time>2018-07-10T16:04:12Z</time>
      </trkpt>
      <trkpt lat="49.114143010228872" lon="6.664462024345994">
        <ele>256.81</ele>
        <time>2018-07-10T16:04:13Z</time>
      </trkpt>
      <trkpt lat="49.114117026329041" lon="6.664600996300578">
        <ele>256.81</ele>
        <time>2018-07-10T16:04:14Z</time>
      </trkpt>
      <trkpt lat="49.114140998572111" lon="6.664787996560335">
        <ele>256.32999999999998</ele>
        <time>2018-07-10T16:04:15Z</time>
      </trkpt>
      <trkpt lat="49.114192966371775" lon="6.664916994050145">
        <ele>256.32999999999998</ele>
        <time>2018-07-10T16:04:16Z</time>
      </trkpt>
      <trkpt lat="49.114234959706664" lon="6.665085973218083">
        <ele>256.32999999999998</ele>
        <time>2018-07-10T16:04:17Z</time>
      </trkpt>
      <trkpt lat="49.114251974970102" lon="6.665473971515894">
        <ele>256.32999999999998</ele>
        <time>2018-07-10T16:04:19Z</time>
      </trkpt>
      <trkpt lat="49.114251974970102" lon="6.665696008130908">
        <ele>256.32999999999998</ele>
        <time>2018-07-10T16:04:20Z</time>
      </trkpt>
      <trkpt lat="49.114251974970102" lon="6.665975963696837">
        <ele>256.32999999999998</ele>
        <time>2018-07-10T16:04:21Z</time>
      </trkpt>
      <trkpt lat="49.114210987463593" lon="6.666210992261767">
        <ele>255.84999999999999</ele>
        <time>2018-07-10T16:04:22Z</time>
      </trkpt>
      <trkpt lat="49.114157008007169" lon="6.666504023596644">
        <ele>255.84999999999999</ele>
        <time>2018-07-10T16:04:23Z</time>
      </trkpt>
      <trkpt lat="49.114077966660261" lon="6.666809963062406">
        <ele>255.84999999999999</ele>
        <time>2018-07-10T16:04:24Z</time>
      </trkpt>
      <trkpt lat="49.113412024453282" lon="6.66967598721385">
        <ele>253.44</ele>
        <time>2018-07-10T16:04:32Z</time>
      </trkpt>
      <trkpt lat="49.112306032329798" lon="6.674502035602927">
        <ele>254.88999999999999</ele>
        <time>2018-07-10T16:04:45Z</time>
      </trkpt>
      <trkpt lat="49.111536992713809" lon="6.677691014483571">
        <ele>261.13999999999999</ele>
        <time>2018-07-10T16:04:55Z</time>
      </trkpt>
      <trkpt lat="49.110900973901153" lon="6.679720021784306">
        <ele>259.20999999999998</ele>
        <time>2018-07-10T16:05:04Z</time>
      </trkpt>
      <trkpt lat="49.110425971448421" lon="6.681228009983897">
        <ele>252.47999999999999</ele>
        <time>2018-07-10T16:05:13Z</time>
      </trkpt>
      <trkpt lat="49.110345002263784" lon="6.681400006636977">
        <ele>252</ele>
        <time>2018-07-10T16:05:15Z</time>
      </trkpt>
      <trkpt lat="49.110303008928895" lon="6.68149002827704">
        <ele>251.52000000000001</ele>
        <time>2018-07-10T16:05:16Z</time>
      </trkpt>
      <trkpt lat="49.110255986452103" lon="6.681549958884716">
        <ele>251.03999999999999</ele>
        <time>2018-07-10T16:05:17Z</time>
      </trkpt>
      <trkpt lat="49.110193038359284" lon="6.681608967483044">
        <ele>251.03999999999999</ele>
        <time>2018-07-10T16:05:18Z</time>
      </trkpt>
      <trkpt lat="49.110132018104196" lon="6.681639980524778">
        <ele>250.56</ele>
        <time>2018-07-10T16:05:19Z</time>
      </trkpt>
      <trkpt lat="49.110082983970642" lon="6.681725978851318">
        <ele>250.56</ele>
        <time>2018-07-10T16:05:20Z</time>
      </trkpt>
      <trkpt lat="49.110046019777656" lon="6.681790016591549">
        <ele>250.08000000000001</ele>
        <time>2018-07-10T16:05:21Z</time>
      </trkpt>
      <trkpt lat="49.110046019777656" lon="6.681893030181527">
        <ele>250.08000000000001</ele>
        <time>2018-07-10T16:05:22Z</time>
      </trkpt>
      <trkpt lat="49.110046019777656" lon="6.681991014629602">
        <ele>249.59999999999999</ele>
        <time>2018-07-10T16:05:23Z</time>
      </trkpt>
      <trkpt lat="49.110046019777656" lon="6.682091010734439">
        <ele>249.59999999999999</ele>
        <time>2018-07-10T16:05:24Z</time>
      </trkpt>
      <trkpt lat="49.110025987029076" lon="6.682214979082346">
        <ele>249.12</ele>
        <time>2018-07-10T16:05:25Z</time>
      </trkpt>
      <trkpt lat="49.110006960108876" lon="6.682338025420904">
        <ele>249.12</ele>
        <time>2018-07-10T16:05:26Z</time>
      </trkpt>
      <trkpt lat="49.109984999522567" lon="6.682476997375488">
        <ele>249.12</ele>
        <time>2018-07-10T16:05:27Z</time>
      </trkpt>
      <trkpt lat="49.109600018709898" lon="6.683684997260571">
        <ele>247.68000000000001</ele>
        <time>2018-07-10T16:05:33Z</time>
      </trkpt>
      <trkpt lat="49.108794014900923" lon="6.686195963993669">
        <ele>245.75</ele>
        <time>2018-07-10T16:05:43Z</time>
      </trkpt>
      <trkpt lat="49.108223039656878" lon="6.688641970977187">
        <ele>242.87</ele>
        <time>2018-07-10T16:05:53Z</time>
      </trkpt>
      <trkpt lat="49.108106028288603" lon="6.689372034743428">
        <ele>240.94999999999999</ele>
        <time>2018-07-10T16:05:57Z</time>
      </trkpt>
      <trkpt lat="49.108082978054881" lon="6.689507989212871">
        <ele>240.47</ele>
        <time>2018-07-10T16:05:58Z</time>
      </trkpt>
      <trkpt lat="49.108021035790443" lon="6.689586024731398">
        <ele>239.99000000000001</ele>
        <time>2018-07-10T16:05:59Z</time>
      </trkpt>
      <trkpt lat="49.107900001108646" lon="6.689601028338075">
        <ele>239.50999999999999</ele>
        <time>2018-07-10T16:06:00Z</time>
      </trkpt>
      <trkpt lat="49.10784300416708" lon="6.689679985865951">
        <ele>239.50999999999999</ele>
        <time>2018-07-10T16:06:01Z</time>
      </trkpt>
      <trkpt lat="49.107777960598469" lon="6.689772019162774">
        <ele>239.02000000000001</ele>
        <time>2018-07-10T16:06:02Z</time>
      </trkpt>
      <trkpt lat="49.107717024162412" lon="6.689857011660934">
        <ele>239.02000000000001</ele>
        <time>2018-07-10T16:06:03Z</time>
      </trkpt>
      <trkpt lat="49.107686011120677" lon="6.690034959465265">
        <ele>239.02000000000001</ele>
        <time>2018-07-10T16:06:04Z</time>
      </trkpt>
      <trkpt lat="49.107686011120677" lon="6.690160017460585">
        <ele>238.53999999999999</ele>
        <time>2018-07-10T16:06:05Z</time>
      </trkpt>
      <trkpt lat="49.107699003070593" lon="6.690306030213833">
        <ele>238.53999999999999</ele>
        <time>2018-07-10T16:06:06Z</time>
      </trkpt>
      <trkpt lat="49.107739990577102" lon="6.690427986904979">
        <ele>238.53999999999999</ele>
        <time>2018-07-10T16:06:07Z</time>
      </trkpt>
      <trkpt lat="49.107810985296965" lon="6.690556984394789">
        <ele>238.06</ele>
        <time>2018-07-10T16:06:08Z</time>
      </trkpt>
      <trkpt lat="49.107900001108646" lon="6.690630996599793">
        <ele>238.06</ele>
        <time>2018-07-10T16:06:09Z</time>
      </trkpt>
      <trkpt lat="49.107979964464903" lon="6.690724035724998">
        <ele>238.06</ele>
        <time>2018-07-10T16:06:10Z</time>
      </trkpt>
      <trkpt lat="49.108046013861895" lon="6.690867030993104">
        <ele>238.53999999999999</ele>
        <time>2018-07-10T16:06:11Z</time>
      </trkpt>
      <trkpt lat="49.10807803273201" lon="6.691026035696268">
        <ele>239.02000000000001</ele>
        <time>2018-07-10T16:06:12Z</time>
      </trkpt>
      <trkpt lat="49.10812103189528" lon="6.691431971266866">
        <ele>239.99000000000001</ele>
        <time>2018-07-10T16:06:14Z</time>
      </trkpt>
      <trkpt lat="49.108269978314638" lon="6.693125031888485">
        <ele>240.47</ele>
        <time>2018-07-10T16:06:20Z</time>
      </trkpt>
      <trkpt lat="49.108787979930639" lon="6.695281025022268">
        <ele>239.99000000000001</ele>
        <time>2018-07-10T16:06:28Z</time>
      </trkpt>
      <trkpt lat="49.109402960166335" lon="6.696941982954741">
        <ele>238.06</ele>
        <time>2018-07-10T16:06:36Z</time>
      </trkpt>
      <trkpt lat="49.109709989279509" lon="6.697647990658879">
        <ele>237.58000000000001</ele>
        <time>2018-07-10T16:06:42Z</time>
      </trkpt>
      <trkpt lat="49.109746031463146" lon="6.69775502756238">
        <ele>237.58000000000001</ele>
        <time>2018-07-10T16:06:45Z</time>
      </trkpt>
      <trkpt lat="49.109709989279509" lon="6.697895005345345">
        <ele>238.06</ele>
        <time>2018-07-10T16:06:46Z</time>
      </trkpt>
      <trkpt lat="49.109704960137606" lon="6.698132967576385">
        <ele>238.06</ele>
        <time>2018-07-10T16:06:48Z</time>
      </trkpt>
      <trkpt lat="49.109767992049456" lon="6.698263976722956">
        <ele>238.06</ele>
        <time>2018-07-10T16:06:49Z</time>
      </trkpt>
      <trkpt lat="49.109834963455796" lon="6.698318962007761">
        <ele>237.58000000000001</ele>
        <time>2018-07-10T16:06:50Z</time>
      </trkpt>
      <trkpt lat="49.110262021422386" lon="6.699043996632099">
        <ele>238.06</ele>
        <time>2018-07-10T16:06:56Z</time>
      </trkpt>
      <trkpt lat="49.110962999984622" lon="6.700779972597957">
        <ele>240.94999999999999</ele>
        <time>2018-07-10T16:07:03Z</time>
      </trkpt>
      <trkpt lat="49.111681999638677" lon="6.703020958229899">
        <ele>248.16</ele>
        <time>2018-07-10T16:07:10Z</time>
      </trkpt>
      <trkpt lat="49.111863970756531" lon="6.704712007194758">
        <ele>254.41</ele>
        <time>2018-07-10T16:07:15Z</time>
      </trkpt>
      <trkpt lat="49.111898001283407" lon="6.708401972427964">
        <ele>264.01999999999998</ele>
        <time>2018-07-10T16:07:27Z</time>
      </trkpt>
      <trkpt lat="49.111908981576562" lon="6.711436975747347">
        <ele>264.5</ele>
        <time>2018-07-10T16:07:36Z</time>
      </trkpt>
      <trkpt lat="49.111464992165565" lon="6.71487900428474">
        <ele>256.32999999999998</ele>
        <time>2018-07-10T16:07:46Z</time>
      </trkpt>
      <trkpt lat="49.11059201695025" lon="6.719119995832443">
        <ele>250.56</ele>
        <time>2018-07-10T16:07:59Z</time>
      </trkpt>
      <trkpt lat="49.109895983710885" lon="6.722793029621244">
        <ele>248.16</ele>
        <time>2018-07-10T16:08:10Z</time>
      </trkpt>
      <trkpt lat="49.109462974593043" lon="6.727047013118863">
        <ele>236.13999999999999</ele>
        <time>2018-07-10T16:08:23Z</time>
      </trkpt>
      <trkpt lat="49.109245967119932" lon="6.729218009859324">
        <ele>234.69999999999999</ele>
        <time>2018-07-10T16:08:31Z</time>
      </trkpt>
      <trkpt lat="49.108986966311932" lon="6.73159402795136">
        <ele>232.78</ele>
        <time>2018-07-10T16:08:40Z</time>
      </trkpt>
      <trkpt lat="49.108823016285896" lon="6.733706016093493">
        <ele>231.81</ele>
        <time>2018-07-10T16:08:50Z</time>
      </trkpt>
      <trkpt lat="49.108798038214445" lon="6.734990039840341">
        <ele>231.33000000000001</ele>
        <time>2018-07-10T16:08:59Z</time>
      </trkpt>
      <trkpt lat="49.108783034607768" lon="6.735086012631655">
        <ele>231.33000000000001</ele>
        <time>2018-07-10T16:09:00Z</time>
      </trkpt>
      <trkpt lat="49.10876702517271" lon="6.735188020393252">
        <ele>231.81</ele>
        <time>2018-07-10T16:09:01Z</time>
      </trkpt>
      <trkpt lat="49.108693012967706" lon="6.735395975410938">
        <ele>232.30000000000001</ele>
        <time>2018-07-10T16:09:03Z</time>
      </trkpt>
      <trkpt lat="49.108713967725635" lon="6.735559003427625">
        <ele>232.78</ele>
        <time>2018-07-10T16:09:04Z</time>
      </trkpt>
      <trkpt lat="49.108758978545666" lon="6.735649025067687">
        <ele>232.78</ele>
        <time>2018-07-10T16:09:05Z</time>
      </trkpt>
      <trkpt lat="49.108758978545666" lon="6.735649025067687">
        <ele>232.78</ele>
        <time>2018-07-10T16:09:06Z</time>
      </trkpt>
      <trkpt lat="49.108813963830471" lon="6.735856980085373">
        <ele>232.78</ele>
        <time>2018-07-10T16:09:07Z</time>
      </trkpt>
      <trkpt lat="49.108844976872206" lon="6.735987989231944">
        <ele>232.78</ele>
        <time>2018-07-10T16:09:08Z</time>
      </trkpt>
      <trkpt lat="49.108850006014109" lon="6.736130984500051">
        <ele>232.78</ele>
        <time>2018-07-10T16:09:09Z</time>
      </trkpt>
      <trkpt lat="49.108855035156012" lon="6.736284960061312">
        <ele>232.78</ele>
        <time>2018-07-10T16:09:10Z</time>
      </trkpt>
      <trkpt lat="49.108909014612436" lon="6.737794959917665">
        <ele>232.78</ele>
        <time>2018-07-10T16:09:19Z</time>
      </trkpt>
      <trkpt lat="49.109037006273866" lon="6.739522973075509">
        <ele>227.97</ele>
        <time>2018-07-10T16:09:31Z</time>
      </trkpt>
      <trkpt lat="49.109032982960343" lon="6.739853974431753">
        <ele>227.00999999999999</ele>
        <time>2018-07-10T16:09:33Z</time>
      </trkpt>
      <trkpt lat="49.108954025432467" lon="6.740910010412335">
        <ele>225.09</ele>
        <time>2018-07-10T16:09:39Z</time>
      </trkpt>
      <trkpt lat="49.108942039310932" lon="6.74107002094388">
        <ele>224.61000000000001</ele>
        <time>2018-07-10T16:09:40Z</time>
      </trkpt>
      <trkpt lat="49.108827961608768" lon="6.741679972037673">
        <ele>224.61000000000001</ele>
        <time>2018-07-10T16:09:44Z</time>
      </trkpt>
      <trkpt lat="49.108772976323962" lon="6.741806035861373">
        <ele>224.61000000000001</ele>
        <time>2018-07-10T16:09:45Z</time>
      </trkpt>
      <trkpt lat="49.108710028231144" lon="6.741936961188912">
        <ele>224.61000000000001</ele>
        <time>2018-07-10T16:09:46Z</time>
      </trkpt>
      <trkpt lat="49.108652025461197" lon="6.74205900169909">
        <ele>224.61000000000001</ele>
        <time>2018-07-10T16:09:47Z</time>
      </trkpt>
      <trkpt lat="49.108597040176392" lon="6.742166960611939">
        <ele>224.61000000000001</ele>
        <time>2018-07-10T16:09:48Z</time>
      </trkpt>
      <trkpt lat="49.108535014092922" lon="6.742255976423621">
        <ele>224.61000000000001</ele>
        <time>2018-07-10T16:09:49Z</time>
      </trkpt>
      <trkpt lat="49.108116002753377" lon="6.742983022704721">
        <ele>224.12</ele>
        <time>2018-07-10T16:09:57Z</time>
      </trkpt>
      <trkpt lat="49.108081972226501" lon="6.743071032688022">
        <ele>224.12</ele>
        <time>2018-07-10T16:09:58Z</time>
      </trkpt>
      <trkpt lat="49.107884997501969" lon="6.743158958852291">
        <ele>224.61000000000001</ele>
        <time>2018-07-10T16:10:00Z</time>
      </trkpt>
      <trkpt lat="49.107763962820172" lon="6.74343497492373">
        <ele>225.09</ele>
        <time>2018-07-10T16:10:02Z</time>
      </trkpt>
      <trkpt lat="49.107656003907323" lon="6.743504963815212">
        <ele>225.09</ele>
        <time>2018-07-10T16:10:03Z</time>
      </trkpt>
      <trkpt lat="49.107531029731035" lon="6.743585010990501">
        <ele>225.56999999999999</ele>
        <time>2018-07-10T16:10:04Z</time>
      </trkpt>
      <trkpt lat="49.107387028634548" lon="6.743645025417209">
        <ele>226.53</ele>
        <time>2018-07-10T16:10:05Z</time>
      </trkpt>
      <trkpt lat="49.107234980911016" lon="6.743685007095337">
        <ele>227.00999999999999</ele>
        <time>2018-07-10T16:10:06Z</time>
      </trkpt>
      <trkpt lat="49.107075976207852" lon="6.743724988773465">
        <ele>228.44999999999999</ele>
        <time>2018-07-10T16:10:07Z</time>
      </trkpt>
      <trkpt lat="49.106911020353436" lon="6.743762958794832">
        <ele>229.88999999999999</ele>
        <time>2018-07-10T16:10:08Z</time>
      </trkpt>
      <trkpt lat="49.105825982987881" lon="6.743945013731718">
        <ele>236.13999999999999</ele>
        <time>2018-07-10T16:10:16Z</time>
      </trkpt>
      <trkpt lat="49.104694006964564" lon="6.744340974837542">
        <ele>242.38999999999999</ele>
        <time>2018-07-10T16:10:26Z</time>
      </trkpt>
      <trkpt lat="49.104573978111148" lon="6.744404006749392">
        <ele>242.38999999999999</ele>
        <time>2018-07-10T16:10:27Z</time>
      </trkpt>
      <trkpt lat="49.104495020583272" lon="6.744510037824512">
        <ele>243.34999999999999</ele>
        <time>2018-07-10T16:10:28Z</time>
      </trkpt>
      <trkpt lat="49.104417990893126" lon="6.744634006172419">
        <ele>243.83000000000001</ele>
        <time>2018-07-10T16:10:29Z</time>
      </trkpt>
      <trkpt lat="49.104357976466417" lon="6.74476501531899">
        <ele>244.31</ele>
        <time>2018-07-10T16:10:30Z</time>
      </trkpt>
      <trkpt lat="49.104316988959908" lon="6.744855036959052">
        <ele>244.78999999999999</ele>
        <time>2018-07-10T16:10:31Z</time>
      </trkpt>
      <trkpt lat="49.104227973148227" lon="6.745000965893269">
        <ele>245.27000000000001</ele>
        <time>2018-07-10T16:10:32Z</time>
      </trkpt>
      <trkpt lat="49.104154966771603" lon="6.745118983089924">
        <ele>245.75</ele>
        <time>2018-07-10T16:10:33Z</time>
      </trkpt>
      <trkpt lat="49.10408103838563" lon="6.745241023600102">
        <ele>245.75</ele>
        <time>2018-07-10T16:10:34Z</time>
      </trkpt>
      <trkpt lat="49.103992022573948" lon="6.745312018319964">
        <ele>246.22999999999999</ele>
        <time>2018-07-10T16:10:35Z</time>
      </trkpt>
      <trkpt lat="49.103894038125873" lon="6.74538997001946">
        <ele>246.22999999999999</ele>
        <time>2018-07-10T16:10:36Z</time>
      </trkpt>
      <trkpt lat="49.103132961317897" lon="6.745963962748647">
        <ele>247.68000000000001</ele>
        <time>2018-07-10T16:10:44Z</time>
      </trkpt>
      <trkpt lat="49.10307596437633" lon="6.746062031015754">
        <ele>247.68000000000001</ele>
        <time>2018-07-10T16:10:45Z</time>
      </trkpt>
      <trkpt lat="49.102760972455144" lon="6.746345004066825">
        <ele>246.22999999999999</ele>
        <time>2018-07-10T16:10:52Z</time>
      </trkpt>
      <trkpt lat="49.102703975513577" lon="6.746393032371998">
        <ele>246.22999999999999</ele>
        <time>2018-07-10T16:10:53Z</time>
      </trkpt>
      <trkpt lat="49.102647984400392" lon="6.746440976858139">
        <ele>245.75</ele>
        <time>2018-07-10T16:10:54Z</time>
      </trkpt>
      <trkpt lat="49.10262200050056" lon="6.746621020138264">
        <ele>245.75</ele>
        <time>2018-07-10T16:10:55Z</time>
      </trkpt>
      <trkpt lat="49.10262200050056" lon="6.7467210162431">
        <ele>245.75</ele>
        <time>2018-07-10T16:10:56Z</time>
      </trkpt>
      <trkpt lat="49.10262200050056" lon="6.7467210162431">
        <ele>244.78999999999999</ele>
        <time>2018-07-10T16:10:57Z</time>
      </trkpt>
      <trkpt lat="49.102721996605396" lon="6.746998960152268">
        <ele>244.31</ele>
        <time>2018-07-10T16:10:58Z</time>
      </trkpt>
      <trkpt lat="49.102696012705564" lon="6.747139021754265">
        <ele>244.31</ele>
        <time>2018-07-10T16:10:59Z</time>
      </trkpt>
      <trkpt lat="49.102667011320591" lon="6.747305989265442">
        <ele>244.31</ele>
        <time>2018-07-10T16:11:00Z</time>
      </trkpt>
      <trkpt lat="49.102637004107237" lon="6.747488966211677">
        <ele>244.78999999999999</ele>
        <time>2018-07-10T16:11:01Z</time>
      </trkpt>
      <trkpt lat="49.102355958893895" lon="6.749127041548491">
        <ele>248.16</ele>
        <time>2018-07-10T16:11:08Z</time>
      </trkpt>
      <trkpt lat="49.101756988093257" lon="6.752060959115624">
        <ele>257.29000000000002</ele>
        <time>2018-07-10T16:11:19Z</time>
      </trkpt>
      <trkpt lat="49.101186012849212" lon="6.754932012408972">
        <ele>259.20999999999998</ele>
        <time>2018-07-10T16:11:29Z</time>
      </trkpt>
      <trkpt lat="49.100755015388131" lon="6.757085993885994">
        <ele>265.45999999999998</ele>
        <time>2018-07-10T16:11:39Z</time>
      </trkpt>
      <trkpt lat="49.100333992391825" lon="6.759171998128295">
        <ele>268.35000000000002</ele>
        <time>2018-07-10T16:11:47Z</time>
      </trkpt>
      <trkpt lat="49.099719012156129" lon="6.762185040861368">
        <ele>271.70999999999998</ele>
        <time>2018-07-10T16:11:56Z</time>
      </trkpt>
      <trkpt lat="49.099015016108751" lon="6.765679037198424">
        <ele>273.63</ele>
        <time>2018-07-10T16:12:07Z</time>
      </trkpt>
      <trkpt lat="49.098636992275715" lon="6.767521966248751">
        <ele>270.75</ele>
        <time>2018-07-10T16:12:16Z</time>
      </trkpt>
      <trkpt lat="49.09800298511982" lon="6.770637016743422">
        <ele>272.19</ele>
        <time>2018-07-10T16:12:33Z</time>
      </trkpt>
      <trkpt lat="49.097562013193965" lon="6.772833997383714">
        <ele>275.06999999999999</ele>
        <time>2018-07-10T16:12:46Z</time>
      </trkpt>
      <trkpt lat="49.096956001594663" lon="6.775843016803265">
        <ele>278.92000000000002</ele>
        <time>2018-07-10T16:13:02Z</time>
      </trkpt>
      <trkpt lat="49.096436994150281" lon="6.778474012389779">
        <ele>285.64999999999998</ele>
        <time>2018-07-10T16:13:16Z</time>
      </trkpt>
      <trkpt lat="49.0960059966892" lon="6.780631011351943">
        <ele>283.25</ele>
        <time>2018-07-10T16:13:25Z</time>
      </trkpt>
      <trkpt lat="49.095448013395071" lon="6.783397039398551">
        <ele>285.17000000000002</ele>
        <time>2018-07-10T16:13:34Z</time>
      </trkpt>
      <trkpt lat="49.095263024792075" lon="6.784925982356072">
        <ele>288.05000000000001</ele>
        <time>2018-07-10T16:13:41Z</time>
      </trkpt>
      <trkpt lat="49.095234023407102" lon="6.785063026472926">
        <ele>288.05000000000001</ele>
        <time>2018-07-10T16:13:42Z</time>
      </trkpt>
      <trkpt lat="49.095207033678889" lon="6.785194035619497">
        <ele>288.52999999999997</ele>
        <time>2018-07-10T16:13:43Z</time>
      </trkpt>
      <trkpt lat="49.095196975395083" lon="6.785238040611148">
        <ele>288.52999999999997</ele>
        <time>2018-07-10T16:13:44Z</time>
      </trkpt>
      <trkpt lat="49.095155987888575" lon="6.785438032820821">
        <ele>288.52999999999997</ele>
        <time>2018-07-10T16:13:45Z</time>
      </trkpt>
      <trkpt lat="49.095184989273548" lon="6.785553032532334">
        <ele>288.52999999999997</ele>
        <time>2018-07-10T16:13:46Z</time>
      </trkpt>
      <trkpt lat="49.095196975395083" lon="6.785602988675237">
        <ele>289.00999999999999</ele>
        <time>2018-07-10T16:13:47Z</time>
      </trkpt>
      <trkpt lat="49.095291020348668" lon="6.785602988675237">
        <ele>289.00999999999999</ele>
        <time>2018-07-10T16:13:48Z</time>
      </trkpt>
      <trkpt lat="49.09542596898973" lon="6.78569401614368">
        <ele>289.49000000000001</ele>
        <time>2018-07-10T16:13:49Z</time>
      </trkpt>
      <trkpt lat="49.095472991466522" lon="6.785812033340335">
        <ele>289.49000000000001</ele>
        <time>2018-07-10T16:13:50Z</time>
      </trkpt>
      <trkpt lat="49.095528982579708" lon="6.78595301695168">
        <ele>289.97000000000003</ele>
        <time>2018-07-10T16:13:51Z</time>
      </trkpt>
      <trkpt lat="49.095592014491558" lon="6.786114033311606">
        <ele>289.97000000000003</ele>
        <time>2018-07-10T16:13:52Z</time>
      </trkpt>
      <trkpt lat="49.095663009211421" lon="6.786292986944318">
        <ele>290.45999999999998</ele>
        <time>2018-07-10T16:13:53Z</time>
      </trkpt>
      <trkpt lat="49.09572402946651" lon="6.786501025781035">
        <ele>290.45999999999998</ele>
        <time>2018-07-10T16:13:54Z</time>
      </trkpt>
      <trkpt lat="49.095787983387709" lon="6.786721972748637">
        <ele>290.94</ele>
        <time>2018-07-10T16:13:55Z</time>
      </trkpt>
      <trkpt lat="49.096330041065812" lon="6.78861603140831">
        <ele>295.25999999999999</ele>
        <time>2018-07-10T16:14:03Z</time>
      </trkpt>
      <trkpt lat="49.097570981830359" lon="6.792791979387403">
        <ele>298.63</ele>
        <time>2018-07-10T16:14:15Z</time>
      </trkpt>
      <trkpt lat="49.09866901114583" lon="6.796235013753176">
        <ele>300.06999999999999</ele>
        <time>2018-07-10T16:14:26Z</time>
      </trkpt>
      <trkpt lat="49.099478032439947" lon="6.798723014071584">
        <ele>301.99000000000001</ele>
        <time>2018-07-10T16:14:35Z</time>
      </trkpt>
      <trkpt lat="49.099901989102364" lon="6.800035033375025">
        <ele>304.38999999999999</ele>
        <time>2018-07-10T16:14:42Z</time>
      </trkpt>
      <trkpt lat="49.099894026294351" lon="6.800166964530945">
        <ele>304.38999999999999</ele>
        <time>2018-07-10T16:14:43Z</time>
      </trkpt>
      <trkpt lat="49.099874999374151" lon="6.800408028066158">
        <ele>304.88</ele>
        <time>2018-07-10T16:14:45Z</time>
      </trkpt>
      <trkpt lat="49.099917998537421" lon="6.800494026392698">
        <ele>304.88</ele>
        <time>2018-07-10T16:14:46Z</time>
      </trkpt>
      <trkpt lat="49.100125031545758" lon="6.80062604136765">
        <ele>305.36000000000001</ele>
        <time>2018-07-10T16:14:48Z</time>
      </trkpt>
      <trkpt lat="49.100159984081984" lon="6.800755960866809">
        <ele>305.36000000000001</ele>
        <time>2018-07-10T16:14:49Z</time>
      </trkpt>
      <trkpt lat="49.100202983245254" lon="6.800914965569973">
        <ele>304.88</ele>
        <time>2018-07-10T16:14:50Z</time>
      </trkpt>
      <trkpt lat="49.100634986534715" lon="6.802318012341857">
        <ele>305.83999999999997</ele>
        <time>2018-07-10T16:14:56Z</time>
      </trkpt>
      <trkpt lat="49.101539980620146" lon="6.805221000686288">
        <ele>306.80000000000001</ele>
        <time>2018-07-10T16:15:05Z</time>
      </trkpt>
      <trkpt lat="49.102633986622095" lon="6.808667974546552">
        <ele>305.83999999999997</ele>
        <time>2018-07-10T16:15:15Z</time>
      </trkpt>
      <trkpt lat="49.103733021765947" lon="6.812120983377099">
        <ele>306.80000000000001</ele>
        <time>2018-07-10T16:15:26Z</time>
      </trkpt>
      <trkpt lat="49.105744007974863" lon="6.818420989438891">
        <ele>310.16000000000003</ele>
        <time>2018-07-10T16:15:46Z</time>
      </trkpt>
      <trkpt lat="49.107450982555747" lon="6.823751963675022">
        <ele>316.88999999999999</ele>
        <time>2018-07-10T16:16:03Z</time>
      </trkpt>
      <trkpt lat="49.107824983075261" lon="6.824919981881976">
        <ele>318.32999999999998</ele>
        <time>2018-07-10T16:16:08Z</time>
      </trkpt>
      <trkpt lat="49.108235025778413" lon="6.826232001185417">
        <ele>318.32999999999998</ele>
        <time>2018-07-10T16:16:16Z</time>
      </trkpt>
      <trkpt lat="49.108927035704255" lon="6.828398974612355">
        <ele>317.85000000000002</ele>
        <time>2018-07-10T16:16:29Z</time>
      </trkpt>
      <trkpt lat="49.109808979555964" lon="6.831019995734096">
        <ele>314.00999999999999</ele>
        <time>2018-07-10T16:16:45Z</time>
      </trkpt>
      <trkpt lat="49.110518004745245" lon="6.832730993628502">
        <ele>307.75999999999999</ele>
        <time>2018-07-10T16:16:56Z</time>
      </trkpt>
      <trkpt lat="49.111385028809309" lon="6.834821021184325">
        <ele>305.83999999999997</ele>
        <time>2018-07-10T16:17:10Z</time>
      </trkpt>
      <trkpt lat="49.111781995743513" lon="6.835857024416328">
        <ele>309.19999999999999</ele>
        <time>2018-07-10T16:17:19Z</time>
      </trkpt>
      <trkpt lat="49.112404016777873" lon="6.837715040892363">
        <ele>315.44999999999999</ele>
        <time>2018-07-10T16:17:33Z</time>
      </trkpt>
      <trkpt lat="49.112937022000551" lon="6.839651009067893">
        <ele>320.74000000000001</ele>
        <time>2018-07-10T16:17:46Z</time>
      </trkpt>
      <trkpt lat="49.113238016143441" lon="6.841396959498525">
        <ele>318.81</ele>
        <time>2018-07-10T16:17:57Z</time>
      </trkpt>
      <trkpt lat="49.113505985587835" lon="6.843274002894759">
        <ele>315.93000000000001</ele>
        <time>2018-07-10T16:18:06Z</time>
      </trkpt>
      <trkpt lat="49.113938994705677" lon="6.845858981832862">
        <ele>311.60000000000002</ele>
        <time>2018-07-10T16:18:19Z</time>
      </trkpt>
      <trkpt lat="49.114334033802152" lon="6.848449995741248">
        <ele>308.72000000000003</ele>
        <time>2018-07-10T16:18:32Z</time>
      </trkpt>
      <trkpt lat="49.114357000216842" lon="6.848603971302509">
        <ele>308.72000000000003</ele>
        <time>2018-07-10T16:18:33Z</time>
      </trkpt>
      <trkpt lat="49.114378960803151" lon="6.848747972398996">
        <ele>308.24000000000001</ele>
        <time>2018-07-10T16:18:34Z</time>
      </trkpt>
      <trkpt lat="49.114399999380112" lon="6.84888401068747">
        <ele>307.75999999999999</ele>
        <time>2018-07-10T16:18:35Z</time>
      </trkpt>
      <trkpt lat="49.114437969401479" lon="6.849138988181949">
        <ele>307.75999999999999</ele>
        <time>2018-07-10T16:18:37Z</time>
      </trkpt>
      <trkpt lat="49.114459007978439" lon="6.849276032298803">
        <ele>307.27999999999997</ele>
        <time>2018-07-10T16:18:38Z</time>
      </trkpt>
      <trkpt lat="49.114479962736368" lon="6.849413998425007">
        <ele>306.80000000000001</ele>
        <time>2018-07-10T16:18:39Z</time>
      </trkpt>
      <trkpt lat="49.114552969112992" lon="6.849896963685751">
        <ele>304.88</ele>
        <time>2018-07-10T16:18:42Z</time>
      </trkpt>
      <trkpt lat="49.114583982154727" lon="6.850099973380566">
        <ele>303.91000000000003</ele>
        <time>2018-07-10T16:18:43Z</time>
      </trkpt>
      <trkpt lat="49.114617006853223" lon="6.850318992510438">
        <ele>303.43000000000001</ele>
        <time>2018-07-10T16:18:44Z</time>
      </trkpt>
      <trkpt lat="49.114922024309635" lon="6.852334002032876">
        <ele>301.50999999999999</ele>
        <time>2018-07-10T16:18:54Z</time>
      </trkpt>
      <trkpt lat="49.114981032907963" lon="6.853105975314975">
        <ele>302.94999999999999</ele>
        <time>2018-07-10T16:18:58Z</time>
      </trkpt>
      <trkpt lat="49.114981032907963" lon="6.853305967524648">
        <ele>303.43000000000001</ele>
        <time>2018-07-10T16:18:59Z</time>
      </trkpt>
      <trkpt lat="49.114972986280918" lon="6.85350202023983">
        <ele>303.43000000000001</ele>
        <time>2018-07-10T16:19:00Z</time>
      </trkpt>
      <trkpt lat="49.114947002381086" lon="6.853692037984729">
        <ele>303.43000000000001</ele>
        <time>2018-07-10T16:19:01Z</time>
      </trkpt>
      <trkpt lat="49.114900985732675" lon="6.85386897996068">
        <ele>302.94999999999999</ele>
        <time>2018-07-10T16:19:02Z</time>
      </trkpt>
      <trkpt lat="49.114857986569405" lon="6.854036031290889">
        <ele>302.47000000000003</ele>
        <time>2018-07-10T16:19:03Z</time>
      </trkpt>
      <trkpt lat="49.11480501294136" lon="6.854193024337292">
        <ele>301.99000000000001</ele>
        <time>2018-07-10T16:19:04Z</time>
      </trkpt>
      <trkpt lat="49.114735024049878" lon="6.85433903709054">
        <ele>301.50999999999999</ele>
        <time>2018-07-10T16:19:05Z</time>
      </trkpt>
      <trkpt lat="49.114097999408841" lon="6.85578097589314">
        <ele>295.74000000000001</ele>
        <time>2018-07-10T16:19:14Z</time>
      </trkpt>
      <trkpt lat="49.113777978345752" lon="6.85760403983295">
        <ele>288.52999999999997</ele>
        <time>2018-07-10T16:19:24Z</time>
      </trkpt>
      <trkpt lat="49.113828018307686" lon="6.859298022463918">
        <ele>279.39999999999998</ele>
        <time>2018-07-10T16:19:33Z</time>
      </trkpt>
      <trkpt lat="49.114204030483961" lon="6.860899971798062">
        <ele>270.26999999999998</ele>
        <time>2018-07-10T16:19:44Z</time>
      </trkpt>
      <trkpt lat="49.114250969141722" lon="6.861011032015085">
        <ele>269.79000000000002</ele>
        <time>2018-07-10T16:19:45Z</time>
      </trkpt>
      <trkpt lat="49.114801995456219" lon="6.862087016925216">
        <ele>264.98000000000002</ele>
        <time>2018-07-10T16:19:57Z</time>
      </trkpt>
      <trkpt lat="49.115302981808782" lon="6.86295798048377">
        <ele>264.5</ele>
        <time>2018-07-10T16:20:06Z</time>
      </trkpt>
      <trkpt lat="49.115338018164039" lon="6.863088989630342">
        <ele>264.5</ele>
        <time>2018-07-10T16:20:07Z</time>
      </trkpt>
      <trkpt lat="49.115373976528645" lon="6.863227039575577">
        <ele>264.5</ele>
        <time>2018-07-10T16:20:08Z</time>
      </trkpt>
      <trkpt lat="49.115410018712282" lon="6.86336500570178">
        <ele>264.01999999999998</ele>
        <time>2018-07-10T16:20:09Z</time>
      </trkpt>
      <trkpt lat="49.115416975691915" lon="6.863512024283409">
        <ele>264.01999999999998</ele>
        <time>2018-07-10T16:20:10Z</time>
      </trkpt>
      <trkpt lat="49.115425022318959" lon="6.863662982359529">
        <ele>263.54000000000002</ele>
        <time>2018-07-10T16:20:11Z</time>
      </trkpt>
      <trkpt lat="49.115431979298592" lon="6.863816035911441">
        <ele>263.06</ele>
        <time>2018-07-10T16:20:12Z</time>
      </trkpt>
      <trkpt lat="49.11542996764183" lon="6.86394696123898">
        <ele>262.57999999999998</ele>
        <time>2018-07-10T16:20:13Z</time>
      </trkpt>
      <trkpt lat="49.115415969863534" lon="6.864077970385552">
        <ele>262.10000000000002</ele>
        <time>2018-07-10T16:20:14Z</time>
      </trkpt>
      <trkpt lat="49.115416975691915" lon="6.865536002442241">
        <ele>259.69</ele>
        <time>2018-07-10T16:20:25Z</time>
      </trkpt>
      <trkpt lat="49.115457963198423" lon="6.865803971886635">
        <ele>258.73000000000002</ele>
        <time>2018-07-10T16:20:27Z</time>
      </trkpt>
      <trkpt lat="49.115474978461862" lon="6.865918971598148">
        <ele>257.76999999999998</ele>
        <time>2018-07-10T16:20:28Z</time>
      </trkpt>
      <trkpt lat="49.115532981231809" lon="6.866017961874604">
        <ele>257.29000000000002</ele>
        <time>2018-07-10T16:20:29Z</time>
      </trkpt>
      <trkpt lat="49.115586960688233" lon="6.866108989343047">
        <ele>257.29000000000002</ele>
        <time>2018-07-10T16:20:30Z</time>
      </trkpt>
      <trkpt lat="49.11564202979207" lon="6.866203034296632">
        <ele>256.81</ele>
        <time>2018-07-10T16:20:31Z</time>
      </trkpt>
      <trkpt lat="49.115668013691902" lon="6.866391040384769">
        <ele>256.81</ele>
        <time>2018-07-10T16:20:32Z</time>
      </trkpt>
      <trkpt lat="49.115978982299566" lon="6.866765962913632">
        <ele>255.37</ele>
        <time>2018-07-10T16:20:36Z</time>
      </trkpt>
      <trkpt lat="49.11686897277832" lon="6.868068007752299">
        <ele>256.32999999999998</ele>
        <time>2018-07-10T16:20:47Z</time>
      </trkpt>
      <trkpt lat="49.117355039343238" lon="6.869668029248714">
        <ele>261.62</ele>
        <time>2018-07-10T16:20:57Z</time>
      </trkpt>
      <trkpt lat="49.117524018511176" lon="6.871145004406571">
        <ele>265.45999999999998</ele>
        <time>2018-07-10T16:21:06Z</time>
      </trkpt>
      <trkpt lat="49.117653016000986" lon="6.872157035395503">
        <ele>267.38</ele>
        <time>2018-07-10T16:21:15Z</time>
      </trkpt>
      <trkpt lat="49.117653016000986" lon="6.872157035395503">
        <ele>267.38</ele>
        <time>2018-07-10T16:21:25Z</time>
      </trkpt>
      <trkpt lat="49.117620997130871" lon="6.872334983199835">
        <ele>268.82999999999998</ele>
        <time>2018-07-10T16:21:29Z</time>
      </trkpt>
      <trkpt lat="49.117603981867433" lon="6.872500022873282">
        <ele>269.79000000000002</ele>
        <time>2018-07-10T16:21:31Z</time>
      </trkpt>
      <trkpt lat="49.117603981867433" lon="6.872586021199822">
        <ele>269.79000000000002</ele>
        <time>2018-07-10T16:21:32Z</time>
      </trkpt>
      <trkpt lat="49.117614962160587" lon="6.872661039233208">
        <ele>270.26999999999998</ele>
        <time>2018-07-10T16:21:33Z</time>
      </trkpt>
      <trkpt lat="49.117620997130871" lon="6.872699009254575">
        <ele>270.26999999999998</ele>
        <time>2018-07-10T16:21:34Z</time>
      </trkpt>
      <trkpt lat="49.117687968537211" lon="6.872873017564416">
        <ele>270.75</ele>
        <time>2018-07-10T16:21:35Z</time>
      </trkpt>
      <trkpt lat="49.117667013779283" lon="6.872973013669252">
        <ele>270.75</ele>
        <time>2018-07-10T16:21:36Z</time>
      </trkpt>
      <trkpt lat="49.117644969373941" lon="6.873078960925341">
        <ele>271.23000000000002</ele>
        <time>2018-07-10T16:21:37Z</time>
      </trkpt>
      <trkpt lat="49.117623008787632" lon="6.87318398617208">
        <ele>271.23000000000002</ele>
        <time>2018-07-10T16:21:38Z</time>
      </trkpt>
      <trkpt lat="49.117569029331207" lon="6.874204985797405">
        <ele>273.14999999999998</ele>
        <time>2018-07-10T16:21:47Z</time>
      </trkpt>
      <trkpt lat="49.117539022117853" lon="6.875660000368953">
        <ele>274.11000000000001</ele>
        <time>2018-07-10T16:21:58Z</time>
      </trkpt>
      <trkpt lat="49.117519995197654" lon="6.877247029915452">
        <ele>272.67000000000002</ele>
        <time>2018-07-10T16:22:09Z</time>
      </trkpt>
      <trkpt lat="49.117493005469441" lon="6.87949899584055">
        <ele>277.48000000000002</ele>
        <time>2018-07-10T16:22:24Z</time>
      </trkpt>
      <trkpt lat="49.117488982155919" lon="6.87960603274405">
        <ele>277.48000000000002</ele>
        <time>2018-07-10T16:22:25Z</time>
      </trkpt>
      <trkpt lat="49.117480013519526" lon="6.879703011363745">
        <ele>277.48000000000002</ele>
        <time>2018-07-10T16:22:26Z</time>
      </trkpt>
      <trkpt lat="49.117472972720861" lon="6.879792027175427">
        <ele>277.48000000000002</ele>
        <time>2018-07-10T16:22:27Z</time>
      </trkpt>
      <trkpt lat="49.11738496273756" lon="6.879866039380431">
        <ele>277.48000000000002</ele>
        <time>2018-07-10T16:22:28Z</time>
      </trkpt>
      <trkpt lat="49.117363002151251" lon="6.879919013008475">
        <ele>277.48000000000002</ele>
        <time>2018-07-10T16:22:29Z</time>
      </trkpt>
      <trkpt lat="49.117350010201335" lon="6.880039041861892">
        <ele>277.48000000000002</ele>
        <time>2018-07-10T16:22:30Z</time>
      </trkpt>
      <trkpt lat="49.117359984666109" lon="6.880121016874909">
        <ele>277.48000000000002</ele>
        <time>2018-07-10T16:22:31Z</time>
      </trkpt>
      <trkpt lat="49.117363002151251" lon="6.88014498911798">
        <ele>277.48000000000002</ele>
        <time>2018-07-10T16:22:32Z</time>
      </trkpt>
      <trkpt lat="49.117470039054751" lon="6.880306005477905">
        <ele>277.48000000000002</ele>
        <time>2018-07-10T16:22:33Z</time>
      </trkpt>
      <trkpt lat="49.117469033226371" lon="6.880435002967715">
        <ele>277.95999999999998</ele>
        <time>2018-07-10T16:22:34Z</time>
      </trkpt>
      <trkpt lat="49.11746802739799" lon="6.880581015720964">
        <ele>277.95999999999998</ele>
        <time>2018-07-10T16:22:35Z</time>
      </trkpt>
      <trkpt lat="49.11746702156961" lon="6.880743037909269">
        <ele>277.95999999999998</ele>
        <time>2018-07-10T16:22:36Z</time>
      </trkpt>
      <trkpt lat="49.117454029619694" lon="6.882798029109836">
        <ele>280.36000000000001</ele>
        <time>2018-07-10T16:22:49Z</time>
      </trkpt>
      <trkpt lat="49.117452017962933" lon="6.883118972182274">
        <ele>280.36000000000001</ele>
        <time>2018-07-10T16:22:51Z</time>
      </trkpt>
      <trkpt lat="49.117478001862764" lon="6.884256983175874">
        <ele>281.31999999999999</ele>
        <time>2018-07-10T16:23:01Z</time>
      </trkpt>
      <trkpt lat="49.117470039054751" lon="6.885208999738097">
        <ele>281.31999999999999</ele>
        <time>2018-07-10T16:23:09Z</time>
      </trkpt>
      <trkpt lat="49.117493005469441" lon="6.885276976972818">
        <ele>281.31999999999999</ele>
        <time>2018-07-10T16:23:10Z</time>
      </trkpt>
      <trkpt lat="49.117526030167937" lon="6.885374961420894">
        <ele>281.31999999999999</ele>
        <time>2018-07-10T16:23:11Z</time>
      </trkpt>
      <trkpt lat="49.117534998804331" lon="6.885402034968138">
        <ele>280.83999999999997</ele>
        <time>2018-07-10T16:23:12Z</time>
      </trkpt>
      <trkpt lat="49.117601970210671" lon="6.885603033006191">
        <ele>280.83999999999997</ele>
        <time>2018-07-10T16:23:13Z</time>
      </trkpt>
      <trkpt lat="49.117585038766265" lon="6.885733036324382">
        <ele>280.36000000000001</ele>
        <time>2018-07-10T16:23:14Z</time>
      </trkpt>
      <trkpt lat="49.117566011846066" lon="6.885878965258598">
        <ele>280.36000000000001</ele>
        <time>2018-07-10T16:23:15Z</time>
      </trkpt>
      <trkpt lat="49.117543967440724" lon="6.886040987446904">
        <ele>280.36000000000001</ele>
        <time>2018-07-10T16:23:16Z</time>
      </trkpt>
      <trkpt lat="49.117546984925866" lon="6.886223964393139">
        <ele>280.36000000000001</ele>
        <time>2018-07-10T16:23:17Z</time>
      </trkpt>
      <trkpt lat="49.117568023502827" lon="6.886405013501644">
        <ele>279.88</ele>
        <time>2018-07-10T16:23:18Z</time>
      </trkpt>
      <trkpt lat="49.117666007950902" lon="6.887226020917296">
        <ele>277</ele>
        <time>2018-07-10T16:23:25Z</time>
      </trkpt>
      <trkpt lat="49.117686962708831" lon="6.88738401979208">
        <ele>275.56</ele>
        <time>2018-07-10T16:23:28Z</time>
      </trkpt>
      <trkpt lat="49.117699032649398" lon="6.887468006461859">
        <ele>275.06999999999999</ele>
        <time>2018-07-10T16:23:29Z</time>
      </trkpt>
      <trkpt lat="49.117749994620681" lon="6.887849969789386">
        <ele>274.11000000000001</ele>
        <time>2018-07-10T16:23:35Z</time>
      </trkpt>
      <trkpt lat="49.117760974913836" lon="6.887934040278196">
        <ele>273.63</ele>
        <time>2018-07-10T16:23:51Z</time>
      </trkpt>
      <trkpt lat="49.117905981838703" lon="6.888854959979653">
        <ele>275.56</ele>
        <time>2018-07-10T16:23:59Z</time>
      </trkpt>
      <trkpt lat="49.118209993466735" lon="6.890454981476069">
        <ele>275.56</ele>
        <time>2018-07-10T16:24:07Z</time>
      </trkpt>
      <trkpt lat="49.118588017299771" lon="6.892569987103343">
        <ele>278.92000000000002</ele>
        <time>2018-07-10T16:24:17Z</time>
      </trkpt>
      <trkpt lat="49.118612995371222" lon="6.892749024555087">
        <ele>279.39999999999998</ele>
        <time>2018-07-10T16:24:18Z</time>
      </trkpt>
      <trkpt lat="49.118637973442674" lon="6.892929989844561">
        <ele>279.88</ele>
        <time>2018-07-10T16:24:19Z</time>
      </trkpt>
      <trkpt lat="49.118623975664377" lon="6.893135011196137">
        <ele>280.83999999999997</ele>
        <time>2018-07-10T16:24:20Z</time>
      </trkpt>
      <trkpt lat="49.118583993986249" lon="6.893309019505978">
        <ele>281.31999999999999</ele>
        <time>2018-07-10T16:24:21Z</time>
      </trkpt>
      <trkpt lat="49.118548035621643" lon="6.893461989238858">
        <ele>281.80000000000001</ele>
        <time>2018-07-10T16:24:22Z</time>
      </trkpt>
      <trkpt lat="49.11852196790278" lon="6.893577994778752">
        <ele>282.27999999999997</ele>
        <time>2018-07-10T16:24:23Z</time>
      </trkpt>
      <trkpt lat="49.118480980396271" lon="6.893678996711969">
        <ele>282.76999999999998</ele>
        <time>2018-07-10T16:24:24Z</time>
      </trkpt>
      <trkpt lat="49.118442004546523" lon="6.893775975331664">
        <ele>283.25</ele>
        <time>2018-07-10T16:24:25Z</time>
      </trkpt>
      <trkpt lat="49.118403028696775" lon="6.89387496560812">
        <ele>283.73000000000002</ele>
        <time>2018-07-10T16:24:26Z</time>
      </trkpt>
      <trkpt lat="49.118346031755209" lon="6.893939003348351">
        <ele>284.20999999999998</ele>
        <time>2018-07-10T16:24:27Z</time>
      </trkpt>
      <trkpt lat="49.118258021771908" lon="6.894019972532988">
        <ele>284.69</ele>
        <time>2018-07-10T16:24:28Z</time>
      </trkpt>
      <trkpt lat="49.118207981809974" lon="6.89413296058774">
        <ele>284.69</ele>
        <time>2018-07-10T16:24:29Z</time>
      </trkpt>
      <trkpt lat="49.118172023445368" lon="6.894300011917949">
        <ele>285.17000000000002</ele>
        <time>2018-07-10T16:24:30Z</time>
      </trkpt>
      <trkpt lat="49.118162970989943" lon="6.894443007186055">
        <ele>285.17000000000002</ele>
        <time>2018-07-10T16:24:31Z</time>
      </trkpt>
      <trkpt lat="49.118207981809974" lon="6.894631013274193">
        <ele>284.69</ele>
        <time>2018-07-10T16:24:32Z</time>
      </trkpt>
      <trkpt lat="49.118276964873075" lon="6.894748024642468">
        <ele>284.69</ele>
        <time>2018-07-10T16:24:33Z</time>
      </trkpt>
      <trkpt lat="49.118376038968563" lon="6.894835028797388">
        <ele>284.69</ele>
        <time>2018-07-10T16:24:34Z</time>
      </trkpt>
      <trkpt lat="49.118474023416638" lon="6.894917003810406">
        <ele>284.20999999999998</ele>
        <time>2018-07-10T16:24:35Z</time>
      </trkpt>
      <trkpt lat="49.118557004258037" lon="6.895029991865158">
        <ele>283.73000000000002</ele>
        <time>2018-07-10T16:24:36Z</time>
      </trkpt>
      <trkpt lat="49.11867200396955" lon="6.895186984911561">
        <ele>283.25</ele>
        <time>2018-07-10T16:24:37Z</time>
      </trkpt>
      <trkpt lat="49.11873696371913" lon="6.895348001271486">
        <ele>282.76999999999998</ele>
        <time>2018-07-10T16:24:38Z</time>
      </trkpt>
      <trkpt lat="49.1188869997859" lon="6.895723007619381">
        <ele>282.27999999999997</ele>
        <time>2018-07-10T16:24:40Z</time>
      </trkpt>
      <trkpt lat="49.1188869997859" lon="6.895723007619381">
        <ele>281.80000000000001</ele>
        <time>2018-07-10T16:24:41Z</time>
      </trkpt>
      <trkpt lat="49.11897199228406" lon="6.89619499258697">
        <ele>281.31999999999999</ele>
        <time>2018-07-10T16:24:42Z</time>
      </trkpt>
      <trkpt lat="49.11897199228406" lon="6.89619499258697">
        <ele>280.83999999999997</ele>
        <time>2018-07-10T16:24:43Z</time>
      </trkpt>
      <trkpt lat="49.118981966748834" lon="6.896422980353236">
        <ele>280.36000000000001</ele>
        <time>2018-07-10T16:24:44Z</time>
      </trkpt>
      <trkpt lat="49.118835031986237" lon="6.899096975103021">
        <ele>273.63</ele>
        <time>2018-07-10T16:24:53Z</time>
      </trkpt>
      <trkpt lat="49.118501013144851" lon="6.901511969044805">
        <ele>268.35000000000002</ele>
        <time>2018-07-10T16:25:01Z</time>
      </trkpt>
      <trkpt lat="49.118396993726492" lon="6.902220994234085">
        <ele>266.89999999999998</ele>
        <time>2018-07-10T16:25:03Z</time>
      </trkpt>
      <trkpt lat="49.117847979068756" lon="6.905736029148102">
        <ele>258.25</ele>
        <time>2018-07-10T16:25:12Z</time>
      </trkpt>
      <trkpt lat="49.117207014933228" lon="6.909694969654083">
        <ele>254.41</ele>
        <time>2018-07-10T16:25:23Z</time>
      </trkpt>
      <trkpt lat="49.116749027743936" lon="6.912549007683992">
        <ele>255.37</ele>
        <time>2018-07-10T16:25:32Z</time>
      </trkpt>
      <trkpt lat="49.116215016692877" lon="6.915878970175982">
        <ele>255.37</ele>
        <time>2018-07-10T16:25:41Z</time>
      </trkpt>
      <trkpt lat="49.115590984001756" lon="6.919789966195822">
        <ele>255.37</ele>
        <time>2018-07-10T16:25:51Z</time>
      </trkpt>
      <trkpt lat="49.114859998226166" lon="6.924346033483744">
        <ele>249.12</ele>
        <time>2018-07-10T16:26:02Z</time>
      </trkpt>
      <trkpt lat="49.114266978576779" lon="6.926718028262258">
        <ele>242.38999999999999</ele>
        <time>2018-07-10T16:26:08Z</time>
      </trkpt>
      <trkpt lat="49.113777978345752" lon="6.92818402312696">
        <ele>238.06</ele>
        <time>2018-07-10T16:26:14Z</time>
      </trkpt>
      <trkpt lat="49.113242039456964" lon="6.929706009104848">
        <ele>239.02000000000001</ele>
        <time>2018-07-10T16:26:23Z</time>
      </trkpt>
      <trkpt lat="49.112327992916107" lon="6.932313032448292">
        <ele>239.50999999999999</ele>
        <time>2018-07-10T16:26:39Z</time>
      </trkpt>
      <trkpt lat="49.112114002928138" lon="6.932936981320381">
        <ele>239.50999999999999</ele>
        <time>2018-07-10T16:26:44Z</time>
      </trkpt>
      <trkpt lat="49.112000009045005" lon="6.933265971019864">
        <ele>239.99000000000001</ele>
        <time>2018-07-10T16:26:55Z</time>
      </trkpt>
      <trkpt lat="49.111401960253716" lon="6.934948973357678">
        <ele>239.99000000000001</ele>
        <time>2018-07-10T16:27:08Z</time>
      </trkpt>
      <trkpt lat="49.111165003851056" lon="6.936172982677817">
        <ele>242.87</ele>
        <time>2018-07-10T16:27:16Z</time>
      </trkpt>
      <trkpt lat="49.111021002754569" lon="6.937878029420972">
        <ele>244.78999999999999</ele>
        <time>2018-07-10T16:27:27Z</time>
      </trkpt>
      <trkpt lat="49.110990995541215" lon="6.938014989718795">
        <ele>244.78999999999999</ele>
        <time>2018-07-10T16:27:28Z</time>
      </trkpt>
      <trkpt lat="49.110960988327861" lon="6.93815496750176">
        <ele>244.78999999999999</ele>
        <time>2018-07-10T16:27:29Z</time>
      </trkpt>
      <trkpt lat="49.110929975286126" lon="6.938297040760517">
        <ele>244.78999999999999</ele>
        <time>2018-07-10T16:27:30Z</time>
      </trkpt>
      <trkpt lat="49.110869960859418" lon="6.938425032421947">
        <ele>244.31</ele>
        <time>2018-07-10T16:27:31Z</time>
      </trkpt>
      <trkpt lat="49.110805001109838" lon="6.938549000769854">
        <ele>244.31</ele>
        <time>2018-07-10T16:27:32Z</time>
      </trkpt>
      <trkpt lat="49.110739035531878" lon="6.938673974946141">
        <ele>244.31</ele>
        <time>2018-07-10T16:27:33Z</time>
      </trkpt>
      <trkpt lat="49.110671980306506" lon="6.938803978264332">
        <ele>244.78999999999999</ele>
        <time>2018-07-10T16:27:34Z</time>
      </trkpt>
      <trkpt lat="49.110570978373289" lon="6.938901962712407">
        <ele>244.78999999999999</ele>
        <time>2018-07-10T16:27:35Z</time>
      </trkpt>
      <trkpt lat="49.110466036945581" lon="6.939001958817244">
        <ele>245.27000000000001</ele>
        <time>2018-07-10T16:27:36Z</time>
      </trkpt>
      <trkpt lat="49.110360005870461" lon="6.939102960750461">
        <ele>245.27000000000001</ele>
        <time>2018-07-10T16:27:37Z</time>
      </trkpt>
      <trkpt lat="49.110238971188664" lon="6.939217960461974">
        <ele>245.27000000000001</ele>
        <time>2018-07-10T16:27:38Z</time>
      </trkpt>
      <trkpt lat="49.110138975083828" lon="6.939264982938767">
        <ele>245.75</ele>
        <time>2018-07-10T16:27:39Z</time>
      </trkpt>
      <trkpt lat="49.110022969543934" lon="6.939318962395191">
        <ele>245.75</ele>
        <time>2018-07-10T16:27:40Z</time>
      </trkpt>
      <trkpt lat="49.109570011496544" lon="6.939532030373812">
        <ele>246.22999999999999</ele>
        <time>2018-07-10T16:27:44Z</time>
      </trkpt>
      <trkpt lat="49.109489964321256" lon="6.939602019265294">
        <ele>246.72</ele>
        <time>2018-07-10T16:27:45Z</time>
      </trkpt>
      <trkpt lat="49.109202967956662" lon="6.939951041713357">
        <ele>246.22999999999999</ele>
        <time>2018-07-10T16:27:50Z</time>
      </trkpt>
      <trkpt lat="49.109155023470521" lon="6.940025975927711">
        <ele>245.75</ele>
        <time>2018-07-10T16:27:51Z</time>
      </trkpt>
      <trkpt lat="49.108649007976055" lon="6.940837008878589">
        <ele>244.31</ele>
        <time>2018-07-10T16:28:01Z</time>
      </trkpt>
      <trkpt lat="49.108540965244174" lon="6.941060973331332">
        <ele>244.78999999999999</ele>
        <time>2018-07-10T16:28:03Z</time>
      </trkpt>
      <trkpt lat="49.108486985787749" lon="6.941173961386085">
        <ele>245.75</ele>
        <time>2018-07-10T16:28:04Z</time>
      </trkpt>
      <trkpt lat="49.108435017988086" lon="6.941289966925979">
        <ele>245.75</ele>
        <time>2018-07-10T16:28:05Z</time>
      </trkpt>
      <trkpt lat="49.108421020209789" lon="6.94142198190093">
        <ele>246.22999999999999</ele>
        <time>2018-07-10T16:28:06Z</time>
      </trkpt>
      <trkpt lat="49.108407022431493" lon="6.941544022411108">
        <ele>247.19999999999999</ele>
        <time>2018-07-10T16:28:07Z</time>
      </trkpt>
      <trkpt lat="49.108290011063218" lon="6.9423439912498">
        <ele>250.08000000000001</ele>
        <time>2018-07-10T16:28:16Z</time>
      </trkpt>
      <trkpt lat="49.107984993606806" lon="6.943135997280479">
        <ele>249.12</ele>
        <time>2018-07-10T16:28:23Z</time>
      </trkpt>
      <trkpt lat="49.107226012274623" lon="6.94447098299861">
        <ele>251.52000000000001</ele>
        <time>2018-07-10T16:28:33Z</time>
      </trkpt>
      <trkpt lat="49.106583036482334" lon="6.946221962571144">
        <ele>251.52000000000001</ele>
        <time>2018-07-10T16:28:44Z</time>
      </trkpt>
      <trkpt lat="49.106445992365479" lon="6.947862971574068">
        <ele>245.75</ele>
        <time>2018-07-10T16:28:53Z</time>
      </trkpt>
      <trkpt lat="49.106391007080674" lon="6.950421966612339">
        <ele>235.66</ele>
        <time>2018-07-10T16:29:07Z</time>
      </trkpt>
      <trkpt lat="49.106345996260643" lon="6.952500008046627">
        <ele>229.41</ele>
        <time>2018-07-10T16:29:18Z</time>
      </trkpt>
      <trkpt lat="49.106265027076006" lon="6.9546979945153">
        <ele>227.49000000000001</ele>
        <time>2018-07-10T16:29:30Z</time>
      </trkpt>
      <trkpt lat="49.105999991297722" lon="6.956334980204701">
        <ele>224.12</ele>
        <time>2018-07-10T16:29:40Z</time>
      </trkpt>
      <trkpt lat="49.105960009619594" lon="6.95658702403307">
        <ele>224.61000000000001</ele>
        <time>2018-07-10T16:29:42Z</time>
      </trkpt>
      <trkpt lat="49.105564970523119" lon="6.958169024437666">
        <ele>224.12</ele>
        <time>2018-07-10T16:29:55Z</time>
      </trkpt>
      <trkpt lat="49.105504034087062" lon="6.958273965865374">
        <ele>224.12</ele>
        <time>2018-07-10T16:29:56Z</time>
      </trkpt>
      <trkpt lat="49.105059038847685" lon="6.959005035459995">
        <ele>226.05000000000001</ele>
        <time>2018-07-10T16:30:03Z</time>
      </trkpt>
      <trkpt lat="49.10498502664268" lon="6.959116011857987">
        <ele>226.53</ele>
        <time>2018-07-10T16:30:04Z</time>
      </trkpt>
      <trkpt lat="49.104913026094437" lon="6.959223970770836">
        <ele>227.49000000000001</ele>
        <time>2018-07-10T16:30:05Z</time>
      </trkpt>
      <trkpt lat="49.104653019458055" lon="6.959686987102032">
        <ele>228.93000000000001</ele>
        <time>2018-07-10T16:30:09Z</time>
      </trkpt>
      <trkpt lat="49.104204000905156" lon="6.961174020543695">
        <ele>231.81</ele>
        <time>2018-07-10T16:30:19Z</time>
      </trkpt>
      <trkpt lat="49.104053964838386" lon="6.963154999539256">
        <ele>234.22</ele>
        <time>2018-07-10T16:30:30Z</time>
      </trkpt>
      <trkpt lat="49.104162007570267" lon="6.964413039386272">
        <ele>235.18000000000001</ele>
        <time>2018-07-10T16:30:37Z</time>
      </trkpt>
      <trkpt lat="49.104460990056396" lon="6.966185979545116">
        <ele>232.78</ele>
        <time>2018-07-10T16:30:45Z</time>
      </trkpt>
      <trkpt lat="49.10481202416122" lon="6.968679009005427">
        <ele>225.56999999999999</ele>
        <time>2018-07-10T16:30:54Z</time>
      </trkpt>
      <trkpt lat="49.105139002203941" lon="6.970477011054754">
        <ele>221.72</ele>
        <time>2018-07-10T16:31:01Z</time>
      </trkpt>
      <trkpt lat="49.105891026556492" lon="6.973911998793483">
        <ele>221.72</ele>
        <time>2018-07-10T16:31:15Z</time>
      </trkpt>
      <trkpt lat="49.106380026787519" lon="6.976534025743604">
        <ele>223.63999999999999</ele>
        <time>2018-07-10T16:31:27Z</time>
      </trkpt>
      <trkpt lat="49.106420008465648" lon="6.976674003526568">
        <ele>223.63999999999999</ele>
        <time>2018-07-10T16:31:28Z</time>
      </trkpt>
      <trkpt lat="49.106464013457298" lon="6.976781962439418">
        <ele>223.63999999999999</ele>
        <time>2018-07-10T16:31:29Z</time>
      </trkpt>
      <trkpt lat="49.106522016227245" lon="6.976867960765958">
        <ele>224.12</ele>
        <time>2018-07-10T16:31:30Z</time>
      </trkpt>
      <trkpt lat="49.106784034520388" lon="6.977294012904167">
        <ele>224.12</ele>
        <time>2018-07-10T16:31:35Z</time>
      </trkpt>
      <trkpt lat="49.106842959299684" lon="6.977397026494145">
        <ele>224.12</ele>
        <time>2018-07-10T16:31:36Z</time>
      </trkpt>
      <trkpt lat="49.106913032010198" lon="6.977519989013672">
        <ele>224.12</ele>
        <time>2018-07-10T16:31:37Z</time>
      </trkpt>
      <trkpt lat="49.106926023960114" lon="6.977641023695469">
        <ele>224.12</ele>
        <time>2018-07-10T16:31:38Z</time>
      </trkpt>
      <trkpt lat="49.10694002173841" lon="6.97777102701366">
        <ele>223.63999999999999</ele>
        <time>2018-07-10T16:31:39Z</time>
      </trkpt>
      <trkpt lat="49.106956031173468" lon="6.977928020060062">
        <ele>223.63999999999999</ele>
        <time>2018-07-10T16:31:40Z</time>
      </trkpt>
      <trkpt lat="49.106953013688326" lon="6.978013012558222">
        <ele>223.63999999999999</ele>
        <time>2018-07-10T16:31:41Z</time>
      </trkpt>
      <trkpt lat="49.106947984546423" lon="6.978129018098116">
        <ele>223.63999999999999</ele>
        <time>2018-07-10T16:31:42Z</time>
      </trkpt>
      <trkpt lat="49.106973968446255" lon="6.979372976347804">
        <ele>224.61000000000001</ele>
        <time>2018-07-10T16:31:53Z</time>
      </trkpt>
      <trkpt lat="49.107171026989818" lon="6.98071701452136">
        <ele>227.49000000000001</ele>
        <time>2018-07-10T16:32:05Z</time>
      </trkpt>
      <trkpt lat="49.107216037809849" lon="6.980836959555745">
        <ele>227.49000000000001</ele>
        <time>2018-07-10T16:32:06Z</time>
      </trkpt>
      <trkpt lat="49.107256019487977" lon="6.980941984802485">
        <ele>227.97</ele>
        <time>2018-07-10T16:32:07Z</time>
      </trkpt>
      <trkpt lat="49.107342017814517" lon="6.981167960911989">
        <ele>228.44999999999999</ele>
        <time>2018-07-10T16:32:09Z</time>
      </trkpt>
      <trkpt lat="49.10790704190731" lon="6.982147973030806">
        <ele>232.78</ele>
        <time>2018-07-10T16:32:20Z</time>
      </trkpt>
      <trkpt lat="49.108204012736678" lon="6.982775023207068">
        <ele>234.69999999999999</ele>
        <time>2018-07-10T16:32:26Z</time>
      </trkpt>
      <trkpt lat="49.108227984979749" lon="6.982893962413073">
        <ele>234.69999999999999</ele>
        <time>2018-07-10T16:32:27Z</time>
      </trkpt>
      <trkpt lat="49.108243994414806" lon="6.983032012358308">
        <ele>235.18000000000001</ele>
        <time>2018-07-10T16:32:28Z</time>
      </trkpt>
      <trkpt lat="49.108243994414806" lon="6.983163021504879">
        <ele>235.66</ele>
        <time>2018-07-10T16:32:29Z</time>
      </trkpt>
      <trkpt lat="49.108197977766395" lon="6.983299981802702">
        <ele>236.62</ele>
        <time>2018-07-10T16:32:30Z</time>
      </trkpt>
      <trkpt lat="49.108155984431505" lon="6.98342302814126">
        <ele>238.06</ele>
        <time>2018-07-10T16:32:31Z</time>
      </trkpt>
      <trkpt lat="49.108075015246868" lon="6.98350802063942">
        <ele>239.02000000000001</ele>
        <time>2018-07-10T16:32:32Z</time>
      </trkpt>
      <trkpt lat="49.107990022748709" lon="6.98359795846045">
        <ele>239.99000000000001</ele>
        <time>2018-07-10T16:32:33Z</time>
      </trkpt>
      <trkpt lat="49.107903018593788" lon="6.983688985928893">
        <ele>240.94999999999999</ele>
        <time>2018-07-10T16:32:34Z</time>
      </trkpt>
      <trkpt lat="49.106989977881312" lon="6.984728006646037">
        <ele>248.16</ele>
        <time>2018-07-10T16:32:44Z</time>
      </trkpt>
      <trkpt lat="49.106284976005554" lon="6.985718999058008">
        <ele>246.72</ele>
        <time>2018-07-10T16:32:52Z</time>
      </trkpt>
      <trkpt lat="49.105821959674358" lon="6.987389009445906">
        <ele>238.06</ele>
        <time>2018-07-10T16:33:02Z</time>
      </trkpt>
      <trkpt lat="49.105696985498071" lon="6.989756980910897">
        <ele>231.81</ele>
        <time>2018-07-10T16:33:15Z</time>
      </trkpt>
      <trkpt lat="49.105639988556504" lon="6.99102901853621">
        <ele>231.33000000000001</ele>
        <time>2018-07-10T16:33:20Z</time>
      </trkpt>
      <trkpt lat="49.105491964146495" lon="6.994345989078283">
        <ele>226.05000000000001</ele>
        <time>2018-07-10T16:33:30Z</time>
      </trkpt>
      <trkpt lat="49.105413006618619" lon="6.997705036774278">
        <ele>219.80000000000001</ele>
        <time>2018-07-10T16:33:41Z</time>
      </trkpt>
      <trkpt lat="49.105679970234632" lon="6.999502032995224">
        <ele>216.91</ele>
        <time>2018-07-10T16:33:48Z</time>
      </trkpt>
      <trkpt lat="49.105905024334788" lon="7.00069704093039">
        <ele>216.43000000000001</ele>
        <time>2018-07-10T16:33:55Z</time>
      </trkpt>
      <trkpt lat="49.106096969917417" lon="7.001723991706967">
        <ele>218.36000000000001</ele>
        <time>2018-07-10T16:34:06Z</time>
      </trkpt>
      <trkpt lat="49.106162013486028" lon="7.002204023301601">
        <ele>218.36000000000001</ele>
        <time>2018-07-10T16:34:09Z</time>
      </trkpt>
      <trkpt lat="49.106162013486028" lon="7.002323968335986">
        <ele>218.36000000000001</ele>
        <time>2018-07-10T16:34:10Z</time>
      </trkpt>
      <trkpt lat="49.106162013486028" lon="7.002437962219119">
        <ele>218.36000000000001</ele>
        <time>2018-07-10T16:34:11Z</time>
      </trkpt>
      <trkpt lat="49.106133012101054" lon="7.002670979127288">
        <ele>217.40000000000001</ele>
        <time>2018-07-10T16:34:13Z</time>
      </trkpt>
      <trkpt lat="49.106106022372842" lon="7.002794025465846">
        <ele>216.91</ele>
        <time>2018-07-10T16:34:14Z</time>
      </trkpt>
      <trkpt lat="49.106076015159488" lon="7.002926040440798">
        <ele>216.43000000000001</ele>
        <time>2018-07-10T16:34:15Z</time>
      </trkpt>
      <trkpt lat="49.10591097548604" lon="7.003380004316568">
        <ele>215.47</ele>
        <time>2018-07-10T16:34:19Z</time>
      </trkpt>
      <trkpt lat="49.105905024334788" lon="7.003507995977998">
        <ele>214.99000000000001</ele>
        <time>2018-07-10T16:34:20Z</time>
      </trkpt>
      <trkpt lat="49.105905024334788" lon="7.003639005124569">
        <ele>214.99000000000001</ele>
        <time>2018-07-10T16:34:21Z</time>
      </trkpt>
      <trkpt lat="49.105922039598227" lon="7.003780994564295">
        <ele>214.99000000000001</ele>
        <time>2018-07-10T16:34:22Z</time>
      </trkpt>
      <trkpt lat="49.105960009619594" lon="7.003915021196008">
        <ele>215.47</ele>
        <time>2018-07-10T16:34:23Z</time>
      </trkpt>
      <trkpt lat="49.10608003847301" lon="7.004288015887141">
        <ele>215.94999999999999</ele>
        <time>2018-07-10T16:34:26Z</time>
      </trkpt>
      <trkpt lat="49.106121025979519" lon="7.0043920353055">
        <ele>215.47</ele>
        <time>2018-07-10T16:34:27Z</time>
      </trkpt>
      <trkpt lat="49.106160001829267" lon="7.004489013925195">
        <ele>215.47</ele>
        <time>2018-07-10T16:34:28Z</time>
      </trkpt>
      <trkpt lat="49.106472982093692" lon="7.005366012454033">
        <ele>215.94999999999999</ele>
        <time>2018-07-10T16:34:36Z</time>
      </trkpt>
      <trkpt lat="49.106710022315383" lon="7.007129983976483">
        <ele>217.88</ele>
        <time>2018-07-10T16:34:46Z</time>
      </trkpt>
      <trkpt lat="49.106978997588158" lon="7.009661989286542">
        <ele>223.16</ele>
        <time>2018-07-10T16:35:00Z</time>
      </trkpt>
      <trkpt lat="49.107274040579796" lon="7.012350987643004">
        <ele>229.88999999999999</ele>
        <time>2018-07-10T16:35:15Z</time>
      </trkpt>
      <trkpt lat="49.107665978372097" lon="7.015967024490237">
        <ele>235.18000000000001</ele>
        <time>2018-07-10T16:35:35Z</time>
      </trkpt>
      <trkpt lat="49.10801500082016" lon="7.019307967275381">
        <ele>229.41</ele>
        <time>2018-07-10T16:35:53Z</time>
      </trkpt>
      <trkpt lat="49.108277019113302" lon="7.021750034764409">
        <ele>218.84</ele>
        <time>2018-07-10T16:36:06Z</time>
      </trkpt>
      <trkpt lat="49.108548006042838" lon="7.02426795847714">
        <ele>208.74000000000001</ele>
        <time>2018-07-10T16:36:20Z</time>
      </trkpt>
      <trkpt lat="49.108929969370365" lon="7.026538029313088">
        <ele>206.34</ele>
        <time>2018-07-10T16:36:33Z</time>
      </trkpt>
      <trkpt lat="49.108954025432467" lon="7.026711031794548">
        <ele>206.81999999999999</ele>
        <time>2018-07-10T16:36:34Z</time>
      </trkpt>
      <trkpt lat="49.108972968533635" lon="7.026880010962486">
        <ele>206.81999999999999</ele>
        <time>2018-07-10T16:36:35Z</time>
      </trkpt>
      <trkpt lat="49.108968023210764" lon="7.027053013443947">
        <ele>207.30000000000001</ele>
        <time>2018-07-10T16:36:36Z</time>
      </trkpt>
      <trkpt lat="49.108941033482552" lon="7.027224004268646">
        <ele>207.78</ele>
        <time>2018-07-10T16:36:37Z</time>
      </trkpt>
      <trkpt lat="49.10891898907721" lon="7.027454003691673">
        <ele>208.25999999999999</ele>
        <time>2018-07-10T16:36:38Z</time>
      </trkpt>
      <trkpt lat="49.10898101516068" lon="7.027599010616541">
        <ele>208.74000000000001</ele>
        <time>2018-07-10T16:36:39Z</time>
      </trkpt>
      <trkpt lat="49.109037006273866" lon="7.027731025591493">
        <ele>208.74000000000001</ele>
        <time>2018-07-10T16:36:40Z</time>
      </trkpt>
      <trkpt lat="49.109168015420437" lon="7.027828004211187">
        <ele>209.22</ele>
        <time>2018-07-10T16:36:41Z</time>
      </trkpt>
      <trkpt lat="49.109253007918596" lon="7.027948033064604">
        <ele>209.22</ele>
        <time>2018-07-10T16:36:42Z</time>
      </trkpt>
      <trkpt lat="49.109320985153317" lon="7.028082981705666">
        <ele>209.22</ele>
        <time>2018-07-10T16:36:43Z</time>
      </trkpt>
      <trkpt lat="49.1093909740448" lon="7.02822295948863">
        <ele>209.22</ele>
        <time>2018-07-10T16:36:44Z</time>
      </trkpt>
      <trkpt lat="49.109461968764663" lon="7.028397973626852">
        <ele>208.74000000000001</ele>
        <time>2018-07-10T16:36:45Z</time>
      </trkpt>
      <trkpt lat="49.109502034261823" lon="7.028604000806809">
        <ele>208.25999999999999</ele>
        <time>2018-07-10T16:36:46Z</time>
      </trkpt>
      <trkpt lat="49.109543021768332" lon="7.028811033815146">
        <ele>207.30000000000001</ele>
        <time>2018-07-10T16:36:47Z</time>
      </trkpt>
      <trkpt lat="49.109589038416743" lon="7.029026029631496">
        <ele>206.81999999999999</ele>
        <time>2018-07-10T16:36:48Z</time>
      </trkpt>
      <trkpt lat="49.109637988731265" lon="7.029825998470187">
        <ele>207.30000000000001</ele>
        <time>2018-07-10T16:36:52Z</time>
      </trkpt>
      <trkpt lat="49.109637988731265" lon="7.029991038143635">
        <ele>207.78</ele>
        <time>2018-07-10T16:36:53Z</time>
      </trkpt>
      <trkpt lat="49.109576968476176" lon="7.030310975387693">
        <ele>208.74000000000001</ele>
        <time>2018-07-10T16:36:55Z</time>
      </trkpt>
      <trkpt lat="49.109617033973336" lon="7.030521025881171">
        <ele>209.22</ele>
        <time>2018-07-10T16:36:56Z</time>
      </trkpt>
      <trkpt lat="49.109607981517911" lon="7.030678018927574">
        <ele>209.69999999999999</ele>
        <time>2018-07-10T16:36:57Z</time>
      </trkpt>
      <trkpt lat="49.109594989567995" lon="7.03088496811688">
        <ele>209.69999999999999</ele>
        <time>2018-07-10T16:36:58Z</time>
      </trkpt>
      <trkpt lat="49.109548972919583" lon="7.031038021668792">
        <ele>210.19</ele>
        <time>2018-07-10T16:36:59Z</time>
      </trkpt>
      <trkpt lat="49.109491975978017" lon="7.031219992786646">
        <ele>210.19</ele>
        <time>2018-07-10T16:37:00Z</time>
      </trkpt>
      <trkpt lat="49.108893005177379" lon="7.03296803869307">
        <ele>210.66999999999999</ele>
        <time>2018-07-10T16:37:08Z</time>
      </trkpt>
      <trkpt lat="49.108768031001091" lon="7.033428037539125">
        <ele>211.15000000000001</ele>
        <time>2018-07-10T16:37:10Z</time>
      </trkpt>
      <trkpt lat="49.108669962733984" lon="7.033906979486346">
        <ele>211.15000000000001</ele>
        <time>2018-07-10T16:37:12Z</time>
      </trkpt>
      <trkpt lat="49.108631992712617" lon="7.034162962809205">
        <ele>211.15000000000001</ele>
        <time>2018-07-10T16:37:13Z</time>
      </trkpt>
      <trkpt lat="49.108643978834152" lon="7.034421963617206">
        <ele>211.15000000000001</ele>
        <time>2018-07-10T16:37:14Z</time>
      </trkpt>
      <trkpt lat="49.108664011582732" lon="7.034683981910348">
        <ele>211.15000000000001</ele>
        <time>2018-07-10T16:37:15Z</time>
      </trkpt>
      <trkpt lat="49.108694018796086" lon="7.034937031567097">
        <ele>210.66999999999999</ele>
        <time>2018-07-10T16:37:16Z</time>
      </trkpt>
      <trkpt lat="49.108770964667201" lon="7.035156972706318">
        <ele>210.19</ele>
        <time>2018-07-10T16:37:17Z</time>
      </trkpt>
      <trkpt lat="49.108845982700586" lon="7.035370962694287">
        <ele>209.69999999999999</ele>
        <time>2018-07-10T16:37:18Z</time>
      </trkpt>
      <trkpt lat="49.10891798324883" lon="7.035573972389102">
        <ele>209.22</ele>
        <time>2018-07-10T16:37:19Z</time>
      </trkpt>
      <trkpt lat="49.108997024595737" lon="7.035759966820478">
        <ele>209.22</ele>
        <time>2018-07-10T16:37:20Z</time>
      </trkpt>
      <trkpt lat="49.109532041475177" lon="7.036989005282521">
        <ele>211.15000000000001</ele>
        <time>2018-07-10T16:37:28Z</time>
      </trkpt>
      <trkpt lat="49.109951974824071" lon="7.038156017661095">
        <ele>210.66999999999999</ele>
        <time>2018-07-10T16:37:37Z</time>
      </trkpt>
      <trkpt lat="49.110418008640409" lon="7.039790991693735">
        <ele>210.66999999999999</ele>
        <time>2018-07-10T16:37:47Z</time>
      </trkpt>
      <trkpt lat="49.110763007774949" lon="7.041185991838574">
        <ele>210.19</ele>
        <time>2018-07-10T16:37:58Z</time>
      </trkpt>
      <trkpt lat="49.111230969429016" lon="7.043167976662517">
        <ele>212.59</ele>
        <time>2018-07-10T16:38:11Z</time>
      </trkpt>
      <trkpt lat="49.111376982182264" lon="7.043655971065164">
        <ele>213.06999999999999</ele>
        <time>2018-07-10T16:38:15Z</time>
      </trkpt>
      <trkpt lat="49.111418975517154" lon="7.043781029060483">
        <ele>213.55000000000001</ele>
        <time>2018-07-10T16:38:16Z</time>
      </trkpt>
      <trkpt lat="49.111479995772243" lon="7.04386099241674">
        <ele>213.06999999999999</ele>
        <time>2018-07-10T16:38:17Z</time>
      </trkpt>
      <trkpt lat="49.11156096495688" lon="7.043969035148621">
        <ele>213.06999999999999</ele>
        <time>2018-07-10T16:38:18Z</time>
      </trkpt>
      <trkpt lat="49.11164503544569" lon="7.044079005718231">
        <ele>212.59</ele>
        <time>2018-07-10T16:38:19Z</time>
      </trkpt>
      <trkpt lat="49.111726004630327" lon="7.044186964631081">
        <ele>212.59</ele>
        <time>2018-07-10T16:38:20Z</time>
      </trkpt>
      <trkpt lat="49.111805967986584" lon="7.04429198987782">
        <ele>212.59</ele>
        <time>2018-07-10T16:38:21Z</time>
      </trkpt>
      <trkpt lat="49.11188299767673" lon="7.044393997639418">
        <ele>212.11000000000001</ele>
        <time>2018-07-10T16:38:22Z</time>
      </trkpt>
      <trkpt lat="49.111957009881735" lon="7.044491982087493">
        <ele>211.63</ele>
        <time>2018-07-10T16:38:23Z</time>
      </trkpt>
      <trkpt lat="49.112020041793585" lon="7.044574962928891">
        <ele>211.15000000000001</ele>
        <time>2018-07-10T16:38:24Z</time>
      </trkpt>
      <trkpt lat="49.112077038735151" lon="7.044726004824042">
        <ele>210.19</ele>
        <time>2018-07-10T16:38:25Z</time>
      </trkpt>
      <trkpt lat="49.112128000706434" lon="7.044860031455755">
        <ele>209.69999999999999</ele>
        <time>2018-07-10T16:38:26Z</time>
      </trkpt>
      <trkpt lat="49.112178040668368" lon="7.044992968440056">
        <ele>208.74000000000001</ele>
        <time>2018-07-10T16:38:27Z</time>
      </trkpt>
      <trkpt lat="49.112227996811271" lon="7.045123977586627">
        <ele>208.25999999999999</ele>
        <time>2018-07-10T16:38:28Z</time>
      </trkpt>
      <trkpt lat="49.112787991762161" lon="7.046675970777869">
        <ele>204.41999999999999</ele>
        <time>2018-07-10T16:38:40Z</time>
      </trkpt>
      <trkpt lat="49.112899973988533" lon="7.04706396907568">
        <ele>203.94</ele>
        <time>2018-07-10T16:38:43Z</time>
      </trkpt>
      <trkpt lat="49.112899973988533" lon="7.04706103540957">
        <ele>203.94</ele>
        <time>2018-07-10T16:38:44Z</time>
      </trkpt>
      <trkpt lat="49.112939033657312" lon="7.047191960737109">
        <ele>203.94</ele>
        <time>2018-07-10T16:38:45Z</time>
      </trkpt>
      <trkpt lat="49.112913971766829" lon="7.047314001247287">
        <ele>203.94</ele>
        <time>2018-07-10T16:38:46Z</time>
      </trkpt>
      <trkpt lat="49.112887987866998" lon="7.047445010393858">
        <ele>203.94</ele>
        <time>2018-07-10T16:38:47Z</time>
      </trkpt>
      <trkpt lat="49.112862003967166" lon="7.047576019540429">
        <ele>202.97999999999999</ele>
        <time>2018-07-10T16:38:48Z</time>
      </trkpt>
      <trkpt lat="49.112836020067334" lon="7.047708034515381">
        <ele>202.00999999999999</ele>
        <time>2018-07-10T16:38:49Z</time>
      </trkpt>
      <trkpt lat="49.112860998138785" lon="7.047832002863288">
        <ele>201.05000000000001</ele>
        <time>2018-07-10T16:38:50Z</time>
      </trkpt>
      <trkpt lat="49.112888993695378" lon="7.047969968989492">
        <ele>200.56999999999999</ele>
        <time>2018-07-10T16:38:51Z</time>
      </trkpt>
      <trkpt lat="49.112917995080352" lon="7.048111036419869">
        <ele>199.13</ele>
        <time>2018-07-10T16:38:52Z</time>
      </trkpt>
      <trkpt lat="49.113024026155472" lon="7.048667008057237">
        <ele>196.72999999999999</ele>
        <time>2018-07-10T16:38:56Z</time>
      </trkpt>
      <trkpt lat="49.113042969256639" lon="7.048808997496963">
        <ele>196.25</ele>
        <time>2018-07-10T16:38:57Z</time>
      </trkpt>
      <trkpt lat="49.113061996176839" lon="7.048946041613817">
        <ele>195.77000000000001</ele>
        <time>2018-07-10T16:38:58Z</time>
      </trkpt>
      <trkpt lat="49.113061996176839" lon="7.049250975251198">
        <ele>194.80000000000001</ele>
        <time>2018-07-10T16:39:00Z</time>
      </trkpt>
      <trkpt lat="49.113055039197206" lon="7.049424983561039">
        <ele>194.31999999999999</ele>
        <time>2018-07-10T16:39:01Z</time>
      </trkpt>
      <trkpt lat="49.112809030339122" lon="7.051027016714215">
        <ele>189.03999999999999</ele>
        <time>2018-07-10T16:39:10Z</time>
      </trkpt>
      <trkpt lat="49.112191032618284" lon="7.052808003500104">
        <ele>189.52000000000001</ele>
        <time>2018-07-10T16:39:21Z</time>
      </trkpt>
      <trkpt lat="49.11173002794385" lon="7.054880009964109">
        <ele>187.59</ele>
        <time>2018-07-10T16:39:33Z</time>
      </trkpt>
      <trkpt lat="49.111506985500455" lon="7.056855959817767">
        <ele>187.59</ele>
        <time>2018-07-10T16:39:44Z</time>
      </trkpt>
      <trkpt lat="49.111414030194283" lon="7.058475008234382">
        <ele>188.08000000000001</ele>
        <time>2018-07-10T16:39:53Z</time>
      </trkpt>
      <trkpt lat="49.111404977738857" lon="7.05864398740232">
        <ele>188.56</ele>
        <time>2018-07-10T16:39:54Z</time>
      </trkpt>
      <trkpt lat="49.111434984952211" lon="7.058866024017334">
        <ele>189.03999999999999</ele>
        <time>2018-07-10T16:39:55Z</time>
      </trkpt>
      <trkpt lat="49.111540010198951" lon="7.05900801345706">
        <ele>189.03999999999999</ele>
        <time>2018-07-10T16:39:56Z</time>
      </trkpt>
      <trkpt lat="49.111640006303787" lon="7.059108009561896">
        <ele>189.03999999999999</ele>
        <time>2018-07-10T16:39:57Z</time>
      </trkpt>
      <trkpt lat="49.111727010458708" lon="7.059236001223326">
        <ele>189.03999999999999</ele>
        <time>2018-07-10T16:39:58Z</time>
      </trkpt>
      <trkpt lat="49.111798005178571" lon="7.059392994269729">
        <ele>188.56</ele>
        <time>2018-07-10T16:39:59Z</time>
      </trkpt>
      <trkpt lat="49.111842010170221" lon="7.059571025893092">
        <ele>188.56</ele>
        <time>2018-07-10T16:40:00Z</time>
      </trkpt>
      <trkpt lat="49.111887020990252" lon="7.059749979525805">
        <ele>188.56</ele>
        <time>2018-07-10T16:40:01Z</time>
      </trkpt>
      <trkpt lat="49.11203202791512" lon="7.060445006936789">
        <ele>188.56</ele>
        <time>2018-07-10T16:40:05Z</time>
      </trkpt>
      <trkpt lat="49.11220695823431" lon="7.061455026268959">
        <ele>190</ele>
        <time>2018-07-10T16:40:12Z</time>
      </trkpt>
      <trkpt lat="49.112794026732445" lon="7.063096035271883">
        <ele>189.03999999999999</ele>
        <time>2018-07-10T16:40:21Z</time>
      </trkpt>
      <trkpt lat="49.113363996148109" lon="7.064697984606028">
        <ele>189.52000000000001</ele>
        <time>2018-07-10T16:40:31Z</time>
      </trkpt>
      <trkpt lat="49.113476984202862" lon="7.065947977825999">
        <ele>190</ele>
        <time>2018-07-10T16:40:39Z</time>
      </trkpt>
      <trkpt lat="49.113470027223229" lon="7.066032970324159">
        <ele>190</ele>
        <time>2018-07-10T16:40:40Z</time>
      </trkpt>
      <trkpt lat="49.113462986424565" lon="7.066104970872402">
        <ele>190</ele>
        <time>2018-07-10T16:40:41Z</time>
      </trkpt>
      <trkpt lat="49.113455023616552" lon="7.066176971420646">
        <ele>189.52000000000001</ele>
        <time>2018-07-10T16:40:42Z</time>
      </trkpt>
      <trkpt lat="49.113444965332747" lon="7.066245032474399">
        <ele>189.52000000000001</ele>
        <time>2018-07-10T16:40:43Z</time>
      </trkpt>
      <trkpt lat="49.113433985039592" lon="7.066318960860372">
        <ele>189.03999999999999</ele>
        <time>2018-07-10T16:40:44Z</time>
      </trkpt>
      <trkpt lat="49.113136008381844" lon="7.066967971622944">
        <ele>188.56</ele>
        <time>2018-07-10T16:40:51Z</time>
      </trkpt>
      <trkpt lat="49.112729988992214" lon="7.068279990926385">
        <ele>187.11000000000001</ele>
        <time>2018-07-10T16:40:58Z</time>
      </trkpt>
      <trkpt lat="49.112275019288063" lon="7.069573989138007">
        <ele>182.78999999999999</ele>
        <time>2018-07-10T16:41:07Z</time>
      </trkpt>
      <trkpt lat="49.111718963831663" lon="7.070593982934952">
        <ele>183.75</ele>
        <time>2018-07-10T16:41:14Z</time>
      </trkpt>
      <trkpt lat="49.111310010775924" lon="7.071113996207714">
        <ele>184.22999999999999</ele>
        <time>2018-07-10T16:41:20Z</time>
      </trkpt>
      <trkpt lat="49.111271034926176" lon="7.071160012856126">
        <ele>184.22999999999999</ele>
        <time>2018-07-10T16:41:21Z</time>
      </trkpt>
      <trkpt lat="49.1112370043993" lon="7.071199994534254">
        <ele>184.22999999999999</ele>
        <time>2018-07-10T16:41:22Z</time>
      </trkpt>
      <trkpt lat="49.111210014671087" lon="7.071232013404369">
        <ele>184.22999999999999</ele>
        <time>2018-07-10T16:41:23Z</time>
      </trkpt>
      <trkpt lat="49.111191993579268" lon="7.071254979819059">
        <ele>184.71000000000001</ele>
        <time>2018-07-10T16:41:24Z</time>
      </trkpt>
      <trkpt lat="49.111191993579268" lon="7.071254979819059">
        <ele>184.71000000000001</ele>
        <time>2018-07-10T16:41:36Z</time>
      </trkpt>
      <trkpt lat="49.111112030223012" lon="7.071308959275484">
        <ele>185.66999999999999</ele>
        <time>2018-07-10T16:41:39Z</time>
      </trkpt>
      <trkpt lat="49.111053021624684" lon="7.071332009509206">
        <ele>186.15000000000001</ele>
        <time>2018-07-10T16:41:40Z</time>
      </trkpt>
      <trkpt lat="49.110410967841744" lon="7.071654964238405">
        <ele>190</ele>
        <time>2018-07-10T16:41:48Z</time>
      </trkpt>
      <trkpt lat="49.109780983999372" lon="7.071859985589981">
        <ele>193.84</ele>
        <time>2018-07-10T16:41:53Z</time>
      </trkpt>
      <trkpt lat="49.109469009563327" lon="7.071894016116858">
        <ele>195.28</ele>
        <time>2018-07-10T16:41:56Z</time>
      </trkpt>
      <trkpt lat="49.109045974910259" lon="7.071810029447079">
        <ele>196.25</ele>
        <time>2018-07-10T16:42:00Z</time>
      </trkpt>
      <trkpt lat="49.108963999897242" lon="7.071775998920202">
        <ele>196.72999999999999</ele>
        <time>2018-07-10T16:42:01Z</time>
      </trkpt>
      <trkpt lat="49.108885964378715" lon="7.071717996150255">
        <ele>196.72999999999999</ele>
        <time>2018-07-10T16:42:02Z</time>
      </trkpt>
      <trkpt lat="49.108811030164361" lon="7.07164297811687">
        <ele>196.72999999999999</ele>
        <time>2018-07-10T16:42:03Z</time>
      </trkpt>
      <trkpt lat="49.108731988817453" lon="7.071544993668795">
        <ele>196.72999999999999</ele>
        <time>2018-07-10T16:42:04Z</time>
      </trkpt>
      <trkpt lat="49.108667029067874" lon="7.071432005614042">
        <ele>196.72999999999999</ele>
        <time>2018-07-10T16:42:05Z</time>
      </trkpt>
      <trkpt lat="49.108606008812785" lon="7.071326980367303">
        <ele>196.72999999999999</ele>
        <time>2018-07-10T16:42:06Z</time>
      </trkpt>
      <trkpt lat="49.10855102352798" lon="7.071232013404369">
        <ele>196.72999999999999</ele>
        <time>2018-07-10T16:42:07Z</time>
      </trkpt>
      <trkpt lat="49.108504001051188" lon="7.071133023127914">
        <ele>197.21000000000001</ele>
        <time>2018-07-10T16:42:08Z</time>
      </trkpt>
      <trkpt lat="49.108457984402776" lon="7.071010982617736">
        <ele>197.21000000000001</ele>
        <time>2018-07-10T16:42:09Z</time>
      </trkpt>
      <trkpt lat="49.108408028259873" lon="7.070991033688188">
        <ele>197.21000000000001</ele>
        <time>2018-07-10T16:42:10Z</time>
      </trkpt>
      <trkpt lat="49.108351031318307" lon="7.070967983454466">
        <ele>197.21000000000001</ele>
        <time>2018-07-10T16:42:11Z</time>
      </trkpt>
      <trkpt lat="49.108265032991767" lon="7.071033027023077">
        <ele>197.69</ele>
        <time>2018-07-10T16:42:12Z</time>
      </trkpt>
      <trkpt lat="49.1082080360502" lon="7.071053981781006">
        <ele>197.69</ele>
        <time>2018-07-10T16:42:13Z</time>
      </trkpt>
      <trkpt lat="49.1082080360502" lon="7.071053981781006">
        <ele>198.16999999999999</ele>
        <time>2018-07-10T16:42:14Z</time>
      </trkpt>
      <trkpt lat="49.108034027740359" lon="7.071118019521236">
        <ele>198.65000000000001</ele>
        <time>2018-07-10T16:42:15Z</time>
      </trkpt>
      <trkpt lat="49.107086034491658" lon="7.071458995342255">
        <ele>199.61000000000001</ele>
        <time>2018-07-10T16:42:25Z</time>
      </trkpt>
      <trkpt lat="49.106859974563122" lon="7.071535019204021">
        <ele>199.61000000000001</ele>
        <time>2018-07-10T16:42:29Z</time>
      </trkpt>
      <trkpt lat="49.106387989595532" lon="7.071683965623379">
        <ele>200.09</ele>
        <time>2018-07-10T16:42:37Z</time>
      </trkpt>
      <trkpt lat="49.105761023238301" lon="7.071911031380296">
        <ele>200.09</ele>
        <time>2018-07-10T16:42:45Z</time>
      </trkpt>
      <trkpt lat="49.105682987719774" lon="7.07194103859365">
        <ele>199.61000000000001</ele>
        <time>2018-07-10T16:42:46Z</time>
      </trkpt>
      <trkpt lat="49.10554300993681" lon="7.072046985849738">
        <ele>199.61000000000001</ele>
        <time>2018-07-10T16:42:48Z</time>
      </trkpt>
      <trkpt lat="49.105467991903424" lon="7.072112029418349">
        <ele>199.61000000000001</ele>
        <time>2018-07-10T16:42:49Z</time>
      </trkpt>
      <trkpt lat="49.104536008089781" lon="7.073135040700436">
        <ele>198.16999999999999</ele>
        <time>2018-07-10T16:43:00Z</time>
      </trkpt>
      <trkpt lat="49.103952962905169" lon="7.073777010664344">
        <ele>200.56999999999999</ele>
        <time>2018-07-10T16:43:06Z</time>
      </trkpt>
      <trkpt lat="49.103865958750248" lon="7.073825960978866">
        <ele>201.05000000000001</ele>
        <time>2018-07-10T16:43:07Z</time>
      </trkpt>
      <trkpt lat="49.10378398373723" lon="7.073858985677362">
        <ele>201.53</ele>
        <time>2018-07-10T16:43:08Z</time>
      </trkpt>
      <trkpt lat="49.103701002895832" lon="7.0738760009408">
        <ele>202.00999999999999</ele>
        <time>2018-07-10T16:43:09Z</time>
      </trkpt>
      <trkpt lat="49.103699997067451" lon="7.0738760009408">
        <ele>202.49000000000001</ele>
        <time>2018-07-10T16:43:10Z</time>
      </trkpt>
      <trkpt lat="49.103549961000681" lon="7.073795031756163">
        <ele>202.97999999999999</ele>
        <time>2018-07-10T16:43:11Z</time>
      </trkpt>
      <trkpt lat="49.103455999866128" lon="7.073780028149486">
        <ele>202.97999999999999</ele>
        <time>2018-07-10T16:43:12Z</time>
      </trkpt>
      <trkpt lat="49.103375030681491" lon="7.073821015655994">
        <ele>202.97999999999999</ele>
        <time>2018-07-10T16:43:13Z</time>
      </trkpt>
      <trkpt lat="49.103291966021061" lon="7.07389997318387">
        <ele>203.46000000000001</ele>
        <time>2018-07-10T16:43:14Z</time>
      </trkpt>
      <trkpt lat="49.103090967983007" lon="7.074146987870336">
        <ele>202.49000000000001</ele>
        <time>2018-07-10T16:43:17Z</time>
      </trkpt>
      <trkpt lat="49.103003041818738" lon="7.074209013953805">
        <ele>202.49000000000001</ele>
        <time>2018-07-10T16:43:18Z</time>
      </trkpt>
      <trkpt lat="49.10290396772325" lon="7.074254024773836">
        <ele>202.49000000000001</ele>
        <time>2018-07-10T16:43:19Z</time>
      </trkpt>
      <trkpt lat="49.1028150357306" lon="7.074294006451964">
        <ele>202.97999999999999</ele>
        <time>2018-07-10T16:43:20Z</time>
      </trkpt>
      <trkpt lat="49.102755021303892" lon="7.074443036690354">
        <ele>202.97999999999999</ele>
        <time>2018-07-10T16:43:21Z</time>
      </trkpt>
      <trkpt lat="49.102723002433777" lon="7.074576979503036">
        <ele>203.46000000000001</ele>
        <time>2018-07-10T16:43:22Z</time>
      </trkpt>
      <trkpt lat="49.102711016312242" lon="7.074730033054948">
        <ele>203.46000000000001</ele>
        <time>2018-07-10T16:43:23Z</time>
      </trkpt>
      <trkpt lat="49.10273197107017" lon="7.074860036373138">
        <ele>203.94</ele>
        <time>2018-07-10T16:43:24Z</time>
      </trkpt>
      <trkpt lat="49.10277203656733" lon="7.075007976964116">
        <ele>203.94</ele>
        <time>2018-07-10T16:43:25Z</time>
      </trkpt>
      <trkpt lat="49.102813024073839" lon="7.07516698166728">
        <ele>203.94</ele>
        <time>2018-07-10T16:43:26Z</time>
      </trkpt>
      <trkpt lat="49.103189958259463" lon="7.076599029824138">
        <ele>203.94</ele>
        <time>2018-07-10T16:43:33Z</time>
      </trkpt>
      <trkpt lat="49.1041240375489" lon="7.079916000366211">
        <ele>206.34</ele>
        <time>2018-07-10T16:43:46Z</time>
      </trkpt>
      <trkpt lat="49.104959964752197" lon="7.082684962078929">
        <ele>209.22</ele>
        <time>2018-07-10T16:43:57Z</time>
      </trkpt>
      <trkpt lat="49.105165991932154" lon="7.083130963146687">
        <ele>209.69999999999999</ele>
        <time>2018-07-10T16:43:59Z</time>
      </trkpt>
      <trkpt lat="49.106155978515744" lon="7.084515988826752">
        <ele>212.59</ele>
        <time>2018-07-10T16:44:07Z</time>
      </trkpt>
      <trkpt lat="49.106831979006529" lon="7.085178997367621">
        <ele>214.50999999999999</ele>
        <time>2018-07-10T16:44:13Z</time>
      </trkpt>
      <trkpt lat="49.106920994818211" lon="7.085309000685811">
        <ele>214.50999999999999</ele>
        <time>2018-07-10T16:44:14Z</time>
      </trkpt>
      <trkpt lat="49.107159040868282" lon="7.08575701341033">
        <ele>215.47</ele>
        <time>2018-07-10T16:44:17Z</time>
      </trkpt>
      <trkpt lat="49.107393985614181" lon="7.086482970044017">
        <ele>218.84</ele>
        <time>2018-07-10T16:44:22Z</time>
      </trkpt>
      <trkpt lat="49.107448970898986" lon="7.086561005562544">
        <ele>219.31999999999999</ele>
        <time>2018-07-10T16:44:23Z</time>
      </trkpt>
      <trkpt lat="49.107662038877606" lon="7.086868034675717">
        <ele>220.75999999999999</ele>
        <time>2018-07-10T16:44:28Z</time>
      </trkpt>
      <trkpt lat="49.107709983363748" lon="7.086947998031974">
        <ele>221.24000000000001</ele>
        <time>2018-07-10T16:44:29Z</time>
      </trkpt>
      <trkpt lat="49.107728004455566" lon="7.087050005793572">
        <ele>221.24000000000001</ele>
        <time>2018-07-10T16:44:30Z</time>
      </trkpt>
      <trkpt lat="49.107748037204146" lon="7.087158970534802">
        <ele>221.72</ele>
        <time>2018-07-10T16:44:31Z</time>
      </trkpt>
      <trkpt lat="49.107803022488952" lon="7.087247986346483">
        <ele>221.72</ele>
        <time>2018-07-10T16:44:32Z</time>
      </trkpt>
      <trkpt lat="49.107862031087279" lon="7.087335996329784">
        <ele>221.72</ele>
        <time>2018-07-10T16:44:33Z</time>
      </trkpt>
      <trkpt lat="49.107921961694956" lon="7.087426017969847">
        <ele>222.19999999999999</ele>
        <time>2018-07-10T16:44:34Z</time>
      </trkpt>
      <trkpt lat="49.108003014698625" lon="7.087441021576524">
        <ele>222.19999999999999</ele>
        <time>2018-07-10T16:44:35Z</time>
      </trkpt>
      <trkpt lat="49.108084989711642" lon="7.087456025183201">
        <ele>222.19999999999999</ele>
        <time>2018-07-10T16:44:36Z</time>
      </trkpt>
      <trkpt lat="49.108157996088266" lon="7.087469017133117">
        <ele>222.19999999999999</ele>
        <time>2018-07-10T16:44:37Z</time>
      </trkpt>
      <trkpt lat="49.108239971101284" lon="7.087396010756493">
        <ele>222.19999999999999</ele>
        <time>2018-07-10T16:44:38Z</time>
      </trkpt>
      <trkpt lat="49.108324041590095" lon="7.087320992723107">
        <ele>222.19999999999999</ele>
        <time>2018-07-10T16:44:39Z</time>
      </trkpt>
      <trkpt lat="49.108385983854532" lon="7.087215967476368">
        <ele>222.19999999999999</ele>
        <time>2018-07-10T16:44:40Z</time>
      </trkpt>
      <trkpt lat="49.108439963310957" lon="7.087088981643319">
        <ele>222.19999999999999</ele>
        <time>2018-07-10T16:44:41Z</time>
      </trkpt>
      <trkpt lat="49.108512969687581" lon="7.086964007467032">
        <ele>222.19999999999999</ele>
        <time>2018-07-10T16:44:42Z</time>
      </trkpt>
      <trkpt lat="49.108586981892586" lon="7.086889995262027">
        <ele>221.72</ele>
        <time>2018-07-10T16:44:43Z</time>
      </trkpt>
      <trkpt lat="49.108697958290577" lon="7.086898041889072">
        <ele>221.72</ele>
        <time>2018-07-10T16:44:44Z</time>
      </trkpt>
      <trkpt lat="49.108798960223794" lon="7.086904998868704">
        <ele>221.24000000000001</ele>
        <time>2018-07-10T16:44:45Z</time>
      </trkpt>
      <trkpt lat="49.108915971592069" lon="7.086943974718452">
        <ele>220.75999999999999</ele>
        <time>2018-07-10T16:44:46Z</time>
      </trkpt>
      <trkpt lat="49.109017979353666" lon="7.087060986086726">
        <ele>220.28</ele>
        <time>2018-07-10T16:44:47Z</time>
      </trkpt>
      <trkpt lat="49.109135996550322" lon="7.087195012718439">
        <ele>219.80000000000001</ele>
        <time>2018-07-10T16:44:48Z</time>
      </trkpt>
      <trkpt lat="49.109135996550322" lon="7.087195012718439">
        <ele>219.31999999999999</ele>
        <time>2018-07-10T16:44:49Z</time>
      </trkpt>
      <trkpt lat="49.110255986452103" lon="7.088815988972783">
        <ele>219.31999999999999</ele>
        <time>2018-07-10T16:44:56Z</time>
      </trkpt>
      <trkpt lat="49.111210014671087" lon="7.090864023193717">
        <ele>219.80000000000001</ele>
        <time>2018-07-10T16:45:04Z</time>
      </trkpt>
      <trkpt lat="49.111956004053354" lon="7.093455959111452">
        <ele>221.24000000000001</ele>
        <time>2018-07-10T16:45:15Z</time>
      </trkpt>
      <trkpt lat="49.112721020355821" lon="7.096258029341698">
        <ele>225.56999999999999</ele>
        <time>2018-07-10T16:45:27Z</time>
      </trkpt>
      <trkpt lat="49.113094015046954" lon="7.097639031708241">
        <ele>228.93000000000001</ele>
        <time>2018-07-10T16:45:34Z</time>
      </trkpt>
      <trkpt lat="49.113164003938437" lon="7.097793007269502">
        <ele>229.41</ele>
        <time>2018-07-10T16:45:35Z</time>
      </trkpt>
      <trkpt lat="49.113243967294693" lon="7.097922004759312">
        <ele>229.88999999999999</ele>
        <time>2018-07-10T16:45:36Z</time>
      </trkpt>
      <trkpt lat="49.113438008353114" lon="7.098235990852118">
        <ele>230.37</ele>
        <time>2018-07-10T16:45:39Z</time>
      </trkpt>
      <trkpt lat="49.113488970324397" lon="7.098318971693516">
        <ele>230.84999999999999</ele>
        <time>2018-07-10T16:45:40Z</time>
      </trkpt>
      <trkpt lat="49.113534986972809" lon="7.098392983898521">
        <ele>230.84999999999999</ele>
        <time>2018-07-10T16:45:41Z</time>
      </trkpt>
      <trkpt lat="49.113492993637919" lon="7.09858501330018">
        <ele>231.33000000000001</ele>
        <time>2018-07-10T16:45:42Z</time>
      </trkpt>
      <trkpt lat="49.113454017788172" lon="7.098690960556269">
        <ele>231.81</ele>
        <time>2018-07-10T16:45:43Z</time>
      </trkpt>
      <trkpt lat="49.113417975604534" lon="7.098839990794659">
        <ele>232.30000000000001</ele>
        <time>2018-07-10T16:45:44Z</time>
      </trkpt>
      <trkpt lat="49.113427028059959" lon="7.098978962749243">
        <ele>232.78</ele>
        <time>2018-07-10T16:45:45Z</time>
      </trkpt>
      <trkpt lat="49.113452006131411" lon="7.099151965230703">
        <ele>232.78</ele>
        <time>2018-07-10T16:45:46Z</time>
      </trkpt>
      <trkpt lat="49.113509003072977" lon="7.099266964942217">
        <ele>232.78</ele>
        <time>2018-07-10T16:45:47Z</time>
      </trkpt>
      <trkpt lat="49.113593995571136" lon="7.099375007674098">
        <ele>232.30000000000001</ele>
        <time>2018-07-10T16:45:48Z</time>
      </trkpt>
      <trkpt lat="49.113592989742756" lon="7.099375007674098">
        <ele>232.30000000000001</ele>
        <time>2018-07-10T16:45:49Z</time>
      </trkpt>
      <trkpt lat="49.113777978345752" lon="7.099399985745549">
        <ele>231.81</ele>
        <time>2018-07-10T16:45:50Z</time>
      </trkpt>
      <trkpt lat="49.11386095918715" lon="7.099385987967253">
        <ele>231.81</ele>
        <time>2018-07-10T16:45:51Z</time>
      </trkpt>
      <trkpt lat="49.113975958898664" lon="7.099460000172257">
        <ele>231.33000000000001</ele>
        <time>2018-07-10T16:45:52Z</time>
      </trkpt>
      <trkpt lat="49.114063968881965" lon="7.099540969356895">
        <ele>231.33000000000001</ele>
        <time>2018-07-10T16:45:53Z</time>
      </trkpt>
      <trkpt lat="49.114171005785465" lon="7.099617999047041">
        <ele>230.84999999999999</ele>
        <time>2018-07-10T16:45:54Z</time>
      </trkpt>
      <trkpt lat="49.114281982183456" lon="7.099697040393949">
        <ele>230.37</ele>
        <time>2018-07-10T16:45:55Z</time>
      </trkpt>
      <trkpt lat="49.114393964409828" lon="7.099777003750205">
        <ele>230.37</ele>
        <time>2018-07-10T16:45:56Z</time>
      </trkpt>
      <trkpt lat="49.115933971479535" lon="7.100568003952503">
        <ele>228.93000000000001</ele>
        <time>2018-07-10T16:46:08Z</time>
      </trkpt>
      <trkpt lat="49.116236977279186" lon="7.100681997835636">
        <ele>228.93000000000001</ele>
        <time>2018-07-10T16:46:11Z</time>
      </trkpt>
      <trkpt lat="49.116323981434107" lon="7.100724996998906">
        <ele>228.93000000000001</ele>
        <time>2018-07-10T16:46:12Z</time>
      </trkpt>
      <trkpt lat="49.116386007517576" lon="7.100885007530451">
        <ele>228.93000000000001</ele>
        <time>2018-07-10T16:46:13Z</time>
      </trkpt>
      <trkpt lat="49.116698987782001" lon="7.101344000548124">
        <ele>228.44999999999999</ele>
        <time>2018-07-10T16:46:17Z</time>
      </trkpt>
      <trkpt lat="49.116698987782001" lon="7.101344000548124">
        <ele>227.97</ele>
        <time>2018-07-10T16:46:18Z</time>
      </trkpt>
      <trkpt lat="49.116808958351612" lon="7.10161398164928">
        <ele>227.97</ele>
        <time>2018-07-10T16:46:19Z</time>
      </trkpt>
      <trkpt lat="49.116848018020391" lon="7.101782960817218">
        <ele>227.97</ele>
        <time>2018-07-10T16:46:20Z</time>
      </trkpt>
      <trkpt lat="49.116848018020391" lon="7.101965015754104">
        <ele>227.97</ele>
        <time>2018-07-10T16:46:21Z</time>
      </trkpt>
      <trkpt lat="49.116848018020391" lon="7.102155033499003">
        <ele>227.97</ele>
        <time>2018-07-10T16:46:22Z</time>
      </trkpt>
      <trkpt lat="49.116812981665134" lon="7.10236500017345">
        <ele>228.44999999999999</ele>
        <time>2018-07-10T16:46:23Z</time>
      </trkpt>
      <trkpt lat="49.116771994158626" lon="7.102562980726361">
        <ele>228.44999999999999</ele>
        <time>2018-07-10T16:46:24Z</time>
      </trkpt>
      <trkpt lat="49.116288023069501" lon="7.104625012725592">
        <ele>233.74000000000001</ele>
        <time>2018-07-10T16:46:34Z</time>
      </trkpt>
      <trkpt lat="49.115633983165026" lon="7.10732901468873">
        <ele>240.94999999999999</ele>
        <time>2018-07-10T16:46:46Z</time>
      </trkpt>
      <trkpt lat="49.114949014037848" lon="7.110189003869891">
        <ele>250.08000000000001</ele>
        <time>2018-07-10T16:46:58Z</time>
      </trkpt>
      <trkpt lat="49.114283993840218" lon="7.113017980009317">
        <ele>251.52000000000001</ele>
        <time>2018-07-10T16:47:10Z</time>
      </trkpt>
      <trkpt lat="49.113503973931074" lon="7.116003027185798">
        <ele>250.56</ele>
        <time>2018-07-10T16:47:22Z</time>
      </trkpt>
      <trkpt lat="49.112652959302068" lon="7.118468983098865">
        <ele>256.81</ele>
        <time>2018-07-10T16:47:31Z</time>
      </trkpt>
      <trkpt lat="49.111642017960548" lon="7.121342970058322">
        <ele>262.57999999999998</ele>
        <time>2018-07-10T16:47:40Z</time>
      </trkpt>
      <trkpt lat="49.110772982239723" lon="7.123799035325646">
        <ele>266.89999999999998</ele>
        <time>2018-07-10T16:47:48Z</time>
      </trkpt>
      <trkpt lat="49.109643017873168" lon="7.127061020582914">
        <ele>267.86000000000001</ele>
        <time>2018-07-10T16:48:00Z</time>
      </trkpt>
      <trkpt lat="49.108634004369378" lon="7.130010025575757">
        <ele>268.82999999999998</ele>
        <time>2018-07-10T16:48:12Z</time>
      </trkpt>
      <trkpt lat="49.107294995337725" lon="7.133981036022306">
        <ele>274.11000000000001</ele>
        <time>2018-07-10T16:48:29Z</time>
      </trkpt>
      <trkpt lat="49.106548000127077" lon="7.136972034350038">
        <ele>281.80000000000001</ele>
        <time>2018-07-10T16:48:41Z</time>
      </trkpt>
      <trkpt lat="49.106282964348793" lon="7.14009596966207">
        <ele>288.52999999999997</ele>
        <time>2018-07-10T16:48:53Z</time>
      </trkpt>
      <trkpt lat="49.106354964897037" lon="7.143238009884954">
        <ele>295.74000000000001</ele>
        <time>2018-07-10T16:49:05Z</time>
      </trkpt>
      <trkpt lat="49.106291010975838" lon="7.144847000017762">
        <ele>298.63</ele>
        <time>2018-07-10T16:49:11Z</time>
      </trkpt>
      <trkpt lat="49.105869987979531" lon="7.146606026217341">
        <ele>301.99000000000001</ele>
        <time>2018-07-10T16:49:18Z</time>
      </trkpt>
      <trkpt lat="49.105839980766177" lon="7.146886987611651">
        <ele>302.94999999999999</ele>
        <time>2018-07-10T16:49:19Z</time>
      </trkpt>
      <trkpt lat="49.105839980766177" lon="7.147173983976245">
        <ele>303.91000000000003</ele>
        <time>2018-07-10T16:49:20Z</time>
      </trkpt>
      <trkpt lat="49.105839980766177" lon="7.147172978147864">
        <ele>304.88</ele>
        <time>2018-07-10T16:49:21Z</time>
      </trkpt>
      <trkpt lat="49.105839980766177" lon="7.147761974483728">
        <ele>305.36000000000001</ele>
        <time>2018-07-10T16:49:22Z</time>
      </trkpt>
      <trkpt lat="49.105878034606576" lon="7.148052994161844">
        <ele>305.83999999999997</ele>
        <time>2018-07-10T16:49:23Z</time>
      </trkpt>
      <trkpt lat="49.105925979092717" lon="7.14834401383996">
        <ele>306.80000000000001</ele>
        <time>2018-07-10T16:49:24Z</time>
      </trkpt>
      <trkpt lat="49.105992028489709" lon="7.14862204156816">
        <ele>307.27999999999997</ele>
        <time>2018-07-10T16:49:25Z</time>
      </trkpt>
      <trkpt lat="49.106071991845965" lon="7.148893028497696">
        <ele>307.75999999999999</ele>
        <time>2018-07-10T16:49:26Z</time>
      </trkpt>
      <trkpt lat="49.106154972687364" lon="7.149159992113709">
        <ele>307.75999999999999</ele>
        <time>2018-07-10T16:49:27Z</time>
      </trkpt>
      <trkpt lat="49.106242982670665" lon="7.149424022063613">
        <ele>308.24000000000001</ele>
        <time>2018-07-10T16:49:28Z</time>
      </trkpt>
      <trkpt lat="49.106669034808874" lon="7.151357978582382">
        <ele>312.08999999999997</ele>
        <time>2018-07-10T16:49:35Z</time>
      </trkpt>
      <trkpt lat="49.106659982353449" lon="7.151644974946976">
        <ele>312.56999999999999</ele>
        <time>2018-07-10T16:49:36Z</time>
      </trkpt>
      <trkpt lat="49.106636010110378" lon="7.151930965483189">
        <ele>313.52999999999997</ele>
        <time>2018-07-10T16:49:37Z</time>
      </trkpt>
      <trkpt lat="49.106611032038927" lon="7.152215028181672">
        <ele>314.00999999999999</ele>
        <time>2018-07-10T16:49:38Z</time>
      </trkpt>
      <trkpt lat="49.106549005955458" lon="7.152493977919221">
        <ele>314.97000000000003</ele>
        <time>2018-07-10T16:49:39Z</time>
      </trkpt>
      <trkpt lat="49.106486979871988" lon="7.152774017304182">
        <ele>315.93000000000001</ele>
        <time>2018-07-10T16:49:40Z</time>
      </trkpt>
      <trkpt lat="49.10642403177917" lon="7.153056990355253">
        <ele>316.88999999999999</ele>
        <time>2018-07-10T16:49:41Z</time>
      </trkpt>
      <trkpt lat="49.106053970754147" lon="7.154759019613266">
        <ele>320.74000000000001</ele>
        <time>2018-07-10T16:49:47Z</time>
      </trkpt>
      <trkpt lat="49.106046007946134" lon="7.155052972957492">
        <ele>321.22000000000003</ele>
        <time>2018-07-10T16:49:48Z</time>
      </trkpt>
      <trkpt lat="49.106037961319089" lon="7.15534701012075">
        <ele>321.69999999999999</ele>
        <time>2018-07-10T16:49:49Z</time>
      </trkpt>
      <trkpt lat="49.105938971042633" lon="7.157688997685909">
        <ele>323.62</ele>
        <time>2018-07-10T16:49:57Z</time>
      </trkpt>
      <trkpt lat="49.105324996635318" lon="7.159910034388304">
        <ele>322.66000000000003</ele>
        <time>2018-07-10T16:50:05Z</time>
      </trkpt>
      <trkpt lat="49.104025969281793" lon="7.163900993764401">
        <ele>315.93000000000001</ele>
        <time>2018-07-10T16:50:20Z</time>
      </trkpt>
      <trkpt lat="49.103093985468149" lon="7.166068973019719">
        <ele>315.44999999999999</ele>
        <time>2018-07-10T16:50:29Z</time>
      </trkpt>
      <trkpt lat="49.101622039452195" lon="7.16881999745965">
        <ele>321.69999999999999</ele>
        <time>2018-07-10T16:50:41Z</time>
      </trkpt>
      <trkpt lat="49.100819975137711" lon="7.170412978157401">
        <ele>328.43000000000001</ele>
        <time>2018-07-10T16:50:49Z</time>
      </trkpt>
      <trkpt lat="49.100547982379794" lon="7.171013960614801">
        <ele>331.79000000000002</ele>
        <time>2018-07-10T16:50:55Z</time>
      </trkpt>
      <trkpt lat="49.100380009040236" lon="7.171416040509939">
        <ele>333.70999999999998</ele>
        <time>2018-07-10T16:51:01Z</time>
      </trkpt>
      <trkpt lat="49.100213041529059" lon="7.171486029401422">
        <ele>333.70999999999998</ele>
        <time>2018-07-10T16:51:03Z</time>
      </trkpt>
      <trkpt lat="49.100123019888997" lon="7.171604968607426">
        <ele>334.19999999999999</ele>
        <time>2018-07-10T16:51:04Z</time>
      </trkpt>
      <trkpt lat="49.100111033767462" lon="7.171747963875532">
        <ele>334.19999999999999</ele>
        <time>2018-07-10T16:51:05Z</time>
      </trkpt>
      <trkpt lat="49.100167024880648" lon="7.17193303629756">
        <ele>334.68000000000001</ele>
        <time>2018-07-10T16:51:06Z</time>
      </trkpt>
      <trkpt lat="49.100120002403855" lon="7.172091035172343">
        <ele>334.19999999999999</ele>
        <time>2018-07-10T16:51:07Z</time>
      </trkpt>
      <trkpt lat="49.100058982148767" lon="7.172262025997043">
        <ele>333.70999999999998</ele>
        <time>2018-07-10T16:51:08Z</time>
      </trkpt>
      <trkpt lat="49.099991004914045" lon="7.172446008771658">
        <ele>333.70999999999998</ele>
        <time>2018-07-10T16:51:09Z</time>
      </trkpt>
      <trkpt lat="49.099365966394544" lon="7.174290027469397">
        <ele>333.23000000000002</ele>
        <time>2018-07-10T16:51:17Z</time>
      </trkpt>
      <trkpt lat="49.09860203973949" lon="7.176464963704348">
        <ele>334.19999999999999</ele>
        <time>2018-07-10T16:51:25Z</time>
      </trkpt>
      <trkpt lat="49.097786983475089" lon="7.178864032030106">
        <ele>332.75</ele>
        <time>2018-07-10T16:51:33Z</time>
      </trkpt>
      <trkpt lat="49.096340015530586" lon="7.183122038841248">
        <ele>334.19999999999999</ele>
        <time>2018-07-10T16:51:49Z</time>
      </trkpt>
      <trkpt lat="49.094854993745685" lon="7.187431007623673">
        <ele>332.26999999999998</ele>
        <time>2018-07-10T16:52:05Z</time>
      </trkpt>
      <trkpt lat="49.093979001045227" lon="7.189941974356771">
        <ele>334.19999999999999</ele>
        <time>2018-07-10T16:52:15Z</time>
      </trkpt>
      <trkpt lat="49.093295037746429" lon="7.192041976377368">
        <ele>334.68000000000001</ele>
        <time>2018-07-10T16:52:25Z</time>
      </trkpt>
      <trkpt lat="49.092681985348463" lon="7.194034019485116">
        <ele>332.75</ele>
        <time>2018-07-10T16:52:35Z</time>
      </trkpt>
      <trkpt lat="49.09258701838553" lon="7.194337025284767">
        <ele>332.75</ele>
        <time>2018-07-10T16:52:38Z</time>
      </trkpt>
      <trkpt lat="49.092562040314078" lon="7.194419000297785">
        <ele>332.26999999999998</ele>
        <time>2018-07-10T16:52:39Z</time>
      </trkpt>
      <trkpt lat="49.092466989532113" lon="7.194499969482422">
        <ele>332.26999999999998</ele>
        <time>2018-07-10T16:52:40Z</time>
      </trkpt>
      <trkpt lat="49.092305973172188" lon="7.194550009444356">
        <ele>332.75</ele>
        <time>2018-07-10T16:52:42Z</time>
      </trkpt>
      <trkpt lat="49.092249982059002" lon="7.194671966135502">
        <ele>332.75</ele>
        <time>2018-07-10T16:52:43Z</time>
      </trkpt>
      <trkpt lat="49.092213017866015" lon="7.194784032180905">
        <ele>332.75</ele>
        <time>2018-07-10T16:52:44Z</time>
      </trkpt>
      <trkpt lat="49.092220980674028" lon="7.194956028833985">
        <ele>332.75</ele>
        <time>2018-07-10T16:52:45Z</time>
      </trkpt>
      <trkpt lat="49.092250987887383" lon="7.19507304020226">
        <ele>333.23000000000002</ele>
        <time>2018-07-10T16:52:46Z</time>
      </trkpt>
      <trkpt lat="49.092335980385542" lon="7.19516197219491">
        <ele>333.23000000000002</ele>
        <time>2018-07-10T16:52:47Z</time>
      </trkpt>
      <trkpt lat="49.092418039217591" lon="7.195226009935141">
        <ele>333.70999999999998</ele>
        <time>2018-07-10T16:52:48Z</time>
      </trkpt>
      <trkpt lat="49.092489033937454" lon="7.195405969396234">
        <ele>333.70999999999998</ele>
        <time>2018-07-10T16:52:49Z</time>
      </trkpt>
      <trkpt lat="49.092525998130441" lon="7.195604033768177">
        <ele>333.70999999999998</ele>
        <time>2018-07-10T16:52:50Z</time>
      </trkpt>
      <trkpt lat="49.092551982030272" lon="7.195827998220921">
        <ele>333.70999999999998</ele>
        <time>2018-07-10T16:52:51Z</time>
      </trkpt>
      <trkpt lat="49.092797990888357" lon="7.198037970811129">
        <ele>336.60000000000002</ele>
        <time>2018-07-10T16:52:59Z</time>
      </trkpt>
      <trkpt lat="49.092890024185181" lon="7.201060988008976">
        <ele>339</ele>
        <time>2018-07-10T16:53:09Z</time>
      </trkpt>
      <trkpt lat="49.093177020549774" lon="7.204367984086275">
        <ele>338.51999999999998</ele>
        <time>2018-07-10T16:53:20Z</time>
      </trkpt>
      <trkpt lat="49.093790994957089" lon="7.208494981750846">
        <ele>342.37</ele>
        <time>2018-07-10T16:53:34Z</time>
      </trkpt>
      <trkpt lat="49.094762960448861" lon="7.211788985878229">
        <ele>345.73000000000002</ele>
        <time>2018-07-10T16:53:46Z</time>
      </trkpt>
      <trkpt lat="49.096117978915572" lon="7.214748971164227">
        <ele>350.54000000000002</ele>
        <time>2018-07-10T16:53:58Z</time>
      </trkpt>
      <trkpt lat="49.097709031775594" lon="7.217792021110654">
        <ele>353.89999999999998</ele>
        <time>2018-07-10T16:54:10Z</time>
      </trkpt>
      <trkpt lat="49.099696967750788" lon="7.221617018803954">
        <ele>360.14999999999998</ele>
        <time>2018-07-10T16:54:22Z</time>
      </trkpt>
      <trkpt lat="49.100817963480949" lon="7.224451024085283">
        <ele>364</ele>
        <time>2018-07-10T16:54:30Z</time>
      </trkpt>
      <trkpt lat="49.101386005058885" lon="7.226950004696846">
        <ele>365.44</ele>
        <time>2018-07-10T16:54:37Z</time>
      </trkpt>
      <trkpt lat="49.101647017523646" lon="7.229469018056989">
        <ele>364.95999999999998</ele>
        <time>2018-07-10T16:54:45Z</time>
      </trkpt>
      <trkpt lat="49.101578034460545" lon="7.2325249761343">
        <ele>361.58999999999997</ele>
        <time>2018-07-10T16:54:55Z</time>
      </trkpt>
      <trkpt lat="49.101151982322335" lon="7.235135016962886">
        <ele>360.63</ele>
        <time>2018-07-10T16:55:04Z</time>
      </trkpt>
      <trkpt lat="49.100250005722046" lon="7.237985031679273">
        <ele>358.70999999999998</ele>
        <time>2018-07-10T16:55:15Z</time>
      </trkpt>
      <trkpt lat="49.098972016945481" lon="7.240465991199017">
        <ele>358.23000000000002</ele>
        <time>2018-07-10T16:55:25Z</time>
      </trkpt>
      <trkpt lat="49.096806971356273" lon="7.24395303055644">
        <ele>360.63</ele>
        <time>2018-07-10T16:55:39Z</time>
      </trkpt>
      <trkpt lat="49.094400024041533" lon="7.247762018814683">
        <ele>365.44</ele>
        <time>2018-07-10T16:55:54Z</time>
      </trkpt>
      <trkpt lat="49.092731019482017" lon="7.250237027183175">
        <ele>367.83999999999997</ele>
        <time>2018-07-10T16:56:04Z</time>
      </trkpt>
      <trkpt lat="49.091107025742531" lon="7.252863999456167">
        <ele>371.20999999999998</ele>
        <time>2018-07-10T16:56:12Z</time>
      </trkpt>
      <trkpt lat="49.089725017547607" lon="7.255699010565877">
        <ele>368.80000000000001</ele>
        <time>2018-07-10T16:56:20Z</time>
      </trkpt>
      <trkpt lat="49.088642997667193" lon="7.259329967200756">
        <ele>359.19</ele>
        <time>2018-07-10T16:56:29Z</time>
      </trkpt>
      <trkpt lat="49.088160032406449" lon="7.26298900321126">
        <ele>346.20999999999998</ele>
        <time>2018-07-10T16:56:37Z</time>
      </trkpt>
      <trkpt lat="49.088105969130993" lon="7.266342015936971">
        <ele>334.68000000000001</ele>
        <time>2018-07-10T16:56:44Z</time>
      </trkpt>
      <trkpt lat="49.088584994897246" lon="7.270018989220262">
        <ele>318.32999999999998</ele>
        <time>2018-07-10T16:56:52Z</time>
      </trkpt>
      <trkpt lat="49.089512033388019" lon="7.273385999724269">
        <ele>308.24000000000001</ele>
        <time>2018-07-10T16:57:00Z</time>
      </trkpt>
      <trkpt lat="49.091100990772247" lon="7.277064984664321">
        <ele>304.88</ele>
        <time>2018-07-10T16:57:10Z</time>
      </trkpt>
      <trkpt lat="49.093837011605501" lon="7.282915972173214">
        <ele>309.19999999999999</ele>
        <time>2018-07-10T16:57:27Z</time>
      </trkpt>
      <trkpt lat="49.096576971933246" lon="7.288637040182948">
        <ele>316.41000000000003</ele>
        <time>2018-07-10T16:57:44Z</time>
      </trkpt>
      <trkpt lat="49.098200965672731" lon="7.291895002126694">
        <ele>321.69999999999999</ele>
        <time>2018-07-10T16:57:54Z</time>
      </trkpt>
      <trkpt lat="49.099870976060629" lon="7.295836005359888">
        <ele>326.5</ele>
        <time>2018-07-10T16:58:05Z</time>
      </trkpt>
      <trkpt lat="49.100897004827857" lon="7.299145013093948">
        <ele>330.82999999999998</ele>
        <time>2018-07-10T16:58:14Z</time>
      </trkpt>
      <trkpt lat="49.102196032181382" lon="7.304095029830933">
        <ele>331.79000000000002</ele>
        <time>2018-07-10T16:58:27Z</time>
      </trkpt>
      <trkpt lat="49.103328008204699" lon="7.308470970019698">
        <ele>328.43000000000001</ele>
        <time>2018-07-10T16:58:39Z</time>
      </trkpt>
      <trkpt lat="49.104515975341201" lon="7.313266005367041">
        <ele>323.13999999999999</ele>
        <time>2018-07-10T16:58:52Z</time>
      </trkpt>
      <trkpt lat="49.104940015822649" lon="7.31685102917254">
        <ele>314.49000000000001</ele>
        <time>2018-07-10T16:59:01Z</time>
      </trkpt>
      <trkpt lat="49.104881007224321" lon="7.320638978853822">
        <ele>304.88</ele>
        <time>2018-07-10T16:59:10Z</time>
      </trkpt>
      <trkpt lat="49.104326041415334" lon="7.324317963793874">
        <ele>297.18000000000001</ele>
        <time>2018-07-10T16:59:19Z</time>
      </trkpt>
      <trkpt lat="49.103443007916212" lon="7.328774034976959">
        <ele>289.97000000000003</ele>
        <time>2018-07-10T16:59:30Z</time>
      </trkpt>
      <trkpt lat="49.102868009358644" lon="7.331671994179487">
        <ele>285.64999999999998</ele>
        <time>2018-07-10T16:59:37Z</time>
      </trkpt>
      <trkpt lat="49.101753970608115" lon="7.337245959788561">
        <ele>276.51999999999998</ele>
        <time>2018-07-10T16:59:49Z</time>
      </trkpt>
      <trkpt lat="49.101018961519003" lon="7.340907007455826">
        <ele>280.83999999999997</ele>
        <time>2018-07-10T16:59:58Z</time>
      </trkpt>
      <trkpt lat="49.100211029872298" lon="7.345052026212215">
        <ele>293.33999999999997</ele>
        <time>2018-07-10T17:00:10Z</time>
      </trkpt>
      <trkpt lat="49.099468979984522" lon="7.348339995369315">
        <ele>302.94999999999999</ele>
        <time>2018-07-10T17:00:20Z</time>
      </trkpt>
      <trkpt lat="49.098479999229312" lon="7.351046008989215">
        <ele>310.16000000000003</ele>
        <time>2018-07-10T17:00:28Z</time>
      </trkpt>
      <trkpt lat="49.096979973837733" lon="7.353341979905963">
        <ele>317.85000000000002</ele>
        <time>2018-07-10T17:00:36Z</time>
      </trkpt>
      <trkpt lat="49.09516797401011" lon="7.355135036632419">
        <ele>325.06</ele>
        <time>2018-07-10T17:00:44Z</time>
      </trkpt>
      <trkpt lat="49.092740993946791" lon="7.357683973386884">
        <ele>334.68000000000001</ele>
        <time>2018-07-10T17:00:55Z</time>
      </trkpt>
      <trkpt lat="49.091410031542182" lon="7.359721027314663">
        <ele>338.04000000000002</ele>
        <time>2018-07-10T17:01:03Z</time>
      </trkpt>
      <trkpt lat="49.090144028887153" lon="7.361733019351959">
        <ele>340.92000000000002</ele>
        <time>2018-07-10T17:01:10Z</time>
      </trkpt>
      <trkpt lat="49.08859102986753" lon="7.364494018256664">
        <ele>345.73000000000002</ele>
        <time>2018-07-10T17:01:20Z</time>
      </trkpt>
      <trkpt lat="49.087757030501962" lon="7.366392016410828">
        <ele>348.62</ele>
        <time>2018-07-10T17:01:26Z</time>
      </trkpt>
      <trkpt lat="49.087050016969442" lon="7.368722017854452">
        <ele>351.5</ele>
        <time>2018-07-10T17:01:32Z</time>
      </trkpt>
      <trkpt lat="49.086234960705042" lon="7.371894987300038">
        <ele>356.31</ele>
        <time>2018-07-10T17:01:40Z</time>
      </trkpt>
      <trkpt lat="49.085490982979536" lon="7.374908030033112">
        <ele>364</ele>
        <time>2018-07-10T17:01:48Z</time>
      </trkpt>
      <trkpt lat="49.084781035780907" lon="7.377814035862684">
        <ele>373.13</ele>
        <time>2018-07-10T17:01:58Z</time>
      </trkpt>
      <trkpt lat="49.084621025249362" lon="7.378417029976845">
        <ele>375.05000000000001</ele>
        <time>2018-07-10T17:02:01Z</time>
      </trkpt>
      <trkpt lat="49.084540978074074" lon="7.378575028851628">
        <ele>375.52999999999997</ele>
        <time>2018-07-10T17:02:02Z</time>
      </trkpt>
      <trkpt lat="49.084451040253043" lon="7.378693968057632">
        <ele>375.52999999999997</ele>
        <time>2018-07-10T17:02:03Z</time>
      </trkpt>
      <trkpt lat="49.08435900695622" lon="7.378802010789514">
        <ele>376.00999999999999</ele>
        <time>2018-07-10T17:02:04Z</time>
      </trkpt>
      <trkpt lat="49.084278037771583" lon="7.378949029371142">
        <ele>376.49000000000001</ele>
        <time>2018-07-10T17:02:05Z</time>
      </trkpt>
      <trkpt lat="49.084100006148219" lon="7.379161007702351">
        <ele>376.97000000000003</ele>
        <time>2018-07-10T17:02:07Z</time>
      </trkpt>
      <trkpt lat="49.083984000608325" lon="7.379269972443581">
        <ele>376.97000000000003</ele>
        <time>2018-07-10T17:02:08Z</time>
      </trkpt>
      <trkpt lat="49.083846034482121" lon="7.379400981590152">
        <ele>376.97000000000003</ele>
        <time>2018-07-10T17:02:09Z</time>
      </trkpt>
      <trkpt lat="49.082423038780689" lon="7.380162980407476">
        <ele>374.56999999999999</ele>
        <time>2018-07-10T17:02:17Z</time>
      </trkpt>
      <trkpt lat="49.080387996509671" lon="7.381151039153338">
        <ele>365.92000000000002</ele>
        <time>2018-07-10T17:02:26Z</time>
      </trkpt>
      <trkpt lat="49.078957038000226" lon="7.380990022793412">
        <ele>365.92000000000002</ele>
        <time>2018-07-10T17:02:32Z</time>
      </trkpt>
      <trkpt lat="49.075826983898878" lon="7.379877995699644">
        <ele>371.20999999999998</ele>
        <time>2018-07-10T17:02:45Z</time>
      </trkpt>
      <trkpt lat="49.073741985484958" lon="7.379700969904661">
        <ele>362.55000000000001</ele>
        <time>2018-07-10T17:02:53Z</time>
      </trkpt>
      <trkpt lat="49.071883969008923" lon="7.379249017685652">
        <ele>366.88</ele>
        <time>2018-07-10T17:03:00Z</time>
      </trkpt>
      <trkpt lat="49.070319989696145" lon="7.378766974434257">
        <ele>376.97000000000003</ele>
        <time>2018-07-10T17:03:07Z</time>
      </trkpt>
      <trkpt lat="49.06899900175631" lon="7.378932014107704">
        <ele>384.18000000000001</ele>
        <time>2018-07-10T17:03:13Z</time>
      </trkpt>
      <trkpt lat="49.067713972181082" lon="7.379742963239551">
        <ele>388.50999999999999</ele>
        <time>2018-07-10T17:03:20Z</time>
      </trkpt>
      <trkpt lat="49.065674990415573" lon="7.382028959691525">
        <ele>388.50999999999999</ele>
        <time>2018-07-10T17:03:30Z</time>
      </trkpt>
      <trkpt lat="49.064374035224319" lon="7.384237004444003">
        <ele>388.50999999999999</ele>
        <time>2018-07-10T17:03:39Z</time>
      </trkpt>
      <trkpt lat="49.062876021489501" lon="7.386927008628845">
        <ele>399.56999999999999</ele>
        <time>2018-07-10T17:03:51Z</time>
      </trkpt>
      <trkpt lat="49.061624016612768" lon="7.38908501341939">
        <ele>402.93000000000001</ele>
        <time>2018-07-10T17:04:00Z</time>
      </trkpt>
      <trkpt lat="49.06068398617208" lon="7.390772961080074">
        <ele>406.29000000000002</ele>
        <time>2018-07-10T17:04:10Z</time>
      </trkpt>
      <trkpt lat="49.060135977342725" lon="7.392359990626574">
        <ele>410.13999999999999</ele>
        <time>2018-07-10T17:04:18Z</time>
      </trkpt>
      <trkpt lat="49.05960900709033" lon="7.395013030618429">
        <ele>416.38999999999999</ele>
        <time>2018-07-10T17:04:29Z</time>
      </trkpt>
      <trkpt lat="49.059142973273993" lon="7.39759398624301">
        <ele>413.5</ele>
        <time>2018-07-10T17:04:40Z</time>
      </trkpt>
      <trkpt lat="49.058924959972501" lon="7.398707019165158">
        <ele>411.10000000000002</ele>
        <time>2018-07-10T17:04:46Z</time>
      </trkpt>
      <trkpt lat="49.058954967185855" lon="7.398837022483349">
        <ele>411.10000000000002</ele>
        <time>2018-07-10T17:04:47Z</time>
      </trkpt>
      <trkpt lat="49.059002995491028" lon="7.39892696030438">
        <ele>411.10000000000002</ele>
        <time>2018-07-10T17:04:48Z</time>
      </trkpt>
      <trkpt lat="49.059057980775833" lon="7.399029973894358">
        <ele>410.62</ele>
        <time>2018-07-10T17:04:49Z</time>
      </trkpt>
      <trkpt lat="49.059111960232258" lon="7.399198031052947">
        <ele>410.62</ele>
        <time>2018-07-10T17:04:50Z</time>
      </trkpt>
      <trkpt lat="49.059127969667315" lon="7.399396011605859">
        <ele>410.13999999999999</ele>
        <time>2018-07-10T17:04:51Z</time>
      </trkpt>
      <trkpt lat="49.059148002415895" lon="7.399628022685647">
        <ele>409.66000000000003</ele>
        <time>2018-07-10T17:04:52Z</time>
      </trkpt>
      <trkpt lat="49.059169040992856" lon="7.399885011836886">
        <ele>409.18000000000001</ele>
        <time>2018-07-10T17:04:53Z</time>
      </trkpt>
      <trkpt lat="49.059319999068975" lon="7.40193597972393">
        <ele>408.22000000000003</ele>
        <time>2018-07-10T17:05:00Z</time>
      </trkpt>
      <trkpt lat="49.059283034875989" lon="7.402519024908543">
        <ele>406.76999999999998</ele>
        <time>2018-07-10T17:05:03Z</time>
      </trkpt>
      <trkpt lat="49.059204999357462" lon="7.403111038729549">
        <ele>406.29000000000002</ele>
        <time>2018-07-10T17:05:04Z</time>
      </trkpt>
      <trkpt lat="49.059150014072657" lon="7.403392000123859">
        <ele>405.81</ele>
        <time>2018-07-10T17:05:05Z</time>
      </trkpt>
      <trkpt lat="49.058740977197886" lon="7.405355963855982">
        <ele>396.19999999999999</ele>
        <time>2018-07-10T17:05:13Z</time>
      </trkpt>
      <trkpt lat="49.058289024978876" lon="7.407446997240186">
        <ele>382.25999999999999</ele>
        <time>2018-07-10T17:05:23Z</time>
      </trkpt>
      <trkpt lat="49.057878982275724" lon="7.409337032586336">
        <ele>366.88</ele>
        <time>2018-07-10T17:05:33Z</time>
      </trkpt>
      <trkpt lat="49.057583017274737" lon="7.410896988585591">
        <ele>354.86000000000001</ele>
        <time>2018-07-10T17:05:41Z</time>
      </trkpt>
      <trkpt lat="49.057466005906463" lon="7.412198027595878">
        <ele>344.29000000000002</ele>
        <time>2018-07-10T17:05:48Z</time>
      </trkpt>
      <trkpt lat="49.057437004521489" lon="7.412405982613564">
        <ele>342.85000000000002</ele>
        <time>2018-07-10T17:05:49Z</time>
      </trkpt>
      <trkpt lat="49.057371038943529" lon="7.412594994530082">
        <ele>341.41000000000003</ele>
        <time>2018-07-10T17:05:50Z</time>
      </trkpt>
      <trkpt lat="49.057297026738524" lon="7.412775037810206">
        <ele>339.95999999999998</ele>
        <time>2018-07-10T17:05:51Z</time>
      </trkpt>
      <trkpt lat="49.057226032018661" lon="7.412948040291667">
        <ele>338.51999999999998</ele>
        <time>2018-07-10T17:05:52Z</time>
      </trkpt>
      <trkpt lat="49.057158976793289" lon="7.413110984489322">
        <ele>336.60000000000002</ele>
        <time>2018-07-10T17:05:53Z</time>
      </trkpt>
      <trkpt lat="49.056613985449076" lon="7.414457034319639">
        <ele>322.66000000000003</ele>
        <time>2018-07-10T17:06:03Z</time>
      </trkpt>
      <trkpt lat="49.055817034095526" lon="7.416294012218714">
        <ele>304.88</ele>
        <time>2018-07-10T17:06:17Z</time>
      </trkpt>
      <trkpt lat="49.055758025497198" lon="7.416428038850427">
        <ele>303.91000000000003</ele>
        <time>2018-07-10T17:06:18Z</time>
      </trkpt>
      <trkpt lat="49.05569901689887" lon="7.416561981663108">
        <ele>302.47000000000003</ele>
        <time>2018-07-10T17:06:19Z</time>
      </trkpt>
      <trkpt lat="49.05492695979774" lon="7.418399965390563">
        <ele>296.22000000000003</ele>
        <time>2018-07-10T17:06:32Z</time>
      </trkpt>
      <trkpt lat="49.054346010088921" lon="7.419738974422216">
        <ele>291.42000000000002</ele>
        <time>2018-07-10T17:06:44Z</time>
      </trkpt>
      <trkpt lat="49.053776962682605" lon="7.421038001775742">
        <ele>288.05000000000001</ele>
        <time>2018-07-10T17:06:55Z</time>
      </trkpt>
      <trkpt lat="49.053214034065604" lon="7.422328982502222">
        <ele>285.17000000000002</ele>
        <time>2018-07-10T17:07:06Z</time>
      </trkpt>
      <trkpt lat="49.052817989140749" lon="7.423345958814025">
        <ele>285.17000000000002</ele>
        <time>2018-07-10T17:07:15Z</time>
      </trkpt>
      <trkpt lat="49.052788987755775" lon="7.423450984060764">
        <ele>285.17000000000002</ele>
        <time>2018-07-10T17:07:16Z</time>
      </trkpt>
      <trkpt lat="49.052728973329067" lon="7.423665979877114">
        <ele>286.13</ele>
        <time>2018-07-10T17:07:18Z</time>
      </trkpt>
      <trkpt lat="49.052699971944094" lon="7.423772010952234">
        <ele>286.13</ele>
        <time>2018-07-10T17:07:19Z</time>
      </trkpt>
      <trkpt lat="49.052600981667638" lon="7.424130002036691">
        <ele>287.08999999999997</ele>
        <time>2018-07-10T17:07:23Z</time>
      </trkpt>
      <trkpt lat="49.052554965019226" lon="7.424295041710138">
        <ele>287.56999999999999</ele>
        <time>2018-07-10T17:07:25Z</time>
      </trkpt>
      <trkpt lat="49.052512971684337" lon="7.424444993957877">
        <ele>288.05000000000001</ele>
        <time>2018-07-10T17:07:27Z</time>
      </trkpt>
      <trkpt lat="49.052494028583169" lon="7.424512971192598">
        <ele>288.52999999999997</ele>
        <time>2018-07-10T17:07:28Z</time>
      </trkpt>
      <trkpt lat="49.052473995834589" lon="7.424583965912461">
        <ele>288.52999999999997</ele>
        <time>2018-07-10T17:07:29Z</time>
      </trkpt>
      <trkpt lat="49.052387997508049" lon="7.424896024167538">
        <ele>288.52999999999997</ele>
        <time>2018-07-10T17:07:33Z</time>
      </trkpt>
      <trkpt lat="49.052367964759469" lon="7.424973975867033">
        <ele>288.52999999999997</ele>
        <time>2018-07-10T17:07:34Z</time>
      </trkpt>
      <trkpt lat="49.05234600417316" lon="7.425062991678715">
        <ele>288.52999999999997</ele>
        <time>2018-07-10T17:07:35Z</time>
      </trkpt>
      <trkpt lat="49.05234600417316" lon="7.425062991678715">
        <ele>288.52999999999997</ele>
        <time>2018-07-10T17:07:36Z</time>
      </trkpt>
      <trkpt lat="49.052318008616567" lon="7.425171034410596">
        <ele>289.49000000000001</ele>
        <time>2018-07-10T17:07:45Z</time>
      </trkpt>
      <trkpt lat="49.05223997309804" lon="7.425474040210247">
        <ele>290.45999999999998</ele>
        <time>2018-07-10T17:07:49Z</time>
      </trkpt>
      <trkpt lat="49.052222035825253" lon="7.42554503493011">
        <ele>290.94</ele>
        <time>2018-07-10T17:07:50Z</time>
      </trkpt>
      <trkpt lat="49.052206026390195" lon="7.425607983022928">
        <ele>290.94</ele>
        <time>2018-07-10T17:07:51Z</time>
      </trkpt>
      <trkpt lat="49.052189011126757" lon="7.425671014934778">
        <ele>291.42000000000002</ele>
        <time>2018-07-10T17:07:52Z</time>
      </trkpt>
      <trkpt lat="49.052173001691699" lon="7.425733963027597">
        <ele>291.42000000000002</ele>
        <time>2018-07-10T17:07:53Z</time>
      </trkpt>
      <trkpt lat="49.052155986428261" lon="7.425794983282685">
        <ele>291.42000000000002</ele>
        <time>2018-07-10T17:07:54Z</time>
      </trkpt>
      <trkpt lat="49.052140982821584" lon="7.425851980224252">
        <ele>291.42000000000002</ele>
        <time>2018-07-10T17:07:55Z</time>
      </trkpt>
      <trkpt lat="49.05213201418519" lon="7.425988018512726">
        <ele>291.42000000000002</ele>
        <time>2018-07-10T17:07:56Z</time>
      </trkpt>
      <trkpt lat="49.052161015570164" lon="7.426020037382841">
        <ele>291.42000000000002</ele>
        <time>2018-07-10T17:07:57Z</time>
      </trkpt>
      <trkpt lat="49.052192028611898" lon="7.426053984090686">
        <ele>291.42000000000002</ele>
        <time>2018-07-10T17:07:58Z</time>
      </trkpt>
      <trkpt lat="49.052223041653633" lon="7.426089020445943">
        <ele>291.42000000000002</ele>
        <time>2018-07-10T17:07:59Z</time>
      </trkpt>
      <trkpt lat="49.052262017503381" lon="7.426132019609213">
        <ele>290.45999999999998</ele>
        <time>2018-07-10T17:08:00Z</time>
      </trkpt>
      <trkpt lat="49.052314991131425" lon="7.426191028207541">
        <ele>290.45999999999998</ele>
        <time>2018-07-10T17:08:01Z</time>
      </trkpt>
      <trkpt lat="49.052372993901372" lon="7.426253976300359">
        <ele>289.97000000000003</ele>
        <time>2018-07-10T17:08:02Z</time>
      </trkpt>
      <trkpt lat="49.052485981956124" lon="7.426380040124059">
        <ele>289.00999999999999</ele>
        <time>2018-07-10T17:08:04Z</time>
      </trkpt>
      <trkpt lat="49.052630988880992" lon="7.426594030112028">
        <ele>289.00999999999999</ele>
        <time>2018-07-10T17:08:07Z</time>
      </trkpt>
      <trkpt lat="49.052675999701023" lon="7.426666030660272">
        <ele>289.00999999999999</ele>
        <time>2018-07-10T17:08:08Z</time>
      </trkpt>
      <trkpt lat="49.052770966663957" lon="7.426815982908011">
        <ele>289.49000000000001</ele>
        <time>2018-07-10T17:08:10Z</time>
      </trkpt>
      <trkpt lat="49.05282000079751" lon="7.426894018426538">
        <ele>289.97000000000003</ele>
        <time>2018-07-10T17:08:11Z</time>
      </trkpt>
      <trkpt lat="49.053027033805847" lon="7.427224013954401">
        <ele>291.89999999999998</ele>
        <time>2018-07-10T17:08:15Z</time>
      </trkpt>
      <trkpt lat="49.053083024919033" lon="7.427312023937702">
        <ele>291.89999999999998</ele>
        <time>2018-07-10T17:08:16Z</time>
      </trkpt>
      <trkpt lat="49.05380898155272" lon="7.428461015224457">
        <ele>297.67000000000002</ele>
        <time>2018-07-10T17:08:29Z</time>
      </trkpt>
      <trkpt lat="49.054464027285576" lon="7.429438009858131">
        <ele>298.14999999999998</ele>
        <time>2018-07-10T17:08:40Z</time>
      </trkpt>
      <trkpt lat="49.054514989256859" lon="7.429524008184671">
        <ele>298.14999999999998</ele>
        <time>2018-07-10T17:08:41Z</time>
      </trkpt>
      <trkpt lat="49.054563017562032" lon="7.429605983197689">
        <ele>297.67000000000002</ele>
        <time>2018-07-10T17:08:42Z</time>
      </trkpt>
      <trkpt lat="49.054610040038824" lon="7.429686030372977">
        <ele>297.67000000000002</ele>
        <time>2018-07-10T17:08:43Z</time>
      </trkpt>
      <trkpt lat="49.054657984524965" lon="7.429766999557614">
        <ele>297.18000000000001</ele>
        <time>2018-07-10T17:08:44Z</time>
      </trkpt>
      <trkpt lat="49.054998960345984" lon="7.430330011993647">
        <ele>298.63</ele>
        <time>2018-07-10T17:08:51Z</time>
      </trkpt>
      <trkpt lat="49.055105997249484" lon="7.430559005588293">
        <ele>299.58999999999997</ele>
        <time>2018-07-10T17:08:54Z</time>
      </trkpt>
      <trkpt lat="49.055132986977696" lon="7.430641986429691">
        <ele>299.58999999999997</ele>
        <time>2018-07-10T17:08:55Z</time>
      </trkpt>
      <trkpt lat="49.055278999730945" lon="7.431199969723821">
        <ele>301.02999999999997</ele>
        <time>2018-07-10T17:09:01Z</time>
      </trkpt>
      <trkpt lat="49.055301966145635" lon="7.431313963606954">
        <ele>301.50999999999999</ele>
        <time>2018-07-10T17:09:02Z</time>
      </trkpt>
      <trkpt lat="49.055325016379356" lon="7.431427035480738">
        <ele>301.50999999999999</ele>
        <time>2018-07-10T17:09:03Z</time>
      </trkpt>
      <trkpt lat="49.055348988622427" lon="7.431545974686742">
        <ele>301.50999999999999</ele>
        <time>2018-07-10T17:09:04Z</time>
      </trkpt>
      <trkpt lat="49.055375978350639" lon="7.431673966348171">
        <ele>301.50999999999999</ele>
        <time>2018-07-10T17:09:05Z</time>
      </trkpt>
      <trkpt lat="49.055401962250471" lon="7.431803969666362">
        <ele>301.99000000000001</ele>
        <time>2018-07-10T17:09:06Z</time>
      </trkpt>
      <trkpt lat="49.055429035797715" lon="7.431934978812933">
        <ele>301.99000000000001</ele>
        <time>2018-07-10T17:09:07Z</time>
      </trkpt>
      <trkpt lat="49.055456025525928" lon="7.432065987959504">
        <ele>301.99000000000001</ele>
        <time>2018-07-10T17:09:08Z</time>
      </trkpt>
      <trkpt lat="49.055482009425759" lon="7.432193979620934">
        <ele>302.47000000000003</ele>
        <time>2018-07-10T17:09:09Z</time>
      </trkpt>
      <trkpt lat="49.055507993325591" lon="7.432320965453982">
        <ele>302.47000000000003</ele>
        <time>2018-07-10T17:09:10Z</time>
      </trkpt>
      <trkpt lat="49.055531965568662" lon="7.432442000135779">
        <ele>302.47000000000003</ele>
        <time>2018-07-10T17:09:11Z</time>
      </trkpt>
      <trkpt lat="49.05572097748518" lon="7.433410026133061">
        <ele>302.47000000000003</ele>
        <time>2018-07-10T17:09:19Z</time>
      </trkpt>
      <trkpt lat="49.055786021053791" lon="7.43371001444757">
        <ele>302.94999999999999</ele>
        <time>2018-07-10T17:09:22Z</time>
      </trkpt>
      <trkpt lat="49.055803036317229" lon="7.433790983632207">
        <ele>302.94999999999999</ele>
        <time>2018-07-10T17:09:23Z</time>
      </trkpt>
      <trkpt lat="49.055819967761636" lon="7.433869019150734">
        <ele>302.94999999999999</ele>
        <time>2018-07-10T17:09:24Z</time>
      </trkpt>
      <trkpt lat="49.055821979418397" lon="7.43388201110065">
        <ele>302.94999999999999</ele>
        <time>2018-07-10T17:09:25Z</time>
      </trkpt>
      <trkpt lat="49.055821979418397" lon="7.43388201110065">
        <ele>302.94999999999999</ele>
        <time>2018-07-10T17:09:26Z</time>
      </trkpt>
      <trkpt lat="49.055872019380331" lon="7.434247964993119">
        <ele>302.94999999999999</ele>
        <time>2018-07-10T17:09:27Z</time>
      </trkpt>
      <trkpt lat="49.055832959711552" lon="7.434366988018155">
        <ele>303.43000000000001</ele>
        <time>2018-07-10T17:09:28Z</time>
      </trkpt>
      <trkpt lat="49.055789038538933" lon="7.434496991336346">
        <ele>303.43000000000001</ele>
        <time>2018-07-10T17:09:29Z</time>
      </trkpt>
      <trkpt lat="49.055737992748618" lon="7.4346340354532">
        <ele>303.43000000000001</ele>
        <time>2018-07-10T17:09:30Z</time>
      </trkpt>
      <trkpt lat="49.05567797832191" lon="7.43476202711463">
        <ele>303.43000000000001</ele>
        <time>2018-07-10T17:09:31Z</time>
      </trkpt>
      <trkpt lat="49.055617963895202" lon="7.434890018776059">
        <ele>303.43000000000001</ele>
        <time>2018-07-10T17:09:32Z</time>
      </trkpt>
      <trkpt lat="49.055546969175339" lon="7.435015998780727">
        <ele>303.43000000000001</ele>
        <time>2018-07-10T17:09:33Z</time>
      </trkpt>
      <trkpt lat="49.054557988420129" lon="7.43686999194324">
        <ele>306.31999999999999</ele>
        <time>2018-07-10T17:09:47Z</time>
      </trkpt>
      <trkpt lat="49.054190022870898" lon="7.437768029049039">
        <ele>307.27999999999997</ele>
        <time>2018-07-10T17:09:54Z</time>
      </trkpt>
      <trkpt lat="49.054137971252203" lon="7.437842041254044">
        <ele>307.27999999999997</ele>
        <time>2018-07-10T17:09:55Z</time>
      </trkpt>
      <trkpt lat="49.054092960432172" lon="7.437907001003623">
        <ele>307.27999999999997</ele>
        <time>2018-07-10T17:09:56Z</time>
      </trkpt>
      <trkpt lat="49.053913000971079" lon="7.437852015718818">
        <ele>307.27999999999997</ele>
        <time>2018-07-10T17:09:57Z</time>
      </trkpt>
      <trkpt lat="49.053913000971079" lon="7.437852015718818">
        <ele>307.27999999999997</ele>
        <time>2018-07-10T17:09:58Z</time>
      </trkpt>
      <trkpt lat="49.053875030949712" lon="7.437866013497114">
        <ele>306.80000000000001</ele>
        <time>2018-07-10T17:09:59Z</time>
      </trkpt>
      <trkpt lat="49.053792972117662" lon="7.437924016267061">
        <ele>306.80000000000001</ele>
        <time>2018-07-10T17:10:00Z</time>
      </trkpt>
      <trkpt lat="49.053760031238198" lon="7.438000962138176">
        <ele>306.80000000000001</ele>
        <time>2018-07-10T17:10:01Z</time>
      </trkpt>
      <trkpt lat="49.053762964904308" lon="7.438144963234663">
        <ele>306.80000000000001</ele>
        <time>2018-07-10T17:10:02Z</time>
      </trkpt>
      <trkpt lat="49.053784003481269" lon="7.438238002359867">
        <ele>306.80000000000001</ele>
        <time>2018-07-10T17:10:03Z</time>
      </trkpt>
      <trkpt lat="49.053891962394118" lon="7.438344033434987">
        <ele>306.80000000000001</ele>
        <time>2018-07-10T17:10:04Z</time>
      </trkpt>
      <trkpt lat="49.05389497987926" lon="7.438470013439655">
        <ele>307.27999999999997</ele>
        <time>2018-07-10T17:10:05Z</time>
      </trkpt>
      <trkpt lat="49.053899003192782" lon="7.438621977344155">
        <ele>307.27999999999997</ele>
        <time>2018-07-10T17:10:06Z</time>
      </trkpt>
      <trkpt lat="49.054010985419154" lon="7.440090989693999">
        <ele>308.72000000000003</ele>
        <time>2018-07-10T17:10:14Z</time>
      </trkpt>
      <trkpt lat="49.054217012599111" lon="7.442085966467857">
        <ele>309.68000000000001</ele>
        <time>2018-07-10T17:10:25Z</time>
      </trkpt>
      <trkpt lat="49.05423897318542" lon="7.442271960899234">
        <ele>309.68000000000001</ele>
        <time>2018-07-10T17:10:26Z</time>
      </trkpt>
      <trkpt lat="49.054508032277226" lon="7.444704975932837">
        <ele>304.88</ele>
        <time>2018-07-10T17:10:39Z</time>
      </trkpt>
      <trkpt lat="49.054616997018456" lon="7.44563695974648">
        <ele>303.91000000000003</ele>
        <time>2018-07-10T17:10:47Z</time>
      </trkpt>
      <trkpt lat="49.054685980081558" lon="7.446283958852291">
        <ele>303.91000000000003</ele>
        <time>2018-07-10T17:10:54Z</time>
      </trkpt>
      <trkpt lat="49.054696038365364" lon="7.446382027119398">
        <ele>303.91000000000003</ele>
        <time>2018-07-10T17:10:55Z</time>
      </trkpt>
      <trkpt lat="49.054798968136311" lon="7.447330020368099">
        <ele>303.91000000000003</ele>
        <time>2018-07-10T17:11:03Z</time>
      </trkpt>
      <trkpt lat="49.054856970906258" lon="7.449088962748647">
        <ele>306.31999999999999</ele>
        <time>2018-07-10T17:11:12Z</time>
      </trkpt>
      <trkpt lat="49.054863005876541" lon="7.451552990823984">
        <ele>308.24000000000001</ele>
        <time>2018-07-10T17:11:23Z</time>
      </trkpt>
      <trkpt lat="49.054867029190063" lon="7.453164998441935">
        <ele>311.12</ele>
        <time>2018-07-10T17:11:30Z</time>
      </trkpt>
      <trkpt lat="49.054873986169696" lon="7.455536993220449">
        <ele>316.88999999999999</ele>
        <time>2018-07-10T17:11:43Z</time>
      </trkpt>
      <trkpt lat="49.054877003654838" lon="7.456371998414397">
        <ele>317.85000000000002</ele>
        <time>2018-07-10T17:11:49Z</time>
      </trkpt>
      <trkpt lat="49.054877003654838" lon="7.456405023112893">
        <ele>317.85000000000002</ele>
        <time>2018-07-10T17:11:57Z</time>
      </trkpt>
      <trkpt lat="49.054878009483218" lon="7.456858986988664">
        <ele>318.32999999999998</ele>
        <time>2018-07-10T17:12:06Z</time>
      </trkpt>
      <trkpt lat="49.054878009483218" lon="7.457328038290143">
        <ele>318.32999999999998</ele>
        <time>2018-07-10T17:12:09Z</time>
      </trkpt>
      <trkpt lat="49.054915979504585" lon="7.459026966243982">
        <ele>315.44999999999999</ele>
        <time>2018-07-10T17:12:17Z</time>
      </trkpt>
      <trkpt lat="49.055142039433122" lon="7.46103803627193">
        <ele>306.80000000000001</ele>
        <time>2018-07-10T17:12:23Z</time>
      </trkpt>
      <trkpt lat="49.055502964183688" lon="7.464250987395644">
        <ele>301.02999999999997</ele>
        <time>2018-07-10T17:12:32Z</time>
      </trkpt>
      <trkpt lat="49.055769005790353" lon="7.467631995677948">
        <ele>296.22000000000003</ele>
        <time>2018-07-10T17:12:43Z</time>
      </trkpt>
      <trkpt lat="49.055752996355295" lon="7.467927960678935">
        <ele>295.74000000000001</ele>
        <time>2018-07-10T17:12:44Z</time>
      </trkpt>
      <trkpt lat="49.055332979187369" lon="7.470818962901831">
        <ele>294.30000000000001</ele>
        <time>2018-07-10T17:12:54Z</time>
      </trkpt>
      <trkpt lat="49.055022010579705" lon="7.472774963825941">
        <ele>296.22000000000003</ele>
        <time>2018-07-10T17:13:03Z</time>
      </trkpt>
      <trkpt lat="49.05475202947855" lon="7.474543964490295">
        <ele>294.77999999999997</ele>
        <time>2018-07-10T17:13:12Z</time>
      </trkpt>
      <trkpt lat="49.054482970386744" lon="7.476270971819758">
        <ele>290.94</ele>
        <time>2018-07-10T17:13:21Z</time>
      </trkpt>
      <trkpt lat="49.054270992055535" lon="7.477629007771611">
        <ele>288.05000000000001</ele>
        <time>2018-07-10T17:13:28Z</time>
      </trkpt>
      <trkpt lat="49.053929010406137" lon="7.479864964261651">
        <ele>286.13</ele>
        <time>2018-07-10T17:13:39Z</time>
      </trkpt>
      <trkpt lat="49.053612006828189" lon="7.481957003474236">
        <ele>289.00999999999999</ele>
        <time>2018-07-10T17:13:49Z</time>
      </trkpt>
      <trkpt lat="49.053609995171428" lon="7.482942966744304">
        <ele>289.00999999999999</ele>
        <time>2018-07-10T17:13:53Z</time>
      </trkpt>
      <trkpt lat="49.053948959335685" lon="7.485115975141525">
        <ele>290.45999999999998</ele>
        <time>2018-07-10T17:14:00Z</time>
      </trkpt>
      <trkpt lat="49.054330000653863" lon="7.48731697909534">
        <ele>290.94</ele>
        <time>2018-07-10T17:14:07Z</time>
      </trkpt>
      <trkpt lat="49.054379034787416" lon="7.48781000263989">
        <ele>290.94</ele>
        <time>2018-07-10T17:14:09Z</time>
      </trkpt>
      <trkpt lat="49.05436797067523" lon="7.488029021769762">
        <ele>290.45999999999998</ele>
        <time>2018-07-10T17:14:10Z</time>
      </trkpt>
      <trkpt lat="49.054326983168721" lon="7.488248962908983">
        <ele>289.97000000000003</ele>
        <time>2018-07-10T17:14:11Z</time>
      </trkpt>
      <trkpt lat="49.054244002327323" lon="7.488458007574081">
        <ele>289.97000000000003</ele>
        <time>2018-07-10T17:14:12Z</time>
      </trkpt>
      <trkpt lat="49.054138977080584" lon="7.488671997562051">
        <ele>289.97000000000003</ele>
        <time>2018-07-10T17:14:13Z</time>
      </trkpt>
      <trkpt lat="49.054019032046199" lon="7.488893028348684">
        <ele>290.45999999999998</ele>
        <time>2018-07-10T17:14:14Z</time>
      </trkpt>
      <trkpt lat="49.053000966086984" lon="7.490729000419378">
        <ele>294.77999999999997</ele>
        <time>2018-07-10T17:14:21Z</time>
      </trkpt>
      <trkpt lat="49.051806963980198" lon="7.493338035419583">
        <ele>301.02999999999997</ele>
        <time>2018-07-10T17:14:30Z</time>
      </trkpt>
      <trkpt lat="49.050866011530161" lon="7.496901014819741">
        <ele>298.14999999999998</ele>
        <time>2018-07-10T17:14:40Z</time>
      </trkpt>
      <trkpt lat="49.050324959680438" lon="7.499307962134481">
        <ele>300.06999999999999</ele>
        <time>2018-07-10T17:14:47Z</time>
      </trkpt>
      <trkpt lat="49.05028598383069" lon="7.499693026766181">
        <ele>300.55000000000001</ele>
        <time>2018-07-10T17:14:48Z</time>
      </trkpt>
      <trkpt lat="49.050252959132195" lon="7.503382991999388">
        <ele>304.38999999999999</ele>
        <time>2018-07-10T17:14:58Z</time>
      </trkpt>
      <trkpt lat="49.050228986889124" lon="7.506724018603563">
        <ele>306.31999999999999</ele>
        <time>2018-07-10T17:15:06Z</time>
      </trkpt>
      <trkpt lat="49.050193028524518" lon="7.511695995926857">
        <ele>298.14999999999998</ele>
        <time>2018-07-10T17:15:16Z</time>
      </trkpt>
      <trkpt lat="49.050174001604319" lon="7.514265971258283">
        <ele>294.30000000000001</ele>
        <time>2018-07-10T17:15:23Z</time>
      </trkpt>
      <trkpt lat="49.050224041566253" lon="7.517329975962639">
        <ele>292.38</ele>
        <time>2018-07-10T17:15:33Z</time>
      </trkpt>
      <trkpt lat="49.050559988245368" lon="7.5201450381428">
        <ele>289.49000000000001</ele>
        <time>2018-07-10T17:15:42Z</time>
      </trkpt>
      <trkpt lat="49.050984028726816" lon="7.523576002568007">
        <ele>289.97000000000003</ele>
        <time>2018-07-10T17:15:52Z</time>
      </trkpt>
      <trkpt lat="49.051633039489388" lon="7.527895029634237">
        <ele>289.97000000000003</ele>
        <time>2018-07-10T17:16:04Z</time>
      </trkpt>
      <trkpt lat="49.052539961412549" lon="7.532517984509468">
        <ele>287.56999999999999</ele>
        <time>2018-07-10T17:16:17Z</time>
      </trkpt>
      <trkpt lat="49.053306989371777" lon="7.535512000322342">
        <ele>296.69999999999999</ele>
        <time>2018-07-10T17:16:26Z</time>
      </trkpt>
      <trkpt lat="49.053726000711322" lon="7.537139011546969">
        <ele>302.47000000000003</ele>
        <time>2018-07-10T17:16:32Z</time>
      </trkpt>
      <trkpt lat="49.053726000711322" lon="7.537139011546969">
        <ele>303.43000000000001</ele>
        <time>2018-07-10T17:16:33Z</time>
      </trkpt>
      <trkpt lat="49.053644025698304" lon="7.53937304019928">
        <ele>310.16000000000003</ele>
        <time>2018-07-10T17:16:40Z</time>
      </trkpt>
      <trkpt lat="49.053687024861574" lon="7.53967797383666">
        <ele>311.12</ele>
        <time>2018-07-10T17:16:41Z</time>
      </trkpt>
      <trkpt lat="49.054170995950699" lon="7.542777014896274">
        <ele>319.30000000000001</ele>
        <time>2018-07-10T17:16:51Z</time>
      </trkpt>
      <trkpt lat="49.054466960951686" lon="7.544225994497538">
        <ele>320.74000000000001</ele>
        <time>2018-07-10T17:16:56Z</time>
      </trkpt>
      <trkpt lat="49.054562011733651" lon="7.544506033882499">
        <ele>320.25999999999999</ele>
        <time>2018-07-10T17:16:57Z</time>
      </trkpt>
      <trkpt lat="49.054942969232798" lon="7.545632980763912">
        <ele>315.93000000000001</ele>
        <time>2018-07-10T17:17:01Z</time>
      </trkpt>
      <trkpt lat="49.055342031642795" lon="7.547784028574824">
        <ele>305.36000000000001</ele>
        <time>2018-07-10T17:17:08Z</time>
      </trkpt>
      <trkpt lat="49.055366003885865" lon="7.548085022717714">
        <ele>304.38999999999999</ele>
        <time>2018-07-10T17:17:09Z</time>
      </trkpt>
      <trkpt lat="49.055343959480524" lon="7.54839900881052">
        <ele>302.94999999999999</ele>
        <time>2018-07-10T17:17:10Z</time>
      </trkpt>
      <trkpt lat="49.055323004722595" lon="7.548717018216848">
        <ele>301.99000000000001</ele>
        <time>2018-07-10T17:17:11Z</time>
      </trkpt>
      <trkpt lat="49.055286040529609" lon="7.549046007916331">
        <ele>300.55000000000001</ele>
        <time>2018-07-10T17:17:12Z</time>
      </trkpt>
      <trkpt lat="49.055223008617759" lon="7.549368040636182">
        <ele>299.11000000000001</ele>
        <time>2018-07-10T17:17:13Z</time>
      </trkpt>
      <trkpt lat="49.05516198836267" lon="7.549680015072227">
        <ele>297.67000000000002</ele>
        <time>2018-07-10T17:17:14Z</time>
      </trkpt>
      <trkpt lat="49.055030979216099" lon="7.550964038819075">
        <ele>292.86000000000001</ele>
        <time>2018-07-10T17:17:18Z</time>
      </trkpt>
      <trkpt lat="49.05503299087286" lon="7.551305014640093">
        <ele>291.42000000000002</ele>
        <time>2018-07-10T17:17:19Z</time>
      </trkpt>
      <trkpt lat="49.055057968944311" lon="7.553984960541129">
        <ele>281.31999999999999</ele>
        <time>2018-07-10T17:17:27Z</time>
      </trkpt>
      <trkpt lat="49.055115971714258" lon="7.554892972111702">
        <ele>277.48000000000002</ele>
        <time>2018-07-10T17:17:30Z</time>
      </trkpt>
      <trkpt lat="49.055159976705909" lon="7.555168988183141">
        <ele>277</ele>
        <time>2018-07-10T17:17:31Z</time>
      </trkpt>
      <trkpt lat="49.055239018052816" lon="7.555416002869606">
        <ele>276.51999999999998</ele>
        <time>2018-07-10T17:17:32Z</time>
      </trkpt>
      <trkpt lat="49.055323004722595" lon="7.555658994242549">
        <ele>277</ele>
        <time>2018-07-10T17:17:33Z</time>
      </trkpt>
      <trkpt lat="49.055444039404392" lon="7.555859992280603">
        <ele>277.48000000000002</ele>
        <time>2018-07-10T17:17:34Z</time>
      </trkpt>
      <trkpt lat="49.055571025237441" lon="7.556044980883598">
        <ele>277.95999999999998</ele>
        <time>2018-07-10T17:17:35Z</time>
      </trkpt>
      <trkpt lat="49.055722989141941" lon="7.55619996227324">
        <ele>278.92000000000002</ele>
        <time>2018-07-10T17:17:36Z</time>
      </trkpt>
      <trkpt lat="49.05589297413826" lon="7.556320996955037">
        <ele>279.88</ele>
        <time>2018-07-10T17:17:37Z</time>
      </trkpt>
      <trkpt lat="49.05606597661972" lon="7.556443959474564">
        <ele>280.83999999999997</ele>
        <time>2018-07-10T17:17:38Z</time>
      </trkpt>
      <trkpt lat="49.056250965222716" lon="7.556549990549684">
        <ele>281.80000000000001</ele>
        <time>2018-07-10T17:17:39Z</time>
      </trkpt>
      <trkpt lat="49.057730035856366" lon="7.557293968275189">
        <ele>289.00999999999999</ele>
        <time>2018-07-10T17:17:47Z</time>
      </trkpt>
      <trkpt lat="49.057908989489079" lon="7.557349037379026">
        <ele>289.49000000000001</ele>
        <time>2018-07-10T17:17:48Z</time>
      </trkpt>
      <trkpt lat="49.058092972263694" lon="7.557406034320593">
        <ele>289.97000000000003</ele>
        <time>2018-07-10T17:17:49Z</time>
      </trkpt>
      <trkpt lat="49.058282990008593" lon="7.557422965764999">
        <ele>290.45999999999998</ele>
        <time>2018-07-10T17:17:50Z</time>
      </trkpt>
      <trkpt lat="49.058819012716413" lon="7.557453978806734">
        <ele>290.94</ele>
        <time>2018-07-10T17:17:53Z</time>
      </trkpt>
      <trkpt lat="49.058988997712731" lon="7.557524973526597">
        <ele>290.94</ele>
        <time>2018-07-10T17:17:54Z</time>
      </trkpt>
      <trkpt lat="49.059153031557798" lon="7.557619018480182">
        <ele>290.94</ele>
        <time>2018-07-10T17:17:55Z</time>
      </trkpt>
      <trkpt lat="49.059326034039259" lon="7.55772203207016">
        <ele>290.45999999999998</ele>
        <time>2018-07-10T17:17:56Z</time>
      </trkpt>
      <trkpt lat="49.059464000165462" lon="7.557900985702872">
        <ele>289.97000000000003</ele>
        <time>2018-07-10T17:17:57Z</time>
      </trkpt>
      <trkpt lat="49.059596015140414" lon="7.558107012882829">
        <ele>289.49000000000001</ele>
        <time>2018-07-10T17:17:58Z</time>
      </trkpt>
      <trkpt lat="49.059710009023547" lon="7.558348998427391">
        <ele>289.00999999999999</ele>
        <time>2018-07-10T17:17:59Z</time>
      </trkpt>
      <trkpt lat="49.059797013178468" lon="7.558623002842069">
        <ele>288.05000000000001</ele>
        <time>2018-07-10T17:18:00Z</time>
      </trkpt>
      <trkpt lat="49.05988896265626" lon="7.558908993378282">
        <ele>287.08999999999997</ele>
        <time>2018-07-10T17:18:01Z</time>
      </trkpt>
      <trkpt lat="49.06027402728796" lon="7.560028983280063">
        <ele>283.73000000000002</ele>
        <time>2018-07-10T17:18:05Z</time>
      </trkpt>
      <trkpt lat="49.060385003685951" lon="7.560252025723457">
        <ele>282.76999999999998</ele>
        <time>2018-07-10T17:18:06Z</time>
      </trkpt>
      <trkpt lat="49.060507966205478" lon="7.560426034033299">
        <ele>281.80000000000001</ele>
        <time>2018-07-10T17:18:07Z</time>
      </trkpt>
      <trkpt lat="49.060642998665571" lon="7.56056098267436">
        <ele>280.83999999999997</ele>
        <time>2018-07-10T17:18:08Z</time>
      </trkpt>
      <trkpt lat="49.060775013640523" lon="7.560683023184538">
        <ele>279.88</ele>
        <time>2018-07-10T17:18:09Z</time>
      </trkpt>
      <trkpt lat="49.060942986980081" lon="7.560759969055653">
        <ele>278.92000000000002</ele>
        <time>2018-07-10T17:18:10Z</time>
      </trkpt>
      <trkpt lat="49.061122024431825" lon="7.560841022059321">
        <ele>277.95999999999998</ele>
        <time>2018-07-10T17:18:11Z</time>
      </trkpt>
      <trkpt lat="49.061505999416113" lon="7.561016958206892">
        <ele>276.51999999999998</ele>
        <time>2018-07-10T17:18:13Z</time>
      </trkpt>
      <trkpt lat="49.061698028817773" lon="7.56116003729403">
        <ele>275.56</ele>
        <time>2018-07-10T17:18:14Z</time>
      </trkpt>
      <trkpt lat="49.06188796274364" lon="7.561303032562137">
        <ele>274.58999999999997</ele>
        <time>2018-07-10T17:18:15Z</time>
      </trkpt>
      <trkpt lat="49.062877027317882" lon="7.562486976385117">
        <ele>271.23000000000002</ele>
        <time>2018-07-10T17:18:21Z</time>
      </trkpt>
      <trkpt lat="49.063005018979311" lon="7.562715969979763">
        <ele>270.75</ele>
        <time>2018-07-10T17:18:22Z</time>
      </trkpt>
      <trkpt lat="49.063135022297502" lon="7.56294496357441">
        <ele>270.26999999999998</ele>
        <time>2018-07-10T17:18:23Z</time>
      </trkpt>
      <trkpt lat="49.063858967274427" lon="7.565292986109853">
        <ele>269.31</ele>
        <time>2018-07-10T17:18:31Z</time>
      </trkpt>
      <trkpt lat="49.064475959166884" lon="7.568878009915352">
        <ele>264.01999999999998</ele>
        <time>2018-07-10T17:18:41Z</time>
      </trkpt>
      <trkpt lat="49.064769996330142" lon="7.570662014186382">
        <ele>261.13999999999999</ele>
        <time>2018-07-10T17:18:47Z</time>
      </trkpt>
      <trkpt lat="49.064769996330142" lon="7.570883966982365">
        <ele>260.64999999999998</ele>
        <time>2018-07-10T17:18:48Z</time>
      </trkpt>
      <trkpt lat="49.064726997166872" lon="7.571075996384025">
        <ele>260.64999999999998</ele>
        <time>2018-07-10T17:18:49Z</time>
      </trkpt>
      <trkpt lat="49.064662959426641" lon="7.571317981928587">
        <ele>260.17000000000002</ele>
        <time>2018-07-10T17:18:50Z</time>
      </trkpt>
      <trkpt lat="49.064590958878398" lon="7.571415966376662">
        <ele>260.17000000000002</ele>
        <time>2018-07-10T17:18:51Z</time>
      </trkpt>
      <trkpt lat="49.064484005793929" lon="7.571562984958291">
        <ele>260.17000000000002</ele>
        <time>2018-07-10T17:18:52Z</time>
      </trkpt>
      <trkpt lat="49.064346039667726" lon="7.571698017418385">
        <ele>260.64999999999998</ele>
        <time>2018-07-10T17:18:53Z</time>
      </trkpt>
      <trkpt lat="49.064177982509136" lon="7.57181704044342">
        <ele>260.64999999999998</ele>
        <time>2018-07-10T17:18:54Z</time>
      </trkpt>
      <trkpt lat="49.063997017219663" lon="7.57194603793323">
        <ele>260.64999999999998</ele>
        <time>2018-07-10T17:18:55Z</time>
      </trkpt>
      <trkpt lat="49.063409026712179" lon="7.572433026507497">
        <ele>260.64999999999998</ele>
        <time>2018-07-10T17:18:58Z</time>
      </trkpt>
      <trkpt lat="49.063213979825377" lon="7.572637964040041">
        <ele>260.64999999999998</ele>
        <time>2018-07-10T17:18:59Z</time>
      </trkpt>
      <trkpt lat="49.063065033406019" lon="7.572929989546537">
        <ele>260.64999999999998</ele>
        <time>2018-07-10T17:19:00Z</time>
      </trkpt>
      <trkpt lat="49.062019977718592" lon="7.57506201043725">
        <ele>259.20999999999998</ele>
        <time>2018-07-10T17:19:07Z</time>
      </trkpt>
      <trkpt lat="49.060828993096948" lon="7.577019017189741">
        <ele>258.73000000000002</ele>
        <time>2018-07-10T17:19:15Z</time>
      </trkpt>
      <trkpt lat="49.060631012544036" lon="7.577177016064525">
        <ele>258.73000000000002</ele>
        <time>2018-07-10T17:19:16Z</time>
      </trkpt>
      <trkpt lat="49.060429008677602" lon="7.577304001897574">
        <ele>258.73000000000002</ele>
        <time>2018-07-10T17:19:17Z</time>
      </trkpt>
      <trkpt lat="49.060228010639548" lon="7.577428976073861">
        <ele>258.73000000000002</ele>
        <time>2018-07-10T17:19:18Z</time>
      </trkpt>
      <trkpt lat="49.060026006773114" lon="7.577454037964344">
        <ele>258.73000000000002</ele>
        <time>2018-07-10T17:19:19Z</time>
      </trkpt>
      <trkpt lat="49.059828026220202" lon="7.577474992722273">
        <ele>258.73000000000002</ele>
        <time>2018-07-10T17:19:20Z</time>
      </trkpt>
      <trkpt lat="49.05963096767664" lon="7.577496031299233">
        <ele>258.73000000000002</ele>
        <time>2018-07-10T17:19:21Z</time>
      </trkpt>
      <trkpt lat="49.059431981295347" lon="7.577516986057162">
        <ele>258.73000000000002</ele>
        <time>2018-07-10T17:19:22Z</time>
      </trkpt>
      <trkpt lat="49.059230983257294" lon="7.577539030462503">
        <ele>259.20999999999998</ele>
        <time>2018-07-10T17:19:23Z</time>
      </trkpt>
      <trkpt lat="49.059043982997537" lon="7.577638020738959">
        <ele>259.20999999999998</ele>
        <time>2018-07-10T17:19:24Z</time>
      </trkpt>
      <trkpt lat="49.058858994394541" lon="7.577745979651809">
        <ele>259.20999999999998</ele>
        <time>2018-07-10T17:19:25Z</time>
      </trkpt>
      <trkpt lat="49.058690015226603" lon="7.577909007668495">
        <ele>259.20999999999998</ele>
        <time>2018-07-10T17:19:26Z</time>
      </trkpt>
      <trkpt lat="49.058522041887045" lon="7.578101037070155">
        <ele>259.20999999999998</ele>
        <time>2018-07-10T17:19:27Z</time>
      </trkpt>
      <trkpt lat="49.058363037183881" lon="7.57832801900804">
        <ele>258.73000000000002</ele>
        <time>2018-07-10T17:19:28Z</time>
      </trkpt>
      <trkpt lat="49.057612018659711" lon="7.579644983634353">
        <ele>256.81</ele>
        <time>2018-07-10T17:19:33Z</time>
      </trkpt>
      <trkpt lat="49.057516967877746" lon="7.579963998869062">
        <ele>256.32999999999998</ele>
        <time>2018-07-10T17:19:34Z</time>
      </trkpt>
      <trkpt lat="49.057083958759904" lon="7.581638032570481">
        <ele>253.93000000000001</ele>
        <time>2018-07-10T17:19:40Z</time>
      </trkpt>
      <trkpt lat="49.056607028469443" lon="7.583416001871228">
        <ele>251.03999999999999</ele>
        <time>2018-07-10T17:19:50Z</time>
      </trkpt>
      <trkpt lat="49.055988024920225" lon="7.584976041689515">
        <ele>249.12</ele>
        <time>2018-07-10T17:20:00Z</time>
      </trkpt>
      <trkpt lat="49.055185038596392" lon="7.586288983002305">
        <ele>246.22999999999999</ele>
        <time>2018-07-10T17:20:10Z</time>
      </trkpt>
      <trkpt lat="49.05423603951931" lon="7.58771700784564">
        <ele>246.72</ele>
        <time>2018-07-10T17:20:21Z</time>
      </trkpt>
      <trkpt lat="49.053895985707641" lon="7.588057983666658">
        <ele>247.68000000000001</ele>
        <time>2018-07-10T17:20:24Z</time>
      </trkpt>
      <trkpt lat="49.053764976561069" lon="7.588138030841947">
        <ele>247.68000000000001</ele>
        <time>2018-07-10T17:20:25Z</time>
      </trkpt>
      <trkpt lat="49.052437031641603" lon="7.589093986898661">
        <ele>251.03999999999999</ele>
        <time>2018-07-10T17:20:35Z</time>
      </trkpt>
      <trkpt lat="49.051213022321463" lon="7.590022031217814">
        <ele>250.56</ele>
        <time>2018-07-10T17:20:44Z</time>
      </trkpt>
      <trkpt lat="49.050569962710142" lon="7.590417992323637">
        <ele>249.12</ele>
        <time>2018-07-10T17:20:48Z</time>
      </trkpt>
      <trkpt lat="49.0504149813205" lon="7.590543972328305">
        <ele>248.63999999999999</ele>
        <time>2018-07-10T17:20:49Z</time>
      </trkpt>
      <trkpt lat="49.049820033833385" lon="7.591464975848794">
        <ele>246.22999999999999</ele>
        <time>2018-07-10T17:20:54Z</time>
      </trkpt>
      <trkpt lat="49.049734035506845" lon="7.591665973886848">
        <ele>245.75</ele>
        <time>2018-07-10T17:20:55Z</time>
      </trkpt>
      <trkpt lat="49.049658011645079" lon="7.591873006895185">
        <ele>245.75</ele>
        <time>2018-07-10T17:20:56Z</time>
      </trkpt>
      <trkpt lat="49.049623981118202" lon="7.592094037681818">
        <ele>245.27000000000001</ele>
        <time>2018-07-10T17:20:57Z</time>
      </trkpt>
      <trkpt lat="49.049590034410357" lon="7.592319007962942">
        <ele>245.27000000000001</ele>
        <time>2018-07-10T17:20:58Z</time>
      </trkpt>
      <trkpt lat="49.049557009711862" lon="7.59255001321435">
        <ele>245.27000000000001</ele>
        <time>2018-07-10T17:20:59Z</time>
      </trkpt>
      <trkpt lat="49.049557009711862" lon="7.592785963788629">
        <ele>245.27000000000001</ele>
        <time>2018-07-10T17:21:00Z</time>
      </trkpt>
      <trkpt lat="49.049623981118202" lon="7.593706967309117">
        <ele>245.27000000000001</ele>
        <time>2018-07-10T17:21:04Z</time>
      </trkpt>
      <trkpt lat="49.05011298134923" lon="7.595520978793502">
        <ele>248.63999999999999</ele>
        <time>2018-07-10T17:21:11Z</time>
      </trkpt>
      <trkpt lat="49.050786970183253" lon="7.597873024642468">
        <ele>251.03999999999999</ele>
        <time>2018-07-10T17:21:20Z</time>
      </trkpt>
      <trkpt lat="49.051370015367866" lon="7.600760003551841">
        <ele>250.08000000000001</ele>
        <time>2018-07-10T17:21:30Z</time>
      </trkpt>
      <trkpt lat="49.051705040037632" lon="7.602849025279284">
        <ele>251.52000000000001</ele>
        <time>2018-07-10T17:21:37Z</time>
      </trkpt>
      <trkpt lat="49.051705040037632" lon="7.602849025279284">
        <ele>251.52000000000001</ele>
        <time>2018-07-10T17:21:38Z</time>
      </trkpt>
      <trkpt lat="49.052223041653633" lon="7.606081003323197">
        <ele>252.47999999999999</ele>
        <time>2018-07-10T17:21:48Z</time>
      </trkpt>
      <trkpt lat="49.05262403190136" lon="7.608589958399534">
        <ele>256.32999999999998</ele>
        <time>2018-07-10T17:21:57Z</time>
      </trkpt>
      <trkpt lat="49.053100040182471" lon="7.611427986994386">
        <ele>259.20999999999998</ele>
        <time>2018-07-10T17:22:07Z</time>
      </trkpt>
      <trkpt lat="49.053820967674255" lon="7.613769974559546">
        <ele>259.69</ele>
        <time>2018-07-10T17:22:16Z</time>
      </trkpt>
      <trkpt lat="49.054380962625146" lon="7.615295983850956">
        <ele>255.84999999999999</ele>
        <time>2018-07-10T17:22:22Z</time>
      </trkpt>
      <trkpt lat="49.055267013609409" lon="7.617828994989395">
        <ele>250.56</ele>
        <time>2018-07-10T17:22:32Z</time>
      </trkpt>
      <trkpt lat="49.055438004434109" lon="7.61861203238368">
        <ele>250.08000000000001</ele>
        <time>2018-07-10T17:22:35Z</time>
      </trkpt>
      <trkpt lat="49.055543029680848" lon="7.619480984285474">
        <ele>249.59999999999999</ele>
        <time>2018-07-10T17:22:38Z</time>
      </trkpt>
      <trkpt lat="49.055435992777348" lon="7.621953980997205">
        <ele>248.16</ele>
        <time>2018-07-10T17:22:45Z</time>
      </trkpt>
      <trkpt lat="49.054779019206762" lon="7.624338967725635">
        <ele>248.16</ele>
        <time>2018-07-10T17:22:52Z</time>
      </trkpt>
      <trkpt lat="49.053795989602804" lon="7.627061996608973">
        <ele>246.72</ele>
        <time>2018-07-10T17:23:00Z</time>
      </trkpt>
      <trkpt lat="49.052757974714041" lon="7.628865027800202">
        <ele>247.68000000000001</ele>
        <time>2018-07-10T17:23:06Z</time>
      </trkpt>
      <trkpt lat="49.051434975117445" lon="7.630891017615795">
        <ele>252</ele>
        <time>2018-07-10T17:23:13Z</time>
      </trkpt>
      <trkpt lat="49.051301032304764" lon="7.631173990666866">
        <ele>252.96000000000001</ele>
        <time>2018-07-10T17:23:14Z</time>
      </trkpt>
      <trkpt lat="49.051173040643334" lon="7.631443971768022">
        <ele>253.93000000000001</ele>
        <time>2018-07-10T17:23:15Z</time>
      </trkpt>
      <trkpt lat="49.051073966547847" lon="7.631737003102899">
        <ele>254.88999999999999</ele>
        <time>2018-07-10T17:23:16Z</time>
      </trkpt>
      <trkpt lat="49.050991991534829" lon="7.632048977538943">
        <ele>255.37</ele>
        <time>2018-07-10T17:23:17Z</time>
      </trkpt>
      <trkpt lat="49.05090699903667" lon="7.632373021915555">
        <ele>255.84999999999999</ele>
        <time>2018-07-10T17:23:18Z</time>
      </trkpt>
      <trkpt lat="49.050377011299133" lon="7.634710986167193">
        <ele>255.37</ele>
        <time>2018-07-10T17:23:24Z</time>
      </trkpt>
      <trkpt lat="49.049567990005016" lon="7.638403968885541">
        <ele>254.88999999999999</ele>
        <time>2018-07-10T17:23:33Z</time>
      </trkpt>
      <trkpt lat="49.048832980915904" lon="7.641871981322765">
        <ele>251.03999999999999</ele>
        <time>2018-07-10T17:23:42Z</time>
      </trkpt>
      <trkpt lat="49.047969980165362" lon="7.645738972350955">
        <ele>248.63999999999999</ele>
        <time>2018-07-10T17:23:52Z</time>
      </trkpt>
      <trkpt lat="49.047453990206122" lon="7.648008037358522">
        <ele>248.63999999999999</ele>
        <time>2018-07-10T17:23:58Z</time>
      </trkpt>
      <trkpt lat="49.047385007143021" lon="7.648329986259341">
        <ele>249.59999999999999</ele>
        <time>2018-07-10T17:23:59Z</time>
      </trkpt>
      <trkpt lat="49.047117959707975" lon="7.64952901750803">
        <ele>252.96000000000001</ele>
        <time>2018-07-10T17:24:04Z</time>
      </trkpt>
      <trkpt lat="49.047078983858228" lon="7.649695985019207">
        <ele>253.44</ele>
        <time>2018-07-10T17:24:05Z</time>
      </trkpt>
      <trkpt lat="49.047025004401803" lon="7.649840991944075">
        <ele>253.44</ele>
        <time>2018-07-10T17:24:06Z</time>
      </trkpt>
      <trkpt lat="49.04695400968194" lon="7.649990022182465">
        <ele>253.44</ele>
        <time>2018-07-10T17:24:07Z</time>
      </trkpt>
      <trkpt lat="49.046858036890626" lon="7.650100998580456">
        <ele>253.93000000000001</ele>
        <time>2018-07-10T17:24:08Z</time>
      </trkpt>
      <trkpt lat="49.046742031350732" lon="7.650179034098983">
        <ele>253.93000000000001</ele>
        <time>2018-07-10T17:24:09Z</time>
      </trkpt>
      <trkpt lat="49.046608004719019" lon="7.650249022990465">
        <ele>254.41</ele>
        <time>2018-07-10T17:24:10Z</time>
      </trkpt>
      <trkpt lat="49.046454029157758" lon="7.650329992175102">
        <ele>254.88999999999999</ele>
        <time>2018-07-10T17:24:11Z</time>
      </trkpt>
      <trkpt lat="49.045194983482361" lon="7.650989983230829">
        <ele>260.64999999999998</ele>
        <time>2018-07-10T17:24:18Z</time>
      </trkpt>
      <trkpt lat="49.044748982414603" lon="7.651344034820795">
        <ele>263.54000000000002</ele>
        <time>2018-07-10T17:24:21Z</time>
      </trkpt>
      <trkpt lat="49.044389985501766" lon="7.651751982048154">
        <ele>264.98000000000002</ele>
        <time>2018-07-10T17:24:24Z</time>
      </trkpt>
      <trkpt lat="49.044261993840337" lon="7.651840997859836">
        <ele>265.45999999999998</ele>
        <time>2018-07-10T17:24:25Z</time>
      </trkpt>
      <trkpt lat="49.044127967208624" lon="7.651887014508247">
        <ele>265.45999999999998</ele>
        <time>2018-07-10T17:24:26Z</time>
      </trkpt>
      <trkpt lat="49.04388003051281" lon="7.651861030608416">
        <ele>265.45999999999998</ele>
        <time>2018-07-10T17:24:28Z</time>
      </trkpt>
      <trkpt lat="49.043119037523866" lon="7.651560036465526">
        <ele>264.5</ele>
        <time>2018-07-10T17:24:33Z</time>
      </trkpt>
      <trkpt lat="49.042955003678799" lon="7.651487030088902">
        <ele>264.5</ele>
        <time>2018-07-10T17:24:34Z</time>
      </trkpt>
      <trkpt lat="49.042306998744607" lon="7.651204979047179">
        <ele>263.54000000000002</ele>
        <time>2018-07-10T17:24:39Z</time>
      </trkpt>
      <trkpt lat="49.04222602955997" lon="7.651204979047179">
        <ele>263.06</ele>
        <time>2018-07-10T17:24:40Z</time>
      </trkpt>
      <trkpt lat="49.042103989049792" lon="7.651257030665875">
        <ele>261.62</ele>
        <time>2018-07-10T17:24:42Z</time>
      </trkpt>
      <trkpt lat="49.042058978229761" lon="7.651337999850512">
        <ele>261.13999999999999</ele>
        <time>2018-07-10T17:24:43Z</time>
      </trkpt>
      <trkpt lat="49.042024025693536" lon="7.651428021490574">
        <ele>259.69</ele>
        <time>2018-07-10T17:24:44Z</time>
      </trkpt>
      <trkpt lat="49.042017990723252" lon="7.651573028415442">
        <ele>258.73000000000002</ele>
        <time>2018-07-10T17:24:45Z</time>
      </trkpt>
      <trkpt lat="49.04201103374362" lon="7.651751982048154">
        <ele>257.76999999999998</ele>
        <time>2018-07-10T17:24:46Z</time>
      </trkpt>
      <trkpt lat="49.042006004601717" lon="7.651963960379362">
        <ele>256.32999999999998</ele>
        <time>2018-07-10T17:24:47Z</time>
      </trkpt>
      <trkpt lat="49.042093008756638" lon="7.653732961043716">
        <ele>249.59999999999999</ele>
        <time>2018-07-10T17:24:53Z</time>
      </trkpt>
      <trkpt lat="49.042247990146279" lon="7.656735023483634">
        <ele>242.87</ele>
        <time>2018-07-10T17:25:01Z</time>
      </trkpt>
      <trkpt lat="49.042435996234417" lon="7.660448038950563">
        <ele>239.02000000000001</ele>
        <time>2018-07-10T17:25:11Z</time>
      </trkpt>
      <trkpt lat="49.042573040351272" lon="7.663139970973134">
        <ele>239.02000000000001</ele>
        <time>2018-07-10T17:25:19Z</time>
      </trkpt>
      <trkpt lat="49.042641017585993" lon="7.664433969184756">
        <ele>239.02000000000001</ele>
        <time>2018-07-10T17:25:24Z</time>
      </trkpt>
      <trkpt lat="49.042630037292838" lon="7.664620969444513">
        <ele>238.53999999999999</ele>
        <time>2018-07-10T17:25:25Z</time>
      </trkpt>
      <trkpt lat="49.042589971795678" lon="7.664779974147677">
        <ele>238.53999999999999</ele>
        <time>2018-07-10T17:25:26Z</time>
      </trkpt>
      <trkpt lat="49.04255099594593" lon="7.664937973022461">
        <ele>238.53999999999999</ele>
        <time>2018-07-10T17:25:27Z</time>
      </trkpt>
      <trkpt lat="49.04246499761939" lon="7.665066970512271">
        <ele>238.53999999999999</ele>
        <time>2018-07-10T17:25:28Z</time>
      </trkpt>
      <trkpt lat="49.042365001514554" lon="7.665180964395404">
        <ele>238.53999999999999</ele>
        <time>2018-07-10T17:25:29Z</time>
      </trkpt>
      <trkpt lat="49.042240027338266" lon="7.66532395966351">
        <ele>238.06</ele>
        <time>2018-07-10T17:25:30Z</time>
      </trkpt>
      <trkpt lat="49.042116980999708" lon="7.665399983525276">
        <ele>237.58000000000001</ele>
        <time>2018-07-10T17:25:31Z</time>
      </trkpt>
      <trkpt lat="49.041969962418079" lon="7.665488999336958">
        <ele>237.58000000000001</ele>
        <time>2018-07-10T17:25:32Z</time>
      </trkpt>
      <trkpt lat="49.040876040235162" lon="7.666158964857459">
        <ele>238.06</ele>
        <time>2018-07-10T17:25:38Z</time>
      </trkpt>
      <trkpt lat="49.040498016402125" lon="7.666389970108867">
        <ele>238.53999999999999</ele>
        <time>2018-07-10T17:25:40Z</time>
      </trkpt>
      <trkpt lat="49.039996024221182" lon="7.666752990335226">
        <ele>240.47</ele>
        <time>2018-07-10T17:25:43Z</time>
      </trkpt>
      <trkpt lat="49.039829978719354" lon="7.66693202778697">
        <ele>240.94999999999999</ele>
        <time>2018-07-10T17:25:44Z</time>
      </trkpt>
      <trkpt lat="49.038980975747108" lon="7.668248992413282">
        <ele>244.31</ele>
        <time>2018-07-10T17:25:50Z</time>
      </trkpt>
      <trkpt lat="49.038863964378834" lon="7.668473962694407">
        <ele>244.78999999999999</ele>
        <time>2018-07-10T17:25:51Z</time>
      </trkpt>
      <trkpt lat="49.03820900246501" lon="7.670216979458928">
        <ele>246.22999999999999</ele>
        <time>2018-07-10T17:25:57Z</time>
      </trkpt>
      <trkpt lat="49.037605002522469" lon="7.671867040917277">
        <ele>246.22999999999999</ele>
        <time>2018-07-10T17:26:03Z</time>
      </trkpt>
      <trkpt lat="49.037025980651379" lon="7.673446023836732">
        <ele>243.83000000000001</ele>
        <time>2018-07-10T17:26:10Z</time>
      </trkpt>
      <trkpt lat="49.036613004282117" lon="7.674676990136504">
        <ele>242.87</ele>
        <time>2018-07-10T17:26:17Z</time>
      </trkpt>
      <trkpt lat="49.03657503426075" lon="7.674829959869385">
        <ele>242.87</ele>
        <time>2018-07-10T17:26:18Z</time>
      </trkpt>
      <trkpt lat="49.03657503426075" lon="7.675007991492748">
        <ele>242.87</ele>
        <time>2018-07-10T17:26:19Z</time>
      </trkpt>
      <trkpt lat="49.036587020382285" lon="7.675187028944492">
        <ele>242.87</ele>
        <time>2018-07-10T17:26:20Z</time>
      </trkpt>
      <trkpt lat="49.036625996232033" lon="7.675374029204249">
        <ele>242.87</ele>
        <time>2018-07-10T17:26:21Z</time>
      </trkpt>
      <trkpt lat="49.036667989566922" lon="7.675568992272019">
        <ele>242.38999999999999</ele>
        <time>2018-07-10T17:26:22Z</time>
      </trkpt>
      <trkpt lat="49.036709982901812" lon="7.675768984481692">
        <ele>241.91</ele>
        <time>2018-07-10T17:26:23Z</time>
      </trkpt>
      <trkpt lat="49.036983987316489" lon="7.677077986299992">
        <ele>240.47</ele>
        <time>2018-07-10T17:26:31Z</time>
      </trkpt>
      <trkpt lat="49.037110973149538" lon="7.67771802842617">
        <ele>240.47</ele>
        <time>2018-07-10T17:26:36Z</time>
      </trkpt>
      <trkpt lat="49.037110973149538" lon="7.677855994552374">
        <ele>240.47</ele>
        <time>2018-07-10T17:26:37Z</time>
      </trkpt>
      <trkpt lat="49.037044001743197" lon="7.679105987772346">
        <ele>240.47</ele>
        <time>2018-07-10T17:26:46Z</time>
      </trkpt>
      <trkpt lat="49.037001002579927" lon="7.680433010682464">
        <ele>240.47</ele>
        <time>2018-07-10T17:26:56Z</time>
      </trkpt>
      <trkpt lat="49.037047019228339" lon="7.680881023406982">
        <ele>239.50999999999999</ele>
        <time>2018-07-10T17:26:59Z</time>
      </trkpt>
      <trkpt lat="49.037063028663397" lon="7.681034998968244">
        <ele>239.02000000000001</ele>
        <time>2018-07-10T17:27:00Z</time>
      </trkpt>
      <trkpt lat="49.037141986191273" lon="7.681791968643665">
        <ele>239.02000000000001</ele>
        <time>2018-07-10T17:27:05Z</time>
      </trkpt>
      <trkpt lat="49.037151960656047" lon="7.681939993053675">
        <ele>239.02000000000001</ele>
        <time>2018-07-10T17:27:06Z</time>
      </trkpt>
      <trkpt lat="49.037139974534512" lon="7.682073013857007">
        <ele>239.02000000000001</ele>
        <time>2018-07-10T17:27:07Z</time>
      </trkpt>
      <trkpt lat="49.03711399063468" lon="7.682210979983211">
        <ele>239.02000000000001</ele>
        <time>2018-07-10T17:27:08Z</time>
      </trkpt>
      <trkpt lat="49.037078032270074" lon="7.682339977473021">
        <ele>239.02000000000001</ele>
        <time>2018-07-10T17:27:09Z</time>
      </trkpt>
      <trkpt lat="49.037038972601295" lon="7.682475009933114">
        <ele>239.02000000000001</ele>
        <time>2018-07-10T17:27:10Z</time>
      </trkpt>
      <trkpt lat="49.036960015073419" lon="7.682753959670663">
        <ele>239.02000000000001</ele>
        <time>2018-07-10T17:27:12Z</time>
      </trkpt>
      <trkpt lat="49.03685700148344" lon="7.683166014030576">
        <ele>239.02000000000001</ele>
        <time>2018-07-10T17:27:15Z</time>
      </trkpt>
      <trkpt lat="49.036821965128183" lon="7.683302974328399">
        <ele>238.53999999999999</ele>
        <time>2018-07-10T17:27:16Z</time>
      </trkpt>
      <trkpt lat="49.03662096709013" lon="7.684335960075259">
        <ele>237.09999999999999</ele>
        <time>2018-07-10T17:27:23Z</time>
      </trkpt>
      <trkpt lat="49.03636297211051" lon="7.685559969395399">
        <ele>234.69999999999999</ele>
        <time>2018-07-10T17:27:31Z</time>
      </trkpt>
      <trkpt lat="49.036322990432382" lon="7.685717968270183">
        <ele>234.22</ele>
        <time>2018-07-10T17:27:32Z</time>
      </trkpt>
      <trkpt lat="49.036283008754253" lon="7.685875967144966">
        <ele>233.74000000000001</ele>
        <time>2018-07-10T17:27:33Z</time>
      </trkpt>
      <trkpt lat="49.036044040694833" lon="7.687105005607009">
        <ele>232.30000000000001</ele>
        <time>2018-07-10T17:27:41Z</time>
      </trkpt>
      <trkpt lat="49.035949995741248" lon="7.687936993315816">
        <ele>233.25999999999999</ele>
        <time>2018-07-10T17:27:46Z</time>
      </trkpt>
      <trkpt lat="49.035842036828399" lon="7.688410989940167">
        <ele>233.25999999999999</ele>
        <time>2018-07-10T17:27:49Z</time>
      </trkpt>
      <trkpt lat="49.035808006301522" lon="7.688561026006937">
        <ele>233.25999999999999</ele>
        <time>2018-07-10T17:27:50Z</time>
      </trkpt>
      <trkpt lat="49.035814041271806" lon="7.688721036538482">
        <ele>233.25999999999999</ele>
        <time>2018-07-10T17:27:51Z</time>
      </trkpt>
      <trkpt lat="49.035828039050102" lon="7.688892027363181">
        <ele>233.25999999999999</ele>
        <time>2018-07-10T17:27:52Z</time>
      </trkpt>
      <trkpt lat="49.035842036828399" lon="7.689064024016261">
        <ele>233.74000000000001</ele>
        <time>2018-07-10T17:27:53Z</time>
      </trkpt>
      <trkpt lat="49.035855028778315" lon="7.689230991527438">
        <ele>233.74000000000001</ele>
        <time>2018-07-10T17:27:54Z</time>
      </trkpt>
      <trkpt lat="49.035869026556611" lon="7.68940600566566">
        <ele>234.22</ele>
        <time>2018-07-10T17:27:55Z</time>
      </trkpt>
      <trkpt lat="49.035884030163288" lon="7.689580013975501">
        <ele>234.22</ele>
        <time>2018-07-10T17:27:56Z</time>
      </trkpt>
      <trkpt lat="49.035874977707863" lon="7.689763996750116">
        <ele>234.69999999999999</ele>
        <time>2018-07-10T17:27:57Z</time>
      </trkpt>
      <trkpt lat="49.035856034606695" lon="7.689948985353112">
        <ele>234.69999999999999</ele>
        <time>2018-07-10T17:27:58Z</time>
      </trkpt>
      <trkpt lat="49.035780010744929" lon="7.690681982785463">
        <ele>234.69999999999999</ele>
        <time>2018-07-10T17:28:02Z</time>
      </trkpt>
      <trkpt lat="49.03576098382473" lon="7.690864959731698">
        <ele>235.18000000000001</ele>
        <time>2018-07-10T17:28:03Z</time>
      </trkpt>
      <trkpt lat="49.035746986046433" lon="7.691037962213159">
        <ele>235.18000000000001</ele>
        <time>2018-07-10T17:28:04Z</time>
      </trkpt>
      <trkpt lat="49.035673979669809" lon="7.691925019025803">
        <ele>233.74000000000001</ele>
        <time>2018-07-10T17:28:09Z</time>
      </trkpt>
      <trkpt lat="49.035658976063132" lon="7.692104978486896">
        <ele>233.74000000000001</ele>
        <time>2018-07-10T17:28:10Z</time>
      </trkpt>
      <trkpt lat="49.035535007715225" lon="7.693625958636403">
        <ele>234.22</ele>
        <time>2018-07-10T17:28:18Z</time>
      </trkpt>
      <trkpt lat="49.035522015765309" lon="7.693784963339567">
        <ele>234.22</ele>
        <time>2018-07-10T17:28:19Z</time>
      </trkpt>
      <trkpt lat="49.035451021045446" lon="7.694404972717166">
        <ele>233.74000000000001</ele>
        <time>2018-07-10T17:28:23Z</time>
      </trkpt>
      <trkpt lat="49.035412967205048" lon="7.694550985470414">
        <ele>233.74000000000001</ele>
        <time>2018-07-10T17:28:24Z</time>
      </trkpt>
      <trkpt lat="49.0353739913553" lon="7.694701021537185">
        <ele>233.74000000000001</ele>
        <time>2018-07-10T17:28:25Z</time>
      </trkpt>
      <trkpt lat="49.035324035212398" lon="7.694852985441685">
        <ele>233.74000000000001</ele>
        <time>2018-07-10T17:28:26Z</time>
      </trkpt>
      <trkpt lat="49.03526502661407" lon="7.694995980709791">
        <ele>233.74000000000001</ele>
        <time>2018-07-10T17:28:27Z</time>
      </trkpt>
      <trkpt lat="49.035204006358981" lon="7.69514299929142">
        <ele>233.74000000000001</ele>
        <time>2018-07-10T17:28:28Z</time>
      </trkpt>
      <trkpt lat="49.035084983333945" lon="7.695429995656014">
        <ele>233.25999999999999</ele>
        <time>2018-07-10T17:28:30Z</time>
      </trkpt>
      <trkpt lat="49.035023041069508" lon="7.695578020066023">
        <ele>233.25999999999999</ele>
        <time>2018-07-10T17:28:31Z</time>
      </trkpt>
      <trkpt lat="49.034980041906238" lon="7.695731995627284">
        <ele>233.25999999999999</ele>
        <time>2018-07-10T17:28:32Z</time>
      </trkpt>
      <trkpt lat="49.034961014986038" lon="7.69591698423028">
        <ele>232.78</ele>
        <time>2018-07-10T17:28:33Z</time>
      </trkpt>
      <trkpt lat="49.034940982237458" lon="7.696112031117082">
        <ele>232.78</ele>
        <time>2018-07-10T17:28:34Z</time>
      </trkpt>
      <trkpt lat="49.034922961145639" lon="7.696311017498374">
        <ele>232.30000000000001</ele>
        <time>2018-07-10T17:28:35Z</time>
      </trkpt>
      <trkpt lat="49.034922961145639" lon="7.696510003879666">
        <ele>231.81</ele>
        <time>2018-07-10T17:28:36Z</time>
      </trkpt>
      <trkpt lat="49.034912986680865" lon="7.697067987173796">
        <ele>231.33000000000001</ele>
        <time>2018-07-10T17:28:39Z</time>
      </trkpt>
      <trkpt lat="49.034887002781034" lon="7.697640974074602">
        <ele>231.81</ele>
        <time>2018-07-10T17:28:42Z</time>
      </trkpt>
      <trkpt lat="49.034845009446144" lon="7.697845995426178">
        <ele>231.81</ele>
        <time>2018-07-10T17:28:43Z</time>
      </trkpt>
      <trkpt lat="49.034206978976727" lon="7.69963301718235">
        <ele>232.30000000000001</ele>
        <time>2018-07-10T17:28:52Z</time>
      </trkpt>
      <trkpt lat="49.033906990662217" lon="7.701336974278092">
        <ele>231.81</ele>
        <time>2018-07-10T17:29:00Z</time>
      </trkpt>
      <trkpt lat="49.033911013975739" lon="7.70186897367239">
        <ele>231.81</ele>
        <time>2018-07-10T17:29:02Z</time>
      </trkpt>
      <trkpt lat="49.033939009532332" lon="7.702421005815268">
        <ele>230.84999999999999</ele>
        <time>2018-07-10T17:29:04Z</time>
      </trkpt>
      <trkpt lat="49.033928029239178" lon="7.703466983512044">
        <ele>229.41</ele>
        <time>2018-07-10T17:29:08Z</time>
      </trkpt>
      <trkpt lat="49.033917970955372" lon="7.703713998198509">
        <ele>229.41</ele>
        <time>2018-07-10T17:29:09Z</time>
      </trkpt>
      <trkpt lat="49.033852005377412" lon="7.704398967325687">
        <ele>228.93000000000001</ele>
        <time>2018-07-10T17:29:12Z</time>
      </trkpt>
      <trkpt lat="49.033788973465562" lon="7.704608011990786">
        <ele>228.93000000000001</ele>
        <time>2018-07-10T17:29:13Z</time>
      </trkpt>
      <trkpt lat="49.033717978745699" lon="7.704831976443529">
        <ele>228.93000000000001</ele>
        <time>2018-07-10T17:29:14Z</time>
      </trkpt>
      <trkpt lat="49.03363399207592" lon="7.705065999180079">
        <ele>228.44999999999999</ele>
        <time>2018-07-10T17:29:15Z</time>
      </trkpt>
      <trkpt lat="49.033522009849548" lon="7.705285018309951">
        <ele>228.44999999999999</ele>
        <time>2018-07-10T17:29:16Z</time>
      </trkpt>
      <trkpt lat="49.032981041818857" lon="7.706450019031763">
        <ele>228.44999999999999</ele>
        <time>2018-07-10T17:29:21Z</time>
      </trkpt>
      <trkpt lat="49.032899988815188" lon="7.706714970991015">
        <ele>227.97</ele>
        <time>2018-07-10T17:29:22Z</time>
      </trkpt>
      <trkpt lat="49.032841986045241" lon="7.706984030082822">
        <ele>227.49000000000001</ele>
        <time>2018-07-10T17:29:23Z</time>
      </trkpt>
      <trkpt lat="49.032790018245578" lon="7.707259962335229">
        <ele>227.49000000000001</ele>
        <time>2018-07-10T17:29:24Z</time>
      </trkpt>
      <trkpt lat="49.032759005203843" lon="7.707536984235048">
        <ele>227.49000000000001</ele>
        <time>2018-07-10T17:29:25Z</time>
      </trkpt>
      <trkpt lat="49.032589020207524" lon="7.708707014098764">
        <ele>224.61000000000001</ele>
        <time>2018-07-10T17:29:31Z</time>
      </trkpt>
      <trkpt lat="49.032360026612878" lon="7.709417967125773">
        <ele>223.63999999999999</ele>
        <time>2018-07-10T17:29:37Z</time>
      </trkpt>
      <trkpt lat="49.031917965039611" lon="7.710236962884665">
        <ele>224.12</ele>
        <time>2018-07-10T17:29:46Z</time>
      </trkpt>
      <trkpt lat="49.031775975599885" lon="7.710409965366125">
        <ele>224.12</ele>
        <time>2018-07-10T17:29:47Z</time>
      </trkpt>
      <trkpt lat="49.03170196339488" lon="7.710480960085988">
        <ele>224.12</ele>
        <time>2018-07-10T17:29:48Z</time>
      </trkpt>
      <trkpt lat="49.031616970896721" lon="7.710518008098006">
        <ele>223.63999999999999</ele>
        <time>2018-07-10T17:29:49Z</time>
      </trkpt>
      <trkpt lat="49.03152703307569" lon="7.710555978119373">
        <ele>224.12</ele>
        <time>2018-07-10T17:29:50Z</time>
      </trkpt>
      <trkpt lat="49.031433993950486" lon="7.710595037788153">
        <ele>224.12</ele>
        <time>2018-07-10T17:29:51Z</time>
      </trkpt>
      <trkpt lat="49.031341960653663" lon="7.7106340136379">
        <ele>224.12</ele>
        <time>2018-07-10T17:29:52Z</time>
      </trkpt>
      <trkpt lat="49.030726980417967" lon="7.71093400195241">
        <ele>222.68000000000001</ele>
        <time>2018-07-10T17:29:59Z</time>
      </trkpt>
      <trkpt lat="49.030652968212962" lon="7.710985969752073">
        <ele>222.68000000000001</ele>
        <time>2018-07-10T17:30:00Z</time>
      </trkpt>
      <trkpt lat="49.030581973493099" lon="7.711096024140716">
        <ele>222.68000000000001</ele>
        <time>2018-07-10T17:30:01Z</time>
      </trkpt>
      <trkpt lat="49.030379969626665" lon="7.711412021890283">
        <ele>222.19999999999999</ele>
        <time>2018-07-10T17:30:04Z</time>
      </trkpt>
      <trkpt lat="49.030308974906802" lon="7.711522998288274">
        <ele>222.19999999999999</ele>
        <time>2018-07-10T17:30:05Z</time>
      </trkpt>
      <trkpt lat="49.030277039855719" lon="7.711629029363394">
        <ele>222.19999999999999</ele>
        <time>2018-07-10T17:30:06Z</time>
      </trkpt>
      <trkpt lat="49.030235968530178" lon="7.711763978004456">
        <ele>222.68000000000001</ele>
        <time>2018-07-10T17:30:07Z</time>
      </trkpt>
      <trkpt lat="49.030193975195289" lon="7.711903033778071">
        <ele>222.68000000000001</ele>
        <time>2018-07-10T17:30:08Z</time>
      </trkpt>
      <trkpt lat="49.030114011839032" lon="7.712173014879227">
        <ele>223.63999999999999</ele>
        <time>2018-07-10T17:30:10Z</time>
      </trkpt>
      <trkpt lat="49.030075035989285" lon="7.712307963520289">
        <ele>223.63999999999999</ele>
        <time>2018-07-10T17:30:11Z</time>
      </trkpt>
      <trkpt lat="49.029904967173934" lon="7.712894026190043">
        <ele>224.61000000000001</ele>
        <time>2018-07-10T17:30:15Z</time>
      </trkpt>
      <trkpt lat="49.029721990227699" lon="7.713529039174318">
        <ele>224.61000000000001</ele>
        <time>2018-07-10T17:30:19Z</time>
      </trkpt>
      <trkpt lat="49.02961696498096" lon="7.714010998606682">
        <ele>225.09</ele>
        <time>2018-07-10T17:30:22Z</time>
      </trkpt>
      <trkpt lat="49.029557034373283" lon="7.714497987180948">
        <ele>225.09</ele>
        <time>2018-07-10T17:30:25Z</time>
      </trkpt>
      <trkpt lat="49.029524009674788" lon="7.714965026825666">
        <ele>224.12</ele>
        <time>2018-07-10T17:30:28Z</time>
      </trkpt>
      <trkpt lat="49.029533984139562" lon="7.715115984901786">
        <ele>224.12</ele>
        <time>2018-07-10T17:30:29Z</time>
      </trkpt>
      <trkpt lat="49.029630962759256" lon="7.716399002820253">
        <ele>222.19999999999999</ele>
        <time>2018-07-10T17:30:37Z</time>
      </trkpt>
      <trkpt lat="49.029755014926195" lon="7.717525027692318">
        <ele>223.63999999999999</ele>
        <time>2018-07-10T17:30:44Z</time>
      </trkpt>
      <trkpt lat="49.029759038239717" lon="7.71768101491034">
        <ele>223.63999999999999</ele>
        <time>2018-07-10T17:30:45Z</time>
      </trkpt>
      <trkpt lat="49.029762977734208" lon="7.717840019613504">
        <ele>224.12</ele>
        <time>2018-07-10T17:30:46Z</time>
      </trkpt>
      <trkpt lat="49.029730036854744" lon="7.719474993646145">
        <ele>221.72</ele>
        <time>2018-07-10T17:30:54Z</time>
      </trkpt>
      <trkpt lat="49.02963699772954" lon="7.720464980229735">
        <ele>219.80000000000001</ele>
        <time>2018-07-10T17:30:58Z</time>
      </trkpt>
      <trkpt lat="49.029563991352916" lon="7.720664972439408">
        <ele>219.80000000000001</ele>
        <time>2018-07-10T17:30:59Z</time>
      </trkpt>
      <trkpt lat="49.029472041875124" lon="7.720870999619365">
        <ele>219.80000000000001</ele>
        <time>2018-07-10T17:31:00Z</time>
      </trkpt>
      <trkpt lat="49.029372967779636" lon="7.721091024577618">
        <ele>219.80000000000001</ele>
        <time>2018-07-10T17:31:01Z</time>
      </trkpt>
      <trkpt lat="49.029266014695168" lon="7.721327980980277">
        <ele>219.80000000000001</ele>
        <time>2018-07-10T17:31:02Z</time>
      </trkpt>
      <trkpt lat="49.028450036421418" lon="7.723146015778184">
        <ele>218.36000000000001</ele>
        <time>2018-07-10T17:31:09Z</time>
      </trkpt>
      <trkpt lat="49.027770012617111" lon="7.72515800781548">
        <ele>216.91</ele>
        <time>2018-07-10T17:31:16Z</time>
      </trkpt>
      <trkpt lat="49.027447979897261" lon="7.726966990157962">
        <ele>215.47</ele>
        <time>2018-07-10T17:31:22Z</time>
      </trkpt>
      <trkpt lat="49.02744697406888" lon="7.727281982079148">
        <ele>214.99000000000001</ele>
        <time>2018-07-10T17:31:23Z</time>
      </trkpt>
      <trkpt lat="49.02746700681746" lon="7.727609965950251">
        <ele>214.50999999999999</ele>
        <time>2018-07-10T17:31:24Z</time>
      </trkpt>
      <trkpt lat="49.027663981541991" lon="7.730332994833589">
        <ele>212.11000000000001</ele>
        <time>2018-07-10T17:31:32Z</time>
      </trkpt>
      <trkpt lat="49.027690971270204" lon="7.730875974521041">
        <ele>210.66999999999999</ele>
        <time>2018-07-10T17:31:34Z</time>
      </trkpt>
      <trkpt lat="49.027666999027133" lon="7.731117960065603">
        <ele>210.19</ele>
        <time>2018-07-10T17:31:35Z</time>
      </trkpt>
      <trkpt lat="49.027606984600425" lon="7.73134502582252">
        <ele>209.69999999999999</ele>
        <time>2018-07-10T17:31:36Z</time>
      </trkpt>
      <trkpt lat="49.027515035122633" lon="7.731569996103644">
        <ele>209.22</ele>
        <time>2018-07-10T17:31:37Z</time>
      </trkpt>
      <trkpt lat="49.027419984340668" lon="7.731799995526671">
        <ele>208.74000000000001</ele>
        <time>2018-07-10T17:31:38Z</time>
      </trkpt>
      <trkpt lat="49.027239019051194" lon="7.732238033786416">
        <ele>209.22</ele>
        <time>2018-07-10T17:31:40Z</time>
      </trkpt>
      <trkpt lat="49.027184033766389" lon="7.732458980754018">
        <ele>209.22</ele>
        <time>2018-07-10T17:31:41Z</time>
      </trkpt>
      <trkpt lat="49.027156960219145" lon="7.732681017369032">
        <ele>209.69999999999999</ele>
        <time>2018-07-10T17:31:42Z</time>
      </trkpt>
      <trkpt lat="49.027176992967725" lon="7.732909005135298">
        <ele>209.69999999999999</ele>
        <time>2018-07-10T17:31:43Z</time>
      </trkpt>
      <trkpt lat="49.027211023494601" lon="7.733148979023099">
        <ele>209.69999999999999</ele>
        <time>2018-07-10T17:31:44Z</time>
      </trkpt>
      <trkpt lat="49.027289981022477" lon="7.733384007588029">
        <ele>210.19</ele>
        <time>2018-07-10T17:31:45Z</time>
      </trkpt>
      <trkpt lat="49.027373967692256" lon="7.733636973425746">
        <ele>210.19</ele>
        <time>2018-07-10T17:31:46Z</time>
      </trkpt>
      <trkpt lat="49.02746700681746" lon="7.733916006982327">
        <ele>210.19</ele>
        <time>2018-07-10T17:31:47Z</time>
      </trkpt>
      <trkpt lat="49.027678985148668" lon="7.734507014974952">
        <ele>210.66999999999999</ele>
        <time>2018-07-10T17:31:49Z</time>
      </trkpt>
      <trkpt lat="49.028838034719229" lon="7.737257033586502">
        <ele>211.63</ele>
        <time>2018-07-10T17:31:58Z</time>
      </trkpt>
      <trkpt lat="49.029842019081116" lon="7.739404980093241">
        <ele>210.19</ele>
        <time>2018-07-10T17:32:06Z</time>
      </trkpt>
      <trkpt lat="49.030127003788948" lon="7.740081986412406">
        <ele>209.69999999999999</ele>
        <time>2018-07-10T17:32:09Z</time>
      </trkpt>
      <trkpt lat="49.030177965760231" lon="7.740312991663814">
        <ele>209.69999999999999</ele>
        <time>2018-07-10T17:32:10Z</time>
      </trkpt>
      <trkpt lat="49.030202021822333" lon="7.740491023287177">
        <ele>209.22</ele>
        <time>2018-07-10T17:32:11Z</time>
      </trkpt>
      <trkpt lat="49.030191041529179" lon="7.740755975246429">
        <ele>209.22</ele>
        <time>2018-07-10T17:32:12Z</time>
      </trkpt>
      <trkpt lat="49.030180983245373" lon="7.741026962175965">
        <ele>208.74000000000001</ele>
        <time>2018-07-10T17:32:13Z</time>
      </trkpt>
      <trkpt lat="49.030141001567245" lon="7.741235001012683">
        <ele>208.74000000000001</ele>
        <time>2018-07-10T17:32:14Z</time>
      </trkpt>
      <trkpt lat="49.030091967433691" lon="7.741492995992303">
        <ele>208.25999999999999</ele>
        <time>2018-07-10T17:32:15Z</time>
      </trkpt>
      <trkpt lat="49.029750991612673" lon="7.743551004678011">
        <ele>206.81999999999999</ele>
        <time>2018-07-10T17:32:22Z</time>
      </trkpt>
      <trkpt lat="49.029707992449403" lon="7.743838001042604">
        <ele>206.81999999999999</ele>
        <time>2018-07-10T17:32:23Z</time>
      </trkpt>
      <trkpt lat="49.029707992449403" lon="7.744068000465632">
        <ele>206.81999999999999</ele>
        <time>2018-07-10T17:32:24Z</time>
      </trkpt>
      <trkpt lat="49.02974403463304" lon="7.744313003495336">
        <ele>206.81999999999999</ele>
        <time>2018-07-10T17:32:25Z</time>
      </trkpt>
      <trkpt lat="49.029802959412336" lon="7.744563035666943">
        <ele>207.30000000000001</ele>
        <time>2018-07-10T17:32:26Z</time>
      </trkpt>
      <trkpt lat="49.029868002980947" lon="7.744827987626195">
        <ele>207.78</ele>
        <time>2018-07-10T17:32:27Z</time>
      </trkpt>
      <trkpt lat="49.029965987429023" lon="7.745084976777434">
        <ele>207.78</ele>
        <time>2018-07-10T17:32:28Z</time>
      </trkpt>
      <trkpt lat="49.030880033969879" lon="7.747326968237758">
        <ele>208.74000000000001</ele>
        <time>2018-07-10T17:32:36Z</time>
      </trkpt>
      <trkpt lat="49.03161303140223" lon="7.748761028051376">
        <ele>209.22</ele>
        <time>2018-07-10T17:32:42Z</time>
      </trkpt>
      <trkpt lat="49.031847976148129" lon="7.749132011085749">
        <ele>209.22</ele>
        <time>2018-07-10T17:32:44Z</time>
      </trkpt>
      <trkpt lat="49.031961970031261" lon="7.749309958890081">
        <ele>209.22</ele>
        <time>2018-07-10T17:32:45Z</time>
      </trkpt>
      <trkpt lat="49.032009998336434" lon="7.749492013826966">
        <ele>209.22</ele>
        <time>2018-07-10T17:32:46Z</time>
      </trkpt>
      <trkpt lat="49.03206598944962" lon="7.749707009643316">
        <ele>208.74000000000001</ele>
        <time>2018-07-10T17:32:47Z</time>
      </trkpt>
      <trkpt lat="49.032097002491355" lon="7.749965004622936">
        <ele>208.74000000000001</ele>
        <time>2018-07-10T17:32:48Z</time>
      </trkpt>
      <trkpt lat="49.032161962240934" lon="7.750540003180504">
        <ele>206.81999999999999</ele>
        <time>2018-07-10T17:32:50Z</time>
      </trkpt>
      <trkpt lat="49.032363966107368" lon="7.752737989649177">
        <ele>199.61000000000001</ele>
        <time>2018-07-10T17:32:57Z</time>
      </trkpt>
      <trkpt lat="49.032339993864298" lon="7.753015011548996">
        <ele>198.65000000000001</ele>
        <time>2018-07-10T17:32:58Z</time>
      </trkpt>
      <trkpt lat="49.032291965559125" lon="7.753283986821771">
        <ele>197.69</ele>
        <time>2018-07-10T17:32:59Z</time>
      </trkpt>
      <trkpt lat="49.032241003587842" lon="7.753567965701222">
        <ele>196.72999999999999</ele>
        <time>2018-07-10T17:33:00Z</time>
      </trkpt>
      <trkpt lat="49.032187024131417" lon="7.753874994814396">
        <ele>195.77000000000001</ele>
        <time>2018-07-10T17:33:01Z</time>
      </trkpt>
      <trkpt lat="49.031712021678686" lon="7.756544966250658">
        <ele>189.52000000000001</ele>
        <time>2018-07-10T17:33:09Z</time>
      </trkpt>
      <trkpt lat="49.031545976176858" lon="7.757777022197843">
        <ele>187.11000000000001</ele>
        <time>2018-07-10T17:33:13Z</time>
      </trkpt>
      <trkpt lat="49.031493002548814" lon="7.76009101420641">
        <ele>182.31</ele>
        <time>2018-07-10T17:33:20Z</time>
      </trkpt>
      <trkpt lat="49.03129200451076" lon="7.761898990720511">
        <ele>177.02000000000001</ele>
        <time>2018-07-10T17:33:26Z</time>
      </trkpt>
      <trkpt lat="49.030593959614635" lon="7.763834036886692">
        <ele>174.13999999999999</ele>
        <time>2018-07-10T17:33:33Z</time>
      </trkpt>
      <trkpt lat="49.029774963855743" lon="7.765655005350709">
        <ele>171.72999999999999</ele>
        <time>2018-07-10T17:33:41Z</time>
      </trkpt>
      <trkpt lat="49.029526021331549" lon="7.766188010573387">
        <ele>172.69</ele>
        <time>2018-07-10T17:33:43Z</time>
      </trkpt>
      <trkpt lat="49.029408004134893" lon="7.766325976699591">
        <ele>173.66</ele>
        <time>2018-07-10T17:33:44Z</time>
      </trkpt>
      <trkpt lat="49.02918697334826" lon="7.76647299528122">
        <ele>174.62</ele>
        <time>2018-07-10T17:33:46Z</time>
      </trkpt>
      <trkpt lat="49.028183994814754" lon="7.767305988818407">
        <ele>177.02000000000001</ele>
        <time>2018-07-10T17:33:52Z</time>
      </trkpt>
      <trkpt lat="49.028016021475196" lon="7.767528025433421">
        <ele>177.02000000000001</ele>
        <time>2018-07-10T17:33:53Z</time>
      </trkpt>
      <trkpt lat="49.027843018993735" lon="7.767755007371306">
        <ele>177.5</ele>
        <time>2018-07-10T17:33:54Z</time>
      </trkpt>
      <trkpt lat="49.026869041845202" lon="7.769392998889089">
        <ele>176.53999999999999</ele>
        <time>2018-07-10T17:34:01Z</time>
      </trkpt>
      <trkpt lat="49.026739960536361" lon="7.769553009420633">
        <ele>176.53999999999999</ele>
        <time>2018-07-10T17:34:02Z</time>
      </trkpt>
      <trkpt lat="49.026394039392471" lon="7.769985012710095">
        <ele>177.97999999999999</ele>
        <time>2018-07-10T17:34:05Z</time>
      </trkpt>
      <trkpt lat="49.026288008317351" lon="7.770129013806582">
        <ele>178.46000000000001</ele>
        <time>2018-07-10T17:34:06Z</time>
      </trkpt>
      <trkpt lat="49.026104025542736" lon="7.770417015999556">
        <ele>179.90000000000001</ele>
        <time>2018-07-10T17:34:08Z</time>
      </trkpt>
      <trkpt lat="49.026018027216196" lon="7.770552970468998">
        <ele>180.38</ele>
        <time>2018-07-10T17:34:09Z</time>
      </trkpt>
      <trkpt lat="49.025934040546417" lon="7.770636035129428">
        <ele>180.87</ele>
        <time>2018-07-10T17:34:10Z</time>
      </trkpt>
      <trkpt lat="49.025824991986156" lon="7.770746005699039">
        <ele>181.34999999999999</ele>
        <time>2018-07-10T17:34:11Z</time>
      </trkpt>
      <trkpt lat="49.025704963132739" lon="7.770746005699039">
        <ele>182.31</ele>
        <time>2018-07-10T17:34:12Z</time>
      </trkpt>
      <trkpt lat="49.025566997006536" lon="7.770739970728755">
        <ele>182.78999999999999</ele>
        <time>2018-07-10T17:34:13Z</time>
      </trkpt>
      <trkpt lat="49.025424001738429" lon="7.770698983222246">
        <ele>182.31</ele>
        <time>2018-07-10T17:34:14Z</time>
      </trkpt>
      <trkpt lat="49.024170991033316" lon="7.770236972719431">
        <ele>178.46000000000001</ele>
        <time>2018-07-10T17:34:21Z</time>
      </trkpt>
      <trkpt lat="49.023850969970226" lon="7.770080985501409">
        <ele>177.5</ele>
        <time>2018-07-10T17:34:23Z</time>
      </trkpt>
      <trkpt lat="49.023725995793939" lon="7.77006003074348">
        <ele>177.5</ele>
        <time>2018-07-10T17:34:24Z</time>
      </trkpt>
      <trkpt lat="49.023588029667735" lon="7.7700399979949">
        <ele>177.5</ele>
        <time>2018-07-10T17:34:25Z</time>
      </trkpt>
      <trkpt lat="49.0234499797225" lon="7.77010596357286">
        <ele>177.5</ele>
        <time>2018-07-10T17:34:26Z</time>
      </trkpt>
      <trkpt lat="49.023298015818" lon="7.770178969949484">
        <ele>177.97999999999999</ele>
        <time>2018-07-10T17:34:27Z</time>
      </trkpt>
      <trkpt lat="49.022986963391304" lon="7.770386002957821">
        <ele>178.94</ele>
        <time>2018-07-10T17:34:29Z</time>
      </trkpt>
      <trkpt lat="49.022844973951578" lon="7.770527992397547">
        <ele>179.41999999999999</ele>
        <time>2018-07-10T17:34:30Z</time>
      </trkpt>
      <trkpt lat="49.02269896119833" lon="7.770743994042277">
        <ele>179.41999999999999</ele>
        <time>2018-07-10T17:34:31Z</time>
      </trkpt>
      <trkpt lat="49.022579016163945" lon="7.770969970151782">
        <ele>179.90000000000001</ele>
        <time>2018-07-10T17:34:32Z</time>
      </trkpt>
      <trkpt lat="49.022452030330896" lon="7.771208016201854">
        <ele>180.38</ele>
        <time>2018-07-10T17:34:33Z</time>
      </trkpt>
      <trkpt lat="49.021414015442133" lon="7.772823041304946">
        <ele>183.27000000000001</ele>
        <time>2018-07-10T17:34:40Z</time>
      </trkpt>
      <trkpt lat="49.020762993022799" lon="7.773687969893217">
        <ele>185.19</ele>
        <time>2018-07-10T17:34:44Z</time>
      </trkpt>
      <trkpt lat="49.020616980269551" lon="7.773932972922921">
        <ele>185.66999999999999</ele>
        <time>2018-07-10T17:34:45Z</time>
      </trkpt>
      <trkpt lat="49.020383963361382" lon="7.774453992024064">
        <ele>186.15000000000001</ele>
        <time>2018-07-10T17:34:47Z</time>
      </trkpt>
      <trkpt lat="49.020298970863223" lon="7.774781975895166">
        <ele>186.63</ele>
        <time>2018-07-10T17:34:48Z</time>
      </trkpt>
      <trkpt lat="49.020031001418829" lon="7.776067005470395">
        <ele>187.11000000000001</ele>
        <time>2018-07-10T17:34:52Z</time>
      </trkpt>
      <trkpt lat="49.019343014806509" lon="7.777848998084664">
        <ele>189.52000000000001</ele>
        <time>2018-07-10T17:34:59Z</time>
      </trkpt>
      <trkpt lat="49.019229020923376" lon="7.778062988072634">
        <ele>189.52000000000001</ele>
        <time>2018-07-10T17:35:00Z</time>
      </trkpt>
      <trkpt lat="49.01908996514976" lon="7.778253005817533">
        <ele>189.03999999999999</ele>
        <time>2018-07-10T17:35:01Z</time>
      </trkpt>
      <trkpt lat="49.018932972103357" lon="7.778409998863936">
        <ele>189.03999999999999</ele>
        <time>2018-07-10T17:35:02Z</time>
      </trkpt>
      <trkpt lat="49.018778996542096" lon="7.778562968596816">
        <ele>188.56</ele>
        <time>2018-07-10T17:35:03Z</time>
      </trkpt>
      <trkpt lat="49.018612029030919" lon="7.778696995228529">
        <ele>188.56</ele>
        <time>2018-07-10T17:35:04Z</time>
      </trkpt>
      <trkpt lat="49.01844497770071" lon="7.778780981898308">
        <ele>188.08000000000001</ele>
        <time>2018-07-10T17:35:05Z</time>
      </trkpt>
      <trkpt lat="49.018252026289701" lon="7.778818029910326">
        <ele>188.08000000000001</ele>
        <time>2018-07-10T17:35:06Z</time>
      </trkpt>
      <trkpt lat="49.018073994666338" lon="7.778824986889958">
        <ele>187.59</ele>
        <time>2018-07-10T17:35:07Z</time>
      </trkpt>
      <trkpt lat="49.017907027155161" lon="7.778831021860242">
        <ele>187.59</ele>
        <time>2018-07-10T17:35:08Z</time>
      </trkpt>
      <trkpt lat="49.017743999138474" lon="7.778832027688623">
        <ele>187.59</ele>
        <time>2018-07-10T17:35:09Z</time>
      </trkpt>
      <trkpt lat="49.017452979460359" lon="7.778816018253565">
        <ele>187.59</ele>
        <time>2018-07-10T17:35:11Z</time>
      </trkpt>
      <trkpt lat="49.017334040254354" lon="7.778852982446551">
        <ele>187.59</ele>
        <time>2018-07-10T17:35:12Z</time>
      </trkpt>
      <trkpt lat="49.01722096838057" lon="7.778929006308317">
        <ele>187.11000000000001</ele>
        <time>2018-07-10T17:35:13Z</time>
      </trkpt>
      <trkpt lat="49.017129018902779" lon="7.77906202711165">
        <ele>187.59</ele>
        <time>2018-07-10T17:35:14Z</time>
      </trkpt>
      <trkpt lat="49.017033968120813" lon="7.779217008501291">
        <ele>188.08000000000001</ele>
        <time>2018-07-10T17:35:15Z</time>
      </trkpt>
      <trkpt lat="49.01695903390646" lon="7.779421024024487">
        <ele>188.56</ele>
        <time>2018-07-10T17:35:16Z</time>
      </trkpt>
      <trkpt lat="49.016879992559552" lon="7.779660997912288">
        <ele>189.03999999999999</ele>
        <time>2018-07-10T17:35:17Z</time>
      </trkpt>
      <trkpt lat="49.016571035608649" lon="7.780839996412396">
        <ele>190</ele>
        <time>2018-07-10T17:35:22Z</time>
      </trkpt>
      <trkpt lat="49.016483025625348" lon="7.781065972521901">
        <ele>190</ele>
        <time>2018-07-10T17:35:23Z</time>
      </trkpt>
      <trkpt lat="49.016399960964918" lon="7.781281974166632">
        <ele>190</ele>
        <time>2018-07-10T17:35:24Z</time>
      </trkpt>
      <trkpt lat="49.016286972910166" lon="7.781452964991331">
        <ele>190</ele>
        <time>2018-07-10T17:35:25Z</time>
      </trkpt>
      <trkpt lat="49.016170967370272" lon="7.781608030200005">
        <ele>190</ele>
        <time>2018-07-10T17:35:26Z</time>
      </trkpt>
      <trkpt lat="49.016046999022365" lon="7.781760999932885">
        <ele>190</ele>
        <time>2018-07-10T17:35:27Z</time>
      </trkpt>
      <trkpt lat="49.0159070212394" lon="7.781829982995987">
        <ele>190</ele>
        <time>2018-07-10T17:35:28Z</time>
      </trkpt>
      <trkpt lat="49.015768971294165" lon="7.781899971887469">
        <ele>190</ele>
        <time>2018-07-10T17:35:29Z</time>
      </trkpt>
      <trkpt lat="49.015610972419381" lon="7.781886979937553">
        <ele>190</ele>
        <time>2018-07-10T17:35:30Z</time>
      </trkpt>
      <trkpt lat="49.015473006293178" lon="7.781839035451412">
        <ele>190</ele>
        <time>2018-07-10T17:35:31Z</time>
      </trkpt>
      <trkpt lat="49.015325987711549" lon="7.781765023246408">
        <ele>190.47999999999999</ele>
        <time>2018-07-10T17:35:32Z</time>
      </trkpt>
      <trkpt lat="49.015207970514894" lon="7.781633008271456">
        <ele>190.47999999999999</ele>
        <time>2018-07-10T17:35:33Z</time>
      </trkpt>
      <trkpt lat="49.015088025480509" lon="7.781497975811362">
        <ele>190.47999999999999</ele>
        <time>2018-07-10T17:35:34Z</time>
      </trkpt>
      <trkpt lat="49.014975037425756" lon="7.781333019956946">
        <ele>190.96000000000001</ele>
        <time>2018-07-10T17:35:35Z</time>
      </trkpt>
      <trkpt lat="49.014887027442455" lon="7.781136967241764">
        <ele>190.47999999999999</ele>
        <time>2018-07-10T17:35:36Z</time>
      </trkpt>
      <trkpt lat="49.014807986095548" lon="7.780940998345614">
        <ele>190.47999999999999</ele>
        <time>2018-07-10T17:35:37Z</time>
      </trkpt>
      <trkpt lat="49.014762975275517" lon="7.780743017792702">
        <ele>190.47999999999999</ele>
        <time>2018-07-10T17:35:38Z</time>
      </trkpt>
      <trkpt lat="49.014621991664171" lon="7.780066011473537">
        <ele>189.52000000000001</ele>
        <time>2018-07-10T17:35:42Z</time>
      </trkpt>
      <trkpt lat="49.014524007216096" lon="7.779625961557031">
        <ele>189.03999999999999</ele>
        <time>2018-07-10T17:35:45Z</time>
      </trkpt>
      <trkpt lat="49.014473967254162" lon="7.779500987380743">
        <ele>189.03999999999999</ele>
        <time>2018-07-10T17:35:46Z</time>
      </trkpt>
      <trkpt lat="49.014473967254162" lon="7.779500987380743">
        <ele>189.03999999999999</ele>
        <time>2018-07-10T17:35:47Z</time>
      </trkpt>
      <trkpt lat="49.014323009178042" lon="7.779371989890933">
        <ele>189.52000000000001</ele>
        <time>2018-07-10T17:35:48Z</time>
      </trkpt>
      <trkpt lat="49.014224018901587" lon="7.779371989890933">
        <ele>189.52000000000001</ele>
        <time>2018-07-10T17:35:49Z</time>
      </trkpt>
      <trkpt lat="49.014149000868201" lon="7.779372995719314">
        <ele>189.52000000000001</ele>
        <time>2018-07-10T17:35:50Z</time>
      </trkpt>
      <trkpt lat="49.014056967571378" lon="7.779425969347358">
        <ele>189.03999999999999</ele>
        <time>2018-07-10T17:35:51Z</time>
      </trkpt>
      <trkpt lat="49.013980021700263" lon="7.77949595823884">
        <ele>188.56</ele>
        <time>2018-07-10T17:35:52Z</time>
      </trkpt>
      <trkpt lat="49.013911038637161" lon="7.77962101623416">
        <ele>188.56</ele>
        <time>2018-07-10T17:35:53Z</time>
      </trkpt>
      <trkpt lat="49.013871978968382" lon="7.779769040644169">
        <ele>188.08000000000001</ele>
        <time>2018-07-10T17:35:54Z</time>
      </trkpt>
      <trkpt lat="49.013837026432157" lon="7.779956962913275">
        <ele>188.08000000000001</ele>
        <time>2018-07-10T17:35:55Z</time>
      </trkpt>
      <trkpt lat="49.013799978420138" lon="7.780153015628457">
        <ele>188.56</ele>
        <time>2018-07-10T17:35:56Z</time>
      </trkpt>
      <trkpt lat="49.013562016189098" lon="7.782520987093449">
        <ele>189.52000000000001</ele>
        <time>2018-07-10T17:36:07Z</time>
      </trkpt>
      <trkpt lat="49.013551035895944" lon="7.782741012051702">
        <ele>189.52000000000001</ele>
        <time>2018-07-10T17:36:08Z</time>
      </trkpt>
      <trkpt lat="49.013506025075912" lon="7.782966988161206">
        <ele>189.03999999999999</ele>
        <time>2018-07-10T17:36:09Z</time>
      </trkpt>
      <trkpt lat="49.013462020084262" lon="7.783185001462698">
        <ele>189.03999999999999</ele>
        <time>2018-07-10T17:36:10Z</time>
      </trkpt>
      <trkpt lat="49.013337967917323" lon="7.783612981438637">
        <ele>188.08000000000001</ele>
        <time>2018-07-10T17:36:12Z</time>
      </trkpt>
      <trkpt lat="49.013241995126009" lon="7.783796964213252">
        <ele>187.11000000000001</ele>
        <time>2018-07-10T17:36:13Z</time>
      </trkpt>
      <trkpt lat="49.013141999021173" lon="7.783991005271673">
        <ele>187.11000000000001</ele>
        <time>2018-07-10T17:36:14Z</time>
      </trkpt>
      <trkpt lat="49.012107001617551" lon="7.785391034558415">
        <ele>185.19</ele>
        <time>2018-07-10T17:36:22Z</time>
      </trkpt>
      <trkpt lat="49.011449022218585" lon="7.786386972293258">
        <ele>187.11000000000001</ele>
        <time>2018-07-10T17:36:30Z</time>
      </trkpt>
      <trkpt lat="49.010497005656362" lon="7.787493970245123">
        <ele>191.91999999999999</ele>
        <time>2018-07-10T17:36:42Z</time>
      </trkpt>
      <trkpt lat="49.010497005656362" lon="7.787493970245123">
        <ele>191.91999999999999</ele>
        <time>2018-07-10T17:36:43Z</time>
      </trkpt>
      <trkpt lat="49.010345041751862" lon="7.787736961618066">
        <ele>192.40000000000001</ele>
        <time>2018-07-10T17:36:44Z</time>
      </trkpt>
      <trkpt lat="49.010071037337184" lon="7.788258986547589">
        <ele>192.88</ele>
        <time>2018-07-10T17:36:48Z</time>
      </trkpt>
      <trkpt lat="49.009985039010644" lon="7.788365017622709">
        <ele>192.88</ele>
        <time>2018-07-10T17:36:49Z</time>
      </trkpt>
      <trkpt lat="49.009902980178595" lon="7.788465013727546">
        <ele>192.88</ele>
        <time>2018-07-10T17:36:50Z</time>
      </trkpt>
      <trkpt lat="49.009814970195293" lon="7.788521004840732">
        <ele>192.88</ele>
        <time>2018-07-10T17:36:51Z</time>
      </trkpt>
      <trkpt lat="49.009716985747218" lon="7.788564004004002">
        <ele>192.88</ele>
        <time>2018-07-10T17:36:52Z</time>
      </trkpt>
      <trkpt lat="49.009617995470762" lon="7.788609014824033">
        <ele>192.88</ele>
        <time>2018-07-10T17:36:53Z</time>
      </trkpt>
      <trkpt lat="49.009517999365926" lon="7.788653019815683">
        <ele>193.36000000000001</ele>
        <time>2018-07-10T17:36:54Z</time>
      </trkpt>
      <trkpt lat="49.008411001414061" lon="7.789002964273095">
        <ele>191.91999999999999</ele>
        <time>2018-07-10T17:37:04Z</time>
      </trkpt>
      <trkpt lat="49.007536014541984" lon="7.789277974516153">
        <ele>190.96000000000001</ele>
        <time>2018-07-10T17:37:13Z</time>
      </trkpt>
      <trkpt lat="49.006950035691261" lon="7.7894620411098">
        <ele>193.84</ele>
        <time>2018-07-10T17:37:19Z</time>
      </trkpt>
      <trkpt lat="49.006875017657876" lon="7.78948500752449">
        <ele>194.31999999999999</ele>
        <time>2018-07-10T17:37:20Z</time>
      </trkpt>
      <trkpt lat="49.006327008828521" lon="7.789660021662712">
        <ele>198.16999999999999</ele>
        <time>2018-07-10T17:37:29Z</time>
      </trkpt>
      <trkpt lat="49.005776988342404" lon="7.789836963638663">
        <ele>201.53</ele>
        <time>2018-07-10T17:37:37Z</time>
      </trkpt>
      <trkpt lat="49.0057029761374" lon="7.789862025529146">
        <ele>202.00999999999999</ele>
        <time>2018-07-10T17:37:38Z</time>
      </trkpt>
      <trkpt lat="49.005627036094666" lon="7.789885997772217">
        <ele>202.97999999999999</ele>
        <time>2018-07-10T17:37:39Z</time>
      </trkpt>
      <trkpt lat="49.004954975098372" lon="7.79008699581027">
        <ele>202.00999999999999</ele>
        <time>2018-07-10T17:37:47Z</time>
      </trkpt>
      <trkpt lat="49.004792030900717" lon="7.790121026337147">
        <ele>200.56999999999999</ele>
        <time>2018-07-10T17:37:49Z</time>
      </trkpt>
      <trkpt lat="49.004474021494389" lon="7.79015296138823">
        <ele>196.25</ele>
        <time>2018-07-10T17:37:53Z</time>
      </trkpt>
      <trkpt lat="49.004381988197565" lon="7.790141981095076">
        <ele>194.80000000000001</ele>
        <time>2018-07-10T17:37:54Z</time>
      </trkpt>
      <trkpt lat="49.00428500957787" lon="7.790118008852005">
        <ele>192.88</ele>
        <time>2018-07-10T17:37:55Z</time>
      </trkpt>
      <trkpt lat="49.004190964624286" lon="7.790094036608934">
        <ele>191.44</ele>
        <time>2018-07-10T17:37:56Z</time>
      </trkpt>
      <trkpt lat="49.004099015146494" lon="7.790070986375213">
        <ele>190</ele>
        <time>2018-07-10T17:37:57Z</time>
      </trkpt>
      <trkpt lat="49.003803972154856" lon="7.789997979998589">
        <ele>185.66999999999999</ele>
        <time>2018-07-10T17:38:01Z</time>
      </trkpt>
      <trkpt lat="49.003745969384909" lon="7.789982976391912">
        <ele>185.19</ele>
        <time>2018-07-10T17:38:02Z</time>
      </trkpt>
      <trkpt lat="49.003701964393258" lon="7.789971996098757">
        <ele>184.22999999999999</ele>
        <time>2018-07-10T17:38:03Z</time>
      </trkpt>
      <trkpt lat="49.003647984936833" lon="7.789873005822301">
        <ele>183.75</ele>
        <time>2018-07-10T17:38:04Z</time>
      </trkpt>
      <trkpt lat="49.003608003258705" lon="7.789905024692416">
        <ele>182.78999999999999</ele>
        <time>2018-07-10T17:38:05Z</time>
      </trkpt>
      <trkpt lat="49.003594005480409" lon="7.790079033002257">
        <ele>182.31</ele>
        <time>2018-07-10T17:38:06Z</time>
      </trkpt>
      <trkpt lat="49.003588976338506" lon="7.790098981931806">
        <ele>182.31</ele>
        <time>2018-07-10T17:38:07Z</time>
      </trkpt>
      <trkpt lat="49.003385966643691" lon="7.790822004899383">
        <ele>181.34999999999999</ele>
        <time>2018-07-10T17:38:13Z</time>
      </trkpt>
      <trkpt lat="49.003241965547204" lon="7.791142025962472">
        <ele>180.87</ele>
        <time>2018-07-10T17:38:16Z</time>
      </trkpt>
      <trkpt lat="49.003194021061063" lon="7.791248979046941">
        <ele>180.87</ele>
        <time>2018-07-10T17:38:17Z</time>
      </trkpt>
      <trkpt lat="49.002842986956239" lon="7.792204013094306">
        <ele>181.83000000000001</ele>
        <time>2018-07-10T17:38:25Z</time>
      </trkpt>
      <trkpt lat="49.002807028591633" lon="7.792463013902307">
        <ele>182.31</ele>
        <time>2018-07-10T17:38:27Z</time>
      </trkpt>
      <trkpt lat="49.002756988629699" lon="7.792826034128666">
        <ele>183.27000000000001</ele>
        <time>2018-07-10T17:38:30Z</time>
      </trkpt>
      <trkpt lat="49.00273603387177" lon="7.792975986376405">
        <ele>183.27000000000001</ele>
        <time>2018-07-10T17:38:31Z</time>
      </trkpt>
      <trkpt lat="49.002698985859752" lon="7.793022003024817">
        <ele>183.27000000000001</ele>
        <time>2018-07-10T17:38:32Z</time>
      </trkpt>
      <trkpt lat="49.002620028331876" lon="7.793089980259538">
        <ele>183.27000000000001</ele>
        <time>2018-07-10T17:38:33Z</time>
      </trkpt>
      <trkpt lat="49.002532018348575" lon="7.793109007179737">
        <ele>182.78999999999999</ele>
        <time>2018-07-10T17:38:34Z</time>
      </trkpt>
      <trkpt lat="49.002438979223371" lon="7.793128034099937">
        <ele>183.27000000000001</ele>
        <time>2018-07-10T17:38:35Z</time>
      </trkpt>
      <trkpt lat="49.001764990389347" lon="7.793252002447844">
        <ele>183.75</ele>
        <time>2018-07-10T17:38:42Z</time>
      </trkpt>
      <trkpt lat="49.001695001497865" lon="7.793298019096255">
        <ele>184.22999999999999</ele>
        <time>2018-07-10T17:38:43Z</time>
      </trkpt>
      <trkpt lat="49.001636998727918" lon="7.793360967189074">
        <ele>184.22999999999999</ele>
        <time>2018-07-10T17:38:44Z</time>
      </trkpt>
      <trkpt lat="49.001593999564648" lon="7.793603958562017">
        <ele>185.19</ele>
        <time>2018-07-10T17:38:46Z</time>
      </trkpt>
      <trkpt lat="49.00153499096632" lon="7.795038018375635">
        <ele>191.44</ele>
        <time>2018-07-10T17:38:55Z</time>
      </trkpt>
      <trkpt lat="49.001549994572997" lon="7.795344041660428">
        <ele>192.88</ele>
        <time>2018-07-10T17:38:57Z</time>
      </trkpt>
      <trkpt lat="49.001558963209391" lon="7.795490976423025">
        <ele>193.36000000000001</ele>
        <time>2018-07-10T17:38:58Z</time>
      </trkpt>
      <trkpt lat="49.001568015664816" lon="7.795645035803318">
        <ele>193.84</ele>
        <time>2018-07-10T17:38:59Z</time>
      </trkpt>
      <trkpt lat="49.001576984301209" lon="7.795796999707818">
        <ele>194.80000000000001</ele>
        <time>2018-07-10T17:39:00Z</time>
      </trkpt>
      <trkpt lat="49.001586036756635" lon="7.79595198109746">
        <ele>195.28</ele>
        <time>2018-07-10T17:39:01Z</time>
      </trkpt>
      <trkpt lat="49.001788040623069" lon="7.797573963180184">
        <ele>200.56999999999999</ele>
        <time>2018-07-10T17:39:10Z</time>
      </trkpt>
      <trkpt lat="49.002109989523888" lon="7.799765998497605">
        <ele>210.66999999999999</ele>
        <time>2018-07-10T17:39:18Z</time>
      </trkpt>
      <trkpt lat="49.002605024725199" lon="7.802842995151877">
        <ele>224.12</ele>
        <time>2018-07-10T17:39:27Z</time>
      </trkpt>
      <trkpt lat="49.002821026369929" lon="7.803873969241977">
        <ele>229.41</ele>
        <time>2018-07-10T17:39:30Z</time>
      </trkpt>
      <trkpt lat="49.00293099693954" lon="7.804190972819924">
        <ele>230.84999999999999</ele>
        <time>2018-07-10T17:39:31Z</time>
      </trkpt>
      <trkpt lat="49.004102032631636" lon="7.806650977581739">
        <ele>245.27000000000001</ele>
        <time>2018-07-10T17:39:39Z</time>
      </trkpt>
      <trkpt lat="49.005276001989841" lon="7.808813005685806">
        <ele>257.29000000000002</ele>
        <time>2018-07-10T17:39:47Z</time>
      </trkpt>
      <trkpt lat="49.005450010299683" lon="7.808952983468771">
        <ele>258.73000000000002</ele>
        <time>2018-07-10T17:39:48Z</time>
      </trkpt>
      <trkpt lat="49.005627036094666" lon="7.80907703563571">
        <ele>260.17000000000002</ele>
        <time>2018-07-10T17:39:49Z</time>
      </trkpt>
      <trkpt lat="49.005803978070617" lon="7.809203015640378">
        <ele>261.62</ele>
        <time>2018-07-10T17:39:50Z</time>
      </trkpt>
      <trkpt lat="49.005979998037219" lon="7.809325978159905">
        <ele>263.06</ele>
        <time>2018-07-10T17:39:51Z</time>
      </trkpt>
      <trkpt lat="49.00613103993237" lon="7.80948699451983">
        <ele>264.98000000000002</ele>
        <time>2018-07-10T17:39:52Z</time>
      </trkpt>
      <trkpt lat="49.006279986351728" lon="7.809681035578251">
        <ele>266.42000000000002</ele>
        <time>2018-07-10T17:39:53Z</time>
      </trkpt>
      <trkpt lat="49.00643102824688" lon="7.809877004474402">
        <ele>267.86000000000001</ele>
        <time>2018-07-10T17:39:54Z</time>
      </trkpt>
      <trkpt lat="49.006549967452884" lon="7.810121001675725">
        <ele>269.31</ele>
        <time>2018-07-10T17:39:55Z</time>
      </trkpt>
      <trkpt lat="49.006663039326668" lon="7.810391988605261">
        <ele>270.26999999999998</ele>
        <time>2018-07-10T17:39:56Z</time>
      </trkpt>
      <trkpt lat="49.007465019822121" lon="7.812826009467244">
        <ele>282.27999999999997</ele>
        <time>2018-07-10T17:40:04Z</time>
      </trkpt>
      <trkpt lat="49.007670963183045" lon="7.815348962321878">
        <ele>291.42000000000002</ele>
        <time>2018-07-10T17:40:11Z</time>
      </trkpt>
      <trkpt lat="49.007551018148661" lon="7.816252028569579">
        <ele>295.74000000000001</ele>
        <time>2018-07-10T17:40:14Z</time>
      </trkpt>
      <trkpt lat="49.007484968751669" lon="7.816496025770903">
        <ele>297.18000000000001</ele>
        <time>2018-07-10T17:40:15Z</time>
      </trkpt>
      <trkpt lat="49.007407017052174" lon="7.81672895886004">
        <ele>298.14999999999998</ele>
        <time>2018-07-10T17:40:16Z</time>
      </trkpt>
      <trkpt lat="49.007327975705266" lon="7.816965999081731">
        <ele>299.11000000000001</ele>
        <time>2018-07-10T17:40:17Z</time>
      </trkpt>
      <trkpt lat="49.007213981822133" lon="7.817164985463023">
        <ele>300.06999999999999</ele>
        <time>2018-07-10T17:40:18Z</time>
      </trkpt>
      <trkpt lat="49.007082972675562" lon="7.817352991551161">
        <ele>301.02999999999997</ele>
        <time>2018-07-10T17:40:19Z</time>
      </trkpt>
      <trkpt lat="49.006937965750694" lon="7.817521970719099">
        <ele>301.99000000000001</ele>
        <time>2018-07-10T17:40:20Z</time>
      </trkpt>
      <trkpt lat="49.00679798796773" lon="7.817686004564166">
        <ele>302.94999999999999</ele>
        <time>2018-07-10T17:40:21Z</time>
      </trkpt>
      <trkpt lat="49.006663961336017" lon="7.81784400343895">
        <ele>303.43000000000001</ele>
        <time>2018-07-10T17:40:22Z</time>
      </trkpt>
      <trkpt lat="49.0065629594028" lon="7.818046007305384">
        <ele>303.91000000000003</ele>
        <time>2018-07-10T17:40:23Z</time>
      </trkpt>
      <trkpt lat="49.006462963297963" lon="7.818244993686676">
        <ele>304.38999999999999</ele>
        <time>2018-07-10T17:40:24Z</time>
      </trkpt>
      <trkpt lat="49.006428010761738" lon="7.818492008373141">
        <ele>304.38999999999999</ele>
        <time>2018-07-10T17:40:25Z</time>
      </trkpt>
      <trkpt lat="49.006404960528016" lon="7.81872502528131">
        <ele>304.88</ele>
        <time>2018-07-10T17:40:26Z</time>
      </trkpt>
      <trkpt lat="49.006449971348047" lon="7.819001963362098">
        <ele>304.88</ele>
        <time>2018-07-10T17:40:27Z</time>
      </trkpt>
      <trkpt lat="49.006494982168078" lon="7.819282002747059">
        <ele>305.36000000000001</ele>
        <time>2018-07-10T17:40:28Z</time>
      </trkpt>
      <trkpt lat="49.006573017686605" lon="7.819551983848214">
        <ele>305.83999999999997</ele>
        <time>2018-07-10T17:40:29Z</time>
      </trkpt>
      <trkpt lat="49.006673013791442" lon="7.819821964949369">
        <ele>305.83999999999997</ele>
        <time>2018-07-10T17:40:30Z</time>
      </trkpt>
      <trkpt lat="49.006792958825827" lon="7.820092029869556">
        <ele>306.31999999999999</ele>
        <time>2018-07-10T17:40:31Z</time>
      </trkpt>
      <trkpt lat="49.00804596953094" lon="7.822152972221375">
        <ele>309.19999999999999</ele>
        <time>2018-07-10T17:40:39Z</time>
      </trkpt>
      <trkpt lat="49.008628008887172" lon="7.822797959670425">
        <ele>311.12</ele>
        <time>2018-07-10T17:40:43Z</time>
      </trkpt>
      <trkpt lat="49.008782990276814" lon="7.822852022945881">
        <ele>311.60000000000002</ele>
        <time>2018-07-10T17:40:44Z</time>
      </trkpt>
      <trkpt lat="49.008950963616371" lon="7.822885969653726">
        <ele>312.08999999999997</ele>
        <time>2018-07-10T17:40:45Z</time>
      </trkpt>
      <trkpt lat="49.009131006896496" lon="7.822860991582274">
        <ele>312.56999999999999</ele>
        <time>2018-07-10T17:40:46Z</time>
      </trkpt>
      <trkpt lat="49.009131006896496" lon="7.822860991582274">
        <ele>313.05000000000001</ele>
        <time>2018-07-10T17:40:47Z</time>
      </trkpt>
      <trkpt lat="49.009511964395642" lon="7.82280801795423">
        <ele>313.52999999999997</ele>
        <time>2018-07-10T17:40:48Z</time>
      </trkpt>
      <trkpt lat="49.009878002107143" lon="7.822815980762243">
        <ele>314.49000000000001</ele>
        <time>2018-07-10T17:40:50Z</time>
      </trkpt>
      <trkpt lat="49.010281004011631" lon="7.822901979088783">
        <ele>314.97000000000003</ele>
        <time>2018-07-10T17:40:52Z</time>
      </trkpt>
      <trkpt lat="49.010500023141503" lon="7.822972973808646">
        <ele>314.97000000000003</ele>
        <time>2018-07-10T17:40:53Z</time>
      </trkpt>
      <trkpt lat="49.010727005079389" lon="7.82308797352016">
        <ele>315.44999999999999</ele>
        <time>2018-07-10T17:40:54Z</time>
      </trkpt>
      <trkpt lat="49.010954992845654" lon="7.823203979060054">
        <ele>316.41000000000003</ele>
        <time>2018-07-10T17:40:55Z</time>
      </trkpt>
      <trkpt lat="49.011175017803907" lon="7.823315961286426">
        <ele>316.88999999999999</ele>
        <time>2018-07-10T17:40:56Z</time>
      </trkpt>
      <trkpt lat="49.011393031105399" lon="7.823427021503449">
        <ele>317.37</ele>
        <time>2018-07-10T17:40:57Z</time>
      </trkpt>
      <trkpt lat="49.011605009436607" lon="7.823555013164878">
        <ele>318.32999999999998</ele>
        <time>2018-07-10T17:40:58Z</time>
      </trkpt>
      <trkpt lat="49.01180500164628" lon="7.823736984282732">
        <ele>319.30000000000001</ele>
        <time>2018-07-10T17:40:59Z</time>
      </trkpt>
      <trkpt lat="49.012329038232565" lon="7.824351964518428">
        <ele>322.66000000000003</ele>
        <time>2018-07-10T17:41:02Z</time>
      </trkpt>
      <trkpt lat="49.012477984651923" lon="7.824586993083358">
        <ele>324.10000000000002</ele>
        <time>2018-07-10T17:41:03Z</time>
      </trkpt>
      <trkpt lat="49.012613017112017" lon="7.824869966134429">
        <ele>326.01999999999998</ele>
        <time>2018-07-10T17:41:04Z</time>
      </trkpt>
      <trkpt lat="49.012738997116685" lon="7.825184036046267">
        <ele>327.47000000000003</ele>
        <time>2018-07-10T17:41:05Z</time>
      </trkpt>
      <trkpt lat="49.01285701431334" lon="7.825517971068621">
        <ele>329.38999999999999</ele>
        <time>2018-07-10T17:41:06Z</time>
      </trkpt>
      <trkpt lat="49.013273008167744" lon="7.826695963740349">
        <ele>336.60000000000002</ele>
        <time>2018-07-10T17:41:10Z</time>
      </trkpt>
      <trkpt lat="49.013332016766071" lon="7.826953958719969">
        <ele>338.04000000000002</ele>
        <time>2018-07-10T17:41:11Z</time>
      </trkpt>
      <trkpt lat="49.013367975130677" lon="7.827240033075213">
        <ele>339.48000000000002</ele>
        <time>2018-07-10T17:41:12Z</time>
      </trkpt>
      <trkpt lat="49.013403011485934" lon="7.827548990026116">
        <ele>341.41000000000003</ele>
        <time>2018-07-10T17:41:13Z</time>
      </trkpt>
      <trkpt lat="49.013418015092611" lon="7.827876973897219">
        <ele>342.85000000000002</ele>
        <time>2018-07-10T17:41:14Z</time>
      </trkpt>
      <trkpt lat="49.013551035895944" lon="7.830612994730473">
        <ele>349.57999999999998</ele>
        <time>2018-07-10T17:41:22Z</time>
      </trkpt>
      <trkpt lat="49.013623036444187" lon="7.830941984429956">
        <ele>349.10000000000002</ele>
        <time>2018-07-10T17:41:23Z</time>
      </trkpt>
      <trkpt lat="49.01388899423182" lon="7.832158030942082">
        <ele>347.17000000000002</ele>
        <time>2018-07-10T17:41:27Z</time>
      </trkpt>
      <trkpt lat="49.014006005600095" lon="7.8324109967798">
        <ele>346.69</ele>
        <time>2018-07-10T17:41:28Z</time>
      </trkpt>
      <trkpt lat="49.014515038579702" lon="7.833308028057218">
        <ele>342.37</ele>
        <time>2018-07-10T17:41:32Z</time>
      </trkpt>
      <trkpt lat="49.014628026634455" lon="7.833419004455209">
        <ele>341.88999999999999</ele>
        <time>2018-07-10T17:41:33Z</time>
      </trkpt>
      <trkpt lat="49.014753000810742" lon="7.833487987518311">
        <ele>340.92000000000002</ele>
        <time>2018-07-10T17:41:34Z</time>
      </trkpt>
      <trkpt lat="49.014889961108565" lon="7.833501985296607">
        <ele>339.95999999999998</ele>
        <time>2018-07-10T17:41:35Z</time>
      </trkpt>
      <trkpt lat="49.015032034367323" lon="7.833516988903284">
        <ele>339</ele>
        <time>2018-07-10T17:41:36Z</time>
      </trkpt>
      <trkpt lat="49.015160026028752" lon="7.833530986681581">
        <ele>337.07999999999998</ele>
        <time>2018-07-10T17:41:37Z</time>
      </trkpt>
      <trkpt lat="49.015277959406376" lon="7.833628971129656">
        <ele>336.12</ele>
        <time>2018-07-10T17:41:38Z</time>
      </trkpt>
      <trkpt lat="49.015363035723567" lon="7.833778001368046">
        <ele>335.16000000000003</ele>
        <time>2018-07-10T17:41:39Z</time>
      </trkpt>
      <trkpt lat="49.01545699685812" lon="7.833954021334648">
        <ele>334.19999999999999</ele>
        <time>2018-07-10T17:41:40Z</time>
      </trkpt>
      <trkpt lat="49.015539977699518" lon="7.834158958867192">
        <ele>333.70999999999998</ele>
        <time>2018-07-10T17:41:41Z</time>
      </trkpt>
      <trkpt lat="49.015715997666121" lon="7.834599008783698">
        <ele>332.75</ele>
        <time>2018-07-10T17:41:43Z</time>
      </trkpt>
      <trkpt lat="49.015766037628055" lon="7.834845017641783">
        <ele>332.26999999999998</ele>
        <time>2018-07-10T17:41:44Z</time>
      </trkpt>
      <trkpt lat="49.015793027356267" lon="7.835102006793022">
        <ele>332.26999999999998</ele>
        <time>2018-07-10T17:41:45Z</time>
      </trkpt>
      <trkpt lat="49.015794033184648" lon="7.835367964580655">
        <ele>332.26999999999998</ele>
        <time>2018-07-10T17:41:46Z</time>
      </trkpt>
      <trkpt lat="49.015760002657771" lon="7.835651021450758">
        <ele>332.26999999999998</ele>
        <time>2018-07-10T17:41:47Z</time>
      </trkpt>
      <trkpt lat="49.015643997117877" lon="7.836759025231004">
        <ele>331.31</ele>
        <time>2018-07-10T17:41:51Z</time>
      </trkpt>
      <trkpt lat="49.015661012381315" lon="7.83703101798892">
        <ele>330.82999999999998</ele>
        <time>2018-07-10T17:41:52Z</time>
      </trkpt>
      <trkpt lat="49.015725972130895" lon="7.837277026847005">
        <ele>330.35000000000002</ele>
        <time>2018-07-10T17:41:53Z</time>
      </trkpt>
      <trkpt lat="49.015792021527886" lon="7.837529992684722">
        <ele>329.38999999999999</ele>
        <time>2018-07-10T17:41:54Z</time>
      </trkpt>
      <trkpt lat="49.015856981277466" lon="7.837774995714426">
        <ele>328.43000000000001</ele>
        <time>2018-07-10T17:41:55Z</time>
      </trkpt>
      <trkpt lat="49.015916995704174" lon="7.838001977652311">
        <ele>327.47000000000003</ele>
        <time>2018-07-10T17:41:56Z</time>
      </trkpt>
      <trkpt lat="49.01595102623105" lon="7.838220996782184">
        <ele>326.5</ele>
        <time>2018-07-10T17:41:57Z</time>
      </trkpt>
      <trkpt lat="49.015941973775625" lon="7.838447978720069">
        <ele>326.01999999999998</ele>
        <time>2018-07-10T17:41:58Z</time>
      </trkpt>
      <trkpt lat="49.015931999310851" lon="7.838689964264631">
        <ele>325.06</ele>
        <time>2018-07-10T17:41:59Z</time>
      </trkpt>
      <trkpt lat="49.015902997925878" lon="7.838945025578141">
        <ele>324.57999999999998</ele>
        <time>2018-07-10T17:42:00Z</time>
      </trkpt>
      <trkpt lat="49.015875002369285" lon="7.839202014729381">
        <ele>323.62</ele>
        <time>2018-07-10T17:42:01Z</time>
      </trkpt>
      <trkpt lat="49.015896962955594" lon="7.839478030800819">
        <ele>323.13999999999999</ele>
        <time>2018-07-10T17:42:02Z</time>
      </trkpt>
      <trkpt lat="49.015955971553922" lon="7.839753041043878">
        <ele>323.13999999999999</ele>
        <time>2018-07-10T17:42:03Z</time>
      </trkpt>
      <trkpt lat="49.016528958454728" lon="7.841940969228745">
        <ele>327.94999999999999</ele>
        <time>2018-07-10T17:42:10Z</time>
      </trkpt>
      <trkpt lat="49.017106974497437" lon="7.844396028667688">
        <ele>335.63999999999999</ele>
        <time>2018-07-10T17:42:18Z</time>
      </trkpt>
      <trkpt lat="49.017178975045681" lon="7.845018971711397">
        <ele>337.56</ele>
        <time>2018-07-10T17:42:20Z</time>
      </trkpt>
      <trkpt lat="49.017242006957531" lon="7.846144996583462">
        <ele>340.44</ele>
        <time>2018-07-10T17:42:25Z</time>
      </trkpt>
      <trkpt lat="49.017203031107783" lon="7.846477003768086">
        <ele>341.41000000000003</ele>
        <time>2018-07-10T17:42:27Z</time>
      </trkpt>
      <trkpt lat="49.017156008630991" lon="7.846770035102963">
        <ele>341.88999999999999</ele>
        <time>2018-07-10T17:42:29Z</time>
      </trkpt>
      <trkpt lat="49.017013013362885" lon="7.847421979531646">
        <ele>343.81</ele>
        <time>2018-07-10T17:42:34Z</time>
      </trkpt>
      <trkpt lat="49.01700597256422" lon="7.847555000334978">
        <ele>344.29000000000002</ele>
        <time>2018-07-10T17:42:35Z</time>
      </trkpt>
      <trkpt lat="49.01700597256422" lon="7.847705036401749">
        <ele>344.29000000000002</ele>
        <time>2018-07-10T17:42:36Z</time>
      </trkpt>
      <trkpt lat="49.017031034454703" lon="7.847848031669855">
        <ele>343.81</ele>
        <time>2018-07-10T17:42:37Z</time>
      </trkpt>
      <trkpt lat="49.017066992819309" lon="7.847979962825775">
        <ele>343.81</ele>
        <time>2018-07-10T17:42:38Z</time>
      </trkpt>
      <trkpt lat="49.017292968928814" lon="7.84878596663475">
        <ele>343.32999999999998</ele>
        <time>2018-07-10T17:42:45Z</time>
      </trkpt>
      <trkpt lat="49.017380978912115" lon="7.848991993814707">
        <ele>343.81</ele>
        <time>2018-07-10T17:42:47Z</time>
      </trkpt>
      <trkpt lat="49.017423978075385" lon="7.849090984091163">
        <ele>343.81</ele>
        <time>2018-07-10T17:42:48Z</time>
      </trkpt>
      <trkpt lat="49.017466977238655" lon="7.84919198602438">
        <ele>344.29000000000002</ele>
        <time>2018-07-10T17:42:49Z</time>
      </trkpt>
      <trkpt lat="49.017995037138462" lon="7.850314993411303">
        <ele>349.57999999999998</ele>
        <time>2018-07-10T17:42:59Z</time>
      </trkpt>
      <trkpt lat="49.018321009352803" lon="7.851014966145158">
        <ele>353.89999999999998</ele>
        <time>2018-07-10T17:43:04Z</time>
      </trkpt>
      <trkpt lat="49.018799029290676" lon="7.852466963231564">
        <ele>360.14999999999998</ele>
        <time>2018-07-10T17:43:14Z</time>
      </trkpt>
      <trkpt lat="49.018925009295344" lon="7.852880023419857">
        <ele>360.63</ele>
        <time>2018-07-10T17:43:17Z</time>
      </trkpt>
      <trkpt lat="49.019021987915039" lon="7.853197026997805">
        <ele>359.19</ele>
        <time>2018-07-10T17:43:19Z</time>
      </trkpt>
      <trkpt lat="49.019073033705354" lon="7.853365000337362">
        <ele>358.70999999999998</ele>
        <time>2018-07-10T17:43:20Z</time>
      </trkpt>
      <trkpt lat="49.019580977037549" lon="7.855060994625092">
        <ele>354.38</ele>
        <time>2018-07-10T17:43:29Z</time>
      </trkpt>
      <trkpt lat="49.019910972565413" lon="7.85609096288681">
        <ele>352.45999999999998</ele>
        <time>2018-07-10T17:43:34Z</time>
      </trkpt>
      <trkpt lat="49.019941985607147" lon="7.856277041137219">
        <ele>351.5</ele>
        <time>2018-07-10T17:43:35Z</time>
      </trkpt>
      <trkpt lat="49.019912984222174" lon="7.856492958962917">
        <ele>351.01999999999998</ele>
        <time>2018-07-10T17:43:36Z</time>
      </trkpt>
      <trkpt lat="49.019846012815833" lon="7.856657998636365">
        <ele>350.54000000000002</ele>
        <time>2018-07-10T17:43:37Z</time>
      </trkpt>
      <trkpt lat="49.019764959812164" lon="7.856805017217994">
        <ele>349.57999999999998</ele>
        <time>2018-07-10T17:43:38Z</time>
      </trkpt>
      <trkpt lat="49.019675021991134" lon="7.85696997307241">
        <ele>349.10000000000002</ele>
        <time>2018-07-10T17:43:39Z</time>
      </trkpt>
      <trkpt lat="49.019577037543058" lon="7.857150016352534">
        <ele>348.13</ele>
        <time>2018-07-10T17:43:40Z</time>
      </trkpt>
      <trkpt lat="49.018843034282327" lon="7.858062973245978">
        <ele>342.85000000000002</ele>
        <time>2018-07-10T17:43:46Z</time>
      </trkpt>
      <trkpt lat="49.018761981278658" lon="7.858218038454652">
        <ele>341.88999999999999</ele>
        <time>2018-07-10T17:43:47Z</time>
      </trkpt>
      <trkpt lat="49.018700961023569" lon="7.858378970995545">
        <ele>340.92000000000002</ele>
        <time>2018-07-10T17:43:48Z</time>
      </trkpt>
      <trkpt lat="49.018700961023569" lon="7.858587009832263">
        <ele>339.95999999999998</ele>
        <time>2018-07-10T17:43:49Z</time>
      </trkpt>
      <trkpt lat="49.018734991550446" lon="7.858760012313724">
        <ele>339</ele>
        <time>2018-07-10T17:43:50Z</time>
      </trkpt>
      <trkpt lat="49.01880799792707" lon="7.858933014795184">
        <ele>338.04000000000002</ele>
        <time>2018-07-10T17:43:51Z</time>
      </trkpt>
      <trkpt lat="49.018887961283326" lon="7.859105011448264">
        <ele>337.56</ele>
        <time>2018-07-10T17:43:52Z</time>
      </trkpt>
      <trkpt lat="49.019013019278646" lon="7.859252030029893">
        <ele>337.07999999999998</ele>
        <time>2018-07-10T17:43:53Z</time>
      </trkpt>
      <trkpt lat="49.019146040081978" lon="7.859408017247915">
        <ele>337.07999999999998</ele>
        <time>2018-07-10T17:43:54Z</time>
      </trkpt>
      <trkpt lat="49.020194029435515" lon="7.860832018777728">
        <ele>338.04000000000002</ele>
        <time>2018-07-10T17:44:01Z</time>
      </trkpt>
      <trkpt lat="49.021371016278863" lon="7.863234020769596">
        <ele>345.25</ele>
        <time>2018-07-10T17:44:10Z</time>
      </trkpt>
      <trkpt lat="49.021449973806739" lon="7.863490004092455">
        <ele>345.73000000000002</ele>
        <time>2018-07-10T17:44:11Z</time>
      </trkpt>
      <trkpt lat="49.021481992676854" lon="7.863778006285429">
        <ele>346.20999999999998</ele>
        <time>2018-07-10T17:44:12Z</time>
      </trkpt>
      <trkpt lat="49.021506970748305" lon="7.864292990416288">
        <ele>347.17000000000002</ele>
        <time>2018-07-10T17:44:14Z</time>
      </trkpt>
      <trkpt lat="49.02147201821208" lon="7.864520978182554">
        <ele>347.17000000000002</ele>
        <time>2018-07-10T17:44:15Z</time>
      </trkpt>
      <trkpt lat="49.021416027098894" lon="7.864759024232626">
        <ele>347.17000000000002</ele>
        <time>2018-07-10T17:44:16Z</time>
      </trkpt>
      <trkpt lat="49.021319970488548" lon="7.864974020048976">
        <ele>347.64999999999998</ele>
        <time>2018-07-10T17:44:17Z</time>
      </trkpt>
      <trkpt lat="49.021220980212092" lon="7.865199996158481">
        <ele>347.64999999999998</ele>
        <time>2018-07-10T17:44:18Z</time>
      </trkpt>
      <trkpt lat="49.020363008603454" lon="7.867141999304295">
        <ele>352.45999999999998</ele>
        <time>2018-07-10T17:44:26Z</time>
      </trkpt>
      <trkpt lat="49.020277010276914" lon="7.867335034534335">
        <ele>353.42000000000002</ele>
        <time>2018-07-10T17:44:27Z</time>
      </trkpt>
      <trkpt lat="49.020214984193444" lon="7.867525974288583">
        <ele>354.38</ele>
        <time>2018-07-10T17:44:28Z</time>
      </trkpt>
      <trkpt lat="49.020186988636851" lon="7.867739964276552">
        <ele>354.86000000000001</ele>
        <time>2018-07-10T17:44:29Z</time>
      </trkpt>
      <trkpt lat="49.02016100473702" lon="7.867954038083553">
        <ele>355.82999999999998</ele>
        <time>2018-07-10T17:44:30Z</time>
      </trkpt>
      <trkpt lat="49.020202998071909" lon="7.868164004758">
        <ele>356.79000000000002</ele>
        <time>2018-07-10T17:44:31Z</time>
      </trkpt>
      <trkpt lat="49.020293019711971" lon="7.868304988369346">
        <ele>357.75</ele>
        <time>2018-07-10T17:44:32Z</time>
      </trkpt>
      <trkpt lat="49.020409025251865" lon="7.868433985859156">
        <ele>358.23000000000002</ele>
        <time>2018-07-10T17:44:33Z</time>
      </trkpt>
      <trkpt lat="49.020546991378069" lon="7.868517972528935">
        <ele>359.19</ele>
        <time>2018-07-10T17:44:34Z</time>
      </trkpt>
      <trkpt lat="49.020696021616459" lon="7.868608999997377">
        <ele>360.14999999999998</ele>
        <time>2018-07-10T17:44:35Z</time>
      </trkpt>
      <trkpt lat="49.020858965814114" lon="7.868708996102214">
        <ele>361.58999999999997</ele>
        <time>2018-07-10T17:44:36Z</time>
      </trkpt>
      <trkpt lat="49.021209999918938" lon="7.868946958333254">
        <ele>363.51999999999998</ele>
        <time>2018-07-10T17:44:38Z</time>
      </trkpt>
      <trkpt lat="49.021748034283519" lon="7.86943000741303">
        <ele>368.31999999999999</ele>
        <time>2018-07-10T17:44:42Z</time>
      </trkpt>
      <trkpt lat="49.022026984021068" lon="7.86983703263104">
        <ele>369.75999999999999</ele>
        <time>2018-07-10T17:44:43Z</time>
      </trkpt>
      <trkpt lat="49.022122034803033" lon="7.870122017338872">
        <ele>371.20999999999998</ele>
        <time>2018-07-10T17:44:44Z</time>
      </trkpt>
      <trkpt lat="49.022213984280825" lon="7.870399039238691">
        <ele>372.64999999999998</ele>
        <time>2018-07-10T17:44:45Z</time>
      </trkpt>
      <trkpt lat="49.02228900231421" lon="7.870659967884421">
        <ele>374.56999999999999</ele>
        <time>2018-07-10T17:44:46Z</time>
      </trkpt>
      <trkpt lat="49.022315992042422" lon="7.870939001441002">
        <ele>376.00999999999999</ele>
        <time>2018-07-10T17:44:47Z</time>
      </trkpt>
      <trkpt lat="49.022340970113873" lon="7.871202025562525">
        <ele>376.97000000000003</ele>
        <time>2018-07-10T17:44:48Z</time>
      </trkpt>
      <trkpt lat="49.022316997870803" lon="7.87145096808672">
        <ele>378.42000000000002</ele>
        <time>2018-07-10T17:44:49Z</time>
      </trkpt>
      <trkpt lat="49.022271987050772" lon="7.87170996889472">
        <ele>379.86000000000001</ele>
        <time>2018-07-10T17:44:50Z</time>
      </trkpt>
      <trkpt lat="49.022220019251108" lon="7.872005011886358">
        <ele>380.81999999999999</ele>
        <time>2018-07-10T17:44:51Z</time>
      </trkpt>
      <trkpt lat="49.022120023146272" lon="7.872213972732425">
        <ele>381.77999999999997</ele>
        <time>2018-07-10T17:44:52Z</time>
      </trkpt>
      <trkpt lat="49.021997982636094" lon="7.872455958276987">
        <ele>382.74000000000001</ele>
        <time>2018-07-10T17:44:53Z</time>
      </trkpt>
      <trkpt lat="49.021851969882846" lon="7.872681012377143">
        <ele>384.18000000000001</ele>
        <time>2018-07-10T17:44:54Z</time>
      </trkpt>
      <trkpt lat="49.021706962957978" lon="7.872902965173125">
        <ele>385.14999999999998</ele>
        <time>2018-07-10T17:44:55Z</time>
      </trkpt>
      <trkpt lat="49.021570002660155" lon="7.873115027323365">
        <ele>385.63</ele>
        <time>2018-07-10T17:44:56Z</time>
      </trkpt>
      <trkpt lat="49.0214519854635" lon="7.873307978734374">
        <ele>386.58999999999997</ele>
        <time>2018-07-10T17:44:57Z</time>
      </trkpt>
      <trkpt lat="49.021361963823438" lon="7.873505037277937">
        <ele>387.55000000000001</ele>
        <time>2018-07-10T17:44:58Z</time>
      </trkpt>
      <trkpt lat="49.021346038207412" lon="7.873732019215822">
        <ele>388.02999999999997</ele>
        <time>2018-07-10T17:44:59Z</time>
      </trkpt>
      <trkpt lat="49.021362969651818" lon="7.873936034739018">
        <ele>388.99000000000001</ele>
        <time>2018-07-10T17:45:00Z</time>
      </trkpt>
      <trkpt lat="49.02140898630023" lon="7.874138960614801">
        <ele>389.94999999999999</ele>
        <time>2018-07-10T17:45:01Z</time>
      </trkpt>
      <trkpt lat="49.021496996283531" lon="7.874336019158363">
        <ele>390.91000000000003</ele>
        <time>2018-07-10T17:45:02Z</time>
      </trkpt>
      <trkpt lat="49.021591963246465" lon="7.874547997489572">
        <ele>391.38999999999999</ele>
        <time>2018-07-10T17:45:03Z</time>
      </trkpt>
      <trkpt lat="49.021689025685191" lon="7.874771961942315">
        <ele>392.36000000000001</ele>
        <time>2018-07-10T17:45:04Z</time>
      </trkpt>
      <trkpt lat="49.021761026233435" lon="7.875029034912586">
        <ele>392.83999999999997</ele>
        <time>2018-07-10T17:45:05Z</time>
      </trkpt>
      <trkpt lat="49.021809976547956" lon="7.875299016013742">
        <ele>393.80000000000001</ele>
        <time>2018-07-10T17:45:06Z</time>
      </trkpt>
      <trkpt lat="49.021835960447788" lon="7.875581989064813">
        <ele>394.75999999999999</ele>
        <time>2018-07-10T17:45:07Z</time>
      </trkpt>
      <trkpt lat="49.021843001246452" lon="7.875864040106535">
        <ele>395.72000000000003</ele>
        <time>2018-07-10T17:45:08Z</time>
      </trkpt>
      <trkpt lat="49.021849958226085" lon="7.876128992065787">
        <ele>396.68000000000001</ele>
        <time>2018-07-10T17:45:09Z</time>
      </trkpt>
      <trkpt lat="49.021866973489523" lon="7.876385981217027">
        <ele>397.63999999999999</ele>
        <time>2018-07-10T17:45:10Z</time>
      </trkpt>
      <trkpt lat="49.021926987916231" lon="7.876609023660421">
        <ele>398.60000000000002</ele>
        <time>2018-07-10T17:45:11Z</time>
      </trkpt>
      <trkpt lat="49.022028995677829" lon="7.876808010041714">
        <ele>399.56999999999999</ele>
        <time>2018-07-10T17:45:12Z</time>
      </trkpt>
      <trkpt lat="49.022149024531245" lon="7.876995010301471">
        <ele>400.52999999999997</ele>
        <time>2018-07-10T17:45:13Z</time>
      </trkpt>
      <trkpt lat="49.022306017577648" lon="7.877131970599294">
        <ele>401.49000000000001</ele>
        <time>2018-07-10T17:45:14Z</time>
      </trkpt>
      <trkpt lat="49.022465022280812" lon="7.87727102637291">
        <ele>401.97000000000003</ele>
        <time>2018-07-10T17:45:15Z</time>
      </trkpt>
      <trkpt lat="49.022620003670454" lon="7.877405975013971">
        <ele>402.93000000000001</ele>
        <time>2018-07-10T17:45:16Z</time>
      </trkpt>
      <trkpt lat="49.022779008373618" lon="7.877544024959207">
        <ele>403.41000000000003</ele>
        <time>2018-07-10T17:45:17Z</time>
      </trkpt>
      <trkpt lat="49.022907000035048" lon="7.877733958885074">
        <ele>403.88999999999999</ele>
        <time>2018-07-10T17:45:18Z</time>
      </trkpt>
      <trkpt lat="49.023025017231703" lon="7.877935962751508">
        <ele>404.85000000000002</ele>
        <time>2018-07-10T17:45:19Z</time>
      </trkpt>
      <trkpt lat="49.023109003901482" lon="7.878170991316438">
        <ele>405.32999999999998</ele>
        <time>2018-07-10T17:45:20Z</time>
      </trkpt>
      <trkpt lat="49.023152003064752" lon="7.8784320037812">
        <ele>406.29000000000002</ele>
        <time>2018-07-10T17:45:21Z</time>
      </trkpt>
      <trkpt lat="49.023187961429358" lon="7.878694022074342">
        <ele>407.25999999999999</ele>
        <time>2018-07-10T17:45:22Z</time>
      </trkpt>
      <trkpt lat="49.023203970864415" lon="7.878966014832258">
        <ele>407.74000000000001</ele>
        <time>2018-07-10T17:45:23Z</time>
      </trkpt>
      <trkpt lat="49.023198019713163" lon="7.879257034510374">
        <ele>408.69999999999999</ele>
        <time>2018-07-10T17:45:24Z</time>
      </trkpt>
      <trkpt lat="49.023190978914499" lon="7.879558028653264">
        <ele>409.66000000000003</ele>
        <time>2018-07-10T17:45:25Z</time>
      </trkpt>
      <trkpt lat="49.023205982521176" lon="7.881189985200763">
        <ele>414.94999999999999</ele>
        <time>2018-07-10T17:45:30Z</time>
      </trkpt>
      <trkpt lat="49.023246970027685" lon="7.881522998213768">
        <ele>416.38999999999999</ele>
        <time>2018-07-10T17:45:31Z</time>
      </trkpt>
      <trkpt lat="49.023305978626013" lon="7.881847964599729">
        <ele>417.82999999999998</ele>
        <time>2018-07-10T17:45:32Z</time>
      </trkpt>
      <trkpt lat="49.023752985522151" lon="7.883449997752905">
        <ele>423.12</ele>
        <time>2018-07-10T17:45:38Z</time>
      </trkpt>
      <trkpt lat="49.024214996024966" lon="7.884616004303098">
        <ele>426.95999999999998</ele>
        <time>2018-07-10T17:45:43Z</time>
      </trkpt>
      <trkpt lat="49.024640964344144" lon="7.885442962870002">
        <ele>430.32999999999998</ele>
        <time>2018-07-10T17:45:48Z</time>
      </trkpt>
      <trkpt lat="49.024679018184543" lon="7.885595010593534">
        <ele>430.81</ele>
        <time>2018-07-10T17:45:49Z</time>
      </trkpt>
      <trkpt lat="49.024714976549149" lon="7.885766001418233">
        <ele>431.29000000000002</ele>
        <time>2018-07-10T17:45:50Z</time>
      </trkpt>
      <trkpt lat="49.02473802678287" lon="7.885950990021229">
        <ele>431.76999999999998</ele>
        <time>2018-07-10T17:45:51Z</time>
      </trkpt>
      <trkpt lat="49.024761999025941" lon="7.886144025251269">
        <ele>431.76999999999998</ele>
        <time>2018-07-10T17:45:52Z</time>
      </trkpt>
      <trkpt lat="49.024786977097392" lon="7.886343011632562">
        <ele>431.76999999999998</ele>
        <time>2018-07-10T17:45:53Z</time>
      </trkpt>
      <trkpt lat="49.024843974038959" lon="7.88653202354908">
        <ele>431.29000000000002</ele>
        <time>2018-07-10T17:45:54Z</time>
      </trkpt>
      <trkpt lat="49.024919997900724" lon="7.886731009930372">
        <ele>430.81</ele>
        <time>2018-07-10T17:45:55Z</time>
      </trkpt>
      <trkpt lat="49.025004990398884" lon="7.886921027675271">
        <ele>430.32999999999998</ele>
        <time>2018-07-10T17:45:56Z</time>
      </trkpt>
      <trkpt lat="49.025108003988862" lon="7.887100987136364">
        <ele>429.37</ele>
        <time>2018-07-10T17:45:57Z</time>
      </trkpt>
      <trkpt lat="49.025215962901711" lon="7.887289999052882">
        <ele>428.88999999999999</ele>
        <time>2018-07-10T17:45:58Z</time>
      </trkpt>
      <trkpt lat="49.025331968441606" lon="7.887492002919316">
        <ele>427.92000000000002</ele>
        <time>2018-07-10T17:45:59Z</time>
      </trkpt>
      <trkpt lat="49.02596203610301" lon="7.889122031629086">
        <ele>422.63999999999999</ele>
        <time>2018-07-10T17:46:05Z</time>
      </trkpt>
      <trkpt lat="49.0264149941504" lon="7.891076020896435">
        <ele>413.01999999999998</ele>
        <time>2018-07-10T17:46:12Z</time>
      </trkpt>
      <trkpt lat="49.026507027447224" lon="7.891251035034657">
        <ele>411.10000000000002</ele>
        <time>2018-07-10T17:46:13Z</time>
      </trkpt>
      <trkpt lat="49.026590008288622" lon="7.891390006989241">
        <ele>409.66000000000003</ele>
        <time>2018-07-10T17:46:14Z</time>
      </trkpt>
      <trkpt lat="49.0266930218786" lon="7.891458990052342">
        <ele>408.22000000000003</ele>
        <time>2018-07-10T17:46:15Z</time>
      </trkpt>
      <trkpt lat="49.026768039911985" lon="7.891435017809272">
        <ele>406.76999999999998</ele>
        <time>2018-07-10T17:46:16Z</time>
      </trkpt>
      <trkpt lat="49.026838028803468" lon="7.891395036131144">
        <ele>405.32999999999998</ele>
        <time>2018-07-10T17:46:17Z</time>
      </trkpt>
      <trkpt lat="49.026906006038189" lon="7.891285987570882">
        <ele>404.37</ele>
        <time>2018-07-10T17:46:18Z</time>
      </trkpt>
      <trkpt lat="49.026984041556716" lon="7.891161013394594">
        <ele>403.41000000000003</ele>
        <time>2018-07-10T17:46:19Z</time>
      </trkpt>
      <trkpt lat="49.027382014319301" lon="7.890628008171916">
        <ele>400.05000000000001</ele>
        <time>2018-07-10T17:46:23Z</time>
      </trkpt>
      <trkpt lat="49.027499025687575" lon="7.890542009845376">
        <ele>399.56999999999999</ele>
        <time>2018-07-10T17:46:24Z</time>
      </trkpt>
      <trkpt lat="49.027617964893579" lon="7.890479983761907">
        <ele>398.60000000000002</ele>
        <time>2018-07-10T17:46:25Z</time>
      </trkpt>
      <trkpt lat="49.027741011232138" lon="7.890479983761907">
        <ele>398.12</ele>
        <time>2018-07-10T17:46:26Z</time>
      </trkpt>
      <trkpt lat="49.027842013165355" lon="7.890564976260066">
        <ele>397.63999999999999</ele>
        <time>2018-07-10T17:46:27Z</time>
      </trkpt>
      <trkpt lat="49.027904961258173" lon="7.890724986791611">
        <ele>396.68000000000001</ele>
        <time>2018-07-10T17:46:28Z</time>
      </trkpt>
      <trkpt lat="49.027967993170023" lon="7.890881979838014">
        <ele>396.19999999999999</ele>
        <time>2018-07-10T17:46:29Z</time>
      </trkpt>
      <trkpt lat="49.028039993718266" lon="7.891061017289758">
        <ele>395.72000000000003</ele>
        <time>2018-07-10T17:46:30Z</time>
      </trkpt>
      <trkpt lat="49.028120962902904" lon="7.891265032812953">
        <ele>395.24000000000001</ele>
        <time>2018-07-10T17:46:31Z</time>
      </trkpt>
      <trkpt lat="49.028493035584688" lon="7.892297012731433">
        <ele>391.87</ele>
        <time>2018-07-10T17:46:35Z</time>
      </trkpt>
      <trkpt lat="49.028623038902879" lon="7.892874022945762">
        <ele>389.94999999999999</ele>
        <time>2018-07-10T17:46:37Z</time>
      </trkpt>
      <trkpt lat="49.028640976175666" lon="7.893169987946749">
        <ele>388.50999999999999</ele>
        <time>2018-07-10T17:46:38Z</time>
      </trkpt>
      <trkpt lat="49.028650028631091" lon="7.893470982089639">
        <ele>387.55000000000001</ele>
        <time>2018-07-10T17:46:39Z</time>
      </trkpt>
      <trkpt lat="49.028609041124582" lon="7.893768958747387">
        <ele>386.11000000000001</ele>
        <time>2018-07-10T17:46:40Z</time>
      </trkpt>
      <trkpt lat="49.028566963970661" lon="7.89407598786056">
        <ele>384.66000000000003</ele>
        <time>2018-07-10T17:46:41Z</time>
      </trkpt>
      <trkpt lat="49.028360014781356" lon="7.895580036565661">
        <ele>377.44999999999999</ele>
        <time>2018-07-10T17:46:46Z</time>
      </trkpt>
      <trkpt lat="49.028444001451135" lon="7.897563027217984">
        <ele>367.83999999999997</ele>
        <time>2018-07-10T17:46:53Z</time>
      </trkpt>
      <trkpt lat="49.028479037806392" lon="7.897926969453692">
        <ele>364</ele>
        <time>2018-07-10T17:46:55Z</time>
      </trkpt>
      <trkpt lat="49.028473002836108" lon="7.898057978600264">
        <ele>362.55000000000001</ele>
        <time>2018-07-10T17:46:56Z</time>
      </trkpt>
      <trkpt lat="49.02845598757267" lon="7.898149006068707">
        <ele>361.11000000000001</ele>
        <time>2018-07-10T17:46:57Z</time>
      </trkpt>
      <trkpt lat="49.028392033651471" lon="7.898251013830304">
        <ele>360.14999999999998</ele>
        <time>2018-07-10T17:46:58Z</time>
      </trkpt>
      <trkpt lat="49.028315003961325" lon="7.89822000078857">
        <ele>358.70999999999998</ele>
        <time>2018-07-10T17:46:59Z</time>
      </trkpt>
      <trkpt lat="49.028267981484532" lon="7.898166021332145">
        <ele>357.75</ele>
        <time>2018-07-10T17:47:00Z</time>
      </trkpt>
      <trkpt lat="49.028202015906572" lon="7.898050015792251">
        <ele>356.79000000000002</ele>
        <time>2018-07-10T17:47:01Z</time>
      </trkpt>
      <trkpt lat="49.028142001479864" lon="7.897886987775564">
        <ele>355.82999999999998</ele>
        <time>2018-07-10T17:47:02Z</time>
      </trkpt>
      <trkpt lat="49.028073018416762" lon="7.897700993344188">
        <ele>354.38</ele>
        <time>2018-07-10T17:47:03Z</time>
      </trkpt>
      <trkpt lat="49.027933962643147" lon="7.897269995883107">
        <ele>351.98000000000002</ele>
        <time>2018-07-10T17:47:05Z</time>
      </trkpt>
      <trkpt lat="49.027902027592063" lon="7.897056005895138">
        <ele>351.01999999999998</ele>
        <time>2018-07-10T17:47:06Z</time>
      </trkpt>
      <trkpt lat="49.027888029813766" lon="7.896833969280124">
        <ele>350.06</ele>
        <time>2018-07-10T17:47:07Z</time>
      </trkpt>
      <trkpt lat="49.027894986793399" lon="7.896636994555593">
        <ele>349.10000000000002</ele>
        <time>2018-07-10T17:47:08Z</time>
      </trkpt>
      <trkpt lat="49.027902027592063" lon="7.89646097458899">
        <ele>348.62</ele>
        <time>2018-07-10T17:47:09Z</time>
      </trkpt>
      <trkpt lat="49.027905967086554" lon="7.896338012069464">
        <ele>347.64999999999998</ele>
        <time>2018-07-10T17:47:10Z</time>
      </trkpt>
      <trkpt lat="49.027846958488226" lon="7.896262994036079">
        <ele>347.17000000000002</ele>
        <time>2018-07-10T17:47:11Z</time>
      </trkpt>
      <trkpt lat="49.027819968760014" lon="7.896229969337583">
        <ele>346.69</ele>
        <time>2018-07-10T17:47:12Z</time>
      </trkpt>
      <trkpt lat="49.027772024273872" lon="7.896271040663123">
        <ele>345.73000000000002</ele>
        <time>2018-07-10T17:47:13Z</time>
      </trkpt>
      <trkpt lat="49.027690971270204" lon="7.896338012069464">
        <ele>345.25</ele>
        <time>2018-07-10T17:47:14Z</time>
      </trkpt>
      <trkpt lat="49.027673033997416" lon="7.896447982639074">
        <ele>344.76999999999998</ele>
        <time>2018-07-10T17:47:15Z</time>
      </trkpt>
      <trkpt lat="49.027644032612443" lon="7.896615033969283">
        <ele>343.81</ele>
        <time>2018-07-10T17:47:16Z</time>
      </trkpt>
      <trkpt lat="49.027527021244168" lon="7.897306960076094">
        <ele>339.95999999999998</ele>
        <time>2018-07-10T17:47:19Z</time>
      </trkpt>
      <trkpt lat="49.027461977675557" lon="7.897579036653042">
        <ele>339</ele>
        <time>2018-07-10T17:47:20Z</time>
      </trkpt>
      <trkpt lat="49.027362987399101" lon="7.897857986390591">
        <ele>338.04000000000002</ele>
        <time>2018-07-10T17:47:21Z</time>
      </trkpt>
      <trkpt lat="49.026998961344361" lon="7.898989040404558">
        <ele>334.68000000000001</ele>
        <time>2018-07-10T17:47:25Z</time>
      </trkpt>
      <trkpt lat="49.026967026293278" lon="7.899285005405545">
        <ele>334.19999999999999</ele>
        <time>2018-07-10T17:47:26Z</time>
      </trkpt>
      <trkpt lat="49.026940036565065" lon="7.899592034518719">
        <ele>333.70999999999998</ele>
        <time>2018-07-10T17:47:27Z</time>
      </trkpt>
      <trkpt lat="49.026940036565065" lon="7.899901997298002">
        <ele>332.75</ele>
        <time>2018-07-10T17:47:28Z</time>
      </trkpt>
      <trkpt lat="49.026940036565065" lon="7.900206008926034">
        <ele>332.26999999999998</ele>
        <time>2018-07-10T17:47:29Z</time>
      </trkpt>
      <trkpt lat="49.026984041556716" lon="7.900486970320344">
        <ele>331.31</ele>
        <time>2018-07-10T17:47:30Z</time>
      </trkpt>
      <trkpt lat="49.02703600935638" lon="7.900758041068912">
        <ele>330.35000000000002</ele>
        <time>2018-07-10T17:47:31Z</time>
      </trkpt>
      <trkpt lat="49.027090994641185" lon="7.90103699080646">
        <ele>329.38999999999999</ele>
        <time>2018-07-10T17:47:32Z</time>
      </trkpt>
      <trkpt lat="49.027182022109628" lon="7.901259027421475">
        <ele>327.94999999999999</ele>
        <time>2018-07-10T17:47:33Z</time>
      </trkpt>
      <trkpt lat="49.027291992679238" lon="7.90148701518774">
        <ele>326.5</ele>
        <time>2018-07-10T17:47:34Z</time>
      </trkpt>
      <trkpt lat="49.027417972683907" lon="7.90170100517571">
        <ele>324.57999999999998</ele>
        <time>2018-07-10T17:47:35Z</time>
      </trkpt>
      <trkpt lat="49.027543030679226" lon="7.901910971850157">
        <ele>323.13999999999999</ele>
        <time>2018-07-10T17:47:36Z</time>
      </trkpt>
      <trkpt lat="49.027776969596744" lon="7.902306010946631">
        <ele>320.25999999999999</ele>
        <time>2018-07-10T17:47:38Z</time>
      </trkpt>
      <trkpt lat="49.028057008981705" lon="7.902927026152611">
        <ele>315.93000000000001</ele>
        <time>2018-07-10T17:47:41Z</time>
      </trkpt>
      <trkpt lat="49.028105959296227" lon="7.903164988383651">
        <ele>314.49000000000001</ele>
        <time>2018-07-10T17:47:42Z</time>
      </trkpt>
      <trkpt lat="49.028130015358329" lon="7.903427006676793">
        <ele>313.52999999999997</ele>
        <time>2018-07-10T17:47:43Z</time>
      </trkpt>
      <trkpt lat="49.028269993141294" lon="7.90522500872612">
        <ele>306.80000000000001</ele>
        <time>2018-07-10T17:47:49Z</time>
      </trkpt>
      <trkpt lat="49.028292959555984" lon="7.905531032010913">
        <ele>305.83999999999997</ele>
        <time>2018-07-10T17:47:50Z</time>
      </trkpt>
      <trkpt lat="49.028554977849126" lon="7.909118989482522">
        <ele>295.25999999999999</ele>
        <time>2018-07-10T17:48:01Z</time>
      </trkpt>
      <trkpt lat="49.028586996719241" lon="7.909454014152288">
        <ele>293.33999999999997</ele>
        <time>2018-07-10T17:48:03Z</time>
      </trkpt>
      <trkpt lat="49.028934007510543" lon="7.911598021164537">
        <ele>288.05000000000001</ele>
        <time>2018-07-10T17:48:09Z</time>
      </trkpt>
      <trkpt lat="49.029309013858438" lon="7.913787961006165">
        <ele>283.73000000000002</ele>
        <time>2018-07-10T17:48:16Z</time>
      </trkpt>
      <trkpt lat="49.029890969395638" lon="7.915918976068497">
        <ele>278.92000000000002</ele>
        <time>2018-07-10T17:48:23Z</time>
      </trkpt>
      <trkpt lat="49.030614998191595" lon="7.917971033602953">
        <ele>274.11000000000001</ele>
        <time>2018-07-10T17:48:31Z</time>
      </trkpt>
      <trkpt lat="49.030741984024644" lon="7.918360037729144">
        <ele>273.63</ele>
        <time>2018-07-10T17:48:33Z</time>
      </trkpt>
      <trkpt lat="49.030780959874392" lon="7.918539997190237">
        <ele>273.14999999999998</ele>
        <time>2018-07-10T17:48:34Z</time>
      </trkpt>
      <trkpt lat="49.030780959874392" lon="7.918708976358175">
        <ele>272.67000000000002</ele>
        <time>2018-07-10T17:48:35Z</time>
      </trkpt>
      <trkpt lat="49.030771991237998" lon="7.918890025466681">
        <ele>272.19</ele>
        <time>2018-07-10T17:48:36Z</time>
      </trkpt>
      <trkpt lat="49.030713988468051" lon="7.919031009078026">
        <ele>271.70999999999998</ele>
        <time>2018-07-10T17:48:37Z</time>
      </trkpt>
      <trkpt lat="49.030638970434666" lon="7.919178027659655">
        <ele>271.23000000000002</ele>
        <time>2018-07-10T17:48:38Z</time>
      </trkpt>
      <trkpt lat="49.030549032613635" lon="7.919311970472336">
        <ele>270.75</ele>
        <time>2018-07-10T17:48:39Z</time>
      </trkpt>
      <trkpt lat="49.030549032613635" lon="7.919312976300716">
        <ele>269.79000000000002</ele>
        <time>2018-07-10T17:48:40Z</time>
      </trkpt>
      <trkpt lat="49.030312998220325" lon="7.919568959623575">
        <ele>269.31</ele>
        <time>2018-07-10T17:48:41Z</time>
      </trkpt>
      <trkpt lat="49.029118996113539" lon="7.920856000855565">
        <ele>259.69</ele>
        <time>2018-07-10T17:48:50Z</time>
      </trkpt>
      <trkpt lat="49.028699984773993" lon="7.921305019408464">
        <ele>254.88999999999999</ele>
        <time>2018-07-10T17:48:56Z</time>
      </trkpt>
      <trkpt lat="49.028643993660808" lon="7.921365033835173">
        <ele>252.96000000000001</ele>
        <time>2018-07-10T17:49:03Z</time>
      </trkpt>
      <trkpt lat="49.028570987284184" lon="7.921442985534668">
        <ele>251.52000000000001</ele>
        <time>2018-07-10T17:49:14Z</time>
      </trkpt>
      <trkpt lat="49.028570987284184" lon="7.921442985534668">
        <ele>251.52000000000001</ele>
        <time>2018-07-10T17:49:17Z</time>
      </trkpt>
      <trkpt lat="49.028570987284184" lon="7.921442985534668">
        <ele>252</ele>
        <time>2018-07-10T17:49:18Z</time>
      </trkpt>
      <trkpt lat="49.028570987284184" lon="7.921442985534668">
        <ele>252</ele>
        <time>2018-07-10T17:49:19Z</time>
      </trkpt>
      <trkpt lat="49.028495969250798" lon="7.921524960547686">
        <ele>252.47999999999999</ele>
        <time>2018-07-10T17:49:20Z</time>
      </trkpt>
      <trkpt lat="49.028446013107896" lon="7.921580029651523">
        <ele>252.47999999999999</ele>
        <time>2018-07-10T17:49:21Z</time>
      </trkpt>
      <trkpt lat="49.027847964316607" lon="7.922231974080205">
        <ele>250.56</ele>
        <time>2018-07-10T17:49:27Z</time>
      </trkpt>
      <trkpt lat="49.026892008259892" lon="7.923254985362291">
        <ele>246.22999999999999</ele>
        <time>2018-07-10T17:49:33Z</time>
      </trkpt>
      <trkpt lat="49.025815017521381" lon="7.924501039087772">
        <ele>244.31</ele>
        <time>2018-07-10T17:49:40Z</time>
      </trkpt>
      <trkpt lat="49.025702029466629" lon="7.924699019640684">
        <ele>243.83000000000001</ele>
        <time>2018-07-10T17:49:41Z</time>
      </trkpt>
      <trkpt lat="49.024965008720756" lon="7.926856018602848">
        <ele>241.91</ele>
        <time>2018-07-10T17:49:49Z</time>
      </trkpt>
      <trkpt lat="49.023961024358869" lon="7.930193021893501">
        <ele>241.43000000000001</ele>
        <time>2018-07-10T17:50:00Z</time>
      </trkpt>
      <trkpt lat="49.022605000063777" lon="7.934665018692613">
        <ele>245.27000000000001</ele>
        <time>2018-07-10T17:50:12Z</time>
      </trkpt>
      <trkpt lat="49.021786004304886" lon="7.937352005392313">
        <ele>240.47</ele>
        <time>2018-07-10T17:50:20Z</time>
      </trkpt>
      <trkpt lat="49.021589029580355" lon="7.938085002824664">
        <ele>239.02000000000001</ele>
        <time>2018-07-10T17:50:23Z</time>
      </trkpt>
      <trkpt lat="49.021563967689872" lon="7.938330005854368">
        <ele>238.53999999999999</ele>
        <time>2018-07-10T17:50:24Z</time>
      </trkpt>
      <trkpt lat="49.021560028195381" lon="7.938582971692085">
        <ele>237.58000000000001</ele>
        <time>2018-07-10T17:50:25Z</time>
      </trkpt>
      <trkpt lat="49.021624987944961" lon="7.940394971519709">
        <ele>229.41</ele>
        <time>2018-07-10T17:50:32Z</time>
      </trkpt>
      <trkpt lat="49.021690031513572" lon="7.9427819699049">
        <ele>219.80000000000001</ele>
        <time>2018-07-10T17:50:40Z</time>
      </trkpt>
      <trkpt lat="49.021697994321585" lon="7.943151025101543">
        <ele>217.40000000000001</ele>
        <time>2018-07-10T17:50:43Z</time>
      </trkpt>
      <trkpt lat="49.021699000149965" lon="7.943211039528251">
        <ele>216.43000000000001</ele>
        <time>2018-07-10T17:50:44Z</time>
      </trkpt>
      <trkpt lat="49.021700005978346" lon="7.943244986236095">
        <ele>215.47</ele>
        <time>2018-07-10T17:50:45Z</time>
      </trkpt>
      <trkpt lat="49.021701011806726" lon="7.943271975964308">
        <ele>214.50999999999999</ele>
        <time>2018-07-10T17:50:46Z</time>
      </trkpt>
      <trkpt lat="49.021701011806726" lon="7.94329795986414">
        <ele>214.03</ele>
        <time>2018-07-10T17:50:47Z</time>
      </trkpt>
      <trkpt lat="49.021702017635107" lon="7.943324027583003">
        <ele>213.06999999999999</ele>
        <time>2018-07-10T17:50:48Z</time>
      </trkpt>
      <trkpt lat="49.021703023463488" lon="7.943354034796357">
        <ele>212.59</ele>
        <time>2018-07-10T17:50:49Z</time>
      </trkpt>
      <trkpt lat="49.021703023463488" lon="7.943398039788008">
        <ele>212.11000000000001</ele>
        <time>2018-07-10T17:50:50Z</time>
      </trkpt>
      <trkpt lat="49.021734958514571" lon="7.943474985659123">
        <ele>211.63</ele>
        <time>2018-07-10T17:50:51Z</time>
      </trkpt>
      <trkpt lat="49.021808970719576" lon="7.94351396150887">
        <ele>211.63</ele>
        <time>2018-07-10T17:50:52Z</time>
      </trkpt>
      <trkpt lat="49.022415988147259" lon="7.943837000057101">
        <ele>209.69999999999999</ele>
        <time>2018-07-10T17:50:57Z</time>
      </trkpt>
      <trkpt lat="49.023609990254045" lon="7.944577038288117">
        <ele>202.97999999999999</ele>
        <time>2018-07-10T17:51:05Z</time>
      </trkpt>
      <trkpt lat="49.024965008720756" lon="7.945411959663034">
        <ele>190.47999999999999</ele>
        <time>2018-07-10T17:51:15Z</time>
      </trkpt>
      <trkpt lat="49.026188012212515" lon="7.945946976542473">
        <ele>178.46000000000001</ele>
        <time>2018-07-10T17:51:25Z</time>
      </trkpt>
      <trkpt lat="49.026276022195816" lon="7.945980001240969">
        <ele>177.5</ele>
        <time>2018-07-10T17:51:26Z</time>
      </trkpt>
      <trkpt lat="49.026404013857245" lon="7.946147974580526">
        <ele>177.02000000000001</ele>
        <time>2018-07-10T17:51:28Z</time>
      </trkpt>
      <trkpt lat="49.026482971385121" lon="7.946161972358823">
        <ele>176.53999999999999</ele>
        <time>2018-07-10T17:51:29Z</time>
      </trkpt>
      <trkpt lat="49.026561006903648" lon="7.946062982082367">
        <ele>176.53999999999999</ele>
        <time>2018-07-10T17:51:30Z</time>
      </trkpt>
      <trkpt lat="49.027423001825809" lon="7.946299016475678">
        <ele>175.09999999999999</ele>
        <time>2018-07-10T17:51:39Z</time>
      </trkpt>
      <trkpt lat="49.028646005317569" lon="7.946522980928421">
        <ele>172.69</ele>
        <time>2018-07-10T17:51:50Z</time>
      </trkpt>
      <trkpt lat="49.029472041875124" lon="7.946519963443279">
        <ele>168.37</ele>
        <time>2018-07-10T17:51:59Z</time>
      </trkpt>
      <trkpt lat="49.029622999951243" lon="7.946509988978505">
        <ele>166.44999999999999</ele>
        <time>2018-07-10T17:52:03Z</time>
      </trkpt>
      <trkpt lat="49.03026295825839" lon="7.946295998990536">
        <ele>165</ele>
        <time>2018-07-10T17:52:11Z</time>
      </trkpt>
      <trkpt lat="49.031329974532127" lon="7.945816973224282">
        <ele>163.08000000000001</ele>
        <time>2018-07-10T17:52:22Z</time>
      </trkpt>
      <trkpt lat="49.032160034403205" lon="7.945471974089742">
        <ele>162.12</ele>
        <time>2018-07-10T17:52:30Z</time>
      </trkpt>
      <trkpt lat="49.033081959933043" lon="7.945151031017304">
        <ele>163.08000000000001</ele>
        <time>2018-07-10T17:52:41Z</time>
      </trkpt>
      <trkpt lat="49.033143986016512" lon="7.945141978561878">
        <ele>162.59999999999999</ele>
        <time>2018-07-10T17:52:42Z</time>
      </trkpt>
      <trkpt lat="49.03326996602118" lon="7.945368038490415">
        <ele>162.59999999999999</ele>
        <time>2018-07-10T17:52:43Z</time>
      </trkpt>
      <trkpt lat="49.03326996602118" lon="7.945368038490415">
        <ele>162.59999999999999</ele>
        <time>2018-07-10T17:52:44Z</time>
      </trkpt>
      <trkpt lat="49.033298967406154" lon="7.945413971319795">
        <ele>162.12</ele>
        <time>2018-07-10T17:52:45Z</time>
      </trkpt>
      <trkpt lat="49.033354036509991" lon="7.945501981303096">
        <ele>162.12</ele>
        <time>2018-07-10T17:52:46Z</time>
      </trkpt>
      <trkpt lat="49.033382032066584" lon="7.945661991834641">
        <ele>162.12</ele>
        <time>2018-07-10T17:52:47Z</time>
      </trkpt>
      <trkpt lat="49.033386977389455" lon="7.945812027901411">
        <ele>162.59999999999999</ele>
        <time>2018-07-10T17:52:48Z</time>
      </trkpt>
      <trkpt lat="49.033393012359738" lon="7.945972038432956">
        <ele>162.59999999999999</ele>
        <time>2018-07-10T17:52:49Z</time>
      </trkpt>
      <trkpt lat="49.03339602984488" lon="7.946157027035952">
        <ele>162.59999999999999</ele>
        <time>2018-07-10T17:52:50Z</time>
      </trkpt>
      <trkpt lat="49.033358981832862" lon="7.946322988718748">
        <ele>162.59999999999999</ele>
        <time>2018-07-10T17:52:51Z</time>
      </trkpt>
      <trkpt lat="49.033322017639875" lon="7.946489034220576">
        <ele>162.59999999999999</ele>
        <time>2018-07-10T17:52:52Z</time>
      </trkpt>
      <trkpt lat="49.033242976292968" lon="7.946803020313382">
        <ele>163.56</ele>
        <time>2018-07-10T17:52:54Z</time>
      </trkpt>
      <trkpt lat="49.033156977966428" lon="7.947070989757776">
        <ele>164.03999999999999</ele>
        <time>2018-07-10T17:52:56Z</time>
      </trkpt>
      <trkpt lat="49.03311800211668" lon="7.947203004732728">
        <ele>164.52000000000001</ele>
        <time>2018-07-10T17:52:57Z</time>
      </trkpt>
      <trkpt lat="49.033077014610171" lon="7.947340970858932">
        <ele>164.52000000000001</ele>
        <time>2018-07-10T17:52:58Z</time>
      </trkpt>
      <trkpt lat="49.032621961086988" lon="7.948845019564033">
        <ele>166.93000000000001</ele>
        <time>2018-07-10T17:53:10Z</time>
      </trkpt>
      <trkpt lat="49.032191969454288" lon="7.950344039127231">
        <ele>164.03999999999999</ele>
        <time>2018-07-10T17:53:23Z</time>
      </trkpt>
      <trkpt lat="49.031756026670337" lon="7.951920004561544">
        <ele>165.96000000000001</ele>
        <time>2018-07-10T17:53:34Z</time>
      </trkpt>
      <trkpt lat="49.031353024765849" lon="7.953322967514396">
        <ele>168.84999999999999</ele>
        <time>2018-07-10T17:53:43Z</time>
      </trkpt>
      <trkpt lat="49.030788000673056" lon="7.955185007303953">
        <ele>166.93000000000001</ele>
        <time>2018-07-10T17:53:55Z</time>
      </trkpt>
      <trkpt lat="49.030375024303794" lon="7.956606997177005">
        <ele>165.96000000000001</ele>
        <time>2018-07-10T17:54:05Z</time>
      </trkpt>
      <trkpt lat="49.02983296662569" lon="7.958403993397951">
        <ele>162.59999999999999</ele>
        <time>2018-07-10T17:54:18Z</time>
      </trkpt>
      <trkpt lat="49.029182028025389" lon="7.960651014000177">
        <ele>161.16</ele>
        <time>2018-07-10T17:54:34Z</time>
      </trkpt>
      <trkpt lat="49.028747007250786" lon="7.961983988061547">
        <ele>160.19999999999999</ele>
        <time>2018-07-10T17:54:44Z</time>
      </trkpt>
      <trkpt lat="49.028635025024414" lon="7.961998991668224">
        <ele>160.19999999999999</ele>
        <time>2018-07-10T17:54:45Z</time>
      </trkpt>
      <trkpt lat="49.028575010597706" lon="7.962131006643176">
        <ele>160.19999999999999</ele>
        <time>2018-07-10T17:54:46Z</time>
      </trkpt>
      <trkpt lat="49.028636030852795" lon="7.962320018559694">
        <ele>160.19999999999999</ele>
        <time>2018-07-10T17:54:47Z</time>
      </trkpt>
      <trkpt lat="49.028615998104215" lon="7.962424037978053">
        <ele>159.72</ele>
        <time>2018-07-10T17:54:48Z</time>
      </trkpt>
      <trkpt lat="49.028590014204383" lon="7.962558986619115">
        <ele>159.24000000000001</ele>
        <time>2018-07-10T17:54:49Z</time>
      </trkpt>
      <trkpt lat="49.02856201864779" lon="7.962709022685885">
        <ele>159.24000000000001</ele>
        <time>2018-07-10T17:54:50Z</time>
      </trkpt>
      <trkpt lat="49.028103025630116" lon="7.964260010048747">
        <ele>156.83000000000001</ele>
        <time>2018-07-10T17:55:01Z</time>
      </trkpt>
      <trkpt lat="49.028062038123608" lon="7.96437400393188">
        <ele>156.83000000000001</ele>
        <time>2018-07-10T17:55:02Z</time>
      </trkpt>
      <trkpt lat="49.027905967086554" lon="7.964509036391974">
        <ele>156.83000000000001</ele>
        <time>2018-07-10T17:55:03Z</time>
      </trkpt>
      <trkpt lat="49.027870008721948" lon="7.964536026120186">
        <ele>156.83000000000001</ele>
        <time>2018-07-10T17:55:05Z</time>
      </trkpt>
      <trkpt lat="49.027819968760014" lon="7.964621018618345">
        <ele>156.83000000000001</ele>
        <time>2018-07-10T17:55:06Z</time>
      </trkpt>
      <trkpt lat="49.027819968760014" lon="7.964705005288124">
        <ele>156.83000000000001</ele>
        <time>2018-07-10T17:55:07Z</time>
      </trkpt>
      <trkpt lat="49.027883000671864" lon="7.964809024706483">
        <ele>156.83000000000001</ele>
        <time>2018-07-10T17:55:08Z</time>
      </trkpt>
      <trkpt lat="49.027875959873199" lon="7.964918995276094">
        <ele>156.34999999999999</ele>
        <time>2018-07-10T17:55:09Z</time>
      </trkpt>
      <trkpt lat="49.027867997065187" lon="7.965045981109142">
        <ele>156.34999999999999</ele>
        <time>2018-07-10T17:55:10Z</time>
      </trkpt>
      <trkpt lat="49.027844024822116" lon="7.965189982205629">
        <ele>156.83000000000001</ele>
        <time>2018-07-10T17:55:11Z</time>
      </trkpt>
      <trkpt lat="49.027795996516943" lon="7.965343035757542">
        <ele>156.83000000000001</ele>
        <time>2018-07-10T17:55:12Z</time>
      </trkpt>
      <trkpt lat="49.027551999315619" lon="7.966108974069357">
        <ele>157.31</ele>
        <time>2018-07-10T17:55:17Z</time>
      </trkpt>
      <trkpt lat="49.027507994323969" lon="7.966248029842973">
        <ele>157.31</ele>
        <time>2018-07-10T17:55:18Z</time>
      </trkpt>
      <trkpt lat="49.026862001046538" lon="7.968280976638198">
        <ele>156.83000000000001</ele>
        <time>2018-07-10T17:55:33Z</time>
      </trkpt>
      <trkpt lat="49.026250960305333" lon="7.970246030017734">
        <ele>156.34999999999999</ele>
        <time>2018-07-10T17:55:48Z</time>
      </trkpt>
      <trkpt lat="49.02587503194809" lon="7.971412958577275">
        <ele>157.31</ele>
        <time>2018-07-10T17:55:57Z</time>
      </trkpt>
      <trkpt lat="49.025590969249606" lon="7.972339997068048">
        <ele>159.72</ele>
        <time>2018-07-10T17:56:04Z</time>
      </trkpt>
      <trkpt lat="49.025555010885" lon="7.97247402369976">
        <ele>160.19999999999999</ele>
        <time>2018-07-10T17:56:05Z</time>
      </trkpt>
      <trkpt lat="49.025281006470323" lon="7.973691998049617">
        <ele>161.16</ele>
        <time>2018-07-10T17:56:11Z</time>
      </trkpt>
      <trkpt lat="49.024769039824605" lon="7.97612501308322">
        <ele>160.19999999999999</ele>
        <time>2018-07-10T17:56:19Z</time>
      </trkpt>
      <trkpt lat="49.024027995765209" lon="7.979448018595576">
        <ele>158.27000000000001</ele>
        <time>2018-07-10T17:56:30Z</time>
      </trkpt>
      <trkpt lat="49.023350989446044" lon="7.98242099583149">
        <ele>156.83000000000001</ele>
        <time>2018-07-10T17:56:41Z</time>
      </trkpt>
      <trkpt lat="49.022570969536901" lon="7.985685998573899">
        <ele>156.34999999999999</ele>
        <time>2018-07-10T17:56:54Z</time>
      </trkpt>
      <trkpt lat="49.021917013451457" lon="7.988724019378424">
        <ele>155.87</ele>
        <time>2018-07-10T17:57:06Z</time>
      </trkpt>
      <trkpt lat="49.021394988521934" lon="7.991686016321182">
        <ele>156.34999999999999</ele>
        <time>2018-07-10T17:57:17Z</time>
      </trkpt>
      <trkpt lat="49.020717982202768" lon="7.995363995432854">
        <ele>154.91</ele>
        <time>2018-07-10T17:57:29Z</time>
      </trkpt>
      <trkpt lat="49.020000994205475" lon="7.999253030866385">
        <ele>153.94999999999999</ele>
        <time>2018-07-10T17:57:42Z</time>
      </trkpt>
      <trkpt lat="49.019233966246247" lon="8.003471978008747">
        <ele>154.43000000000001</ele>
        <time>2018-07-10T17:57:56Z</time>
      </trkpt>
      <trkpt lat="49.018696015700698" lon="8.006440009921789">
        <ele>153.94999999999999</ele>
        <time>2018-07-10T17:58:05Z</time>
      </trkpt>
      <trkpt lat="49.017947008833289" lon="8.010470028966665">
        <ele>155.38999999999999</ele>
        <time>2018-07-10T17:58:15Z</time>
      </trkpt>
      <trkpt lat="49.016728028655052" lon="8.017112016677856">
        <ele>151.53999999999999</ele>
        <time>2018-07-10T17:58:31Z</time>
      </trkpt>
      <trkpt lat="49.016021015122533" lon="8.020978001877666">
        <ele>149.62</ele>
        <time>2018-07-10T17:58:41Z</time>
      </trkpt>
      <trkpt lat="49.015546012669802" lon="8.023530039936304">
        <ele>148.18000000000001</ele>
        <time>2018-07-10T17:58:49Z</time>
      </trkpt>
      <trkpt lat="49.014928014948964" lon="8.025741018354893">
        <ele>148.66</ele>
        <time>2018-07-10T17:58:56Z</time>
      </trkpt>
      <trkpt lat="49.014277998358011" lon="8.027930958196521">
        <ele>151.53999999999999</ele>
        <time>2018-07-10T17:59:02Z</time>
      </trkpt>
      <trkpt lat="49.012819966301322" lon="8.0328069627285">
        <ele>152.99000000000001</ele>
        <time>2018-07-10T17:59:14Z</time>
      </trkpt>
      <trkpt lat="49.012170033529401" lon="8.034979971125722">
        <ele>151.53999999999999</ele>
        <time>2018-07-10T17:59:21Z</time>
      </trkpt>
      <trkpt lat="49.011035040020943" lon="8.038958022370935">
        <ele>152.50999999999999</ele>
        <time>2018-07-10T17:59:35Z</time>
      </trkpt>
      <trkpt lat="49.009902980178595" lon="8.043275037780404">
        <ele>150.58000000000001</ele>
        <time>2018-07-10T17:59:50Z</time>
      </trkpt>
      <trkpt lat="49.008911987766623" lon="8.047011019662023">
        <ele>151.06</ele>
        <time>2018-07-10T18:00:03Z</time>
      </trkpt>
      <trkpt lat="49.008147977292538" lon="8.048841040581465">
        <ele>151.06</ele>
        <time>2018-07-10T18:00:11Z</time>
      </trkpt>
      <trkpt lat="49.006891027092934" lon="8.051305990666151">
        <ele>150.58000000000001</ele>
        <time>2018-07-10T18:00:20Z</time>
      </trkpt>
      <trkpt lat="49.005515975877643" lon="8.05398995988071">
        <ele>148.66</ele>
        <time>2018-07-10T18:00:31Z</time>
      </trkpt>
      <trkpt lat="49.004250979050994" lon="8.056458011269569">
        <ele>146.74000000000001</ele>
        <time>2018-07-10T18:00:41Z</time>
      </trkpt>
      <trkpt lat="49.002996040508151" lon="8.058906029909849">
        <ele>145.30000000000001</ele>
        <time>2018-07-10T18:00:51Z</time>
      </trkpt>
      <trkpt lat="49.001715034246445" lon="8.061339966952801">
        <ele>142.41</ele>
        <time>2018-07-10T18:01:01Z</time>
      </trkpt>
      <trkpt lat="49.000728987157345" lon="8.062559030950069">
        <ele>141.44999999999999</ele>
        <time>2018-07-10T18:01:08Z</time>
      </trkpt>
      <trkpt lat="48.999824998900294" lon="8.063271995633841">
        <ele>141.93000000000001</ele>
        <time>2018-07-10T18:01:15Z</time>
      </trkpt>
      <trkpt lat="48.998714983463287" lon="8.064413024112582">
        <ele>141.93000000000001</ele>
        <time>2018-07-10T18:01:23Z</time>
      </trkpt>
      <trkpt lat="48.997473958879709" lon="8.06642702780664">
        <ele>140.97</ele>
        <time>2018-07-10T18:01:31Z</time>
      </trkpt>
      <trkpt lat="48.995551988482475" lon="8.069811975583434">
        <ele>139.05000000000001</ele>
        <time>2018-07-10T18:01:43Z</time>
      </trkpt>
      <trkpt lat="48.995101964101195" lon="8.07124201208353">
        <ele>139.53</ele>
        <time>2018-07-10T18:01:47Z</time>
      </trkpt>
      <trkpt lat="48.995039016008377" lon="8.071638979017735">
        <ele>139.05000000000001</ele>
        <time>2018-07-10T18:01:48Z</time>
      </trkpt>
      <trkpt lat="48.994629979133606" lon="8.07444398291409">
        <ele>137.61000000000001</ele>
        <time>2018-07-10T18:01:55Z</time>
      </trkpt>
      <trkpt lat="48.993890024721622" lon="8.076537027955055">
        <ele>137.61000000000001</ele>
        <time>2018-07-10T18:02:01Z</time>
      </trkpt>
      <trkpt lat="48.992448002099991" lon="8.078915979713202">
        <ele>136.16</ele>
        <time>2018-07-10T18:02:09Z</time>
      </trkpt>
      <trkpt lat="48.989583989605308" lon="8.083417983725667">
        <ele>135.19999999999999</ele>
        <time>2018-07-10T18:02:24Z</time>
      </trkpt>
      <trkpt lat="48.988433992490172" lon="8.085553022101522">
        <ele>132.80000000000001</ele>
        <time>2018-07-10T18:02:31Z</time>
      </trkpt>
      <trkpt lat="48.987469989806414" lon="8.088401025161147">
        <ele>132.80000000000001</ele>
        <time>2018-07-10T18:02:39Z</time>
      </trkpt>
      <trkpt lat="48.98694503121078" lon="8.091770969331265">
        <ele>132.80000000000001</ele>
        <time>2018-07-10T18:02:47Z</time>
      </trkpt>
      <trkpt lat="48.986962968483567" lon="8.094786023721099">
        <ele>133.28</ele>
        <time>2018-07-10T18:02:54Z</time>
      </trkpt>
      <trkpt lat="48.987144017592072" lon="8.099132962524891">
        <ele>132.80000000000001</ele>
        <time>2018-07-10T18:03:04Z</time>
      </trkpt>
      <trkpt lat="48.98716296069324" lon="8.102164026349783">
        <ele>132.80000000000001</ele>
        <time>2018-07-10T18:03:11Z</time>
      </trkpt>
      <trkpt lat="48.98677596822381" lon="8.104577008634806">
        <ele>132.31999999999999</ele>
        <time>2018-07-10T18:03:17Z</time>
      </trkpt>
      <trkpt lat="48.985819006338716" lon="8.107286961749196">
        <ele>133.75999999999999</ele>
        <time>2018-07-10T18:03:24Z</time>
      </trkpt>
      <trkpt lat="48.983657984063029" lon="8.112319959327579">
        <ele>136.63999999999999</ele>
        <time>2018-07-10T18:03:37Z</time>
      </trkpt>
      <trkpt lat="48.983435025438666" lon="8.113075001165271">
        <ele>136.16</ele>
        <time>2018-07-10T18:03:39Z</time>
      </trkpt>
      <trkpt lat="48.983353972434998" lon="8.113473979756236">
        <ele>135.19999999999999</ele>
        <time>2018-07-10T18:03:40Z</time>
      </trkpt>
      <trkpt lat="48.983288006857038" lon="8.113898020237684">
        <ele>135.19999999999999</ele>
        <time>2018-07-10T18:03:41Z</time>
      </trkpt>
      <trkpt lat="48.982951976358891" lon="8.117540962994099">
        <ele>130.88</ele>
        <time>2018-07-10T18:03:49Z</time>
      </trkpt>
      <trkpt lat="48.982392987236381" lon="8.120558029040694">
        <ele>130.40000000000001</ele>
        <time>2018-07-10T18:03:56Z</time>
      </trkpt>
      <trkpt lat="48.981884038075805" lon="8.1228700093925">
        <ele>130.40000000000001</ele>
        <time>2018-07-10T18:04:03Z</time>
      </trkpt>
      <trkpt lat="48.980977032333612" lon="8.126982003450394">
        <ele>128.94999999999999</ele>
        <time>2018-07-10T18:04:17Z</time>
      </trkpt>
      <trkpt lat="48.980460036545992" lon="8.129022996872664">
        <ele>128.47</ele>
        <time>2018-07-10T18:04:24Z</time>
      </trkpt>
      <trkpt lat="48.979961983859539" lon="8.129964033141732">
        <ele>129.43000000000001</ele>
        <time>2018-07-10T18:04:28Z</time>
      </trkpt>
      <trkpt lat="48.979818988591433" lon="8.13017601147294">
        <ele>129.43000000000001</ele>
        <time>2018-07-10T18:04:29Z</time>
      </trkpt>
      <trkpt lat="48.979669036343694" lon="8.130397964268923">
        <ele>129.91999999999999</ele>
        <time>2018-07-10T18:04:30Z</time>
      </trkpt>
      <trkpt lat="48.979498967528343" lon="8.130559986457229">
        <ele>130.40000000000001</ele>
        <time>2018-07-10T18:04:31Z</time>
      </trkpt>
      <trkpt lat="48.979326970875263" lon="8.130723014473915">
        <ele>131.36000000000001</ele>
        <time>2018-07-10T18:04:32Z</time>
      </trkpt>
      <trkpt lat="48.978518033400178" lon="8.131532035768032">
        <ele>133.28</ele>
        <time>2018-07-10T18:04:38Z</time>
      </trkpt>
      <trkpt lat="48.977631982415915" lon="8.132789991796017">
        <ele>134.72</ele>
        <time>2018-07-10T18:04:48Z</time>
      </trkpt>
      <trkpt lat="48.976910971105099" lon="8.133958010002971">
        <ele>134.72</ele>
        <time>2018-07-10T18:04:57Z</time>
      </trkpt>
      <trkpt lat="48.976710978895426" lon="8.134314995259047">
        <ele>135.19999999999999</ele>
        <time>2018-07-10T18:05:00Z</time>
      </trkpt>
      <trkpt lat="48.976663034409285" lon="8.13442999497056">
        <ele>135.19999999999999</ele>
        <time>2018-07-10T18:05:01Z</time>
      </trkpt>
      <trkpt lat="48.976621041074395" lon="8.134533008560538">
        <ele>135.68000000000001</ele>
        <time>2018-07-10T18:05:02Z</time>
      </trkpt>
      <trkpt lat="48.97661198861897" lon="8.134661000221968">
        <ele>135.68000000000001</ele>
        <time>2018-07-10T18:05:03Z</time>
      </trkpt>
      <trkpt lat="48.97663202136755" lon="8.134792009368539">
        <ele>136.16</ele>
        <time>2018-07-10T18:05:04Z</time>
      </trkpt>
      <trkpt lat="48.976651970297098" lon="8.134927963837981">
        <ele>136.16</ele>
        <time>2018-07-10T18:05:05Z</time>
      </trkpt>
      <trkpt lat="48.976673008874059" lon="8.135071964934468">
        <ele>136.63999999999999</ele>
        <time>2018-07-10T18:05:06Z</time>
      </trkpt>
      <trkpt lat="48.976715002208948" lon="8.135371031239629">
        <ele>136.63999999999999</ele>
        <time>2018-07-10T18:05:08Z</time>
      </trkpt>
      <trkpt lat="48.976777028292418" lon="8.135841004550457">
        <ele>135.19999999999999</ele>
        <time>2018-07-10T18:05:11Z</time>
      </trkpt>
      <trkpt lat="48.976806029677391" lon="8.136531002819538">
        <ele>134.72</ele>
        <time>2018-07-10T18:05:15Z</time>
      </trkpt>
      <trkpt lat="48.976641995832324" lon="8.138635028153658">
        <ele>133.75999999999999</ele>
        <time>2018-07-10T18:05:26Z</time>
      </trkpt>
      <trkpt lat="48.976319963112473" lon="8.141357973217964">
        <ele>133.28</ele>
        <time>2018-07-10T18:05:39Z</time>
      </trkpt>
      <trkpt lat="48.975973958149552" lon="8.144278982654214">
        <ele>133.28</ele>
        <time>2018-07-10T18:05:50Z</time>
      </trkpt>
      <trkpt lat="48.975556036457419" lon="8.147768033668399">
        <ele>132.31999999999999</ele>
        <time>2018-07-10T18:06:00Z</time>
      </trkpt>
      <trkpt lat="48.975340034812689" lon="8.149911034852266">
        <ele>131.84</ele>
        <time>2018-07-10T18:06:08Z</time>
      </trkpt>
      <trkpt lat="48.9752790145576" lon="8.150460971519351">
        <ele>131.84</ele>
        <time>2018-07-10T18:06:11Z</time>
      </trkpt>
      <trkpt lat="48.975241966545582" lon="8.150579994544387">
        <ele>131.84</ele>
        <time>2018-07-10T18:06:12Z</time>
      </trkpt>
      <trkpt lat="48.975210031494498" lon="8.150679990649223">
        <ele>131.84</ele>
        <time>2018-07-10T18:06:13Z</time>
      </trkpt>
      <trkpt lat="48.975098971277475" lon="8.15076095983386">
        <ele>132.31999999999999</ele>
        <time>2018-07-10T18:06:14Z</time>
      </trkpt>
      <trkpt lat="48.975034011527896" lon="8.150783004239202">
        <ele>132.31999999999999</ele>
        <time>2018-07-10T18:06:15Z</time>
      </trkpt>
      <trkpt lat="48.974989000707865" lon="8.15084301866591">
        <ele>132.80000000000001</ele>
        <time>2018-07-10T18:06:16Z</time>
      </trkpt>
      <trkpt lat="48.974947007372975" lon="8.150975033640862">
        <ele>133.28</ele>
        <time>2018-07-10T18:06:17Z</time>
      </trkpt>
      <trkpt lat="48.974947007372975" lon="8.150975033640862">
        <ele>133.28</ele>
        <time>2018-07-10T18:06:18Z</time>
      </trkpt>
      <trkpt lat="48.974972991272807" lon="8.151255995035172">
        <ele>133.75999999999999</ele>
        <time>2018-07-10T18:06:19Z</time>
      </trkpt>
      <trkpt lat="48.975038034841418" lon="8.151349034160376">
        <ele>133.75999999999999</ele>
        <time>2018-07-10T18:06:20Z</time>
      </trkpt>
      <trkpt lat="48.975083967670798" lon="8.151484988629818">
        <ele>133.75999999999999</ele>
        <time>2018-07-10T18:06:21Z</time>
      </trkpt>
      <trkpt lat="48.975097965449095" lon="8.151644999161363">
        <ele>133.75999999999999</ele>
        <time>2018-07-10T18:06:22Z</time>
      </trkpt>
      <trkpt lat="48.975100982934237" lon="8.152014976367354">
        <ele>134.24000000000001</ele>
        <time>2018-07-10T18:06:24Z</time>
      </trkpt>
      <trkpt lat="48.974737040698528" lon="8.153924960643053">
        <ele>137.61000000000001</ele>
        <time>2018-07-10T18:06:32Z</time>
      </trkpt>
      <trkpt lat="48.974091969430447" lon="8.156575988978148">
        <ele>134.72</ele>
        <time>2018-07-10T18:06:43Z</time>
      </trkpt>
      <trkpt lat="48.974008988589048" lon="8.156917970627546">
        <ele>133.75999999999999</ele>
        <time>2018-07-10T18:06:45Z</time>
      </trkpt>
      <trkpt lat="48.973977975547314" lon="8.157044034451246">
        <ele>133.28</ele>
        <time>2018-07-10T18:06:46Z</time>
      </trkpt>
      <trkpt lat="48.973811008036137" lon="8.157113017514348">
        <ele>132.80000000000001</ele>
        <time>2018-07-10T18:06:47Z</time>
      </trkpt>
      <trkpt lat="48.973727021366358" lon="8.157197004184127">
        <ele>131.84</ele>
        <time>2018-07-10T18:06:49Z</time>
      </trkpt>
      <trkpt lat="48.973674969747663" lon="8.157346034422517">
        <ele>131.84</ele>
        <time>2018-07-10T18:06:50Z</time>
      </trkpt>
      <trkpt lat="48.973664995282888" lon="8.157488023862243">
        <ele>131.36000000000001</ele>
        <time>2018-07-10T18:06:51Z</time>
      </trkpt>
      <trkpt lat="48.973660971969366" lon="8.157542003318667">
        <ele>130.88</ele>
        <time>2018-07-10T18:06:52Z</time>
      </trkpt>
      <trkpt lat="48.973745964467525" lon="8.157852971926332">
        <ele>130.40000000000001</ele>
        <time>2018-07-10T18:06:53Z</time>
      </trkpt>
      <trkpt lat="48.973705982789397" lon="8.158032009378076">
        <ele>129.91999999999999</ele>
        <time>2018-07-10T18:06:54Z</time>
      </trkpt>
      <trkpt lat="48.973659966140985" lon="8.158233007416129">
        <ele>129.91999999999999</ele>
        <time>2018-07-10T18:06:55Z</time>
      </trkpt>
      <trkpt lat="48.973610009998083" lon="8.158454038202763">
        <ele>129.43000000000001</ele>
        <time>2018-07-10T18:06:56Z</time>
      </trkpt>
      <trkpt lat="48.973165014758706" lon="8.160370979458094">
        <ele>127.98999999999999</ele>
        <time>2018-07-10T18:07:03Z</time>
      </trkpt>
      <trkpt lat="48.972513992339373" lon="8.163040028885007">
        <ele>123.67</ele>
        <time>2018-07-10T18:07:11Z</time>
      </trkpt>
      <trkpt lat="48.971757022663951" lon="8.166093975305557">
        <ele>118.86</ele>
        <time>2018-07-10T18:07:20Z</time>
      </trkpt>
      <trkpt lat="48.971234997734427" lon="8.168581975623965">
        <ele>118.86</ele>
        <time>2018-07-10T18:07:27Z</time>
      </trkpt>
      <trkpt lat="48.971013966947794" lon="8.170665968209505">
        <ele>117.42</ele>
        <time>2018-07-10T18:07:33Z</time>
      </trkpt>
      <trkpt lat="48.97089603357017" lon="8.173828041180968">
        <ele>115.98</ele>
        <time>2018-07-10T18:07:43Z</time>
      </trkpt>
      <trkpt lat="48.970686988905072" lon="8.176389969885349">
        <ele>112.61</ele>
        <time>2018-07-10T18:07:50Z</time>
      </trkpt>
      <trkpt lat="48.970245011150837" lon="8.178855003789067">
        <ele>110.20999999999999</ele>
        <time>2018-07-10T18:07:57Z</time>
      </trkpt>
      <trkpt lat="48.969614021480083" lon="8.181283995509148">
        <ele>111.65000000000001</ele>
        <time>2018-07-10T18:08:06Z</time>
      </trkpt>
      <trkpt lat="48.969165002927184" lon="8.182940008118749">
        <ele>115.01000000000001</ele>
        <time>2018-07-10T18:08:13Z</time>
      </trkpt>
      <trkpt lat="48.968907007947564" lon="8.183960001915693">
        <ele>115.01000000000001</ele>
        <time>2018-07-10T18:08:19Z</time>
      </trkpt>
      <trkpt lat="48.968849005177617" lon="8.184075001627207">
        <ele>115.5</ele>
        <time>2018-07-10T18:08:20Z</time>
      </trkpt>
      <trkpt lat="48.96877096965909" lon="8.184143984690309">
        <ele>115.5</ele>
        <time>2018-07-10T18:08:21Z</time>
      </trkpt>
      <trkpt lat="48.96868497133255" lon="8.184195030480623">
        <ele>115.5</ele>
        <time>2018-07-10T18:08:22Z</time>
      </trkpt>
      <trkpt lat="48.968586986884475" lon="8.184229983016849">
        <ele>115.5</ele>
        <time>2018-07-10T18:08:23Z</time>
      </trkpt>
      <trkpt lat="48.968478022143245" lon="8.18421196192503">
        <ele>115.5</ele>
        <time>2018-07-10T18:08:24Z</time>
      </trkpt>
      <trkpt lat="48.968354975804687" lon="8.184192012995482">
        <ele>115.5</ele>
        <time>2018-07-10T18:08:25Z</time>
      </trkpt>
      <trkpt lat="48.967766985297203" lon="8.184116994962096">
        <ele>114.05</ele>
        <time>2018-07-10T18:08:29Z</time>
      </trkpt>
      <trkpt lat="48.967604963108897" lon="8.18414599634707">
        <ele>113.56999999999999</ele>
        <time>2018-07-10T18:08:30Z</time>
      </trkpt>
      <trkpt lat="48.966193031519651" lon="8.184497030451894">
        <ele>114.05</ele>
        <time>2018-07-10T18:08:39Z</time>
      </trkpt>
      <trkpt lat="48.965215031057596" lon="8.184548998251557">
        <ele>114.53</ele>
        <time>2018-07-10T18:08:47Z</time>
      </trkpt>
      <trkpt lat="48.965110005810857" lon="8.184552015736699">
        <ele>114.05</ele>
        <time>2018-07-10T18:08:48Z</time>
      </trkpt>
      <trkpt lat="48.965064994990826" lon="8.18461999297142">
        <ele>114.05</ele>
        <time>2018-07-10T18:08:49Z</time>
      </trkpt>
      <trkpt lat="48.965026019141078" lon="8.184735998511314">
        <ele>114.05</ele>
        <time>2018-07-10T18:08:50Z</time>
      </trkpt>
      <trkpt lat="48.965057032182813" lon="8.184921992942691">
        <ele>114.05</ele>
        <time>2018-07-10T18:08:51Z</time>
      </trkpt>
      <trkpt lat="48.965047979727387" lon="8.185011008754373">
        <ele>114.05</ele>
        <time>2018-07-10T18:08:52Z</time>
      </trkpt>
      <trkpt lat="48.965033981949091" lon="8.185171019285917">
        <ele>113.56999999999999</ele>
        <time>2018-07-10T18:08:53Z</time>
      </trkpt>
      <trkpt lat="48.965016966685653" lon="8.185355002060533">
        <ele>113.56999999999999</ele>
        <time>2018-07-10T18:08:54Z</time>
      </trkpt>
      <trkpt lat="48.964999029412866" lon="8.185554994270206">
        <ele>113.09</ele>
        <time>2018-07-10T18:08:55Z</time>
      </trkpt>
      <trkpt lat="48.964952006936073" lon="8.18577703088522">
        <ele>113.09</ele>
        <time>2018-07-10T18:08:56Z</time>
      </trkpt>
      <trkpt lat="48.964888975024223" lon="8.186008958145976">
        <ele>112.61</ele>
        <time>2018-07-10T18:08:57Z</time>
      </trkpt>
      <trkpt lat="48.964426964521408" lon="8.187590036541224">
        <ele>111.65000000000001</ele>
        <time>2018-07-10T18:09:04Z</time>
      </trkpt>
      <trkpt lat="48.964216997846961" lon="8.188097979873419">
        <ele>112.13</ele>
        <time>2018-07-10T18:09:05Z</time>
      </trkpt>
      <trkpt lat="48.964089006185532" lon="8.188316999003291">
        <ele>112.13</ele>
        <time>2018-07-10T18:09:06Z</time>
      </trkpt>
      <trkpt lat="48.96395699121058" lon="8.188527971506119">
        <ele>112.13</ele>
        <time>2018-07-10T18:09:07Z</time>
      </trkpt>
      <trkpt lat="48.963824976235628" lon="8.188741039484739">
        <ele>112.13</ele>
        <time>2018-07-10T18:09:08Z</time>
      </trkpt>
      <trkpt lat="48.963689021766186" lon="8.188953017815948">
        <ele>112.13</ele>
        <time>2018-07-10T18:09:09Z</time>
      </trkpt>
      <trkpt lat="48.962792996317148" lon="8.190022967755795">
        <ele>113.56999999999999</ele>
        <time>2018-07-10T18:09:15Z</time>
      </trkpt>
      <trkpt lat="48.962540030479431" lon="8.19033402018249">
        <ele>114.05</ele>
        <time>2018-07-10T18:09:17Z</time>
      </trkpt>
      <trkpt lat="48.962415978312492" lon="8.190493024885654">
        <ele>114.05</ele>
        <time>2018-07-10T18:09:18Z</time>
      </trkpt>
      <trkpt lat="48.961352985352278" lon="8.191957008093596">
        <ele>113.56999999999999</ele>
        <time>2018-07-10T18:09:27Z</time>
      </trkpt>
      <trkpt lat="48.960071979090571" lon="8.193057971075177">
        <ele>113.56999999999999</ele>
        <time>2018-07-10T18:09:37Z</time>
      </trkpt>
      <trkpt lat="48.959686998277903" lon="8.193718967959285">
        <ele>113.56999999999999</ele>
        <time>2018-07-10T18:09:42Z</time>
      </trkpt>
      <trkpt lat="48.959626983851194" lon="8.193832039833069">
        <ele>113.56999999999999</ele>
        <time>2018-07-10T18:09:43Z</time>
      </trkpt>
      <trkpt lat="48.959084004163742" lon="8.194992011412978">
        <ele>118.86</ele>
        <time>2018-07-10T18:09:52Z</time>
      </trkpt>
      <trkpt lat="48.958955006673932" lon="8.195158978924155">
        <ele>118.86</ele>
        <time>2018-07-10T18:09:54Z</time>
      </trkpt>
      <trkpt lat="48.958884011954069" lon="8.195202983915806">
        <ele>118.86</ele>
        <time>2018-07-10T18:09:55Z</time>
      </trkpt>
      <trkpt lat="48.958811005577445" lon="8.195226034149528">
        <ele>118.86</ele>
        <time>2018-07-10T18:09:56Z</time>
      </trkpt>
      <trkpt lat="48.958749985322356" lon="8.195231985300779">
        <ele>118.86</ele>
        <time>2018-07-10T18:09:57Z</time>
      </trkpt>
      <trkpt lat="48.958697011694312" lon="8.195237014442682">
        <ele>119.34</ele>
        <time>2018-07-10T18:09:58Z</time>
      </trkpt>
      <trkpt lat="48.958644038066268" lon="8.195242965593934">
        <ele>119.34</ele>
        <time>2018-07-10T18:09:59Z</time>
      </trkpt>
      <trkpt lat="48.958641020581126" lon="8.195242965593934">
        <ele>119.34</ele>
        <time>2018-07-10T18:10:00Z</time>
      </trkpt>
      <trkpt lat="48.958641020581126" lon="8.195242965593934">
        <ele>119.81999999999999</ele>
        <time>2018-07-10T18:10:01Z</time>
      </trkpt>
      <trkpt lat="48.958555022254586" lon="8.195353019982576">
        <ele>120.3</ele>
        <time>2018-07-10T18:10:02Z</time>
      </trkpt>
      <trkpt lat="48.958515962585807" lon="8.195402976125479">
        <ele>120.3</ele>
        <time>2018-07-10T18:10:03Z</time>
      </trkpt>
      <trkpt lat="48.958489978685975" lon="8.195436000823975">
        <ele>120.3</ele>
        <time>2018-07-10T18:10:04Z</time>
      </trkpt>
      <trkpt lat="48.958489978685975" lon="8.195436000823975">
        <ele>120.3</ele>
        <time>2018-07-10T18:10:05Z</time>
      </trkpt>
      <trkpt lat="48.958230977877975" lon="8.195309014990926">
        <ele>120.3</ele>
        <time>2018-07-10T18:10:06Z</time>
      </trkpt>
      <trkpt lat="48.958208011463284" lon="8.195385038852692">
        <ele>120.3</ele>
        <time>2018-07-10T18:10:07Z</time>
      </trkpt>
      <trkpt lat="48.958185967057943" lon="8.195457039400935">
        <ele>119.81999999999999</ele>
        <time>2018-07-10T18:10:08Z</time>
      </trkpt>
      <trkpt lat="48.958166018128395" lon="8.195523004978895">
        <ele>119.81999999999999</ele>
        <time>2018-07-10T18:10:09Z</time>
      </trkpt>
      <trkpt lat="48.95815503783524" lon="8.195625012740493">
        <ele>119.81999999999999</ele>
        <time>2018-07-10T18:10:10Z</time>
      </trkpt>
      <trkpt lat="48.958168029785156" lon="8.195690978318453">
        <ele>119.34</ele>
        <time>2018-07-10T18:10:11Z</time>
      </trkpt>
      <trkpt lat="48.958182027563453" lon="8.195760967209935">
        <ele>119.34</ele>
        <time>2018-07-10T18:10:12Z</time>
      </trkpt>
      <trkpt lat="48.958297027274966" lon="8.195844031870365">
        <ele>118.86</ele>
        <time>2018-07-10T18:10:13Z</time>
      </trkpt>
      <trkpt lat="48.958297027274966" lon="8.195844031870365">
        <ele>118.38</ele>
        <time>2018-07-10T18:10:14Z</time>
      </trkpt>
      <trkpt lat="48.958317982032895" lon="8.195894993841648">
        <ele>118.38</ele>
        <time>2018-07-10T18:10:15Z</time>
      </trkpt>
      <trkpt lat="48.958341032266617" lon="8.195951990783215">
        <ele>117.42</ele>
        <time>2018-07-10T18:10:16Z</time>
      </trkpt>
      <trkpt lat="48.958401968702674" lon="8.196104960516095">
        <ele>115.98</ele>
        <time>2018-07-10T18:10:24Z</time>
      </trkpt>
      <trkpt lat="48.95847799256444" lon="8.196290032938123">
        <ele>115.01000000000001</ele>
        <time>2018-07-10T18:10:39Z</time>
      </trkpt>
      <trkpt lat="48.958518980070949" lon="8.19637200795114">
        <ele>114.53</ele>
        <time>2018-07-10T18:10:40Z</time>
      </trkpt>
      <trkpt lat="48.95856499671936" lon="8.196462029591203">
        <ele>114.53</ele>
        <time>2018-07-10T18:10:41Z</time>
      </trkpt>
      <trkpt lat="48.958730958402157" lon="8.196790013462305">
        <ele>114.53</ele>
        <time>2018-07-10T18:10:44Z</time>
      </trkpt>
      <trkpt lat="48.958792984485626" lon="8.196912975981832">
        <ele>114.53</ele>
        <time>2018-07-10T18:10:45Z</time>
      </trkpt>
      <trkpt lat="48.959569986909628" lon="8.198506040498614">
        <ele>114.53</ele>
        <time>2018-07-10T18:10:55Z</time>
      </trkpt>
      <trkpt lat="48.96036802791059" lon="8.200792036950588">
        <ele>114.05</ele>
        <time>2018-07-10T18:11:05Z</time>
      </trkpt>
      <trkpt lat="48.961162967607379" lon="8.203746993094683">
        <ele>113.09</ele>
        <time>2018-07-10T18:11:17Z</time>
      </trkpt>
      <trkpt lat="48.961884984746575" lon="8.207065975293517">
        <ele>112.61</ele>
        <time>2018-07-10T18:11:29Z</time>
      </trkpt>
      <trkpt lat="48.962398963049054" lon="8.209470994770527">
        <ele>111.17</ele>
        <time>2018-07-10T18:11:38Z</time>
      </trkpt>
    </trkseg>
  </trk>

  <trk>
    <name>Track vom: 2018-07-10 20:11</name>
    <extensions>
      <gpxx:TrackExtension>
        <gpxx:DisplayColor>DarkGray</gpxx:DisplayColor>
      </gpxx:TrackExtension>
    </extensions>
    <trkseg>
      <trkpt lat="48.962545981630683" lon="8.210155963897705">
        <ele>111.17</ele>
        <time>2018-07-10T18:11:42Z</time>
      </trkpt>
      <trkpt lat="48.962663998827338" lon="8.210569024085999">
        <ele>111.17</ele>
        <time>2018-07-10T18:11:46Z</time>
      </trkpt>
      <trkpt lat="48.962743962183595" lon="8.210906982421875">
        <ele>111.17</ele>
        <time>2018-07-10T18:11:51Z</time>
      </trkpt>
      <trkpt lat="48.962899027392268" lon="8.211725978180766">
        <ele>111.17</ele>
        <time>2018-07-10T18:12:03Z</time>
      </trkpt>
      <trkpt lat="48.963055014610291" lon="8.212492000311613">
        <ele>112.13</ele>
        <time>2018-07-10T18:12:11Z</time>
      </trkpt>
      <trkpt lat="48.963184012100101" lon="8.213105974718928">
        <ele>112.13</ele>
        <time>2018-07-10T18:12:17Z</time>
      </trkpt>
      <trkpt lat="48.96324897184968" lon="8.213419038802385">
        <ele>112.13</ele>
        <time>2018-07-10T18:12:20Z</time>
      </trkpt>
      <trkpt lat="48.96348500624299" lon="8.214536011219025">
        <ele>112.13</ele>
        <time>2018-07-10T18:12:31Z</time>
      </trkpt>
      <trkpt lat="48.963574022054672" lon="8.214920992031694">
        <ele>112.61</ele>
        <time>2018-07-10T18:12:42Z</time>
      </trkpt>
      <trkpt lat="48.963620960712433" lon="8.215239001438022">
        <ele>113.09</ele>
        <time>2018-07-10T18:12:53Z</time>
      </trkpt>
      <trkpt lat="48.963665971532464" lon="8.215451985597611">
        <ele>113.09</ele>
        <time>2018-07-10T18:12:56Z</time>
      </trkpt>
      <trkpt lat="48.96369899623096" lon="8.215588023886085">
        <ele>113.09</ele>
        <time>2018-07-10T18:12:58Z</time>
      </trkpt>
      <trkpt lat="48.963797986507416" lon="8.216060008853674">
        <ele>114.05</ele>
        <time>2018-07-10T18:13:05Z</time>
      </trkpt>
      <trkpt lat="48.963850038126111" lon="8.216335019096732">
        <ele>114.05</ele>
        <time>2018-07-10T18:13:09Z</time>
      </trkpt>
      <trkpt lat="48.964082971215248" lon="8.217378985136747">
        <ele>112.13</ele>
        <time>2018-07-10T18:13:22Z</time>
      </trkpt>
      <trkpt lat="48.96438798867166" lon="8.21878002025187">
        <ele>112.13</ele>
        <time>2018-07-10T18:13:37Z</time>
      </trkpt>
      <trkpt lat="48.96457901224494" lon="8.219742011278868">
        <ele>114.05</ele>
        <time>2018-07-10T18:13:47Z</time>
      </trkpt>
      <trkpt lat="48.964667022228241" lon="8.220116011798382">
        <ele>113.09</ele>
        <time>2018-07-10T18:13:51Z</time>
      </trkpt>
      <trkpt lat="48.964842036366463" lon="8.220866024494171">
        <ele>110.69</ele>
        <time>2018-07-10T18:14:01Z</time>
      </trkpt>
      <trkpt lat="48.964933985844254" lon="8.22125100530684">
        <ele>109.73</ele>
        <time>2018-07-10T18:14:10Z</time>
      </trkpt>
      <trkpt lat="48.965151999145746" lon="8.222185000777245">
        <ele>110.20999999999999</ele>
        <time>2018-07-10T18:14:20Z</time>
      </trkpt>
      <trkpt lat="48.965480988845229" lon="8.223675973713398">
        <ele>109.25</ele>
        <time>2018-07-10T18:14:33Z</time>
      </trkpt>
      <trkpt lat="48.965676035732031" lon="8.224567975848913">
        <ele>110.20999999999999</ele>
        <time>2018-07-10T18:14:41Z</time>
      </trkpt>
      <trkpt lat="48.965968983247876" lon="8.225922994315624">
        <ele>110.20999999999999</ele>
        <time>2018-07-10T18:14:54Z</time>
      </trkpt>
      <trkpt lat="48.966047018766403" lon="8.226201022043824">
        <ele>110.20999999999999</ele>
        <time>2018-07-10T18:14:57Z</time>
      </trkpt>
      <trkpt lat="48.966116001829505" lon="8.226498998701572">
        <ele>110.20999999999999</ele>
        <time>2018-07-10T18:15:01Z</time>
      </trkpt>
      <trkpt lat="48.966167969629169" lon="8.226842992007732">
        <ele>110.20999999999999</ele>
        <time>2018-07-10T18:15:06Z</time>
      </trkpt>
      <trkpt lat="48.966222032904625" lon="8.227240964770317">
        <ele>109.73</ele>
        <time>2018-07-10T18:15:11Z</time>
      </trkpt>
      <trkpt lat="48.966293027624488" lon="8.227517986670137">
        <ele>109.25</ele>
        <time>2018-07-10T18:15:15Z</time>
      </trkpt>
      <trkpt lat="48.966517997905612" lon="8.228387022390962">
        <ele>106.84</ele>
        <time>2018-07-10T18:15:29Z</time>
      </trkpt>
      <trkpt lat="48.966632997617126" lon="8.228836040943861">
        <ele>108.77</ele>
        <time>2018-07-10T18:15:39Z</time>
      </trkpt>
      <trkpt lat="48.966684965416789" lon="8.229016000404954">
        <ele>108.77</ele>
        <time>2018-07-10T18:15:43Z</time>
      </trkpt>
      <trkpt lat="48.966924017295241" lon="8.229817980900407">
        <ele>109.25</ele>
        <time>2018-07-10T18:15:57Z</time>
      </trkpt>
      <trkpt lat="48.966959975659847" lon="8.22993298061192">
        <ele>109.25</ele>
        <time>2018-07-10T18:15:59Z</time>
      </trkpt>
      <trkpt lat="48.967140018939972" lon="8.230559024959803">
        <ele>110.20999999999999</ele>
        <time>2018-07-10T18:16:10Z</time>
      </trkpt>
      <trkpt lat="48.967215958982706" lon="8.230787012726069">
        <ele>109.25</ele>
        <time>2018-07-10T18:16:20Z</time>
      </trkpt>
      <trkpt lat="48.967270022258162" lon="8.230886003002524">
        <ele>109.73</ele>
        <time>2018-07-10T18:16:28Z</time>
      </trkpt>
      <trkpt lat="48.967270022258162" lon="8.230886003002524">
        <ele>109.73</ele>
        <time>2018-07-10T18:16:56Z</time>
      </trkpt>
    </trkseg>
  </trk>

  <trk>
    <name>Track vom: 2018-07-10 20:24</name>
    <extensions>
      <gpxx:TrackExtension>
        <gpxx:DisplayColor>DarkGray</gpxx:DisplayColor>
      </gpxx:TrackExtension>
    </extensions>
    <trkseg>
      <trkpt lat="48.967258958145976" lon="8.230895977467299">
        <ele>111.17</ele>
        <time>2018-07-10T18:24:52Z</time>
      </trkpt>
      <trkpt lat="48.967258958145976" lon="8.230892959982157">
        <ele>111.17</ele>
        <time>2018-07-10T18:25:51Z</time>
      </trkpt>
      <trkpt lat="48.967291982844472" lon="8.230896983295679">
        <ele>111.17</ele>
        <time>2018-07-10T18:26:30Z</time>
      </trkpt>
      <trkpt lat="48.967301035299897" lon="8.230887008830905">
        <ele>111.17</ele>
        <time>2018-07-10T18:26:31Z</time>
      </trkpt>
      <trkpt lat="48.967311009764671" lon="8.230849960818887">
        <ele>111.65000000000001</ele>
        <time>2018-07-10T18:26:33Z</time>
      </trkpt>
      <trkpt lat="48.967248983681202" lon="8.230763040482998">
        <ele>113.56999999999999</ele>
        <time>2018-07-10T18:26:51Z</time>
      </trkpt>
      <trkpt lat="48.9670280367136" lon="8.230206985026598">
        <ele>113.56999999999999</ele>
        <time>2018-07-10T18:27:02Z</time>
      </trkpt>
      <trkpt lat="48.966913037002087" lon="8.229831978678703">
        <ele>113.09</ele>
        <time>2018-07-10T18:27:09Z</time>
      </trkpt>
      <trkpt lat="48.966811029240489" lon="8.229473987594247">
        <ele>112.61</ele>
        <time>2018-07-10T18:27:15Z</time>
      </trkpt>
      <trkpt lat="48.966630985960364" lon="8.228928996250033">
        <ele>113.56999999999999</ele>
        <time>2018-07-10T18:27:24Z</time>
      </trkpt>
      <trkpt lat="48.966605002060533" lon="8.228821959346533">
        <ele>114.05</ele>
        <time>2018-07-10T18:27:26Z</time>
      </trkpt>
      <trkpt lat="48.966542975977063" lon="8.228581985458732">
        <ele>114.05</ele>
        <time>2018-07-10T18:27:29Z</time>
      </trkpt>
      <trkpt lat="48.966461000964046" lon="8.228299012407661">
        <ele>114.53</ele>
        <time>2018-07-10T18:27:32Z</time>
      </trkpt>
      <trkpt lat="48.966416995972395" lon="8.228100026026368">
        <ele>115.01000000000001</ele>
        <time>2018-07-10T18:27:34Z</time>
      </trkpt>
      <trkpt lat="48.966185990720987" lon="8.227058993652463">
        <ele>116.94</ele>
        <time>2018-07-10T18:27:44Z</time>
      </trkpt>
      <trkpt lat="48.966017011553049" lon="8.226247960701585">
        <ele>116.45999999999999</ele>
        <time>2018-07-10T18:27:51Z</time>
      </trkpt>
      <trkpt lat="48.965844009071589" lon="8.225357970222831">
        <ele>115.98</ele>
        <time>2018-07-10T18:27:59Z</time>
      </trkpt>
      <trkpt lat="48.965710988268256" lon="8.224780960008502">
        <ele>115.01000000000001</ele>
        <time>2018-07-10T18:28:04Z</time>
      </trkpt>
      <trkpt lat="48.965639993548393" lon="8.224436966702342">
        <ele>115.01000000000001</ele>
        <time>2018-07-10T18:28:07Z</time>
      </trkpt>
      <trkpt lat="48.965358026325703" lon="8.223199965432286">
        <ele>114.05</ele>
        <time>2018-07-10T18:28:18Z</time>
      </trkpt>
      <trkpt lat="48.965064994990826" lon="8.221863973885775">
        <ele>113.09</ele>
        <time>2018-07-10T18:28:30Z</time>
      </trkpt>
      <trkpt lat="48.964700968936086" lon="8.220239980146289">
        <ele>111.65000000000001</ele>
        <time>2018-07-10T18:28:43Z</time>
      </trkpt>
      <trkpt lat="48.964582029730082" lon="8.219718961045146">
        <ele>111.65000000000001</ele>
        <time>2018-07-10T18:28:47Z</time>
      </trkpt>
      <trkpt lat="48.964497959241271" lon="8.219347978010774">
        <ele>111.65000000000001</ele>
        <time>2018-07-10T18:28:50Z</time>
      </trkpt>
      <trkpt lat="48.964264020323753" lon="8.218214996159077">
        <ele>114.05</ele>
        <time>2018-07-10T18:28:59Z</time>
      </trkpt>
      <trkpt lat="48.963863030076027" lon="8.216343987733126">
        <ele>114.05</ele>
        <time>2018-07-10T18:29:14Z</time>
      </trkpt>
      <trkpt lat="48.963839979842305" lon="8.216212978586555">
        <ele>114.05</ele>
        <time>2018-07-10T18:29:15Z</time>
      </trkpt>
      <trkpt lat="48.963787006214261" lon="8.215970993041992">
        <ele>114.05</ele>
        <time>2018-07-10T18:29:17Z</time>
      </trkpt>
      <trkpt lat="48.963608974590898" lon="8.215101035311818">
        <ele>113.56999999999999</ele>
        <time>2018-07-10T18:29:26Z</time>
      </trkpt>
      <trkpt lat="48.963591959327459" lon="8.214938007295132">
        <ele>113.56999999999999</ele>
        <time>2018-07-10T18:29:29Z</time>
      </trkpt>
      <trkpt lat="48.963529011234641" lon="8.214683029800654">
        <ele>113.56999999999999</ele>
        <time>2018-07-10T18:29:32Z</time>
      </trkpt>
      <trkpt lat="48.963218964636326" lon="8.213328011333942">
        <ele>114.05</ele>
        <time>2018-07-10T18:29:40Z</time>
      </trkpt>
      <trkpt lat="48.962725019082427" lon="8.210971020162106">
        <ele>115.01000000000001</ele>
        <time>2018-07-10T18:29:50Z</time>
      </trkpt>
      <trkpt lat="48.962343977764249" lon="8.209210988134146">
        <ele>117.42</ele>
        <time>2018-07-10T18:29:58Z</time>
      </trkpt>
      <trkpt lat="48.961859000846744" lon="8.206946030259132">
        <ele>117.42</ele>
        <time>2018-07-10T18:30:08Z</time>
      </trkpt>
      <trkpt lat="48.961342005059123" lon="8.20455702021718">
        <ele>116.45999999999999</ele>
        <time>2018-07-10T18:30:18Z</time>
      </trkpt>
      <trkpt lat="48.960687965154648" lon="8.201883025467396">
        <ele>117.42</ele>
        <time>2018-07-10T18:30:30Z</time>
      </trkpt>
      <trkpt lat="48.959996961057186" lon="8.199710017070174">
        <ele>115.5</ele>
        <time>2018-07-10T18:30:39Z</time>
      </trkpt>
      <trkpt lat="48.959368988871574" lon="8.198063978925347">
        <ele>116.94</ele>
        <time>2018-07-10T18:30:47Z</time>
      </trkpt>
      <trkpt lat="48.958503976464272" lon="8.196340994909406">
        <ele>117.42</ele>
        <time>2018-07-10T18:30:57Z</time>
      </trkpt>
      <trkpt lat="48.958442034199834" lon="8.196204034611583">
        <ele>117.90000000000001</ele>
        <time>2018-07-10T18:30:58Z</time>
      </trkpt>
      <trkpt lat="48.95839300006628" lon="8.196082999929786">
        <ele>118.86</ele>
        <time>2018-07-10T18:30:59Z</time>
      </trkpt>
      <trkpt lat="48.958146991208196" lon="8.195586036890745">
        <ele>120.78</ele>
        <time>2018-07-10T18:31:05Z</time>
      </trkpt>
      <trkpt lat="48.958146991208196" lon="8.195586036890745">
        <ele>120.3</ele>
        <time>2018-07-10T18:31:06Z</time>
      </trkpt>
      <trkpt lat="48.958187978714705" lon="8.195452010259032">
        <ele>120.3</ele>
        <time>2018-07-10T18:31:07Z</time>
      </trkpt>
      <trkpt lat="48.958205999806523" lon="8.195389984175563">
        <ele>120.3</ele>
        <time>2018-07-10T18:31:08Z</time>
      </trkpt>
      <trkpt lat="48.958225026726723" lon="8.195330975577235">
        <ele>119.81999999999999</ele>
        <time>2018-07-10T18:31:09Z</time>
      </trkpt>
      <trkpt lat="48.95824103616178" lon="8.195276996120811">
        <ele>119.81999999999999</ele>
        <time>2018-07-10T18:31:10Z</time>
      </trkpt>
      <trkpt lat="48.958256961777806" lon="8.195223016664386">
        <ele>119.81999999999999</ele>
        <time>2018-07-10T18:31:11Z</time>
      </trkpt>
      <trkpt lat="48.958272971212864" lon="8.195170965045691">
        <ele>119.81999999999999</ele>
        <time>2018-07-10T18:31:12Z</time>
      </trkpt>
      <trkpt lat="48.958430970087647" lon="8.195180017501116">
        <ele>119.34</ele>
        <time>2018-07-10T18:31:13Z</time>
      </trkpt>
      <trkpt lat="48.958443040028214" lon="8.195231985300779">
        <ele>119.34</ele>
        <time>2018-07-10T18:31:14Z</time>
      </trkpt>
      <trkpt lat="48.958641020581126" lon="8.195242965593934">
        <ele>119.34</ele>
        <time>2018-07-10T18:31:17Z</time>
      </trkpt>
      <trkpt lat="48.958708997815847" lon="8.195236008614302">
        <ele>119.34</ele>
        <time>2018-07-10T18:31:19Z</time>
      </trkpt>
      <trkpt lat="48.958765994757414" lon="8.195229973644018">
        <ele>118.86</ele>
        <time>2018-07-10T18:31:20Z</time>
      </trkpt>
      <trkpt lat="48.958835983648896" lon="8.195223016664386">
        <ele>118.38</ele>
        <time>2018-07-10T18:31:21Z</time>
      </trkpt>
      <trkpt lat="48.958912007510662" lon="8.195185968652368">
        <ele>117.90000000000001</ele>
        <time>2018-07-10T18:31:22Z</time>
      </trkpt>
      <trkpt lat="48.958987025544047" lon="8.195139029994607">
        <ele>117.42</ele>
        <time>2018-07-10T18:31:23Z</time>
      </trkpt>
      <trkpt lat="48.959056008607149" lon="8.195051020011306">
        <ele>116.94</ele>
        <time>2018-07-10T18:31:24Z</time>
      </trkpt>
      <trkpt lat="48.959108982235193" lon="8.194938031956554">
        <ele>116.94</ele>
        <time>2018-07-10T18:31:25Z</time>
      </trkpt>
      <trkpt lat="48.959162961691618" lon="8.194821020588279">
        <ele>116.45999999999999</ele>
        <time>2018-07-10T18:31:26Z</time>
      </trkpt>
      <trkpt lat="48.959220964461565" lon="8.194695962592959">
        <ele>115.98</ele>
        <time>2018-07-10T18:31:27Z</time>
      </trkpt>
      <trkpt lat="48.959781965240836" lon="8.193539008498192">
        <ele>114.53</ele>
        <time>2018-07-10T18:31:37Z</time>
      </trkpt>
      <trkpt lat="48.960081031545997" lon="8.193049002438784">
        <ele>115.01000000000001</ele>
        <time>2018-07-10T18:31:41Z</time>
      </trkpt>
      <trkpt lat="48.960183961316943" lon="8.192938026040793">
        <ele>115.01000000000001</ele>
        <time>2018-07-10T18:31:42Z</time>
      </trkpt>
      <trkpt lat="48.960295021533966" lon="8.192819003015757">
        <ele>115.01000000000001</ele>
        <time>2018-07-10T18:31:43Z</time>
      </trkpt>
      <trkpt lat="48.96041396073997" lon="8.192710038274527">
        <ele>115.5</ele>
        <time>2018-07-10T18:31:44Z</time>
      </trkpt>
      <trkpt lat="48.96054295822978" lon="8.192603001371026">
        <ele>115.5</ele>
        <time>2018-07-10T18:31:46Z</time>
      </trkpt>
      <trkpt lat="48.961503021419048" lon="8.191823987290263">
        <ele>114.53</ele>
        <time>2018-07-10T18:31:52Z</time>
      </trkpt>
      <trkpt lat="48.961641993373632" lon="8.191700018942356">
        <ele>114.53</ele>
        <time>2018-07-10T18:31:53Z</time>
      </trkpt>
      <trkpt lat="48.961769985035062" lon="8.191527016460896">
        <ele>114.53</ele>
        <time>2018-07-10T18:31:54Z</time>
      </trkpt>
      <trkpt lat="48.961888002231717" lon="8.191339010372758">
        <ele>115.01000000000001</ele>
        <time>2018-07-10T18:31:55Z</time>
      </trkpt>
      <trkpt lat="48.962009036913514" lon="8.191145975142717">
        <ele>115.01000000000001</ele>
        <time>2018-07-10T18:31:56Z</time>
      </trkpt>
      <trkpt lat="48.963240003213286" lon="8.189486023038626">
        <ele>115.01000000000001</ele>
        <time>2018-07-10T18:32:05Z</time>
      </trkpt>
      <trkpt lat="48.964267959818244" lon="8.187985997647047">
        <ele>114.05</ele>
        <time>2018-07-10T18:32:13Z</time>
      </trkpt>
      <trkpt lat="48.964887969195843" lon="8.186009963974357">
        <ele>112.13</ele>
        <time>2018-07-10T18:32:21Z</time>
      </trkpt>
      <trkpt lat="48.96515803411603" lon="8.185075968503952">
        <ele>113.09</ele>
        <time>2018-07-10T18:32:27Z</time>
      </trkpt>
      <trkpt lat="48.96518100053072" lon="8.185001034289599">
        <ele>113.56999999999999</ele>
        <time>2018-07-10T18:32:28Z</time>
      </trkpt>
      <trkpt lat="48.965234979987144" lon="8.184936996549368">
        <ele>114.05</ele>
        <time>2018-07-10T18:32:29Z</time>
      </trkpt>
      <trkpt lat="48.965299017727375" lon="8.184872958809137">
        <ele>114.53</ele>
        <time>2018-07-10T18:32:30Z</time>
      </trkpt>
      <trkpt lat="48.96537302993238" lon="8.184815961867571">
        <ele>114.53</ele>
        <time>2018-07-10T18:32:31Z</time>
      </trkpt>
      <trkpt lat="48.965461039915681" lon="8.184754019603133">
        <ele>115.01000000000001</ele>
        <time>2018-07-10T18:32:32Z</time>
      </trkpt>
      <trkpt lat="48.965561036020517" lon="8.18468302488327">
        <ele>115.01000000000001</ele>
        <time>2018-07-10T18:32:33Z</time>
      </trkpt>
      <trkpt lat="48.965678969398141" lon="8.18459996022284">
        <ele>115.01000000000001</ele>
        <time>2018-07-10T18:32:34Z</time>
      </trkpt>
      <trkpt lat="48.965792041271925" lon="8.18457699380815">
        <ele>115.01000000000001</ele>
        <time>2018-07-10T18:32:35Z</time>
      </trkpt>
      <trkpt lat="48.967290977016091" lon="8.1842100340873">
        <ele>115.01000000000001</ele>
        <time>2018-07-10T18:32:46Z</time>
      </trkpt>
      <trkpt lat="48.968009976670146" lon="8.184136021882296">
        <ele>114.53</ele>
        <time>2018-07-10T18:32:51Z</time>
      </trkpt>
      <trkpt lat="48.96851297467947" lon="8.184217996895313">
        <ele>114.53</ele>
        <time>2018-07-10T18:32:55Z</time>
      </trkpt>
      <trkpt lat="48.968616994097829" lon="8.184235012158752">
        <ele>114.53</ele>
        <time>2018-07-10T18:32:56Z</time>
      </trkpt>
      <trkpt lat="48.968706009909511" lon="8.184182960540056">
        <ele>114.53</ele>
        <time>2018-07-10T18:32:57Z</time>
      </trkpt>
      <trkpt lat="48.968788990750909" lon="8.184133004397154">
        <ele>114.53</ele>
        <time>2018-07-10T18:32:58Z</time>
      </trkpt>
      <trkpt lat="48.968853028491139" lon="8.184067038819194">
        <ele>114.53</ele>
        <time>2018-07-10T18:32:59Z</time>
      </trkpt>
      <trkpt lat="48.968902984634042" lon="8.183966036885977">
        <ele>114.53</ele>
        <time>2018-07-10T18:33:00Z</time>
      </trkpt>
      <trkpt lat="48.968937015160918" lon="8.183862017467618">
        <ele>114.53</ele>
        <time>2018-07-10T18:33:01Z</time>
      </trkpt>
      <trkpt lat="48.968956964090466" lon="8.183747017756105">
        <ele>114.53</ele>
        <time>2018-07-10T18:33:02Z</time>
      </trkpt>
      <trkpt lat="48.968990994617343" lon="8.183624977245927">
        <ele>114.05</ele>
        <time>2018-07-10T18:33:03Z</time>
      </trkpt>
      <trkpt lat="48.969165002927184" lon="8.182939002290368">
        <ele>114.53</ele>
        <time>2018-07-10T18:33:09Z</time>
      </trkpt>
      <trkpt lat="48.969192998483777" lon="8.182834982872009">
        <ele>114.53</ele>
        <time>2018-07-10T18:33:10Z</time>
      </trkpt>
      <trkpt lat="48.969214959070086" lon="8.182753007858992">
        <ele>114.53</ele>
        <time>2018-07-10T18:33:11Z</time>
      </trkpt>
      <trkpt lat="48.969231974333525" lon="8.182688970118761">
        <ele>114.53</ele>
        <time>2018-07-10T18:33:12Z</time>
      </trkpt>
      <trkpt lat="48.969593988731503" lon="8.183056013658643">
        <ele>114.53</ele>
        <time>2018-07-10T18:33:15Z</time>
      </trkpt>
      <trkpt lat="48.969638999551535" lon="8.183025000616908">
        <ele>114.05</ele>
        <time>2018-07-10T18:33:16Z</time>
      </trkpt>
      <trkpt lat="48.969680992886424" lon="8.182998010888696">
        <ele>114.05</ele>
        <time>2018-07-10T18:33:17Z</time>
      </trkpt>
      <trkpt lat="48.969718962907791" lon="8.182973032817245">
        <ele>114.05</ele>
        <time>2018-07-10T18:33:18Z</time>
      </trkpt>
      <trkpt lat="48.969819964841008" lon="8.182904971763492">
        <ele>114.05</ele>
        <time>2018-07-10T18:33:19Z</time>
      </trkpt>
      <trkpt lat="48.969819964841008" lon="8.182904971763492">
        <ele>114.05</ele>
        <time>2018-07-10T18:33:20Z</time>
      </trkpt>
      <trkpt lat="48.969881990924478" lon="8.182873958721757">
        <ele>114.05</ele>
        <time>2018-07-10T18:33:21Z</time>
      </trkpt>
      <trkpt lat="48.969950973987579" lon="8.182839006185532">
        <ele>114.05</ele>
        <time>2018-07-10T18:33:22Z</time>
      </trkpt>
      <trkpt lat="48.970023980364203" lon="8.182802964001894">
        <ele>114.05</ele>
        <time>2018-07-10T18:33:23Z</time>
      </trkpt>
      <trkpt lat="48.970254985615611" lon="8.182712020352483">
        <ele>113.56999999999999</ele>
        <time>2018-07-10T18:33:26Z</time>
      </trkpt>
      <trkpt lat="48.97033603861928" lon="8.182773040607572">
        <ele>113.09</ele>
        <time>2018-07-10T18:33:27Z</time>
      </trkpt>
      <trkpt lat="48.970404015854001" lon="8.18283699452877">
        <ele>112.61</ele>
        <time>2018-07-10T18:33:28Z</time>
      </trkpt>
      <trkpt lat="48.970477022230625" lon="8.182905977591872">
        <ele>112.13</ele>
        <time>2018-07-10T18:33:29Z</time>
      </trkpt>
      <trkpt lat="48.970552962273359" lon="8.182976972311735">
        <ele>111.65000000000001</ele>
        <time>2018-07-10T18:33:30Z</time>
      </trkpt>
      <trkpt lat="48.97166901268065" lon="8.18408296443522">
        <ele>115.5</ele>
        <time>2018-07-10T18:33:43Z</time>
      </trkpt>
      <trkpt lat="48.972236970439553" lon="8.184585962444544">
        <ele>117.90000000000001</ele>
        <time>2018-07-10T18:33:49Z</time>
      </trkpt>
      <trkpt lat="48.97233503870666" lon="8.18464295938611">
        <ele>118.86</ele>
        <time>2018-07-10T18:33:50Z</time>
      </trkpt>
      <trkpt lat="48.972436040639877" lon="8.184647988528013">
        <ele>118.86</ele>
        <time>2018-07-10T18:33:51Z</time>
      </trkpt>
      <trkpt lat="48.973568016663194" lon="8.184733986854553">
        <ele>121.26000000000001</ele>
        <time>2018-07-10T18:34:02Z</time>
      </trkpt>
      <trkpt lat="48.973682010546327" lon="8.184749996289611">
        <ele>121.26000000000001</ele>
        <time>2018-07-10T18:34:03Z</time>
      </trkpt>
      <trkpt lat="48.973746970295906" lon="8.184729041531682">
        <ele>121.26000000000001</ele>
        <time>2018-07-10T18:34:04Z</time>
      </trkpt>
      <trkpt lat="48.973828023299575" lon="8.184654023498297">
        <ele>121.26000000000001</ele>
        <time>2018-07-10T18:34:05Z</time>
      </trkpt>
      <trkpt lat="48.973917039111257" lon="8.184571964666247">
        <ele>120.78</ele>
        <time>2018-07-10T18:34:06Z</time>
      </trkpt>
      <trkpt lat="48.974009994417429" lon="8.184484960511327">
        <ele>120.78</ele>
        <time>2018-07-10T18:34:07Z</time>
      </trkpt>
      <trkpt lat="48.974798982962966" lon="8.183789011090994">
        <ele>119.81999999999999</ele>
        <time>2018-07-10T18:34:15Z</time>
      </trkpt>
      <trkpt lat="48.974896967411041" lon="8.18371600471437">
        <ele>119.81999999999999</ele>
        <time>2018-07-10T18:34:16Z</time>
      </trkpt>
      <trkpt lat="48.974999981001019" lon="8.1836539786309">
        <ele>119.34</ele>
        <time>2018-07-10T18:34:17Z</time>
      </trkpt>
      <trkpt lat="48.975102994590998" lon="8.183607961982489">
        <ele>119.34</ele>
        <time>2018-07-10T18:34:18Z</time>
      </trkpt>
      <trkpt lat="48.975206008180976" lon="8.183562029153109">
        <ele>119.34</ele>
        <time>2018-07-10T18:34:19Z</time>
      </trkpt>
      <trkpt lat="48.975495016202331" lon="8.183432025834918">
        <ele>118.86</ele>
        <time>2018-07-10T18:34:22Z</time>
      </trkpt>
      <trkpt lat="48.97558000870049" lon="8.183378968387842">
        <ele>118.86</ele>
        <time>2018-07-10T18:34:23Z</time>
      </trkpt>
      <trkpt lat="48.975634993985295" lon="8.183271009474993">
        <ele>119.34</ele>
        <time>2018-07-10T18:34:24Z</time>
      </trkpt>
      <trkpt lat="48.97568897344172" lon="8.183149974793196">
        <ele>119.34</ele>
        <time>2018-07-10T18:34:25Z</time>
      </trkpt>
      <trkpt lat="48.975735995918512" lon="8.183009997010231">
        <ele>119.34</ele>
        <time>2018-07-10T18:34:26Z</time>
      </trkpt>
      <trkpt lat="48.975783018395305" lon="8.182869013398886">
        <ele>119.81999999999999</ele>
        <time>2018-07-10T18:34:27Z</time>
      </trkpt>
      <trkpt lat="48.975827023386955" lon="8.182738004252315">
        <ele>120.3</ele>
        <time>2018-07-10T18:34:28Z</time>
      </trkpt>
      <trkpt lat="48.975925007835031" lon="8.182513033971191">
        <ele>120.3</ele>
        <time>2018-07-10T18:34:30Z</time>
      </trkpt>
      <trkpt lat="48.975973036140203" lon="8.182415971532464">
        <ele>120.3</ele>
        <time>2018-07-10T18:34:31Z</time>
      </trkpt>
      <trkpt lat="48.976017041131854" lon="8.182323016226292">
        <ele>120.3</ele>
        <time>2018-07-10T18:34:32Z</time>
      </trkpt>
      <trkpt lat="48.976057022809982" lon="8.182241963222623">
        <ele>120.3</ele>
        <time>2018-07-10T18:34:33Z</time>
      </trkpt>
      <trkpt lat="48.976089041680098" lon="8.182177003473043">
        <ele>120.3</ele>
        <time>2018-07-10T18:34:34Z</time>
      </trkpt>
      <trkpt lat="48.976109996438026" lon="8.182131992653012">
        <ele>119.81999999999999</ele>
        <time>2018-07-10T18:34:35Z</time>
      </trkpt>
      <trkpt lat="48.976123994216323" lon="8.182102991268039">
        <ele>119.81999999999999</ele>
        <time>2018-07-10T18:34:36Z</time>
      </trkpt>
      <trkpt lat="48.976123994216323" lon="8.182102991268039">
        <ele>119.81999999999999</ele>
        <time>2018-07-10T18:34:48Z</time>
      </trkpt>
      <trkpt lat="48.976235976442695" lon="8.181929988786578">
        <ele>118.86</ele>
        <time>2018-07-10T18:34:52Z</time>
      </trkpt>
      <trkpt lat="48.976279981434345" lon="8.181953961029649">
        <ele>118.86</ele>
        <time>2018-07-10T18:34:53Z</time>
      </trkpt>
      <trkpt lat="48.976341001689434" lon="8.181988997384906">
        <ele>118.86</ele>
        <time>2018-07-10T18:34:54Z</time>
      </trkpt>
      <trkpt lat="48.976413002237678" lon="8.182028979063034">
        <ele>118.86</ele>
        <time>2018-07-10T18:34:55Z</time>
      </trkpt>
      <trkpt lat="48.976487014442682" lon="8.182070972397924">
        <ele>118.38</ele>
        <time>2018-07-10T18:34:56Z</time>
      </trkpt>
      <trkpt lat="48.976566977798939" lon="8.182111959904432">
        <ele>118.38</ele>
        <time>2018-07-10T18:34:57Z</time>
      </trkpt>
      <trkpt lat="48.977393014356494" lon="8.182245986536145">
        <ele>116.94</ele>
        <time>2018-07-10T18:35:07Z</time>
      </trkpt>
      <trkpt lat="48.978017969056964" lon="8.182328967377543">
        <ele>114.05</ele>
        <time>2018-07-10T18:35:16Z</time>
      </trkpt>
      <trkpt lat="48.978190971538424" lon="8.182341959327459">
        <ele>113.56999999999999</ele>
        <time>2018-07-10T18:35:19Z</time>
      </trkpt>
      <trkpt lat="48.978262972086668" lon="8.182361992076039">
        <ele>113.09</ele>
        <time>2018-07-10T18:35:20Z</time>
      </trkpt>
      <trkpt lat="48.978295996785164" lon="8.182411026209593">
        <ele>113.09</ele>
        <time>2018-07-10T18:35:21Z</time>
      </trkpt>
      <trkpt lat="48.978332038968801" lon="8.182526025921106">
        <ele>112.61</ele>
        <time>2018-07-10T18:35:22Z</time>
      </trkpt>
      <trkpt lat="48.978363974019885" lon="8.182629039511085">
        <ele>112.61</ele>
        <time>2018-07-10T18:35:23Z</time>
      </trkpt>
      <trkpt lat="48.978401022031903" lon="8.182744039222598">
        <ele>113.09</ele>
        <time>2018-07-10T18:35:24Z</time>
      </trkpt>
      <trkpt lat="48.978792959824204" lon="8.184041976928711">
        <ele>117.90000000000001</ele>
        <time>2018-07-10T18:35:33Z</time>
      </trkpt>
      <trkpt lat="48.979115998372436" lon="8.185144029557705">
        <ele>120.78</ele>
        <time>2018-07-10T18:35:41Z</time>
      </trkpt>
      <trkpt lat="48.979139970615506" lon="8.185247965157032">
        <ele>121.26000000000001</ele>
        <time>2018-07-10T18:35:42Z</time>
      </trkpt>
      <trkpt lat="48.979110969230533" lon="8.185372017323971">
        <ele>121.26000000000001</ele>
        <time>2018-07-10T18:35:43Z</time>
      </trkpt>
      <trkpt lat="48.979097977280617" lon="8.185453992336988">
        <ele>121.73999999999999</ele>
        <time>2018-07-10T18:35:44Z</time>
      </trkpt>
      <trkpt lat="48.979110969230533" lon="8.185563962906599">
        <ele>121.73999999999999</ele>
        <time>2018-07-10T18:35:45Z</time>
      </trkpt>
      <trkpt lat="48.979137958958745" lon="8.185647027567029">
        <ele>121.73999999999999</ele>
        <time>2018-07-10T18:35:46Z</time>
      </trkpt>
      <trkpt lat="48.97921297699213" lon="8.185765966773033">
        <ele>121.73999999999999</ele>
        <time>2018-07-10T18:35:47Z</time>
      </trkpt>
      <trkpt lat="48.979268968105316" lon="8.18577703088522">
        <ele>121.73999999999999</ele>
        <time>2018-07-10T18:35:48Z</time>
      </trkpt>
      <trkpt lat="48.979337029159069" lon="8.185725985094905">
        <ele>121.73999999999999</ele>
        <time>2018-07-10T18:35:49Z</time>
      </trkpt>
      <trkpt lat="48.979368964210153" lon="8.18569396622479">
        <ele>122.22</ele>
        <time>2018-07-10T18:35:50Z</time>
      </trkpt>
      <trkpt lat="48.979376005008817" lon="8.185597993433476">
        <ele>122.70999999999999</ele>
        <time>2018-07-10T18:35:51Z</time>
      </trkpt>
      <trkpt lat="48.979382961988449" lon="8.185507971793413">
        <ele>122.70999999999999</ele>
        <time>2018-07-10T18:35:52Z</time>
      </trkpt>
      <trkpt lat="48.979436019435525" lon="8.18537000566721">
        <ele>122.70999999999999</ele>
        <time>2018-07-10T18:35:53Z</time>
      </trkpt>
      <trkpt lat="48.979501985013485" lon="8.18530404008925">
        <ele>122.70999999999999</ele>
        <time>2018-07-10T18:35:54Z</time>
      </trkpt>
      <trkpt lat="48.979583960026503" lon="8.185230027884245">
        <ele>122.70999999999999</ele>
        <time>2018-07-10T18:35:55Z</time>
      </trkpt>
      <trkpt lat="48.980058040469885" lon="8.184815039858222">
        <ele>123.19</ele>
        <time>2018-07-10T18:36:02Z</time>
      </trkpt>
      <trkpt lat="48.980075977742672" lon="8.184799030423164">
        <ele>123.19</ele>
        <time>2018-07-10T18:36:03Z</time>
      </trkpt>
      <trkpt lat="48.980085030198097" lon="8.18479098379612">
        <ele>123.19</ele>
        <time>2018-07-10T18:36:04Z</time>
      </trkpt>
      <trkpt lat="48.980018980801105" lon="8.184848986566067">
        <ele>123.67</ele>
        <time>2018-07-10T18:36:12Z</time>
      </trkpt>
      <trkpt lat="48.979678004980087" lon="8.185147969052196">
        <ele>124.15000000000001</ele>
        <time>2018-07-10T18:36:18Z</time>
      </trkpt>
      <trkpt lat="48.979613967239857" lon="8.185203038156033">
        <ele>124.63</ele>
        <time>2018-07-10T18:36:19Z</time>
      </trkpt>
      <trkpt lat="48.979550013318658" lon="8.185259029269218">
        <ele>124.63</ele>
        <time>2018-07-10T18:36:20Z</time>
      </trkpt>
      <trkpt lat="48.979445993900299" lon="8.185359025374055">
        <ele>124.63</ele>
        <time>2018-07-10T18:36:22Z</time>
      </trkpt>
      <trkpt lat="48.979261005297303" lon="8.185287024825811">
        <ele>124.63</ele>
        <time>2018-07-10T18:36:23Z</time>
      </trkpt>
      <trkpt lat="48.979213982820511" lon="8.185295993462205">
        <ele>124.63</ele>
        <time>2018-07-10T18:36:25Z</time>
      </trkpt>
      <trkpt lat="48.979142988100648" lon="8.185324994847179">
        <ele>125.11</ele>
        <time>2018-07-10T18:36:26Z</time>
      </trkpt>
      <trkpt lat="48.979105018079281" lon="8.185407975688577">
        <ele>125.11</ele>
        <time>2018-07-10T18:36:27Z</time>
      </trkpt>
      <trkpt lat="48.979092026129365" lon="8.185487017035484">
        <ele>125.11</ele>
        <time>2018-07-10T18:36:28Z</time>
      </trkpt>
      <trkpt lat="48.979120021685958" lon="8.185590030625463">
        <ele>125.11</ele>
        <time>2018-07-10T18:36:29Z</time>
      </trkpt>
      <trkpt lat="48.979149023070931" lon="8.185679968446493">
        <ele>125.11</ele>
        <time>2018-07-10T18:36:30Z</time>
      </trkpt>
      <trkpt lat="48.979219011962414" lon="8.185766972601414">
        <ele>125.11</ele>
        <time>2018-07-10T18:36:31Z</time>
      </trkpt>
      <trkpt lat="48.979282965883613" lon="8.18577996455133">
        <ele>125.11</ele>
        <time>2018-07-10T18:36:32Z</time>
      </trkpt>
      <trkpt lat="48.979282965883613" lon="8.18577996455133">
        <ele>124.63</ele>
        <time>2018-07-10T18:36:33Z</time>
      </trkpt>
      <trkpt lat="48.97944800555706" lon="8.185819024220109">
        <ele>124.63</ele>
        <time>2018-07-10T18:36:34Z</time>
      </trkpt>
      <trkpt lat="48.979519000276923" lon="8.1859300006181">
        <ele>124.63</ele>
        <time>2018-07-10T18:36:35Z</time>
      </trkpt>
      <trkpt lat="48.979589994996786" lon="8.186063021421433">
        <ele>125.11</ele>
        <time>2018-07-10T18:36:36Z</time>
      </trkpt>
      <trkpt lat="48.980332966893911" lon="8.187360037118197">
        <ele>124.63</ele>
        <time>2018-07-10T18:36:43Z</time>
      </trkpt>
      <trkpt lat="48.981857970356941" lon="8.189997989684343">
        <ele>124.15000000000001</ele>
        <time>2018-07-10T18:36:54Z</time>
      </trkpt>
      <trkpt lat="48.983776001259685" lon="8.193316971883178">
        <ele>123.67</ele>
        <time>2018-07-10T18:37:09Z</time>
      </trkpt>
      <trkpt lat="48.985769972205162" lon="8.196726981550455">
        <ele>126.06999999999999</ele>
        <time>2018-07-10T18:37:25Z</time>
      </trkpt>
      <trkpt lat="48.986793989315629" lon="8.198491036891937">
        <ele>126.55</ele>
        <time>2018-07-10T18:37:34Z</time>
      </trkpt>
      <trkpt lat="48.988306000828743" lon="8.201088001951575">
        <ele>126.06999999999999</ele>
        <time>2018-07-10T18:37:48Z</time>
      </trkpt>
      <trkpt lat="48.989590024575591" lon="8.203294035047293">
        <ele>124.15000000000001</ele>
        <time>2018-07-10T18:38:00Z</time>
      </trkpt>
      <trkpt lat="48.990772040560842" lon="8.205319019034505">
        <ele>124.63</ele>
        <time>2018-07-10T18:38:11Z</time>
      </trkpt>
      <trkpt lat="48.992276005446911" lon="8.207925036549568">
        <ele>124.15000000000001</ele>
        <time>2018-07-10T18:38:22Z</time>
      </trkpt>
      <trkpt lat="48.993334975093603" lon="8.209592029452324">
        <ele>123.67</ele>
        <time>2018-07-10T18:38:29Z</time>
      </trkpt>
      <trkpt lat="48.993527004495263" lon="8.209776012226939">
        <ele>124.15000000000001</ele>
        <time>2018-07-10T18:38:30Z</time>
      </trkpt>
      <trkpt lat="48.993725990876555" lon="8.209968041628599">
        <ele>124.15000000000001</ele>
        <time>2018-07-10T18:38:31Z</time>
      </trkpt>
      <trkpt lat="48.996000001206994" lon="8.211774006485939">
        <ele>125.11</ele>
        <time>2018-07-10T18:38:41Z</time>
      </trkpt>
      <trkpt lat="48.999390983954072" lon="8.214429980143905">
        <ele>125.11</ele>
        <time>2018-07-10T18:38:55Z</time>
      </trkpt>
      <trkpt lat="49.002283997833729" lon="8.216706002131105">
        <ele>125.11</ele>
        <time>2018-07-10T18:39:07Z</time>
      </trkpt>
      <trkpt lat="49.004206974059343" lon="8.218204015865922">
        <ele>124.15000000000001</ele>
        <time>2018-07-10T18:39:15Z</time>
      </trkpt>
      <trkpt lat="49.006874011829495" lon="8.220279961824417">
        <ele>125.59</ele>
        <time>2018-07-10T18:39:26Z</time>
      </trkpt>
      <trkpt lat="49.009289005771279" lon="8.222291031852365">
        <ele>126.06999999999999</ele>
        <time>2018-07-10T18:39:36Z</time>
      </trkpt>
      <trkpt lat="49.010824989527464" lon="8.223060993477702">
        <ele>127.51000000000001</ele>
        <time>2018-07-10T18:39:42Z</time>
      </trkpt>
      <trkpt lat="49.013206958770752" lon="8.223520992323756">
        <ele>129.91999999999999</ele>
        <time>2018-07-10T18:39:51Z</time>
      </trkpt>
      <trkpt lat="49.014355028048158" lon="8.224047040566802">
        <ele>129.91999999999999</ele>
        <time>2018-07-10T18:39:56Z</time>
      </trkpt>
      <trkpt lat="49.014571029692888" lon="8.224227000027895">
        <ele>129.91999999999999</ele>
        <time>2018-07-10T18:39:57Z</time>
      </trkpt>
      <trkpt lat="49.015727983787656" lon="8.225689977407455">
        <ele>127.03</ele>
        <time>2018-07-10T18:40:03Z</time>
      </trkpt>
      <trkpt lat="49.016738003119826" lon="8.228065995499492">
        <ele>123.67</ele>
        <time>2018-07-10T18:40:10Z</time>
      </trkpt>
      <trkpt lat="49.017449039965868" lon="8.230732027441263">
        <ele>123.19</ele>
        <time>2018-07-10T18:40:17Z</time>
      </trkpt>
      <trkpt lat="49.017656994983554" lon="8.231729976832867">
        <ele>122.70999999999999</ele>
        <time>2018-07-10T18:40:20Z</time>
      </trkpt>
      <trkpt lat="49.018426034599543" lon="8.233306026086211">
        <ele>121.73999999999999</ele>
        <time>2018-07-10T18:40:26Z</time>
      </trkpt>
      <trkpt lat="49.019404035061598" lon="8.234652997925878">
        <ele>119.81999999999999</ele>
        <time>2018-07-10T18:40:32Z</time>
      </trkpt>
      <trkpt lat="49.020120017230511" lon="8.23654898442328">
        <ele>114.05</ele>
        <time>2018-07-10T18:40:39Z</time>
      </trkpt>
      <trkpt lat="49.020600970834494" lon="8.23884797282517">
        <ele>110.69</ele>
        <time>2018-07-10T18:40:47Z</time>
      </trkpt>
      <trkpt lat="49.021191978827119" lon="8.240862982347608">
        <ele>109.73</ele>
        <time>2018-07-10T18:40:55Z</time>
      </trkpt>
      <trkpt lat="49.021320976316929" lon="8.241419959813356">
        <ele>108.77</ele>
        <time>2018-07-10T18:40:59Z</time>
      </trkpt>
      <trkpt lat="49.021334974095225" lon="8.241508975625038">
        <ele>108.77</ele>
        <time>2018-07-10T18:41:00Z</time>
      </trkpt>
      <trkpt lat="49.021254004910588" lon="8.241763031110168">
        <ele>108.77</ele>
        <time>2018-07-10T18:41:01Z</time>
      </trkpt>
      <trkpt lat="49.021254004910588" lon="8.241763031110168">
        <ele>108.77</ele>
        <time>2018-07-10T18:41:02Z</time>
      </trkpt>
      <trkpt lat="49.021246964111924" lon="8.241823967546225">
        <ele>108.77</ele>
        <time>2018-07-10T18:41:03Z</time>
      </trkpt>
      <trkpt lat="49.02123698964715" lon="8.241950031369925">
        <ele>108.77</ele>
        <time>2018-07-10T18:41:04Z</time>
      </trkpt>
      <trkpt lat="49.021266996860504" lon="8.242054972797632">
        <ele>108.29000000000001</ele>
        <time>2018-07-10T18:41:05Z</time>
      </trkpt>
      <trkpt lat="49.021275965496898" lon="8.242084980010986">
        <ele>108.29000000000001</ele>
        <time>2018-07-10T18:41:06Z</time>
      </trkpt>
      <trkpt lat="49.021404040977359" lon="8.24228597804904">
        <ele>108.29000000000001</ele>
        <time>2018-07-10T18:41:07Z</time>
      </trkpt>
      <trkpt lat="49.021404040977359" lon="8.24243500828743">
        <ele>108.29000000000001</ele>
        <time>2018-07-10T18:41:08Z</time>
      </trkpt>
      <trkpt lat="49.021404040977359" lon="8.242582026869059">
        <ele>108.29000000000001</ele>
        <time>2018-07-10T18:41:09Z</time>
      </trkpt>
      <trkpt lat="49.021404040977359" lon="8.242723010480404">
        <ele>108.29000000000001</ele>
        <time>2018-07-10T18:41:10Z</time>
      </trkpt>
      <trkpt lat="49.021448967978358" lon="8.243479980155826">
        <ele>107.81</ele>
        <time>2018-07-10T18:41:15Z</time>
      </trkpt>
      <trkpt lat="49.021470006555319" lon="8.243634039536119">
        <ele>107.81</ele>
        <time>2018-07-10T18:41:16Z</time>
      </trkpt>
      <trkpt lat="49.021523986011744" lon="8.243780974298716">
        <ele>107.31999999999999</ele>
        <time>2018-07-10T18:41:17Z</time>
      </trkpt>
      <trkpt lat="49.021581988781691" lon="8.243908965960145">
        <ele>107.31999999999999</ele>
        <time>2018-07-10T18:41:18Z</time>
      </trkpt>
      <trkpt lat="49.021660024300218" lon="8.244028994813561">
        <ele>107.31999999999999</ele>
        <time>2018-07-10T18:41:19Z</time>
      </trkpt>
      <trkpt lat="49.021738981828094" lon="8.244150029495359">
        <ele>107.31999999999999</ele>
        <time>2018-07-10T18:41:20Z</time>
      </trkpt>
      <trkpt lat="49.021821962669492" lon="8.24426100589335">
        <ele>107.31999999999999</ele>
        <time>2018-07-10T18:41:21Z</time>
      </trkpt>
      <trkpt lat="49.021921036764979" lon="8.244353961199522">
        <ele>107.31999999999999</ele>
        <time>2018-07-10T18:41:22Z</time>
      </trkpt>
      <trkpt lat="49.022017009556293" lon="8.244444988667965">
        <ele>107.31999999999999</ele>
        <time>2018-07-10T18:41:23Z</time>
      </trkpt>
      <trkpt lat="49.023049995303154" lon="8.245432963594794">
        <ele>108.29000000000001</ele>
        <time>2018-07-10T18:41:34Z</time>
      </trkpt>
      <trkpt lat="49.023131970316172" lon="8.245557015761733">
        <ele>108.29000000000001</ele>
        <time>2018-07-10T18:41:35Z</time>
      </trkpt>
      <trkpt lat="49.023195002228022" lon="8.245697999373078">
        <ele>108.29000000000001</ele>
        <time>2018-07-10T18:41:36Z</time>
      </trkpt>
      <trkpt lat="49.023245964199305" lon="8.24585197493434">
        <ele>108.29000000000001</ele>
        <time>2018-07-10T18:41:37Z</time>
      </trkpt>
      <trkpt lat="49.023298015818" lon="8.246006034314632">
        <ele>108.77</ele>
        <time>2018-07-10T18:41:38Z</time>
      </trkpt>
      <trkpt lat="49.023350989446044" lon="8.246165961027145">
        <ele>108.77</ele>
        <time>2018-07-10T18:41:39Z</time>
      </trkpt>
      <trkpt lat="49.023909978568554" lon="8.248395966365933">
        <ele>109.73</ele>
        <time>2018-07-10T18:41:53Z</time>
      </trkpt>
      <trkpt lat="49.023954989388585" lon="8.248525969684124">
        <ele>109.73</ele>
        <time>2018-07-10T18:41:54Z</time>
      </trkpt>
      <trkpt lat="49.024555971845984" lon="8.249732963740826">
        <ele>108.77</ele>
        <time>2018-07-10T18:42:03Z</time>
      </trkpt>
      <trkpt lat="49.025228032842278" lon="8.251055963337421">
        <ele>108.77</ele>
        <time>2018-07-10T18:42:13Z</time>
      </trkpt>
      <trkpt lat="49.02534001506865" lon="8.251322004944086">
        <ele>109.25</ele>
        <time>2018-07-10T18:42:15Z</time>
      </trkpt>
      <trkpt lat="49.025364993140101" lon="8.251470029354096">
        <ele>109.25</ele>
        <time>2018-07-10T18:42:16Z</time>
      </trkpt>
      <trkpt lat="49.025389971211553" lon="8.253067033365369">
        <ele>109.73</ele>
        <time>2018-07-10T18:42:26Z</time>
      </trkpt>
      <trkpt lat="49.025262985378504" lon="8.254791023209691">
        <ele>110.20999999999999</ele>
        <time>2018-07-10T18:42:38Z</time>
      </trkpt>
      <trkpt lat="49.025255022570491" lon="8.25502697378397">
        <ele>110.20999999999999</ele>
        <time>2018-07-10T18:42:44Z</time>
      </trkpt>
      <trkpt lat="49.025304978713393" lon="8.255040971562266">
        <ele>110.20999999999999</ele>
        <time>2018-07-10T18:42:45Z</time>
      </trkpt>
      <trkpt lat="49.025369016453624" lon="8.255059998482466">
        <ele>110.20999999999999</ele>
        <time>2018-07-10T18:42:46Z</time>
      </trkpt>
      <trkpt lat="49.025443028658628" lon="8.255081959068775">
        <ele>110.69</ele>
        <time>2018-07-10T18:42:47Z</time>
      </trkpt>
      <trkpt lat="49.025519974529743" lon="8.255104003474116">
        <ele>110.69</ele>
        <time>2018-07-10T18:42:48Z</time>
      </trkpt>
      <trkpt lat="49.025628017261624" lon="8.255135016515851">
        <ele>110.69</ele>
        <time>2018-07-10T18:42:53Z</time>
      </trkpt>
      <trkpt lat="49.025628017261624" lon="8.255135016515851">
        <ele>110.69</ele>
        <time>2018-07-10T18:43:42Z</time>
      </trkpt>
      <trkpt lat="49.025884000584483" lon="8.255211962386966">
        <ele>110.20999999999999</ele>
        <time>2018-07-10T18:44:01Z</time>
      </trkpt>
      <trkpt lat="49.02673501521349" lon="8.255469035357237">
        <ele>108.77</ele>
        <time>2018-07-10T18:44:08Z</time>
      </trkpt>
      <trkpt lat="49.027799014002085" lon="8.255991982296109">
        <ele>108.29000000000001</ele>
        <time>2018-07-10T18:44:17Z</time>
      </trkpt>
      <trkpt lat="49.028418017551303" lon="8.256449969485402">
        <ele>108.29000000000001</ele>
        <time>2018-07-10T18:44:24Z</time>
      </trkpt>
      <trkpt lat="49.028477026149631" lon="8.256493974477053">
        <ele>108.29000000000001</ele>
        <time>2018-07-10T18:44:25Z</time>
      </trkpt>
      <trkpt lat="49.02854198589921" lon="8.25663504190743">
        <ele>108.29000000000001</ele>
        <time>2018-07-10T18:44:26Z</time>
      </trkpt>
      <trkpt lat="49.028527988120914" lon="8.256783988326788">
        <ele>108.29000000000001</ele>
        <time>2018-07-10T18:44:27Z</time>
      </trkpt>
      <trkpt lat="49.028575010597706" lon="8.25680703856051">
        <ele>107.81</ele>
        <time>2018-07-10T18:44:28Z</time>
      </trkpt>
      <trkpt lat="49.028638964518905" lon="8.256838973611593">
        <ele>108.29000000000001</ele>
        <time>2018-07-10T18:44:29Z</time>
      </trkpt>
      <trkpt lat="49.028699984773993" lon="8.256868980824947">
        <ele>108.29000000000001</ele>
        <time>2018-07-10T18:44:30Z</time>
      </trkpt>
      <trkpt lat="49.028759999200702" lon="8.256774013862014">
        <ele>108.29000000000001</ele>
        <time>2018-07-10T18:44:31Z</time>
      </trkpt>
      <trkpt lat="49.028858989477158" lon="8.256713999435306">
        <ele>108.29000000000001</ele>
        <time>2018-07-10T18:44:32Z</time>
      </trkpt>
      <trkpt lat="49.028935013338923" lon="8.256738977506757">
        <ele>108.29000000000001</ele>
        <time>2018-07-10T18:44:33Z</time>
      </trkpt>
      <trkpt lat="49.029026040807366" lon="8.25676797889173">
        <ele>108.29000000000001</ele>
        <time>2018-07-10T18:44:34Z</time>
      </trkpt>
      <trkpt lat="49.029130982235074" lon="8.256802009418607">
        <ele>107.81</ele>
        <time>2018-07-10T18:44:35Z</time>
      </trkpt>
      <trkpt lat="49.02925101108849" lon="8.256840985268354">
        <ele>107.31999999999999</ele>
        <time>2018-07-10T18:44:36Z</time>
      </trkpt>
      <trkpt lat="49.030381981283426" lon="8.25728296302259">
        <ele>106.84</ele>
        <time>2018-07-10T18:44:43Z</time>
      </trkpt>
      <trkpt lat="49.031318994238973" lon="8.257719995453954">
        <ele>106.36</ele>
        <time>2018-07-10T18:44:48Z</time>
      </trkpt>
      <trkpt lat="49.03148696757853" lon="8.257873971015215">
        <ele>106.36</ele>
        <time>2018-07-10T18:44:49Z</time>
      </trkpt>
      <trkpt lat="49.03165795840323" lon="8.258030964061618">
        <ele>106.36</ele>
        <time>2018-07-10T18:44:50Z</time>
      </trkpt>
      <trkpt lat="49.031819980591536" lon="8.258212013170123">
        <ele>106.36</ele>
        <time>2018-07-10T18:44:51Z</time>
      </trkpt>
      <trkpt lat="49.0319789852947" lon="8.258413011208177">
        <ele>106.36</ele>
        <time>2018-07-10T18:44:52Z</time>
      </trkpt>
      <trkpt lat="49.034233968704939" lon="8.261312982067466">
        <ele>105.40000000000001</ele>
        <time>2018-07-10T18:45:06Z</time>
      </trkpt>
      <trkpt lat="49.035151032730937" lon="8.262731032446027">
        <ele>105.40000000000001</ele>
        <time>2018-07-10T18:45:12Z</time>
      </trkpt>
      <trkpt lat="49.035291010513902" lon="8.263029009103775">
        <ele>105.40000000000001</ele>
        <time>2018-07-10T18:45:13Z</time>
      </trkpt>
      <trkpt lat="49.035434005782008" lon="8.263333020731807">
        <ele>105.88</ele>
        <time>2018-07-10T18:45:14Z</time>
      </trkpt>
      <trkpt lat="49.035553028807044" lon="8.26366201043129">
        <ele>105.88</ele>
        <time>2018-07-10T18:45:15Z</time>
      </trkpt>
      <trkpt lat="49.035650007426739" lon="8.264014972373843">
        <ele>106.36</ele>
        <time>2018-07-10T18:45:16Z</time>
      </trkpt>
      <trkpt lat="49.035744974389672" lon="8.264374975115061">
        <ele>106.36</ele>
        <time>2018-07-10T18:45:17Z</time>
      </trkpt>
      <trkpt lat="49.035827033221722" lon="8.264747969806194">
        <ele>106.84</ele>
        <time>2018-07-10T18:45:18Z</time>
      </trkpt>
      <trkpt lat="49.03657897375524" lon="8.268624013289809">
        <ele>108.77</ele>
        <time>2018-07-10T18:45:28Z</time>
      </trkpt>
      <trkpt lat="49.037462007254362" lon="8.270892994478345">
        <ele>110.20999999999999</ele>
        <time>2018-07-10T18:45:35Z</time>
      </trkpt>
      <trkpt lat="49.038591971620917" lon="8.272799039259553">
        <ele>112.13</ele>
        <time>2018-07-10T18:45:42Z</time>
      </trkpt>
      <trkpt lat="49.040925996378064" lon="8.276175018399954">
        <ele>112.61</ele>
        <time>2018-07-10T18:45:55Z</time>
      </trkpt>
      <trkpt lat="49.041316006332636" lon="8.276639962568879">
        <ele>114.05</ele>
        <time>2018-07-10T18:45:57Z</time>
      </trkpt>
      <trkpt lat="49.041505018249154" lon="8.27685403637588">
        <ele>114.53</ele>
        <time>2018-07-10T18:45:58Z</time>
      </trkpt>
      <trkpt lat="49.041713979095221" lon="8.277013041079044">
        <ele>115.5</ele>
        <time>2018-07-10T18:45:59Z</time>
      </trkpt>
      <trkpt lat="49.04192796908319" lon="8.277137009426951">
        <ele>116.45999999999999</ele>
        <time>2018-07-10T18:46:00Z</time>
      </trkpt>
      <trkpt lat="49.042159980162978" lon="8.277195012196899">
        <ele>117.42</ele>
        <time>2018-07-10T18:46:01Z</time>
      </trkpt>
      <trkpt lat="49.042380005121231" lon="8.277228036895394">
        <ele>117.90000000000001</ele>
        <time>2018-07-10T18:46:02Z</time>
      </trkpt>
      <trkpt lat="49.042604975402355" lon="8.277224013581872">
        <ele>118.86</ele>
        <time>2018-07-10T18:46:03Z</time>
      </trkpt>
      <trkpt lat="49.042825000360608" lon="8.277214039117098">
        <ele>119.34</ele>
        <time>2018-07-10T18:46:04Z</time>
      </trkpt>
      <trkpt lat="49.043266978114843" lon="8.277193000540137">
        <ele>119.81999999999999</ele>
        <time>2018-07-10T18:46:06Z</time>
      </trkpt>
      <trkpt lat="49.043502006679773" lon="8.277285033836961">
        <ele>119.81999999999999</ele>
        <time>2018-07-10T18:46:07Z</time>
      </trkpt>
      <trkpt lat="49.045148966833949" lon="8.277600025758147">
        <ele>118.38</ele>
        <time>2018-07-10T18:46:14Z</time>
      </trkpt>
      <trkpt lat="49.045404028147459" lon="8.277560966089368">
        <ele>115.5</ele>
        <time>2018-07-10T18:46:22Z</time>
      </trkpt>
      <trkpt lat="49.049548041075468" lon="8.274873979389668">
        <ele>112.13</ele>
        <time>2018-07-10T18:46:32Z</time>
      </trkpt>
      <trkpt lat="49.051564978435636" lon="8.273880975320935">
        <ele>112.61</ele>
        <time>2018-07-10T18:46:39Z</time>
      </trkpt>
      <trkpt lat="49.053761959075928" lon="8.273469004780054">
        <ele>112.61</ele>
        <time>2018-07-10T18:46:46Z</time>
      </trkpt>
      <trkpt lat="49.056657990440726" lon="8.273684000596404">
        <ele>112.61</ele>
        <time>2018-07-10T18:46:55Z</time>
      </trkpt>
      <trkpt lat="49.059614036232233" lon="8.274563010782003">
        <ele>111.65000000000001</ele>
        <time>2018-07-10T18:47:04Z</time>
      </trkpt>
      <trkpt lat="49.062464972957969" lon="8.276031017303467">
        <ele>109.25</ele>
        <time>2018-07-10T18:47:12Z</time>
      </trkpt>
      <trkpt lat="49.06560399569571" lon="8.278428995981813">
        <ele>104.44</ele>
        <time>2018-07-10T18:47:21Z</time>
      </trkpt>
      <trkpt lat="49.069544998928905" lon="8.282107980921865">
        <ele>103.48</ele>
        <time>2018-07-10T18:47:33Z</time>
      </trkpt>
      <trkpt lat="49.073105966672301" lon="8.285457976162434">
        <ele>108.29000000000001</ele>
        <time>2018-07-10T18:47:44Z</time>
      </trkpt>
      <trkpt lat="49.077647030353546" lon="8.289653034880757">
        <ele>110.20999999999999</ele>
        <time>2018-07-10T18:47:58Z</time>
      </trkpt>
      <trkpt lat="49.083923986181617" lon="8.295079981908202">
        <ele>106.84</ele>
        <time>2018-07-10T18:48:17Z</time>
      </trkpt>
      <trkpt lat="49.088391037657857" lon="8.298224033787847">
        <ele>107.31999999999999</ele>
        <time>2018-07-10T18:48:30Z</time>
      </trkpt>
      <trkpt lat="49.093036036938429" lon="8.300845976918936">
        <ele>105.88</ele>
        <time>2018-07-10T18:48:43Z</time>
      </trkpt>
      <trkpt lat="49.097770974040031" lon="8.30293701030314">
        <ele>105.40000000000001</ele>
        <time>2018-07-10T18:48:56Z</time>
      </trkpt>
      <trkpt lat="49.101497987285256" lon="8.304124977439642">
        <ele>105.88</ele>
        <time>2018-07-10T18:49:06Z</time>
      </trkpt>
      <trkpt lat="49.106377009302378" lon="8.30534202978015">
        <ele>105.40000000000001</ele>
        <time>2018-07-10T18:49:19Z</time>
      </trkpt>
      <trkpt lat="49.112049965187907" lon="8.306293962523341">
        <ele>104.44</ele>
        <time>2018-07-10T18:49:34Z</time>
      </trkpt>
      <trkpt lat="49.118140004575253" lon="8.306826967746019">
        <ele>103.48</ele>
        <time>2018-07-10T18:49:50Z</time>
      </trkpt>
      <trkpt lat="49.123092032968998" lon="8.306866027414799">
        <ele>104.92</ele>
        <time>2018-07-10T18:50:03Z</time>
      </trkpt>
      <trkpt lat="49.126500030979514" lon="8.306733006611466">
        <ele>107.81</ele>
        <time>2018-07-10T18:50:17Z</time>
      </trkpt>
      <trkpt lat="49.131821030750871" lon="8.306394964456558">
        <ele>105.88</ele>
        <time>2018-07-10T18:50:26Z</time>
      </trkpt>
      <trkpt lat="49.137504966929555" lon="8.305729022249579">
        <ele>104.44</ele>
        <time>2018-07-10T18:50:41Z</time>
      </trkpt>
      <trkpt lat="49.143541026860476" lon="8.304844982922077">
        <ele>111.65000000000001</ele>
        <time>2018-07-10T18:50:57Z</time>
      </trkpt>
      <trkpt lat="49.148842999711633" lon="8.304044008255005">
        <ele>113.09</ele>
        <time>2018-07-10T18:51:11Z</time>
      </trkpt>
      <trkpt lat="49.154525008052588" lon="8.303204979747534">
        <ele>111.65000000000001</ele>
        <time>2018-07-10T18:51:26Z</time>
      </trkpt>
      <trkpt lat="49.160956023260951" lon="8.302265033125877">
        <ele>111.17</ele>
        <time>2018-07-10T18:51:43Z</time>
      </trkpt>
      <trkpt lat="49.166270988062024" lon="8.301955992355943">
        <ele>111.65000000000001</ele>
        <time>2018-07-10T18:51:57Z</time>
      </trkpt>
      <trkpt lat="49.170054998248816" lon="8.302333010360599">
        <ele>116.94</ele>
        <time>2018-07-10T18:52:07Z</time>
      </trkpt>
      <trkpt lat="49.173785028979182" lon="8.303487030789256">
        <ele>117.90000000000001</ele>
        <time>2018-07-10T18:52:17Z</time>
      </trkpt>
      <trkpt lat="49.180086040869355" lon="8.305807979777455">
        <ele>118.38</ele>
        <time>2018-07-10T18:52:34Z</time>
      </trkpt>
      <trkpt lat="49.184521995484829" lon="8.307547979056835">
        <ele>112.61</ele>
        <time>2018-07-10T18:52:46Z</time>
      </trkpt>
      <trkpt lat="49.186621997505426" lon="8.308854969218373">
        <ele>109.25</ele>
        <time>2018-07-10T18:52:52Z</time>
      </trkpt>
      <trkpt lat="49.188483031466603" lon="8.310849023982883">
        <ele>108.29000000000001</ele>
        <time>2018-07-10T18:52:58Z</time>
      </trkpt>
      <trkpt lat="49.19002303853631" lon="8.313383040949702">
        <ele>109.73</ele>
        <time>2018-07-10T18:53:04Z</time>
      </trkpt>
      <trkpt lat="49.192085992544889" lon="8.318237001076341">
        <ele>118.38</ele>
        <time>2018-07-10T18:53:14Z</time>
      </trkpt>
      <trkpt lat="49.194989986717701" lon="8.325115023180842">
        <ele>114.53</ele>
        <time>2018-07-10T18:53:28Z</time>
      </trkpt>
      <trkpt lat="49.197659036144614" lon="8.331445036455989">
        <ele>112.13</ele>
        <time>2018-07-10T18:53:41Z</time>
      </trkpt>
      <trkpt lat="49.201180022209883" lon="8.339734990149736">
        <ele>113.56999999999999</ele>
        <time>2018-07-10T18:53:58Z</time>
      </trkpt>
      <trkpt lat="49.20315102674067" lon="8.344011018052697">
        <ele>112.13</ele>
        <time>2018-07-10T18:54:07Z</time>
      </trkpt>
      <trkpt lat="49.204821037128568" lon="8.346373038366437">
        <ele>111.65000000000001</ele>
        <time>2018-07-10T18:54:13Z</time>
      </trkpt>
      <trkpt lat="49.207108961418271" lon="8.34839902818203">
        <ele>112.13</ele>
        <time>2018-07-10T18:54:20Z</time>
      </trkpt>
      <trkpt lat="49.211009982973337" lon="8.350674966350198">
        <ele>112.13</ele>
        <time>2018-07-10T18:54:31Z</time>
      </trkpt>
      <trkpt lat="49.214575979858637" lon="8.352717971429229">
        <ele>111.17</ele>
        <time>2018-07-10T18:54:41Z</time>
      </trkpt>
      <trkpt lat="49.219589028507471" lon="8.355458015576005">
        <ele>104.92</ele>
        <time>2018-07-10T18:54:55Z</time>
      </trkpt>
      <trkpt lat="49.221824984997511" lon="8.35594198666513">
        <ele>103.48</ele>
        <time>2018-07-10T18:55:01Z</time>
      </trkpt>
      <trkpt lat="49.224852025508881" lon="8.355753980576992">
        <ele>103.48</ele>
        <time>2018-07-10T18:55:09Z</time>
      </trkpt>
      <trkpt lat="49.22659101895988" lon="8.35607198998332">
        <ele>103</ele>
        <time>2018-07-10T18:55:14Z</time>
      </trkpt>
      <trkpt lat="49.228381980210543" lon="8.357182005420327">
        <ele>103.95999999999999</ele>
        <time>2018-07-10T18:55:20Z</time>
      </trkpt>
      <trkpt lat="49.230135977268219" lon="8.357888013124466">
        <ele>104.92</ele>
        <time>2018-07-10T18:55:26Z</time>
      </trkpt>
      <trkpt lat="49.231862984597683" lon="8.357709981501102">
        <ele>104.44</ele>
        <time>2018-07-10T18:55:32Z</time>
      </trkpt>
      <trkpt lat="49.233448002487421" lon="8.356709014624357">
        <ele>105.88</ele>
        <time>2018-07-10T18:55:38Z</time>
      </trkpt>
      <trkpt lat="49.23469003289938" lon="8.355185016989708">
        <ele>106.36</ele>
        <time>2018-07-10T18:55:44Z</time>
      </trkpt>
      <trkpt lat="49.235492013394833" lon="8.353443006053567">
        <ele>107.81</ele>
        <time>2018-07-10T18:55:50Z</time>
      </trkpt>
      <trkpt lat="49.236017977818847" lon="8.351095989346504">
        <ele>108.77</ele>
        <time>2018-07-10T18:55:57Z</time>
      </trkpt>
      <trkpt lat="49.23617203719914" lon="8.348588040098548">
        <ele>110.69</ele>
        <time>2018-07-10T18:56:04Z</time>
      </trkpt>
      <trkpt lat="49.23630204051733" lon="8.345140982419252">
        <ele>113.56999999999999</ele>
        <time>2018-07-10T18:56:16Z</time>
      </trkpt>
      <trkpt lat="49.236402958631516" lon="8.342755995690823">
        <ele>115.5</ele>
        <time>2018-07-10T18:56:26Z</time>
      </trkpt>
      <trkpt lat="49.236682998016477" lon="8.340346030890942">
        <ele>115.01000000000001</ele>
        <time>2018-07-10T18:56:36Z</time>
      </trkpt>
      <trkpt lat="49.237327985465527" lon="8.337977975606918">
        <ele>115.5</ele>
        <time>2018-07-10T18:56:45Z</time>
      </trkpt>
      <trkpt lat="49.238461973145604" lon="8.33578702993691">
        <ele>115.01000000000001</ele>
        <time>2018-07-10T18:56:54Z</time>
      </trkpt>
      <trkpt lat="49.239522032439709" lon="8.334547011181712">
        <ele>115.01000000000001</ele>
        <time>2018-07-10T18:57:01Z</time>
      </trkpt>
      <trkpt lat="49.241133034229279" lon="8.333431966602802">
        <ele>114.53</ele>
        <time>2018-07-10T18:57:11Z</time>
      </trkpt>
      <trkpt lat="49.243058022111654" lon="8.332869037985802">
        <ele>113.56999999999999</ele>
        <time>2018-07-10T18:57:21Z</time>
      </trkpt>
      <trkpt lat="49.245075965300202" lon="8.332528984174132">
        <ele>112.13</ele>
        <time>2018-07-10T18:57:31Z</time>
      </trkpt>
      <trkpt lat="49.246758967638016" lon="8.332263026386499">
        <ele>111.17</ele>
        <time>2018-07-10T18:57:40Z</time>
      </trkpt>
      <trkpt lat="49.248865004628897" lon="8.331949040293694">
        <ele>110.20999999999999</ele>
        <time>2018-07-10T18:57:51Z</time>
      </trkpt>
      <trkpt lat="49.249716019257903" lon="8.331833034753799">
        <ele>111.17</ele>
        <time>2018-07-10T18:57:55Z</time>
      </trkpt>
      <trkpt lat="49.252217011526227" lon="8.331643017008901">
        <ele>112.13</ele>
        <time>2018-07-10T18:58:07Z</time>
      </trkpt>
      <trkpt lat="49.254252975806594" lon="8.331699008122087">
        <ele>114.05</ele>
        <time>2018-07-10T18:58:17Z</time>
      </trkpt>
      <trkpt lat="49.256473006680608" lon="8.332004025578499">
        <ele>119.34</ele>
        <time>2018-07-10T18:58:28Z</time>
      </trkpt>
      <trkpt lat="49.25927197560668" lon="8.332711039111018">
        <ele>123.67</ele>
        <time>2018-07-10T18:58:42Z</time>
      </trkpt>
      <trkpt lat="49.262032974511385" lon="8.333806972950697">
        <ele>127.51000000000001</ele>
        <time>2018-07-10T18:58:56Z</time>
      </trkpt>
      <trkpt lat="49.263262012973428" lon="8.334447015076876">
        <ele>127.51000000000001</ele>
        <time>2018-07-10T18:59:04Z</time>
      </trkpt>
      <trkpt lat="49.264503959566355" lon="8.335199039429426">
        <ele>126.55</ele>
        <time>2018-07-10T18:59:12Z</time>
      </trkpt>
      <trkpt lat="49.265956962481141" lon="8.33617796190083">
        <ele>124.15000000000001</ele>
        <time>2018-07-10T18:59:18Z</time>
      </trkpt>
      <trkpt lat="49.268296016380191" lon="8.33787202835083">
        <ele>122.70999999999999</ele>
        <time>2018-07-10T18:59:26Z</time>
      </trkpt>
      <trkpt lat="49.271283997222781" lon="8.340220972895622">
        <ele>117.42</ele>
        <time>2018-07-10T18:59:35Z</time>
      </trkpt>
      <trkpt lat="49.275228017941117" lon="8.343643974512816">
        <ele>115.5</ele>
        <time>2018-07-10T18:59:47Z</time>
      </trkpt>
      <trkpt lat="49.276773976162076" lon="8.346168017014861">
        <ele>115.5</ele>
        <time>2018-07-10T18:59:53Z</time>
      </trkpt>
      <trkpt lat="49.277891032397747" lon="8.349165972322226">
        <ele>116.45999999999999</ele>
        <time>2018-07-10T18:59:59Z</time>
      </trkpt>
      <trkpt lat="49.2799639608711" lon="8.355372017249465">
        <ele>116.45999999999999</ele>
        <time>2018-07-10T19:00:11Z</time>
      </trkpt>
      <trkpt lat="49.28223897702992" lon="8.360740039497614">
        <ele>116.45999999999999</ele>
        <time>2018-07-10T19:00:22Z</time>
      </trkpt>
      <trkpt lat="49.284669980406761" lon="8.365190997719765">
        <ele>115.01000000000001</ele>
        <time>2018-07-10T19:00:32Z</time>
      </trkpt>
      <trkpt lat="49.286348037421703" lon="8.36782400496304">
        <ele>114.53</ele>
        <time>2018-07-10T19:00:39Z</time>
      </trkpt>
      <trkpt lat="49.287216989323497" lon="8.369096964597702">
        <ele>114.53</ele>
        <time>2018-07-10T19:00:43Z</time>
      </trkpt>
      <trkpt lat="49.287432990968227" lon="8.369394019246101">
        <ele>116.45999999999999</ele>
        <time>2018-07-10T19:00:44Z</time>
      </trkpt>
      <trkpt lat="49.289633994922042" lon="8.372781984508038">
        <ele>117.42</ele>
        <time>2018-07-10T19:00:55Z</time>
      </trkpt>
      <trkpt lat="49.290484003722668" lon="8.375219022855163">
        <ele>116.94</ele>
        <time>2018-07-10T19:01:01Z</time>
      </trkpt>
      <trkpt lat="49.292020993307233" lon="8.380936989560723">
        <ele>117.90000000000001</ele>
        <time>2018-07-10T19:01:13Z</time>
      </trkpt>
      <trkpt lat="49.294092999771237" lon="8.388581033796072">
        <ele>116.45999999999999</ele>
        <time>2018-07-10T19:01:29Z</time>
      </trkpt>
      <trkpt lat="49.2955800332129" lon="8.392374012619257">
        <ele>115.01000000000001</ele>
        <time>2018-07-10T19:01:38Z</time>
      </trkpt>
      <trkpt lat="49.297195980325341" lon="8.395418990403414">
        <ele>115.01000000000001</ele>
        <time>2018-07-10T19:01:46Z</time>
      </trkpt>
      <trkpt lat="49.298621993511915" lon="8.39753600768745">
        <ele>114.53</ele>
        <time>2018-07-10T19:01:53Z</time>
      </trkpt>
      <trkpt lat="49.300300972536206" lon="8.399900961667299">
        <ele>115.98</ele>
        <time>2018-07-10T19:02:02Z</time>
      </trkpt>
      <trkpt lat="49.301247037947178" lon="8.40217899531126">
        <ele>117.90000000000001</ele>
        <time>2018-07-10T19:02:09Z</time>
      </trkpt>
      <trkpt lat="49.301851959899068" lon="8.404855001717806">
        <ele>119.81999999999999</ele>
        <time>2018-07-10T19:02:16Z</time>
      </trkpt>
      <trkpt lat="49.30224196985364" lon="8.40789302252233">
        <ele>120.3</ele>
        <time>2018-07-10T19:02:24Z</time>
      </trkpt>
      <trkpt lat="49.30290699005127" lon="8.410954009741545">
        <ele>118.38</ele>
        <time>2018-07-10T19:02:33Z</time>
      </trkpt>
      <trkpt lat="49.30374501273036" lon="8.41281303204596">
        <ele>115.01000000000001</ele>
        <time>2018-07-10T19:02:40Z</time>
      </trkpt>
      <trkpt lat="49.304812029004097" lon="8.414883026853204">
        <ele>109.73</ele>
        <time>2018-07-10T19:02:48Z</time>
      </trkpt>
      <trkpt lat="49.305446036159992" lon="8.416645992547274">
        <ele>110.69</ele>
        <time>2018-07-10T19:02:55Z</time>
      </trkpt>
      <trkpt lat="49.306379025802016" lon="8.419162994250655">
        <ele>115.5</ele>
        <time>2018-07-10T19:03:06Z</time>
      </trkpt>
      <trkpt lat="49.306394029408693" lon="8.419420989230275">
        <ele>115.98</ele>
        <time>2018-07-10T19:03:07Z</time>
      </trkpt>
      <trkpt lat="49.306402998045087" lon="8.419612012803555">
        <ele>115.98</ele>
        <time>2018-07-10T19:03:08Z</time>
      </trkpt>
      <trkpt lat="49.306385982781649" lon="8.419762970879674">
        <ele>116.45999999999999</ele>
        <time>2018-07-10T19:03:09Z</time>
      </trkpt>
      <trkpt lat="49.306359998881817" lon="8.419894985854626">
        <ele>116.45999999999999</ele>
        <time>2018-07-10T19:03:10Z</time>
      </trkpt>
      <trkpt lat="49.30632596835494" lon="8.420005962252617">
        <ele>116.45999999999999</ele>
        <time>2018-07-10T19:03:11Z</time>
      </trkpt>
      <trkpt lat="49.306248016655445" lon="8.420091038569808">
        <ele>116.45999999999999</ele>
        <time>2018-07-10T19:03:12Z</time>
      </trkpt>
      <trkpt lat="49.306164029985666" lon="8.420181982219219">
        <ele>116.45999999999999</ele>
        <time>2018-07-10T19:03:13Z</time>
      </trkpt>
      <trkpt lat="49.306082976981997" lon="8.42026999220252">
        <ele>116.45999999999999</ele>
        <time>2018-07-10T19:03:14Z</time>
      </trkpt>
      <trkpt lat="49.306007958948612" lon="8.420410975813866">
        <ele>115.98</ele>
        <time>2018-07-10T19:03:15Z</time>
      </trkpt>
      <trkpt lat="49.30593503639102" lon="8.42054801993072">
        <ele>115.5</ele>
        <time>2018-07-10T19:03:16Z</time>
      </trkpt>
      <trkpt lat="49.305911986157298" lon="8.420726973563433">
        <ele>115.01000000000001</ele>
        <time>2018-07-10T19:03:17Z</time>
      </trkpt>
      <trkpt lat="49.305925983935595" lon="8.420910034328699">
        <ele>114.53</ele>
        <time>2018-07-10T19:03:18Z</time>
      </trkpt>
      <trkpt lat="49.305984992533922" lon="8.421075996011496">
        <ele>113.56999999999999</ele>
        <time>2018-07-10T19:03:19Z</time>
      </trkpt>
      <trkpt lat="49.306054981425405" lon="8.421232989057899">
        <ele>113.09</ele>
        <time>2018-07-10T19:03:20Z</time>
      </trkpt>
      <trkpt lat="49.306142991408706" lon="8.42138797044754">
        <ele>112.61</ele>
        <time>2018-07-10T19:03:21Z</time>
      </trkpt>
      <trkpt lat="49.306210968643427" lon="8.421573964878917">
        <ele>111.65000000000001</ele>
        <time>2018-07-10T19:03:22Z</time>
      </trkpt>
      <trkpt lat="49.306250028312206" lon="8.421770017594099">
        <ele>111.17</ele>
        <time>2018-07-10T19:03:23Z</time>
      </trkpt>
      <trkpt lat="49.306254973635077" lon="8.421959029510617">
        <ele>110.69</ele>
        <time>2018-07-10T19:03:24Z</time>
      </trkpt>
      <trkpt lat="49.306254973635077" lon="8.422161033377051">
        <ele>110.20999999999999</ele>
        <time>2018-07-10T19:03:25Z</time>
      </trkpt>
      <trkpt lat="49.30623603053391" lon="8.422367982566357">
        <ele>110.20999999999999</ele>
        <time>2018-07-10T19:03:26Z</time>
      </trkpt>
      <trkpt lat="49.30619403719902" lon="8.42258901335299">
        <ele>109.73</ele>
        <time>2018-07-10T19:03:27Z</time>
      </trkpt>
      <trkpt lat="49.306149026378989" lon="8.42282697558403">
        <ele>109.73</ele>
        <time>2018-07-10T19:03:28Z</time>
      </trkpt>
      <trkpt lat="49.305883990600705" lon="8.424584995955229">
        <ele>107.31999999999999</ele>
        <time>2018-07-10T19:03:34Z</time>
      </trkpt>
      <trkpt lat="49.305949034169316" lon="8.426956990733743">
        <ele>108.77</ele>
        <time>2018-07-10T19:03:41Z</time>
      </trkpt>
      <trkpt lat="49.306456977501512" lon="8.429444991052151">
        <ele>108.29000000000001</ele>
        <time>2018-07-10T19:03:49Z</time>
      </trkpt>
      <trkpt lat="49.307476971298456" lon="8.432083027437329">
        <ele>105.88</ele>
        <time>2018-07-10T19:03:58Z</time>
      </trkpt>
      <trkpt lat="49.308857973664999" lon="8.435258008539677">
        <ele>105.40000000000001</ele>
        <time>2018-07-10T19:04:10Z</time>
      </trkpt>
      <trkpt lat="49.310223972424865" lon="8.438368029892445">
        <ele>105.88</ele>
        <time>2018-07-10T19:04:22Z</time>
      </trkpt>
      <trkpt lat="49.311914015561342" lon="8.442181963473558">
        <ele>108.77</ele>
        <time>2018-07-10T19:04:36Z</time>
      </trkpt>
      <trkpt lat="49.313744036480784" lon="8.446340980008245">
        <ele>111.17</ele>
        <time>2018-07-10T19:04:51Z</time>
      </trkpt>
      <trkpt lat="49.315632982179523" lon="8.450643997639418">
        <ele>113.56999999999999</ele>
        <time>2018-07-10T19:05:07Z</time>
      </trkpt>
      <trkpt lat="49.317338028922677" lon="8.454567985609174">
        <ele>115.01000000000001</ele>
        <time>2018-07-10T19:05:22Z</time>
      </trkpt>
      <trkpt lat="49.318729005753994" lon="8.457721006125212">
        <ele>110.20999999999999</ele>
        <time>2018-07-10T19:05:34Z</time>
      </trkpt>
      <trkpt lat="49.319928037002683" lon="8.460416039451957">
        <ele>107.31999999999999</ele>
        <time>2018-07-10T19:05:47Z</time>
      </trkpt>
      <trkpt lat="49.320861026644707" lon="8.462589969858527">
        <ele>105.40000000000001</ele>
        <time>2018-07-10T19:05:58Z</time>
      </trkpt>
      <trkpt lat="49.321289006620646" lon="8.463594960048795">
        <ele>103.95999999999999</ele>
        <time>2018-07-10T19:06:05Z</time>
      </trkpt>
      <trkpt lat="49.321613973006606" lon="8.464352013543248">
        <ele>103.48</ele>
        <time>2018-07-10T19:06:13Z</time>
      </trkpt>
      <trkpt lat="49.32220003567636" lon="8.465635031461716">
        <ele>103</ele>
        <time>2018-07-10T19:06:19Z</time>
      </trkpt>
      <trkpt lat="49.323288006708026" lon="8.468254962936044">
        <ele>102.04000000000001</ele>
        <time>2018-07-10T19:06:28Z</time>
      </trkpt>
      <trkpt lat="49.324285034090281" lon="8.471495993435383">
        <ele>100.11</ele>
        <time>2018-07-10T19:06:37Z</time>
      </trkpt>
      <trkpt lat="49.325474007055163" lon="8.477015979588032">
        <ele>100.59999999999999</ele>
        <time>2018-07-10T19:06:51Z</time>
      </trkpt>
      <trkpt lat="49.326275987550616" lon="8.482070015743375">
        <ele>100.11</ele>
        <time>2018-07-10T19:07:03Z</time>
      </trkpt>
      <trkpt lat="49.327262034639716" lon="8.488392988219857">
        <ele>99.150000000000006</ele>
        <time>2018-07-10T19:07:18Z</time>
      </trkpt>
      <trkpt lat="49.328571958467364" lon="8.493968965485692">
        <ele>99.629999999999995</ele>
        <time>2018-07-10T19:07:32Z</time>
      </trkpt>
      <trkpt lat="49.329912979155779" lon="8.4985810238868">
        <ele>101.08</ele>
        <time>2018-07-10T19:07:44Z</time>
      </trkpt>
      <trkpt lat="49.330468028783798" lon="8.500282969325781">
        <ele>103.48</ele>
        <time>2018-07-10T19:07:50Z</time>
      </trkpt>
      <trkpt lat="49.330605994910002" lon="8.501147981733084">
        <ele>104.44</ele>
        <time>2018-07-10T19:07:54Z</time>
      </trkpt>
      <trkpt lat="49.330594008788466" lon="8.501299023628235">
        <ele>104.92</ele>
        <time>2018-07-10T19:07:55Z</time>
      </trkpt>
      <trkpt lat="49.330570958554745" lon="8.501445036381483">
        <ele>104.92</ele>
        <time>2018-07-10T19:07:56Z</time>
      </trkpt>
      <trkpt lat="49.330529971048236" lon="8.501597000285983">
        <ele>105.40000000000001</ele>
        <time>2018-07-10T19:07:57Z</time>
      </trkpt>
      <trkpt lat="49.330427041277289" lon="8.501786012202501">
        <ele>105.40000000000001</ele>
        <time>2018-07-10T19:07:58Z</time>
      </trkpt>
      <trkpt lat="49.330227971076965" lon="8.502112990245223">
        <ele>105.40000000000001</ele>
        <time>2018-07-10T19:08:00Z</time>
      </trkpt>
      <trkpt lat="49.330126969143748" lon="8.502328991889954">
        <ele>105.40000000000001</ele>
        <time>2018-07-10T19:08:01Z</time>
      </trkpt>
      <trkpt lat="49.330009035766125" lon="8.502581035718322">
        <ele>104.92</ele>
        <time>2018-07-10T19:08:02Z</time>
      </trkpt>
      <trkpt lat="49.329971987754107" lon="8.502835007384419">
        <ele>104.44</ele>
        <time>2018-07-10T19:08:03Z</time>
      </trkpt>
      <trkpt lat="49.329933011904359" lon="8.503109011799097">
        <ele>103.95999999999999</ele>
        <time>2018-07-10T19:08:04Z</time>
      </trkpt>
      <trkpt lat="49.329923037439585" lon="8.503383016213775">
        <ele>103.48</ele>
        <time>2018-07-10T19:08:05Z</time>
      </trkpt>
      <trkpt lat="49.329971987754107" lon="8.503641011193395">
        <ele>103</ele>
        <time>2018-07-10T19:08:06Z</time>
      </trkpt>
      <trkpt lat="49.330037031322718" lon="8.503879979252815">
        <ele>102.52</ele>
        <time>2018-07-10T19:08:07Z</time>
      </trkpt>
      <trkpt lat="49.330118000507355" lon="8.504110984504223">
        <ele>102.04000000000001</ele>
        <time>2018-07-10T19:08:08Z</time>
      </trkpt>
      <trkpt lat="49.330220008268952" lon="8.504327991977334">
        <ele>101.56</ele>
        <time>2018-07-10T19:08:09Z</time>
      </trkpt>
      <trkpt lat="49.330350011587143" lon="8.504496971145272">
        <ele>101.08</ele>
        <time>2018-07-10T19:08:10Z</time>
      </trkpt>
      <trkpt lat="49.330481020733714" lon="8.504671985283494">
        <ele>100.59999999999999</ele>
        <time>2018-07-10T19:08:11Z</time>
      </trkpt>
      <trkpt lat="49.330611024051905" lon="8.504845993593335">
        <ele>100.11</ele>
        <time>2018-07-10T19:08:12Z</time>
      </trkpt>
      <trkpt lat="49.330742033198476" lon="8.505023019388318">
        <ele>99.629999999999995</ele>
        <time>2018-07-10T19:08:13Z</time>
      </trkpt>
      <trkpt lat="49.330887962132692" lon="8.50522099994123">
        <ele>99.150000000000006</ele>
        <time>2018-07-10T19:08:14Z</time>
      </trkpt>
      <trkpt lat="49.330972032621503" lon="8.505409006029367">
        <ele>98.670000000000002</ele>
        <time>2018-07-10T19:08:15Z</time>
      </trkpt>
      <trkpt lat="49.331016959622502" lon="8.505642022937536">
        <ele>98.670000000000002</ele>
        <time>2018-07-10T19:08:16Z</time>
      </trkpt>
      <trkpt lat="49.331061970442533" lon="8.505884008482099">
        <ele>98.670000000000002</ele>
        <time>2018-07-10T19:08:17Z</time>
      </trkpt>
      <trkpt lat="49.331101030111313" lon="8.506152983754873">
        <ele>99.150000000000006</ele>
        <time>2018-07-10T19:08:18Z</time>
      </trkpt>
      <trkpt lat="49.331089965999126" lon="8.506448026746512">
        <ele>99.150000000000006</ele>
        <time>2018-07-10T19:08:19Z</time>
      </trkpt>
      <trkpt lat="49.331007990986109" lon="8.5086780320853">
        <ele>100.59999999999999</ele>
        <time>2018-07-10T19:08:25Z</time>
      </trkpt>
      <trkpt lat="49.330922998487949" lon="8.512518033385277">
        <ele>100.59999999999999</ele>
        <time>2018-07-10T19:08:33Z</time>
      </trkpt>
      <trkpt lat="49.330909000709653" lon="8.520468017086387">
        <ele>102.04000000000001</ele>
        <time>2018-07-10T19:08:49Z</time>
      </trkpt>
      <trkpt lat="49.331097006797791" lon="8.527362970635295">
        <ele>106.36</ele>
        <time>2018-07-10T19:09:03Z</time>
      </trkpt>
      <trkpt lat="49.331405041739345" lon="8.533290987834334">
        <ele>109.25</ele>
        <time>2018-07-10T19:09:15Z</time>
      </trkpt>
      <trkpt lat="49.33169899508357" lon="8.537329975515604">
        <ele>110.69</ele>
        <time>2018-07-10T19:09:23Z</time>
      </trkpt>
      <trkpt lat="49.331966964527965" lon="8.540660021826625">
        <ele>112.13</ele>
        <time>2018-07-10T19:09:30Z</time>
      </trkpt>
      <trkpt lat="49.332271981984377" lon="8.544406984001398">
        <ele>113.09</ele>
        <time>2018-07-10T19:09:39Z</time>
      </trkpt>
      <trkpt lat="49.332347000017762" lon="8.548347987234592">
        <ele>115.01000000000001</ele>
        <time>2018-07-10T19:09:48Z</time>
      </trkpt>
      <trkpt lat="49.332396034151316" lon="8.553140005096793">
        <ele>116.94</ele>
        <time>2018-07-10T19:09:59Z</time>
      </trkpt>
      <trkpt lat="49.33242998085916" lon="8.55356496758759">
        <ele>116.94</ele>
        <time>2018-07-10T19:10:00Z</time>
      </trkpt>
      <trkpt lat="49.333005985245109" lon="8.555889017879963">
        <ele>119.81999999999999</ele>
        <time>2018-07-10T19:10:06Z</time>
      </trkpt>
      <trkpt lat="49.333935035392642" lon="8.557435981929302">
        <ele>119.81999999999999</ele>
        <time>2018-07-10T19:10:11Z</time>
      </trkpt>
      <trkpt lat="49.335170025005937" lon="8.558476008474827">
        <ele>119.81999999999999</ele>
        <time>2018-07-10T19:10:16Z</time>
      </trkpt>
      <trkpt lat="49.336577011272311" lon="8.558730985969305">
        <ele>118.38</ele>
        <time>2018-07-10T19:10:21Z</time>
      </trkpt>
      <trkpt lat="49.338002018630505" lon="8.558251960203052">
        <ele>116.45999999999999</ele>
        <time>2018-07-10T19:10:26Z</time>
      </trkpt>
      <trkpt lat="49.340316010639071" lon="8.556819995865226">
        <ele>115.01000000000001</ele>
        <time>2018-07-10T19:10:34Z</time>
      </trkpt>
      <trkpt lat="49.343715040013194" lon="8.555244030430913">
        <ele>115.01000000000001</ele>
        <time>2018-07-10T19:10:45Z</time>
      </trkpt>
      <trkpt lat="49.347511036321521" lon="8.553423983976245">
        <ele>115.01000000000001</ele>
        <time>2018-07-10T19:10:58Z</time>
      </trkpt>
      <trkpt lat="49.350932026281953" lon="8.551578959450126">
        <ele>113.09</ele>
        <time>2018-07-10T19:11:10Z</time>
      </trkpt>
      <trkpt lat="49.354374976828694" lon="8.549781041219831">
        <ele>110.69</ele>
        <time>2018-07-10T19:11:22Z</time>
      </trkpt>
      <trkpt lat="49.358496023342013" lon="8.547983961179853">
        <ele>108.29000000000001</ele>
        <time>2018-07-10T19:11:36Z</time>
      </trkpt>
      <trkpt lat="49.361223997548223" lon="8.54703102260828">
        <ele>108.77</ele>
        <time>2018-07-10T19:11:45Z</time>
      </trkpt>
      <trkpt lat="49.364904994145036" lon="8.545983033254743">
        <ele>107.81</ele>
        <time>2018-07-10T19:11:57Z</time>
      </trkpt>
      <trkpt lat="49.369549993425608" lon="8.545129001140595">
        <ele>108.77</ele>
        <time>2018-07-10T19:12:12Z</time>
      </trkpt>
      <trkpt lat="49.373588981106877" lon="8.544588033109903">
        <ele>107.31999999999999</ele>
        <time>2018-07-10T19:12:25Z</time>
      </trkpt>
      <trkpt lat="49.377646995708346" lon="8.54421797208488">
        <ele>105.88</ele>
        <time>2018-07-10T19:12:38Z</time>
      </trkpt>
      <trkpt lat="49.380767997354269" lon="8.544014962390065">
        <ele>105.40000000000001</ele>
        <time>2018-07-10T19:12:48Z</time>
      </trkpt>
      <trkpt lat="49.385452978312969" lon="8.543866015970707">
        <ele>104.92</ele>
        <time>2018-07-10T19:13:03Z</time>
      </trkpt>
      <trkpt lat="49.388584960252047" lon="8.543884037062526">
        <ele>106.36</ele>
        <time>2018-07-10T19:13:13Z</time>
      </trkpt>
      <trkpt lat="49.394207037985325" lon="8.54410900734365">
        <ele>105.40000000000001</ele>
        <time>2018-07-10T19:13:31Z</time>
      </trkpt>
      <trkpt lat="49.398268992081285" lon="8.544505974277854">
        <ele>106.84</ele>
        <time>2018-07-10T19:13:44Z</time>
      </trkpt>
      <trkpt lat="49.40079202875495" lon="8.544912999495864">
        <ele>108.77</ele>
        <time>2018-07-10T19:13:53Z</time>
      </trkpt>
      <trkpt lat="49.404164990410209" lon="8.54578597471118">
        <ele>111.17</ele>
        <time>2018-07-10T19:14:05Z</time>
      </trkpt>
      <trkpt lat="49.406652990728617" lon="8.546546967700124">
        <ele>112.61</ele>
        <time>2018-07-10T19:14:14Z</time>
      </trkpt>
      <trkpt lat="49.410517970100045" lon="8.547652959823608">
        <ele>114.53</ele>
        <time>2018-07-10T19:14:29Z</time>
      </trkpt>
      <trkpt lat="49.413285003975034" lon="8.548052022233605">
        <ele>114.53</ele>
        <time>2018-07-10T19:14:39Z</time>
      </trkpt>
      <trkpt lat="49.416676992550492" lon="8.547795033082366">
        <ele>112.61</ele>
        <time>2018-07-10T19:14:50Z</time>
      </trkpt>
      <trkpt lat="49.420031011104584" lon="8.546790964901447">
        <ele>109.73</ele>
        <time>2018-07-10T19:15:01Z</time>
      </trkpt>
      <trkpt lat="49.42415096797049" lon="8.544680988416076">
        <ele>105.40000000000001</ele>
        <time>2018-07-10T19:15:15Z</time>
      </trkpt>
      <trkpt lat="49.427066026255488" lon="8.543080966919661">
        <ele>104.92</ele>
        <time>2018-07-10T19:15:25Z</time>
      </trkpt>
      <trkpt lat="49.430954977869987" lon="8.541515981778503">
        <ele>104.44</ele>
        <time>2018-07-10T19:15:38Z</time>
      </trkpt>
      <trkpt lat="49.434622982516885" lon="8.540634037926793">
        <ele>103.48</ele>
        <time>2018-07-10T19:15:50Z</time>
      </trkpt>
      <trkpt lat="49.438014971092343" lon="8.540329020470381">
        <ele>103</ele>
        <time>2018-07-10T19:16:01Z</time>
      </trkpt>
      <trkpt lat="49.442336009815335" lon="8.540687011554837">
        <ele>103.95999999999999</ele>
        <time>2018-07-10T19:16:15Z</time>
      </trkpt>
      <trkpt lat="49.446308026090264" lon="8.541674986481667">
        <ele>107.31999999999999</ele>
        <time>2018-07-10T19:16:28Z</time>
      </trkpt>
      <trkpt lat="49.449980976060033" lon="8.54247503913939">
        <ele>110.69</ele>
        <time>2018-07-10T19:16:40Z</time>
      </trkpt>
      <trkpt lat="49.45276795886457" lon="8.542375965043902">
        <ele>109.25</ele>
        <time>2018-07-10T19:16:49Z</time>
      </trkpt>
      <trkpt lat="49.455514037981629" lon="8.541649002581835">
        <ele>106.36</ele>
        <time>2018-07-10T19:16:58Z</time>
      </trkpt>
      <trkpt lat="49.460032973438501" lon="8.539930963888764">
        <ele>106.36</ele>
        <time>2018-07-10T19:17:13Z</time>
      </trkpt>
      <trkpt lat="49.463112987577915" lon="8.539539026096463">
        <ele>105.88</ele>
        <time>2018-07-10T19:17:23Z</time>
      </trkpt>
      <trkpt lat="49.466197025030851" lon="8.539990978315473">
        <ele>105.88</ele>
        <time>2018-07-10T19:17:33Z</time>
      </trkpt>
      <trkpt lat="49.470444973558187" lon="8.54146895930171">
        <ele>105.40000000000001</ele>
        <time>2018-07-10T19:17:47Z</time>
      </trkpt>
      <trkpt lat="49.474171986803412" lon="8.542774021625519">
        <ele>105.40000000000001</ele>
        <time>2018-07-10T19:17:59Z</time>
      </trkpt>
      <trkpt lat="49.477837979793549" lon="8.54400297626853">
        <ele>108.29000000000001</ele>
        <time>2018-07-10T19:18:09Z</time>
      </trkpt>
      <trkpt lat="49.481834974139929" lon="8.545716991648078">
        <ele>107.31999999999999</ele>
        <time>2018-07-10T19:18:20Z</time>
      </trkpt>
      <trkpt lat="49.485908998176455" lon="8.548722993582487">
        <ele>98.670000000000002</ele>
        <time>2018-07-10T19:18:32Z</time>
      </trkpt>
      <trkpt lat="49.490212015807629" lon="8.552225958555937">
        <ele>95.790000000000006</ele>
        <time>2018-07-10T19:18:45Z</time>
      </trkpt>
      <trkpt lat="49.494157964363694" lon="8.555613001808524">
        <ele>96.75</ele>
        <time>2018-07-10T19:18:57Z</time>
      </trkpt>
      <trkpt lat="49.497811971232295" lon="8.558592014014721">
        <ele>95.790000000000006</ele>
        <time>2018-07-10T19:19:08Z</time>
      </trkpt>
      <trkpt lat="49.500642037019134" lon="8.560069995000958">
        <ele>98.189999999999998</ele>
        <time>2018-07-10T19:19:16Z</time>
      </trkpt>
      <trkpt lat="49.502497036010027" lon="8.56061196886003">
        <ele>99.150000000000006</ele>
        <time>2018-07-10T19:19:22Z</time>
      </trkpt>
      <trkpt lat="49.505037004128098" lon="8.560877004638314">
        <ele>99.629999999999995</ele>
        <time>2018-07-10T19:19:30Z</time>
      </trkpt>
      <trkpt lat="49.508544998243451" lon="8.560756975784898">
        <ele>100.59999999999999</ele>
        <time>2018-07-10T19:19:41Z</time>
      </trkpt>
      <trkpt lat="49.512540986761451" lon="8.560554971918464">
        <ele>100.11</ele>
        <time>2018-07-10T19:19:54Z</time>
      </trkpt>
      <trkpt lat="49.517514975741506" lon="8.560299994423986">
        <ele>101.08</ele>
        <time>2018-07-10T19:20:10Z</time>
      </trkpt>
      <trkpt lat="49.522095015272498" lon="8.560069995000958">
        <ele>106.36</ele>
        <time>2018-07-10T19:20:24Z</time>
      </trkpt>
      <trkpt lat="49.527021981775761" lon="8.559849970042706">
        <ele>109.25</ele>
        <time>2018-07-10T19:20:39Z</time>
      </trkpt>
      <trkpt lat="49.531303038820624" lon="8.559716027230024">
        <ele>103.95999999999999</ele>
        <time>2018-07-10T19:20:52Z</time>
      </trkpt>
      <trkpt lat="49.535892968997359" lon="8.559504970908165">
        <ele>101.08</ele>
        <time>2018-07-10T19:21:06Z</time>
      </trkpt>
      <trkpt lat="49.540162961930037" lon="8.559330962598324">
        <ele>100.59999999999999</ele>
        <time>2018-07-10T19:21:19Z</time>
      </trkpt>
      <trkpt lat="49.54377799294889" lon="8.559157038107514">
        <ele>99.629999999999995</ele>
        <time>2018-07-10T19:21:30Z</time>
      </trkpt>
      <trkpt lat="49.549035038799047" lon="8.558919997885823">
        <ele>101.56</ele>
        <time>2018-07-10T19:21:46Z</time>
      </trkpt>
      <trkpt lat="49.552401965484023" lon="8.558765016496182">
        <ele>102.04000000000001</ele>
        <time>2018-07-10T19:21:56Z</time>
      </trkpt>
      <trkpt lat="49.556280020624399" lon="8.558616992086172">
        <ele>100.11</ele>
        <time>2018-07-10T19:22:07Z</time>
      </trkpt>
      <trkpt lat="49.560168972238898" lon="8.558669965714216">
        <ele>99.629999999999995</ele>
        <time>2018-07-10T19:22:18Z</time>
      </trkpt>
      <trkpt lat="49.564394038170576" lon="8.559004990383983">
        <ele>100.11</ele>
        <time>2018-07-10T19:22:30Z</time>
      </trkpt>
      <trkpt lat="49.568259017542005" lon="8.559336997568607">
        <ele>99.150000000000006</ele>
        <time>2018-07-10T19:22:41Z</time>
      </trkpt>
      <trkpt lat="49.572861017659307" lon="8.559743016958237">
        <ele>99.629999999999995</ele>
        <time>2018-07-10T19:22:54Z</time>
      </trkpt>
      <trkpt lat="49.577450025826693" lon="8.560148030519486">
        <ele>101.08</ele>
        <time>2018-07-10T19:23:07Z</time>
      </trkpt>
      <trkpt lat="49.582373974844813" lon="8.560582967475057">
        <ele>101.08</ele>
        <time>2018-07-10T19:23:21Z</time>
      </trkpt>
      <trkpt lat="49.586602980270982" lon="8.560886979103088">
        <ele>99.629999999999995</ele>
        <time>2018-07-10T19:23:33Z</time>
      </trkpt>
      <trkpt lat="49.591199029237032" lon="8.560806009918451">
        <ele>99.629999999999995</ele>
        <time>2018-07-10T19:23:46Z</time>
      </trkpt>
      <trkpt lat="49.596133958548307" lon="8.5602249763906">
        <ele>99.150000000000006</ele>
        <time>2018-07-10T19:24:00Z</time>
      </trkpt>
      <trkpt lat="49.600027017295361" lon="8.559620976448059">
        <ele>98.670000000000002</ele>
        <time>2018-07-10T19:24:11Z</time>
      </trkpt>
      <trkpt lat="49.604922970756888" lon="8.55886803008616">
        <ele>98.670000000000002</ele>
        <time>2018-07-10T19:24:25Z</time>
      </trkpt>
      <trkpt lat="49.609129009768367" lon="8.558220025151968">
        <ele>98.670000000000002</ele>
        <time>2018-07-10T19:24:37Z</time>
      </trkpt>
      <trkpt lat="49.613704020157456" lon="8.557510999962688">
        <ele>98.670000000000002</ele>
        <time>2018-07-10T19:24:50Z</time>
      </trkpt>
      <trkpt lat="49.617567993700504" lon="8.556905994191766">
        <ele>97.230000000000004</ele>
        <time>2018-07-10T19:25:01Z</time>
      </trkpt>
      <trkpt lat="49.622488003224134" lon="8.556135026738048">
        <ele>97.709999999999994</ele>
        <time>2018-07-10T19:25:15Z</time>
      </trkpt>
      <trkpt lat="49.627748988568783" lon="8.555311001837254">
        <ele>97.230000000000004</ele>
        <time>2018-07-10T19:25:30Z</time>
      </trkpt>
      <trkpt lat="49.632301032543182" lon="8.554603988304734">
        <ele>96.75</ele>
        <time>2018-07-10T19:25:43Z</time>
      </trkpt>
      <trkpt lat="49.637565035372972" lon="8.553787004202604">
        <ele>97.230000000000004</ele>
        <time>2018-07-10T19:25:58Z</time>
      </trkpt>
      <trkpt lat="49.639368988573551" lon="8.553503025323153">
        <ele>96.269999999999996</ele>
        <time>2018-07-10T19:26:04Z</time>
      </trkpt>
      <trkpt lat="49.640856022015214" lon="8.553270008414984">
        <ele>94.349999999999994</ele>
        <time>2018-07-10T19:26:11Z</time>
      </trkpt>
      <trkpt lat="49.641828993335366" lon="8.5532639734447">
        <ele>94.349999999999994</ele>
        <time>2018-07-10T19:26:18Z</time>
      </trkpt>
      <trkpt lat="49.641919014975429" lon="8.5532639734447">
        <ele>94.349999999999994</ele>
        <time>2018-07-10T19:26:19Z</time>
      </trkpt>
      <trkpt lat="49.641997972503304" lon="8.5532639734447">
        <ele>94.829999999999998</ele>
        <time>2018-07-10T19:26:20Z</time>
      </trkpt>
      <trkpt lat="49.642088999971747" lon="8.5532639734447">
        <ele>94.829999999999998</ele>
        <time>2018-07-10T19:26:21Z</time>
      </trkpt>
      <trkpt lat="49.642135016620159" lon="8.55330403894186">
        <ele>95.310000000000002</ele>
        <time>2018-07-10T19:26:22Z</time>
      </trkpt>
      <trkpt lat="49.642174998298287" lon="8.553338991478086">
        <ele>95.310000000000002</ele>
        <time>2018-07-10T19:26:23Z</time>
      </trkpt>
      <trkpt lat="49.642209028825164" lon="8.553367992863059">
        <ele>95.790000000000006</ele>
        <time>2018-07-10T19:26:24Z</time>
      </trkpt>
      <trkpt lat="49.642238030210137" lon="8.553393976762891">
        <ele>95.790000000000006</ele>
        <time>2018-07-10T19:26:25Z</time>
      </trkpt>
      <trkpt lat="49.64226895943284" lon="8.553419960662723">
        <ele>96.269999999999996</ele>
        <time>2018-07-10T19:26:26Z</time>
      </trkpt>
      <trkpt lat="49.642298966646194" lon="8.553446028381586">
        <ele>96.269999999999996</ele>
        <time>2018-07-10T19:26:27Z</time>
      </trkpt>
      <trkpt lat="49.642411032691598" lon="8.553543007001281">
        <ele>97.230000000000004</ele>
        <time>2018-07-10T19:26:30Z</time>
      </trkpt>
      <trkpt lat="49.642411032691598" lon="8.553543007001281">
        <ele>97.230000000000004</ele>
        <time>2018-07-10T19:26:31Z</time>
      </trkpt>
      <trkpt lat="49.642411032691598" lon="8.553543007001281">
        <ele>97.230000000000004</ele>
        <time>2018-07-10T19:26:32Z</time>
      </trkpt>
      <trkpt lat="49.642541036009789" lon="8.553557004779577">
        <ele>97.709999999999994</ele>
        <time>2018-07-10T19:26:35Z</time>
      </trkpt>
      <trkpt lat="49.642557967454195" lon="8.553559016436338">
        <ele>97.709999999999994</ele>
        <time>2018-07-10T19:26:36Z</time>
      </trkpt>
      <trkpt lat="49.642574982717633" lon="8.553560022264719">
        <ele>97.709999999999994</ele>
        <time>2018-07-10T19:26:37Z</time>
      </trkpt>
      <trkpt lat="49.642634997144341" lon="8.553566979244351">
        <ele>98.189999999999998</ele>
        <time>2018-07-10T19:26:47Z</time>
      </trkpt>
      <trkpt lat="49.642689982429147" lon="8.553572008386254">
        <ele>96.75</ele>
        <time>2018-07-10T19:27:02Z</time>
      </trkpt>
      <trkpt lat="49.642796013504267" lon="8.554010968655348">
        <ele>92.420000000000002</ele>
        <time>2018-07-10T19:31:46Z</time>
      </trkpt>
      <trkpt lat="49.642787966877222" lon="8.55403401888907">
        <ele>85.689999999999998</ele>
        <time>2018-07-10T19:32:12Z</time>
      </trkpt>
      <trkpt lat="49.642743039876223" lon="8.553918013349176">
        <ele>82.810000000000002</ele>
        <time>2018-07-10T19:32:41Z</time>
      </trkpt>
      <trkpt lat="49.642770029604435" lon="8.553926981985569">
        <ele>82.810000000000002</ele>
        <time>2018-07-10T19:32:47Z</time>
      </trkpt>
      <trkpt lat="49.642839012667537" lon="8.553866967558861">
        <ele>90.5</ele>
        <time>2018-07-10T19:32:49Z</time>
      </trkpt>
      <trkpt lat="49.642828032374382" lon="8.553710980340838">
        <ele>94.829999999999998</ele>
        <time>2018-07-10T19:32:50Z</time>
      </trkpt>
      <trkpt lat="49.642905984073877" lon="8.553571002557874">
        <ele>95.790000000000006</ele>
        <time>2018-07-10T19:32:54Z</time>
      </trkpt>
      <trkpt lat="49.642930962145329" lon="8.553566979244351">
        <ele>93.390000000000001</ele>
        <time>2018-07-10T19:32:56Z</time>
      </trkpt>
      <trkpt lat="49.643058031797409" lon="8.553545018658042">
        <ele>91.939999999999998</ele>
        <time>2018-07-10T19:32:57Z</time>
      </trkpt>
      <trkpt lat="49.643139000982046" lon="8.553531020879746">
        <ele>90.5</ele>
        <time>2018-07-10T19:32:58Z</time>
      </trkpt>
      <trkpt lat="49.643228016793728" lon="8.553516017273068">
        <ele>89.540000000000006</ele>
        <time>2018-07-10T19:32:59Z</time>
      </trkpt>
      <trkpt lat="49.643321977928281" lon="8.55349900200963">
        <ele>89.060000000000002</ele>
        <time>2018-07-10T19:33:00Z</time>
      </trkpt>
      <trkpt lat="49.643441000953317" lon="8.55347896926105">
        <ele>88.579999999999998</ele>
        <time>2018-07-10T19:33:01Z</time>
      </trkpt>
      <trkpt lat="49.643508978188038" lon="8.553467988967896">
        <ele>89.060000000000002</ele>
        <time>2018-07-10T19:33:03Z</time>
      </trkpt>
      <trkpt lat="49.643697990104556" lon="8.553438987582922">
        <ele>89.060000000000002</ele>
        <time>2018-07-10T19:33:04Z</time>
      </trkpt>
      <trkpt lat="49.643784994259477" lon="8.553425995633006">
        <ele>89.060000000000002</ele>
        <time>2018-07-10T19:33:05Z</time>
      </trkpt>
      <trkpt lat="49.643870992586017" lon="8.55341300368309">
        <ele>89.060000000000002</ele>
        <time>2018-07-10T19:33:06Z</time>
      </trkpt>
      <trkpt lat="49.643964031711221" lon="8.553398000076413">
        <ele>88.579999999999998</ele>
        <time>2018-07-10T19:33:07Z</time>
      </trkpt>
      <trkpt lat="49.644067967310548" lon="8.553381990641356">
        <ele>88.579999999999998</ele>
        <time>2018-07-10T19:33:08Z</time>
      </trkpt>
      <trkpt lat="49.645045967772603" lon="8.553013019263744">
        <ele>91.459999999999994</ele>
        <time>2018-07-10T19:33:17Z</time>
      </trkpt>
      <trkpt lat="49.645474031567574" lon="8.552714036777616">
        <ele>90.980000000000004</ele>
        <time>2018-07-10T19:33:21Z</time>
      </trkpt>
      <trkpt lat="49.645560029894114" lon="8.552696015685797">
        <ele>90.980000000000004</ele>
        <time>2018-07-10T19:33:22Z</time>
      </trkpt>
      <trkpt lat="49.645715011283755" lon="8.552662990987301">
        <ele>90.980000000000004</ele>
        <time>2018-07-10T19:33:23Z</time>
      </trkpt>
      <trkpt lat="49.645934030413628" lon="8.552540028467774">
        <ele>90.5</ele>
        <time>2018-07-10T19:33:26Z</time>
      </trkpt>
      <trkpt lat="49.646180961281061" lon="8.552452018484473">
        <ele>90.980000000000004</ele>
        <time>2018-07-10T19:33:28Z</time>
      </trkpt>
      <trkpt lat="49.646295960992575" lon="8.552435003221035">
        <ele>91.459999999999994</ele>
        <time>2018-07-10T19:33:29Z</time>
      </trkpt>
      <trkpt lat="49.647477976977825" lon="8.552279016003013">
        <ele>92.420000000000002</ele>
        <time>2018-07-10T19:33:37Z</time>
      </trkpt>
      <trkpt lat="49.648902984336019" lon="8.552143983542919">
        <ele>92.900000000000006</ele>
        <time>2018-07-10T19:33:43Z</time>
      </trkpt>
      <trkpt lat="49.651989033445716" lon="8.552147001028061">
        <ele>97.230000000000004</ele>
        <time>2018-07-10T19:33:54Z</time>
      </trkpt>
      <trkpt lat="49.654202023521066" lon="8.552384041249752">
        <ele>100.59999999999999</ele>
        <time>2018-07-10T19:34:04Z</time>
      </trkpt>
      <trkpt lat="49.65728597715497" lon="8.553043026477099">
        <ele>102.04000000000001</ele>
        <time>2018-07-10T19:34:18Z</time>
      </trkpt>
      <trkpt lat="49.659753022715449" lon="8.553839977830648">
        <ele>101.08</ele>
        <time>2018-07-10T19:34:29Z</time>
      </trkpt>
      <trkpt lat="49.660890027880669" lon="8.554210038855672">
        <ele>100.11</ele>
        <time>2018-07-10T19:34:33Z</time>
      </trkpt>
      <trkpt lat="49.663610961288214" lon="8.555055018514395">
        <ele>97.230000000000004</ele>
        <time>2018-07-10T19:34:41Z</time>
      </trkpt>
      <trkpt lat="49.667635029181838" lon="8.555843001231551">
        <ele>97.709999999999994</ele>
        <time>2018-07-10T19:34:52Z</time>
      </trkpt>
      <trkpt lat="49.671385008841753" lon="8.555916007608175">
        <ele>101.08</ele>
        <time>2018-07-10T19:35:02Z</time>
      </trkpt>
      <trkpt lat="49.675501026213169" lon="8.555333968251944">
        <ele>98.189999999999998</ele>
        <time>2018-07-10T19:35:13Z</time>
      </trkpt>
      <trkpt lat="49.679568009451032" lon="8.554282961413264">
        <ele>96.75</ele>
        <time>2018-07-10T19:35:24Z</time>
      </trkpt>
      <trkpt lat="49.684362960979342" lon="8.552999021485448">
        <ele>97.709999999999994</ele>
        <time>2018-07-10T19:35:37Z</time>
      </trkpt>
      <trkpt lat="49.689551023766398" lon="8.551615001633763">
        <ele>97.230000000000004</ele>
        <time>2018-07-10T19:35:51Z</time>
      </trkpt>
      <trkpt lat="49.693613983690739" lon="8.55053398758173">
        <ele>95.310000000000002</ele>
        <time>2018-07-10T19:36:02Z</time>
      </trkpt>
      <trkpt lat="49.698801040649414" lon="8.549190033227205">
        <ele>96.269999999999996</ele>
        <time>2018-07-10T19:36:16Z</time>
      </trkpt>
      <trkpt lat="49.703982984647155" lon="8.547834008932114">
        <ele>102.04000000000001</ele>
        <time>2018-07-10T19:36:30Z</time>
      </trkpt>
      <trkpt lat="49.708430003374815" lon="8.546641012653709">
        <ele>97.709999999999994</ele>
        <time>2018-07-10T19:36:42Z</time>
      </trkpt>
      <trkpt lat="49.712126003578305" lon="8.545649014413357">
        <ele>96.269999999999996</ele>
        <time>2018-07-10T19:36:52Z</time>
      </trkpt>
      <trkpt lat="49.715454960241914" lon="8.544810991734266">
        <ele>96.269999999999996</ele>
        <time>2018-07-10T19:37:01Z</time>
      </trkpt>
      <trkpt lat="49.719154983758926" lon="8.543811030685902">
        <ele>96.269999999999996</ele>
        <time>2018-07-10T19:37:11Z</time>
      </trkpt>
      <trkpt lat="49.722875962033868" lon="8.543050037696958">
        <ele>95.790000000000006</ele>
        <time>2018-07-10T19:37:21Z</time>
      </trkpt>
      <trkpt lat="49.726632982492447" lon="8.542940989136696">
        <ele>95.790000000000006</ele>
        <time>2018-07-10T19:37:31Z</time>
      </trkpt>
      <trkpt lat="49.729489032179117" lon="8.543023969978094">
        <ele>95.790000000000006</ele>
        <time>2018-07-10T19:37:39Z</time>
      </trkpt>
      <trkpt lat="49.733137004077435" lon="8.543123966082931">
        <ele>97.230000000000004</ele>
        <time>2018-07-10T19:37:50Z</time>
      </trkpt>
      <trkpt lat="49.737084964290261" lon="8.543253969401121">
        <ele>98.189999999999998</ele>
        <time>2018-07-10T19:38:02Z</time>
      </trkpt>
      <trkpt lat="49.739539017900825" lon="8.543323036283255">
        <ele>96.75</ele>
        <time>2018-07-10T19:38:10Z</time>
      </trkpt>
      <trkpt lat="49.743969021365047" lon="8.543437030166388">
        <ele>96.75</ele>
        <time>2018-07-10T19:38:24Z</time>
      </trkpt>
      <trkpt lat="49.746550982818007" lon="8.543515987694264">
        <ele>95.790000000000006</ele>
        <time>2018-07-10T19:38:32Z</time>
      </trkpt>
      <trkpt lat="49.750098036602139" lon="8.543611960485578">
        <ele>95.310000000000002</ele>
        <time>2018-07-10T19:38:42Z</time>
      </trkpt>
      <trkpt lat="49.753823960199952" lon="8.543714974075556">
        <ele>93.870000000000005</ele>
        <time>2018-07-10T19:38:53Z</time>
      </trkpt>
      <trkpt lat="49.757994962856174" lon="8.54383097961545">
        <ele>94.349999999999994</ele>
        <time>2018-07-10T19:39:06Z</time>
      </trkpt>
      <trkpt lat="49.763089986518025" lon="8.543993001803756">
        <ele>96.75</ele>
        <time>2018-07-10T19:39:21Z</time>
      </trkpt>
      <trkpt lat="49.766333028674126" lon="8.544488959014416">
        <ele>93.870000000000005</ele>
        <time>2018-07-10T19:39:31Z</time>
      </trkpt>
      <trkpt lat="49.769116993993521" lon="8.545690001919866">
        <ele>94.829999999999998</ele>
        <time>2018-07-10T19:39:39Z</time>
      </trkpt>
      <trkpt lat="49.771851003170013" lon="8.547592023387551">
        <ele>96.269999999999996</ele>
        <time>2018-07-10T19:39:47Z</time>
      </trkpt>
      <trkpt lat="49.775156993418932" lon="8.550423011183739">
        <ele>97.709999999999994</ele>
        <time>2018-07-10T19:39:58Z</time>
      </trkpt>
      <trkpt lat="49.779123980551958" lon="8.553816005587578">
        <ele>96.75</ele>
        <time>2018-07-10T19:40:12Z</time>
      </trkpt>
      <trkpt lat="49.781315010040998" lon="8.555696988478303">
        <ele>95.790000000000006</ele>
        <time>2018-07-10T19:40:20Z</time>
      </trkpt>
      <trkpt lat="49.784013982862234" lon="8.55801198631525">
        <ele>96.75</ele>
        <time>2018-07-10T19:40:31Z</time>
      </trkpt>
      <trkpt lat="49.787212014198303" lon="8.560754964128137">
        <ele>97.709999999999994</ele>
        <time>2018-07-10T19:40:44Z</time>
      </trkpt>
      <trkpt lat="49.790233019739389" lon="8.563256962224841">
        <ele>99.629999999999995</ele>
        <time>2018-07-10T19:40:56Z</time>
      </trkpt>
      <trkpt lat="49.792764019221067" lon="8.565116990357637">
        <ele>99.629999999999995</ele>
        <time>2018-07-10T19:41:05Z</time>
      </trkpt>
      <trkpt lat="49.795602969825268" lon="8.567019011825323">
        <ele>98.189999999999998</ele>
        <time>2018-07-10T19:41:14Z</time>
      </trkpt>
      <trkpt lat="49.798977021127939" lon="8.56929000467062">
        <ele>97.230000000000004</ele>
        <time>2018-07-10T19:41:24Z</time>
      </trkpt>
      <trkpt lat="49.803421022370458" lon="8.572268011048436">
        <ele>98.670000000000002</ele>
        <time>2018-07-10T19:41:36Z</time>
      </trkpt>
      <trkpt lat="49.806622993201017" lon="8.574454011395574">
        <ele>101.56</ele>
        <time>2018-07-10T19:41:45Z</time>
      </trkpt>
      <trkpt lat="49.809653973206878" lon="8.576440019533038">
        <ele>104.92</ele>
        <time>2018-07-10T19:41:53Z</time>
      </trkpt>
      <trkpt lat="49.815373029559851" lon="8.580293012782931">
        <ele>105.88</ele>
        <time>2018-07-10T19:42:08Z</time>
      </trkpt>
      <trkpt lat="49.817561041563749" lon="8.581766970455647">
        <ele>106.36</ele>
        <time>2018-07-10T19:42:15Z</time>
      </trkpt>
      <trkpt lat="49.821168025955558" lon="8.584187999367714">
        <ele>104.92</ele>
        <time>2018-07-10T19:42:27Z</time>
      </trkpt>
      <trkpt lat="49.823917960748076" lon="8.586042998358607">
        <ele>104.44</ele>
        <time>2018-07-10T19:42:35Z</time>
      </trkpt>
      <trkpt lat="49.828161969780922" lon="8.588900975883007">
        <ele>105.88</ele>
        <time>2018-07-10T19:42:47Z</time>
      </trkpt>
      <trkpt lat="49.831392019987106" lon="8.591072978451848">
        <ele>105.40000000000001</ele>
        <time>2018-07-10T19:42:56Z</time>
      </trkpt>
      <trkpt lat="49.83460295945406" lon="8.592953039333224">
        <ele>106.84</ele>
        <time>2018-07-10T19:43:05Z</time>
      </trkpt>
      <trkpt lat="49.837499996647239" lon="8.593865996226668">
        <ele>107.31999999999999</ele>
        <time>2018-07-10T19:43:13Z</time>
      </trkpt>
      <trkpt lat="49.839942986145616" lon="8.594379974529147">
        <ele>107.81</ele>
        <time>2018-07-10T19:43:21Z</time>
      </trkpt>
      <trkpt lat="49.842559983953834" lon="8.594888001680374">
        <ele>108.77</ele>
        <time>2018-07-10T19:43:29Z</time>
      </trkpt>
      <trkpt lat="49.845786010846496" lon="8.595535000786185">
        <ele>109.25</ele>
        <time>2018-07-10T19:43:38Z</time>
      </trkpt>
      <trkpt lat="49.849219992756844" lon="8.596281995996833">
        <ele>109.25</ele>
        <time>2018-07-10T19:43:48Z</time>
      </trkpt>
      <trkpt lat="49.85252003185451" lon="8.596946010366082">
        <ele>111.17</ele>
        <time>2018-07-10T19:43:58Z</time>
      </trkpt>
      <trkpt lat="49.854451976716518" lon="8.597407015040517">
        <ele>110.20999999999999</ele>
        <time>2018-07-10T19:44:05Z</time>
      </trkpt>
      <trkpt lat="49.856099020689726" lon="8.597786966711283">
        <ele>111.17</ele>
        <time>2018-07-10T19:44:13Z</time>
      </trkpt>
      <trkpt lat="49.857990983873606" lon="8.598486017435789">
        <ele>111.17</ele>
        <time>2018-07-10T19:44:21Z</time>
      </trkpt>
      <trkpt lat="49.859792003408074" lon="8.599011981859803">
        <ele>115.5</ele>
        <time>2018-07-10T19:44:28Z</time>
      </trkpt>
      <trkpt lat="49.860028959810734" lon="8.598997984081507">
        <ele>115.98</ele>
        <time>2018-07-10T19:44:29Z</time>
      </trkpt>
      <trkpt lat="49.860257031396031" lon="8.598911985754967">
        <ele>115.98</ele>
        <time>2018-07-10T19:44:30Z</time>
      </trkpt>
      <trkpt lat="49.860478984192014" lon="8.598829004913569">
        <ele>116.45999999999999</ele>
        <time>2018-07-10T19:44:31Z</time>
      </trkpt>
      <trkpt lat="49.860692974179983" lon="8.598743006587029">
        <ele>116.45999999999999</ele>
        <time>2018-07-10T19:44:32Z</time>
      </trkpt>
      <trkpt lat="49.860891038551927" lon="8.598590958863497">
        <ele>116.45999999999999</ele>
        <time>2018-07-10T19:44:33Z</time>
      </trkpt>
      <trkpt lat="49.861074015498161" lon="8.598397001624107">
        <ele>116.45999999999999</ele>
        <time>2018-07-10T19:44:34Z</time>
      </trkpt>
      <trkpt lat="49.861236037686467" lon="8.598197009414434">
        <ele>116.45999999999999</ele>
        <time>2018-07-10T19:44:35Z</time>
      </trkpt>
      <trkpt lat="49.861408034339547" lon="8.597960975021124">
        <ele>116.45999999999999</ele>
        <time>2018-07-10T19:44:36Z</time>
      </trkpt>
      <trkpt lat="49.861534014344215" lon="8.597664004191756">
        <ele>115.98</ele>
        <time>2018-07-10T19:44:37Z</time>
      </trkpt>
      <trkpt lat="49.861656976863742" lon="8.59737298451364">
        <ele>115.5</ele>
        <time>2018-07-10T19:44:38Z</time>
      </trkpt>
      <trkpt lat="49.8617800232023" lon="8.597079031169415">
        <ele>115.01000000000001</ele>
        <time>2018-07-10T19:44:39Z</time>
      </trkpt>
      <trkpt lat="49.861882030963898" lon="8.59674702398479">
        <ele>114.53</ele>
        <time>2018-07-10T19:44:40Z</time>
      </trkpt>
      <trkpt lat="49.861986972391605" lon="8.596407976001501">
        <ele>114.53</ele>
        <time>2018-07-10T19:44:41Z</time>
      </trkpt>
      <trkpt lat="49.862475972622633" lon="8.595108026638627">
        <ele>113.56999999999999</ele>
        <time>2018-07-10T19:44:45Z</time>
      </trkpt>
      <trkpt lat="49.862654004245996" lon="8.594855982810259">
        <ele>113.09</ele>
        <time>2018-07-10T19:44:46Z</time>
      </trkpt>
      <trkpt lat="49.86283203586936" lon="8.594591030851007">
        <ele>113.09</ele>
        <time>2018-07-10T19:44:47Z</time>
      </trkpt>
      <trkpt lat="49.863014006987214" lon="8.59431803226471">
        <ele>112.61</ele>
        <time>2018-07-10T19:44:48Z</time>
      </trkpt>
      <trkpt lat="49.863221039995551" lon="8.594027012586594">
        <ele>112.61</ele>
        <time>2018-07-10T19:44:49Z</time>
      </trkpt>
      <trkpt lat="49.863460008054972" lon="8.593816962093115">
        <ele>112.13</ele>
        <time>2018-07-10T19:44:50Z</time>
      </trkpt>
      <trkpt lat="49.865160025656223" lon="8.592133959755302">
        <ele>109.25</ele>
        <time>2018-07-10T19:44:57Z</time>
      </trkpt>
      <trkpt lat="49.86725801602006" lon="8.589411014690995">
        <ele>107.81</ele>
        <time>2018-07-10T19:45:06Z</time>
      </trkpt>
      <trkpt lat="49.868941018357873" lon="8.586393026635051">
        <ele>108.77</ele>
        <time>2018-07-10T19:45:14Z</time>
      </trkpt>
      <trkpt lat="49.871205976232886" lon="8.581780968233943">
        <ele>113.09</ele>
        <time>2018-07-10T19:45:25Z</time>
      </trkpt>
      <trkpt lat="49.873460037633777" lon="8.57747602276504">
        <ele>115.5</ele>
        <time>2018-07-10T19:45:35Z</time>
      </trkpt>
      <trkpt lat="49.87735996954143" lon="8.570611998438835">
        <ele>112.13</ele>
        <time>2018-07-10T19:45:51Z</time>
      </trkpt>
      <trkpt lat="49.880695967003703" lon="8.564999978989363">
        <ele>105.40000000000001</ele>
        <time>2018-07-10T19:46:04Z</time>
      </trkpt>
      <trkpt lat="49.883415978401899" lon="8.560625966638327">
        <ele>104.44</ele>
        <time>2018-07-10T19:46:14Z</time>
      </trkpt>
      <trkpt lat="49.88629499450326" lon="8.556158998981118">
        <ele>101.08</ele>
        <time>2018-07-10T19:46:25Z</time>
      </trkpt>
      <trkpt lat="49.89018402993679" lon="8.549881037324667">
        <ele>100.11</ele>
        <time>2018-07-10T19:46:40Z</time>
      </trkpt>
      <trkpt lat="49.893569983541965" lon="8.543715979903936">
        <ele>98.189999999999998</ele>
        <time>2018-07-10T19:46:54Z</time>
      </trkpt>
      <trkpt lat="49.895860003307462" lon="8.53843797929585">
        <ele>97.230000000000004</ele>
        <time>2018-07-10T19:47:05Z</time>
      </trkpt>
      <trkpt lat="49.897838970646262" lon="8.533111028373241">
        <ele>96.75</ele>
        <time>2018-07-10T19:47:16Z</time>
      </trkpt>
      <trkpt lat="49.899910977110267" lon="8.527512000873685">
        <ele>95.790000000000006</ele>
        <time>2018-07-10T19:47:29Z</time>
      </trkpt>
      <trkpt lat="49.90193797275424" lon="8.522335002198815">
        <ele>93.390000000000001</ele>
        <time>2018-07-10T19:47:42Z</time>
      </trkpt>
      <trkpt lat="49.903618963435292" lon="8.51905700750649">
        <ele>89.540000000000006</ele>
        <time>2018-07-10T19:47:51Z</time>
      </trkpt>
      <trkpt lat="49.905576976016164" lon="8.516175979748368">
        <ele>89.540000000000006</ele>
        <time>2018-07-10T19:48:00Z</time>
      </trkpt>
      <trkpt lat="49.90780396386981" lon="8.513798033818603">
        <ele>88.579999999999998</ele>
        <time>2018-07-10T19:48:09Z</time>
      </trkpt>
      <trkpt lat="49.910263968631625" lon="8.511998020112515">
        <ele>91.939999999999998</ele>
        <time>2018-07-10T19:48:18Z</time>
      </trkpt>
      <trkpt lat="49.913191013038158" lon="8.510617017745972">
        <ele>92.900000000000006</ele>
        <time>2018-07-10T19:48:28Z</time>
      </trkpt>
      <trkpt lat="49.917913964018226" lon="8.508823961019516">
        <ele>100.59999999999999</ele>
        <time>2018-07-10T19:48:43Z</time>
      </trkpt>
      <trkpt lat="49.920633975416422" lon="8.507118998095393">
        <ele>103.48</ele>
        <time>2018-07-10T19:48:53Z</time>
      </trkpt>
      <trkpt lat="49.923652969300747" lon="8.504079971462488">
        <ele>100.59999999999999</ele>
        <time>2018-07-10T19:49:03Z</time>
      </trkpt>
      <trkpt lat="49.925568988546729" lon="8.501350991427898">
        <ele>95.790000000000006</ele>
        <time>2018-07-10T19:49:11Z</time>
      </trkpt>
      <trkpt lat="49.927384005859494" lon="8.497822964563966">
        <ele>95.310000000000002</ele>
        <time>2018-07-10T19:49:20Z</time>
      </trkpt>
      <trkpt lat="49.929202040657401" lon="8.493074029684067">
        <ele>93.870000000000005</ele>
        <time>2018-07-10T19:49:31Z</time>
      </trkpt>
      <trkpt lat="49.93117899633944" lon="8.48841997794807">
        <ele>93.870000000000005</ele>
        <time>2018-07-10T19:49:42Z</time>
      </trkpt>
      <trkpt lat="49.93294196203351" lon="8.485426967963576">
        <ele>97.709999999999994</ele>
        <time>2018-07-10T19:49:50Z</time>
      </trkpt>
      <trkpt lat="49.935215972363949" lon="8.482559015974402">
        <ele>98.670000000000002</ele>
        <time>2018-07-10T19:49:59Z</time>
      </trkpt>
      <trkpt lat="49.937472967430949" lon="8.480543000623584">
        <ele>98.189999999999998</ele>
        <time>2018-07-10T19:50:07Z</time>
      </trkpt>
      <trkpt lat="49.940210999920964" lon="8.478928981348872">
        <ele>98.670000000000002</ele>
        <time>2018-07-10T19:50:16Z</time>
      </trkpt>
      <trkpt lat="49.943094961345196" lon="8.478108979761601">
        <ele>97.230000000000004</ele>
        <time>2018-07-10T19:50:25Z</time>
      </trkpt>
      <trkpt lat="49.946345966309309" lon="8.477791976183653">
        <ele>98.670000000000002</ele>
        <time>2018-07-10T19:50:35Z</time>
      </trkpt>
      <trkpt lat="49.948728019371629" lon="8.477645041421056">
        <ele>99.150000000000006</ele>
        <time>2018-07-10T19:50:43Z</time>
      </trkpt>
      <trkpt lat="49.95206200517714" lon="8.47716199234128">
        <ele>99.150000000000006</ele>
        <time>2018-07-10T19:50:55Z</time>
      </trkpt>
      <trkpt lat="49.955197004601359" lon="8.476126994937658">
        <ele>98.189999999999998</ele>
        <time>2018-07-10T19:51:06Z</time>
      </trkpt>
      <trkpt lat="49.957955991849303" lon="8.474705005064607">
        <ele>98.189999999999998</ele>
        <time>2018-07-10T19:51:16Z</time>
      </trkpt>
      <trkpt lat="49.961128039285541" lon="8.472614977508783">
        <ele>97.709999999999994</ele>
        <time>2018-07-10T19:51:28Z</time>
      </trkpt>
      <trkpt lat="49.964041002094746" lon="8.470598040148616">
        <ele>97.230000000000004</ele>
        <time>2018-07-10T19:51:39Z</time>
      </trkpt>
      <trkpt lat="49.967604987323284" lon="8.468279018998146">
        <ele>97.709999999999994</ele>
        <time>2018-07-10T19:51:52Z</time>
      </trkpt>
      <trkpt lat="49.971089009195566" lon="8.466610014438629">
        <ele>97.230000000000004</ele>
        <time>2018-07-10T19:52:04Z</time>
      </trkpt>
      <trkpt lat="49.973528981208801" lon="8.465843992307782">
        <ele>91.939999999999998</ele>
        <time>2018-07-10T19:52:12Z</time>
      </trkpt>
      <trkpt lat="49.97662098146975" lon="8.46525901928544">
        <ele>93.390000000000001</ele>
        <time>2018-07-10T19:52:22Z</time>
      </trkpt>
      <trkpt lat="49.979425985366106" lon="8.465143013745546">
        <ele>92.900000000000006</ele>
        <time>2018-07-10T19:52:31Z</time>
      </trkpt>
      <trkpt lat="49.982773968949914" lon="8.465469991788268">
        <ele>91.459999999999994</ele>
        <time>2018-07-10T19:52:42Z</time>
      </trkpt>
      <trkpt lat="49.985100030899048" lon="8.46601297147572">
        <ele>92.420000000000002</ele>
        <time>2018-07-10T19:52:51Z</time>
      </trkpt>
      <trkpt lat="49.988112989813089" lon="8.467189958319068">
        <ele>92.900000000000006</ele>
        <time>2018-07-10T19:53:04Z</time>
      </trkpt>
      <trkpt lat="49.989807978272438" lon="8.468071985989809">
        <ele>95.310000000000002</ele>
        <time>2018-07-10T19:53:13Z</time>
      </trkpt>
      <trkpt lat="49.992070002481341" lon="8.469460029155016">
        <ele>96.75</ele>
        <time>2018-07-10T19:53:25Z</time>
      </trkpt>
      <trkpt lat="49.993818970397115" lon="8.470725025981665">
        <ele>96.269999999999996</ele>
        <time>2018-07-10T19:53:34Z</time>
      </trkpt>
      <trkpt lat="49.995732977986336" lon="8.472411967813969">
        <ele>97.709999999999994</ele>
        <time>2018-07-10T19:53:42Z</time>
      </trkpt>
      <trkpt lat="49.998634038493037" lon="8.475500028580427">
        <ele>99.150000000000006</ele>
        <time>2018-07-10T19:53:54Z</time>
      </trkpt>
      <trkpt lat="50.001085996627808" lon="8.478744998574257">
        <ele>97.230000000000004</ele>
        <time>2018-07-10T19:54:05Z</time>
      </trkpt>
      <trkpt lat="50.003195973113179" lon="8.482063980773091">
        <ele>96.269999999999996</ele>
        <time>2018-07-10T19:54:15Z</time>
      </trkpt>
      <trkpt lat="50.005692020058632" lon="8.486225008964539">
        <ele>96.75</ele>
        <time>2018-07-10T19:54:27Z</time>
      </trkpt>
      <trkpt lat="50.008241962641478" lon="8.490171041339636">
        <ele>97.709999999999994</ele>
        <time>2018-07-10T19:54:39Z</time>
      </trkpt>
      <trkpt lat="50.010745972394943" lon="8.493098001927137">
        <ele>97.709999999999994</ele>
        <time>2018-07-10T19:54:49Z</time>
      </trkpt>
      <trkpt lat="50.013306979089975" lon="8.495102031156421">
        <ele>98.189999999999998</ele>
        <time>2018-07-10T19:54:58Z</time>
      </trkpt>
      <trkpt lat="50.015689032152295" lon="8.496279017999768">
        <ele>98.189999999999998</ele>
        <time>2018-07-10T19:55:06Z</time>
      </trkpt>
      <trkpt lat="50.018739039078355" lon="8.497001035138965">
        <ele>99.150000000000006</ele>
        <time>2018-07-10T19:55:16Z</time>
      </trkpt>
      <trkpt lat="50.020839963108301" lon="8.496998017653823">
        <ele>102.04000000000001</ele>
        <time>2018-07-10T19:55:23Z</time>
      </trkpt>
      <trkpt lat="50.023245988413692" lon="8.496415978297591">
        <ele>103.95999999999999</ele>
        <time>2018-07-10T19:55:32Z</time>
      </trkpt>
      <trkpt lat="50.024444013834" lon="8.495624978095293">
        <ele>103</ele>
        <time>2018-07-10T19:55:37Z</time>
      </trkpt>
      <trkpt lat="50.024640988558531" lon="8.495412999764085">
        <ele>102.52</ele>
        <time>2018-07-10T19:55:38Z</time>
      </trkpt>
      <trkpt lat="50.024834023788571" lon="8.495205966755748">
        <ele>102.52</ele>
        <time>2018-07-10T19:55:39Z</time>
      </trkpt>
      <trkpt lat="50.025983015075326" lon="8.493294976651669">
        <ele>100.59999999999999</ele>
        <time>2018-07-10T19:55:46Z</time>
      </trkpt>
      <trkpt lat="50.026409989222884" lon="8.491873992606998">
        <ele>98.189999999999998</ele>
        <time>2018-07-10T19:55:50Z</time>
      </trkpt>
      <trkpt lat="50.026640994474292" lon="8.489926960319281">
        <ele>95.790000000000006</ele>
        <time>2018-07-10T19:55:55Z</time>
      </trkpt>
      <trkpt lat="50.026393979787827" lon="8.487386992201209">
        <ele>96.75</ele>
        <time>2018-07-10T19:56:01Z</time>
      </trkpt>
      <trkpt lat="50.025930963456631" lon="8.484130036085844">
        <ele>99.150000000000006</ele>
        <time>2018-07-10T19:56:09Z</time>
      </trkpt>
      <trkpt lat="50.026067001745105" lon="8.481365013867617">
        <ele>100.59999999999999</ele>
        <time>2018-07-10T19:56:16Z</time>
      </trkpt>
      <trkpt lat="50.026703020557761" lon="8.477685023099184">
        <ele>104.44</ele>
        <time>2018-07-10T19:56:25Z</time>
      </trkpt>
      <trkpt lat="50.027914959937334" lon="8.471609987318516">
        <ele>103.95999999999999</ele>
        <time>2018-07-10T19:56:40Z</time>
      </trkpt>
      <trkpt lat="50.028938977047801" lon="8.46648596227169">
        <ele>104.44</ele>
        <time>2018-07-10T19:56:53Z</time>
      </trkpt>
      <trkpt lat="50.029995013028383" lon="8.46094099804759">
        <ele>104.92</ele>
        <time>2018-07-10T19:57:07Z</time>
      </trkpt>
      <trkpt lat="50.030967984348536" lon="8.456376967951655">
        <ele>106.36</ele>
        <time>2018-07-10T19:57:19Z</time>
      </trkpt>
      <trkpt lat="50.032467003911734" lon="8.450533021241427">
        <ele>104.44</ele>
        <time>2018-07-10T19:57:35Z</time>
      </trkpt>
      <trkpt lat="50.033747004345059" lon="8.445667997002602">
        <ele>104.92</ele>
        <time>2018-07-10T19:57:48Z</time>
      </trkpt>
      <trkpt lat="50.03480102866888" lon="8.441595984622836">
        <ele>105.40000000000001</ele>
        <time>2018-07-10T19:57:58Z</time>
      </trkpt>
      <trkpt lat="50.03611396998167" lon="8.436524011194706">
        <ele>108.29000000000001</ele>
        <time>2018-07-10T19:58:09Z</time>
      </trkpt>
      <trkpt lat="50.037664035335183" lon="8.430603034794331">
        <ele>119.34</ele>
        <time>2018-07-10T19:58:22Z</time>
      </trkpt>
      <trkpt lat="50.038687968626618" lon="8.426661025732756">
        <ele>130.40000000000001</ele>
        <time>2018-07-10T19:58:31Z</time>
      </trkpt>
      <trkpt lat="50.039895968511701" lon="8.421989036723971">
        <ele>143.37</ele>
        <time>2018-07-10T19:58:41Z</time>
      </trkpt>
      <trkpt lat="50.041701011359692" lon="8.415691964328289">
        <ele>151.53999999999999</ele>
        <time>2018-07-10T19:58:54Z</time>
      </trkpt>
      <trkpt lat="50.042905993759632" lon="8.411687007173896">
        <ele>153.47</ele>
        <time>2018-07-10T19:59:03Z</time>
      </trkpt>
      <trkpt lat="50.044583966955543" lon="8.406095020473003">
        <ele>152.99000000000001</ele>
        <time>2018-07-10T19:59:17Z</time>
      </trkpt>
      <trkpt lat="50.046333018690348" lon="8.4002669993788">
        <ele>156.83000000000001</ele>
        <time>2018-07-10T19:59:32Z</time>
      </trkpt>
      <trkpt lat="50.047574965283275" lon="8.397159995511174">
        <ele>159.72</ele>
        <time>2018-07-10T19:59:41Z</time>
      </trkpt>
      <trkpt lat="50.049305995926261" lon="8.394217025488615">
        <ele>161.63999999999999</ele>
        <time>2018-07-10T19:59:51Z</time>
      </trkpt>
      <trkpt lat="50.051718978211284" lon="8.391520986333489">
        <ele>164.03999999999999</ele>
        <time>2018-07-10T20:00:03Z</time>
      </trkpt>
      <trkpt lat="50.053268037736416" lon="8.390236962586641">
        <ele>165.96000000000001</ele>
        <time>2018-07-10T20:00:12Z</time>
      </trkpt>
      <trkpt lat="50.053518991917372" lon="8.390089021995664">
        <ele>166.93000000000001</ele>
        <time>2018-07-10T20:00:15Z</time>
      </trkpt>
      <trkpt lat="50.053731976076961" lon="8.389972010627389">
        <ele>166.93000000000001</ele>
        <time>2018-07-10T20:00:16Z</time>
      </trkpt>
      <trkpt lat="50.053846975788474" lon="8.389971004799008">
        <ele>166.93000000000001</ele>
        <time>2018-07-10T20:00:17Z</time>
      </trkpt>
      <trkpt lat="50.05396599881351" lon="8.389971004799008">
        <ele>166.93000000000001</ele>
        <time>2018-07-10T20:00:18Z</time>
      </trkpt>
      <trkpt lat="50.054080998525023" lon="8.390029007568955">
        <ele>166.93000000000001</ele>
        <time>2018-07-10T20:00:19Z</time>
      </trkpt>
      <trkpt lat="50.054199015721679" lon="8.390104025602341">
        <ele>166.93000000000001</ele>
        <time>2018-07-10T20:00:20Z</time>
      </trkpt>
      <trkpt lat="50.054318038746715" lon="8.390207961201668">
        <ele>166.93000000000001</ele>
        <time>2018-07-10T20:00:21Z</time>
      </trkpt>
      <trkpt lat="50.054447958245873" lon="8.390332013368607">
        <ele>166.44999999999999</ele>
        <time>2018-07-10T20:00:22Z</time>
      </trkpt>
      <trkpt lat="50.055143991485238" lon="8.391035003587604">
        <ele>165</ele>
        <time>2018-07-10T20:00:27Z</time>
      </trkpt>
      <trkpt lat="50.055252034217119" lon="8.391184033825994">
        <ele>164.52000000000001</ele>
        <time>2018-07-10T20:00:28Z</time>
      </trkpt>
      <trkpt lat="50.055343983694911" lon="8.391335997730494">
        <ele>164.52000000000001</ele>
        <time>2018-07-10T20:00:29Z</time>
      </trkpt>
      <trkpt lat="50.055416990071535" lon="8.391513023525477">
        <ele>164.03999999999999</ele>
        <time>2018-07-10T20:00:30Z</time>
      </trkpt>
      <trkpt lat="50.055480021983385" lon="8.391727013513446">
        <ele>164.03999999999999</ele>
        <time>2018-07-10T20:00:31Z</time>
      </trkpt>
      <trkpt lat="50.055506005883217" lon="8.391963969916105">
        <ele>164.52000000000001</ele>
        <time>2018-07-10T20:00:32Z</time>
      </trkpt>
      <trkpt lat="50.05553500726819" lon="8.392223976552486">
        <ele>164.03999999999999</ele>
        <time>2018-07-10T20:00:33Z</time>
      </trkpt>
      <trkpt lat="50.0555569678545" lon="8.393983002752066">
        <ele>163.08000000000001</ele>
        <time>2018-07-10T20:00:38Z</time>
      </trkpt>
      <trkpt lat="50.055530983954668" lon="8.397242976352572">
        <ele>159.24000000000001</ele>
        <time>2018-07-10T20:00:45Z</time>
      </trkpt>
      <trkpt lat="50.055493013933301" lon="8.403355982154608">
        <ele>159.24000000000001</ele>
        <time>2018-07-10T20:00:57Z</time>
      </trkpt>
      <trkpt lat="50.055478010326624" lon="8.410372976213694">
        <ele>160.68000000000001</ele>
        <time>2018-07-10T20:01:10Z</time>
      </trkpt>
      <trkpt lat="50.055446997284889" lon="8.41646796092391">
        <ele>158.27000000000001</ele>
        <time>2018-07-10T20:01:22Z</time>
      </trkpt>
      <trkpt lat="50.055436016991735" lon="8.419726006686688">
        <ele>157.31</ele>
        <time>2018-07-10T20:01:29Z</time>
      </trkpt>
      <trkpt lat="50.055420007556677" lon="8.424151986837387">
        <ele>148.66</ele>
        <time>2018-07-10T20:01:40Z</time>
      </trkpt>
      <trkpt lat="50.055387988686562" lon="8.429801976308227">
        <ele>139.05000000000001</ele>
        <time>2018-07-10T20:01:54Z</time>
      </trkpt>
      <trkpt lat="50.055364016443491" lon="8.43459801748395">
        <ele>135.68000000000001</ele>
        <time>2018-07-10T20:02:07Z</time>
      </trkpt>
      <trkpt lat="50.055321017280221" lon="8.439261959865689">
        <ele>130.88</ele>
        <time>2018-07-10T20:02:20Z</time>
      </trkpt>
      <trkpt lat="50.055000996217132" lon="8.443448971956968">
        <ele>128.47</ele>
        <time>2018-07-10T20:02:30Z</time>
      </trkpt>
      <trkpt lat="50.055282041430473" lon="8.446089019998908">
        <ele>127.03</ele>
        <time>2018-07-10T20:02:36Z</time>
      </trkpt>
      <trkpt lat="50.056043034419417" lon="8.448493033647537">
        <ele>126.06999999999999</ele>
        <time>2018-07-10T20:02:42Z</time>
      </trkpt>
      <trkpt lat="50.057390006259084" lon="8.45073401927948">
        <ele>125.11</ele>
        <time>2018-07-10T20:02:49Z</time>
      </trkpt>
      <trkpt lat="50.060321995988488" lon="8.454979034140706">
        <ele>124.15000000000001</ele>
        <time>2018-07-10T20:03:03Z</time>
      </trkpt>
      <trkpt lat="50.063413996249437" lon="8.459423035383225">
        <ele>125.11</ele>
        <time>2018-07-10T20:03:18Z</time>
      </trkpt>
      <trkpt lat="50.065023992210627" lon="8.462119996547699">
        <ele>124.63</ele>
        <time>2018-07-10T20:03:28Z</time>
      </trkpt>
      <trkpt lat="50.066528962925076" lon="8.464929023757577">
        <ele>122.70999999999999</ele>
        <time>2018-07-10T20:03:39Z</time>
      </trkpt>
      <trkpt lat="50.067715002223849" lon="8.467001030221582">
        <ele>122.22</ele>
        <time>2018-07-10T20:03:49Z</time>
      </trkpt>
      <trkpt lat="50.067940978333354" lon="8.467532023787499">
        <ele>121.26000000000001</ele>
        <time>2018-07-10T20:03:52Z</time>
      </trkpt>
      <trkpt lat="50.068009039387107" lon="8.467691028490663">
        <ele>120.78</ele>
        <time>2018-07-10T20:03:53Z</time>
      </trkpt>
      <trkpt lat="50.068048015236855" lon="8.467840980738401">
        <ele>120.78</ele>
        <time>2018-07-10T20:03:54Z</time>
      </trkpt>
      <trkpt lat="50.068054972216487" lon="8.46800702624023">
        <ele>120.3</ele>
        <time>2018-07-10T20:03:55Z</time>
      </trkpt>
      <trkpt lat="50.068062013015151" lon="8.468166030943394">
        <ele>120.78</ele>
        <time>2018-07-10T20:03:56Z</time>
      </trkpt>
      <trkpt lat="50.068058995530009" lon="8.468310032039881">
        <ele>120.78</ele>
        <time>2018-07-10T20:03:57Z</time>
      </trkpt>
      <trkpt lat="50.068028988316655" lon="8.468457972630858">
        <ele>121.73999999999999</ele>
        <time>2018-07-10T20:03:58Z</time>
      </trkpt>
      <trkpt lat="50.06799696944654" lon="8.468605997040868">
        <ele>122.22</ele>
        <time>2018-07-10T20:03:59Z</time>
      </trkpt>
      <trkpt lat="50.067943995818496" lon="8.46873801201582">
        <ele>122.70999999999999</ele>
        <time>2018-07-10T20:04:00Z</time>
      </trkpt>
      <trkpt lat="50.067890016362071" lon="8.468872960656881">
        <ele>122.70999999999999</ele>
        <time>2018-07-10T20:04:01Z</time>
      </trkpt>
      <trkpt lat="50.067811980843544" lon="8.468982009217143">
        <ele>123.19</ele>
        <time>2018-07-10T20:04:02Z</time>
      </trkpt>
      <trkpt lat="50.067725982517004" lon="8.469076976180077">
        <ele>123.19</ele>
        <time>2018-07-10T20:04:03Z</time>
      </trkpt>
      <trkpt lat="50.067638978362083" lon="8.469172026962042">
        <ele>123.19</ele>
        <time>2018-07-10T20:04:04Z</time>
      </trkpt>
      <trkpt lat="50.066609010100365" lon="8.470042990520597">
        <ele>118.38</ele>
        <time>2018-07-10T20:04:13Z</time>
      </trkpt>
      <trkpt lat="50.065712984651327" lon="8.470754027366638">
        <ele>113.56999999999999</ele>
        <time>2018-07-10T20:04:22Z</time>
      </trkpt>
      <trkpt lat="50.065434034913778" lon="8.470986038446426">
        <ele>112.61</ele>
        <time>2018-07-10T20:04:27Z</time>
      </trkpt>
      <trkpt lat="50.065385000780225" lon="8.471027025952935">
        <ele>112.61</ele>
        <time>2018-07-10T20:04:28Z</time>
      </trkpt>
      <trkpt lat="50.065339989960194" lon="8.471157029271126">
        <ele>112.61</ele>
        <time>2018-07-10T20:04:29Z</time>
      </trkpt>
      <trkpt lat="50.065362034365535" lon="8.471241015940905">
        <ele>112.61</ele>
        <time>2018-07-10T20:04:30Z</time>
      </trkpt>
      <trkpt lat="50.065389024093747" lon="8.471346041187644">
        <ele>112.13</ele>
        <time>2018-07-10T20:04:31Z</time>
      </trkpt>
      <trkpt lat="50.065420959144831" lon="8.471469003707171">
        <ele>112.13</ele>
        <time>2018-07-10T20:04:32Z</time>
      </trkpt>
      <trkpt lat="50.065458007156849" lon="8.471610993146896">
        <ele>112.13</ele>
        <time>2018-07-10T20:04:33Z</time>
      </trkpt>
      <trkpt lat="50.065838964655995" lon="8.473010016605258">
        <ele>111.65000000000001</ele>
        <time>2018-07-10T20:04:40Z</time>
      </trkpt>
      <trkpt lat="50.066275997087359" lon="8.474466959014535">
        <ele>110.20999999999999</ele>
        <time>2018-07-10T20:04:48Z</time>
      </trkpt>
      <trkpt lat="50.066374987363815" lon="8.47479703836143">
        <ele>109.73</ele>
        <time>2018-07-10T20:04:51Z</time>
      </trkpt>
      <trkpt lat="50.066380016505718" lon="8.474989989772439">
        <ele>109.25</ele>
        <time>2018-07-10T20:04:53Z</time>
      </trkpt>
      <trkpt lat="50.066389990970492" lon="8.475071964785457">
        <ele>108.77</ele>
        <time>2018-07-10T20:04:54Z</time>
      </trkpt>
      <trkpt lat="50.066522005945444" lon="8.475114963948727">
        <ele>108.77</ele>
        <time>2018-07-10T20:04:55Z</time>
      </trkpt>
      <trkpt lat="50.066541032865644" lon="8.475148994475603">
        <ele>108.29000000000001</ele>
        <time>2018-07-10T20:04:56Z</time>
      </trkpt>
      <trkpt lat="50.066590989008546" lon="8.475238010287285">
        <ele>108.29000000000001</ele>
        <time>2018-07-10T20:04:57Z</time>
      </trkpt>
      <trkpt lat="50.066649997606874" lon="8.475340018048883">
        <ele>108.77</ele>
        <time>2018-07-10T20:04:58Z</time>
      </trkpt>
      <trkpt lat="50.066715963184834" lon="8.475457029417157">
        <ele>108.77</ele>
        <time>2018-07-10T20:04:59Z</time>
      </trkpt>
      <trkpt lat="50.066787041723728" lon="8.475582003593445">
        <ele>109.25</ele>
        <time>2018-07-10T20:05:00Z</time>
      </trkpt>
      <trkpt lat="50.067391041666269" lon="8.476782040670514">
        <ele>109.25</ele>
        <time>2018-07-10T20:05:09Z</time>
      </trkpt>
      <trkpt lat="50.06793100386858" lon="8.478132029995322">
        <ele>109.25</ele>
        <time>2018-07-10T20:05:19Z</time>
      </trkpt>
      <trkpt lat="50.06808003410697" lon="8.478497983887792">
        <ele>108.77</ele>
        <time>2018-07-10T20:05:23Z</time>
      </trkpt>
      <trkpt lat="50.068207019940019" lon="8.478590017184615">
        <ele>107.81</ele>
        <time>2018-07-10T20:05:28Z</time>
      </trkpt>
      <trkpt lat="50.068230992183089" lon="8.478551963344216">
        <ele>107.81</ele>
        <time>2018-07-10T20:05:29Z</time>
      </trkpt>
      <trkpt lat="50.068256976082921" lon="8.478510975837708">
        <ele>107.81</ele>
        <time>2018-07-10T20:05:30Z</time>
      </trkpt>
      <trkpt lat="50.068285977467895" lon="8.478464959189296">
        <ele>107.81</ele>
        <time>2018-07-10T20:05:31Z</time>
      </trkpt>
      <trkpt lat="50.06831900216639" lon="8.478410979732871">
        <ele>107.81</ele>
        <time>2018-07-10T20:05:32Z</time>
      </trkpt>
      <trkpt lat="50.068350015208125" lon="8.478361023589969">
        <ele>107.81</ele>
        <time>2018-07-10T20:05:33Z</time>
      </trkpt>
      <trkpt lat="50.068373987451196" lon="8.478323975577951">
        <ele>107.31999999999999</ele>
        <time>2018-07-10T20:05:34Z</time>
      </trkpt>
      <trkpt lat="50.068395026028156" lon="8.478289023041725">
        <ele>107.31999999999999</ele>
        <time>2018-07-10T20:05:35Z</time>
      </trkpt>
      <trkpt lat="50.068412963300943" lon="8.478260021656752">
        <ele>107.31999999999999</ele>
        <time>2018-07-10T20:05:36Z</time>
      </trkpt>
      <trkpt lat="50.06842796690762" lon="8.478235965594649">
        <ele>107.31999999999999</ele>
        <time>2018-07-10T20:05:37Z</time>
      </trkpt>
      <trkpt lat="50.068440958857536" lon="8.478217022493482">
        <ele>107.31999999999999</ele>
        <time>2018-07-10T20:05:38Z</time>
      </trkpt>
      <trkpt lat="50.068473983556032" lon="8.478162037208676">
        <ele>106.84</ele>
        <time>2018-07-10T20:05:39Z</time>
      </trkpt>
      <trkpt lat="50.068473983556032" lon="8.478162037208676">
        <ele>106.84</ele>
        <time>2018-07-10T20:05:40Z</time>
      </trkpt>
      <trkpt lat="50.068473983556032" lon="8.478162037208676">
        <ele>106.84</ele>
        <time>2018-07-10T20:05:41Z</time>
      </trkpt>
    </trkseg>
  </trk>

</gpx>